<?xml version="1.0" encoding="UTF-8" standalone="no" ?>
<gpx xmlns="http://www.topografix.com/GPX/1/1" xmlns:xsi="http://www.w3.org/2001/XMLSchema-instance" xsi:schemaLocation="http://www.topografix.com/GPX/1/1 http://www.topografix.com/GPX/1/1/gpx.xsd" version="1.1" creator="VisuGPX - https://www.visugpx.com">
  <metadata>
    <name>Roc la Tour 2022_07_15</name>
  </metadata>
  <trk>
    <name><![CDATA[Roc la Tour 2022_07_15_1]]></name>
    <trkseg>
      <trkpt lat="49.75382" lon="4.82148">
        <ele>233</ele>
        <time>2022-07-15T05:29:27.000Z</time>
      </trkpt>
      <trkpt lat="49.75382" lon="4.82148">
        <ele>233</ele>
        <time>2022-07-15T05:29:28.000Z</time>
      </trkpt>
      <trkpt lat="49.75382" lon="4.82146">
        <ele>232</ele>
        <time>2022-07-15T05:29:29.000Z</time>
      </trkpt>
      <trkpt lat="49.75383" lon="4.82144">
        <ele>232</ele>
        <time>2022-07-15T05:29:30.000Z</time>
      </trkpt>
      <trkpt lat="49.75384" lon="4.82142">
        <ele>231</ele>
        <time>2022-07-15T05:29:31.000Z</time>
      </trkpt>
      <trkpt lat="49.75386" lon="4.82141">
        <ele>231</ele>
        <time>2022-07-15T05:29:32.000Z</time>
      </trkpt>
      <trkpt lat="49.75388" lon="4.82141">
        <ele>230</ele>
        <time>2022-07-15T05:29:33.000Z</time>
      </trkpt>
      <trkpt lat="49.7539" lon="4.82142">
        <ele>229</ele>
        <time>2022-07-15T05:29:34.000Z</time>
      </trkpt>
      <trkpt lat="49.75393" lon="4.82143">
        <ele>228</ele>
        <time>2022-07-15T05:29:35.000Z</time>
      </trkpt>
      <trkpt lat="49.75397" lon="4.82146">
        <ele>228</ele>
        <time>2022-07-15T05:29:36.000Z</time>
      </trkpt>
      <trkpt lat="49.75402" lon="4.82149">
        <ele>227</ele>
        <time>2022-07-15T05:29:37.000Z</time>
      </trkpt>
      <trkpt lat="49.75407" lon="4.82152">
        <ele>226</ele>
        <time>2022-07-15T05:29:38.000Z</time>
      </trkpt>
      <trkpt lat="49.75412" lon="4.82155">
        <ele>225</ele>
        <time>2022-07-15T05:29:39.000Z</time>
      </trkpt>
      <trkpt lat="49.75417" lon="4.82159">
        <ele>224</ele>
        <time>2022-07-15T05:29:40.000Z</time>
      </trkpt>
      <trkpt lat="49.75423" lon="4.82163">
        <ele>224</ele>
        <time>2022-07-15T05:29:41.000Z</time>
      </trkpt>
      <trkpt lat="49.75428" lon="4.82168">
        <ele>223</ele>
        <time>2022-07-15T05:29:42.000Z</time>
      </trkpt>
      <trkpt lat="49.75432" lon="4.82174">
        <ele>222</ele>
        <time>2022-07-15T05:29:43.000Z</time>
      </trkpt>
      <trkpt lat="49.75436" lon="4.8218">
        <ele>221</ele>
        <time>2022-07-15T05:29:44.000Z</time>
      </trkpt>
      <trkpt lat="49.75441" lon="4.82185">
        <ele>220</ele>
        <time>2022-07-15T05:29:45.000Z</time>
      </trkpt>
      <trkpt lat="49.75445" lon="4.82188">
        <ele>219</ele>
        <time>2022-07-15T05:29:46.000Z</time>
      </trkpt>
      <trkpt lat="49.75451" lon="4.8219">
        <ele>219</ele>
        <time>2022-07-15T05:29:47.000Z</time>
      </trkpt>
      <trkpt lat="49.75456" lon="4.82194">
        <ele>218</ele>
        <time>2022-07-15T05:29:48.000Z</time>
      </trkpt>
      <trkpt lat="49.75462" lon="4.82199">
        <ele>217</ele>
        <time>2022-07-15T05:29:49.000Z</time>
      </trkpt>
      <trkpt lat="49.75467" lon="4.82205">
        <ele>216</ele>
        <time>2022-07-15T05:29:50.000Z</time>
      </trkpt>
      <trkpt lat="49.75472" lon="4.82212">
        <ele>216</ele>
        <time>2022-07-15T05:29:51.000Z</time>
      </trkpt>
      <trkpt lat="49.75477" lon="4.82219">
        <ele>215</ele>
        <time>2022-07-15T05:29:52.000Z</time>
      </trkpt>
      <trkpt lat="49.75483" lon="4.82225">
        <ele>214</ele>
        <time>2022-07-15T05:29:53.000Z</time>
      </trkpt>
      <trkpt lat="49.75488" lon="4.8223">
        <ele>213</ele>
        <time>2022-07-15T05:29:54.000Z</time>
      </trkpt>
      <trkpt lat="49.75494" lon="4.82234">
        <ele>213</ele>
        <time>2022-07-15T05:29:55.000Z</time>
      </trkpt>
      <trkpt lat="49.755" lon="4.82239">
        <ele>212</ele>
        <time>2022-07-15T05:29:56.000Z</time>
      </trkpt>
      <trkpt lat="49.75505" lon="4.82242">
        <ele>211</ele>
        <time>2022-07-15T05:29:57.000Z</time>
      </trkpt>
      <trkpt lat="49.75511" lon="4.82245">
        <ele>211</ele>
        <time>2022-07-15T05:29:58.000Z</time>
      </trkpt>
      <trkpt lat="49.75517" lon="4.82248">
        <ele>210</ele>
        <time>2022-07-15T05:29:59.000Z</time>
      </trkpt>
      <trkpt lat="49.75523" lon="4.82252">
        <ele>210</ele>
        <time>2022-07-15T05:30:00.000Z</time>
      </trkpt>
      <trkpt lat="49.75528" lon="4.82256">
        <ele>209</ele>
        <time>2022-07-15T05:30:01.000Z</time>
      </trkpt>
      <trkpt lat="49.75534" lon="4.82258">
        <ele>209</ele>
        <time>2022-07-15T05:30:02.000Z</time>
      </trkpt>
      <trkpt lat="49.7554" lon="4.82258">
        <ele>209</ele>
        <time>2022-07-15T05:30:03.000Z</time>
      </trkpt>
      <trkpt lat="49.75544" lon="4.82255">
        <ele>208</ele>
        <time>2022-07-15T05:30:04.000Z</time>
      </trkpt>
      <trkpt lat="49.75549" lon="4.82251">
        <ele>208</ele>
        <time>2022-07-15T05:30:05.000Z</time>
      </trkpt>
      <trkpt lat="49.75552" lon="4.82245">
        <ele>207</ele>
        <time>2022-07-15T05:30:06.000Z</time>
      </trkpt>
      <trkpt lat="49.75555" lon="4.82239">
        <ele>207</ele>
        <time>2022-07-15T05:30:07.000Z</time>
      </trkpt>
      <trkpt lat="49.75556" lon="4.82232">
        <ele>206</ele>
        <time>2022-07-15T05:30:08.000Z</time>
      </trkpt>
      <trkpt lat="49.75557" lon="4.82226">
        <ele>205</ele>
        <time>2022-07-15T05:30:09.000Z</time>
      </trkpt>
      <trkpt lat="49.75555" lon="4.8222">
        <ele>204</ele>
        <time>2022-07-15T05:30:10.000Z</time>
      </trkpt>
      <trkpt lat="49.75552" lon="4.82214">
        <ele>204</ele>
        <time>2022-07-15T05:30:11.000Z</time>
      </trkpt>
      <trkpt lat="49.75548" lon="4.82208">
        <ele>203</ele>
        <time>2022-07-15T05:30:12.000Z</time>
      </trkpt>
      <trkpt lat="49.75544" lon="4.82202">
        <ele>203</ele>
        <time>2022-07-15T05:30:13.000Z</time>
      </trkpt>
      <trkpt lat="49.75541" lon="4.82196">
        <ele>202</ele>
        <time>2022-07-15T05:30:14.000Z</time>
      </trkpt>
      <trkpt lat="49.75537" lon="4.8219">
        <ele>201</ele>
        <time>2022-07-15T05:30:15.000Z</time>
      </trkpt>
      <trkpt lat="49.75534" lon="4.82183">
        <ele>201</ele>
        <time>2022-07-15T05:30:16.000Z</time>
      </trkpt>
      <trkpt lat="49.7553" lon="4.82177">
        <ele>200</ele>
        <time>2022-07-15T05:30:17.000Z</time>
      </trkpt>
      <trkpt lat="49.75526" lon="4.8217">
        <ele>200</ele>
        <time>2022-07-15T05:30:18.000Z</time>
      </trkpt>
      <trkpt lat="49.75522" lon="4.82163">
        <ele>199</ele>
        <time>2022-07-15T05:30:19.000Z</time>
      </trkpt>
      <trkpt lat="49.75518" lon="4.82157">
        <ele>199</ele>
        <time>2022-07-15T05:30:20.000Z</time>
      </trkpt>
      <trkpt lat="49.75514" lon="4.82151">
        <ele>199</ele>
        <time>2022-07-15T05:30:21.000Z</time>
      </trkpt>
      <trkpt lat="49.75509" lon="4.82145">
        <ele>198</ele>
        <time>2022-07-15T05:30:22.000Z</time>
      </trkpt>
      <trkpt lat="49.75505" lon="4.82139">
        <ele>198</ele>
        <time>2022-07-15T05:30:23.000Z</time>
      </trkpt>
      <trkpt lat="49.75501" lon="4.82133">
        <ele>198</ele>
        <time>2022-07-15T05:30:24.000Z</time>
      </trkpt>
      <trkpt lat="49.75496" lon="4.82128">
        <ele>197</ele>
        <time>2022-07-15T05:30:25.000Z</time>
      </trkpt>
      <trkpt lat="49.75492" lon="4.82122">
        <ele>197</ele>
        <time>2022-07-15T05:30:26.000Z</time>
      </trkpt>
      <trkpt lat="49.75488" lon="4.82117">
        <ele>197</ele>
        <time>2022-07-15T05:30:27.000Z</time>
      </trkpt>
      <trkpt lat="49.75484" lon="4.82111">
        <ele>197</ele>
        <time>2022-07-15T05:30:28.000Z</time>
      </trkpt>
      <trkpt lat="49.7548" lon="4.82106">
        <ele>197</ele>
        <time>2022-07-15T05:30:29.000Z</time>
      </trkpt>
      <trkpt lat="49.75476" lon="4.82101">
        <ele>197</ele>
        <time>2022-07-15T05:30:30.000Z</time>
      </trkpt>
      <trkpt lat="49.75472" lon="4.82096">
        <ele>196</ele>
        <time>2022-07-15T05:30:31.000Z</time>
      </trkpt>
      <trkpt lat="49.75467" lon="4.82091">
        <ele>196</ele>
        <time>2022-07-15T05:30:32.000Z</time>
      </trkpt>
      <trkpt lat="49.75463" lon="4.82087">
        <ele>196</ele>
        <time>2022-07-15T05:30:33.000Z</time>
      </trkpt>
      <trkpt lat="49.75459" lon="4.82083">
        <ele>196</ele>
        <time>2022-07-15T05:30:34.000Z</time>
      </trkpt>
      <trkpt lat="49.75454" lon="4.8208">
        <ele>196</ele>
        <time>2022-07-15T05:30:35.000Z</time>
      </trkpt>
      <trkpt lat="49.75449" lon="4.82076">
        <ele>196</ele>
        <time>2022-07-15T05:30:36.000Z</time>
      </trkpt>
      <trkpt lat="49.75445" lon="4.82071">
        <ele>196</ele>
        <time>2022-07-15T05:30:37.000Z</time>
      </trkpt>
      <trkpt lat="49.7544" lon="4.82067">
        <ele>195</ele>
        <time>2022-07-15T05:30:38.000Z</time>
      </trkpt>
      <trkpt lat="49.75436" lon="4.82062">
        <ele>195</ele>
        <time>2022-07-15T05:30:39.000Z</time>
      </trkpt>
      <trkpt lat="49.75431" lon="4.82058">
        <ele>195</ele>
        <time>2022-07-15T05:30:40.000Z</time>
      </trkpt>
      <trkpt lat="49.75426" lon="4.82054">
        <ele>195</ele>
        <time>2022-07-15T05:30:41.000Z</time>
      </trkpt>
      <trkpt lat="49.75422" lon="4.82049">
        <ele>195</ele>
        <time>2022-07-15T05:30:42.000Z</time>
      </trkpt>
      <trkpt lat="49.75417" lon="4.82045">
        <ele>195</ele>
        <time>2022-07-15T05:30:43.000Z</time>
      </trkpt>
      <trkpt lat="49.75412" lon="4.82041">
        <ele>195</ele>
        <time>2022-07-15T05:30:44.000Z</time>
      </trkpt>
      <trkpt lat="49.75408" lon="4.82037">
        <ele>195</ele>
        <time>2022-07-15T05:30:45.000Z</time>
      </trkpt>
      <trkpt lat="49.75403" lon="4.82033">
        <ele>195</ele>
        <time>2022-07-15T05:30:46.000Z</time>
      </trkpt>
      <trkpt lat="49.75398" lon="4.82029">
        <ele>195</ele>
        <time>2022-07-15T05:30:47.000Z</time>
      </trkpt>
      <trkpt lat="49.75393" lon="4.82025">
        <ele>195</ele>
        <time>2022-07-15T05:30:48.000Z</time>
      </trkpt>
      <trkpt lat="49.75388" lon="4.82022">
        <ele>195</ele>
        <time>2022-07-15T05:30:49.000Z</time>
      </trkpt>
      <trkpt lat="49.75383" lon="4.82019">
        <ele>195</ele>
        <time>2022-07-15T05:30:50.000Z</time>
      </trkpt>
      <trkpt lat="49.75378" lon="4.82017">
        <ele>195</ele>
        <time>2022-07-15T05:30:51.000Z</time>
      </trkpt>
      <trkpt lat="49.75373" lon="4.82014">
        <ele>195</ele>
        <time>2022-07-15T05:30:52.000Z</time>
      </trkpt>
      <trkpt lat="49.75368" lon="4.82012">
        <ele>195</ele>
        <time>2022-07-15T05:30:53.000Z</time>
      </trkpt>
      <trkpt lat="49.75364" lon="4.8201">
        <ele>195</ele>
        <time>2022-07-15T05:30:54.000Z</time>
      </trkpt>
      <trkpt lat="49.75359" lon="4.82007">
        <ele>195</ele>
        <time>2022-07-15T05:30:55.000Z</time>
      </trkpt>
      <trkpt lat="49.75354" lon="4.82004">
        <ele>195</ele>
        <time>2022-07-15T05:30:56.000Z</time>
      </trkpt>
      <trkpt lat="49.7535" lon="4.82002">
        <ele>195</ele>
        <time>2022-07-15T05:30:57.000Z</time>
      </trkpt>
      <trkpt lat="49.75346" lon="4.81999">
        <ele>195</ele>
        <time>2022-07-15T05:30:58.000Z</time>
      </trkpt>
      <trkpt lat="49.75341" lon="4.81996">
        <ele>195</ele>
        <time>2022-07-15T05:30:59.000Z</time>
      </trkpt>
      <trkpt lat="49.75337" lon="4.81994">
        <ele>195</ele>
        <time>2022-07-15T05:31:00.000Z</time>
      </trkpt>
      <trkpt lat="49.75333" lon="4.81991">
        <ele>195</ele>
        <time>2022-07-15T05:31:01.000Z</time>
      </trkpt>
      <trkpt lat="49.75329" lon="4.81989">
        <ele>195</ele>
        <time>2022-07-15T05:31:02.000Z</time>
      </trkpt>
      <trkpt lat="49.75325" lon="4.81987">
        <ele>195</ele>
        <time>2022-07-15T05:31:03.000Z</time>
      </trkpt>
      <trkpt lat="49.75321" lon="4.81984">
        <ele>195</ele>
        <time>2022-07-15T05:31:04.000Z</time>
      </trkpt>
      <trkpt lat="49.75318" lon="4.81982">
        <ele>196</ele>
        <time>2022-07-15T05:31:05.000Z</time>
      </trkpt>
      <trkpt lat="49.75314" lon="4.81979">
        <ele>196</ele>
        <time>2022-07-15T05:31:06.000Z</time>
      </trkpt>
      <trkpt lat="49.75311" lon="4.81977">
        <ele>196</ele>
        <time>2022-07-15T05:31:07.000Z</time>
      </trkpt>
      <trkpt lat="49.75307" lon="4.81975">
        <ele>196</ele>
        <time>2022-07-15T05:31:08.000Z</time>
      </trkpt>
      <trkpt lat="49.75304" lon="4.81972">
        <ele>196</ele>
        <time>2022-07-15T05:31:09.000Z</time>
      </trkpt>
      <trkpt lat="49.753" lon="4.8197">
        <ele>196</ele>
        <time>2022-07-15T05:31:10.000Z</time>
      </trkpt>
      <trkpt lat="49.75297" lon="4.81968">
        <ele>196</ele>
        <time>2022-07-15T05:31:11.000Z</time>
      </trkpt>
      <trkpt lat="49.75293" lon="4.81965">
        <ele>196</ele>
        <time>2022-07-15T05:31:12.000Z</time>
      </trkpt>
      <trkpt lat="49.75289" lon="4.81963">
        <ele>197</ele>
        <time>2022-07-15T05:31:13.000Z</time>
      </trkpt>
      <trkpt lat="49.75286" lon="4.8196">
        <ele>197</ele>
        <time>2022-07-15T05:31:14.000Z</time>
      </trkpt>
      <trkpt lat="49.75282" lon="4.81957">
        <ele>197</ele>
        <time>2022-07-15T05:31:15.000Z</time>
      </trkpt>
      <trkpt lat="49.75278" lon="4.81955">
        <ele>197</ele>
        <time>2022-07-15T05:31:16.000Z</time>
      </trkpt>
      <trkpt lat="49.75275" lon="4.81952">
        <ele>197</ele>
        <time>2022-07-15T05:31:17.000Z</time>
      </trkpt>
      <trkpt lat="49.75271" lon="4.81949">
        <ele>197</ele>
        <time>2022-07-15T05:31:18.000Z</time>
      </trkpt>
      <trkpt lat="49.75267" lon="4.81946">
        <ele>197</ele>
        <time>2022-07-15T05:31:19.000Z</time>
      </trkpt>
      <trkpt lat="49.75264" lon="4.81943">
        <ele>197</ele>
        <time>2022-07-15T05:31:20.000Z</time>
      </trkpt>
      <trkpt lat="49.75261" lon="4.81939">
        <ele>197</ele>
        <time>2022-07-15T05:31:21.000Z</time>
      </trkpt>
      <trkpt lat="49.75258" lon="4.81935">
        <ele>197</ele>
        <time>2022-07-15T05:31:22.000Z</time>
      </trkpt>
      <trkpt lat="49.75256" lon="4.81931">
        <ele>197</ele>
        <time>2022-07-15T05:31:23.000Z</time>
      </trkpt>
      <trkpt lat="49.75253" lon="4.81927">
        <ele>197</ele>
        <time>2022-07-15T05:31:24.000Z</time>
      </trkpt>
      <trkpt lat="49.75251" lon="4.81923">
        <ele>197</ele>
        <time>2022-07-15T05:31:25.000Z</time>
      </trkpt>
      <trkpt lat="49.75248" lon="4.81919">
        <ele>197</ele>
        <time>2022-07-15T05:31:26.000Z</time>
      </trkpt>
      <trkpt lat="49.75245" lon="4.81915">
        <ele>197</ele>
        <time>2022-07-15T05:31:27.000Z</time>
      </trkpt>
      <trkpt lat="49.75242" lon="4.81912">
        <ele>197</ele>
        <time>2022-07-15T05:31:28.000Z</time>
      </trkpt>
      <trkpt lat="49.75239" lon="4.81909">
        <ele>198</ele>
        <time>2022-07-15T05:31:29.000Z</time>
      </trkpt>
      <trkpt lat="49.75236" lon="4.81905">
        <ele>198</ele>
        <time>2022-07-15T05:31:30.000Z</time>
      </trkpt>
      <trkpt lat="49.75233" lon="4.81902">
        <ele>198</ele>
        <time>2022-07-15T05:31:31.000Z</time>
      </trkpt>
      <trkpt lat="49.7523" lon="4.81898">
        <ele>198</ele>
        <time>2022-07-15T05:31:32.000Z</time>
      </trkpt>
      <trkpt lat="49.75226" lon="4.81894">
        <ele>198</ele>
        <time>2022-07-15T05:31:33.000Z</time>
      </trkpt>
      <trkpt lat="49.75223" lon="4.8189">
        <ele>198</ele>
        <time>2022-07-15T05:31:34.000Z</time>
      </trkpt>
      <trkpt lat="49.7522" lon="4.81886">
        <ele>198</ele>
        <time>2022-07-15T05:31:35.000Z</time>
      </trkpt>
      <trkpt lat="49.75216" lon="4.81883">
        <ele>199</ele>
        <time>2022-07-15T05:31:36.000Z</time>
      </trkpt>
      <trkpt lat="49.75213" lon="4.81878">
        <ele>199</ele>
        <time>2022-07-15T05:31:37.000Z</time>
      </trkpt>
      <trkpt lat="49.7521" lon="4.81874">
        <ele>199</ele>
        <time>2022-07-15T05:31:38.000Z</time>
      </trkpt>
      <trkpt lat="49.75207" lon="4.8187">
        <ele>199</ele>
        <time>2022-07-15T05:31:39.000Z</time>
      </trkpt>
      <trkpt lat="49.75204" lon="4.81866">
        <ele>199</ele>
        <time>2022-07-15T05:31:40.000Z</time>
      </trkpt>
      <trkpt lat="49.75201" lon="4.81862">
        <ele>199</ele>
        <time>2022-07-15T05:31:41.000Z</time>
      </trkpt>
      <trkpt lat="49.75198" lon="4.81857">
        <ele>199</ele>
        <time>2022-07-15T05:31:42.000Z</time>
      </trkpt>
      <trkpt lat="49.75195" lon="4.81853">
        <ele>199</ele>
        <time>2022-07-15T05:31:43.000Z</time>
      </trkpt>
      <trkpt lat="49.75192" lon="4.81848">
        <ele>200</ele>
        <time>2022-07-15T05:31:44.000Z</time>
      </trkpt>
      <trkpt lat="49.75189" lon="4.81843">
        <ele>200</ele>
        <time>2022-07-15T05:31:45.000Z</time>
      </trkpt>
      <trkpt lat="49.75187" lon="4.81839">
        <ele>200</ele>
        <time>2022-07-15T05:31:46.000Z</time>
      </trkpt>
      <trkpt lat="49.75184" lon="4.81834">
        <ele>200</ele>
        <time>2022-07-15T05:31:47.000Z</time>
      </trkpt>
      <trkpt lat="49.75181" lon="4.81829">
        <ele>200</ele>
        <time>2022-07-15T05:31:48.000Z</time>
      </trkpt>
      <trkpt lat="49.75178" lon="4.81824">
        <ele>200</ele>
        <time>2022-07-15T05:31:49.000Z</time>
      </trkpt>
      <trkpt lat="49.75175" lon="4.81819">
        <ele>200</ele>
        <time>2022-07-15T05:31:50.000Z</time>
      </trkpt>
      <trkpt lat="49.75172" lon="4.81814">
        <ele>200</ele>
        <time>2022-07-15T05:31:51.000Z</time>
      </trkpt>
      <trkpt lat="49.75169" lon="4.8181">
        <ele>200</ele>
        <time>2022-07-15T05:31:52.000Z</time>
      </trkpt>
      <trkpt lat="49.75167" lon="4.81805">
        <ele>200</ele>
        <time>2022-07-15T05:31:53.000Z</time>
      </trkpt>
      <trkpt lat="49.75164" lon="4.81801">
        <ele>200</ele>
        <time>2022-07-15T05:31:54.000Z</time>
      </trkpt>
      <trkpt lat="49.75161" lon="4.81796">
        <ele>200</ele>
        <time>2022-07-15T05:31:55.000Z</time>
      </trkpt>
      <trkpt lat="49.75158" lon="4.81791">
        <ele>200</ele>
        <time>2022-07-15T05:31:56.000Z</time>
      </trkpt>
      <trkpt lat="49.75156" lon="4.81786">
        <ele>200</ele>
        <time>2022-07-15T05:31:57.000Z</time>
      </trkpt>
      <trkpt lat="49.75153" lon="4.81781">
        <ele>200</ele>
        <time>2022-07-15T05:31:58.000Z</time>
      </trkpt>
      <trkpt lat="49.7515" lon="4.81776">
        <ele>200</ele>
        <time>2022-07-15T05:31:59.000Z</time>
      </trkpt>
      <trkpt lat="49.75147" lon="4.81771">
        <ele>200</ele>
        <time>2022-07-15T05:32:00.000Z</time>
      </trkpt>
      <trkpt lat="49.75144" lon="4.81766">
        <ele>200</ele>
        <time>2022-07-15T05:32:01.000Z</time>
      </trkpt>
      <trkpt lat="49.75141" lon="4.8176">
        <ele>200</ele>
        <time>2022-07-15T05:32:02.000Z</time>
      </trkpt>
      <trkpt lat="49.75139" lon="4.81754">
        <ele>199</ele>
        <time>2022-07-15T05:32:03.000Z</time>
      </trkpt>
      <trkpt lat="49.75137" lon="4.81747">
        <ele>199</ele>
        <time>2022-07-15T05:32:04.000Z</time>
      </trkpt>
      <trkpt lat="49.75135" lon="4.81741">
        <ele>200</ele>
        <time>2022-07-15T05:32:05.000Z</time>
      </trkpt>
      <trkpt lat="49.75133" lon="4.81734">
        <ele>200</ele>
        <time>2022-07-15T05:32:06.000Z</time>
      </trkpt>
      <trkpt lat="49.7513" lon="4.81728">
        <ele>200</ele>
        <time>2022-07-15T05:32:07.000Z</time>
      </trkpt>
      <trkpt lat="49.75128" lon="4.81721">
        <ele>200</ele>
        <time>2022-07-15T05:32:08.000Z</time>
      </trkpt>
      <trkpt lat="49.75126" lon="4.81715">
        <ele>200</ele>
        <time>2022-07-15T05:32:09.000Z</time>
      </trkpt>
      <trkpt lat="49.75123" lon="4.81708">
        <ele>200</ele>
        <time>2022-07-15T05:32:10.000Z</time>
      </trkpt>
      <trkpt lat="49.75121" lon="4.81702">
        <ele>200</ele>
        <time>2022-07-15T05:32:11.000Z</time>
      </trkpt>
      <trkpt lat="49.75119" lon="4.81695">
        <ele>201</ele>
        <time>2022-07-15T05:32:12.000Z</time>
      </trkpt>
      <trkpt lat="49.75117" lon="4.81687">
        <ele>201</ele>
        <time>2022-07-15T05:32:13.000Z</time>
      </trkpt>
      <trkpt lat="49.75116" lon="4.8168">
        <ele>201</ele>
        <time>2022-07-15T05:32:14.000Z</time>
      </trkpt>
      <trkpt lat="49.75115" lon="4.81672">
        <ele>201</ele>
        <time>2022-07-15T05:32:15.000Z</time>
      </trkpt>
      <trkpt lat="49.75115" lon="4.81664">
        <ele>201</ele>
        <time>2022-07-15T05:32:16.000Z</time>
      </trkpt>
      <trkpt lat="49.75114" lon="4.81657">
        <ele>201</ele>
        <time>2022-07-15T05:32:17.000Z</time>
      </trkpt>
      <trkpt lat="49.75114" lon="4.81649">
        <ele>202</ele>
        <time>2022-07-15T05:32:18.000Z</time>
      </trkpt>
      <trkpt lat="49.75113" lon="4.81641">
        <ele>202</ele>
        <time>2022-07-15T05:32:19.000Z</time>
      </trkpt>
      <trkpt lat="49.75113" lon="4.81633">
        <ele>202</ele>
        <time>2022-07-15T05:32:20.000Z</time>
      </trkpt>
      <trkpt lat="49.75113" lon="4.81625">
        <ele>202</ele>
        <time>2022-07-15T05:32:21.000Z</time>
      </trkpt>
      <trkpt lat="49.75112" lon="4.81617">
        <ele>202</ele>
        <time>2022-07-15T05:32:22.000Z</time>
      </trkpt>
      <trkpt lat="49.75112" lon="4.81609">
        <ele>202</ele>
        <time>2022-07-15T05:32:23.000Z</time>
      </trkpt>
      <trkpt lat="49.75112" lon="4.81601">
        <ele>203</ele>
        <time>2022-07-15T05:32:24.000Z</time>
      </trkpt>
      <trkpt lat="49.75112" lon="4.81593">
        <ele>203</ele>
        <time>2022-07-15T05:32:25.000Z</time>
      </trkpt>
      <trkpt lat="49.75112" lon="4.81585">
        <ele>203</ele>
        <time>2022-07-15T05:32:26.000Z</time>
      </trkpt>
      <trkpt lat="49.75112" lon="4.81577">
        <ele>203</ele>
        <time>2022-07-15T05:32:27.000Z</time>
      </trkpt>
      <trkpt lat="49.75113" lon="4.81569">
        <ele>203</ele>
        <time>2022-07-15T05:32:28.000Z</time>
      </trkpt>
      <trkpt lat="49.75114" lon="4.81562">
        <ele>203</ele>
        <time>2022-07-15T05:32:29.000Z</time>
      </trkpt>
      <trkpt lat="49.75115" lon="4.81555">
        <ele>203</ele>
        <time>2022-07-15T05:32:30.000Z</time>
      </trkpt>
      <trkpt lat="49.75116" lon="4.81547">
        <ele>204</ele>
        <time>2022-07-15T05:32:31.000Z</time>
      </trkpt>
      <trkpt lat="49.75117" lon="4.8154">
        <ele>204</ele>
        <time>2022-07-15T05:32:32.000Z</time>
      </trkpt>
      <trkpt lat="49.75118" lon="4.81532">
        <ele>204</ele>
        <time>2022-07-15T05:32:33.000Z</time>
      </trkpt>
      <trkpt lat="49.7512" lon="4.81525">
        <ele>204</ele>
        <time>2022-07-15T05:32:34.000Z</time>
      </trkpt>
      <trkpt lat="49.75121" lon="4.81518">
        <ele>204</ele>
        <time>2022-07-15T05:32:35.000Z</time>
      </trkpt>
      <trkpt lat="49.75123" lon="4.8151">
        <ele>204</ele>
        <time>2022-07-15T05:32:36.000Z</time>
      </trkpt>
      <trkpt lat="49.75124" lon="4.81503">
        <ele>204</ele>
        <time>2022-07-15T05:32:37.000Z</time>
      </trkpt>
      <trkpt lat="49.75126" lon="4.81496">
        <ele>204</ele>
        <time>2022-07-15T05:32:38.000Z</time>
      </trkpt>
      <trkpt lat="49.75128" lon="4.81489">
        <ele>204</ele>
        <time>2022-07-15T05:32:39.000Z</time>
      </trkpt>
      <trkpt lat="49.7513" lon="4.81482">
        <ele>204</ele>
        <time>2022-07-15T05:32:40.000Z</time>
      </trkpt>
      <trkpt lat="49.75131" lon="4.81475">
        <ele>204</ele>
        <time>2022-07-15T05:32:41.000Z</time>
      </trkpt>
      <trkpt lat="49.75133" lon="4.81469">
        <ele>204</ele>
        <time>2022-07-15T05:32:42.000Z</time>
      </trkpt>
      <trkpt lat="49.75135" lon="4.81462">
        <ele>204</ele>
        <time>2022-07-15T05:32:43.000Z</time>
      </trkpt>
      <trkpt lat="49.75137" lon="4.81456">
        <ele>204</ele>
        <time>2022-07-15T05:32:44.000Z</time>
      </trkpt>
      <trkpt lat="49.75138" lon="4.81449">
        <ele>204</ele>
        <time>2022-07-15T05:32:45.000Z</time>
      </trkpt>
      <trkpt lat="49.75139" lon="4.81443">
        <ele>204</ele>
        <time>2022-07-15T05:32:46.000Z</time>
      </trkpt>
      <trkpt lat="49.75141" lon="4.81436">
        <ele>204</ele>
        <time>2022-07-15T05:32:47.000Z</time>
      </trkpt>
      <trkpt lat="49.75142" lon="4.81429">
        <ele>204</ele>
        <time>2022-07-15T05:32:48.000Z</time>
      </trkpt>
      <trkpt lat="49.75143" lon="4.81423">
        <ele>204</ele>
        <time>2022-07-15T05:32:49.000Z</time>
      </trkpt>
      <trkpt lat="49.75144" lon="4.81418">
        <ele>204</ele>
        <time>2022-07-15T05:32:50.000Z</time>
      </trkpt>
      <trkpt lat="49.75145" lon="4.81413">
        <ele>204</ele>
        <time>2022-07-15T05:32:51.000Z</time>
      </trkpt>
      <trkpt lat="49.75146" lon="4.81408">
        <ele>204</ele>
        <time>2022-07-15T05:32:52.000Z</time>
      </trkpt>
      <trkpt lat="49.75146" lon="4.81403">
        <ele>204</ele>
        <time>2022-07-15T05:32:53.000Z</time>
      </trkpt>
      <trkpt lat="49.75147" lon="4.81399">
        <ele>204</ele>
        <time>2022-07-15T05:32:54.000Z</time>
      </trkpt>
      <trkpt lat="49.75147" lon="4.81394">
        <ele>204</ele>
        <time>2022-07-15T05:32:55.000Z</time>
      </trkpt>
      <trkpt lat="49.75148" lon="4.81389">
        <ele>204</ele>
        <time>2022-07-15T05:32:56.000Z</time>
      </trkpt>
      <trkpt lat="49.75149" lon="4.81383">
        <ele>204</ele>
        <time>2022-07-15T05:32:57.000Z</time>
      </trkpt>
      <trkpt lat="49.75149" lon="4.81379">
        <ele>204</ele>
        <time>2022-07-15T05:32:58.000Z</time>
      </trkpt>
      <trkpt lat="49.75149" lon="4.81374">
        <ele>204</ele>
        <time>2022-07-15T05:32:59.000Z</time>
      </trkpt>
      <trkpt lat="49.7515" lon="4.8137">
        <ele>204</ele>
        <time>2022-07-15T05:33:00.000Z</time>
      </trkpt>
      <trkpt lat="49.7515" lon="4.81366">
        <ele>204</ele>
        <time>2022-07-15T05:33:01.000Z</time>
      </trkpt>
      <trkpt lat="49.7515" lon="4.81362">
        <ele>205</ele>
        <time>2022-07-15T05:33:02.000Z</time>
      </trkpt>
      <trkpt lat="49.7515" lon="4.81358">
        <ele>205</ele>
        <time>2022-07-15T05:33:03.000Z</time>
      </trkpt>
      <trkpt lat="49.7515" lon="4.81353">
        <ele>205</ele>
        <time>2022-07-15T05:33:04.000Z</time>
      </trkpt>
      <trkpt lat="49.7515" lon="4.81349">
        <ele>205</ele>
        <time>2022-07-15T05:33:05.000Z</time>
      </trkpt>
      <trkpt lat="49.7515" lon="4.81345">
        <ele>205</ele>
        <time>2022-07-15T05:33:06.000Z</time>
      </trkpt>
      <trkpt lat="49.75149" lon="4.8134">
        <ele>206</ele>
        <time>2022-07-15T05:33:07.000Z</time>
      </trkpt>
      <trkpt lat="49.75149" lon="4.81336">
        <ele>206</ele>
        <time>2022-07-15T05:33:08.000Z</time>
      </trkpt>
      <trkpt lat="49.75149" lon="4.81332">
        <ele>206</ele>
        <time>2022-07-15T05:33:09.000Z</time>
      </trkpt>
      <trkpt lat="49.75148" lon="4.81328">
        <ele>206</ele>
        <time>2022-07-15T05:33:10.000Z</time>
      </trkpt>
      <trkpt lat="49.75148" lon="4.81323">
        <ele>207</ele>
        <time>2022-07-15T05:33:11.000Z</time>
      </trkpt>
      <trkpt lat="49.75148" lon="4.81319">
        <ele>207</ele>
        <time>2022-07-15T05:33:12.000Z</time>
      </trkpt>
      <trkpt lat="49.75147" lon="4.81315">
        <ele>207</ele>
        <time>2022-07-15T05:33:13.000Z</time>
      </trkpt>
      <trkpt lat="49.75147" lon="4.81311">
        <ele>208</ele>
        <time>2022-07-15T05:33:14.000Z</time>
      </trkpt>
      <trkpt lat="49.75147" lon="4.81306">
        <ele>208</ele>
        <time>2022-07-15T05:33:15.000Z</time>
      </trkpt>
      <trkpt lat="49.75146" lon="4.81302">
        <ele>208</ele>
        <time>2022-07-15T05:33:16.000Z</time>
      </trkpt>
      <trkpt lat="49.75145" lon="4.81298">
        <ele>209</ele>
        <time>2022-07-15T05:33:17.000Z</time>
      </trkpt>
      <trkpt lat="49.75144" lon="4.81294">
        <ele>209</ele>
        <time>2022-07-15T05:33:18.000Z</time>
      </trkpt>
      <trkpt lat="49.75143" lon="4.8129">
        <ele>210</ele>
        <time>2022-07-15T05:33:19.000Z</time>
      </trkpt>
      <trkpt lat="49.75142" lon="4.81286">
        <ele>210</ele>
        <time>2022-07-15T05:33:20.000Z</time>
      </trkpt>
      <trkpt lat="49.75141" lon="4.81282">
        <ele>210</ele>
        <time>2022-07-15T05:33:21.000Z</time>
      </trkpt>
      <trkpt lat="49.7514" lon="4.81277">
        <ele>211</ele>
        <time>2022-07-15T05:33:22.000Z</time>
      </trkpt>
      <trkpt lat="49.75139" lon="4.81272">
        <ele>211</ele>
        <time>2022-07-15T05:33:23.000Z</time>
      </trkpt>
      <trkpt lat="49.75138" lon="4.81267">
        <ele>212</ele>
        <time>2022-07-15T05:33:24.000Z</time>
      </trkpt>
      <trkpt lat="49.75137" lon="4.81263">
        <ele>212</ele>
        <time>2022-07-15T05:33:25.000Z</time>
      </trkpt>
      <trkpt lat="49.75136" lon="4.81258">
        <ele>212</ele>
        <time>2022-07-15T05:33:26.000Z</time>
      </trkpt>
      <trkpt lat="49.75135" lon="4.81254">
        <ele>213</ele>
        <time>2022-07-15T05:33:27.000Z</time>
      </trkpt>
      <trkpt lat="49.75134" lon="4.8125">
        <ele>213</ele>
        <time>2022-07-15T05:33:28.000Z</time>
      </trkpt>
      <trkpt lat="49.75133" lon="4.81246">
        <ele>213</ele>
        <time>2022-07-15T05:33:29.000Z</time>
      </trkpt>
      <trkpt lat="49.75132" lon="4.81242">
        <ele>214</ele>
        <time>2022-07-15T05:33:30.000Z</time>
      </trkpt>
      <trkpt lat="49.75131" lon="4.81239">
        <ele>214</ele>
        <time>2022-07-15T05:33:31.000Z</time>
      </trkpt>
      <trkpt lat="49.7513" lon="4.81234">
        <ele>214</ele>
        <time>2022-07-15T05:33:32.000Z</time>
      </trkpt>
      <trkpt lat="49.75128" lon="4.8123">
        <ele>214</ele>
        <time>2022-07-15T05:33:33.000Z</time>
      </trkpt>
      <trkpt lat="49.75128" lon="4.81225">
        <ele>215</ele>
        <time>2022-07-15T05:33:34.000Z</time>
      </trkpt>
      <trkpt lat="49.75127" lon="4.81221">
        <ele>215</ele>
        <time>2022-07-15T05:33:35.000Z</time>
      </trkpt>
      <trkpt lat="49.75126" lon="4.81216">
        <ele>215</ele>
        <time>2022-07-15T05:33:36.000Z</time>
      </trkpt>
      <trkpt lat="49.75125" lon="4.81212">
        <ele>215</ele>
        <time>2022-07-15T05:33:37.000Z</time>
      </trkpt>
      <trkpt lat="49.75124" lon="4.81208">
        <ele>215</ele>
        <time>2022-07-15T05:33:38.000Z</time>
      </trkpt>
      <trkpt lat="49.75123" lon="4.81203">
        <ele>215</ele>
        <time>2022-07-15T05:33:39.000Z</time>
      </trkpt>
      <trkpt lat="49.75122" lon="4.81198">
        <ele>216</ele>
        <time>2022-07-15T05:33:40.000Z</time>
      </trkpt>
      <trkpt lat="49.75121" lon="4.81194">
        <ele>216</ele>
        <time>2022-07-15T05:33:41.000Z</time>
      </trkpt>
      <trkpt lat="49.7512" lon="4.81189">
        <ele>216</ele>
        <time>2022-07-15T05:33:42.000Z</time>
      </trkpt>
      <trkpt lat="49.75119" lon="4.81185">
        <ele>216</ele>
        <time>2022-07-15T05:33:43.000Z</time>
      </trkpt>
      <trkpt lat="49.75118" lon="4.8118">
        <ele>216</ele>
        <time>2022-07-15T05:33:44.000Z</time>
      </trkpt>
      <trkpt lat="49.75118" lon="4.81176">
        <ele>216</ele>
        <time>2022-07-15T05:33:45.000Z</time>
      </trkpt>
      <trkpt lat="49.75117" lon="4.81172">
        <ele>216</ele>
        <time>2022-07-15T05:33:46.000Z</time>
      </trkpt>
      <trkpt lat="49.75116" lon="4.81167">
        <ele>216</ele>
        <time>2022-07-15T05:33:47.000Z</time>
      </trkpt>
      <trkpt lat="49.75116" lon="4.81162">
        <ele>217</ele>
        <time>2022-07-15T05:33:48.000Z</time>
      </trkpt>
      <trkpt lat="49.75115" lon="4.81157">
        <ele>217</ele>
        <time>2022-07-15T05:33:49.000Z</time>
      </trkpt>
      <trkpt lat="49.75113" lon="4.81152">
        <ele>217</ele>
        <time>2022-07-15T05:33:50.000Z</time>
      </trkpt>
      <trkpt lat="49.75112" lon="4.81147">
        <ele>217</ele>
        <time>2022-07-15T05:33:51.000Z</time>
      </trkpt>
      <trkpt lat="49.75111" lon="4.81142">
        <ele>217</ele>
        <time>2022-07-15T05:33:52.000Z</time>
      </trkpt>
      <trkpt lat="49.7511" lon="4.81137">
        <ele>217</ele>
        <time>2022-07-15T05:33:53.000Z</time>
      </trkpt>
      <trkpt lat="49.75108" lon="4.81132">
        <ele>217</ele>
        <time>2022-07-15T05:33:54.000Z</time>
      </trkpt>
      <trkpt lat="49.75107" lon="4.81127">
        <ele>217</ele>
        <time>2022-07-15T05:33:55.000Z</time>
      </trkpt>
      <trkpt lat="49.75106" lon="4.81122">
        <ele>217</ele>
        <time>2022-07-15T05:33:56.000Z</time>
      </trkpt>
      <trkpt lat="49.75104" lon="4.81118">
        <ele>217</ele>
        <time>2022-07-15T05:33:57.000Z</time>
      </trkpt>
      <trkpt lat="49.75103" lon="4.81113">
        <ele>217</ele>
        <time>2022-07-15T05:33:58.000Z</time>
      </trkpt>
      <trkpt lat="49.75102" lon="4.81108">
        <ele>217</ele>
        <time>2022-07-15T05:33:59.000Z</time>
      </trkpt>
      <trkpt lat="49.75101" lon="4.81103">
        <ele>218</ele>
        <time>2022-07-15T05:34:00.000Z</time>
      </trkpt>
      <trkpt lat="49.75099" lon="4.81098">
        <ele>218</ele>
        <time>2022-07-15T05:34:01.000Z</time>
      </trkpt>
      <trkpt lat="49.75098" lon="4.81093">
        <ele>218</ele>
        <time>2022-07-15T05:34:02.000Z</time>
      </trkpt>
      <trkpt lat="49.75096" lon="4.81089">
        <ele>218</ele>
        <time>2022-07-15T05:34:03.000Z</time>
      </trkpt>
      <trkpt lat="49.75095" lon="4.81084">
        <ele>218</ele>
        <time>2022-07-15T05:34:04.000Z</time>
      </trkpt>
      <trkpt lat="49.75094" lon="4.81079">
        <ele>218</ele>
        <time>2022-07-15T05:34:05.000Z</time>
      </trkpt>
      <trkpt lat="49.75092" lon="4.81074">
        <ele>218</ele>
        <time>2022-07-15T05:34:06.000Z</time>
      </trkpt>
      <trkpt lat="49.75091" lon="4.81069">
        <ele>218</ele>
        <time>2022-07-15T05:34:07.000Z</time>
      </trkpt>
      <trkpt lat="49.75089" lon="4.81064">
        <ele>218</ele>
        <time>2022-07-15T05:34:08.000Z</time>
      </trkpt>
      <trkpt lat="49.75088" lon="4.81058">
        <ele>218</ele>
        <time>2022-07-15T05:34:09.000Z</time>
      </trkpt>
      <trkpt lat="49.75087" lon="4.81052">
        <ele>218</ele>
        <time>2022-07-15T05:34:10.000Z</time>
      </trkpt>
      <trkpt lat="49.75085" lon="4.81045">
        <ele>219</ele>
        <time>2022-07-15T05:34:11.000Z</time>
      </trkpt>
      <trkpt lat="49.75084" lon="4.81038">
        <ele>219</ele>
        <time>2022-07-15T05:34:12.000Z</time>
      </trkpt>
      <trkpt lat="49.75082" lon="4.81031">
        <ele>219</ele>
        <time>2022-07-15T05:34:13.000Z</time>
      </trkpt>
      <trkpt lat="49.75081" lon="4.81025">
        <ele>219</ele>
        <time>2022-07-15T05:34:14.000Z</time>
      </trkpt>
      <trkpt lat="49.75079" lon="4.81018">
        <ele>219</ele>
        <time>2022-07-15T05:34:15.000Z</time>
      </trkpt>
      <trkpt lat="49.75077" lon="4.8101">
        <ele>219</ele>
        <time>2022-07-15T05:34:16.000Z</time>
      </trkpt>
      <trkpt lat="49.75075" lon="4.81003">
        <ele>219</ele>
        <time>2022-07-15T05:34:17.000Z</time>
      </trkpt>
      <trkpt lat="49.75073" lon="4.80996">
        <ele>220</ele>
        <time>2022-07-15T05:34:18.000Z</time>
      </trkpt>
      <trkpt lat="49.75071" lon="4.80989">
        <ele>220</ele>
        <time>2022-07-15T05:34:19.000Z</time>
      </trkpt>
      <trkpt lat="49.7507" lon="4.80982">
        <ele>220</ele>
        <time>2022-07-15T05:34:20.000Z</time>
      </trkpt>
      <trkpt lat="49.75068" lon="4.80975">
        <ele>220</ele>
        <time>2022-07-15T05:34:21.000Z</time>
      </trkpt>
      <trkpt lat="49.75066" lon="4.80967">
        <ele>220</ele>
        <time>2022-07-15T05:34:22.000Z</time>
      </trkpt>
      <trkpt lat="49.75065" lon="4.8096">
        <ele>221</ele>
        <time>2022-07-15T05:34:23.000Z</time>
      </trkpt>
      <trkpt lat="49.75063" lon="4.80951">
        <ele>221</ele>
        <time>2022-07-15T05:34:24.000Z</time>
      </trkpt>
      <trkpt lat="49.75061" lon="4.80943">
        <ele>221</ele>
        <time>2022-07-15T05:34:25.000Z</time>
      </trkpt>
      <trkpt lat="49.75059" lon="4.80935">
        <ele>221</ele>
        <time>2022-07-15T05:34:26.000Z</time>
      </trkpt>
      <trkpt lat="49.75058" lon="4.80926">
        <ele>221</ele>
        <time>2022-07-15T05:34:27.000Z</time>
      </trkpt>
      <trkpt lat="49.75056" lon="4.80917">
        <ele>221</ele>
        <time>2022-07-15T05:34:28.000Z</time>
      </trkpt>
      <trkpt lat="49.75054" lon="4.80908">
        <ele>221</ele>
        <time>2022-07-15T05:34:29.000Z</time>
      </trkpt>
      <trkpt lat="49.75053" lon="4.80898">
        <ele>221</ele>
        <time>2022-07-15T05:34:30.000Z</time>
      </trkpt>
      <trkpt lat="49.75052" lon="4.80887">
        <ele>221</ele>
        <time>2022-07-15T05:34:31.000Z</time>
      </trkpt>
      <trkpt lat="49.75051" lon="4.80876">
        <ele>221</ele>
        <time>2022-07-15T05:34:32.000Z</time>
      </trkpt>
      <trkpt lat="49.75051" lon="4.80865">
        <ele>221</ele>
        <time>2022-07-15T05:34:33.000Z</time>
      </trkpt>
      <trkpt lat="49.75051" lon="4.80853">
        <ele>221</ele>
        <time>2022-07-15T05:34:34.000Z</time>
      </trkpt>
      <trkpt lat="49.75052" lon="4.8084">
        <ele>221</ele>
        <time>2022-07-15T05:34:35.000Z</time>
      </trkpt>
      <trkpt lat="49.75053" lon="4.80827">
        <ele>221</ele>
        <time>2022-07-15T05:34:36.000Z</time>
      </trkpt>
      <trkpt lat="49.75055" lon="4.80814">
        <ele>221</ele>
        <time>2022-07-15T05:34:37.000Z</time>
      </trkpt>
      <trkpt lat="49.75057" lon="4.808">
        <ele>220</ele>
        <time>2022-07-15T05:34:38.000Z</time>
      </trkpt>
      <trkpt lat="49.7506" lon="4.80786">
        <ele>220</ele>
        <time>2022-07-15T05:34:39.000Z</time>
      </trkpt>
      <trkpt lat="49.75063" lon="4.80772">
        <ele>220</ele>
        <time>2022-07-15T05:34:40.000Z</time>
      </trkpt>
      <trkpt lat="49.75067" lon="4.80759">
        <ele>219</ele>
        <time>2022-07-15T05:34:41.000Z</time>
      </trkpt>
      <trkpt lat="49.7507" lon="4.80746">
        <ele>219</ele>
        <time>2022-07-15T05:34:42.000Z</time>
      </trkpt>
      <trkpt lat="49.75074" lon="4.80734">
        <ele>218</ele>
        <time>2022-07-15T05:34:43.000Z</time>
      </trkpt>
      <trkpt lat="49.75079" lon="4.80724">
        <ele>218</ele>
        <time>2022-07-15T05:34:44.000Z</time>
      </trkpt>
      <trkpt lat="49.75085" lon="4.80715">
        <ele>217</ele>
        <time>2022-07-15T05:34:45.000Z</time>
      </trkpt>
      <trkpt lat="49.75093" lon="4.80707">
        <ele>217</ele>
        <time>2022-07-15T05:34:46.000Z</time>
      </trkpt>
      <trkpt lat="49.75102" lon="4.80702">
        <ele>216</ele>
        <time>2022-07-15T05:34:47.000Z</time>
      </trkpt>
      <trkpt lat="49.75111" lon="4.80697">
        <ele>215</ele>
        <time>2022-07-15T05:34:48.000Z</time>
      </trkpt>
      <trkpt lat="49.75119" lon="4.80694">
        <ele>215</ele>
        <time>2022-07-15T05:34:49.000Z</time>
      </trkpt>
      <trkpt lat="49.75127" lon="4.8069">
        <ele>214</ele>
        <time>2022-07-15T05:34:50.000Z</time>
      </trkpt>
      <trkpt lat="49.75135" lon="4.80689">
        <ele>213</ele>
        <time>2022-07-15T05:34:51.000Z</time>
      </trkpt>
      <trkpt lat="49.75142" lon="4.8069">
        <ele>213</ele>
        <time>2022-07-15T05:34:52.000Z</time>
      </trkpt>
      <trkpt lat="49.75149" lon="4.8069">
        <ele>212</ele>
        <time>2022-07-15T05:34:53.000Z</time>
      </trkpt>
      <trkpt lat="49.75155" lon="4.80691">
        <ele>212</ele>
        <time>2022-07-15T05:34:54.000Z</time>
      </trkpt>
      <trkpt lat="49.75161" lon="4.80691">
        <ele>212</ele>
        <time>2022-07-15T05:34:55.000Z</time>
      </trkpt>
      <trkpt lat="49.75168" lon="4.80691">
        <ele>211</ele>
        <time>2022-07-15T05:34:56.000Z</time>
      </trkpt>
      <trkpt lat="49.75174" lon="4.80691">
        <ele>211</ele>
        <time>2022-07-15T05:34:57.000Z</time>
      </trkpt>
      <trkpt lat="49.75181" lon="4.8069">
        <ele>211</ele>
        <time>2022-07-15T05:34:58.000Z</time>
      </trkpt>
      <trkpt lat="49.75188" lon="4.8069">
        <ele>210</ele>
        <time>2022-07-15T05:34:59.000Z</time>
      </trkpt>
      <trkpt lat="49.75194" lon="4.8069">
        <ele>210</ele>
        <time>2022-07-15T05:35:00.000Z</time>
      </trkpt>
      <trkpt lat="49.752" lon="4.8069">
        <ele>210</ele>
        <time>2022-07-15T05:35:01.000Z</time>
      </trkpt>
      <trkpt lat="49.75207" lon="4.8069">
        <ele>210</ele>
        <time>2022-07-15T05:35:02.000Z</time>
      </trkpt>
      <trkpt lat="49.75213" lon="4.8069">
        <ele>210</ele>
        <time>2022-07-15T05:35:03.000Z</time>
      </trkpt>
      <trkpt lat="49.75219" lon="4.8069">
        <ele>209</ele>
        <time>2022-07-15T05:35:04.000Z</time>
      </trkpt>
      <trkpt lat="49.75225" lon="4.8069">
        <ele>209</ele>
        <time>2022-07-15T05:35:05.000Z</time>
      </trkpt>
      <trkpt lat="49.7523" lon="4.80692">
        <ele>209</ele>
        <time>2022-07-15T05:35:06.000Z</time>
      </trkpt>
      <trkpt lat="49.75235" lon="4.80694">
        <ele>209</ele>
        <time>2022-07-15T05:35:07.000Z</time>
      </trkpt>
      <trkpt lat="49.7524" lon="4.80696">
        <ele>208</ele>
        <time>2022-07-15T05:35:08.000Z</time>
      </trkpt>
      <trkpt lat="49.75246" lon="4.80697">
        <ele>208</ele>
        <time>2022-07-15T05:35:09.000Z</time>
      </trkpt>
      <trkpt lat="49.75251" lon="4.80698">
        <ele>208</ele>
        <time>2022-07-15T05:35:10.000Z</time>
      </trkpt>
      <trkpt lat="49.75256" lon="4.80699">
        <ele>208</ele>
        <time>2022-07-15T05:35:11.000Z</time>
      </trkpt>
      <trkpt lat="49.75261" lon="4.80698">
        <ele>208</ele>
        <time>2022-07-15T05:35:12.000Z</time>
      </trkpt>
      <trkpt lat="49.75265" lon="4.80697">
        <ele>209</ele>
        <time>2022-07-15T05:35:13.000Z</time>
      </trkpt>
      <trkpt lat="49.75269" lon="4.80695">
        <ele>209</ele>
        <time>2022-07-15T05:35:14.000Z</time>
      </trkpt>
      <trkpt lat="49.75272" lon="4.80693">
        <ele>209</ele>
        <time>2022-07-15T05:35:15.000Z</time>
      </trkpt>
      <trkpt lat="49.75276" lon="4.8069">
        <ele>209</ele>
        <time>2022-07-15T05:35:16.000Z</time>
      </trkpt>
      <trkpt lat="49.75279" lon="4.80687">
        <ele>209</ele>
        <time>2022-07-15T05:35:17.000Z</time>
      </trkpt>
      <trkpt lat="49.75283" lon="4.80684">
        <ele>209</ele>
        <time>2022-07-15T05:35:18.000Z</time>
      </trkpt>
      <trkpt lat="49.75287" lon="4.80681">
        <ele>209</ele>
        <time>2022-07-15T05:35:19.000Z</time>
      </trkpt>
      <trkpt lat="49.7529" lon="4.80679">
        <ele>209</ele>
        <time>2022-07-15T05:35:20.000Z</time>
      </trkpt>
      <trkpt lat="49.75294" lon="4.80677">
        <ele>209</ele>
        <time>2022-07-15T05:35:21.000Z</time>
      </trkpt>
      <trkpt lat="49.75296" lon="4.80675">
        <ele>209</ele>
        <time>2022-07-15T05:35:22.000Z</time>
      </trkpt>
      <trkpt lat="49.75299" lon="4.80673">
        <ele>209</ele>
        <time>2022-07-15T05:35:23.000Z</time>
      </trkpt>
      <trkpt lat="49.753" lon="4.80672">
        <ele>209</ele>
        <time>2022-07-15T05:35:24.000Z</time>
      </trkpt>
      <trkpt lat="49.75303" lon="4.80671">
        <ele>210</ele>
        <time>2022-07-15T05:35:25.000Z</time>
      </trkpt>
      <trkpt lat="49.75306" lon="4.8067">
        <ele>210</ele>
        <time>2022-07-15T05:35:26.000Z</time>
      </trkpt>
      <trkpt lat="49.75309" lon="4.8067">
        <ele>210</ele>
        <time>2022-07-15T05:35:27.000Z</time>
      </trkpt>
      <trkpt lat="49.75312" lon="4.8067">
        <ele>210</ele>
        <time>2022-07-15T05:35:28.000Z</time>
      </trkpt>
      <trkpt lat="49.75315" lon="4.8067">
        <ele>211</ele>
        <time>2022-07-15T05:35:29.000Z</time>
      </trkpt>
      <trkpt lat="49.75318" lon="4.80671">
        <ele>211</ele>
        <time>2022-07-15T05:35:30.000Z</time>
      </trkpt>
      <trkpt lat="49.75322" lon="4.80672">
        <ele>211</ele>
        <time>2022-07-15T05:35:31.000Z</time>
      </trkpt>
      <trkpt lat="49.75325" lon="4.80673">
        <ele>211</ele>
        <time>2022-07-15T05:35:32.000Z</time>
      </trkpt>
      <trkpt lat="49.75327" lon="4.80674">
        <ele>212</ele>
        <time>2022-07-15T05:35:33.000Z</time>
      </trkpt>
      <trkpt lat="49.7533" lon="4.80675">
        <ele>212</ele>
        <time>2022-07-15T05:35:34.000Z</time>
      </trkpt>
      <trkpt lat="49.75333" lon="4.80675">
        <ele>212</ele>
        <time>2022-07-15T05:35:35.000Z</time>
      </trkpt>
      <trkpt lat="49.75336" lon="4.80676">
        <ele>212</ele>
        <time>2022-07-15T05:35:36.000Z</time>
      </trkpt>
      <trkpt lat="49.75338" lon="4.80677">
        <ele>213</ele>
        <time>2022-07-15T05:35:37.000Z</time>
      </trkpt>
      <trkpt lat="49.75341" lon="4.80677">
        <ele>213</ele>
        <time>2022-07-15T05:35:38.000Z</time>
      </trkpt>
      <trkpt lat="49.75344" lon="4.80678">
        <ele>214</ele>
        <time>2022-07-15T05:35:39.000Z</time>
      </trkpt>
      <trkpt lat="49.75348" lon="4.80678">
        <ele>214</ele>
        <time>2022-07-15T05:35:40.000Z</time>
      </trkpt>
      <trkpt lat="49.75351" lon="4.8068">
        <ele>214</ele>
        <time>2022-07-15T05:35:41.000Z</time>
      </trkpt>
      <trkpt lat="49.75354" lon="4.80681">
        <ele>215</ele>
        <time>2022-07-15T05:35:42.000Z</time>
      </trkpt>
      <trkpt lat="49.75357" lon="4.80682">
        <ele>215</ele>
        <time>2022-07-15T05:35:43.000Z</time>
      </trkpt>
      <trkpt lat="49.75359" lon="4.80683">
        <ele>215</ele>
        <time>2022-07-15T05:35:44.000Z</time>
      </trkpt>
      <trkpt lat="49.75362" lon="4.80684">
        <ele>216</ele>
        <time>2022-07-15T05:35:45.000Z</time>
      </trkpt>
      <trkpt lat="49.75365" lon="4.80685">
        <ele>216</ele>
        <time>2022-07-15T05:35:46.000Z</time>
      </trkpt>
      <trkpt lat="49.75368" lon="4.80686">
        <ele>216</ele>
        <time>2022-07-15T05:35:47.000Z</time>
      </trkpt>
      <trkpt lat="49.7537" lon="4.80687">
        <ele>217</ele>
        <time>2022-07-15T05:35:48.000Z</time>
      </trkpt>
      <trkpt lat="49.75372" lon="4.80687">
        <ele>217</ele>
        <time>2022-07-15T05:35:49.000Z</time>
      </trkpt>
      <trkpt lat="49.75374" lon="4.80688">
        <ele>217</ele>
        <time>2022-07-15T05:35:50.000Z</time>
      </trkpt>
      <trkpt lat="49.75376" lon="4.80689">
        <ele>218</ele>
        <time>2022-07-15T05:35:51.000Z</time>
      </trkpt>
      <trkpt lat="49.75378" lon="4.8069">
        <ele>218</ele>
        <time>2022-07-15T05:35:52.000Z</time>
      </trkpt>
      <trkpt lat="49.75381" lon="4.80691">
        <ele>219</ele>
        <time>2022-07-15T05:35:53.000Z</time>
      </trkpt>
      <trkpt lat="49.75383" lon="4.80693">
        <ele>219</ele>
        <time>2022-07-15T05:35:54.000Z</time>
      </trkpt>
      <trkpt lat="49.75386" lon="4.80695">
        <ele>220</ele>
        <time>2022-07-15T05:35:55.000Z</time>
      </trkpt>
      <trkpt lat="49.7539" lon="4.80696">
        <ele>220</ele>
        <time>2022-07-15T05:35:56.000Z</time>
      </trkpt>
      <trkpt lat="49.75393" lon="4.80697">
        <ele>220</ele>
        <time>2022-07-15T05:35:57.000Z</time>
      </trkpt>
      <trkpt lat="49.75395" lon="4.80698">
        <ele>221</ele>
        <time>2022-07-15T05:35:58.000Z</time>
      </trkpt>
      <trkpt lat="49.75398" lon="4.80699">
        <ele>221</ele>
        <time>2022-07-15T05:35:59.000Z</time>
      </trkpt>
      <trkpt lat="49.75401" lon="4.807">
        <ele>221</ele>
        <time>2022-07-15T05:36:00.000Z</time>
      </trkpt>
      <trkpt lat="49.75404" lon="4.807">
        <ele>222</ele>
        <time>2022-07-15T05:36:01.000Z</time>
      </trkpt>
      <trkpt lat="49.75406" lon="4.80699">
        <ele>222</ele>
        <time>2022-07-15T05:36:02.000Z</time>
      </trkpt>
      <trkpt lat="49.75409" lon="4.807">
        <ele>222</ele>
        <time>2022-07-15T05:36:03.000Z</time>
      </trkpt>
      <trkpt lat="49.75411" lon="4.807">
        <ele>222</ele>
        <time>2022-07-15T05:36:04.000Z</time>
      </trkpt>
      <trkpt lat="49.75414" lon="4.80702">
        <ele>223</ele>
        <time>2022-07-15T05:36:05.000Z</time>
      </trkpt>
      <trkpt lat="49.75418" lon="4.80704">
        <ele>223</ele>
        <time>2022-07-15T05:36:06.000Z</time>
      </trkpt>
      <trkpt lat="49.75422" lon="4.80706">
        <ele>223</ele>
        <time>2022-07-15T05:36:07.000Z</time>
      </trkpt>
      <trkpt lat="49.75425" lon="4.80708">
        <ele>223</ele>
        <time>2022-07-15T05:36:08.000Z</time>
      </trkpt>
      <trkpt lat="49.75428" lon="4.8071">
        <ele>224</ele>
        <time>2022-07-15T05:36:09.000Z</time>
      </trkpt>
      <trkpt lat="49.75431" lon="4.80711">
        <ele>224</ele>
        <time>2022-07-15T05:36:10.000Z</time>
      </trkpt>
      <trkpt lat="49.75434" lon="4.80713">
        <ele>224</ele>
        <time>2022-07-15T05:36:11.000Z</time>
      </trkpt>
      <trkpt lat="49.75436" lon="4.80715">
        <ele>225</ele>
        <time>2022-07-15T05:36:12.000Z</time>
      </trkpt>
      <trkpt lat="49.75439" lon="4.80717">
        <ele>225</ele>
        <time>2022-07-15T05:36:13.000Z</time>
      </trkpt>
      <trkpt lat="49.75443" lon="4.8072">
        <ele>225</ele>
        <time>2022-07-15T05:36:14.000Z</time>
      </trkpt>
      <trkpt lat="49.75447" lon="4.80723">
        <ele>225</ele>
        <time>2022-07-15T05:36:15.000Z</time>
      </trkpt>
      <trkpt lat="49.75451" lon="4.80726">
        <ele>225</ele>
        <time>2022-07-15T05:36:16.000Z</time>
      </trkpt>
      <trkpt lat="49.75455" lon="4.80728">
        <ele>225</ele>
        <time>2022-07-15T05:36:17.000Z</time>
      </trkpt>
      <trkpt lat="49.75459" lon="4.8073">
        <ele>225</ele>
        <time>2022-07-15T05:36:18.000Z</time>
      </trkpt>
      <trkpt lat="49.75463" lon="4.80732">
        <ele>225</ele>
        <time>2022-07-15T05:36:19.000Z</time>
      </trkpt>
      <trkpt lat="49.75466" lon="4.80734">
        <ele>225</ele>
        <time>2022-07-15T05:36:20.000Z</time>
      </trkpt>
      <trkpt lat="49.7547" lon="4.80736">
        <ele>225</ele>
        <time>2022-07-15T05:36:21.000Z</time>
      </trkpt>
      <trkpt lat="49.75473" lon="4.80737">
        <ele>225</ele>
        <time>2022-07-15T05:36:22.000Z</time>
      </trkpt>
      <trkpt lat="49.75477" lon="4.80739">
        <ele>225</ele>
        <time>2022-07-15T05:36:23.000Z</time>
      </trkpt>
      <trkpt lat="49.75479" lon="4.80742">
        <ele>225</ele>
        <time>2022-07-15T05:36:24.000Z</time>
      </trkpt>
      <trkpt lat="49.75482" lon="4.80745">
        <ele>225</ele>
        <time>2022-07-15T05:36:25.000Z</time>
      </trkpt>
      <trkpt lat="49.75485" lon="4.80749">
        <ele>225</ele>
        <time>2022-07-15T05:36:26.000Z</time>
      </trkpt>
      <trkpt lat="49.75487" lon="4.80752">
        <ele>225</ele>
        <time>2022-07-15T05:36:27.000Z</time>
      </trkpt>
      <trkpt lat="49.75488" lon="4.80755">
        <ele>226</ele>
        <time>2022-07-15T05:36:28.000Z</time>
      </trkpt>
      <trkpt lat="49.7549" lon="4.80757">
        <ele>226</ele>
        <time>2022-07-15T05:36:29.000Z</time>
      </trkpt>
      <trkpt lat="49.75492" lon="4.80759">
        <ele>226</ele>
        <time>2022-07-15T05:36:30.000Z</time>
      </trkpt>
      <trkpt lat="49.75495" lon="4.80762">
        <ele>226</ele>
        <time>2022-07-15T05:36:31.000Z</time>
      </trkpt>
      <trkpt lat="49.75497" lon="4.80764">
        <ele>227</ele>
        <time>2022-07-15T05:36:32.000Z</time>
      </trkpt>
      <trkpt lat="49.75501" lon="4.80766">
        <ele>227</ele>
        <time>2022-07-15T05:36:33.000Z</time>
      </trkpt>
      <trkpt lat="49.75504" lon="4.80767">
        <ele>227</ele>
        <time>2022-07-15T05:36:34.000Z</time>
      </trkpt>
      <trkpt lat="49.75507" lon="4.80769">
        <ele>227</ele>
        <time>2022-07-15T05:36:35.000Z</time>
      </trkpt>
      <trkpt lat="49.7551" lon="4.80771">
        <ele>228</ele>
        <time>2022-07-15T05:36:36.000Z</time>
      </trkpt>
      <trkpt lat="49.75512" lon="4.80774">
        <ele>228</ele>
        <time>2022-07-15T05:36:37.000Z</time>
      </trkpt>
      <trkpt lat="49.75514" lon="4.80777">
        <ele>228</ele>
        <time>2022-07-15T05:36:38.000Z</time>
      </trkpt>
      <trkpt lat="49.75516" lon="4.8078">
        <ele>228</ele>
        <time>2022-07-15T05:36:39.000Z</time>
      </trkpt>
      <trkpt lat="49.75518" lon="4.80783">
        <ele>229</ele>
        <time>2022-07-15T05:36:40.000Z</time>
      </trkpt>
      <trkpt lat="49.7552" lon="4.80786">
        <ele>229</ele>
        <time>2022-07-15T05:36:41.000Z</time>
      </trkpt>
      <trkpt lat="49.75523" lon="4.80789">
        <ele>229</ele>
        <time>2022-07-15T05:36:42.000Z</time>
      </trkpt>
      <trkpt lat="49.75525" lon="4.80793">
        <ele>229</ele>
        <time>2022-07-15T05:36:43.000Z</time>
      </trkpt>
      <trkpt lat="49.75528" lon="4.80796">
        <ele>229</ele>
        <time>2022-07-15T05:36:44.000Z</time>
      </trkpt>
      <trkpt lat="49.75531" lon="4.808">
        <ele>230</ele>
        <time>2022-07-15T05:36:45.000Z</time>
      </trkpt>
      <trkpt lat="49.75534" lon="4.80803">
        <ele>230</ele>
        <time>2022-07-15T05:36:46.000Z</time>
      </trkpt>
      <trkpt lat="49.75537" lon="4.80807">
        <ele>230</ele>
        <time>2022-07-15T05:36:47.000Z</time>
      </trkpt>
      <trkpt lat="49.7554" lon="4.8081">
        <ele>230</ele>
        <time>2022-07-15T05:36:48.000Z</time>
      </trkpt>
      <trkpt lat="49.75542" lon="4.80812">
        <ele>230</ele>
        <time>2022-07-15T05:36:49.000Z</time>
      </trkpt>
      <trkpt lat="49.75546" lon="4.80815">
        <ele>231</ele>
        <time>2022-07-15T05:36:50.000Z</time>
      </trkpt>
      <trkpt lat="49.75549" lon="4.80817">
        <ele>231</ele>
        <time>2022-07-15T05:36:51.000Z</time>
      </trkpt>
      <trkpt lat="49.75552" lon="4.80819">
        <ele>231</ele>
        <time>2022-07-15T05:36:52.000Z</time>
      </trkpt>
      <trkpt lat="49.75555" lon="4.80821">
        <ele>231</ele>
        <time>2022-07-15T05:36:53.000Z</time>
      </trkpt>
      <trkpt lat="49.75558" lon="4.80823">
        <ele>232</ele>
        <time>2022-07-15T05:36:54.000Z</time>
      </trkpt>
      <trkpt lat="49.75562" lon="4.80826">
        <ele>232</ele>
        <time>2022-07-15T05:36:55.000Z</time>
      </trkpt>
      <trkpt lat="49.75565" lon="4.80828">
        <ele>232</ele>
        <time>2022-07-15T05:36:56.000Z</time>
      </trkpt>
      <trkpt lat="49.75568" lon="4.80829">
        <ele>232</ele>
        <time>2022-07-15T05:36:57.000Z</time>
      </trkpt>
      <trkpt lat="49.75571" lon="4.8083">
        <ele>233</ele>
        <time>2022-07-15T05:36:58.000Z</time>
      </trkpt>
      <trkpt lat="49.75575" lon="4.80832">
        <ele>233</ele>
        <time>2022-07-15T05:36:59.000Z</time>
      </trkpt>
      <trkpt lat="49.75578" lon="4.80833">
        <ele>233</ele>
        <time>2022-07-15T05:37:00.000Z</time>
      </trkpt>
      <trkpt lat="49.75581" lon="4.80834">
        <ele>233</ele>
        <time>2022-07-15T05:37:01.000Z</time>
      </trkpt>
      <trkpt lat="49.75584" lon="4.80835">
        <ele>234</ele>
        <time>2022-07-15T05:37:02.000Z</time>
      </trkpt>
      <trkpt lat="49.75587" lon="4.80837">
        <ele>234</ele>
        <time>2022-07-15T05:37:03.000Z</time>
      </trkpt>
      <trkpt lat="49.7559" lon="4.80839">
        <ele>234</ele>
        <time>2022-07-15T05:37:04.000Z</time>
      </trkpt>
      <trkpt lat="49.75594" lon="4.8084">
        <ele>234</ele>
        <time>2022-07-15T05:37:05.000Z</time>
      </trkpt>
      <trkpt lat="49.75598" lon="4.80842">
        <ele>235</ele>
        <time>2022-07-15T05:37:06.000Z</time>
      </trkpt>
      <trkpt lat="49.75601" lon="4.80842">
        <ele>235</ele>
        <time>2022-07-15T05:37:07.000Z</time>
      </trkpt>
      <trkpt lat="49.75603" lon="4.80844">
        <ele>235</ele>
        <time>2022-07-15T05:37:08.000Z</time>
      </trkpt>
      <trkpt lat="49.75606" lon="4.80845">
        <ele>235</ele>
        <time>2022-07-15T05:37:09.000Z</time>
      </trkpt>
      <trkpt lat="49.75609" lon="4.80847">
        <ele>236</ele>
        <time>2022-07-15T05:37:10.000Z</time>
      </trkpt>
      <trkpt lat="49.75612" lon="4.80848">
        <ele>236</ele>
        <time>2022-07-15T05:37:11.000Z</time>
      </trkpt>
      <trkpt lat="49.75615" lon="4.80849">
        <ele>236</ele>
        <time>2022-07-15T05:37:12.000Z</time>
      </trkpt>
      <trkpt lat="49.75617" lon="4.8085">
        <ele>236</ele>
        <time>2022-07-15T05:37:13.000Z</time>
      </trkpt>
      <trkpt lat="49.75619" lon="4.80852">
        <ele>236</ele>
        <time>2022-07-15T05:37:14.000Z</time>
      </trkpt>
      <trkpt lat="49.75621" lon="4.80853">
        <ele>236</ele>
        <time>2022-07-15T05:37:15.000Z</time>
      </trkpt>
      <trkpt lat="49.75624" lon="4.80855">
        <ele>236</ele>
        <time>2022-07-15T05:37:16.000Z</time>
      </trkpt>
      <trkpt lat="49.75627" lon="4.80857">
        <ele>237</ele>
        <time>2022-07-15T05:37:17.000Z</time>
      </trkpt>
      <trkpt lat="49.7563" lon="4.80859">
        <ele>237</ele>
        <time>2022-07-15T05:37:18.000Z</time>
      </trkpt>
      <trkpt lat="49.75633" lon="4.8086">
        <ele>237</ele>
        <time>2022-07-15T05:37:19.000Z</time>
      </trkpt>
      <trkpt lat="49.75636" lon="4.80861">
        <ele>237</ele>
        <time>2022-07-15T05:37:20.000Z</time>
      </trkpt>
      <trkpt lat="49.75639" lon="4.80862">
        <ele>237</ele>
        <time>2022-07-15T05:37:21.000Z</time>
      </trkpt>
      <trkpt lat="49.75642" lon="4.80863">
        <ele>238</ele>
        <time>2022-07-15T05:37:22.000Z</time>
      </trkpt>
      <trkpt lat="49.75645" lon="4.80864">
        <ele>238</ele>
        <time>2022-07-15T05:37:23.000Z</time>
      </trkpt>
      <trkpt lat="49.75648" lon="4.80865">
        <ele>238</ele>
        <time>2022-07-15T05:37:24.000Z</time>
      </trkpt>
      <trkpt lat="49.7565" lon="4.80867">
        <ele>238</ele>
        <time>2022-07-15T05:37:25.000Z</time>
      </trkpt>
      <trkpt lat="49.75652" lon="4.80869">
        <ele>238</ele>
        <time>2022-07-15T05:37:26.000Z</time>
      </trkpt>
      <trkpt lat="49.75655" lon="4.80869">
        <ele>239</ele>
        <time>2022-07-15T05:37:27.000Z</time>
      </trkpt>
      <trkpt lat="49.75656" lon="4.8087">
        <ele>239</ele>
        <time>2022-07-15T05:37:28.000Z</time>
      </trkpt>
      <trkpt lat="49.75658" lon="4.80872">
        <ele>239</ele>
        <time>2022-07-15T05:37:29.000Z</time>
      </trkpt>
      <trkpt lat="49.7566" lon="4.80872">
        <ele>239</ele>
        <time>2022-07-15T05:37:30.000Z</time>
      </trkpt>
      <trkpt lat="49.75663" lon="4.80872">
        <ele>240</ele>
        <time>2022-07-15T05:37:31.000Z</time>
      </trkpt>
      <trkpt lat="49.75665" lon="4.80874">
        <ele>240</ele>
        <time>2022-07-15T05:37:32.000Z</time>
      </trkpt>
      <trkpt lat="49.75669" lon="4.80875">
        <ele>240</ele>
        <time>2022-07-15T05:37:33.000Z</time>
      </trkpt>
      <trkpt lat="49.75674" lon="4.80876">
        <ele>240</ele>
        <time>2022-07-15T05:37:34.000Z</time>
      </trkpt>
      <trkpt lat="49.75678" lon="4.80878">
        <ele>240</ele>
        <time>2022-07-15T05:37:35.000Z</time>
      </trkpt>
      <trkpt lat="49.75682" lon="4.80878">
        <ele>240</ele>
        <time>2022-07-15T05:37:36.000Z</time>
      </trkpt>
      <trkpt lat="49.75685" lon="4.80878">
        <ele>240</ele>
        <time>2022-07-15T05:37:37.000Z</time>
      </trkpt>
      <trkpt lat="49.75688" lon="4.80878">
        <ele>240</ele>
        <time>2022-07-15T05:37:38.000Z</time>
      </trkpt>
      <trkpt lat="49.7569" lon="4.8088">
        <ele>240</ele>
        <time>2022-07-15T05:37:39.000Z</time>
      </trkpt>
      <trkpt lat="49.75693" lon="4.80881">
        <ele>240</ele>
        <time>2022-07-15T05:37:40.000Z</time>
      </trkpt>
      <trkpt lat="49.75696" lon="4.80882">
        <ele>241</ele>
        <time>2022-07-15T05:37:41.000Z</time>
      </trkpt>
      <trkpt lat="49.75699" lon="4.80883">
        <ele>241</ele>
        <time>2022-07-15T05:37:42.000Z</time>
      </trkpt>
      <trkpt lat="49.75702" lon="4.80884">
        <ele>241</ele>
        <time>2022-07-15T05:37:43.000Z</time>
      </trkpt>
      <trkpt lat="49.75706" lon="4.80886">
        <ele>241</ele>
        <time>2022-07-15T05:37:44.000Z</time>
      </trkpt>
      <trkpt lat="49.7571" lon="4.80888">
        <ele>242</ele>
        <time>2022-07-15T05:37:45.000Z</time>
      </trkpt>
      <trkpt lat="49.75714" lon="4.8089">
        <ele>242</ele>
        <time>2022-07-15T05:37:46.000Z</time>
      </trkpt>
      <trkpt lat="49.75718" lon="4.80891">
        <ele>242</ele>
        <time>2022-07-15T05:37:47.000Z</time>
      </trkpt>
      <trkpt lat="49.75722" lon="4.80892">
        <ele>242</ele>
        <time>2022-07-15T05:37:48.000Z</time>
      </trkpt>
      <trkpt lat="49.75727" lon="4.80893">
        <ele>243</ele>
        <time>2022-07-15T05:37:49.000Z</time>
      </trkpt>
      <trkpt lat="49.7573" lon="4.80894">
        <ele>243</ele>
        <time>2022-07-15T05:37:50.000Z</time>
      </trkpt>
      <trkpt lat="49.75733" lon="4.80895">
        <ele>243</ele>
        <time>2022-07-15T05:37:51.000Z</time>
      </trkpt>
      <trkpt lat="49.75736" lon="4.80896">
        <ele>244</ele>
        <time>2022-07-15T05:37:52.000Z</time>
      </trkpt>
      <trkpt lat="49.7574" lon="4.80896">
        <ele>244</ele>
        <time>2022-07-15T05:37:53.000Z</time>
      </trkpt>
      <trkpt lat="49.75744" lon="4.80896">
        <ele>244</ele>
        <time>2022-07-15T05:37:54.000Z</time>
      </trkpt>
      <trkpt lat="49.75748" lon="4.80896">
        <ele>245</ele>
        <time>2022-07-15T05:37:55.000Z</time>
      </trkpt>
      <trkpt lat="49.75752" lon="4.80896">
        <ele>245</ele>
        <time>2022-07-15T05:37:56.000Z</time>
      </trkpt>
      <trkpt lat="49.75757" lon="4.80897">
        <ele>245</ele>
        <time>2022-07-15T05:37:57.000Z</time>
      </trkpt>
      <trkpt lat="49.75761" lon="4.80897">
        <ele>245</ele>
        <time>2022-07-15T05:37:58.000Z</time>
      </trkpt>
      <trkpt lat="49.75764" lon="4.80898">
        <ele>246</ele>
        <time>2022-07-15T05:37:59.000Z</time>
      </trkpt>
      <trkpt lat="49.75768" lon="4.80899">
        <ele>246</ele>
        <time>2022-07-15T05:38:00.000Z</time>
      </trkpt>
      <trkpt lat="49.75772" lon="4.809">
        <ele>246</ele>
        <time>2022-07-15T05:38:01.000Z</time>
      </trkpt>
      <trkpt lat="49.75776" lon="4.80901">
        <ele>246</ele>
        <time>2022-07-15T05:38:02.000Z</time>
      </trkpt>
      <trkpt lat="49.75779" lon="4.80902">
        <ele>246</ele>
        <time>2022-07-15T05:38:03.000Z</time>
      </trkpt>
      <trkpt lat="49.75782" lon="4.80903">
        <ele>247</ele>
        <time>2022-07-15T05:38:04.000Z</time>
      </trkpt>
      <trkpt lat="49.75785" lon="4.80903">
        <ele>247</ele>
        <time>2022-07-15T05:38:05.000Z</time>
      </trkpt>
      <trkpt lat="49.75788" lon="4.80904">
        <ele>247</ele>
        <time>2022-07-15T05:38:06.000Z</time>
      </trkpt>
      <trkpt lat="49.75791" lon="4.80905">
        <ele>247</ele>
        <time>2022-07-15T05:38:07.000Z</time>
      </trkpt>
      <trkpt lat="49.75794" lon="4.80906">
        <ele>247</ele>
        <time>2022-07-15T05:38:08.000Z</time>
      </trkpt>
      <trkpt lat="49.75798" lon="4.80907">
        <ele>247</ele>
        <time>2022-07-15T05:38:09.000Z</time>
      </trkpt>
      <trkpt lat="49.75802" lon="4.80909">
        <ele>248</ele>
        <time>2022-07-15T05:38:10.000Z</time>
      </trkpt>
      <trkpt lat="49.75806" lon="4.80911">
        <ele>248</ele>
        <time>2022-07-15T05:38:11.000Z</time>
      </trkpt>
      <trkpt lat="49.75811" lon="4.80913">
        <ele>248</ele>
        <time>2022-07-15T05:38:12.000Z</time>
      </trkpt>
      <trkpt lat="49.75815" lon="4.80915">
        <ele>248</ele>
        <time>2022-07-15T05:38:13.000Z</time>
      </trkpt>
      <trkpt lat="49.75818" lon="4.80917">
        <ele>248</ele>
        <time>2022-07-15T05:38:14.000Z</time>
      </trkpt>
      <trkpt lat="49.75822" lon="4.80919">
        <ele>248</ele>
        <time>2022-07-15T05:38:15.000Z</time>
      </trkpt>
      <trkpt lat="49.75825" lon="4.80921">
        <ele>248</ele>
        <time>2022-07-15T05:38:16.000Z</time>
      </trkpt>
      <trkpt lat="49.75828" lon="4.80923">
        <ele>248</ele>
        <time>2022-07-15T05:38:17.000Z</time>
      </trkpt>
      <trkpt lat="49.7583" lon="4.80927">
        <ele>248</ele>
        <time>2022-07-15T05:38:18.000Z</time>
      </trkpt>
      <trkpt lat="49.75832" lon="4.8093">
        <ele>248</ele>
        <time>2022-07-15T05:38:19.000Z</time>
      </trkpt>
      <trkpt lat="49.75835" lon="4.80931">
        <ele>248</ele>
        <time>2022-07-15T05:38:20.000Z</time>
      </trkpt>
      <trkpt lat="49.75837" lon="4.80934">
        <ele>248</ele>
        <time>2022-07-15T05:38:21.000Z</time>
      </trkpt>
      <trkpt lat="49.7584" lon="4.80936">
        <ele>248</ele>
        <time>2022-07-15T05:38:22.000Z</time>
      </trkpt>
      <trkpt lat="49.75843" lon="4.80939">
        <ele>248</ele>
        <time>2022-07-15T05:38:23.000Z</time>
      </trkpt>
      <trkpt lat="49.75846" lon="4.80942">
        <ele>248</ele>
        <time>2022-07-15T05:38:24.000Z</time>
      </trkpt>
      <trkpt lat="49.75849" lon="4.80946">
        <ele>248</ele>
        <time>2022-07-15T05:38:25.000Z</time>
      </trkpt>
      <trkpt lat="49.75851" lon="4.80948">
        <ele>248</ele>
        <time>2022-07-15T05:38:26.000Z</time>
      </trkpt>
      <trkpt lat="49.75853" lon="4.8095">
        <ele>248</ele>
        <time>2022-07-15T05:38:27.000Z</time>
      </trkpt>
      <trkpt lat="49.75855" lon="4.80952">
        <ele>248</ele>
        <time>2022-07-15T05:38:28.000Z</time>
      </trkpt>
      <trkpt lat="49.75857" lon="4.80954">
        <ele>248</ele>
        <time>2022-07-15T05:38:29.000Z</time>
      </trkpt>
      <trkpt lat="49.75859" lon="4.80956">
        <ele>248</ele>
        <time>2022-07-15T05:38:30.000Z</time>
      </trkpt>
      <trkpt lat="49.75861" lon="4.8096">
        <ele>248</ele>
        <time>2022-07-15T05:38:31.000Z</time>
      </trkpt>
      <trkpt lat="49.75863" lon="4.80963">
        <ele>248</ele>
        <time>2022-07-15T05:38:32.000Z</time>
      </trkpt>
      <trkpt lat="49.75865" lon="4.80967">
        <ele>248</ele>
        <time>2022-07-15T05:38:33.000Z</time>
      </trkpt>
      <trkpt lat="49.75868" lon="4.8097">
        <ele>248</ele>
        <time>2022-07-15T05:38:34.000Z</time>
      </trkpt>
      <trkpt lat="49.75871" lon="4.80973">
        <ele>248</ele>
        <time>2022-07-15T05:38:35.000Z</time>
      </trkpt>
      <trkpt lat="49.75874" lon="4.80977">
        <ele>248</ele>
        <time>2022-07-15T05:38:36.000Z</time>
      </trkpt>
      <trkpt lat="49.75878" lon="4.80981">
        <ele>248</ele>
        <time>2022-07-15T05:38:37.000Z</time>
      </trkpt>
      <trkpt lat="49.75882" lon="4.80985">
        <ele>248</ele>
        <time>2022-07-15T05:38:38.000Z</time>
      </trkpt>
      <trkpt lat="49.75887" lon="4.80989">
        <ele>248</ele>
        <time>2022-07-15T05:38:39.000Z</time>
      </trkpt>
      <trkpt lat="49.75891" lon="4.80993">
        <ele>248</ele>
        <time>2022-07-15T05:38:40.000Z</time>
      </trkpt>
      <trkpt lat="49.75894" lon="4.80997">
        <ele>248</ele>
        <time>2022-07-15T05:38:41.000Z</time>
      </trkpt>
      <trkpt lat="49.75897" lon="4.81001">
        <ele>248</ele>
        <time>2022-07-15T05:38:42.000Z</time>
      </trkpt>
      <trkpt lat="49.75899" lon="4.81005">
        <ele>248</ele>
        <time>2022-07-15T05:38:43.000Z</time>
      </trkpt>
      <trkpt lat="49.75902" lon="4.8101">
        <ele>248</ele>
        <time>2022-07-15T05:38:44.000Z</time>
      </trkpt>
      <trkpt lat="49.75904" lon="4.81014">
        <ele>249</ele>
        <time>2022-07-15T05:38:45.000Z</time>
      </trkpt>
      <trkpt lat="49.75907" lon="4.81018">
        <ele>249</ele>
        <time>2022-07-15T05:38:46.000Z</time>
      </trkpt>
      <trkpt lat="49.7591" lon="4.81023">
        <ele>249</ele>
        <time>2022-07-15T05:38:47.000Z</time>
      </trkpt>
      <trkpt lat="49.75913" lon="4.81027">
        <ele>249</ele>
        <time>2022-07-15T05:38:48.000Z</time>
      </trkpt>
      <trkpt lat="49.75916" lon="4.81031">
        <ele>249</ele>
        <time>2022-07-15T05:38:49.000Z</time>
      </trkpt>
      <trkpt lat="49.75919" lon="4.81035">
        <ele>249</ele>
        <time>2022-07-15T05:38:50.000Z</time>
      </trkpt>
      <trkpt lat="49.75922" lon="4.8104">
        <ele>250</ele>
        <time>2022-07-15T05:38:51.000Z</time>
      </trkpt>
      <trkpt lat="49.75925" lon="4.81043">
        <ele>250</ele>
        <time>2022-07-15T05:38:52.000Z</time>
      </trkpt>
      <trkpt lat="49.75928" lon="4.81047">
        <ele>250</ele>
        <time>2022-07-15T05:38:53.000Z</time>
      </trkpt>
      <trkpt lat="49.75931" lon="4.81051">
        <ele>251</ele>
        <time>2022-07-15T05:38:54.000Z</time>
      </trkpt>
      <trkpt lat="49.75933" lon="4.81054">
        <ele>251</ele>
        <time>2022-07-15T05:38:55.000Z</time>
      </trkpt>
      <trkpt lat="49.75935" lon="4.81058">
        <ele>251</ele>
        <time>2022-07-15T05:38:56.000Z</time>
      </trkpt>
      <trkpt lat="49.75937" lon="4.81061">
        <ele>252</ele>
        <time>2022-07-15T05:38:57.000Z</time>
      </trkpt>
      <trkpt lat="49.75938" lon="4.81065">
        <ele>252</ele>
        <time>2022-07-15T05:38:58.000Z</time>
      </trkpt>
      <trkpt lat="49.75939" lon="4.81067">
        <ele>252</ele>
        <time>2022-07-15T05:38:59.000Z</time>
      </trkpt>
      <trkpt lat="49.7594" lon="4.81069">
        <ele>252</ele>
        <time>2022-07-15T05:39:00.000Z</time>
      </trkpt>
      <trkpt lat="49.75942" lon="4.81071">
        <ele>253</ele>
        <time>2022-07-15T05:39:01.000Z</time>
      </trkpt>
      <trkpt lat="49.75944" lon="4.81073">
        <ele>253</ele>
        <time>2022-07-15T05:39:02.000Z</time>
      </trkpt>
      <trkpt lat="49.75945" lon="4.81076">
        <ele>253</ele>
        <time>2022-07-15T05:39:03.000Z</time>
      </trkpt>
      <trkpt lat="49.75946" lon="4.81079">
        <ele>253</ele>
        <time>2022-07-15T05:39:04.000Z</time>
      </trkpt>
      <trkpt lat="49.75947" lon="4.81082">
        <ele>253</ele>
        <time>2022-07-15T05:39:05.000Z</time>
      </trkpt>
      <trkpt lat="49.75948" lon="4.81084">
        <ele>254</ele>
        <time>2022-07-15T05:39:06.000Z</time>
      </trkpt>
      <trkpt lat="49.75949" lon="4.81087">
        <ele>254</ele>
        <time>2022-07-15T05:39:07.000Z</time>
      </trkpt>
      <trkpt lat="49.7595" lon="4.81089">
        <ele>254</ele>
        <time>2022-07-15T05:39:08.000Z</time>
      </trkpt>
      <trkpt lat="49.75952" lon="4.81093">
        <ele>254</ele>
        <time>2022-07-15T05:39:09.000Z</time>
      </trkpt>
      <trkpt lat="49.75953" lon="4.81097">
        <ele>254</ele>
        <time>2022-07-15T05:39:10.000Z</time>
      </trkpt>
      <trkpt lat="49.75955" lon="4.811">
        <ele>255</ele>
        <time>2022-07-15T05:39:11.000Z</time>
      </trkpt>
      <trkpt lat="49.75956" lon="4.81103">
        <ele>255</ele>
        <time>2022-07-15T05:39:12.000Z</time>
      </trkpt>
      <trkpt lat="49.75958" lon="4.81106">
        <ele>255</ele>
        <time>2022-07-15T05:39:13.000Z</time>
      </trkpt>
      <trkpt lat="49.75959" lon="4.8111">
        <ele>255</ele>
        <time>2022-07-15T05:39:14.000Z</time>
      </trkpt>
      <trkpt lat="49.75961" lon="4.81113">
        <ele>256</ele>
        <time>2022-07-15T05:39:15.000Z</time>
      </trkpt>
      <trkpt lat="49.75963" lon="4.81116">
        <ele>256</ele>
        <time>2022-07-15T05:39:16.000Z</time>
      </trkpt>
      <trkpt lat="49.75965" lon="4.81119">
        <ele>256</ele>
        <time>2022-07-15T05:39:17.000Z</time>
      </trkpt>
      <trkpt lat="49.75966" lon="4.81121">
        <ele>256</ele>
        <time>2022-07-15T05:39:18.000Z</time>
      </trkpt>
      <trkpt lat="49.75968" lon="4.81123">
        <ele>256</ele>
        <time>2022-07-15T05:39:19.000Z</time>
      </trkpt>
      <trkpt lat="49.7597" lon="4.81125">
        <ele>257</ele>
        <time>2022-07-15T05:39:20.000Z</time>
      </trkpt>
      <trkpt lat="49.75973" lon="4.81127">
        <ele>257</ele>
        <time>2022-07-15T05:39:21.000Z</time>
      </trkpt>
      <trkpt lat="49.75976" lon="4.8113">
        <ele>257</ele>
        <time>2022-07-15T05:39:22.000Z</time>
      </trkpt>
      <trkpt lat="49.75978" lon="4.81132">
        <ele>257</ele>
        <time>2022-07-15T05:39:23.000Z</time>
      </trkpt>
      <trkpt lat="49.7598" lon="4.81134">
        <ele>258</ele>
        <time>2022-07-15T05:39:24.000Z</time>
      </trkpt>
      <trkpt lat="49.75982" lon="4.81135">
        <ele>258</ele>
        <time>2022-07-15T05:39:25.000Z</time>
      </trkpt>
      <trkpt lat="49.75983" lon="4.81138">
        <ele>258</ele>
        <time>2022-07-15T05:39:26.000Z</time>
      </trkpt>
      <trkpt lat="49.75985" lon="4.81141">
        <ele>259</ele>
        <time>2022-07-15T05:39:27.000Z</time>
      </trkpt>
      <trkpt lat="49.75987" lon="4.81144">
        <ele>259</ele>
        <time>2022-07-15T05:39:28.000Z</time>
      </trkpt>
      <trkpt lat="49.75989" lon="4.81147">
        <ele>259</ele>
        <time>2022-07-15T05:39:29.000Z</time>
      </trkpt>
      <trkpt lat="49.75992" lon="4.8115">
        <ele>260</ele>
        <time>2022-07-15T05:39:30.000Z</time>
      </trkpt>
      <trkpt lat="49.75995" lon="4.81154">
        <ele>260</ele>
        <time>2022-07-15T05:39:31.000Z</time>
      </trkpt>
      <trkpt lat="49.75998" lon="4.81157">
        <ele>260</ele>
        <time>2022-07-15T05:39:32.000Z</time>
      </trkpt>
      <trkpt lat="49.76" lon="4.81159">
        <ele>261</ele>
        <time>2022-07-15T05:39:33.000Z</time>
      </trkpt>
      <trkpt lat="49.76002" lon="4.81162">
        <ele>261</ele>
        <time>2022-07-15T05:39:34.000Z</time>
      </trkpt>
      <trkpt lat="49.76003" lon="4.81165">
        <ele>261</ele>
        <time>2022-07-15T05:39:35.000Z</time>
      </trkpt>
      <trkpt lat="49.76005" lon="4.81169">
        <ele>262</ele>
        <time>2022-07-15T05:39:36.000Z</time>
      </trkpt>
      <trkpt lat="49.76007" lon="4.81172">
        <ele>262</ele>
        <time>2022-07-15T05:39:37.000Z</time>
      </trkpt>
      <trkpt lat="49.7601" lon="4.81176">
        <ele>262</ele>
        <time>2022-07-15T05:39:38.000Z</time>
      </trkpt>
      <trkpt lat="49.76013" lon="4.8118">
        <ele>262</ele>
        <time>2022-07-15T05:39:39.000Z</time>
      </trkpt>
      <trkpt lat="49.76016" lon="4.81184">
        <ele>262</ele>
        <time>2022-07-15T05:39:40.000Z</time>
      </trkpt>
      <trkpt lat="49.76019" lon="4.81187">
        <ele>263</ele>
        <time>2022-07-15T05:39:41.000Z</time>
      </trkpt>
      <trkpt lat="49.76023" lon="4.81191">
        <ele>263</ele>
        <time>2022-07-15T05:39:42.000Z</time>
      </trkpt>
      <trkpt lat="49.76027" lon="4.81194">
        <ele>263</ele>
        <time>2022-07-15T05:39:43.000Z</time>
      </trkpt>
      <trkpt lat="49.7603" lon="4.81198">
        <ele>263</ele>
        <time>2022-07-15T05:39:44.000Z</time>
      </trkpt>
      <trkpt lat="49.76032" lon="4.81202">
        <ele>263</ele>
        <time>2022-07-15T05:39:45.000Z</time>
      </trkpt>
      <trkpt lat="49.76034" lon="4.81206">
        <ele>262</ele>
        <time>2022-07-15T05:39:46.000Z</time>
      </trkpt>
      <trkpt lat="49.76036" lon="4.8121">
        <ele>262</ele>
        <time>2022-07-15T05:39:47.000Z</time>
      </trkpt>
      <trkpt lat="49.76039" lon="4.81214">
        <ele>262</ele>
        <time>2022-07-15T05:39:48.000Z</time>
      </trkpt>
      <trkpt lat="49.76042" lon="4.81217">
        <ele>262</ele>
        <time>2022-07-15T05:39:49.000Z</time>
      </trkpt>
      <trkpt lat="49.76045" lon="4.81219">
        <ele>262</ele>
        <time>2022-07-15T05:39:50.000Z</time>
      </trkpt>
      <trkpt lat="49.76047" lon="4.81222">
        <ele>262</ele>
        <time>2022-07-15T05:39:51.000Z</time>
      </trkpt>
      <trkpt lat="49.7605" lon="4.81225">
        <ele>261</ele>
        <time>2022-07-15T05:39:52.000Z</time>
      </trkpt>
      <trkpt lat="49.76052" lon="4.81229">
        <ele>261</ele>
        <time>2022-07-15T05:39:53.000Z</time>
      </trkpt>
      <trkpt lat="49.76054" lon="4.81232">
        <ele>261</ele>
        <time>2022-07-15T05:39:54.000Z</time>
      </trkpt>
      <trkpt lat="49.76056" lon="4.81236">
        <ele>261</ele>
        <time>2022-07-15T05:39:55.000Z</time>
      </trkpt>
      <trkpt lat="49.76059" lon="4.81239">
        <ele>261</ele>
        <time>2022-07-15T05:39:56.000Z</time>
      </trkpt>
      <trkpt lat="49.76061" lon="4.81242">
        <ele>261</ele>
        <time>2022-07-15T05:39:57.000Z</time>
      </trkpt>
      <trkpt lat="49.76064" lon="4.81245">
        <ele>261</ele>
        <time>2022-07-15T05:39:58.000Z</time>
      </trkpt>
      <trkpt lat="49.76067" lon="4.81248">
        <ele>261</ele>
        <time>2022-07-15T05:39:59.000Z</time>
      </trkpt>
      <trkpt lat="49.7607" lon="4.81251">
        <ele>261</ele>
        <time>2022-07-15T05:40:00.000Z</time>
      </trkpt>
      <trkpt lat="49.76072" lon="4.81254">
        <ele>261</ele>
        <time>2022-07-15T05:40:01.000Z</time>
      </trkpt>
      <trkpt lat="49.76075" lon="4.81256">
        <ele>262</ele>
        <time>2022-07-15T05:40:02.000Z</time>
      </trkpt>
      <trkpt lat="49.76077" lon="4.81258">
        <ele>262</ele>
        <time>2022-07-15T05:40:03.000Z</time>
      </trkpt>
      <trkpt lat="49.76079" lon="4.8126">
        <ele>262</ele>
        <time>2022-07-15T05:40:04.000Z</time>
      </trkpt>
      <trkpt lat="49.76082" lon="4.81263">
        <ele>262</ele>
        <time>2022-07-15T05:40:05.000Z</time>
      </trkpt>
      <trkpt lat="49.76084" lon="4.81266">
        <ele>263</ele>
        <time>2022-07-15T05:40:06.000Z</time>
      </trkpt>
      <trkpt lat="49.76087" lon="4.81269">
        <ele>263</ele>
        <time>2022-07-15T05:40:07.000Z</time>
      </trkpt>
      <trkpt lat="49.7609" lon="4.81271">
        <ele>263</ele>
        <time>2022-07-15T05:40:08.000Z</time>
      </trkpt>
      <trkpt lat="49.76092" lon="4.81274">
        <ele>263</ele>
        <time>2022-07-15T05:40:09.000Z</time>
      </trkpt>
      <trkpt lat="49.76095" lon="4.81277">
        <ele>263</ele>
        <time>2022-07-15T05:40:10.000Z</time>
      </trkpt>
      <trkpt lat="49.76097" lon="4.8128">
        <ele>264</ele>
        <time>2022-07-15T05:40:11.000Z</time>
      </trkpt>
      <trkpt lat="49.761" lon="4.81282">
        <ele>264</ele>
        <time>2022-07-15T05:40:12.000Z</time>
      </trkpt>
      <trkpt lat="49.76102" lon="4.81284">
        <ele>264</ele>
        <time>2022-07-15T05:40:13.000Z</time>
      </trkpt>
      <trkpt lat="49.76105" lon="4.81286">
        <ele>264</ele>
        <time>2022-07-15T05:40:14.000Z</time>
      </trkpt>
      <trkpt lat="49.76107" lon="4.81288">
        <ele>265</ele>
        <time>2022-07-15T05:40:15.000Z</time>
      </trkpt>
      <trkpt lat="49.76111" lon="4.81289">
        <ele>265</ele>
        <time>2022-07-15T05:40:16.000Z</time>
      </trkpt>
      <trkpt lat="49.76114" lon="4.81291">
        <ele>265</ele>
        <time>2022-07-15T05:40:17.000Z</time>
      </trkpt>
      <trkpt lat="49.76116" lon="4.81294">
        <ele>265</ele>
        <time>2022-07-15T05:40:18.000Z</time>
      </trkpt>
      <trkpt lat="49.76118" lon="4.81297">
        <ele>266</ele>
        <time>2022-07-15T05:40:19.000Z</time>
      </trkpt>
      <trkpt lat="49.76121" lon="4.81301">
        <ele>266</ele>
        <time>2022-07-15T05:40:20.000Z</time>
      </trkpt>
      <trkpt lat="49.76123" lon="4.81304">
        <ele>266</ele>
        <time>2022-07-15T05:40:21.000Z</time>
      </trkpt>
      <trkpt lat="49.76124" lon="4.81308">
        <ele>266</ele>
        <time>2022-07-15T05:40:22.000Z</time>
      </trkpt>
      <trkpt lat="49.76126" lon="4.81312">
        <ele>266</ele>
        <time>2022-07-15T05:40:23.000Z</time>
      </trkpt>
      <trkpt lat="49.76126" lon="4.81315">
        <ele>266</ele>
        <time>2022-07-15T05:40:24.000Z</time>
      </trkpt>
      <trkpt lat="49.76127" lon="4.81318">
        <ele>266</ele>
        <time>2022-07-15T05:40:25.000Z</time>
      </trkpt>
      <trkpt lat="49.76127" lon="4.81322">
        <ele>267</ele>
        <time>2022-07-15T05:40:26.000Z</time>
      </trkpt>
      <trkpt lat="49.76128" lon="4.81325">
        <ele>267</ele>
        <time>2022-07-15T05:40:27.000Z</time>
      </trkpt>
      <trkpt lat="49.76127" lon="4.81329">
        <ele>267</ele>
        <time>2022-07-15T05:40:28.000Z</time>
      </trkpt>
      <trkpt lat="49.76127" lon="4.81332">
        <ele>267</ele>
        <time>2022-07-15T05:40:29.000Z</time>
      </trkpt>
      <trkpt lat="49.76127" lon="4.81335">
        <ele>267</ele>
        <time>2022-07-15T05:40:30.000Z</time>
      </trkpt>
      <trkpt lat="49.76127" lon="4.81338">
        <ele>268</ele>
        <time>2022-07-15T05:40:31.000Z</time>
      </trkpt>
      <trkpt lat="49.76127" lon="4.81341">
        <ele>268</ele>
        <time>2022-07-15T05:40:32.000Z</time>
      </trkpt>
      <trkpt lat="49.76127" lon="4.81344">
        <ele>268</ele>
        <time>2022-07-15T05:40:33.000Z</time>
      </trkpt>
      <trkpt lat="49.76127" lon="4.81347">
        <ele>268</ele>
        <time>2022-07-15T05:40:34.000Z</time>
      </trkpt>
      <trkpt lat="49.76127" lon="4.8135">
        <ele>268</ele>
        <time>2022-07-15T05:40:35.000Z</time>
      </trkpt>
      <trkpt lat="49.76127" lon="4.81353">
        <ele>268</ele>
        <time>2022-07-15T05:40:36.000Z</time>
      </trkpt>
      <trkpt lat="49.76127" lon="4.81356">
        <ele>269</ele>
        <time>2022-07-15T05:40:37.000Z</time>
      </trkpt>
      <trkpt lat="49.76127" lon="4.81358">
        <ele>269</ele>
        <time>2022-07-15T05:40:38.000Z</time>
      </trkpt>
      <trkpt lat="49.76127" lon="4.81362">
        <ele>269</ele>
        <time>2022-07-15T05:40:39.000Z</time>
      </trkpt>
      <trkpt lat="49.76127" lon="4.81365">
        <ele>269</ele>
        <time>2022-07-15T05:40:40.000Z</time>
      </trkpt>
      <trkpt lat="49.76126" lon="4.81368">
        <ele>269</ele>
        <time>2022-07-15T05:40:41.000Z</time>
      </trkpt>
      <trkpt lat="49.76126" lon="4.81371">
        <ele>269</ele>
        <time>2022-07-15T05:40:42.000Z</time>
      </trkpt>
      <trkpt lat="49.76126" lon="4.81374">
        <ele>269</ele>
        <time>2022-07-15T05:40:43.000Z</time>
      </trkpt>
      <trkpt lat="49.76126" lon="4.81377">
        <ele>270</ele>
        <time>2022-07-15T05:40:44.000Z</time>
      </trkpt>
      <trkpt lat="49.76126" lon="4.81379">
        <ele>270</ele>
        <time>2022-07-15T05:40:45.000Z</time>
      </trkpt>
      <trkpt lat="49.76126" lon="4.81382">
        <ele>270</ele>
        <time>2022-07-15T05:40:46.000Z</time>
      </trkpt>
      <trkpt lat="49.76126" lon="4.81386">
        <ele>270</ele>
        <time>2022-07-15T05:40:47.000Z</time>
      </trkpt>
      <trkpt lat="49.76126" lon="4.8139">
        <ele>270</ele>
        <time>2022-07-15T05:40:48.000Z</time>
      </trkpt>
      <trkpt lat="49.76126" lon="4.81393">
        <ele>270</ele>
        <time>2022-07-15T05:40:49.000Z</time>
      </trkpt>
      <trkpt lat="49.76126" lon="4.81397">
        <ele>270</ele>
        <time>2022-07-15T05:40:50.000Z</time>
      </trkpt>
      <trkpt lat="49.76127" lon="4.814">
        <ele>270</ele>
        <time>2022-07-15T05:40:51.000Z</time>
      </trkpt>
      <trkpt lat="49.76126" lon="4.81404">
        <ele>270</ele>
        <time>2022-07-15T05:40:52.000Z</time>
      </trkpt>
      <trkpt lat="49.76126" lon="4.81407">
        <ele>270</ele>
        <time>2022-07-15T05:40:53.000Z</time>
      </trkpt>
      <trkpt lat="49.76125" lon="4.81411">
        <ele>270</ele>
        <time>2022-07-15T05:40:54.000Z</time>
      </trkpt>
      <trkpt lat="49.76125" lon="4.81414">
        <ele>270</ele>
        <time>2022-07-15T05:40:55.000Z</time>
      </trkpt>
      <trkpt lat="49.76126" lon="4.81417">
        <ele>271</ele>
        <time>2022-07-15T05:40:56.000Z</time>
      </trkpt>
      <trkpt lat="49.76127" lon="4.8142">
        <ele>271</ele>
        <time>2022-07-15T05:40:57.000Z</time>
      </trkpt>
      <trkpt lat="49.76129" lon="4.81422">
        <ele>271</ele>
        <time>2022-07-15T05:40:58.000Z</time>
      </trkpt>
      <trkpt lat="49.76131" lon="4.81424">
        <ele>271</ele>
        <time>2022-07-15T05:40:59.000Z</time>
      </trkpt>
      <trkpt lat="49.76133" lon="4.81425">
        <ele>271</ele>
        <time>2022-07-15T05:41:00.000Z</time>
      </trkpt>
      <trkpt lat="49.76135" lon="4.81426">
        <ele>271</ele>
        <time>2022-07-15T05:41:01.000Z</time>
      </trkpt>
      <trkpt lat="49.76138" lon="4.81427">
        <ele>271</ele>
        <time>2022-07-15T05:41:02.000Z</time>
      </trkpt>
      <trkpt lat="49.7614" lon="4.81427">
        <ele>271</ele>
        <time>2022-07-15T05:41:03.000Z</time>
      </trkpt>
      <trkpt lat="49.76142" lon="4.81428">
        <ele>272</ele>
        <time>2022-07-15T05:41:04.000Z</time>
      </trkpt>
      <trkpt lat="49.76144" lon="4.81428">
        <ele>272</ele>
        <time>2022-07-15T05:41:05.000Z</time>
      </trkpt>
      <trkpt lat="49.76147" lon="4.81429">
        <ele>272</ele>
        <time>2022-07-15T05:41:06.000Z</time>
      </trkpt>
      <trkpt lat="49.7615" lon="4.81429">
        <ele>272</ele>
        <time>2022-07-15T05:41:07.000Z</time>
      </trkpt>
      <trkpt lat="49.76153" lon="4.8143">
        <ele>272</ele>
        <time>2022-07-15T05:41:08.000Z</time>
      </trkpt>
      <trkpt lat="49.76156" lon="4.81431">
        <ele>272</ele>
        <time>2022-07-15T05:41:09.000Z</time>
      </trkpt>
      <trkpt lat="49.76159" lon="4.81432">
        <ele>272</ele>
        <time>2022-07-15T05:41:10.000Z</time>
      </trkpt>
      <trkpt lat="49.76162" lon="4.81433">
        <ele>272</ele>
        <time>2022-07-15T05:41:11.000Z</time>
      </trkpt>
      <trkpt lat="49.76165" lon="4.81434">
        <ele>272</ele>
        <time>2022-07-15T05:41:12.000Z</time>
      </trkpt>
      <trkpt lat="49.76168" lon="4.81433">
        <ele>272</ele>
        <time>2022-07-15T05:41:13.000Z</time>
      </trkpt>
      <trkpt lat="49.7617" lon="4.8143">
        <ele>272</ele>
        <time>2022-07-15T05:41:14.000Z</time>
      </trkpt>
      <trkpt lat="49.76172" lon="4.81427">
        <ele>272</ele>
        <time>2022-07-15T05:41:15.000Z</time>
      </trkpt>
      <trkpt lat="49.76173" lon="4.81422">
        <ele>273</ele>
        <time>2022-07-15T05:41:16.000Z</time>
      </trkpt>
      <trkpt lat="49.76174" lon="4.81414">
        <ele>273</ele>
        <time>2022-07-15T05:41:17.000Z</time>
      </trkpt>
      <trkpt lat="49.76174" lon="4.81406">
        <ele>273</ele>
        <time>2022-07-15T05:41:18.000Z</time>
      </trkpt>
      <trkpt lat="49.76175" lon="4.81397">
        <ele>273</ele>
        <time>2022-07-15T05:41:19.000Z</time>
      </trkpt>
      <trkpt lat="49.76175" lon="4.81387">
        <ele>272</ele>
        <time>2022-07-15T05:41:20.000Z</time>
      </trkpt>
      <trkpt lat="49.76176" lon="4.81377">
        <ele>272</ele>
        <time>2022-07-15T05:41:21.000Z</time>
      </trkpt>
      <trkpt lat="49.76176" lon="4.81366">
        <ele>272</ele>
        <time>2022-07-15T05:41:22.000Z</time>
      </trkpt>
      <trkpt lat="49.76177" lon="4.81356">
        <ele>272</ele>
        <time>2022-07-15T05:41:23.000Z</time>
      </trkpt>
      <trkpt lat="49.76178" lon="4.81344">
        <ele>272</ele>
        <time>2022-07-15T05:41:24.000Z</time>
      </trkpt>
      <trkpt lat="49.76179" lon="4.81332">
        <ele>271</ele>
        <time>2022-07-15T05:41:25.000Z</time>
      </trkpt>
      <trkpt lat="49.7618" lon="4.81321">
        <ele>271</ele>
        <time>2022-07-15T05:41:26.000Z</time>
      </trkpt>
      <trkpt lat="49.7618" lon="4.8131">
        <ele>271</ele>
        <time>2022-07-15T05:41:27.000Z</time>
      </trkpt>
      <trkpt lat="49.76182" lon="4.813">
        <ele>271</ele>
        <time>2022-07-15T05:41:28.000Z</time>
      </trkpt>
      <trkpt lat="49.76183" lon="4.81293">
        <ele>271</ele>
        <time>2022-07-15T05:41:29.000Z</time>
      </trkpt>
      <trkpt lat="49.76184" lon="4.81286">
        <ele>271</ele>
        <time>2022-07-15T05:41:30.000Z</time>
      </trkpt>
      <trkpt lat="49.76184" lon="4.8128">
        <ele>270</ele>
        <time>2022-07-15T05:41:31.000Z</time>
      </trkpt>
      <trkpt lat="49.76184" lon="4.81274">
        <ele>270</ele>
        <time>2022-07-15T05:41:32.000Z</time>
      </trkpt>
      <trkpt lat="49.76184" lon="4.81268">
        <ele>270</ele>
        <time>2022-07-15T05:41:33.000Z</time>
      </trkpt>
      <trkpt lat="49.76185" lon="4.81263">
        <ele>270</ele>
        <time>2022-07-15T05:41:34.000Z</time>
      </trkpt>
      <trkpt lat="49.76186" lon="4.81258">
        <ele>270</ele>
        <time>2022-07-15T05:41:35.000Z</time>
      </trkpt>
      <trkpt lat="49.76186" lon="4.81252">
        <ele>270</ele>
        <time>2022-07-15T05:41:36.000Z</time>
      </trkpt>
      <trkpt lat="49.76187" lon="4.81246">
        <ele>270</ele>
        <time>2022-07-15T05:41:37.000Z</time>
      </trkpt>
      <trkpt lat="49.76187" lon="4.81239">
        <ele>270</ele>
        <time>2022-07-15T05:41:38.000Z</time>
      </trkpt>
      <trkpt lat="49.76188" lon="4.81232">
        <ele>270</ele>
        <time>2022-07-15T05:41:39.000Z</time>
      </trkpt>
      <trkpt lat="49.76188" lon="4.81226">
        <ele>270</ele>
        <time>2022-07-15T05:41:40.000Z</time>
      </trkpt>
      <trkpt lat="49.76189" lon="4.81219">
        <ele>270</ele>
        <time>2022-07-15T05:41:41.000Z</time>
      </trkpt>
      <trkpt lat="49.76189" lon="4.81213">
        <ele>270</ele>
        <time>2022-07-15T05:41:42.000Z</time>
      </trkpt>
      <trkpt lat="49.76189" lon="4.81207">
        <ele>270</ele>
        <time>2022-07-15T05:41:43.000Z</time>
      </trkpt>
      <trkpt lat="49.7619" lon="4.812">
        <ele>270</ele>
        <time>2022-07-15T05:41:44.000Z</time>
      </trkpt>
      <trkpt lat="49.7619" lon="4.81194">
        <ele>270</ele>
        <time>2022-07-15T05:41:45.000Z</time>
      </trkpt>
      <trkpt lat="49.76191" lon="4.81187">
        <ele>270</ele>
        <time>2022-07-15T05:41:46.000Z</time>
      </trkpt>
      <trkpt lat="49.76191" lon="4.81181">
        <ele>270</ele>
        <time>2022-07-15T05:41:47.000Z</time>
      </trkpt>
      <trkpt lat="49.76191" lon="4.81174">
        <ele>270</ele>
        <time>2022-07-15T05:41:48.000Z</time>
      </trkpt>
      <trkpt lat="49.76192" lon="4.81168">
        <ele>270</ele>
        <time>2022-07-15T05:41:49.000Z</time>
      </trkpt>
      <trkpt lat="49.76192" lon="4.81161">
        <ele>270</ele>
        <time>2022-07-15T05:41:50.000Z</time>
      </trkpt>
      <trkpt lat="49.76192" lon="4.81153">
        <ele>270</ele>
        <time>2022-07-15T05:41:51.000Z</time>
      </trkpt>
      <trkpt lat="49.76193" lon="4.81146">
        <ele>270</ele>
        <time>2022-07-15T05:41:52.000Z</time>
      </trkpt>
      <trkpt lat="49.76194" lon="4.81139">
        <ele>270</ele>
        <time>2022-07-15T05:41:53.000Z</time>
      </trkpt>
      <trkpt lat="49.76195" lon="4.81132">
        <ele>270</ele>
        <time>2022-07-15T05:41:54.000Z</time>
      </trkpt>
      <trkpt lat="49.76196" lon="4.81126">
        <ele>270</ele>
        <time>2022-07-15T05:41:55.000Z</time>
      </trkpt>
      <trkpt lat="49.76196" lon="4.81118">
        <ele>270</ele>
        <time>2022-07-15T05:41:56.000Z</time>
      </trkpt>
      <trkpt lat="49.76197" lon="4.8111">
        <ele>270</ele>
        <time>2022-07-15T05:41:57.000Z</time>
      </trkpt>
      <trkpt lat="49.76197" lon="4.81102">
        <ele>270</ele>
        <time>2022-07-15T05:41:58.000Z</time>
      </trkpt>
      <trkpt lat="49.76196" lon="4.81093">
        <ele>270</ele>
        <time>2022-07-15T05:41:59.000Z</time>
      </trkpt>
      <trkpt lat="49.76196" lon="4.81084">
        <ele>270</ele>
        <time>2022-07-15T05:42:00.000Z</time>
      </trkpt>
      <trkpt lat="49.76197" lon="4.81074">
        <ele>270</ele>
        <time>2022-07-15T05:42:01.000Z</time>
      </trkpt>
      <trkpt lat="49.76197" lon="4.81064">
        <ele>269</ele>
        <time>2022-07-15T05:42:02.000Z</time>
      </trkpt>
      <trkpt lat="49.76197" lon="4.81054">
        <ele>269</ele>
        <time>2022-07-15T05:42:03.000Z</time>
      </trkpt>
      <trkpt lat="49.76198" lon="4.81045">
        <ele>269</ele>
        <time>2022-07-15T05:42:04.000Z</time>
      </trkpt>
      <trkpt lat="49.76198" lon="4.81036">
        <ele>269</ele>
        <time>2022-07-15T05:42:05.000Z</time>
      </trkpt>
      <trkpt lat="49.76198" lon="4.81028">
        <ele>268</ele>
        <time>2022-07-15T05:42:06.000Z</time>
      </trkpt>
      <trkpt lat="49.76199" lon="4.8102">
        <ele>268</ele>
        <time>2022-07-15T05:42:07.000Z</time>
      </trkpt>
      <trkpt lat="49.76198" lon="4.81012">
        <ele>268</ele>
        <time>2022-07-15T05:42:08.000Z</time>
      </trkpt>
      <trkpt lat="49.76199" lon="4.81004">
        <ele>268</ele>
        <time>2022-07-15T05:42:09.000Z</time>
      </trkpt>
      <trkpt lat="49.762" lon="4.80995">
        <ele>268</ele>
        <time>2022-07-15T05:42:10.000Z</time>
      </trkpt>
      <trkpt lat="49.762" lon="4.80987">
        <ele>268</ele>
        <time>2022-07-15T05:42:11.000Z</time>
      </trkpt>
      <trkpt lat="49.762" lon="4.80979">
        <ele>268</ele>
        <time>2022-07-15T05:42:12.000Z</time>
      </trkpt>
      <trkpt lat="49.762" lon="4.80972">
        <ele>268</ele>
        <time>2022-07-15T05:42:13.000Z</time>
      </trkpt>
      <trkpt lat="49.76201" lon="4.80964">
        <ele>268</ele>
        <time>2022-07-15T05:42:14.000Z</time>
      </trkpt>
      <trkpt lat="49.76201" lon="4.80958">
        <ele>268</ele>
        <time>2022-07-15T05:42:15.000Z</time>
      </trkpt>
      <trkpt lat="49.76201" lon="4.80951">
        <ele>268</ele>
        <time>2022-07-15T05:42:16.000Z</time>
      </trkpt>
      <trkpt lat="49.762" lon="4.80945">
        <ele>268</ele>
        <time>2022-07-15T05:42:17.000Z</time>
      </trkpt>
      <trkpt lat="49.76199" lon="4.80939">
        <ele>268</ele>
        <time>2022-07-15T05:42:18.000Z</time>
      </trkpt>
      <trkpt lat="49.76198" lon="4.80932">
        <ele>268</ele>
        <time>2022-07-15T05:42:19.000Z</time>
      </trkpt>
      <trkpt lat="49.76199" lon="4.80925">
        <ele>268</ele>
        <time>2022-07-15T05:42:20.000Z</time>
      </trkpt>
      <trkpt lat="49.76201" lon="4.80918">
        <ele>268</ele>
        <time>2022-07-15T05:42:21.000Z</time>
      </trkpt>
      <trkpt lat="49.76203" lon="4.80914">
        <ele>268</ele>
        <time>2022-07-15T05:42:22.000Z</time>
      </trkpt>
      <trkpt lat="49.76206" lon="4.8091">
        <ele>268</ele>
        <time>2022-07-15T05:42:23.000Z</time>
      </trkpt>
      <trkpt lat="49.76209" lon="4.80907">
        <ele>268</ele>
        <time>2022-07-15T05:42:24.000Z</time>
      </trkpt>
      <trkpt lat="49.76212" lon="4.80906">
        <ele>268</ele>
        <time>2022-07-15T05:42:25.000Z</time>
      </trkpt>
      <trkpt lat="49.76215" lon="4.80905">
        <ele>268</ele>
        <time>2022-07-15T05:42:26.000Z</time>
      </trkpt>
      <trkpt lat="49.76218" lon="4.80906">
        <ele>268</ele>
        <time>2022-07-15T05:42:27.000Z</time>
      </trkpt>
      <trkpt lat="49.7622" lon="4.80906">
        <ele>268</ele>
        <time>2022-07-15T05:42:28.000Z</time>
      </trkpt>
      <trkpt lat="49.76222" lon="4.80907">
        <ele>268</ele>
        <time>2022-07-15T05:42:29.000Z</time>
      </trkpt>
      <trkpt lat="49.76224" lon="4.80907">
        <ele>268</ele>
        <time>2022-07-15T05:42:30.000Z</time>
      </trkpt>
      <trkpt lat="49.76225" lon="4.80908">
        <ele>269</ele>
        <time>2022-07-15T05:42:31.000Z</time>
      </trkpt>
      <trkpt lat="49.76227" lon="4.80909">
        <ele>269</ele>
        <time>2022-07-15T05:42:32.000Z</time>
      </trkpt>
      <trkpt lat="49.76229" lon="4.80909">
        <ele>269</ele>
        <time>2022-07-15T05:42:33.000Z</time>
      </trkpt>
      <trkpt lat="49.76231" lon="4.8091">
        <ele>269</ele>
        <time>2022-07-15T05:42:34.000Z</time>
      </trkpt>
      <trkpt lat="49.76234" lon="4.80911">
        <ele>269</ele>
        <time>2022-07-15T05:42:35.000Z</time>
      </trkpt>
      <trkpt lat="49.76236" lon="4.80912">
        <ele>269</ele>
        <time>2022-07-15T05:42:36.000Z</time>
      </trkpt>
      <trkpt lat="49.76238" lon="4.80913">
        <ele>269</ele>
        <time>2022-07-15T05:42:37.000Z</time>
      </trkpt>
      <trkpt lat="49.7624" lon="4.80914">
        <ele>269</ele>
        <time>2022-07-15T05:42:38.000Z</time>
      </trkpt>
      <trkpt lat="49.76243" lon="4.80915">
        <ele>269</ele>
        <time>2022-07-15T05:42:39.000Z</time>
      </trkpt>
      <trkpt lat="49.76245" lon="4.80916">
        <ele>269</ele>
        <time>2022-07-15T05:42:40.000Z</time>
      </trkpt>
      <trkpt lat="49.76247" lon="4.80917">
        <ele>269</ele>
        <time>2022-07-15T05:42:41.000Z</time>
      </trkpt>
      <trkpt lat="49.76249" lon="4.80918">
        <ele>269</ele>
        <time>2022-07-15T05:42:42.000Z</time>
      </trkpt>
      <trkpt lat="49.76251" lon="4.80919">
        <ele>269</ele>
        <time>2022-07-15T05:42:43.000Z</time>
      </trkpt>
      <trkpt lat="49.76254" lon="4.80921">
        <ele>269</ele>
        <time>2022-07-15T05:42:44.000Z</time>
      </trkpt>
      <trkpt lat="49.76256" lon="4.80922">
        <ele>270</ele>
        <time>2022-07-15T05:42:45.000Z</time>
      </trkpt>
      <trkpt lat="49.76258" lon="4.80923">
        <ele>270</ele>
        <time>2022-07-15T05:42:46.000Z</time>
      </trkpt>
      <trkpt lat="49.76261" lon="4.80924">
        <ele>270</ele>
        <time>2022-07-15T05:42:47.000Z</time>
      </trkpt>
      <trkpt lat="49.76263" lon="4.80925">
        <ele>270</ele>
        <time>2022-07-15T05:42:48.000Z</time>
      </trkpt>
      <trkpt lat="49.76266" lon="4.80927">
        <ele>270</ele>
        <time>2022-07-15T05:42:49.000Z</time>
      </trkpt>
      <trkpt lat="49.76269" lon="4.80928">
        <ele>270</ele>
        <time>2022-07-15T05:42:50.000Z</time>
      </trkpt>
      <trkpt lat="49.76272" lon="4.80929">
        <ele>270</ele>
        <time>2022-07-15T05:42:51.000Z</time>
      </trkpt>
      <trkpt lat="49.76275" lon="4.8093">
        <ele>271</ele>
        <time>2022-07-15T05:42:52.000Z</time>
      </trkpt>
      <trkpt lat="49.76278" lon="4.80932">
        <ele>271</ele>
        <time>2022-07-15T05:42:53.000Z</time>
      </trkpt>
      <trkpt lat="49.76281" lon="4.80934">
        <ele>271</ele>
        <time>2022-07-15T05:42:54.000Z</time>
      </trkpt>
      <trkpt lat="49.76284" lon="4.80935">
        <ele>271</ele>
        <time>2022-07-15T05:42:55.000Z</time>
      </trkpt>
      <trkpt lat="49.76286" lon="4.80937">
        <ele>271</ele>
        <time>2022-07-15T05:42:56.000Z</time>
      </trkpt>
      <trkpt lat="49.76289" lon="4.80937">
        <ele>272</ele>
        <time>2022-07-15T05:42:57.000Z</time>
      </trkpt>
      <trkpt lat="49.76292" lon="4.80938">
        <ele>272</ele>
        <time>2022-07-15T05:42:58.000Z</time>
      </trkpt>
      <trkpt lat="49.76295" lon="4.80939">
        <ele>272</ele>
        <time>2022-07-15T05:42:59.000Z</time>
      </trkpt>
      <trkpt lat="49.76297" lon="4.80939">
        <ele>272</ele>
        <time>2022-07-15T05:43:00.000Z</time>
      </trkpt>
      <trkpt lat="49.763" lon="4.80938">
        <ele>273</ele>
        <time>2022-07-15T05:43:01.000Z</time>
      </trkpt>
      <trkpt lat="49.76302" lon="4.80936">
        <ele>273</ele>
        <time>2022-07-15T05:43:02.000Z</time>
      </trkpt>
      <trkpt lat="49.76304" lon="4.80932">
        <ele>273</ele>
        <time>2022-07-15T05:43:03.000Z</time>
      </trkpt>
      <trkpt lat="49.76305" lon="4.80928">
        <ele>273</ele>
        <time>2022-07-15T05:43:04.000Z</time>
      </trkpt>
      <trkpt lat="49.76306" lon="4.80922">
        <ele>273</ele>
        <time>2022-07-15T05:43:05.000Z</time>
      </trkpt>
      <trkpt lat="49.76307" lon="4.80916">
        <ele>273</ele>
        <time>2022-07-15T05:43:06.000Z</time>
      </trkpt>
      <trkpt lat="49.76308" lon="4.8091">
        <ele>274</ele>
        <time>2022-07-15T05:43:07.000Z</time>
      </trkpt>
      <trkpt lat="49.76309" lon="4.80905">
        <ele>274</ele>
        <time>2022-07-15T05:43:08.000Z</time>
      </trkpt>
      <trkpt lat="49.7631" lon="4.80899">
        <ele>274</ele>
        <time>2022-07-15T05:43:09.000Z</time>
      </trkpt>
      <trkpt lat="49.76311" lon="4.80894">
        <ele>274</ele>
        <time>2022-07-15T05:43:10.000Z</time>
      </trkpt>
      <trkpt lat="49.76311" lon="4.80888">
        <ele>274</ele>
        <time>2022-07-15T05:43:11.000Z</time>
      </trkpt>
      <trkpt lat="49.76312" lon="4.80882">
        <ele>274</ele>
        <time>2022-07-15T05:43:12.000Z</time>
      </trkpt>
      <trkpt lat="49.76313" lon="4.80876">
        <ele>274</ele>
        <time>2022-07-15T05:43:13.000Z</time>
      </trkpt>
      <trkpt lat="49.76313" lon="4.8087">
        <ele>274</ele>
        <time>2022-07-15T05:43:14.000Z</time>
      </trkpt>
      <trkpt lat="49.76314" lon="4.80864">
        <ele>274</ele>
        <time>2022-07-15T05:43:15.000Z</time>
      </trkpt>
      <trkpt lat="49.76314" lon="4.80858">
        <ele>275</ele>
        <time>2022-07-15T05:43:16.000Z</time>
      </trkpt>
      <trkpt lat="49.76315" lon="4.80852">
        <ele>275</ele>
        <time>2022-07-15T05:43:17.000Z</time>
      </trkpt>
      <trkpt lat="49.76315" lon="4.80846">
        <ele>275</ele>
        <time>2022-07-15T05:43:18.000Z</time>
      </trkpt>
      <trkpt lat="49.76315" lon="4.8084">
        <ele>275</ele>
        <time>2022-07-15T05:43:19.000Z</time>
      </trkpt>
      <trkpt lat="49.76315" lon="4.80834">
        <ele>275</ele>
        <time>2022-07-15T05:43:20.000Z</time>
      </trkpt>
      <trkpt lat="49.76314" lon="4.80827">
        <ele>275</ele>
        <time>2022-07-15T05:43:21.000Z</time>
      </trkpt>
      <trkpt lat="49.76314" lon="4.8082">
        <ele>275</ele>
        <time>2022-07-15T05:43:22.000Z</time>
      </trkpt>
      <trkpt lat="49.76314" lon="4.80814">
        <ele>275</ele>
        <time>2022-07-15T05:43:23.000Z</time>
      </trkpt>
      <trkpt lat="49.76313" lon="4.80807">
        <ele>275</ele>
        <time>2022-07-15T05:43:24.000Z</time>
      </trkpt>
      <trkpt lat="49.76313" lon="4.80801">
        <ele>275</ele>
        <time>2022-07-15T05:43:25.000Z</time>
      </trkpt>
      <trkpt lat="49.76313" lon="4.80794">
        <ele>275</ele>
        <time>2022-07-15T05:43:26.000Z</time>
      </trkpt>
      <trkpt lat="49.76313" lon="4.80788">
        <ele>275</ele>
        <time>2022-07-15T05:43:27.000Z</time>
      </trkpt>
      <trkpt lat="49.76313" lon="4.80781">
        <ele>275</ele>
        <time>2022-07-15T05:43:28.000Z</time>
      </trkpt>
      <trkpt lat="49.76313" lon="4.80774">
        <ele>275</ele>
        <time>2022-07-15T05:43:29.000Z</time>
      </trkpt>
      <trkpt lat="49.76313" lon="4.80768">
        <ele>275</ele>
        <time>2022-07-15T05:43:30.000Z</time>
      </trkpt>
      <trkpt lat="49.76314" lon="4.80761">
        <ele>275</ele>
        <time>2022-07-15T05:43:31.000Z</time>
      </trkpt>
      <trkpt lat="49.76315" lon="4.80755">
        <ele>275</ele>
        <time>2022-07-15T05:43:32.000Z</time>
      </trkpt>
      <trkpt lat="49.76316" lon="4.80749">
        <ele>275</ele>
        <time>2022-07-15T05:43:33.000Z</time>
      </trkpt>
      <trkpt lat="49.76318" lon="4.80743">
        <ele>275</ele>
        <time>2022-07-15T05:43:34.000Z</time>
      </trkpt>
      <trkpt lat="49.7632" lon="4.80737">
        <ele>276</ele>
        <time>2022-07-15T05:43:35.000Z</time>
      </trkpt>
      <trkpt lat="49.76322" lon="4.80731">
        <ele>276</ele>
        <time>2022-07-15T05:43:36.000Z</time>
      </trkpt>
      <trkpt lat="49.76325" lon="4.80725">
        <ele>275</ele>
        <time>2022-07-15T05:43:37.000Z</time>
      </trkpt>
      <trkpt lat="49.76327" lon="4.8072">
        <ele>275</ele>
        <time>2022-07-15T05:43:38.000Z</time>
      </trkpt>
      <trkpt lat="49.7633" lon="4.80714">
        <ele>275</ele>
        <time>2022-07-15T05:43:39.000Z</time>
      </trkpt>
      <trkpt lat="49.76333" lon="4.80708">
        <ele>275</ele>
        <time>2022-07-15T05:43:40.000Z</time>
      </trkpt>
      <trkpt lat="49.76336" lon="4.80703">
        <ele>275</ele>
        <time>2022-07-15T05:43:41.000Z</time>
      </trkpt>
      <trkpt lat="49.7634" lon="4.80697">
        <ele>275</ele>
        <time>2022-07-15T05:43:42.000Z</time>
      </trkpt>
      <trkpt lat="49.76343" lon="4.80692">
        <ele>275</ele>
        <time>2022-07-15T05:43:43.000Z</time>
      </trkpt>
      <trkpt lat="49.76346" lon="4.80686">
        <ele>275</ele>
        <time>2022-07-15T05:43:44.000Z</time>
      </trkpt>
      <trkpt lat="49.76349" lon="4.80681">
        <ele>275</ele>
        <time>2022-07-15T05:43:45.000Z</time>
      </trkpt>
      <trkpt lat="49.76352" lon="4.80675">
        <ele>275</ele>
        <time>2022-07-15T05:43:46.000Z</time>
      </trkpt>
      <trkpt lat="49.76356" lon="4.80669">
        <ele>275</ele>
        <time>2022-07-15T05:43:47.000Z</time>
      </trkpt>
      <trkpt lat="49.7636" lon="4.80664">
        <ele>275</ele>
        <time>2022-07-15T05:43:48.000Z</time>
      </trkpt>
      <trkpt lat="49.76363" lon="4.80658">
        <ele>275</ele>
        <time>2022-07-15T05:43:49.000Z</time>
      </trkpt>
      <trkpt lat="49.76368" lon="4.80653">
        <ele>275</ele>
        <time>2022-07-15T05:43:50.000Z</time>
      </trkpt>
      <trkpt lat="49.76372" lon="4.80649">
        <ele>275</ele>
        <time>2022-07-15T05:43:51.000Z</time>
      </trkpt>
      <trkpt lat="49.76377" lon="4.80644">
        <ele>275</ele>
        <time>2022-07-15T05:43:52.000Z</time>
      </trkpt>
      <trkpt lat="49.76382" lon="4.8064">
        <ele>275</ele>
        <time>2022-07-15T05:43:53.000Z</time>
      </trkpt>
      <trkpt lat="49.76387" lon="4.80636">
        <ele>275</ele>
        <time>2022-07-15T05:43:54.000Z</time>
      </trkpt>
      <trkpt lat="49.76392" lon="4.80632">
        <ele>274</ele>
        <time>2022-07-15T05:43:55.000Z</time>
      </trkpt>
      <trkpt lat="49.76396" lon="4.80628">
        <ele>274</ele>
        <time>2022-07-15T05:43:56.000Z</time>
      </trkpt>
      <trkpt lat="49.76401" lon="4.80625">
        <ele>274</ele>
        <time>2022-07-15T05:43:57.000Z</time>
      </trkpt>
      <trkpt lat="49.76406" lon="4.80622">
        <ele>274</ele>
        <time>2022-07-15T05:43:58.000Z</time>
      </trkpt>
      <trkpt lat="49.7641" lon="4.80618">
        <ele>274</ele>
        <time>2022-07-15T05:43:59.000Z</time>
      </trkpt>
      <trkpt lat="49.76415" lon="4.80615">
        <ele>274</ele>
        <time>2022-07-15T05:44:00.000Z</time>
      </trkpt>
      <trkpt lat="49.76421" lon="4.80612">
        <ele>274</ele>
        <time>2022-07-15T05:44:01.000Z</time>
      </trkpt>
      <trkpt lat="49.76426" lon="4.80608">
        <ele>274</ele>
        <time>2022-07-15T05:44:02.000Z</time>
      </trkpt>
      <trkpt lat="49.76431" lon="4.80605">
        <ele>274</ele>
        <time>2022-07-15T05:44:03.000Z</time>
      </trkpt>
      <trkpt lat="49.76436" lon="4.80601">
        <ele>273</ele>
        <time>2022-07-15T05:44:04.000Z</time>
      </trkpt>
      <trkpt lat="49.76441" lon="4.80597">
        <ele>273</ele>
        <time>2022-07-15T05:44:05.000Z</time>
      </trkpt>
      <trkpt lat="49.76445" lon="4.80594">
        <ele>273</ele>
        <time>2022-07-15T05:44:06.000Z</time>
      </trkpt>
      <trkpt lat="49.7645" lon="4.8059">
        <ele>273</ele>
        <time>2022-07-15T05:44:07.000Z</time>
      </trkpt>
      <trkpt lat="49.76455" lon="4.80586">
        <ele>273</ele>
        <time>2022-07-15T05:44:08.000Z</time>
      </trkpt>
      <trkpt lat="49.76459" lon="4.80582">
        <ele>273</ele>
        <time>2022-07-15T05:44:09.000Z</time>
      </trkpt>
      <trkpt lat="49.76464" lon="4.80579">
        <ele>273</ele>
        <time>2022-07-15T05:44:10.000Z</time>
      </trkpt>
      <trkpt lat="49.76469" lon="4.80575">
        <ele>273</ele>
        <time>2022-07-15T05:44:11.000Z</time>
      </trkpt>
      <trkpt lat="49.76473" lon="4.80571">
        <ele>273</ele>
        <time>2022-07-15T05:44:12.000Z</time>
      </trkpt>
      <trkpt lat="49.76478" lon="4.80567">
        <ele>272</ele>
        <time>2022-07-15T05:44:13.000Z</time>
      </trkpt>
      <trkpt lat="49.76483" lon="4.80563">
        <ele>272</ele>
        <time>2022-07-15T05:44:14.000Z</time>
      </trkpt>
      <trkpt lat="49.76487" lon="4.80559">
        <ele>272</ele>
        <time>2022-07-15T05:44:15.000Z</time>
      </trkpt>
      <trkpt lat="49.76492" lon="4.80555">
        <ele>272</ele>
        <time>2022-07-15T05:44:16.000Z</time>
      </trkpt>
      <trkpt lat="49.76496" lon="4.80551">
        <ele>272</ele>
        <time>2022-07-15T05:44:17.000Z</time>
      </trkpt>
      <trkpt lat="49.765" lon="4.80547">
        <ele>272</ele>
        <time>2022-07-15T05:44:18.000Z</time>
      </trkpt>
      <trkpt lat="49.76503" lon="4.80542">
        <ele>272</ele>
        <time>2022-07-15T05:44:19.000Z</time>
      </trkpt>
      <trkpt lat="49.76506" lon="4.80539">
        <ele>272</ele>
        <time>2022-07-15T05:44:20.000Z</time>
      </trkpt>
      <trkpt lat="49.76509" lon="4.80535">
        <ele>272</ele>
        <time>2022-07-15T05:44:21.000Z</time>
      </trkpt>
      <trkpt lat="49.76513" lon="4.80532">
        <ele>273</ele>
        <time>2022-07-15T05:44:22.000Z</time>
      </trkpt>
      <trkpt lat="49.76515" lon="4.80529">
        <ele>273</ele>
        <time>2022-07-15T05:44:23.000Z</time>
      </trkpt>
      <trkpt lat="49.76518" lon="4.80525">
        <ele>273</ele>
        <time>2022-07-15T05:44:24.000Z</time>
      </trkpt>
      <trkpt lat="49.76521" lon="4.80522">
        <ele>273</ele>
        <time>2022-07-15T05:44:25.000Z</time>
      </trkpt>
      <trkpt lat="49.76525" lon="4.80519">
        <ele>273</ele>
        <time>2022-07-15T05:44:26.000Z</time>
      </trkpt>
      <trkpt lat="49.76529" lon="4.80518">
        <ele>273</ele>
        <time>2022-07-15T05:44:27.000Z</time>
      </trkpt>
      <trkpt lat="49.76534" lon="4.80517">
        <ele>273</ele>
        <time>2022-07-15T05:44:28.000Z</time>
      </trkpt>
      <trkpt lat="49.76539" lon="4.80517">
        <ele>274</ele>
        <time>2022-07-15T05:44:29.000Z</time>
      </trkpt>
      <trkpt lat="49.76543" lon="4.80517">
        <ele>274</ele>
        <time>2022-07-15T05:44:30.000Z</time>
      </trkpt>
      <trkpt lat="49.76547" lon="4.80515">
        <ele>274</ele>
        <time>2022-07-15T05:44:31.000Z</time>
      </trkpt>
      <trkpt lat="49.76551" lon="4.80514">
        <ele>274</ele>
        <time>2022-07-15T05:44:32.000Z</time>
      </trkpt>
      <trkpt lat="49.76554" lon="4.80512">
        <ele>274</ele>
        <time>2022-07-15T05:44:33.000Z</time>
      </trkpt>
      <trkpt lat="49.76557" lon="4.80511">
        <ele>274</ele>
        <time>2022-07-15T05:44:34.000Z</time>
      </trkpt>
      <trkpt lat="49.76561" lon="4.80509">
        <ele>274</ele>
        <time>2022-07-15T05:44:35.000Z</time>
      </trkpt>
      <trkpt lat="49.76564" lon="4.80507">
        <ele>275</ele>
        <time>2022-07-15T05:44:36.000Z</time>
      </trkpt>
      <trkpt lat="49.76567" lon="4.80506">
        <ele>275</ele>
        <time>2022-07-15T05:44:37.000Z</time>
      </trkpt>
      <trkpt lat="49.76571" lon="4.80505">
        <ele>275</ele>
        <time>2022-07-15T05:44:38.000Z</time>
      </trkpt>
      <trkpt lat="49.76574" lon="4.80503">
        <ele>275</ele>
        <time>2022-07-15T05:44:39.000Z</time>
      </trkpt>
      <trkpt lat="49.76578" lon="4.80502">
        <ele>275</ele>
        <time>2022-07-15T05:44:40.000Z</time>
      </trkpt>
      <trkpt lat="49.76582" lon="4.805">
        <ele>275</ele>
        <time>2022-07-15T05:44:41.000Z</time>
      </trkpt>
      <trkpt lat="49.76586" lon="4.80498">
        <ele>275</ele>
        <time>2022-07-15T05:44:42.000Z</time>
      </trkpt>
      <trkpt lat="49.76589" lon="4.80497">
        <ele>275</ele>
        <time>2022-07-15T05:44:43.000Z</time>
      </trkpt>
      <trkpt lat="49.76593" lon="4.80495">
        <ele>275</ele>
        <time>2022-07-15T05:44:44.000Z</time>
      </trkpt>
      <trkpt lat="49.76596" lon="4.80494">
        <ele>275</ele>
        <time>2022-07-15T05:44:45.000Z</time>
      </trkpt>
      <trkpt lat="49.766" lon="4.80492">
        <ele>276</ele>
        <time>2022-07-15T05:44:46.000Z</time>
      </trkpt>
      <trkpt lat="49.76603" lon="4.80491">
        <ele>276</ele>
        <time>2022-07-15T05:44:47.000Z</time>
      </trkpt>
      <trkpt lat="49.76606" lon="4.80489">
        <ele>276</ele>
        <time>2022-07-15T05:44:48.000Z</time>
      </trkpt>
      <trkpt lat="49.7661" lon="4.80487">
        <ele>276</ele>
        <time>2022-07-15T05:44:49.000Z</time>
      </trkpt>
      <trkpt lat="49.76614" lon="4.80485">
        <ele>277</ele>
        <time>2022-07-15T05:44:50.000Z</time>
      </trkpt>
      <trkpt lat="49.76617" lon="4.80483">
        <ele>277</ele>
        <time>2022-07-15T05:44:51.000Z</time>
      </trkpt>
      <trkpt lat="49.76621" lon="4.80481">
        <ele>277</ele>
        <time>2022-07-15T05:44:52.000Z</time>
      </trkpt>
      <trkpt lat="49.76624" lon="4.8048">
        <ele>278</ele>
        <time>2022-07-15T05:44:53.000Z</time>
      </trkpt>
      <trkpt lat="49.76627" lon="4.80479">
        <ele>278</ele>
        <time>2022-07-15T05:44:54.000Z</time>
      </trkpt>
      <trkpt lat="49.7663" lon="4.80478">
        <ele>278</ele>
        <time>2022-07-15T05:44:55.000Z</time>
      </trkpt>
      <trkpt lat="49.76634" lon="4.80478">
        <ele>279</ele>
        <time>2022-07-15T05:44:56.000Z</time>
      </trkpt>
      <trkpt lat="49.76638" lon="4.80477">
        <ele>279</ele>
        <time>2022-07-15T05:44:57.000Z</time>
      </trkpt>
      <trkpt lat="49.76641" lon="4.80477">
        <ele>280</ele>
        <time>2022-07-15T05:44:58.000Z</time>
      </trkpt>
      <trkpt lat="49.76644" lon="4.80476">
        <ele>280</ele>
        <time>2022-07-15T05:44:59.000Z</time>
      </trkpt>
      <trkpt lat="49.76648" lon="4.80476">
        <ele>280</ele>
        <time>2022-07-15T05:45:00.000Z</time>
      </trkpt>
      <trkpt lat="49.76652" lon="4.80476">
        <ele>280</ele>
        <time>2022-07-15T05:45:01.000Z</time>
      </trkpt>
      <trkpt lat="49.76656" lon="4.80477">
        <ele>281</ele>
        <time>2022-07-15T05:45:02.000Z</time>
      </trkpt>
      <trkpt lat="49.7666" lon="4.80478">
        <ele>281</ele>
        <time>2022-07-15T05:45:03.000Z</time>
      </trkpt>
      <trkpt lat="49.76664" lon="4.80478">
        <ele>281</ele>
        <time>2022-07-15T05:45:04.000Z</time>
      </trkpt>
      <trkpt lat="49.76668" lon="4.8048">
        <ele>282</ele>
        <time>2022-07-15T05:45:05.000Z</time>
      </trkpt>
      <trkpt lat="49.76673" lon="4.80481">
        <ele>282</ele>
        <time>2022-07-15T05:45:06.000Z</time>
      </trkpt>
      <trkpt lat="49.76677" lon="4.80481">
        <ele>282</ele>
        <time>2022-07-15T05:45:07.000Z</time>
      </trkpt>
      <trkpt lat="49.76681" lon="4.80481">
        <ele>282</ele>
        <time>2022-07-15T05:45:08.000Z</time>
      </trkpt>
      <trkpt lat="49.76685" lon="4.80479">
        <ele>281</ele>
        <time>2022-07-15T05:45:09.000Z</time>
      </trkpt>
      <trkpt lat="49.7669" lon="4.80478">
        <ele>281</ele>
        <time>2022-07-15T05:45:10.000Z</time>
      </trkpt>
      <trkpt lat="49.76695" lon="4.80476">
        <ele>281</ele>
        <time>2022-07-15T05:45:11.000Z</time>
      </trkpt>
      <trkpt lat="49.767" lon="4.80475">
        <ele>281</ele>
        <time>2022-07-15T05:45:12.000Z</time>
      </trkpt>
      <trkpt lat="49.76704" lon="4.80473">
        <ele>281</ele>
        <time>2022-07-15T05:45:13.000Z</time>
      </trkpt>
      <trkpt lat="49.76709" lon="4.80472">
        <ele>281</ele>
        <time>2022-07-15T05:45:14.000Z</time>
      </trkpt>
      <trkpt lat="49.76714" lon="4.8047">
        <ele>281</ele>
        <time>2022-07-15T05:45:15.000Z</time>
      </trkpt>
      <trkpt lat="49.76719" lon="4.80469">
        <ele>281</ele>
        <time>2022-07-15T05:45:16.000Z</time>
      </trkpt>
      <trkpt lat="49.76724" lon="4.80467">
        <ele>281</ele>
        <time>2022-07-15T05:45:17.000Z</time>
      </trkpt>
      <trkpt lat="49.76729" lon="4.80466">
        <ele>281</ele>
        <time>2022-07-15T05:45:18.000Z</time>
      </trkpt>
      <trkpt lat="49.76734" lon="4.80465">
        <ele>281</ele>
        <time>2022-07-15T05:45:19.000Z</time>
      </trkpt>
      <trkpt lat="49.76739" lon="4.80463">
        <ele>281</ele>
        <time>2022-07-15T05:45:20.000Z</time>
      </trkpt>
      <trkpt lat="49.76744" lon="4.80462">
        <ele>281</ele>
        <time>2022-07-15T05:45:21.000Z</time>
      </trkpt>
      <trkpt lat="49.76749" lon="4.80461">
        <ele>281</ele>
        <time>2022-07-15T05:45:22.000Z</time>
      </trkpt>
      <trkpt lat="49.76754" lon="4.8046">
        <ele>281</ele>
        <time>2022-07-15T05:45:23.000Z</time>
      </trkpt>
      <trkpt lat="49.76759" lon="4.8046">
        <ele>281</ele>
        <time>2022-07-15T05:45:24.000Z</time>
      </trkpt>
      <trkpt lat="49.76763" lon="4.80459">
        <ele>280</ele>
        <time>2022-07-15T05:45:25.000Z</time>
      </trkpt>
      <trkpt lat="49.76768" lon="4.80457">
        <ele>280</ele>
        <time>2022-07-15T05:45:26.000Z</time>
      </trkpt>
      <trkpt lat="49.76773" lon="4.80456">
        <ele>280</ele>
        <time>2022-07-15T05:45:27.000Z</time>
      </trkpt>
      <trkpt lat="49.76778" lon="4.80455">
        <ele>280</ele>
        <time>2022-07-15T05:45:28.000Z</time>
      </trkpt>
      <trkpt lat="49.76782" lon="4.80453">
        <ele>280</ele>
        <time>2022-07-15T05:45:29.000Z</time>
      </trkpt>
      <trkpt lat="49.76787" lon="4.80452">
        <ele>280</ele>
        <time>2022-07-15T05:45:30.000Z</time>
      </trkpt>
      <trkpt lat="49.76792" lon="4.8045">
        <ele>280</ele>
        <time>2022-07-15T05:45:31.000Z</time>
      </trkpt>
      <trkpt lat="49.76797" lon="4.80448">
        <ele>281</ele>
        <time>2022-07-15T05:45:32.000Z</time>
      </trkpt>
      <trkpt lat="49.76801" lon="4.80446">
        <ele>281</ele>
        <time>2022-07-15T05:45:33.000Z</time>
      </trkpt>
      <trkpt lat="49.76805" lon="4.80444">
        <ele>281</ele>
        <time>2022-07-15T05:45:34.000Z</time>
      </trkpt>
      <trkpt lat="49.7681" lon="4.80441">
        <ele>281</ele>
        <time>2022-07-15T05:45:35.000Z</time>
      </trkpt>
      <trkpt lat="49.76814" lon="4.80439">
        <ele>281</ele>
        <time>2022-07-15T05:45:36.000Z</time>
      </trkpt>
      <trkpt lat="49.76818" lon="4.80435">
        <ele>281</ele>
        <time>2022-07-15T05:45:37.000Z</time>
      </trkpt>
      <trkpt lat="49.76822" lon="4.80432">
        <ele>281</ele>
        <time>2022-07-15T05:45:38.000Z</time>
      </trkpt>
      <trkpt lat="49.76827" lon="4.80429">
        <ele>281</ele>
        <time>2022-07-15T05:45:39.000Z</time>
      </trkpt>
      <trkpt lat="49.76831" lon="4.80426">
        <ele>282</ele>
        <time>2022-07-15T05:45:40.000Z</time>
      </trkpt>
      <trkpt lat="49.76835" lon="4.80423">
        <ele>282</ele>
        <time>2022-07-15T05:45:41.000Z</time>
      </trkpt>
      <trkpt lat="49.76839" lon="4.80419">
        <ele>282</ele>
        <time>2022-07-15T05:45:42.000Z</time>
      </trkpt>
      <trkpt lat="49.76843" lon="4.80416">
        <ele>281</ele>
        <time>2022-07-15T05:45:43.000Z</time>
      </trkpt>
      <trkpt lat="49.76848" lon="4.80413">
        <ele>281</ele>
        <time>2022-07-15T05:45:44.000Z</time>
      </trkpt>
      <trkpt lat="49.76852" lon="4.8041">
        <ele>281</ele>
        <time>2022-07-15T05:45:45.000Z</time>
      </trkpt>
      <trkpt lat="49.76856" lon="4.80408">
        <ele>281</ele>
        <time>2022-07-15T05:45:46.000Z</time>
      </trkpt>
      <trkpt lat="49.76861" lon="4.80405">
        <ele>281</ele>
        <time>2022-07-15T05:45:47.000Z</time>
      </trkpt>
      <trkpt lat="49.76865" lon="4.80403">
        <ele>281</ele>
        <time>2022-07-15T05:45:48.000Z</time>
      </trkpt>
      <trkpt lat="49.76869" lon="4.80401">
        <ele>282</ele>
        <time>2022-07-15T05:45:49.000Z</time>
      </trkpt>
      <trkpt lat="49.76873" lon="4.80399">
        <ele>282</ele>
        <time>2022-07-15T05:45:50.000Z</time>
      </trkpt>
      <trkpt lat="49.76878" lon="4.80397">
        <ele>282</ele>
        <time>2022-07-15T05:45:51.000Z</time>
      </trkpt>
      <trkpt lat="49.76882" lon="4.80394">
        <ele>282</ele>
        <time>2022-07-15T05:45:52.000Z</time>
      </trkpt>
      <trkpt lat="49.76886" lon="4.80392">
        <ele>282</ele>
        <time>2022-07-15T05:45:53.000Z</time>
      </trkpt>
      <trkpt lat="49.7689" lon="4.80389">
        <ele>282</ele>
        <time>2022-07-15T05:45:54.000Z</time>
      </trkpt>
      <trkpt lat="49.76894" lon="4.80385">
        <ele>282</ele>
        <time>2022-07-15T05:45:55.000Z</time>
      </trkpt>
      <trkpt lat="49.76897" lon="4.80381">
        <ele>283</ele>
        <time>2022-07-15T05:45:56.000Z</time>
      </trkpt>
      <trkpt lat="49.76901" lon="4.80376">
        <ele>283</ele>
        <time>2022-07-15T05:45:57.000Z</time>
      </trkpt>
      <trkpt lat="49.76905" lon="4.80371">
        <ele>283</ele>
        <time>2022-07-15T05:45:58.000Z</time>
      </trkpt>
      <trkpt lat="49.76909" lon="4.80367">
        <ele>283</ele>
        <time>2022-07-15T05:45:59.000Z</time>
      </trkpt>
      <trkpt lat="49.76913" lon="4.80361">
        <ele>283</ele>
        <time>2022-07-15T05:46:00.000Z</time>
      </trkpt>
      <trkpt lat="49.76916" lon="4.80356">
        <ele>283</ele>
        <time>2022-07-15T05:46:01.000Z</time>
      </trkpt>
      <trkpt lat="49.7692" lon="4.80351">
        <ele>283</ele>
        <time>2022-07-15T05:46:02.000Z</time>
      </trkpt>
      <trkpt lat="49.76924" lon="4.80346">
        <ele>283</ele>
        <time>2022-07-15T05:46:03.000Z</time>
      </trkpt>
      <trkpt lat="49.76928" lon="4.80342">
        <ele>283</ele>
        <time>2022-07-15T05:46:04.000Z</time>
      </trkpt>
      <trkpt lat="49.76932" lon="4.80338">
        <ele>283</ele>
        <time>2022-07-15T05:46:05.000Z</time>
      </trkpt>
      <trkpt lat="49.76936" lon="4.80334">
        <ele>283</ele>
        <time>2022-07-15T05:46:06.000Z</time>
      </trkpt>
      <trkpt lat="49.76939" lon="4.8033">
        <ele>283</ele>
        <time>2022-07-15T05:46:07.000Z</time>
      </trkpt>
      <trkpt lat="49.76942" lon="4.80327">
        <ele>283</ele>
        <time>2022-07-15T05:46:08.000Z</time>
      </trkpt>
      <trkpt lat="49.76945" lon="4.80323">
        <ele>284</ele>
        <time>2022-07-15T05:46:09.000Z</time>
      </trkpt>
      <trkpt lat="49.76948" lon="4.80321">
        <ele>284</ele>
        <time>2022-07-15T05:46:10.000Z</time>
      </trkpt>
      <trkpt lat="49.7695" lon="4.80318">
        <ele>284</ele>
        <time>2022-07-15T05:46:11.000Z</time>
      </trkpt>
      <trkpt lat="49.76952" lon="4.80316">
        <ele>284</ele>
        <time>2022-07-15T05:46:12.000Z</time>
      </trkpt>
      <trkpt lat="49.76954" lon="4.80313">
        <ele>284</ele>
        <time>2022-07-15T05:46:13.000Z</time>
      </trkpt>
      <trkpt lat="49.76957" lon="4.80311">
        <ele>284</ele>
        <time>2022-07-15T05:46:14.000Z</time>
      </trkpt>
      <trkpt lat="49.76959" lon="4.80309">
        <ele>284</ele>
        <time>2022-07-15T05:46:15.000Z</time>
      </trkpt>
      <trkpt lat="49.76961" lon="4.80306">
        <ele>284</ele>
        <time>2022-07-15T05:46:16.000Z</time>
      </trkpt>
      <trkpt lat="49.76963" lon="4.80303">
        <ele>285</ele>
        <time>2022-07-15T05:46:17.000Z</time>
      </trkpt>
      <trkpt lat="49.76964" lon="4.803">
        <ele>285</ele>
        <time>2022-07-15T05:46:18.000Z</time>
      </trkpt>
      <trkpt lat="49.76966" lon="4.80297">
        <ele>285</ele>
        <time>2022-07-15T05:46:19.000Z</time>
      </trkpt>
      <trkpt lat="49.76968" lon="4.80294">
        <ele>285</ele>
        <time>2022-07-15T05:46:20.000Z</time>
      </trkpt>
      <trkpt lat="49.7697" lon="4.80291">
        <ele>285</ele>
        <time>2022-07-15T05:46:21.000Z</time>
      </trkpt>
      <trkpt lat="49.76972" lon="4.80288">
        <ele>285</ele>
        <time>2022-07-15T05:46:22.000Z</time>
      </trkpt>
      <trkpt lat="49.76973" lon="4.80285">
        <ele>285</ele>
        <time>2022-07-15T05:46:23.000Z</time>
      </trkpt>
      <trkpt lat="49.76975" lon="4.80281">
        <ele>285</ele>
        <time>2022-07-15T05:46:24.000Z</time>
      </trkpt>
      <trkpt lat="49.76977" lon="4.80277">
        <ele>286</ele>
        <time>2022-07-15T05:46:25.000Z</time>
      </trkpt>
      <trkpt lat="49.76979" lon="4.80274">
        <ele>286</ele>
        <time>2022-07-15T05:46:26.000Z</time>
      </trkpt>
      <trkpt lat="49.7698" lon="4.80271">
        <ele>286</ele>
        <time>2022-07-15T05:46:27.000Z</time>
      </trkpt>
      <trkpt lat="49.76982" lon="4.80267">
        <ele>286</ele>
        <time>2022-07-15T05:46:28.000Z</time>
      </trkpt>
      <trkpt lat="49.76984" lon="4.80264">
        <ele>286</ele>
        <time>2022-07-15T05:46:29.000Z</time>
      </trkpt>
      <trkpt lat="49.76986" lon="4.80262">
        <ele>287</ele>
        <time>2022-07-15T05:46:30.000Z</time>
      </trkpt>
      <trkpt lat="49.76989" lon="4.80259">
        <ele>287</ele>
        <time>2022-07-15T05:46:31.000Z</time>
      </trkpt>
      <trkpt lat="49.76991" lon="4.80256">
        <ele>287</ele>
        <time>2022-07-15T05:46:32.000Z</time>
      </trkpt>
      <trkpt lat="49.76994" lon="4.80253">
        <ele>288</ele>
        <time>2022-07-15T05:46:33.000Z</time>
      </trkpt>
      <trkpt lat="49.76996" lon="4.8025">
        <ele>288</ele>
        <time>2022-07-15T05:46:34.000Z</time>
      </trkpt>
      <trkpt lat="49.76998" lon="4.80247">
        <ele>289</ele>
        <time>2022-07-15T05:46:35.000Z</time>
      </trkpt>
      <trkpt lat="49.77" lon="4.80244">
        <ele>289</ele>
        <time>2022-07-15T05:46:36.000Z</time>
      </trkpt>
      <trkpt lat="49.77003" lon="4.80241">
        <ele>289</ele>
        <time>2022-07-15T05:46:37.000Z</time>
      </trkpt>
      <trkpt lat="49.77005" lon="4.80238">
        <ele>290</ele>
        <time>2022-07-15T05:46:38.000Z</time>
      </trkpt>
      <trkpt lat="49.77007" lon="4.80236">
        <ele>290</ele>
        <time>2022-07-15T05:46:39.000Z</time>
      </trkpt>
      <trkpt lat="49.7701" lon="4.80233">
        <ele>290</ele>
        <time>2022-07-15T05:46:40.000Z</time>
      </trkpt>
      <trkpt lat="49.77012" lon="4.8023">
        <ele>290</ele>
        <time>2022-07-15T05:46:41.000Z</time>
      </trkpt>
      <trkpt lat="49.77014" lon="4.80227">
        <ele>291</ele>
        <time>2022-07-15T05:46:42.000Z</time>
      </trkpt>
      <trkpt lat="49.77016" lon="4.80223">
        <ele>291</ele>
        <time>2022-07-15T05:46:43.000Z</time>
      </trkpt>
      <trkpt lat="49.77019" lon="4.8022">
        <ele>291</ele>
        <time>2022-07-15T05:46:44.000Z</time>
      </trkpt>
      <trkpt lat="49.77021" lon="4.80217">
        <ele>291</ele>
        <time>2022-07-15T05:46:45.000Z</time>
      </trkpt>
      <trkpt lat="49.77024" lon="4.80214">
        <ele>291</ele>
        <time>2022-07-15T05:46:46.000Z</time>
      </trkpt>
      <trkpt lat="49.77026" lon="4.80212">
        <ele>291</ele>
        <time>2022-07-15T05:46:47.000Z</time>
      </trkpt>
      <trkpt lat="49.77029" lon="4.8021">
        <ele>291</ele>
        <time>2022-07-15T05:46:48.000Z</time>
      </trkpt>
      <trkpt lat="49.77032" lon="4.80208">
        <ele>292</ele>
        <time>2022-07-15T05:46:49.000Z</time>
      </trkpt>
      <trkpt lat="49.77034" lon="4.80206">
        <ele>292</ele>
        <time>2022-07-15T05:46:50.000Z</time>
      </trkpt>
      <trkpt lat="49.77037" lon="4.80203">
        <ele>293</ele>
        <time>2022-07-15T05:46:51.000Z</time>
      </trkpt>
      <trkpt lat="49.77039" lon="4.802">
        <ele>293</ele>
        <time>2022-07-15T05:46:52.000Z</time>
      </trkpt>
      <trkpt lat="49.77041" lon="4.80197">
        <ele>293</ele>
        <time>2022-07-15T05:46:53.000Z</time>
      </trkpt>
      <trkpt lat="49.77044" lon="4.80194">
        <ele>294</ele>
        <time>2022-07-15T05:46:54.000Z</time>
      </trkpt>
      <trkpt lat="49.77046" lon="4.80192">
        <ele>294</ele>
        <time>2022-07-15T05:46:55.000Z</time>
      </trkpt>
      <trkpt lat="49.77048" lon="4.80188">
        <ele>295</ele>
        <time>2022-07-15T05:46:56.000Z</time>
      </trkpt>
      <trkpt lat="49.7705" lon="4.80184">
        <ele>295</ele>
        <time>2022-07-15T05:46:57.000Z</time>
      </trkpt>
      <trkpt lat="49.77052" lon="4.8018">
        <ele>295</ele>
        <time>2022-07-15T05:46:58.000Z</time>
      </trkpt>
      <trkpt lat="49.77054" lon="4.80176">
        <ele>295</ele>
        <time>2022-07-15T05:46:59.000Z</time>
      </trkpt>
      <trkpt lat="49.77056" lon="4.80172">
        <ele>296</ele>
        <time>2022-07-15T05:47:00.000Z</time>
      </trkpt>
      <trkpt lat="49.77058" lon="4.80168">
        <ele>296</ele>
        <time>2022-07-15T05:47:01.000Z</time>
      </trkpt>
      <trkpt lat="49.77061" lon="4.80164">
        <ele>296</ele>
        <time>2022-07-15T05:47:02.000Z</time>
      </trkpt>
      <trkpt lat="49.77064" lon="4.80161">
        <ele>297</ele>
        <time>2022-07-15T05:47:03.000Z</time>
      </trkpt>
      <trkpt lat="49.77067" lon="4.80157">
        <ele>297</ele>
        <time>2022-07-15T05:47:04.000Z</time>
      </trkpt>
      <trkpt lat="49.77071" lon="4.80155">
        <ele>297</ele>
        <time>2022-07-15T05:47:05.000Z</time>
      </trkpt>
      <trkpt lat="49.77075" lon="4.80154">
        <ele>297</ele>
        <time>2022-07-15T05:47:06.000Z</time>
      </trkpt>
      <trkpt lat="49.77079" lon="4.80155">
        <ele>297</ele>
        <time>2022-07-15T05:47:07.000Z</time>
      </trkpt>
      <trkpt lat="49.77083" lon="4.80157">
        <ele>298</ele>
        <time>2022-07-15T05:47:08.000Z</time>
      </trkpt>
      <trkpt lat="49.77086" lon="4.8016">
        <ele>298</ele>
        <time>2022-07-15T05:47:09.000Z</time>
      </trkpt>
      <trkpt lat="49.77089" lon="4.80163">
        <ele>298</ele>
        <time>2022-07-15T05:47:10.000Z</time>
      </trkpt>
      <trkpt lat="49.77092" lon="4.80166">
        <ele>298</ele>
        <time>2022-07-15T05:47:11.000Z</time>
      </trkpt>
      <trkpt lat="49.77096" lon="4.80169">
        <ele>298</ele>
        <time>2022-07-15T05:47:12.000Z</time>
      </trkpt>
      <trkpt lat="49.77099" lon="4.80172">
        <ele>298</ele>
        <time>2022-07-15T05:47:13.000Z</time>
      </trkpt>
      <trkpt lat="49.77102" lon="4.80174">
        <ele>298</ele>
        <time>2022-07-15T05:47:14.000Z</time>
      </trkpt>
      <trkpt lat="49.77105" lon="4.80175">
        <ele>299</ele>
        <time>2022-07-15T05:47:15.000Z</time>
      </trkpt>
      <trkpt lat="49.77107" lon="4.80176">
        <ele>299</ele>
        <time>2022-07-15T05:47:16.000Z</time>
      </trkpt>
      <trkpt lat="49.77111" lon="4.80176">
        <ele>299</ele>
        <time>2022-07-15T05:47:17.000Z</time>
      </trkpt>
      <trkpt lat="49.77115" lon="4.80176">
        <ele>299</ele>
        <time>2022-07-15T05:47:18.000Z</time>
      </trkpt>
      <trkpt lat="49.77119" lon="4.80176">
        <ele>299</ele>
        <time>2022-07-15T05:47:19.000Z</time>
      </trkpt>
      <trkpt lat="49.77123" lon="4.80174">
        <ele>299</ele>
        <time>2022-07-15T05:47:20.000Z</time>
      </trkpt>
      <trkpt lat="49.77127" lon="4.80173">
        <ele>299</ele>
        <time>2022-07-15T05:47:21.000Z</time>
      </trkpt>
      <trkpt lat="49.77131" lon="4.80172">
        <ele>299</ele>
        <time>2022-07-15T05:47:22.000Z</time>
      </trkpt>
      <trkpt lat="49.77135" lon="4.80172">
        <ele>299</ele>
        <time>2022-07-15T05:47:23.000Z</time>
      </trkpt>
      <trkpt lat="49.77139" lon="4.80171">
        <ele>299</ele>
        <time>2022-07-15T05:47:24.000Z</time>
      </trkpt>
      <trkpt lat="49.77143" lon="4.8017">
        <ele>299</ele>
        <time>2022-07-15T05:47:25.000Z</time>
      </trkpt>
      <trkpt lat="49.77147" lon="4.80169">
        <ele>299</ele>
        <time>2022-07-15T05:47:26.000Z</time>
      </trkpt>
      <trkpt lat="49.77151" lon="4.80169">
        <ele>299</ele>
        <time>2022-07-15T05:47:27.000Z</time>
      </trkpt>
      <trkpt lat="49.77156" lon="4.8017">
        <ele>299</ele>
        <time>2022-07-15T05:47:28.000Z</time>
      </trkpt>
      <trkpt lat="49.7716" lon="4.80171">
        <ele>299</ele>
        <time>2022-07-15T05:47:29.000Z</time>
      </trkpt>
      <trkpt lat="49.77165" lon="4.80171">
        <ele>299</ele>
        <time>2022-07-15T05:47:30.000Z</time>
      </trkpt>
      <trkpt lat="49.7717" lon="4.80171">
        <ele>299</ele>
        <time>2022-07-15T05:47:31.000Z</time>
      </trkpt>
      <trkpt lat="49.77175" lon="4.80171">
        <ele>299</ele>
        <time>2022-07-15T05:47:32.000Z</time>
      </trkpt>
      <trkpt lat="49.7718" lon="4.80171">
        <ele>299</ele>
        <time>2022-07-15T05:47:33.000Z</time>
      </trkpt>
      <trkpt lat="49.77186" lon="4.8017">
        <ele>299</ele>
        <time>2022-07-15T05:47:34.000Z</time>
      </trkpt>
      <trkpt lat="49.77191" lon="4.8017">
        <ele>299</ele>
        <time>2022-07-15T05:47:35.000Z</time>
      </trkpt>
      <trkpt lat="49.77196" lon="4.80169">
        <ele>298</ele>
        <time>2022-07-15T05:47:36.000Z</time>
      </trkpt>
      <trkpt lat="49.77201" lon="4.80168">
        <ele>298</ele>
        <time>2022-07-15T05:47:37.000Z</time>
      </trkpt>
      <trkpt lat="49.77206" lon="4.80168">
        <ele>298</ele>
        <time>2022-07-15T05:47:38.000Z</time>
      </trkpt>
      <trkpt lat="49.77211" lon="4.80167">
        <ele>298</ele>
        <time>2022-07-15T05:47:39.000Z</time>
      </trkpt>
      <trkpt lat="49.77217" lon="4.80167">
        <ele>298</ele>
        <time>2022-07-15T05:47:40.000Z</time>
      </trkpt>
      <trkpt lat="49.77222" lon="4.80166">
        <ele>298</ele>
        <time>2022-07-15T05:47:41.000Z</time>
      </trkpt>
      <trkpt lat="49.77227" lon="4.80165">
        <ele>297</ele>
        <time>2022-07-15T05:47:42.000Z</time>
      </trkpt>
      <trkpt lat="49.77233" lon="4.80164">
        <ele>297</ele>
        <time>2022-07-15T05:47:43.000Z</time>
      </trkpt>
      <trkpt lat="49.77239" lon="4.80163">
        <ele>297</ele>
        <time>2022-07-15T05:47:44.000Z</time>
      </trkpt>
      <trkpt lat="49.77245" lon="4.80163">
        <ele>297</ele>
        <time>2022-07-15T05:47:45.000Z</time>
      </trkpt>
      <trkpt lat="49.77251" lon="4.80162">
        <ele>297</ele>
        <time>2022-07-15T05:47:46.000Z</time>
      </trkpt>
      <trkpt lat="49.77256" lon="4.80161">
        <ele>296</ele>
        <time>2022-07-15T05:47:47.000Z</time>
      </trkpt>
      <trkpt lat="49.77263" lon="4.8016">
        <ele>296</ele>
        <time>2022-07-15T05:47:48.000Z</time>
      </trkpt>
      <trkpt lat="49.77269" lon="4.80159">
        <ele>296</ele>
        <time>2022-07-15T05:47:49.000Z</time>
      </trkpt>
      <trkpt lat="49.77275" lon="4.80158">
        <ele>295</ele>
        <time>2022-07-15T05:47:50.000Z</time>
      </trkpt>
      <trkpt lat="49.77281" lon="4.80157">
        <ele>295</ele>
        <time>2022-07-15T05:47:51.000Z</time>
      </trkpt>
      <trkpt lat="49.77287" lon="4.80156">
        <ele>295</ele>
        <time>2022-07-15T05:47:52.000Z</time>
      </trkpt>
      <trkpt lat="49.77293" lon="4.80155">
        <ele>294</ele>
        <time>2022-07-15T05:47:53.000Z</time>
      </trkpt>
      <trkpt lat="49.773" lon="4.80154">
        <ele>294</ele>
        <time>2022-07-15T05:47:54.000Z</time>
      </trkpt>
      <trkpt lat="49.77306" lon="4.80152">
        <ele>294</ele>
        <time>2022-07-15T05:47:55.000Z</time>
      </trkpt>
      <trkpt lat="49.77312" lon="4.80151">
        <ele>293</ele>
        <time>2022-07-15T05:47:56.000Z</time>
      </trkpt>
      <trkpt lat="49.77319" lon="4.80149">
        <ele>293</ele>
        <time>2022-07-15T05:47:57.000Z</time>
      </trkpt>
      <trkpt lat="49.77325" lon="4.80147">
        <ele>293</ele>
        <time>2022-07-15T05:47:58.000Z</time>
      </trkpt>
      <trkpt lat="49.77331" lon="4.80144">
        <ele>292</ele>
        <time>2022-07-15T05:47:59.000Z</time>
      </trkpt>
      <trkpt lat="49.77337" lon="4.8014">
        <ele>292</ele>
        <time>2022-07-15T05:48:00.000Z</time>
      </trkpt>
      <trkpt lat="49.77343" lon="4.80136">
        <ele>292</ele>
        <time>2022-07-15T05:48:01.000Z</time>
      </trkpt>
      <trkpt lat="49.77349" lon="4.80132">
        <ele>292</ele>
        <time>2022-07-15T05:48:02.000Z</time>
      </trkpt>
      <trkpt lat="49.77354" lon="4.80127">
        <ele>291</ele>
        <time>2022-07-15T05:48:03.000Z</time>
      </trkpt>
      <trkpt lat="49.77359" lon="4.80121">
        <ele>291</ele>
        <time>2022-07-15T05:48:04.000Z</time>
      </trkpt>
      <trkpt lat="49.77364" lon="4.80115">
        <ele>291</ele>
        <time>2022-07-15T05:48:05.000Z</time>
      </trkpt>
      <trkpt lat="49.77369" lon="4.80109">
        <ele>291</ele>
        <time>2022-07-15T05:48:06.000Z</time>
      </trkpt>
      <trkpt lat="49.77373" lon="4.80102">
        <ele>290</ele>
        <time>2022-07-15T05:48:07.000Z</time>
      </trkpt>
      <trkpt lat="49.77378" lon="4.80096">
        <ele>290</ele>
        <time>2022-07-15T05:48:08.000Z</time>
      </trkpt>
      <trkpt lat="49.77382" lon="4.80088">
        <ele>289</ele>
        <time>2022-07-15T05:48:09.000Z</time>
      </trkpt>
      <trkpt lat="49.77386" lon="4.80081">
        <ele>289</ele>
        <time>2022-07-15T05:48:10.000Z</time>
      </trkpt>
      <trkpt lat="49.7739" lon="4.80072">
        <ele>289</ele>
        <time>2022-07-15T05:48:11.000Z</time>
      </trkpt>
      <trkpt lat="49.77394" lon="4.80065">
        <ele>288</ele>
        <time>2022-07-15T05:48:12.000Z</time>
      </trkpt>
      <trkpt lat="49.77398" lon="4.80056">
        <ele>288</ele>
        <time>2022-07-15T05:48:13.000Z</time>
      </trkpt>
      <trkpt lat="49.77402" lon="4.80048">
        <ele>288</ele>
        <time>2022-07-15T05:48:14.000Z</time>
      </trkpt>
      <trkpt lat="49.77407" lon="4.80043">
        <ele>287</ele>
        <time>2022-07-15T05:48:15.000Z</time>
      </trkpt>
      <trkpt lat="49.77414" lon="4.80039">
        <ele>286</ele>
        <time>2022-07-15T05:48:16.000Z</time>
      </trkpt>
      <trkpt lat="49.7742" lon="4.80038">
        <ele>286</ele>
        <time>2022-07-15T05:48:17.000Z</time>
      </trkpt>
      <trkpt lat="49.77427" lon="4.80039">
        <ele>285</ele>
        <time>2022-07-15T05:48:18.000Z</time>
      </trkpt>
      <trkpt lat="49.77433" lon="4.80039">
        <ele>285</ele>
        <time>2022-07-15T05:48:19.000Z</time>
      </trkpt>
      <trkpt lat="49.77439" lon="4.80039">
        <ele>284</ele>
        <time>2022-07-15T05:48:20.000Z</time>
      </trkpt>
      <trkpt lat="49.77444" lon="4.80039">
        <ele>284</ele>
        <time>2022-07-15T05:48:21.000Z</time>
      </trkpt>
      <trkpt lat="49.7745" lon="4.80038">
        <ele>283</ele>
        <time>2022-07-15T05:48:22.000Z</time>
      </trkpt>
      <trkpt lat="49.77457" lon="4.80036">
        <ele>283</ele>
        <time>2022-07-15T05:48:23.000Z</time>
      </trkpt>
      <trkpt lat="49.77463" lon="4.80033">
        <ele>282</ele>
        <time>2022-07-15T05:48:24.000Z</time>
      </trkpt>
      <trkpt lat="49.77468" lon="4.80029">
        <ele>281</ele>
        <time>2022-07-15T05:48:25.000Z</time>
      </trkpt>
      <trkpt lat="49.77474" lon="4.80024">
        <ele>281</ele>
        <time>2022-07-15T05:48:26.000Z</time>
      </trkpt>
      <trkpt lat="49.7748" lon="4.80019">
        <ele>280</ele>
        <time>2022-07-15T05:48:27.000Z</time>
      </trkpt>
      <trkpt lat="49.77485" lon="4.80014">
        <ele>279</ele>
        <time>2022-07-15T05:48:28.000Z</time>
      </trkpt>
      <trkpt lat="49.77491" lon="4.8001">
        <ele>278</ele>
        <time>2022-07-15T05:48:29.000Z</time>
      </trkpt>
      <trkpt lat="49.77496" lon="4.80006">
        <ele>277</ele>
        <time>2022-07-15T05:48:30.000Z</time>
      </trkpt>
      <trkpt lat="49.77502" lon="4.80002">
        <ele>276</ele>
        <time>2022-07-15T05:48:31.000Z</time>
      </trkpt>
      <trkpt lat="49.77508" lon="4.79999">
        <ele>275</ele>
        <time>2022-07-15T05:48:32.000Z</time>
      </trkpt>
      <trkpt lat="49.77515" lon="4.79996">
        <ele>274</ele>
        <time>2022-07-15T05:48:33.000Z</time>
      </trkpt>
      <trkpt lat="49.77522" lon="4.79993">
        <ele>273</ele>
        <time>2022-07-15T05:48:34.000Z</time>
      </trkpt>
      <trkpt lat="49.7753" lon="4.79992">
        <ele>272</ele>
        <time>2022-07-15T05:48:35.000Z</time>
      </trkpt>
      <trkpt lat="49.77538" lon="4.7999">
        <ele>271</ele>
        <time>2022-07-15T05:48:36.000Z</time>
      </trkpt>
      <trkpt lat="49.77546" lon="4.79989">
        <ele>270</ele>
        <time>2022-07-15T05:48:37.000Z</time>
      </trkpt>
      <trkpt lat="49.77554" lon="4.79988">
        <ele>269</ele>
        <time>2022-07-15T05:48:38.000Z</time>
      </trkpt>
      <trkpt lat="49.77563" lon="4.79986">
        <ele>268</ele>
        <time>2022-07-15T05:48:39.000Z</time>
      </trkpt>
      <trkpt lat="49.77571" lon="4.79985">
        <ele>267</ele>
        <time>2022-07-15T05:48:40.000Z</time>
      </trkpt>
      <trkpt lat="49.77579" lon="4.79984">
        <ele>266</ele>
        <time>2022-07-15T05:48:41.000Z</time>
      </trkpt>
      <trkpt lat="49.77587" lon="4.79983">
        <ele>265</ele>
        <time>2022-07-15T05:48:42.000Z</time>
      </trkpt>
      <trkpt lat="49.77594" lon="4.79982">
        <ele>265</ele>
        <time>2022-07-15T05:48:43.000Z</time>
      </trkpt>
      <trkpt lat="49.77601" lon="4.79981">
        <ele>264</ele>
        <time>2022-07-15T05:48:44.000Z</time>
      </trkpt>
      <trkpt lat="49.77608" lon="4.7998">
        <ele>264</ele>
        <time>2022-07-15T05:48:45.000Z</time>
      </trkpt>
      <trkpt lat="49.77615" lon="4.79979">
        <ele>264</ele>
        <time>2022-07-15T05:48:46.000Z</time>
      </trkpt>
      <trkpt lat="49.77622" lon="4.79978">
        <ele>263</ele>
        <time>2022-07-15T05:48:47.000Z</time>
      </trkpt>
      <trkpt lat="49.77628" lon="4.79976">
        <ele>263</ele>
        <time>2022-07-15T05:48:48.000Z</time>
      </trkpt>
      <trkpt lat="49.77634" lon="4.79974">
        <ele>263</ele>
        <time>2022-07-15T05:48:49.000Z</time>
      </trkpt>
      <trkpt lat="49.77639" lon="4.79971">
        <ele>263</ele>
        <time>2022-07-15T05:48:50.000Z</time>
      </trkpt>
      <trkpt lat="49.77644" lon="4.79968">
        <ele>262</ele>
        <time>2022-07-15T05:48:51.000Z</time>
      </trkpt>
      <trkpt lat="49.77649" lon="4.79965">
        <ele>262</ele>
        <time>2022-07-15T05:48:52.000Z</time>
      </trkpt>
      <trkpt lat="49.77654" lon="4.79961">
        <ele>262</ele>
        <time>2022-07-15T05:48:53.000Z</time>
      </trkpt>
      <trkpt lat="49.77659" lon="4.79957">
        <ele>262</ele>
        <time>2022-07-15T05:48:54.000Z</time>
      </trkpt>
      <trkpt lat="49.77663" lon="4.79953">
        <ele>262</ele>
        <time>2022-07-15T05:48:55.000Z</time>
      </trkpt>
      <trkpt lat="49.77668" lon="4.79949">
        <ele>261</ele>
        <time>2022-07-15T05:48:56.000Z</time>
      </trkpt>
      <trkpt lat="49.77672" lon="4.79944">
        <ele>261</ele>
        <time>2022-07-15T05:48:57.000Z</time>
      </trkpt>
      <trkpt lat="49.77677" lon="4.79939">
        <ele>261</ele>
        <time>2022-07-15T05:48:58.000Z</time>
      </trkpt>
      <trkpt lat="49.77681" lon="4.79934">
        <ele>261</ele>
        <time>2022-07-15T05:48:59.000Z</time>
      </trkpt>
      <trkpt lat="49.77686" lon="4.79928">
        <ele>260</ele>
        <time>2022-07-15T05:49:00.000Z</time>
      </trkpt>
      <trkpt lat="49.77691" lon="4.79922">
        <ele>260</ele>
        <time>2022-07-15T05:49:01.000Z</time>
      </trkpt>
      <trkpt lat="49.77696" lon="4.79916">
        <ele>260</ele>
        <time>2022-07-15T05:49:02.000Z</time>
      </trkpt>
      <trkpt lat="49.77701" lon="4.7991">
        <ele>260</ele>
        <time>2022-07-15T05:49:03.000Z</time>
      </trkpt>
      <trkpt lat="49.77707" lon="4.79904">
        <ele>259</ele>
        <time>2022-07-15T05:49:04.000Z</time>
      </trkpt>
      <trkpt lat="49.77712" lon="4.79899">
        <ele>259</ele>
        <time>2022-07-15T05:49:05.000Z</time>
      </trkpt>
      <trkpt lat="49.77717" lon="4.79894">
        <ele>259</ele>
        <time>2022-07-15T05:49:06.000Z</time>
      </trkpt>
      <trkpt lat="49.77722" lon="4.79889">
        <ele>259</ele>
        <time>2022-07-15T05:49:07.000Z</time>
      </trkpt>
      <trkpt lat="49.77728" lon="4.79885">
        <ele>259</ele>
        <time>2022-07-15T05:49:08.000Z</time>
      </trkpt>
      <trkpt lat="49.77733" lon="4.79881">
        <ele>259</ele>
        <time>2022-07-15T05:49:09.000Z</time>
      </trkpt>
      <trkpt lat="49.77738" lon="4.79878">
        <ele>258</ele>
        <time>2022-07-15T05:49:10.000Z</time>
      </trkpt>
      <trkpt lat="49.77743" lon="4.79874">
        <ele>258</ele>
        <time>2022-07-15T05:49:11.000Z</time>
      </trkpt>
      <trkpt lat="49.77748" lon="4.7987">
        <ele>258</ele>
        <time>2022-07-15T05:49:12.000Z</time>
      </trkpt>
      <trkpt lat="49.77753" lon="4.79865">
        <ele>258</ele>
        <time>2022-07-15T05:49:13.000Z</time>
      </trkpt>
      <trkpt lat="49.77758" lon="4.79861">
        <ele>258</ele>
        <time>2022-07-15T05:49:14.000Z</time>
      </trkpt>
      <trkpt lat="49.77763" lon="4.79856">
        <ele>258</ele>
        <time>2022-07-15T05:49:15.000Z</time>
      </trkpt>
      <trkpt lat="49.77768" lon="4.79852">
        <ele>258</ele>
        <time>2022-07-15T05:49:16.000Z</time>
      </trkpt>
      <trkpt lat="49.77774" lon="4.79847">
        <ele>258</ele>
        <time>2022-07-15T05:49:17.000Z</time>
      </trkpt>
      <trkpt lat="49.77778" lon="4.79841">
        <ele>257</ele>
        <time>2022-07-15T05:49:18.000Z</time>
      </trkpt>
      <trkpt lat="49.77783" lon="4.79836">
        <ele>257</ele>
        <time>2022-07-15T05:49:19.000Z</time>
      </trkpt>
      <trkpt lat="49.77787" lon="4.79831">
        <ele>257</ele>
        <time>2022-07-15T05:49:20.000Z</time>
      </trkpt>
      <trkpt lat="49.77791" lon="4.79826">
        <ele>257</ele>
        <time>2022-07-15T05:49:21.000Z</time>
      </trkpt>
      <trkpt lat="49.77795" lon="4.79821">
        <ele>257</ele>
        <time>2022-07-15T05:49:22.000Z</time>
      </trkpt>
      <trkpt lat="49.77799" lon="4.79817">
        <ele>257</ele>
        <time>2022-07-15T05:49:23.000Z</time>
      </trkpt>
      <trkpt lat="49.77804" lon="4.79813">
        <ele>257</ele>
        <time>2022-07-15T05:49:24.000Z</time>
      </trkpt>
      <trkpt lat="49.77808" lon="4.7981">
        <ele>257</ele>
        <time>2022-07-15T05:49:25.000Z</time>
      </trkpt>
      <trkpt lat="49.77813" lon="4.79806">
        <ele>257</ele>
        <time>2022-07-15T05:49:26.000Z</time>
      </trkpt>
      <trkpt lat="49.77818" lon="4.79803">
        <ele>257</ele>
        <time>2022-07-15T05:49:27.000Z</time>
      </trkpt>
      <trkpt lat="49.77823" lon="4.79801">
        <ele>257</ele>
        <time>2022-07-15T05:49:28.000Z</time>
      </trkpt>
      <trkpt lat="49.77829" lon="4.79798">
        <ele>257</ele>
        <time>2022-07-15T05:49:29.000Z</time>
      </trkpt>
      <trkpt lat="49.77833" lon="4.79796">
        <ele>257</ele>
        <time>2022-07-15T05:49:30.000Z</time>
      </trkpt>
      <trkpt lat="49.77836" lon="4.79795">
        <ele>257</ele>
        <time>2022-07-15T05:49:31.000Z</time>
      </trkpt>
      <trkpt lat="49.77839" lon="4.79795">
        <ele>257</ele>
        <time>2022-07-15T05:49:32.000Z</time>
      </trkpt>
      <trkpt lat="49.77841" lon="4.79794">
        <ele>257</ele>
        <time>2022-07-15T05:49:33.000Z</time>
      </trkpt>
      <trkpt lat="49.77844" lon="4.79792">
        <ele>257</ele>
        <time>2022-07-15T05:49:34.000Z</time>
      </trkpt>
      <trkpt lat="49.77847" lon="4.79791">
        <ele>257</ele>
        <time>2022-07-15T05:49:35.000Z</time>
      </trkpt>
      <trkpt lat="49.7785" lon="4.79789">
        <ele>257</ele>
        <time>2022-07-15T05:49:36.000Z</time>
      </trkpt>
      <trkpt lat="49.77854" lon="4.79787">
        <ele>257</ele>
        <time>2022-07-15T05:49:37.000Z</time>
      </trkpt>
      <trkpt lat="49.77859" lon="4.79783">
        <ele>257</ele>
        <time>2022-07-15T05:49:38.000Z</time>
      </trkpt>
      <trkpt lat="49.77863" lon="4.79778">
        <ele>257</ele>
        <time>2022-07-15T05:49:39.000Z</time>
      </trkpt>
      <trkpt lat="49.77868" lon="4.79774">
        <ele>257</ele>
        <time>2022-07-15T05:49:40.000Z</time>
      </trkpt>
      <trkpt lat="49.77873" lon="4.79769">
        <ele>257</ele>
        <time>2022-07-15T05:49:41.000Z</time>
      </trkpt>
      <trkpt lat="49.77878" lon="4.79765">
        <ele>257</ele>
        <time>2022-07-15T05:49:42.000Z</time>
      </trkpt>
      <trkpt lat="49.77883" lon="4.7976">
        <ele>256</ele>
        <time>2022-07-15T05:49:43.000Z</time>
      </trkpt>
      <trkpt lat="49.77889" lon="4.79756">
        <ele>256</ele>
        <time>2022-07-15T05:49:44.000Z</time>
      </trkpt>
      <trkpt lat="49.77895" lon="4.79751">
        <ele>256</ele>
        <time>2022-07-15T05:49:45.000Z</time>
      </trkpt>
      <trkpt lat="49.779" lon="4.79746">
        <ele>256</ele>
        <time>2022-07-15T05:49:46.000Z</time>
      </trkpt>
      <trkpt lat="49.77907" lon="4.79742">
        <ele>255</ele>
        <time>2022-07-15T05:49:47.000Z</time>
      </trkpt>
      <trkpt lat="49.77913" lon="4.79738">
        <ele>255</ele>
        <time>2022-07-15T05:49:48.000Z</time>
      </trkpt>
      <trkpt lat="49.7792" lon="4.79734">
        <ele>255</ele>
        <time>2022-07-15T05:49:49.000Z</time>
      </trkpt>
      <trkpt lat="49.77927" lon="4.79731">
        <ele>254</ele>
        <time>2022-07-15T05:49:50.000Z</time>
      </trkpt>
      <trkpt lat="49.77934" lon="4.79729">
        <ele>254</ele>
        <time>2022-07-15T05:49:51.000Z</time>
      </trkpt>
      <trkpt lat="49.77942" lon="4.79727">
        <ele>254</ele>
        <time>2022-07-15T05:49:52.000Z</time>
      </trkpt>
      <trkpt lat="49.77949" lon="4.79725">
        <ele>253</ele>
        <time>2022-07-15T05:49:53.000Z</time>
      </trkpt>
      <trkpt lat="49.77956" lon="4.79724">
        <ele>253</ele>
        <time>2022-07-15T05:49:54.000Z</time>
      </trkpt>
      <trkpt lat="49.77963" lon="4.79724">
        <ele>253</ele>
        <time>2022-07-15T05:49:55.000Z</time>
      </trkpt>
      <trkpt lat="49.77969" lon="4.79728">
        <ele>252</ele>
        <time>2022-07-15T05:49:56.000Z</time>
      </trkpt>
      <trkpt lat="49.77974" lon="4.79734">
        <ele>252</ele>
        <time>2022-07-15T05:49:57.000Z</time>
      </trkpt>
      <trkpt lat="49.77976" lon="4.79742">
        <ele>252</ele>
        <time>2022-07-15T05:49:58.000Z</time>
      </trkpt>
      <trkpt lat="49.77979" lon="4.7975">
        <ele>252</ele>
        <time>2022-07-15T05:49:59.000Z</time>
      </trkpt>
      <trkpt lat="49.77983" lon="4.79756">
        <ele>252</ele>
        <time>2022-07-15T05:50:00.000Z</time>
      </trkpt>
      <trkpt lat="49.77986" lon="4.79763">
        <ele>252</ele>
        <time>2022-07-15T05:50:01.000Z</time>
      </trkpt>
      <trkpt lat="49.77991" lon="4.79768">
        <ele>252</ele>
        <time>2022-07-15T05:50:02.000Z</time>
      </trkpt>
      <trkpt lat="49.77996" lon="4.79772">
        <ele>252</ele>
        <time>2022-07-15T05:50:03.000Z</time>
      </trkpt>
      <trkpt lat="49.78" lon="4.79775">
        <ele>252</ele>
        <time>2022-07-15T05:50:04.000Z</time>
      </trkpt>
      <trkpt lat="49.78005" lon="4.79776">
        <ele>253</ele>
        <time>2022-07-15T05:50:05.000Z</time>
      </trkpt>
      <trkpt lat="49.7801" lon="4.79778">
        <ele>253</ele>
        <time>2022-07-15T05:50:06.000Z</time>
      </trkpt>
      <trkpt lat="49.78015" lon="4.79779">
        <ele>253</ele>
        <time>2022-07-15T05:50:07.000Z</time>
      </trkpt>
      <trkpt lat="49.7802" lon="4.7978">
        <ele>253</ele>
        <time>2022-07-15T05:50:08.000Z</time>
      </trkpt>
      <trkpt lat="49.78025" lon="4.7978">
        <ele>253</ele>
        <time>2022-07-15T05:50:09.000Z</time>
      </trkpt>
      <trkpt lat="49.7803" lon="4.7978">
        <ele>253</ele>
        <time>2022-07-15T05:50:10.000Z</time>
      </trkpt>
      <trkpt lat="49.78034" lon="4.7978">
        <ele>253</ele>
        <time>2022-07-15T05:50:11.000Z</time>
      </trkpt>
      <trkpt lat="49.78039" lon="4.79781">
        <ele>253</ele>
        <time>2022-07-15T05:50:12.000Z</time>
      </trkpt>
      <trkpt lat="49.78044" lon="4.79781">
        <ele>254</ele>
        <time>2022-07-15T05:50:13.000Z</time>
      </trkpt>
      <trkpt lat="49.78049" lon="4.7978">
        <ele>254</ele>
        <time>2022-07-15T05:50:14.000Z</time>
      </trkpt>
      <trkpt lat="49.78053" lon="4.79779">
        <ele>254</ele>
        <time>2022-07-15T05:50:15.000Z</time>
      </trkpt>
      <trkpt lat="49.78058" lon="4.79778">
        <ele>254</ele>
        <time>2022-07-15T05:50:16.000Z</time>
      </trkpt>
      <trkpt lat="49.78063" lon="4.79777">
        <ele>254</ele>
        <time>2022-07-15T05:50:17.000Z</time>
      </trkpt>
      <trkpt lat="49.78068" lon="4.79775">
        <ele>254</ele>
        <time>2022-07-15T05:50:18.000Z</time>
      </trkpt>
      <trkpt lat="49.78072" lon="4.79772">
        <ele>253</ele>
        <time>2022-07-15T05:50:19.000Z</time>
      </trkpt>
      <trkpt lat="49.78077" lon="4.79768">
        <ele>253</ele>
        <time>2022-07-15T05:50:20.000Z</time>
      </trkpt>
      <trkpt lat="49.78082" lon="4.79763">
        <ele>253</ele>
        <time>2022-07-15T05:50:21.000Z</time>
      </trkpt>
      <trkpt lat="49.78085" lon="4.79758">
        <ele>253</ele>
        <time>2022-07-15T05:50:22.000Z</time>
      </trkpt>
      <trkpt lat="49.78089" lon="4.79751">
        <ele>252</ele>
        <time>2022-07-15T05:50:23.000Z</time>
      </trkpt>
      <trkpt lat="49.78093" lon="4.79744">
        <ele>252</ele>
        <time>2022-07-15T05:50:24.000Z</time>
      </trkpt>
      <trkpt lat="49.78097" lon="4.79737">
        <ele>252</ele>
        <time>2022-07-15T05:50:25.000Z</time>
      </trkpt>
      <trkpt lat="49.78101" lon="4.79731">
        <ele>252</ele>
        <time>2022-07-15T05:50:26.000Z</time>
      </trkpt>
      <trkpt lat="49.78105" lon="4.79725">
        <ele>253</ele>
        <time>2022-07-15T05:50:27.000Z</time>
      </trkpt>
      <trkpt lat="49.78108" lon="4.79718">
        <ele>253</ele>
        <time>2022-07-15T05:50:28.000Z</time>
      </trkpt>
      <trkpt lat="49.78111" lon="4.79712">
        <ele>253</ele>
        <time>2022-07-15T05:50:29.000Z</time>
      </trkpt>
      <trkpt lat="49.78114" lon="4.79706">
        <ele>254</ele>
        <time>2022-07-15T05:50:30.000Z</time>
      </trkpt>
      <trkpt lat="49.78118" lon="4.79701">
        <ele>254</ele>
        <time>2022-07-15T05:50:31.000Z</time>
      </trkpt>
      <trkpt lat="49.78123" lon="4.79698">
        <ele>254</ele>
        <time>2022-07-15T05:50:32.000Z</time>
      </trkpt>
      <trkpt lat="49.78127" lon="4.79696">
        <ele>255</ele>
        <time>2022-07-15T05:50:33.000Z</time>
      </trkpt>
      <trkpt lat="49.78132" lon="4.79693">
        <ele>255</ele>
        <time>2022-07-15T05:50:34.000Z</time>
      </trkpt>
      <trkpt lat="49.78136" lon="4.79691">
        <ele>255</ele>
        <time>2022-07-15T05:50:35.000Z</time>
      </trkpt>
      <trkpt lat="49.7814" lon="4.79688">
        <ele>255</ele>
        <time>2022-07-15T05:50:36.000Z</time>
      </trkpt>
      <trkpt lat="49.78144" lon="4.79685">
        <ele>255</ele>
        <time>2022-07-15T05:50:37.000Z</time>
      </trkpt>
      <trkpt lat="49.78149" lon="4.79682">
        <ele>255</ele>
        <time>2022-07-15T05:50:38.000Z</time>
      </trkpt>
      <trkpt lat="49.78153" lon="4.79679">
        <ele>255</ele>
        <time>2022-07-15T05:50:39.000Z</time>
      </trkpt>
      <trkpt lat="49.78158" lon="4.79676">
        <ele>256</ele>
        <time>2022-07-15T05:50:40.000Z</time>
      </trkpt>
      <trkpt lat="49.78162" lon="4.79673">
        <ele>256</ele>
        <time>2022-07-15T05:50:41.000Z</time>
      </trkpt>
      <trkpt lat="49.78166" lon="4.79669">
        <ele>256</ele>
        <time>2022-07-15T05:50:42.000Z</time>
      </trkpt>
      <trkpt lat="49.7817" lon="4.79666">
        <ele>256</ele>
        <time>2022-07-15T05:50:43.000Z</time>
      </trkpt>
      <trkpt lat="49.78175" lon="4.79663">
        <ele>256</ele>
        <time>2022-07-15T05:50:44.000Z</time>
      </trkpt>
      <trkpt lat="49.78179" lon="4.7966">
        <ele>256</ele>
        <time>2022-07-15T05:50:45.000Z</time>
      </trkpt>
      <trkpt lat="49.78182" lon="4.79657">
        <ele>256</ele>
        <time>2022-07-15T05:50:46.000Z</time>
      </trkpt>
      <trkpt lat="49.78186" lon="4.79653">
        <ele>256</ele>
        <time>2022-07-15T05:50:47.000Z</time>
      </trkpt>
      <trkpt lat="49.7819" lon="4.79649">
        <ele>257</ele>
        <time>2022-07-15T05:50:48.000Z</time>
      </trkpt>
      <trkpt lat="49.78195" lon="4.79645">
        <ele>257</ele>
        <time>2022-07-15T05:50:49.000Z</time>
      </trkpt>
      <trkpt lat="49.78199" lon="4.79641">
        <ele>257</ele>
        <time>2022-07-15T05:50:50.000Z</time>
      </trkpt>
      <trkpt lat="49.78204" lon="4.79637">
        <ele>257</ele>
        <time>2022-07-15T05:50:51.000Z</time>
      </trkpt>
      <trkpt lat="49.78209" lon="4.79633">
        <ele>257</ele>
        <time>2022-07-15T05:50:52.000Z</time>
      </trkpt>
      <trkpt lat="49.78214" lon="4.79629">
        <ele>256</ele>
        <time>2022-07-15T05:50:53.000Z</time>
      </trkpt>
      <trkpt lat="49.78219" lon="4.79625">
        <ele>256</ele>
        <time>2022-07-15T05:50:54.000Z</time>
      </trkpt>
      <trkpt lat="49.78225" lon="4.79621">
        <ele>256</ele>
        <time>2022-07-15T05:50:55.000Z</time>
      </trkpt>
      <trkpt lat="49.7823" lon="4.79618">
        <ele>256</ele>
        <time>2022-07-15T05:50:56.000Z</time>
      </trkpt>
      <trkpt lat="49.78236" lon="4.79614">
        <ele>256</ele>
        <time>2022-07-15T05:50:57.000Z</time>
      </trkpt>
      <trkpt lat="49.78243" lon="4.7961">
        <ele>256</ele>
        <time>2022-07-15T05:50:58.000Z</time>
      </trkpt>
      <trkpt lat="49.7825" lon="4.79607">
        <ele>255</ele>
        <time>2022-07-15T05:50:59.000Z</time>
      </trkpt>
      <trkpt lat="49.78256" lon="4.79604">
        <ele>255</ele>
        <time>2022-07-15T05:51:00.000Z</time>
      </trkpt>
      <trkpt lat="49.78263" lon="4.79602">
        <ele>255</ele>
        <time>2022-07-15T05:51:01.000Z</time>
      </trkpt>
      <trkpt lat="49.7827" lon="4.79601">
        <ele>254</ele>
        <time>2022-07-15T05:51:02.000Z</time>
      </trkpt>
      <trkpt lat="49.78277" lon="4.79598">
        <ele>254</ele>
        <time>2022-07-15T05:51:03.000Z</time>
      </trkpt>
      <trkpt lat="49.78284" lon="4.79596">
        <ele>254</ele>
        <time>2022-07-15T05:51:04.000Z</time>
      </trkpt>
      <trkpt lat="49.78291" lon="4.79594">
        <ele>253</ele>
        <time>2022-07-15T05:51:05.000Z</time>
      </trkpt>
      <trkpt lat="49.78298" lon="4.79593">
        <ele>253</ele>
        <time>2022-07-15T05:51:06.000Z</time>
      </trkpt>
      <trkpt lat="49.78306" lon="4.79594">
        <ele>253</ele>
        <time>2022-07-15T05:51:07.000Z</time>
      </trkpt>
      <trkpt lat="49.78312" lon="4.79597">
        <ele>253</ele>
        <time>2022-07-15T05:51:08.000Z</time>
      </trkpt>
      <trkpt lat="49.78318" lon="4.79601">
        <ele>253</ele>
        <time>2022-07-15T05:51:09.000Z</time>
      </trkpt>
      <trkpt lat="49.78324" lon="4.79604">
        <ele>253</ele>
        <time>2022-07-15T05:51:10.000Z</time>
      </trkpt>
      <trkpt lat="49.7833" lon="4.79607">
        <ele>253</ele>
        <time>2022-07-15T05:51:11.000Z</time>
      </trkpt>
      <trkpt lat="49.78335" lon="4.79611">
        <ele>253</ele>
        <time>2022-07-15T05:51:12.000Z</time>
      </trkpt>
      <trkpt lat="49.78341" lon="4.79614">
        <ele>253</ele>
        <time>2022-07-15T05:51:13.000Z</time>
      </trkpt>
      <trkpt lat="49.78346" lon="4.79618">
        <ele>253</ele>
        <time>2022-07-15T05:51:14.000Z</time>
      </trkpt>
      <trkpt lat="49.78351" lon="4.79621">
        <ele>253</ele>
        <time>2022-07-15T05:51:15.000Z</time>
      </trkpt>
      <trkpt lat="49.78356" lon="4.79624">
        <ele>254</ele>
        <time>2022-07-15T05:51:16.000Z</time>
      </trkpt>
      <trkpt lat="49.78361" lon="4.79628">
        <ele>254</ele>
        <time>2022-07-15T05:51:17.000Z</time>
      </trkpt>
      <trkpt lat="49.78366" lon="4.79631">
        <ele>254</ele>
        <time>2022-07-15T05:51:18.000Z</time>
      </trkpt>
      <trkpt lat="49.78371" lon="4.79634">
        <ele>254</ele>
        <time>2022-07-15T05:51:19.000Z</time>
      </trkpt>
      <trkpt lat="49.78376" lon="4.79637">
        <ele>254</ele>
        <time>2022-07-15T05:51:20.000Z</time>
      </trkpt>
      <trkpt lat="49.78381" lon="4.7964">
        <ele>254</ele>
        <time>2022-07-15T05:51:21.000Z</time>
      </trkpt>
      <trkpt lat="49.78386" lon="4.79642">
        <ele>254</ele>
        <time>2022-07-15T05:51:22.000Z</time>
      </trkpt>
      <trkpt lat="49.7839" lon="4.79645">
        <ele>254</ele>
        <time>2022-07-15T05:51:23.000Z</time>
      </trkpt>
      <trkpt lat="49.78395" lon="4.79647">
        <ele>254</ele>
        <time>2022-07-15T05:51:24.000Z</time>
      </trkpt>
      <trkpt lat="49.784" lon="4.7965">
        <ele>254</ele>
        <time>2022-07-15T05:51:25.000Z</time>
      </trkpt>
      <trkpt lat="49.78404" lon="4.79652">
        <ele>254</ele>
        <time>2022-07-15T05:51:26.000Z</time>
      </trkpt>
      <trkpt lat="49.78409" lon="4.79654">
        <ele>254</ele>
        <time>2022-07-15T05:51:27.000Z</time>
      </trkpt>
      <trkpt lat="49.78414" lon="4.79656">
        <ele>255</ele>
        <time>2022-07-15T05:51:28.000Z</time>
      </trkpt>
      <trkpt lat="49.78418" lon="4.79658">
        <ele>255</ele>
        <time>2022-07-15T05:51:29.000Z</time>
      </trkpt>
      <trkpt lat="49.78423" lon="4.7966">
        <ele>255</ele>
        <time>2022-07-15T05:51:30.000Z</time>
      </trkpt>
      <trkpt lat="49.78427" lon="4.79662">
        <ele>255</ele>
        <time>2022-07-15T05:51:31.000Z</time>
      </trkpt>
      <trkpt lat="49.78432" lon="4.79664">
        <ele>255</ele>
        <time>2022-07-15T05:51:32.000Z</time>
      </trkpt>
      <trkpt lat="49.78436" lon="4.79666">
        <ele>256</ele>
        <time>2022-07-15T05:51:33.000Z</time>
      </trkpt>
      <trkpt lat="49.78441" lon="4.79668">
        <ele>256</ele>
        <time>2022-07-15T05:51:34.000Z</time>
      </trkpt>
      <trkpt lat="49.78446" lon="4.7967">
        <ele>256</ele>
        <time>2022-07-15T05:51:35.000Z</time>
      </trkpt>
      <trkpt lat="49.7845" lon="4.79672">
        <ele>256</ele>
        <time>2022-07-15T05:51:36.000Z</time>
      </trkpt>
      <trkpt lat="49.78455" lon="4.79674">
        <ele>256</ele>
        <time>2022-07-15T05:51:37.000Z</time>
      </trkpt>
      <trkpt lat="49.7846" lon="4.79676">
        <ele>256</ele>
        <time>2022-07-15T05:51:38.000Z</time>
      </trkpt>
      <trkpt lat="49.78465" lon="4.79678">
        <ele>257</ele>
        <time>2022-07-15T05:51:39.000Z</time>
      </trkpt>
      <trkpt lat="49.78469" lon="4.79679">
        <ele>257</ele>
        <time>2022-07-15T05:51:40.000Z</time>
      </trkpt>
      <trkpt lat="49.78474" lon="4.79681">
        <ele>257</ele>
        <time>2022-07-15T05:51:41.000Z</time>
      </trkpt>
      <trkpt lat="49.78478" lon="4.79683">
        <ele>257</ele>
        <time>2022-07-15T05:51:42.000Z</time>
      </trkpt>
      <trkpt lat="49.78483" lon="4.79685">
        <ele>257</ele>
        <time>2022-07-15T05:51:43.000Z</time>
      </trkpt>
      <trkpt lat="49.78488" lon="4.79687">
        <ele>257</ele>
        <time>2022-07-15T05:51:44.000Z</time>
      </trkpt>
      <trkpt lat="49.78492" lon="4.79688">
        <ele>257</ele>
        <time>2022-07-15T05:51:45.000Z</time>
      </trkpt>
      <trkpt lat="49.78497" lon="4.7969">
        <ele>258</ele>
        <time>2022-07-15T05:51:46.000Z</time>
      </trkpt>
      <trkpt lat="49.78501" lon="4.79691">
        <ele>258</ele>
        <time>2022-07-15T05:51:47.000Z</time>
      </trkpt>
      <trkpt lat="49.78505" lon="4.79693">
        <ele>258</ele>
        <time>2022-07-15T05:51:48.000Z</time>
      </trkpt>
      <trkpt lat="49.7851" lon="4.79695">
        <ele>258</ele>
        <time>2022-07-15T05:51:49.000Z</time>
      </trkpt>
      <trkpt lat="49.78514" lon="4.79698">
        <ele>258</ele>
        <time>2022-07-15T05:51:50.000Z</time>
      </trkpt>
      <trkpt lat="49.78519" lon="4.797">
        <ele>259</ele>
        <time>2022-07-15T05:51:51.000Z</time>
      </trkpt>
      <trkpt lat="49.78523" lon="4.79701">
        <ele>259</ele>
        <time>2022-07-15T05:51:52.000Z</time>
      </trkpt>
      <trkpt lat="49.78528" lon="4.79703">
        <ele>259</ele>
        <time>2022-07-15T05:51:53.000Z</time>
      </trkpt>
      <trkpt lat="49.78532" lon="4.79704">
        <ele>259</ele>
        <time>2022-07-15T05:51:54.000Z</time>
      </trkpt>
      <trkpt lat="49.78537" lon="4.79705">
        <ele>259</ele>
        <time>2022-07-15T05:51:55.000Z</time>
      </trkpt>
      <trkpt lat="49.78541" lon="4.79706">
        <ele>260</ele>
        <time>2022-07-15T05:51:56.000Z</time>
      </trkpt>
      <trkpt lat="49.78545" lon="4.79708">
        <ele>260</ele>
        <time>2022-07-15T05:51:57.000Z</time>
      </trkpt>
      <trkpt lat="49.7855" lon="4.79709">
        <ele>260</ele>
        <time>2022-07-15T05:51:58.000Z</time>
      </trkpt>
      <trkpt lat="49.78554" lon="4.79711">
        <ele>260</ele>
        <time>2022-07-15T05:51:59.000Z</time>
      </trkpt>
      <trkpt lat="49.78558" lon="4.79713">
        <ele>260</ele>
        <time>2022-07-15T05:52:00.000Z</time>
      </trkpt>
      <trkpt lat="49.78562" lon="4.79714">
        <ele>261</ele>
        <time>2022-07-15T05:52:01.000Z</time>
      </trkpt>
      <trkpt lat="49.78567" lon="4.79716">
        <ele>261</ele>
        <time>2022-07-15T05:52:02.000Z</time>
      </trkpt>
      <trkpt lat="49.78571" lon="4.79718">
        <ele>261</ele>
        <time>2022-07-15T05:52:03.000Z</time>
      </trkpt>
      <trkpt lat="49.78575" lon="4.79719">
        <ele>261</ele>
        <time>2022-07-15T05:52:04.000Z</time>
      </trkpt>
      <trkpt lat="49.7858" lon="4.79721">
        <ele>261</ele>
        <time>2022-07-15T05:52:05.000Z</time>
      </trkpt>
      <trkpt lat="49.78584" lon="4.79722">
        <ele>261</ele>
        <time>2022-07-15T05:52:06.000Z</time>
      </trkpt>
      <trkpt lat="49.78589" lon="4.79723">
        <ele>262</ele>
        <time>2022-07-15T05:52:07.000Z</time>
      </trkpt>
      <trkpt lat="49.78593" lon="4.79725">
        <ele>262</ele>
        <time>2022-07-15T05:52:08.000Z</time>
      </trkpt>
      <trkpt lat="49.78598" lon="4.79727">
        <ele>262</ele>
        <time>2022-07-15T05:52:09.000Z</time>
      </trkpt>
      <trkpt lat="49.78602" lon="4.79729">
        <ele>262</ele>
        <time>2022-07-15T05:52:10.000Z</time>
      </trkpt>
      <trkpt lat="49.78607" lon="4.79731">
        <ele>262</ele>
        <time>2022-07-15T05:52:11.000Z</time>
      </trkpt>
      <trkpt lat="49.78611" lon="4.79732">
        <ele>262</ele>
        <time>2022-07-15T05:52:12.000Z</time>
      </trkpt>
      <trkpt lat="49.78616" lon="4.79734">
        <ele>263</ele>
        <time>2022-07-15T05:52:13.000Z</time>
      </trkpt>
      <trkpt lat="49.7862" lon="4.79736">
        <ele>263</ele>
        <time>2022-07-15T05:52:14.000Z</time>
      </trkpt>
      <trkpt lat="49.78625" lon="4.79737">
        <ele>263</ele>
        <time>2022-07-15T05:52:15.000Z</time>
      </trkpt>
      <trkpt lat="49.78629" lon="4.79739">
        <ele>263</ele>
        <time>2022-07-15T05:52:16.000Z</time>
      </trkpt>
      <trkpt lat="49.78634" lon="4.79741">
        <ele>263</ele>
        <time>2022-07-15T05:52:17.000Z</time>
      </trkpt>
      <trkpt lat="49.78638" lon="4.79743">
        <ele>263</ele>
        <time>2022-07-15T05:52:18.000Z</time>
      </trkpt>
      <trkpt lat="49.78643" lon="4.79744">
        <ele>264</ele>
        <time>2022-07-15T05:52:19.000Z</time>
      </trkpt>
      <trkpt lat="49.78648" lon="4.79746">
        <ele>264</ele>
        <time>2022-07-15T05:52:20.000Z</time>
      </trkpt>
      <trkpt lat="49.78652" lon="4.79747">
        <ele>264</ele>
        <time>2022-07-15T05:52:21.000Z</time>
      </trkpt>
      <trkpt lat="49.78657" lon="4.79749">
        <ele>264</ele>
        <time>2022-07-15T05:52:22.000Z</time>
      </trkpt>
      <trkpt lat="49.78662" lon="4.79751">
        <ele>264</ele>
        <time>2022-07-15T05:52:23.000Z</time>
      </trkpt>
      <trkpt lat="49.78667" lon="4.79752">
        <ele>264</ele>
        <time>2022-07-15T05:52:24.000Z</time>
      </trkpt>
      <trkpt lat="49.78671" lon="4.79754">
        <ele>264</ele>
        <time>2022-07-15T05:52:25.000Z</time>
      </trkpt>
      <trkpt lat="49.78676" lon="4.79756">
        <ele>264</ele>
        <time>2022-07-15T05:52:26.000Z</time>
      </trkpt>
      <trkpt lat="49.78681" lon="4.79758">
        <ele>265</ele>
        <time>2022-07-15T05:52:27.000Z</time>
      </trkpt>
      <trkpt lat="49.78686" lon="4.7976">
        <ele>265</ele>
        <time>2022-07-15T05:52:28.000Z</time>
      </trkpt>
      <trkpt lat="49.78691" lon="4.79761">
        <ele>265</ele>
        <time>2022-07-15T05:52:29.000Z</time>
      </trkpt>
      <trkpt lat="49.78696" lon="4.79763">
        <ele>265</ele>
        <time>2022-07-15T05:52:30.000Z</time>
      </trkpt>
      <trkpt lat="49.78701" lon="4.79764">
        <ele>265</ele>
        <time>2022-07-15T05:52:31.000Z</time>
      </trkpt>
      <trkpt lat="49.78705" lon="4.79766">
        <ele>265</ele>
        <time>2022-07-15T05:52:32.000Z</time>
      </trkpt>
      <trkpt lat="49.7871" lon="4.79768">
        <ele>265</ele>
        <time>2022-07-15T05:52:33.000Z</time>
      </trkpt>
      <trkpt lat="49.78714" lon="4.7977">
        <ele>265</ele>
        <time>2022-07-15T05:52:34.000Z</time>
      </trkpt>
      <trkpt lat="49.78718" lon="4.79771">
        <ele>265</ele>
        <time>2022-07-15T05:52:35.000Z</time>
      </trkpt>
      <trkpt lat="49.78723" lon="4.79772">
        <ele>265</ele>
        <time>2022-07-15T05:52:36.000Z</time>
      </trkpt>
      <trkpt lat="49.78728" lon="4.79773">
        <ele>265</ele>
        <time>2022-07-15T05:52:37.000Z</time>
      </trkpt>
      <trkpt lat="49.78732" lon="4.79774">
        <ele>265</ele>
        <time>2022-07-15T05:52:38.000Z</time>
      </trkpt>
      <trkpt lat="49.78737" lon="4.79776">
        <ele>265</ele>
        <time>2022-07-15T05:52:39.000Z</time>
      </trkpt>
      <trkpt lat="49.78742" lon="4.79778">
        <ele>265</ele>
        <time>2022-07-15T05:52:40.000Z</time>
      </trkpt>
      <trkpt lat="49.78747" lon="4.79779">
        <ele>266</ele>
        <time>2022-07-15T05:52:41.000Z</time>
      </trkpt>
      <trkpt lat="49.78752" lon="4.79781">
        <ele>266</ele>
        <time>2022-07-15T05:52:42.000Z</time>
      </trkpt>
      <trkpt lat="49.78758" lon="4.79783">
        <ele>266</ele>
        <time>2022-07-15T05:52:43.000Z</time>
      </trkpt>
      <trkpt lat="49.78763" lon="4.79786">
        <ele>267</ele>
        <time>2022-07-15T05:52:44.000Z</time>
      </trkpt>
      <trkpt lat="49.78768" lon="4.79788">
        <ele>267</ele>
        <time>2022-07-15T05:52:45.000Z</time>
      </trkpt>
      <trkpt lat="49.78773" lon="4.7979">
        <ele>267</ele>
        <time>2022-07-15T05:52:46.000Z</time>
      </trkpt>
      <trkpt lat="49.78778" lon="4.79793">
        <ele>267</ele>
        <time>2022-07-15T05:52:47.000Z</time>
      </trkpt>
      <trkpt lat="49.78783" lon="4.79795">
        <ele>268</ele>
        <time>2022-07-15T05:52:48.000Z</time>
      </trkpt>
      <trkpt lat="49.78788" lon="4.79798">
        <ele>268</ele>
        <time>2022-07-15T05:52:49.000Z</time>
      </trkpt>
      <trkpt lat="49.78794" lon="4.798">
        <ele>268</ele>
        <time>2022-07-15T05:52:50.000Z</time>
      </trkpt>
      <trkpt lat="49.78799" lon="4.79803">
        <ele>268</ele>
        <time>2022-07-15T05:52:51.000Z</time>
      </trkpt>
      <trkpt lat="49.78804" lon="4.79806">
        <ele>268</ele>
        <time>2022-07-15T05:52:52.000Z</time>
      </trkpt>
      <trkpt lat="49.7881" lon="4.79809">
        <ele>269</ele>
        <time>2022-07-15T05:52:53.000Z</time>
      </trkpt>
      <trkpt lat="49.78815" lon="4.79812">
        <ele>269</ele>
        <time>2022-07-15T05:52:54.000Z</time>
      </trkpt>
      <trkpt lat="49.7882" lon="4.79815">
        <ele>269</ele>
        <time>2022-07-15T05:52:55.000Z</time>
      </trkpt>
      <trkpt lat="49.78825" lon="4.79818">
        <ele>269</ele>
        <time>2022-07-15T05:52:56.000Z</time>
      </trkpt>
      <trkpt lat="49.78831" lon="4.79821">
        <ele>269</ele>
        <time>2022-07-15T05:52:57.000Z</time>
      </trkpt>
      <trkpt lat="49.78836" lon="4.79824">
        <ele>269</ele>
        <time>2022-07-15T05:52:58.000Z</time>
      </trkpt>
      <trkpt lat="49.78842" lon="4.79827">
        <ele>269</ele>
        <time>2022-07-15T05:52:59.000Z</time>
      </trkpt>
      <trkpt lat="49.78847" lon="4.79831">
        <ele>269</ele>
        <time>2022-07-15T05:53:00.000Z</time>
      </trkpt>
      <trkpt lat="49.78853" lon="4.79834">
        <ele>270</ele>
        <time>2022-07-15T05:53:01.000Z</time>
      </trkpt>
      <trkpt lat="49.78858" lon="4.79838">
        <ele>270</ele>
        <time>2022-07-15T05:53:02.000Z</time>
      </trkpt>
      <trkpt lat="49.78863" lon="4.79842">
        <ele>270</ele>
        <time>2022-07-15T05:53:03.000Z</time>
      </trkpt>
      <trkpt lat="49.78869" lon="4.79845">
        <ele>270</ele>
        <time>2022-07-15T05:53:04.000Z</time>
      </trkpt>
      <trkpt lat="49.78874" lon="4.79849">
        <ele>270</ele>
        <time>2022-07-15T05:53:05.000Z</time>
      </trkpt>
      <trkpt lat="49.78879" lon="4.79853">
        <ele>270</ele>
        <time>2022-07-15T05:53:06.000Z</time>
      </trkpt>
      <trkpt lat="49.78885" lon="4.79857">
        <ele>270</ele>
        <time>2022-07-15T05:53:07.000Z</time>
      </trkpt>
      <trkpt lat="49.7889" lon="4.79861">
        <ele>270</ele>
        <time>2022-07-15T05:53:08.000Z</time>
      </trkpt>
      <trkpt lat="49.78896" lon="4.79865">
        <ele>270</ele>
        <time>2022-07-15T05:53:09.000Z</time>
      </trkpt>
      <trkpt lat="49.78901" lon="4.79869">
        <ele>270</ele>
        <time>2022-07-15T05:53:10.000Z</time>
      </trkpt>
      <trkpt lat="49.78906" lon="4.79874">
        <ele>269</ele>
        <time>2022-07-15T05:53:11.000Z</time>
      </trkpt>
      <trkpt lat="49.78912" lon="4.79878">
        <ele>269</ele>
        <time>2022-07-15T05:53:12.000Z</time>
      </trkpt>
      <trkpt lat="49.78917" lon="4.79883">
        <ele>269</ele>
        <time>2022-07-15T05:53:13.000Z</time>
      </trkpt>
      <trkpt lat="49.78923" lon="4.79887">
        <ele>268</ele>
        <time>2022-07-15T05:53:14.000Z</time>
      </trkpt>
      <trkpt lat="49.78928" lon="4.79892">
        <ele>268</ele>
        <time>2022-07-15T05:53:15.000Z</time>
      </trkpt>
      <trkpt lat="49.78934" lon="4.79897">
        <ele>268</ele>
        <time>2022-07-15T05:53:16.000Z</time>
      </trkpt>
      <trkpt lat="49.78939" lon="4.79902">
        <ele>267</ele>
        <time>2022-07-15T05:53:17.000Z</time>
      </trkpt>
      <trkpt lat="49.78945" lon="4.79906">
        <ele>267</ele>
        <time>2022-07-15T05:53:18.000Z</time>
      </trkpt>
      <trkpt lat="49.78951" lon="4.79911">
        <ele>267</ele>
        <time>2022-07-15T05:53:19.000Z</time>
      </trkpt>
      <trkpt lat="49.78956" lon="4.79916">
        <ele>267</ele>
        <time>2022-07-15T05:53:20.000Z</time>
      </trkpt>
      <trkpt lat="49.78962" lon="4.79921">
        <ele>266</ele>
        <time>2022-07-15T05:53:21.000Z</time>
      </trkpt>
      <trkpt lat="49.78967" lon="4.79926">
        <ele>266</ele>
        <time>2022-07-15T05:53:22.000Z</time>
      </trkpt>
      <trkpt lat="49.78972" lon="4.79931">
        <ele>266</ele>
        <time>2022-07-15T05:53:23.000Z</time>
      </trkpt>
      <trkpt lat="49.78978" lon="4.79936">
        <ele>266</ele>
        <time>2022-07-15T05:53:24.000Z</time>
      </trkpt>
      <trkpt lat="49.78983" lon="4.79941">
        <ele>265</ele>
        <time>2022-07-15T05:53:25.000Z</time>
      </trkpt>
      <trkpt lat="49.78988" lon="4.79946">
        <ele>265</ele>
        <time>2022-07-15T05:53:26.000Z</time>
      </trkpt>
      <trkpt lat="49.78994" lon="4.79951">
        <ele>265</ele>
        <time>2022-07-15T05:53:27.000Z</time>
      </trkpt>
      <trkpt lat="49.78999" lon="4.79957">
        <ele>265</ele>
        <time>2022-07-15T05:53:28.000Z</time>
      </trkpt>
      <trkpt lat="49.79004" lon="4.79961">
        <ele>265</ele>
        <time>2022-07-15T05:53:29.000Z</time>
      </trkpt>
      <trkpt lat="49.79009" lon="4.79966">
        <ele>264</ele>
        <time>2022-07-15T05:53:30.000Z</time>
      </trkpt>
      <trkpt lat="49.79015" lon="4.79972">
        <ele>264</ele>
        <time>2022-07-15T05:53:31.000Z</time>
      </trkpt>
      <trkpt lat="49.7902" lon="4.79977">
        <ele>264</ele>
        <time>2022-07-15T05:53:32.000Z</time>
      </trkpt>
      <trkpt lat="49.79026" lon="4.79982">
        <ele>264</ele>
        <time>2022-07-15T05:53:33.000Z</time>
      </trkpt>
      <trkpt lat="49.79031" lon="4.79987">
        <ele>264</ele>
        <time>2022-07-15T05:53:34.000Z</time>
      </trkpt>
      <trkpt lat="49.79037" lon="4.79992">
        <ele>264</ele>
        <time>2022-07-15T05:53:35.000Z</time>
      </trkpt>
      <trkpt lat="49.79042" lon="4.79998">
        <ele>264</ele>
        <time>2022-07-15T05:53:36.000Z</time>
      </trkpt>
      <trkpt lat="49.79048" lon="4.80002">
        <ele>264</ele>
        <time>2022-07-15T05:53:37.000Z</time>
      </trkpt>
      <trkpt lat="49.79054" lon="4.80007">
        <ele>264</ele>
        <time>2022-07-15T05:53:38.000Z</time>
      </trkpt>
      <trkpt lat="49.7906" lon="4.80012">
        <ele>264</ele>
        <time>2022-07-15T05:53:39.000Z</time>
      </trkpt>
      <trkpt lat="49.79066" lon="4.80018">
        <ele>264</ele>
        <time>2022-07-15T05:53:40.000Z</time>
      </trkpt>
      <trkpt lat="49.79072" lon="4.80023">
        <ele>264</ele>
        <time>2022-07-15T05:53:41.000Z</time>
      </trkpt>
      <trkpt lat="49.79078" lon="4.80028">
        <ele>265</ele>
        <time>2022-07-15T05:53:42.000Z</time>
      </trkpt>
      <trkpt lat="49.79084" lon="4.80033">
        <ele>265</ele>
        <time>2022-07-15T05:53:43.000Z</time>
      </trkpt>
      <trkpt lat="49.7909" lon="4.80039">
        <ele>265</ele>
        <time>2022-07-15T05:53:44.000Z</time>
      </trkpt>
      <trkpt lat="49.79096" lon="4.80044">
        <ele>265</ele>
        <time>2022-07-15T05:53:45.000Z</time>
      </trkpt>
      <trkpt lat="49.79102" lon="4.80048">
        <ele>265</ele>
        <time>2022-07-15T05:53:46.000Z</time>
      </trkpt>
      <trkpt lat="49.79108" lon="4.80053">
        <ele>265</ele>
        <time>2022-07-15T05:53:47.000Z</time>
      </trkpt>
      <trkpt lat="49.79114" lon="4.80057">
        <ele>265</ele>
        <time>2022-07-15T05:53:48.000Z</time>
      </trkpt>
      <trkpt lat="49.79119" lon="4.8006">
        <ele>265</ele>
        <time>2022-07-15T05:53:49.000Z</time>
      </trkpt>
      <trkpt lat="49.79125" lon="4.80064">
        <ele>265</ele>
        <time>2022-07-15T05:53:50.000Z</time>
      </trkpt>
      <trkpt lat="49.7913" lon="4.80067">
        <ele>264</ele>
        <time>2022-07-15T05:53:51.000Z</time>
      </trkpt>
      <trkpt lat="49.79135" lon="4.8007">
        <ele>264</ele>
        <time>2022-07-15T05:53:52.000Z</time>
      </trkpt>
      <trkpt lat="49.7914" lon="4.80073">
        <ele>264</ele>
        <time>2022-07-15T05:53:53.000Z</time>
      </trkpt>
      <trkpt lat="49.79144" lon="4.80074">
        <ele>264</ele>
        <time>2022-07-15T05:53:54.000Z</time>
      </trkpt>
      <trkpt lat="49.79148" lon="4.80074">
        <ele>264</ele>
        <time>2022-07-15T05:53:55.000Z</time>
      </trkpt>
      <trkpt lat="49.79153" lon="4.80073">
        <ele>264</ele>
        <time>2022-07-15T05:53:56.000Z</time>
      </trkpt>
      <trkpt lat="49.79159" lon="4.80072">
        <ele>264</ele>
        <time>2022-07-15T05:53:57.000Z</time>
      </trkpt>
      <trkpt lat="49.79164" lon="4.80071">
        <ele>265</ele>
        <time>2022-07-15T05:53:58.000Z</time>
      </trkpt>
      <trkpt lat="49.79169" lon="4.80071">
        <ele>265</ele>
        <time>2022-07-15T05:53:59.000Z</time>
      </trkpt>
      <trkpt lat="49.79175" lon="4.80069">
        <ele>265</ele>
        <time>2022-07-15T05:54:00.000Z</time>
      </trkpt>
      <trkpt lat="49.79181" lon="4.80067">
        <ele>265</ele>
        <time>2022-07-15T05:54:01.000Z</time>
      </trkpt>
      <trkpt lat="49.79187" lon="4.80065">
        <ele>265</ele>
        <time>2022-07-15T05:54:02.000Z</time>
      </trkpt>
      <trkpt lat="49.79193" lon="4.80064">
        <ele>266</ele>
        <time>2022-07-15T05:54:03.000Z</time>
      </trkpt>
      <trkpt lat="49.79198" lon="4.80063">
        <ele>266</ele>
        <time>2022-07-15T05:54:04.000Z</time>
      </trkpt>
      <trkpt lat="49.79204" lon="4.80061">
        <ele>266</ele>
        <time>2022-07-15T05:54:05.000Z</time>
      </trkpt>
      <trkpt lat="49.79209" lon="4.8006">
        <ele>266</ele>
        <time>2022-07-15T05:54:06.000Z</time>
      </trkpt>
      <trkpt lat="49.79213" lon="4.80058">
        <ele>267</ele>
        <time>2022-07-15T05:54:07.000Z</time>
      </trkpt>
      <trkpt lat="49.79217" lon="4.80058">
        <ele>267</ele>
        <time>2022-07-15T05:54:08.000Z</time>
      </trkpt>
      <trkpt lat="49.79221" lon="4.80057">
        <ele>267</ele>
        <time>2022-07-15T05:54:09.000Z</time>
      </trkpt>
      <trkpt lat="49.79224" lon="4.80057">
        <ele>267</ele>
        <time>2022-07-15T05:54:10.000Z</time>
      </trkpt>
      <trkpt lat="49.79227" lon="4.80056">
        <ele>268</ele>
        <time>2022-07-15T05:54:11.000Z</time>
      </trkpt>
      <trkpt lat="49.7923" lon="4.80055">
        <ele>268</ele>
        <time>2022-07-15T05:54:12.000Z</time>
      </trkpt>
      <trkpt lat="49.79233" lon="4.80055">
        <ele>269</ele>
        <time>2022-07-15T05:54:13.000Z</time>
      </trkpt>
      <trkpt lat="49.79237" lon="4.80054">
        <ele>269</ele>
        <time>2022-07-15T05:54:14.000Z</time>
      </trkpt>
      <trkpt lat="49.7924" lon="4.80053">
        <ele>270</ele>
        <time>2022-07-15T05:54:15.000Z</time>
      </trkpt>
      <trkpt lat="49.79243" lon="4.80052">
        <ele>270</ele>
        <time>2022-07-15T05:54:16.000Z</time>
      </trkpt>
      <trkpt lat="49.79246" lon="4.8005">
        <ele>270</ele>
        <time>2022-07-15T05:54:17.000Z</time>
      </trkpt>
      <trkpt lat="49.79248" lon="4.80049">
        <ele>271</ele>
        <time>2022-07-15T05:54:18.000Z</time>
      </trkpt>
      <trkpt lat="49.79251" lon="4.80048">
        <ele>271</ele>
        <time>2022-07-15T05:54:19.000Z</time>
      </trkpt>
      <trkpt lat="49.79253" lon="4.80048">
        <ele>272</ele>
        <time>2022-07-15T05:54:20.000Z</time>
      </trkpt>
      <trkpt lat="49.79256" lon="4.80048">
        <ele>272</ele>
        <time>2022-07-15T05:54:21.000Z</time>
      </trkpt>
      <trkpt lat="49.79258" lon="4.80047">
        <ele>273</ele>
        <time>2022-07-15T05:54:22.000Z</time>
      </trkpt>
      <trkpt lat="49.79261" lon="4.80046">
        <ele>273</ele>
        <time>2022-07-15T05:54:23.000Z</time>
      </trkpt>
      <trkpt lat="49.79263" lon="4.80045">
        <ele>273</ele>
        <time>2022-07-15T05:54:24.000Z</time>
      </trkpt>
      <trkpt lat="49.79266" lon="4.80045">
        <ele>274</ele>
        <time>2022-07-15T05:54:25.000Z</time>
      </trkpt>
      <trkpt lat="49.79269" lon="4.80044">
        <ele>274</ele>
        <time>2022-07-15T05:54:26.000Z</time>
      </trkpt>
      <trkpt lat="49.79272" lon="4.80042">
        <ele>275</ele>
        <time>2022-07-15T05:54:27.000Z</time>
      </trkpt>
      <trkpt lat="49.79275" lon="4.80041">
        <ele>275</ele>
        <time>2022-07-15T05:54:28.000Z</time>
      </trkpt>
      <trkpt lat="49.79278" lon="4.8004">
        <ele>275</ele>
        <time>2022-07-15T05:54:29.000Z</time>
      </trkpt>
      <trkpt lat="49.79281" lon="4.80039">
        <ele>276</ele>
        <time>2022-07-15T05:54:30.000Z</time>
      </trkpt>
      <trkpt lat="49.79284" lon="4.80038">
        <ele>276</ele>
        <time>2022-07-15T05:54:31.000Z</time>
      </trkpt>
      <trkpt lat="49.79287" lon="4.80038">
        <ele>276</ele>
        <time>2022-07-15T05:54:32.000Z</time>
      </trkpt>
      <trkpt lat="49.7929" lon="4.80038">
        <ele>277</ele>
        <time>2022-07-15T05:54:33.000Z</time>
      </trkpt>
      <trkpt lat="49.79293" lon="4.80037">
        <ele>277</ele>
        <time>2022-07-15T05:54:34.000Z</time>
      </trkpt>
      <trkpt lat="49.79296" lon="4.80037">
        <ele>277</ele>
        <time>2022-07-15T05:54:35.000Z</time>
      </trkpt>
      <trkpt lat="49.79299" lon="4.80036">
        <ele>278</ele>
        <time>2022-07-15T05:54:36.000Z</time>
      </trkpt>
      <trkpt lat="49.79302" lon="4.80035">
        <ele>278</ele>
        <time>2022-07-15T05:54:37.000Z</time>
      </trkpt>
      <trkpt lat="49.79304" lon="4.80034">
        <ele>278</ele>
        <time>2022-07-15T05:54:38.000Z</time>
      </trkpt>
      <trkpt lat="49.79306" lon="4.80031">
        <ele>279</ele>
        <time>2022-07-15T05:54:39.000Z</time>
      </trkpt>
      <trkpt lat="49.79308" lon="4.80028">
        <ele>279</ele>
        <time>2022-07-15T05:54:40.000Z</time>
      </trkpt>
      <trkpt lat="49.79309" lon="4.80024">
        <ele>279</ele>
        <time>2022-07-15T05:54:41.000Z</time>
      </trkpt>
      <trkpt lat="49.79311" lon="4.80019">
        <ele>279</ele>
        <time>2022-07-15T05:54:42.000Z</time>
      </trkpt>
      <trkpt lat="49.79313" lon="4.80015">
        <ele>279</ele>
        <time>2022-07-15T05:54:43.000Z</time>
      </trkpt>
      <trkpt lat="49.79315" lon="4.80011">
        <ele>280</ele>
        <time>2022-07-15T05:54:44.000Z</time>
      </trkpt>
      <trkpt lat="49.79317" lon="4.80007">
        <ele>280</ele>
        <time>2022-07-15T05:54:45.000Z</time>
      </trkpt>
      <trkpt lat="49.79319" lon="4.80003">
        <ele>280</ele>
        <time>2022-07-15T05:54:46.000Z</time>
      </trkpt>
      <trkpt lat="49.7932" lon="4.79999">
        <ele>280</ele>
        <time>2022-07-15T05:54:47.000Z</time>
      </trkpt>
      <trkpt lat="49.79321" lon="4.79996">
        <ele>280</ele>
        <time>2022-07-15T05:54:48.000Z</time>
      </trkpt>
      <trkpt lat="49.79323" lon="4.79992">
        <ele>280</ele>
        <time>2022-07-15T05:54:49.000Z</time>
      </trkpt>
      <trkpt lat="49.79325" lon="4.79988">
        <ele>280</ele>
        <time>2022-07-15T05:54:50.000Z</time>
      </trkpt>
      <trkpt lat="49.79327" lon="4.79985">
        <ele>280</ele>
        <time>2022-07-15T05:54:51.000Z</time>
      </trkpt>
      <trkpt lat="49.79329" lon="4.79981">
        <ele>280</ele>
        <time>2022-07-15T05:54:52.000Z</time>
      </trkpt>
      <trkpt lat="49.79331" lon="4.79978">
        <ele>280</ele>
        <time>2022-07-15T05:54:53.000Z</time>
      </trkpt>
      <trkpt lat="49.79333" lon="4.79974">
        <ele>280</ele>
        <time>2022-07-15T05:54:54.000Z</time>
      </trkpt>
      <trkpt lat="49.79335" lon="4.7997">
        <ele>280</ele>
        <time>2022-07-15T05:54:55.000Z</time>
      </trkpt>
      <trkpt lat="49.79336" lon="4.79966">
        <ele>280</ele>
        <time>2022-07-15T05:54:56.000Z</time>
      </trkpt>
      <trkpt lat="49.79337" lon="4.79962">
        <ele>280</ele>
        <time>2022-07-15T05:54:57.000Z</time>
      </trkpt>
      <trkpt lat="49.79338" lon="4.79957">
        <ele>281</ele>
        <time>2022-07-15T05:54:58.000Z</time>
      </trkpt>
      <trkpt lat="49.79339" lon="4.79953">
        <ele>281</ele>
        <time>2022-07-15T05:54:59.000Z</time>
      </trkpt>
      <trkpt lat="49.79341" lon="4.79948">
        <ele>281</ele>
        <time>2022-07-15T05:55:00.000Z</time>
      </trkpt>
      <trkpt lat="49.79343" lon="4.79944">
        <ele>281</ele>
        <time>2022-07-15T05:55:01.000Z</time>
      </trkpt>
      <trkpt lat="49.79344" lon="4.7994">
        <ele>281</ele>
        <time>2022-07-15T05:55:02.000Z</time>
      </trkpt>
      <trkpt lat="49.79346" lon="4.79937">
        <ele>281</ele>
        <time>2022-07-15T05:55:03.000Z</time>
      </trkpt>
      <trkpt lat="49.79348" lon="4.79933">
        <ele>281</ele>
        <time>2022-07-15T05:55:04.000Z</time>
      </trkpt>
      <trkpt lat="49.7935" lon="4.79929">
        <ele>281</ele>
        <time>2022-07-15T05:55:05.000Z</time>
      </trkpt>
      <trkpt lat="49.79352" lon="4.79924">
        <ele>281</ele>
        <time>2022-07-15T05:55:06.000Z</time>
      </trkpt>
      <trkpt lat="49.79354" lon="4.79918">
        <ele>281</ele>
        <time>2022-07-15T05:55:07.000Z</time>
      </trkpt>
      <trkpt lat="49.79355" lon="4.79914">
        <ele>281</ele>
        <time>2022-07-15T05:55:08.000Z</time>
      </trkpt>
      <trkpt lat="49.79356" lon="4.79911">
        <ele>281</ele>
        <time>2022-07-15T05:55:09.000Z</time>
      </trkpt>
      <trkpt lat="49.79358" lon="4.79908">
        <ele>281</ele>
        <time>2022-07-15T05:55:10.000Z</time>
      </trkpt>
      <trkpt lat="49.7936" lon="4.79904">
        <ele>282</ele>
        <time>2022-07-15T05:55:11.000Z</time>
      </trkpt>
      <trkpt lat="49.79362" lon="4.79901">
        <ele>282</ele>
        <time>2022-07-15T05:55:12.000Z</time>
      </trkpt>
      <trkpt lat="49.79364" lon="4.79897">
        <ele>282</ele>
        <time>2022-07-15T05:55:13.000Z</time>
      </trkpt>
      <trkpt lat="49.79366" lon="4.79894">
        <ele>282</ele>
        <time>2022-07-15T05:55:14.000Z</time>
      </trkpt>
      <trkpt lat="49.79368" lon="4.7989">
        <ele>282</ele>
        <time>2022-07-15T05:55:15.000Z</time>
      </trkpt>
      <trkpt lat="49.79371" lon="4.79887">
        <ele>282</ele>
        <time>2022-07-15T05:55:16.000Z</time>
      </trkpt>
      <trkpt lat="49.79373" lon="4.79883">
        <ele>282</ele>
        <time>2022-07-15T05:55:17.000Z</time>
      </trkpt>
      <trkpt lat="49.79375" lon="4.79879">
        <ele>282</ele>
        <time>2022-07-15T05:55:18.000Z</time>
      </trkpt>
      <trkpt lat="49.79377" lon="4.79876">
        <ele>282</ele>
        <time>2022-07-15T05:55:19.000Z</time>
      </trkpt>
      <trkpt lat="49.79379" lon="4.79873">
        <ele>282</ele>
        <time>2022-07-15T05:55:20.000Z</time>
      </trkpt>
      <trkpt lat="49.79381" lon="4.7987">
        <ele>282</ele>
        <time>2022-07-15T05:55:21.000Z</time>
      </trkpt>
      <trkpt lat="49.79382" lon="4.79867">
        <ele>282</ele>
        <time>2022-07-15T05:55:22.000Z</time>
      </trkpt>
      <trkpt lat="49.79383" lon="4.79863">
        <ele>282</ele>
        <time>2022-07-15T05:55:23.000Z</time>
      </trkpt>
      <trkpt lat="49.79385" lon="4.79858">
        <ele>282</ele>
        <time>2022-07-15T05:55:24.000Z</time>
      </trkpt>
      <trkpt lat="49.79386" lon="4.79855">
        <ele>282</ele>
        <time>2022-07-15T05:55:25.000Z</time>
      </trkpt>
      <trkpt lat="49.79388" lon="4.79853">
        <ele>282</ele>
        <time>2022-07-15T05:55:26.000Z</time>
      </trkpt>
      <trkpt lat="49.7939" lon="4.79852">
        <ele>282</ele>
        <time>2022-07-15T05:55:27.000Z</time>
      </trkpt>
      <trkpt lat="49.79392" lon="4.79851">
        <ele>282</ele>
        <time>2022-07-15T05:55:28.000Z</time>
      </trkpt>
      <trkpt lat="49.79395" lon="4.7985">
        <ele>283</ele>
        <time>2022-07-15T05:55:29.000Z</time>
      </trkpt>
      <trkpt lat="49.79397" lon="4.79849">
        <ele>283</ele>
        <time>2022-07-15T05:55:30.000Z</time>
      </trkpt>
      <trkpt lat="49.79399" lon="4.79848">
        <ele>283</ele>
        <time>2022-07-15T05:55:31.000Z</time>
      </trkpt>
      <trkpt lat="49.79401" lon="4.79848">
        <ele>283</ele>
        <time>2022-07-15T05:55:32.000Z</time>
      </trkpt>
      <trkpt lat="49.79403" lon="4.79847">
        <ele>284</ele>
        <time>2022-07-15T05:55:33.000Z</time>
      </trkpt>
      <trkpt lat="49.79405" lon="4.79847">
        <ele>284</ele>
        <time>2022-07-15T05:55:34.000Z</time>
      </trkpt>
      <trkpt lat="49.79407" lon="4.79846">
        <ele>284</ele>
        <time>2022-07-15T05:55:35.000Z</time>
      </trkpt>
      <trkpt lat="49.79409" lon="4.79846">
        <ele>284</ele>
        <time>2022-07-15T05:55:36.000Z</time>
      </trkpt>
      <trkpt lat="49.7941" lon="4.79845">
        <ele>284</ele>
        <time>2022-07-15T05:55:37.000Z</time>
      </trkpt>
      <trkpt lat="49.79412" lon="4.79845">
        <ele>285</ele>
        <time>2022-07-15T05:55:38.000Z</time>
      </trkpt>
      <trkpt lat="49.79415" lon="4.79845">
        <ele>285</ele>
        <time>2022-07-15T05:55:39.000Z</time>
      </trkpt>
      <trkpt lat="49.79417" lon="4.79844">
        <ele>285</ele>
        <time>2022-07-15T05:55:40.000Z</time>
      </trkpt>
      <trkpt lat="49.79419" lon="4.79844">
        <ele>285</ele>
        <time>2022-07-15T05:55:41.000Z</time>
      </trkpt>
      <trkpt lat="49.79421" lon="4.79843">
        <ele>286</ele>
        <time>2022-07-15T05:55:42.000Z</time>
      </trkpt>
      <trkpt lat="49.79424" lon="4.79842">
        <ele>286</ele>
        <time>2022-07-15T05:55:43.000Z</time>
      </trkpt>
      <trkpt lat="49.79427" lon="4.79842">
        <ele>286</ele>
        <time>2022-07-15T05:55:44.000Z</time>
      </trkpt>
      <trkpt lat="49.7943" lon="4.79842">
        <ele>286</ele>
        <time>2022-07-15T05:55:45.000Z</time>
      </trkpt>
      <trkpt lat="49.79433" lon="4.79842">
        <ele>286</ele>
        <time>2022-07-15T05:55:46.000Z</time>
      </trkpt>
      <trkpt lat="49.79435" lon="4.79842">
        <ele>287</ele>
        <time>2022-07-15T05:55:47.000Z</time>
      </trkpt>
      <trkpt lat="49.79438" lon="4.79842">
        <ele>287</ele>
        <time>2022-07-15T05:55:48.000Z</time>
      </trkpt>
      <trkpt lat="49.7944" lon="4.79842">
        <ele>287</ele>
        <time>2022-07-15T05:55:49.000Z</time>
      </trkpt>
      <trkpt lat="49.79443" lon="4.79841">
        <ele>287</ele>
        <time>2022-07-15T05:55:50.000Z</time>
      </trkpt>
      <trkpt lat="49.79446" lon="4.7984">
        <ele>288</ele>
        <time>2022-07-15T05:55:51.000Z</time>
      </trkpt>
      <trkpt lat="49.79449" lon="4.79839">
        <ele>288</ele>
        <time>2022-07-15T05:55:52.000Z</time>
      </trkpt>
      <trkpt lat="49.79452" lon="4.79839">
        <ele>288</ele>
        <time>2022-07-15T05:55:53.000Z</time>
      </trkpt>
      <trkpt lat="49.79456" lon="4.79839">
        <ele>289</ele>
        <time>2022-07-15T05:55:54.000Z</time>
      </trkpt>
      <trkpt lat="49.7946" lon="4.79839">
        <ele>289</ele>
        <time>2022-07-15T05:55:55.000Z</time>
      </trkpt>
      <trkpt lat="49.79463" lon="4.79838">
        <ele>290</ele>
        <time>2022-07-15T05:55:56.000Z</time>
      </trkpt>
      <trkpt lat="49.79465" lon="4.79838">
        <ele>290</ele>
        <time>2022-07-15T05:55:57.000Z</time>
      </trkpt>
      <trkpt lat="49.79469" lon="4.79837">
        <ele>290</ele>
        <time>2022-07-15T05:55:58.000Z</time>
      </trkpt>
      <trkpt lat="49.79472" lon="4.79837">
        <ele>290</ele>
        <time>2022-07-15T05:55:59.000Z</time>
      </trkpt>
      <trkpt lat="49.79475" lon="4.79836">
        <ele>291</ele>
        <time>2022-07-15T05:56:00.000Z</time>
      </trkpt>
      <trkpt lat="49.79478" lon="4.79836">
        <ele>291</ele>
        <time>2022-07-15T05:56:01.000Z</time>
      </trkpt>
      <trkpt lat="49.79481" lon="4.79836">
        <ele>292</ele>
        <time>2022-07-15T05:56:02.000Z</time>
      </trkpt>
      <trkpt lat="49.79484" lon="4.79836">
        <ele>292</ele>
        <time>2022-07-15T05:56:03.000Z</time>
      </trkpt>
      <trkpt lat="49.79486" lon="4.79836">
        <ele>292</ele>
        <time>2022-07-15T05:56:04.000Z</time>
      </trkpt>
      <trkpt lat="49.79489" lon="4.79836">
        <ele>293</ele>
        <time>2022-07-15T05:56:05.000Z</time>
      </trkpt>
      <trkpt lat="49.79492" lon="4.79836">
        <ele>293</ele>
        <time>2022-07-15T05:56:06.000Z</time>
      </trkpt>
      <trkpt lat="49.79495" lon="4.79834">
        <ele>293</ele>
        <time>2022-07-15T05:56:07.000Z</time>
      </trkpt>
      <trkpt lat="49.79498" lon="4.79833">
        <ele>294</ele>
        <time>2022-07-15T05:56:08.000Z</time>
      </trkpt>
      <trkpt lat="49.79501" lon="4.79834">
        <ele>294</ele>
        <time>2022-07-15T05:56:09.000Z</time>
      </trkpt>
      <trkpt lat="49.79503" lon="4.79834">
        <ele>294</ele>
        <time>2022-07-15T05:56:10.000Z</time>
      </trkpt>
      <trkpt lat="49.79506" lon="4.79833">
        <ele>294</ele>
        <time>2022-07-15T05:56:11.000Z</time>
      </trkpt>
      <trkpt lat="49.79508" lon="4.79832">
        <ele>295</ele>
        <time>2022-07-15T05:56:12.000Z</time>
      </trkpt>
      <trkpt lat="49.79511" lon="4.79832">
        <ele>295</ele>
        <time>2022-07-15T05:56:13.000Z</time>
      </trkpt>
      <trkpt lat="49.79514" lon="4.79831">
        <ele>295</ele>
        <time>2022-07-15T05:56:14.000Z</time>
      </trkpt>
      <trkpt lat="49.79517" lon="4.79832">
        <ele>295</ele>
        <time>2022-07-15T05:56:15.000Z</time>
      </trkpt>
      <trkpt lat="49.79521" lon="4.79831">
        <ele>296</ele>
        <time>2022-07-15T05:56:16.000Z</time>
      </trkpt>
      <trkpt lat="49.79523" lon="4.79831">
        <ele>296</ele>
        <time>2022-07-15T05:56:17.000Z</time>
      </trkpt>
      <trkpt lat="49.79527" lon="4.7983">
        <ele>296</ele>
        <time>2022-07-15T05:56:18.000Z</time>
      </trkpt>
      <trkpt lat="49.7953" lon="4.7983">
        <ele>296</ele>
        <time>2022-07-15T05:56:19.000Z</time>
      </trkpt>
      <trkpt lat="49.79533" lon="4.79829">
        <ele>296</ele>
        <time>2022-07-15T05:56:20.000Z</time>
      </trkpt>
      <trkpt lat="49.79536" lon="4.79829">
        <ele>297</ele>
        <time>2022-07-15T05:56:21.000Z</time>
      </trkpt>
      <trkpt lat="49.79539" lon="4.79829">
        <ele>297</ele>
        <time>2022-07-15T05:56:22.000Z</time>
      </trkpt>
      <trkpt lat="49.79542" lon="4.79829">
        <ele>297</ele>
        <time>2022-07-15T05:56:23.000Z</time>
      </trkpt>
      <trkpt lat="49.79545" lon="4.79829">
        <ele>298</ele>
        <time>2022-07-15T05:56:24.000Z</time>
      </trkpt>
      <trkpt lat="49.79549" lon="4.7983">
        <ele>298</ele>
        <time>2022-07-15T05:56:25.000Z</time>
      </trkpt>
      <trkpt lat="49.79552" lon="4.7983">
        <ele>298</ele>
        <time>2022-07-15T05:56:26.000Z</time>
      </trkpt>
      <trkpt lat="49.79555" lon="4.7983">
        <ele>298</ele>
        <time>2022-07-15T05:56:27.000Z</time>
      </trkpt>
      <trkpt lat="49.79558" lon="4.7983">
        <ele>298</ele>
        <time>2022-07-15T05:56:28.000Z</time>
      </trkpt>
      <trkpt lat="49.79561" lon="4.7983">
        <ele>299</ele>
        <time>2022-07-15T05:56:29.000Z</time>
      </trkpt>
      <trkpt lat="49.79563" lon="4.7983">
        <ele>299</ele>
        <time>2022-07-15T05:56:30.000Z</time>
      </trkpt>
      <trkpt lat="49.79566" lon="4.7983">
        <ele>299</ele>
        <time>2022-07-15T05:56:31.000Z</time>
      </trkpt>
      <trkpt lat="49.79569" lon="4.7983">
        <ele>299</ele>
        <time>2022-07-15T05:56:32.000Z</time>
      </trkpt>
      <trkpt lat="49.79573" lon="4.79829">
        <ele>300</ele>
        <time>2022-07-15T05:56:33.000Z</time>
      </trkpt>
      <trkpt lat="49.79577" lon="4.79828">
        <ele>300</ele>
        <time>2022-07-15T05:56:34.000Z</time>
      </trkpt>
      <trkpt lat="49.7958" lon="4.79827">
        <ele>300</ele>
        <time>2022-07-15T05:56:35.000Z</time>
      </trkpt>
      <trkpt lat="49.79584" lon="4.79827">
        <ele>300</ele>
        <time>2022-07-15T05:56:36.000Z</time>
      </trkpt>
      <trkpt lat="49.79587" lon="4.79827">
        <ele>301</ele>
        <time>2022-07-15T05:56:37.000Z</time>
      </trkpt>
      <trkpt lat="49.7959" lon="4.79826">
        <ele>301</ele>
        <time>2022-07-15T05:56:38.000Z</time>
      </trkpt>
      <trkpt lat="49.79593" lon="4.79826">
        <ele>301</ele>
        <time>2022-07-15T05:56:39.000Z</time>
      </trkpt>
      <trkpt lat="49.79596" lon="4.79825">
        <ele>301</ele>
        <time>2022-07-15T05:56:40.000Z</time>
      </trkpt>
      <trkpt lat="49.79598" lon="4.79825">
        <ele>301</ele>
        <time>2022-07-15T05:56:41.000Z</time>
      </trkpt>
      <trkpt lat="49.79601" lon="4.79825">
        <ele>301</ele>
        <time>2022-07-15T05:56:42.000Z</time>
      </trkpt>
      <trkpt lat="49.79603" lon="4.79825">
        <ele>302</ele>
        <time>2022-07-15T05:56:43.000Z</time>
      </trkpt>
      <trkpt lat="49.79606" lon="4.79824">
        <ele>302</ele>
        <time>2022-07-15T05:56:44.000Z</time>
      </trkpt>
      <trkpt lat="49.79608" lon="4.79824">
        <ele>302</ele>
        <time>2022-07-15T05:56:45.000Z</time>
      </trkpt>
      <trkpt lat="49.7961" lon="4.79824">
        <ele>302</ele>
        <time>2022-07-15T05:56:46.000Z</time>
      </trkpt>
      <trkpt lat="49.79612" lon="4.79824">
        <ele>302</ele>
        <time>2022-07-15T05:56:47.000Z</time>
      </trkpt>
      <trkpt lat="49.79615" lon="4.79823">
        <ele>302</ele>
        <time>2022-07-15T05:56:48.000Z</time>
      </trkpt>
      <trkpt lat="49.79617" lon="4.79823">
        <ele>303</ele>
        <time>2022-07-15T05:56:49.000Z</time>
      </trkpt>
      <trkpt lat="49.7962" lon="4.79823">
        <ele>303</ele>
        <time>2022-07-15T05:56:50.000Z</time>
      </trkpt>
      <trkpt lat="49.79623" lon="4.79822">
        <ele>303</ele>
        <time>2022-07-15T05:56:51.000Z</time>
      </trkpt>
      <trkpt lat="49.79626" lon="4.79822">
        <ele>303</ele>
        <time>2022-07-15T05:56:52.000Z</time>
      </trkpt>
      <trkpt lat="49.79629" lon="4.79822">
        <ele>303</ele>
        <time>2022-07-15T05:56:53.000Z</time>
      </trkpt>
      <trkpt lat="49.79632" lon="4.79822">
        <ele>303</ele>
        <time>2022-07-15T05:56:54.000Z</time>
      </trkpt>
      <trkpt lat="49.79635" lon="4.79822">
        <ele>303</ele>
        <time>2022-07-15T05:56:55.000Z</time>
      </trkpt>
      <trkpt lat="49.79638" lon="4.79822">
        <ele>303</ele>
        <time>2022-07-15T05:56:56.000Z</time>
      </trkpt>
      <trkpt lat="49.79641" lon="4.79822">
        <ele>303</ele>
        <time>2022-07-15T05:56:57.000Z</time>
      </trkpt>
      <trkpt lat="49.79644" lon="4.79822">
        <ele>303</ele>
        <time>2022-07-15T05:56:58.000Z</time>
      </trkpt>
      <trkpt lat="49.79647" lon="4.79822">
        <ele>303</ele>
        <time>2022-07-15T05:56:59.000Z</time>
      </trkpt>
      <trkpt lat="49.7965" lon="4.79821">
        <ele>303</ele>
        <time>2022-07-15T05:57:00.000Z</time>
      </trkpt>
      <trkpt lat="49.79654" lon="4.79821">
        <ele>304</ele>
        <time>2022-07-15T05:57:01.000Z</time>
      </trkpt>
      <trkpt lat="49.79658" lon="4.79821">
        <ele>304</ele>
        <time>2022-07-15T05:57:02.000Z</time>
      </trkpt>
      <trkpt lat="49.79662" lon="4.79821">
        <ele>304</ele>
        <time>2022-07-15T05:57:03.000Z</time>
      </trkpt>
      <trkpt lat="49.79667" lon="4.79821">
        <ele>304</ele>
        <time>2022-07-15T05:57:04.000Z</time>
      </trkpt>
      <trkpt lat="49.79672" lon="4.7982">
        <ele>304</ele>
        <time>2022-07-15T05:57:05.000Z</time>
      </trkpt>
      <trkpt lat="49.79676" lon="4.79818">
        <ele>305</ele>
        <time>2022-07-15T05:57:06.000Z</time>
      </trkpt>
      <trkpt lat="49.7968" lon="4.79817">
        <ele>305</ele>
        <time>2022-07-15T05:57:07.000Z</time>
      </trkpt>
      <trkpt lat="49.79684" lon="4.79817">
        <ele>305</ele>
        <time>2022-07-15T05:57:08.000Z</time>
      </trkpt>
      <trkpt lat="49.79689" lon="4.79817">
        <ele>305</ele>
        <time>2022-07-15T05:57:09.000Z</time>
      </trkpt>
      <trkpt lat="49.79693" lon="4.79817">
        <ele>305</ele>
        <time>2022-07-15T05:57:10.000Z</time>
      </trkpt>
      <trkpt lat="49.79697" lon="4.79816">
        <ele>305</ele>
        <time>2022-07-15T05:57:11.000Z</time>
      </trkpt>
      <trkpt lat="49.79702" lon="4.79816">
        <ele>306</ele>
        <time>2022-07-15T05:57:12.000Z</time>
      </trkpt>
      <trkpt lat="49.79706" lon="4.79815">
        <ele>306</ele>
        <time>2022-07-15T05:57:13.000Z</time>
      </trkpt>
      <trkpt lat="49.79709" lon="4.79815">
        <ele>306</ele>
        <time>2022-07-15T05:57:14.000Z</time>
      </trkpt>
      <trkpt lat="49.79713" lon="4.79815">
        <ele>306</ele>
        <time>2022-07-15T05:57:15.000Z</time>
      </trkpt>
      <trkpt lat="49.79717" lon="4.79814">
        <ele>306</ele>
        <time>2022-07-15T05:57:16.000Z</time>
      </trkpt>
      <trkpt lat="49.79721" lon="4.79814">
        <ele>306</ele>
        <time>2022-07-15T05:57:17.000Z</time>
      </trkpt>
      <trkpt lat="49.79725" lon="4.79813">
        <ele>306</ele>
        <time>2022-07-15T05:57:18.000Z</time>
      </trkpt>
      <trkpt lat="49.79729" lon="4.79813">
        <ele>306</ele>
        <time>2022-07-15T05:57:19.000Z</time>
      </trkpt>
      <trkpt lat="49.79732" lon="4.79812">
        <ele>306</ele>
        <time>2022-07-15T05:57:20.000Z</time>
      </trkpt>
      <trkpt lat="49.79736" lon="4.79812">
        <ele>306</ele>
        <time>2022-07-15T05:57:21.000Z</time>
      </trkpt>
      <trkpt lat="49.79741" lon="4.79811">
        <ele>306</ele>
        <time>2022-07-15T05:57:22.000Z</time>
      </trkpt>
      <trkpt lat="49.79745" lon="4.79811">
        <ele>306</ele>
        <time>2022-07-15T05:57:23.000Z</time>
      </trkpt>
      <trkpt lat="49.79749" lon="4.79811">
        <ele>306</ele>
        <time>2022-07-15T05:57:24.000Z</time>
      </trkpt>
      <trkpt lat="49.79753" lon="4.79812">
        <ele>306</ele>
        <time>2022-07-15T05:57:25.000Z</time>
      </trkpt>
      <trkpt lat="49.79757" lon="4.79811">
        <ele>306</ele>
        <time>2022-07-15T05:57:26.000Z</time>
      </trkpt>
      <trkpt lat="49.7976" lon="4.79812">
        <ele>306</ele>
        <time>2022-07-15T05:57:27.000Z</time>
      </trkpt>
      <trkpt lat="49.79764" lon="4.79811">
        <ele>306</ele>
        <time>2022-07-15T05:57:28.000Z</time>
      </trkpt>
      <trkpt lat="49.79768" lon="4.79811">
        <ele>306</ele>
        <time>2022-07-15T05:57:29.000Z</time>
      </trkpt>
      <trkpt lat="49.79772" lon="4.79811">
        <ele>306</ele>
        <time>2022-07-15T05:57:30.000Z</time>
      </trkpt>
      <trkpt lat="49.79777" lon="4.79811">
        <ele>306</ele>
        <time>2022-07-15T05:57:31.000Z</time>
      </trkpt>
      <trkpt lat="49.79782" lon="4.79811">
        <ele>306</ele>
        <time>2022-07-15T05:57:32.000Z</time>
      </trkpt>
      <trkpt lat="49.79788" lon="4.7981">
        <ele>306</ele>
        <time>2022-07-15T05:57:33.000Z</time>
      </trkpt>
      <trkpt lat="49.79793" lon="4.7981">
        <ele>307</ele>
        <time>2022-07-15T05:57:34.000Z</time>
      </trkpt>
      <trkpt lat="49.79799" lon="4.7981">
        <ele>307</ele>
        <time>2022-07-15T05:57:35.000Z</time>
      </trkpt>
      <trkpt lat="49.79804" lon="4.7981">
        <ele>307</ele>
        <time>2022-07-15T05:57:36.000Z</time>
      </trkpt>
      <trkpt lat="49.79809" lon="4.7981">
        <ele>307</ele>
        <time>2022-07-15T05:57:37.000Z</time>
      </trkpt>
      <trkpt lat="49.79814" lon="4.79809">
        <ele>307</ele>
        <time>2022-07-15T05:57:38.000Z</time>
      </trkpt>
      <trkpt lat="49.79819" lon="4.79808">
        <ele>307</ele>
        <time>2022-07-15T05:57:39.000Z</time>
      </trkpt>
      <trkpt lat="49.79823" lon="4.79808">
        <ele>307</ele>
        <time>2022-07-15T05:57:40.000Z</time>
      </trkpt>
      <trkpt lat="49.79827" lon="4.79807">
        <ele>307</ele>
        <time>2022-07-15T05:57:41.000Z</time>
      </trkpt>
      <trkpt lat="49.79831" lon="4.79807">
        <ele>307</ele>
        <time>2022-07-15T05:57:42.000Z</time>
      </trkpt>
      <trkpt lat="49.79836" lon="4.79807">
        <ele>307</ele>
        <time>2022-07-15T05:57:43.000Z</time>
      </trkpt>
      <trkpt lat="49.79841" lon="4.79806">
        <ele>307</ele>
        <time>2022-07-15T05:57:44.000Z</time>
      </trkpt>
      <trkpt lat="49.79846" lon="4.79806">
        <ele>307</ele>
        <time>2022-07-15T05:57:45.000Z</time>
      </trkpt>
      <trkpt lat="49.79851" lon="4.79805">
        <ele>307</ele>
        <time>2022-07-15T05:57:46.000Z</time>
      </trkpt>
      <trkpt lat="49.79856" lon="4.79805">
        <ele>307</ele>
        <time>2022-07-15T05:57:47.000Z</time>
      </trkpt>
      <trkpt lat="49.79861" lon="4.79804">
        <ele>307</ele>
        <time>2022-07-15T05:57:48.000Z</time>
      </trkpt>
      <trkpt lat="49.79865" lon="4.79804">
        <ele>307</ele>
        <time>2022-07-15T05:57:49.000Z</time>
      </trkpt>
      <trkpt lat="49.79869" lon="4.79803">
        <ele>307</ele>
        <time>2022-07-15T05:57:50.000Z</time>
      </trkpt>
      <trkpt lat="49.79873" lon="4.79802">
        <ele>307</ele>
        <time>2022-07-15T05:57:51.000Z</time>
      </trkpt>
      <trkpt lat="49.79875" lon="4.79802">
        <ele>307</ele>
        <time>2022-07-15T05:57:52.000Z</time>
      </trkpt>
      <trkpt lat="49.79879" lon="4.79802">
        <ele>307</ele>
        <time>2022-07-15T05:57:53.000Z</time>
      </trkpt>
      <trkpt lat="49.79883" lon="4.79802">
        <ele>307</ele>
        <time>2022-07-15T05:57:54.000Z</time>
      </trkpt>
      <trkpt lat="49.79887" lon="4.79801">
        <ele>307</ele>
        <time>2022-07-15T05:57:55.000Z</time>
      </trkpt>
      <trkpt lat="49.79891" lon="4.79801">
        <ele>307</ele>
        <time>2022-07-15T05:57:56.000Z</time>
      </trkpt>
      <trkpt lat="49.79896" lon="4.79801">
        <ele>307</ele>
        <time>2022-07-15T05:57:57.000Z</time>
      </trkpt>
      <trkpt lat="49.79901" lon="4.798">
        <ele>307</ele>
        <time>2022-07-15T05:57:58.000Z</time>
      </trkpt>
      <trkpt lat="49.79906" lon="4.798">
        <ele>307</ele>
        <time>2022-07-15T05:57:59.000Z</time>
      </trkpt>
      <trkpt lat="49.7991" lon="4.79799">
        <ele>308</ele>
        <time>2022-07-15T05:58:00.000Z</time>
      </trkpt>
      <trkpt lat="49.79915" lon="4.79799">
        <ele>308</ele>
        <time>2022-07-15T05:58:01.000Z</time>
      </trkpt>
      <trkpt lat="49.7992" lon="4.79798">
        <ele>308</ele>
        <time>2022-07-15T05:58:02.000Z</time>
      </trkpt>
      <trkpt lat="49.79925" lon="4.79798">
        <ele>308</ele>
        <time>2022-07-15T05:58:03.000Z</time>
      </trkpt>
      <trkpt lat="49.7993" lon="4.79797">
        <ele>308</ele>
        <time>2022-07-15T05:58:04.000Z</time>
      </trkpt>
      <trkpt lat="49.79935" lon="4.79797">
        <ele>308</ele>
        <time>2022-07-15T05:58:05.000Z</time>
      </trkpt>
      <trkpt lat="49.7994" lon="4.79796">
        <ele>308</ele>
        <time>2022-07-15T05:58:06.000Z</time>
      </trkpt>
      <trkpt lat="49.79945" lon="4.79795">
        <ele>308</ele>
        <time>2022-07-15T05:58:07.000Z</time>
      </trkpt>
      <trkpt lat="49.79951" lon="4.79795">
        <ele>308</ele>
        <time>2022-07-15T05:58:08.000Z</time>
      </trkpt>
      <trkpt lat="49.79956" lon="4.79794">
        <ele>309</ele>
        <time>2022-07-15T05:58:09.000Z</time>
      </trkpt>
      <trkpt lat="49.79962" lon="4.79793">
        <ele>309</ele>
        <time>2022-07-15T05:58:10.000Z</time>
      </trkpt>
      <trkpt lat="49.79967" lon="4.79793">
        <ele>309</ele>
        <time>2022-07-15T05:58:11.000Z</time>
      </trkpt>
      <trkpt lat="49.79971" lon="4.79793">
        <ele>309</ele>
        <time>2022-07-15T05:58:12.000Z</time>
      </trkpt>
      <trkpt lat="49.79976" lon="4.79792">
        <ele>309</ele>
        <time>2022-07-15T05:58:13.000Z</time>
      </trkpt>
      <trkpt lat="49.79981" lon="4.79791">
        <ele>309</ele>
        <time>2022-07-15T05:58:14.000Z</time>
      </trkpt>
      <trkpt lat="49.79986" lon="4.79791">
        <ele>308</ele>
        <time>2022-07-15T05:58:15.000Z</time>
      </trkpt>
      <trkpt lat="49.7999" lon="4.79791">
        <ele>308</ele>
        <time>2022-07-15T05:58:16.000Z</time>
      </trkpt>
      <trkpt lat="49.79995" lon="4.79791">
        <ele>308</ele>
        <time>2022-07-15T05:58:17.000Z</time>
      </trkpt>
      <trkpt lat="49.79999" lon="4.79791">
        <ele>308</ele>
        <time>2022-07-15T05:58:18.000Z</time>
      </trkpt>
      <trkpt lat="49.80003" lon="4.79791">
        <ele>308</ele>
        <time>2022-07-15T05:58:19.000Z</time>
      </trkpt>
      <trkpt lat="49.80007" lon="4.79792">
        <ele>308</ele>
        <time>2022-07-15T05:58:20.000Z</time>
      </trkpt>
      <trkpt lat="49.80011" lon="4.79792">
        <ele>308</ele>
        <time>2022-07-15T05:58:21.000Z</time>
      </trkpt>
      <trkpt lat="49.80016" lon="4.79791">
        <ele>308</ele>
        <time>2022-07-15T05:58:22.000Z</time>
      </trkpt>
      <trkpt lat="49.80021" lon="4.7979">
        <ele>308</ele>
        <time>2022-07-15T05:58:23.000Z</time>
      </trkpt>
      <trkpt lat="49.80025" lon="4.79789">
        <ele>308</ele>
        <time>2022-07-15T05:58:24.000Z</time>
      </trkpt>
      <trkpt lat="49.8003" lon="4.79789">
        <ele>308</ele>
        <time>2022-07-15T05:58:25.000Z</time>
      </trkpt>
      <trkpt lat="49.80036" lon="4.79788">
        <ele>308</ele>
        <time>2022-07-15T05:58:26.000Z</time>
      </trkpt>
      <trkpt lat="49.80041" lon="4.79787">
        <ele>308</ele>
        <time>2022-07-15T05:58:27.000Z</time>
      </trkpt>
      <trkpt lat="49.80046" lon="4.79787">
        <ele>308</ele>
        <time>2022-07-15T05:58:28.000Z</time>
      </trkpt>
      <trkpt lat="49.8005" lon="4.79786">
        <ele>307</ele>
        <time>2022-07-15T05:58:29.000Z</time>
      </trkpt>
      <trkpt lat="49.80054" lon="4.79785">
        <ele>307</ele>
        <time>2022-07-15T05:58:30.000Z</time>
      </trkpt>
      <trkpt lat="49.80059" lon="4.79785">
        <ele>307</ele>
        <time>2022-07-15T05:58:31.000Z</time>
      </trkpt>
      <trkpt lat="49.80064" lon="4.79784">
        <ele>307</ele>
        <time>2022-07-15T05:58:32.000Z</time>
      </trkpt>
      <trkpt lat="49.8007" lon="4.79784">
        <ele>307</ele>
        <time>2022-07-15T05:58:33.000Z</time>
      </trkpt>
      <trkpt lat="49.80075" lon="4.79783">
        <ele>307</ele>
        <time>2022-07-15T05:58:34.000Z</time>
      </trkpt>
      <trkpt lat="49.80081" lon="4.79783">
        <ele>307</ele>
        <time>2022-07-15T05:58:35.000Z</time>
      </trkpt>
      <trkpt lat="49.80086" lon="4.79783">
        <ele>307</ele>
        <time>2022-07-15T05:58:36.000Z</time>
      </trkpt>
      <trkpt lat="49.80091" lon="4.79782">
        <ele>307</ele>
        <time>2022-07-15T05:58:37.000Z</time>
      </trkpt>
      <trkpt lat="49.80096" lon="4.79782">
        <ele>307</ele>
        <time>2022-07-15T05:58:38.000Z</time>
      </trkpt>
      <trkpt lat="49.80101" lon="4.79781">
        <ele>307</ele>
        <time>2022-07-15T05:58:39.000Z</time>
      </trkpt>
      <trkpt lat="49.80106" lon="4.79781">
        <ele>307</ele>
        <time>2022-07-15T05:58:40.000Z</time>
      </trkpt>
      <trkpt lat="49.80111" lon="4.7978">
        <ele>306</ele>
        <time>2022-07-15T05:58:41.000Z</time>
      </trkpt>
      <trkpt lat="49.80116" lon="4.79779">
        <ele>306</ele>
        <time>2022-07-15T05:58:42.000Z</time>
      </trkpt>
      <trkpt lat="49.80121" lon="4.79778">
        <ele>306</ele>
        <time>2022-07-15T05:58:43.000Z</time>
      </trkpt>
      <trkpt lat="49.80126" lon="4.79778">
        <ele>306</ele>
        <time>2022-07-15T05:58:44.000Z</time>
      </trkpt>
      <trkpt lat="49.80131" lon="4.79777">
        <ele>306</ele>
        <time>2022-07-15T05:58:45.000Z</time>
      </trkpt>
      <trkpt lat="49.80135" lon="4.79777">
        <ele>305</ele>
        <time>2022-07-15T05:58:46.000Z</time>
      </trkpt>
      <trkpt lat="49.80139" lon="4.79776">
        <ele>305</ele>
        <time>2022-07-15T05:58:47.000Z</time>
      </trkpt>
      <trkpt lat="49.80143" lon="4.79774">
        <ele>305</ele>
        <time>2022-07-15T05:58:48.000Z</time>
      </trkpt>
      <trkpt lat="49.80146" lon="4.79772">
        <ele>305</ele>
        <time>2022-07-15T05:58:49.000Z</time>
      </trkpt>
      <trkpt lat="49.8015" lon="4.79772">
        <ele>305</ele>
        <time>2022-07-15T05:58:50.000Z</time>
      </trkpt>
      <trkpt lat="49.80152" lon="4.79773">
        <ele>304</ele>
        <time>2022-07-15T05:58:51.000Z</time>
      </trkpt>
      <trkpt lat="49.80154" lon="4.79775">
        <ele>304</ele>
        <time>2022-07-15T05:58:52.000Z</time>
      </trkpt>
      <trkpt lat="49.80157" lon="4.79777">
        <ele>304</ele>
        <time>2022-07-15T05:58:53.000Z</time>
      </trkpt>
      <trkpt lat="49.8016" lon="4.79781">
        <ele>304</ele>
        <time>2022-07-15T05:58:54.000Z</time>
      </trkpt>
      <trkpt lat="49.80164" lon="4.79784">
        <ele>304</ele>
        <time>2022-07-15T05:58:55.000Z</time>
      </trkpt>
      <trkpt lat="49.80166" lon="4.79788">
        <ele>303</ele>
        <time>2022-07-15T05:58:56.000Z</time>
      </trkpt>
      <trkpt lat="49.80169" lon="4.79792">
        <ele>303</ele>
        <time>2022-07-15T05:58:57.000Z</time>
      </trkpt>
      <trkpt lat="49.80171" lon="4.79797">
        <ele>303</ele>
        <time>2022-07-15T05:58:58.000Z</time>
      </trkpt>
      <trkpt lat="49.80174" lon="4.79801">
        <ele>302</ele>
        <time>2022-07-15T05:58:59.000Z</time>
      </trkpt>
      <trkpt lat="49.80177" lon="4.79804">
        <ele>302</ele>
        <time>2022-07-15T05:59:00.000Z</time>
      </trkpt>
      <trkpt lat="49.80179" lon="4.79808">
        <ele>302</ele>
        <time>2022-07-15T05:59:01.000Z</time>
      </trkpt>
      <trkpt lat="49.80181" lon="4.79812">
        <ele>302</ele>
        <time>2022-07-15T05:59:02.000Z</time>
      </trkpt>
      <trkpt lat="49.80183" lon="4.79815">
        <ele>301</ele>
        <time>2022-07-15T05:59:03.000Z</time>
      </trkpt>
      <trkpt lat="49.80185" lon="4.79817">
        <ele>301</ele>
        <time>2022-07-15T05:59:04.000Z</time>
      </trkpt>
      <trkpt lat="49.80188" lon="4.79818">
        <ele>301</ele>
        <time>2022-07-15T05:59:05.000Z</time>
      </trkpt>
      <trkpt lat="49.80191" lon="4.79817">
        <ele>301</ele>
        <time>2022-07-15T05:59:06.000Z</time>
      </trkpt>
      <trkpt lat="49.80195" lon="4.79818">
        <ele>301</ele>
        <time>2022-07-15T05:59:07.000Z</time>
      </trkpt>
      <trkpt lat="49.80198" lon="4.79819">
        <ele>301</ele>
        <time>2022-07-15T05:59:08.000Z</time>
      </trkpt>
      <trkpt lat="49.80201" lon="4.7982">
        <ele>301</ele>
        <time>2022-07-15T05:59:09.000Z</time>
      </trkpt>
      <trkpt lat="49.80204" lon="4.79821">
        <ele>301</ele>
        <time>2022-07-15T05:59:10.000Z</time>
      </trkpt>
      <trkpt lat="49.80208" lon="4.79821">
        <ele>300</ele>
        <time>2022-07-15T05:59:11.000Z</time>
      </trkpt>
      <trkpt lat="49.80211" lon="4.79821">
        <ele>300</ele>
        <time>2022-07-15T05:59:12.000Z</time>
      </trkpt>
      <trkpt lat="49.80215" lon="4.79821">
        <ele>300</ele>
        <time>2022-07-15T05:59:13.000Z</time>
      </trkpt>
      <trkpt lat="49.80218" lon="4.7982">
        <ele>300</ele>
        <time>2022-07-15T05:59:14.000Z</time>
      </trkpt>
      <trkpt lat="49.80221" lon="4.7982">
        <ele>301</ele>
        <time>2022-07-15T05:59:15.000Z</time>
      </trkpt>
      <trkpt lat="49.80225" lon="4.79821">
        <ele>301</ele>
        <time>2022-07-15T05:59:16.000Z</time>
      </trkpt>
      <trkpt lat="49.80228" lon="4.79822">
        <ele>301</ele>
        <time>2022-07-15T05:59:17.000Z</time>
      </trkpt>
      <trkpt lat="49.80231" lon="4.79823">
        <ele>301</ele>
        <time>2022-07-15T05:59:18.000Z</time>
      </trkpt>
      <trkpt lat="49.80235" lon="4.79824">
        <ele>301</ele>
        <time>2022-07-15T05:59:19.000Z</time>
      </trkpt>
      <trkpt lat="49.80238" lon="4.79824">
        <ele>301</ele>
        <time>2022-07-15T05:59:20.000Z</time>
      </trkpt>
      <trkpt lat="49.80241" lon="4.79825">
        <ele>301</ele>
        <time>2022-07-15T05:59:21.000Z</time>
      </trkpt>
      <trkpt lat="49.80244" lon="4.79826">
        <ele>301</ele>
        <time>2022-07-15T05:59:22.000Z</time>
      </trkpt>
      <trkpt lat="49.80247" lon="4.79826">
        <ele>301</ele>
        <time>2022-07-15T05:59:23.000Z</time>
      </trkpt>
      <trkpt lat="49.80251" lon="4.79827">
        <ele>301</ele>
        <time>2022-07-15T05:59:24.000Z</time>
      </trkpt>
      <trkpt lat="49.80254" lon="4.79827">
        <ele>301</ele>
        <time>2022-07-15T05:59:25.000Z</time>
      </trkpt>
      <trkpt lat="49.80257" lon="4.79827">
        <ele>301</ele>
        <time>2022-07-15T05:59:26.000Z</time>
      </trkpt>
      <trkpt lat="49.8026" lon="4.79828">
        <ele>301</ele>
        <time>2022-07-15T05:59:27.000Z</time>
      </trkpt>
      <trkpt lat="49.80263" lon="4.79829">
        <ele>301</ele>
        <time>2022-07-15T05:59:28.000Z</time>
      </trkpt>
      <trkpt lat="49.80265" lon="4.7983">
        <ele>301</ele>
        <time>2022-07-15T05:59:29.000Z</time>
      </trkpt>
      <trkpt lat="49.80268" lon="4.7983">
        <ele>301</ele>
        <time>2022-07-15T05:59:30.000Z</time>
      </trkpt>
      <trkpt lat="49.80271" lon="4.7983">
        <ele>301</ele>
        <time>2022-07-15T05:59:31.000Z</time>
      </trkpt>
      <trkpt lat="49.80275" lon="4.7983">
        <ele>301</ele>
        <time>2022-07-15T05:59:32.000Z</time>
      </trkpt>
      <trkpt lat="49.80278" lon="4.79831">
        <ele>301</ele>
        <time>2022-07-15T05:59:33.000Z</time>
      </trkpt>
      <trkpt lat="49.8028" lon="4.79831">
        <ele>301</ele>
        <time>2022-07-15T05:59:34.000Z</time>
      </trkpt>
      <trkpt lat="49.80282" lon="4.79833">
        <ele>301</ele>
        <time>2022-07-15T05:59:35.000Z</time>
      </trkpt>
      <trkpt lat="49.80284" lon="4.79835">
        <ele>301</ele>
        <time>2022-07-15T05:59:36.000Z</time>
      </trkpt>
      <trkpt lat="49.80286" lon="4.79837">
        <ele>301</ele>
        <time>2022-07-15T05:59:37.000Z</time>
      </trkpt>
      <trkpt lat="49.80288" lon="4.7984">
        <ele>301</ele>
        <time>2022-07-15T05:59:38.000Z</time>
      </trkpt>
      <trkpt lat="49.80288" lon="4.79843">
        <ele>301</ele>
        <time>2022-07-15T05:59:39.000Z</time>
      </trkpt>
      <trkpt lat="49.80289" lon="4.79845">
        <ele>301</ele>
        <time>2022-07-15T05:59:40.000Z</time>
      </trkpt>
      <trkpt lat="49.80291" lon="4.79848">
        <ele>301</ele>
        <time>2022-07-15T05:59:41.000Z</time>
      </trkpt>
      <trkpt lat="49.80294" lon="4.7985">
        <ele>301</ele>
        <time>2022-07-15T05:59:42.000Z</time>
      </trkpt>
      <trkpt lat="49.80296" lon="4.79852">
        <ele>301</ele>
        <time>2022-07-15T05:59:43.000Z</time>
      </trkpt>
      <trkpt lat="49.80299" lon="4.79855">
        <ele>301</ele>
        <time>2022-07-15T05:59:44.000Z</time>
      </trkpt>
      <trkpt lat="49.80301" lon="4.79857">
        <ele>301</ele>
        <time>2022-07-15T05:59:45.000Z</time>
      </trkpt>
      <trkpt lat="49.80303" lon="4.7986">
        <ele>301</ele>
        <time>2022-07-15T05:59:46.000Z</time>
      </trkpt>
      <trkpt lat="49.80306" lon="4.79862">
        <ele>301</ele>
        <time>2022-07-15T05:59:47.000Z</time>
      </trkpt>
      <trkpt lat="49.80308" lon="4.79866">
        <ele>301</ele>
        <time>2022-07-15T05:59:48.000Z</time>
      </trkpt>
      <trkpt lat="49.80309" lon="4.79871">
        <ele>300</ele>
        <time>2022-07-15T05:59:49.000Z</time>
      </trkpt>
      <trkpt lat="49.80309" lon="4.79876">
        <ele>300</ele>
        <time>2022-07-15T05:59:50.000Z</time>
      </trkpt>
      <trkpt lat="49.80309" lon="4.79882">
        <ele>300</ele>
        <time>2022-07-15T05:59:51.000Z</time>
      </trkpt>
      <trkpt lat="49.80308" lon="4.79888">
        <ele>300</ele>
        <time>2022-07-15T05:59:52.000Z</time>
      </trkpt>
      <trkpt lat="49.80307" lon="4.79894">
        <ele>299</ele>
        <time>2022-07-15T05:59:53.000Z</time>
      </trkpt>
      <trkpt lat="49.80306" lon="4.799">
        <ele>299</ele>
        <time>2022-07-15T05:59:54.000Z</time>
      </trkpt>
      <trkpt lat="49.80306" lon="4.79906">
        <ele>299</ele>
        <time>2022-07-15T05:59:55.000Z</time>
      </trkpt>
      <trkpt lat="49.80305" lon="4.79912">
        <ele>299</ele>
        <time>2022-07-15T05:59:56.000Z</time>
      </trkpt>
      <trkpt lat="49.80305" lon="4.79918">
        <ele>298</ele>
        <time>2022-07-15T05:59:57.000Z</time>
      </trkpt>
      <trkpt lat="49.80304" lon="4.79923">
        <ele>298</ele>
        <time>2022-07-15T05:59:58.000Z</time>
      </trkpt>
      <trkpt lat="49.80304" lon="4.79928">
        <ele>298</ele>
        <time>2022-07-15T05:59:59.000Z</time>
      </trkpt>
      <trkpt lat="49.80304" lon="4.79934">
        <ele>297</ele>
        <time>2022-07-15T06:00:00.000Z</time>
      </trkpt>
      <trkpt lat="49.80303" lon="4.79939">
        <ele>297</ele>
        <time>2022-07-15T06:00:01.000Z</time>
      </trkpt>
      <trkpt lat="49.80302" lon="4.79945">
        <ele>297</ele>
        <time>2022-07-15T06:00:02.000Z</time>
      </trkpt>
      <trkpt lat="49.80302" lon="4.79952">
        <ele>297</ele>
        <time>2022-07-15T06:00:03.000Z</time>
      </trkpt>
      <trkpt lat="49.80301" lon="4.79959">
        <ele>296</ele>
        <time>2022-07-15T06:00:04.000Z</time>
      </trkpt>
      <trkpt lat="49.803" lon="4.79966">
        <ele>296</ele>
        <time>2022-07-15T06:00:05.000Z</time>
      </trkpt>
      <trkpt lat="49.80299" lon="4.79972">
        <ele>296</ele>
        <time>2022-07-15T06:00:06.000Z</time>
      </trkpt>
      <trkpt lat="49.80298" lon="4.79979">
        <ele>296</ele>
        <time>2022-07-15T06:00:07.000Z</time>
      </trkpt>
      <trkpt lat="49.80297" lon="4.79985">
        <ele>295</ele>
        <time>2022-07-15T06:00:08.000Z</time>
      </trkpt>
      <trkpt lat="49.80297" lon="4.79991">
        <ele>295</ele>
        <time>2022-07-15T06:00:09.000Z</time>
      </trkpt>
      <trkpt lat="49.80295" lon="4.79997">
        <ele>295</ele>
        <time>2022-07-15T06:00:10.000Z</time>
      </trkpt>
      <trkpt lat="49.80294" lon="4.80003">
        <ele>295</ele>
        <time>2022-07-15T06:00:11.000Z</time>
      </trkpt>
      <trkpt lat="49.80293" lon="4.80009">
        <ele>294</ele>
        <time>2022-07-15T06:00:12.000Z</time>
      </trkpt>
      <trkpt lat="49.80293" lon="4.80015">
        <ele>294</ele>
        <time>2022-07-15T06:00:13.000Z</time>
      </trkpt>
      <trkpt lat="49.80293" lon="4.80021">
        <ele>294</ele>
        <time>2022-07-15T06:00:14.000Z</time>
      </trkpt>
      <trkpt lat="49.80294" lon="4.80026">
        <ele>294</ele>
        <time>2022-07-15T06:00:15.000Z</time>
      </trkpt>
      <trkpt lat="49.80296" lon="4.80033">
        <ele>294</ele>
        <time>2022-07-15T06:00:16.000Z</time>
      </trkpt>
      <trkpt lat="49.80297" lon="4.80039">
        <ele>294</ele>
        <time>2022-07-15T06:00:17.000Z</time>
      </trkpt>
      <trkpt lat="49.80298" lon="4.80045">
        <ele>294</ele>
        <time>2022-07-15T06:00:18.000Z</time>
      </trkpt>
      <trkpt lat="49.803" lon="4.80051">
        <ele>294</ele>
        <time>2022-07-15T06:00:19.000Z</time>
      </trkpt>
      <trkpt lat="49.80302" lon="4.80057">
        <ele>294</ele>
        <time>2022-07-15T06:00:20.000Z</time>
      </trkpt>
      <trkpt lat="49.80304" lon="4.80064">
        <ele>294</ele>
        <time>2022-07-15T06:00:21.000Z</time>
      </trkpt>
      <trkpt lat="49.80306" lon="4.8007">
        <ele>293</ele>
        <time>2022-07-15T06:00:22.000Z</time>
      </trkpt>
      <trkpt lat="49.80307" lon="4.80076">
        <ele>293</ele>
        <time>2022-07-15T06:00:23.000Z</time>
      </trkpt>
      <trkpt lat="49.80308" lon="4.80083">
        <ele>293</ele>
        <time>2022-07-15T06:00:24.000Z</time>
      </trkpt>
      <trkpt lat="49.8031" lon="4.80089">
        <ele>293</ele>
        <time>2022-07-15T06:00:25.000Z</time>
      </trkpt>
      <trkpt lat="49.80312" lon="4.80095">
        <ele>293</ele>
        <time>2022-07-15T06:00:26.000Z</time>
      </trkpt>
      <trkpt lat="49.80315" lon="4.80101">
        <ele>292</ele>
        <time>2022-07-15T06:00:27.000Z</time>
      </trkpt>
      <trkpt lat="49.80317" lon="4.80107">
        <ele>292</ele>
        <time>2022-07-15T06:00:28.000Z</time>
      </trkpt>
      <trkpt lat="49.80319" lon="4.80112">
        <ele>292</ele>
        <time>2022-07-15T06:00:29.000Z</time>
      </trkpt>
      <trkpt lat="49.8032" lon="4.80118">
        <ele>292</ele>
        <time>2022-07-15T06:00:30.000Z</time>
      </trkpt>
      <trkpt lat="49.80321" lon="4.80123">
        <ele>291</ele>
        <time>2022-07-15T06:00:31.000Z</time>
      </trkpt>
      <trkpt lat="49.80323" lon="4.80129">
        <ele>291</ele>
        <time>2022-07-15T06:00:32.000Z</time>
      </trkpt>
      <trkpt lat="49.80326" lon="4.80134">
        <ele>291</ele>
        <time>2022-07-15T06:00:33.000Z</time>
      </trkpt>
      <trkpt lat="49.80329" lon="4.80141">
        <ele>291</ele>
        <time>2022-07-15T06:00:34.000Z</time>
      </trkpt>
      <trkpt lat="49.8033" lon="4.80148">
        <ele>290</ele>
        <time>2022-07-15T06:00:35.000Z</time>
      </trkpt>
      <trkpt lat="49.80331" lon="4.80156">
        <ele>290</ele>
        <time>2022-07-15T06:00:36.000Z</time>
      </trkpt>
      <trkpt lat="49.80331" lon="4.80164">
        <ele>290</ele>
        <time>2022-07-15T06:00:37.000Z</time>
      </trkpt>
      <trkpt lat="49.80332" lon="4.80171">
        <ele>289</ele>
        <time>2022-07-15T06:00:38.000Z</time>
      </trkpt>
      <trkpt lat="49.80332" lon="4.80179">
        <ele>289</ele>
        <time>2022-07-15T06:00:39.000Z</time>
      </trkpt>
      <trkpt lat="49.80333" lon="4.80187">
        <ele>289</ele>
        <time>2022-07-15T06:00:40.000Z</time>
      </trkpt>
      <trkpt lat="49.80332" lon="4.80195">
        <ele>289</ele>
        <time>2022-07-15T06:00:41.000Z</time>
      </trkpt>
      <trkpt lat="49.80332" lon="4.80201">
        <ele>288</ele>
        <time>2022-07-15T06:00:42.000Z</time>
      </trkpt>
      <trkpt lat="49.80332" lon="4.80206">
        <ele>288</ele>
        <time>2022-07-15T06:00:43.000Z</time>
      </trkpt>
      <trkpt lat="49.80331" lon="4.80213">
        <ele>288</ele>
        <time>2022-07-15T06:00:44.000Z</time>
      </trkpt>
      <trkpt lat="49.80331" lon="4.80219">
        <ele>288</ele>
        <time>2022-07-15T06:00:45.000Z</time>
      </trkpt>
      <trkpt lat="49.8033" lon="4.80226">
        <ele>287</ele>
        <time>2022-07-15T06:00:46.000Z</time>
      </trkpt>
      <trkpt lat="49.80329" lon="4.80232">
        <ele>287</ele>
        <time>2022-07-15T06:00:47.000Z</time>
      </trkpt>
      <trkpt lat="49.80329" lon="4.80239">
        <ele>287</ele>
        <time>2022-07-15T06:00:48.000Z</time>
      </trkpt>
      <trkpt lat="49.80329" lon="4.80245">
        <ele>287</ele>
        <time>2022-07-15T06:00:49.000Z</time>
      </trkpt>
      <trkpt lat="49.80328" lon="4.80252">
        <ele>286</ele>
        <time>2022-07-15T06:00:50.000Z</time>
      </trkpt>
      <trkpt lat="49.80326" lon="4.80258">
        <ele>286</ele>
        <time>2022-07-15T06:00:51.000Z</time>
      </trkpt>
      <trkpt lat="49.80324" lon="4.80264">
        <ele>286</ele>
        <time>2022-07-15T06:00:52.000Z</time>
      </trkpt>
      <trkpt lat="49.80322" lon="4.8027">
        <ele>285</ele>
        <time>2022-07-15T06:00:53.000Z</time>
      </trkpt>
      <trkpt lat="49.80319" lon="4.80275">
        <ele>285</ele>
        <time>2022-07-15T06:00:54.000Z</time>
      </trkpt>
      <trkpt lat="49.80316" lon="4.80281">
        <ele>285</ele>
        <time>2022-07-15T06:00:55.000Z</time>
      </trkpt>
      <trkpt lat="49.80314" lon="4.80286">
        <ele>285</ele>
        <time>2022-07-15T06:00:56.000Z</time>
      </trkpt>
      <trkpt lat="49.80311" lon="4.80292">
        <ele>284</ele>
        <time>2022-07-15T06:00:57.000Z</time>
      </trkpt>
      <trkpt lat="49.80308" lon="4.80299">
        <ele>284</ele>
        <time>2022-07-15T06:00:58.000Z</time>
      </trkpt>
      <trkpt lat="49.80306" lon="4.80306">
        <ele>284</ele>
        <time>2022-07-15T06:00:59.000Z</time>
      </trkpt>
      <trkpt lat="49.80304" lon="4.80313">
        <ele>283</ele>
        <time>2022-07-15T06:01:00.000Z</time>
      </trkpt>
      <trkpt lat="49.80302" lon="4.8032">
        <ele>283</ele>
        <time>2022-07-15T06:01:01.000Z</time>
      </trkpt>
      <trkpt lat="49.803" lon="4.80327">
        <ele>283</ele>
        <time>2022-07-15T06:01:02.000Z</time>
      </trkpt>
      <trkpt lat="49.80298" lon="4.80333">
        <ele>282</ele>
        <time>2022-07-15T06:01:03.000Z</time>
      </trkpt>
      <trkpt lat="49.80296" lon="4.80338">
        <ele>282</ele>
        <time>2022-07-15T06:01:04.000Z</time>
      </trkpt>
      <trkpt lat="49.80293" lon="4.80342">
        <ele>282</ele>
        <time>2022-07-15T06:01:05.000Z</time>
      </trkpt>
      <trkpt lat="49.80291" lon="4.80344">
        <ele>282</ele>
        <time>2022-07-15T06:01:06.000Z</time>
      </trkpt>
      <trkpt lat="49.80288" lon="4.80344">
        <ele>281</ele>
        <time>2022-07-15T06:01:07.000Z</time>
      </trkpt>
      <trkpt lat="49.80286" lon="4.80344">
        <ele>281</ele>
        <time>2022-07-15T06:01:08.000Z</time>
      </trkpt>
      <trkpt lat="49.80284" lon="4.80345">
        <ele>281</ele>
        <time>2022-07-15T06:01:09.000Z</time>
      </trkpt>
      <trkpt lat="49.80284" lon="4.80348">
        <ele>281</ele>
        <time>2022-07-15T06:01:10.000Z</time>
      </trkpt>
      <trkpt lat="49.80283" lon="4.8035">
        <ele>280</ele>
        <time>2022-07-15T06:01:11.000Z</time>
      </trkpt>
      <trkpt lat="49.80283" lon="4.80353">
        <ele>280</ele>
        <time>2022-07-15T06:01:12.000Z</time>
      </trkpt>
      <trkpt lat="49.80284" lon="4.80356">
        <ele>280</ele>
        <time>2022-07-15T06:01:13.000Z</time>
      </trkpt>
      <trkpt lat="49.80284" lon="4.80359">
        <ele>279</ele>
        <time>2022-07-15T06:01:14.000Z</time>
      </trkpt>
      <trkpt lat="49.80284" lon="4.80363">
        <ele>279</ele>
        <time>2022-07-15T06:01:15.000Z</time>
      </trkpt>
      <trkpt lat="49.80285" lon="4.80367">
        <ele>279</ele>
        <time>2022-07-15T06:01:16.000Z</time>
      </trkpt>
      <trkpt lat="49.80284" lon="4.80372">
        <ele>278</ele>
        <time>2022-07-15T06:01:17.000Z</time>
      </trkpt>
      <trkpt lat="49.80283" lon="4.80377">
        <ele>278</ele>
        <time>2022-07-15T06:01:18.000Z</time>
      </trkpt>
      <trkpt lat="49.8028" lon="4.80381">
        <ele>277</ele>
        <time>2022-07-15T06:01:19.000Z</time>
      </trkpt>
      <trkpt lat="49.80278" lon="4.80386">
        <ele>277</ele>
        <time>2022-07-15T06:01:20.000Z</time>
      </trkpt>
      <trkpt lat="49.80275" lon="4.80389">
        <ele>276</ele>
        <time>2022-07-15T06:01:21.000Z</time>
      </trkpt>
      <trkpt lat="49.80273" lon="4.80392">
        <ele>276</ele>
        <time>2022-07-15T06:01:22.000Z</time>
      </trkpt>
      <trkpt lat="49.80271" lon="4.80395">
        <ele>275</ele>
        <time>2022-07-15T06:01:23.000Z</time>
      </trkpt>
      <trkpt lat="49.80269" lon="4.80398">
        <ele>275</ele>
        <time>2022-07-15T06:01:24.000Z</time>
      </trkpt>
      <trkpt lat="49.80268" lon="4.804">
        <ele>275</ele>
        <time>2022-07-15T06:01:25.000Z</time>
      </trkpt>
      <trkpt lat="49.80267" lon="4.80402">
        <ele>274</ele>
        <time>2022-07-15T06:01:26.000Z</time>
      </trkpt>
      <trkpt lat="49.80265" lon="4.80403">
        <ele>274</ele>
        <time>2022-07-15T06:01:27.000Z</time>
      </trkpt>
      <trkpt lat="49.80264" lon="4.80404">
        <ele>273</ele>
        <time>2022-07-15T06:01:28.000Z</time>
      </trkpt>
      <trkpt lat="49.80263" lon="4.80406">
        <ele>273</ele>
        <time>2022-07-15T06:01:29.000Z</time>
      </trkpt>
      <trkpt lat="49.80262" lon="4.80408">
        <ele>272</ele>
        <time>2022-07-15T06:01:30.000Z</time>
      </trkpt>
      <trkpt lat="49.80262" lon="4.80411">
        <ele>272</ele>
        <time>2022-07-15T06:01:31.000Z</time>
      </trkpt>
      <trkpt lat="49.80262" lon="4.80412">
        <ele>272</ele>
        <time>2022-07-15T06:01:32.000Z</time>
      </trkpt>
      <trkpt lat="49.80263" lon="4.80413">
        <ele>272</ele>
        <time>2022-07-15T06:01:33.000Z</time>
      </trkpt>
      <trkpt lat="49.80265" lon="4.80414">
        <ele>272</ele>
        <time>2022-07-15T06:01:34.000Z</time>
      </trkpt>
      <trkpt lat="49.80266" lon="4.80415">
        <ele>271</ele>
        <time>2022-07-15T06:01:35.000Z</time>
      </trkpt>
      <trkpt lat="49.80269" lon="4.80417">
        <ele>271</ele>
        <time>2022-07-15T06:01:36.000Z</time>
      </trkpt>
      <trkpt lat="49.80272" lon="4.80419">
        <ele>271</ele>
        <time>2022-07-15T06:01:37.000Z</time>
      </trkpt>
      <trkpt lat="49.80276" lon="4.8042">
        <ele>271</ele>
        <time>2022-07-15T06:01:38.000Z</time>
      </trkpt>
      <trkpt lat="49.80279" lon="4.80421">
        <ele>271</ele>
        <time>2022-07-15T06:01:39.000Z</time>
      </trkpt>
      <trkpt lat="49.80281" lon="4.80422">
        <ele>270</ele>
        <time>2022-07-15T06:01:40.000Z</time>
      </trkpt>
      <trkpt lat="49.80284" lon="4.80423">
        <ele>270</ele>
        <time>2022-07-15T06:01:41.000Z</time>
      </trkpt>
      <trkpt lat="49.80286" lon="4.80423">
        <ele>269</ele>
        <time>2022-07-15T06:01:42.000Z</time>
      </trkpt>
      <trkpt lat="49.80289" lon="4.80423">
        <ele>269</ele>
        <time>2022-07-15T06:01:43.000Z</time>
      </trkpt>
      <trkpt lat="49.80292" lon="4.80423">
        <ele>269</ele>
        <time>2022-07-15T06:01:44.000Z</time>
      </trkpt>
      <trkpt lat="49.80295" lon="4.80424">
        <ele>268</ele>
        <time>2022-07-15T06:01:45.000Z</time>
      </trkpt>
      <trkpt lat="49.80297" lon="4.80425">
        <ele>268</ele>
        <time>2022-07-15T06:01:46.000Z</time>
      </trkpt>
      <trkpt lat="49.803" lon="4.80426">
        <ele>268</ele>
        <time>2022-07-15T06:01:47.000Z</time>
      </trkpt>
      <trkpt lat="49.80304" lon="4.80427">
        <ele>267</ele>
        <time>2022-07-15T06:01:48.000Z</time>
      </trkpt>
      <trkpt lat="49.80308" lon="4.80427">
        <ele>267</ele>
        <time>2022-07-15T06:01:49.000Z</time>
      </trkpt>
      <trkpt lat="49.80311" lon="4.80428">
        <ele>267</ele>
        <time>2022-07-15T06:01:50.000Z</time>
      </trkpt>
      <trkpt lat="49.80314" lon="4.80428">
        <ele>266</ele>
        <time>2022-07-15T06:01:51.000Z</time>
      </trkpt>
      <trkpt lat="49.80316" lon="4.80429">
        <ele>266</ele>
        <time>2022-07-15T06:01:52.000Z</time>
      </trkpt>
      <trkpt lat="49.80318" lon="4.8043">
        <ele>266</ele>
        <time>2022-07-15T06:01:53.000Z</time>
      </trkpt>
      <trkpt lat="49.8032" lon="4.80431">
        <ele>266</ele>
        <time>2022-07-15T06:01:54.000Z</time>
      </trkpt>
      <trkpt lat="49.80322" lon="4.80431">
        <ele>265</ele>
        <time>2022-07-15T06:01:55.000Z</time>
      </trkpt>
      <trkpt lat="49.80324" lon="4.80431">
        <ele>265</ele>
        <time>2022-07-15T06:01:56.000Z</time>
      </trkpt>
      <trkpt lat="49.80327" lon="4.80432">
        <ele>265</ele>
        <time>2022-07-15T06:01:57.000Z</time>
      </trkpt>
      <trkpt lat="49.80329" lon="4.80432">
        <ele>265</ele>
        <time>2022-07-15T06:01:58.000Z</time>
      </trkpt>
      <trkpt lat="49.80331" lon="4.80432">
        <ele>265</ele>
        <time>2022-07-15T06:01:59.000Z</time>
      </trkpt>
      <trkpt lat="49.80333" lon="4.80432">
        <ele>265</ele>
        <time>2022-07-15T06:02:00.000Z</time>
      </trkpt>
      <trkpt lat="49.80336" lon="4.80433">
        <ele>265</ele>
        <time>2022-07-15T06:02:01.000Z</time>
      </trkpt>
      <trkpt lat="49.80339" lon="4.80434">
        <ele>265</ele>
        <time>2022-07-15T06:02:02.000Z</time>
      </trkpt>
      <trkpt lat="49.80342" lon="4.80434">
        <ele>265</ele>
        <time>2022-07-15T06:02:03.000Z</time>
      </trkpt>
      <trkpt lat="49.80345" lon="4.80434">
        <ele>264</ele>
        <time>2022-07-15T06:02:04.000Z</time>
      </trkpt>
      <trkpt lat="49.80348" lon="4.80434">
        <ele>264</ele>
        <time>2022-07-15T06:02:05.000Z</time>
      </trkpt>
      <trkpt lat="49.80351" lon="4.80435">
        <ele>264</ele>
        <time>2022-07-15T06:02:06.000Z</time>
      </trkpt>
      <trkpt lat="49.80354" lon="4.80435">
        <ele>264</ele>
        <time>2022-07-15T06:02:07.000Z</time>
      </trkpt>
      <trkpt lat="49.80358" lon="4.80437">
        <ele>264</ele>
        <time>2022-07-15T06:02:08.000Z</time>
      </trkpt>
      <trkpt lat="49.80361" lon="4.80438">
        <ele>264</ele>
        <time>2022-07-15T06:02:09.000Z</time>
      </trkpt>
      <trkpt lat="49.80365" lon="4.8044">
        <ele>264</ele>
        <time>2022-07-15T06:02:10.000Z</time>
      </trkpt>
      <trkpt lat="49.80368" lon="4.80441">
        <ele>263</ele>
        <time>2022-07-15T06:02:11.000Z</time>
      </trkpt>
      <trkpt lat="49.80372" lon="4.80441">
        <ele>263</ele>
        <time>2022-07-15T06:02:12.000Z</time>
      </trkpt>
      <trkpt lat="49.80375" lon="4.80441">
        <ele>263</ele>
        <time>2022-07-15T06:02:13.000Z</time>
      </trkpt>
      <trkpt lat="49.80378" lon="4.8044">
        <ele>263</ele>
        <time>2022-07-15T06:02:14.000Z</time>
      </trkpt>
      <trkpt lat="49.80382" lon="4.80439">
        <ele>262</ele>
        <time>2022-07-15T06:02:15.000Z</time>
      </trkpt>
      <trkpt lat="49.80385" lon="4.80437">
        <ele>262</ele>
        <time>2022-07-15T06:02:16.000Z</time>
      </trkpt>
      <trkpt lat="49.80388" lon="4.80436">
        <ele>262</ele>
        <time>2022-07-15T06:02:17.000Z</time>
      </trkpt>
      <trkpt lat="49.80392" lon="4.80435">
        <ele>261</ele>
        <time>2022-07-15T06:02:18.000Z</time>
      </trkpt>
      <trkpt lat="49.80396" lon="4.80435">
        <ele>261</ele>
        <time>2022-07-15T06:02:19.000Z</time>
      </trkpt>
      <trkpt lat="49.804" lon="4.80435">
        <ele>261</ele>
        <time>2022-07-15T06:02:20.000Z</time>
      </trkpt>
      <trkpt lat="49.80405" lon="4.80436">
        <ele>260</ele>
        <time>2022-07-15T06:02:21.000Z</time>
      </trkpt>
      <trkpt lat="49.80409" lon="4.80436">
        <ele>260</ele>
        <time>2022-07-15T06:02:22.000Z</time>
      </trkpt>
      <trkpt lat="49.80412" lon="4.80435">
        <ele>260</ele>
        <time>2022-07-15T06:02:23.000Z</time>
      </trkpt>
      <trkpt lat="49.80414" lon="4.80435">
        <ele>259</ele>
        <time>2022-07-15T06:02:24.000Z</time>
      </trkpt>
      <trkpt lat="49.80418" lon="4.80434">
        <ele>259</ele>
        <time>2022-07-15T06:02:25.000Z</time>
      </trkpt>
      <trkpt lat="49.80422" lon="4.80433">
        <ele>259</ele>
        <time>2022-07-15T06:02:26.000Z</time>
      </trkpt>
      <trkpt lat="49.80427" lon="4.80432">
        <ele>258</ele>
        <time>2022-07-15T06:02:27.000Z</time>
      </trkpt>
      <trkpt lat="49.80432" lon="4.80432">
        <ele>258</ele>
        <time>2022-07-15T06:02:28.000Z</time>
      </trkpt>
      <trkpt lat="49.80437" lon="4.80431">
        <ele>257</ele>
        <time>2022-07-15T06:02:29.000Z</time>
      </trkpt>
      <trkpt lat="49.80443" lon="4.8043">
        <ele>257</ele>
        <time>2022-07-15T06:02:30.000Z</time>
      </trkpt>
      <trkpt lat="49.80448" lon="4.8043">
        <ele>257</ele>
        <time>2022-07-15T06:02:31.000Z</time>
      </trkpt>
      <trkpt lat="49.80454" lon="4.80428">
        <ele>256</ele>
        <time>2022-07-15T06:02:32.000Z</time>
      </trkpt>
      <trkpt lat="49.80461" lon="4.80425">
        <ele>256</ele>
        <time>2022-07-15T06:02:33.000Z</time>
      </trkpt>
      <trkpt lat="49.80468" lon="4.80422">
        <ele>255</ele>
        <time>2022-07-15T06:02:34.000Z</time>
      </trkpt>
      <trkpt lat="49.80474" lon="4.80419">
        <ele>255</ele>
        <time>2022-07-15T06:02:35.000Z</time>
      </trkpt>
      <trkpt lat="49.80481" lon="4.80416">
        <ele>255</ele>
        <time>2022-07-15T06:02:36.000Z</time>
      </trkpt>
      <trkpt lat="49.80488" lon="4.80413">
        <ele>254</ele>
        <time>2022-07-15T06:02:37.000Z</time>
      </trkpt>
      <trkpt lat="49.80496" lon="4.80412">
        <ele>254</ele>
        <time>2022-07-15T06:02:38.000Z</time>
      </trkpt>
      <trkpt lat="49.80502" lon="4.8041">
        <ele>253</ele>
        <time>2022-07-15T06:02:39.000Z</time>
      </trkpt>
      <trkpt lat="49.80507" lon="4.80408">
        <ele>253</ele>
        <time>2022-07-15T06:02:40.000Z</time>
      </trkpt>
      <trkpt lat="49.80511" lon="4.80407">
        <ele>253</ele>
        <time>2022-07-15T06:02:41.000Z</time>
      </trkpt>
      <trkpt lat="49.80516" lon="4.80405">
        <ele>252</ele>
        <time>2022-07-15T06:02:42.000Z</time>
      </trkpt>
      <trkpt lat="49.8052" lon="4.80403">
        <ele>252</ele>
        <time>2022-07-15T06:02:43.000Z</time>
      </trkpt>
      <trkpt lat="49.80524" lon="4.80399">
        <ele>251</ele>
        <time>2022-07-15T06:02:44.000Z</time>
      </trkpt>
      <trkpt lat="49.80527" lon="4.80394">
        <ele>250</ele>
        <time>2022-07-15T06:02:45.000Z</time>
      </trkpt>
      <trkpt lat="49.8053" lon="4.80389">
        <ele>250</ele>
        <time>2022-07-15T06:02:46.000Z</time>
      </trkpt>
      <trkpt lat="49.80533" lon="4.80384">
        <ele>249</ele>
        <time>2022-07-15T06:02:47.000Z</time>
      </trkpt>
      <trkpt lat="49.80536" lon="4.80378">
        <ele>249</ele>
        <time>2022-07-15T06:02:48.000Z</time>
      </trkpt>
      <trkpt lat="49.80539" lon="4.80372">
        <ele>248</ele>
        <time>2022-07-15T06:02:49.000Z</time>
      </trkpt>
      <trkpt lat="49.80543" lon="4.80365">
        <ele>248</ele>
        <time>2022-07-15T06:02:50.000Z</time>
      </trkpt>
      <trkpt lat="49.80546" lon="4.80359">
        <ele>247</ele>
        <time>2022-07-15T06:02:51.000Z</time>
      </trkpt>
      <trkpt lat="49.8055" lon="4.80353">
        <ele>247</ele>
        <time>2022-07-15T06:02:52.000Z</time>
      </trkpt>
      <trkpt lat="49.80553" lon="4.80347">
        <ele>246</ele>
        <time>2022-07-15T06:02:53.000Z</time>
      </trkpt>
      <trkpt lat="49.80556" lon="4.80341">
        <ele>245</ele>
        <time>2022-07-15T06:02:54.000Z</time>
      </trkpt>
      <trkpt lat="49.8056" lon="4.80335">
        <ele>245</ele>
        <time>2022-07-15T06:02:55.000Z</time>
      </trkpt>
      <trkpt lat="49.80564" lon="4.8033">
        <ele>244</ele>
        <time>2022-07-15T06:02:56.000Z</time>
      </trkpt>
      <trkpt lat="49.80568" lon="4.80323">
        <ele>244</ele>
        <time>2022-07-15T06:02:57.000Z</time>
      </trkpt>
      <trkpt lat="49.80571" lon="4.80317">
        <ele>244</ele>
        <time>2022-07-15T06:02:58.000Z</time>
      </trkpt>
      <trkpt lat="49.80575" lon="4.8031">
        <ele>243</ele>
        <time>2022-07-15T06:02:59.000Z</time>
      </trkpt>
      <trkpt lat="49.80579" lon="4.80303">
        <ele>243</ele>
        <time>2022-07-15T06:03:00.000Z</time>
      </trkpt>
      <trkpt lat="49.80582" lon="4.80295">
        <ele>242</ele>
        <time>2022-07-15T06:03:01.000Z</time>
      </trkpt>
      <trkpt lat="49.80585" lon="4.80288">
        <ele>242</ele>
        <time>2022-07-15T06:03:02.000Z</time>
      </trkpt>
      <trkpt lat="49.80589" lon="4.80281">
        <ele>242</ele>
        <time>2022-07-15T06:03:03.000Z</time>
      </trkpt>
      <trkpt lat="49.80594" lon="4.80274">
        <ele>242</ele>
        <time>2022-07-15T06:03:04.000Z</time>
      </trkpt>
      <trkpt lat="49.80598" lon="4.80267">
        <ele>241</ele>
        <time>2022-07-15T06:03:05.000Z</time>
      </trkpt>
      <trkpt lat="49.80602" lon="4.80261">
        <ele>241</ele>
        <time>2022-07-15T06:03:06.000Z</time>
      </trkpt>
      <trkpt lat="49.80606" lon="4.80254">
        <ele>241</ele>
        <time>2022-07-15T06:03:07.000Z</time>
      </trkpt>
      <trkpt lat="49.80611" lon="4.80247">
        <ele>240</ele>
        <time>2022-07-15T06:03:08.000Z</time>
      </trkpt>
      <trkpt lat="49.80616" lon="4.80239">
        <ele>239</ele>
        <time>2022-07-15T06:03:09.000Z</time>
      </trkpt>
      <trkpt lat="49.80622" lon="4.80232">
        <ele>238</ele>
        <time>2022-07-15T06:03:10.000Z</time>
      </trkpt>
      <trkpt lat="49.80628" lon="4.80223">
        <ele>237</ele>
        <time>2022-07-15T06:03:11.000Z</time>
      </trkpt>
      <trkpt lat="49.80634" lon="4.80213">
        <ele>236</ele>
        <time>2022-07-15T06:03:12.000Z</time>
      </trkpt>
      <trkpt lat="49.8064" lon="4.80204">
        <ele>235</ele>
        <time>2022-07-15T06:03:13.000Z</time>
      </trkpt>
      <trkpt lat="49.80646" lon="4.80196">
        <ele>234</ele>
        <time>2022-07-15T06:03:14.000Z</time>
      </trkpt>
      <trkpt lat="49.80652" lon="4.80188">
        <ele>233</ele>
        <time>2022-07-15T06:03:15.000Z</time>
      </trkpt>
      <trkpt lat="49.80658" lon="4.80181">
        <ele>232</ele>
        <time>2022-07-15T06:03:16.000Z</time>
      </trkpt>
      <trkpt lat="49.80663" lon="4.80174">
        <ele>231</ele>
        <time>2022-07-15T06:03:17.000Z</time>
      </trkpt>
      <trkpt lat="49.80669" lon="4.80167">
        <ele>230</ele>
        <time>2022-07-15T06:03:18.000Z</time>
      </trkpt>
      <trkpt lat="49.80674" lon="4.8016">
        <ele>229</ele>
        <time>2022-07-15T06:03:19.000Z</time>
      </trkpt>
      <trkpt lat="49.8068" lon="4.80154">
        <ele>228</ele>
        <time>2022-07-15T06:03:20.000Z</time>
      </trkpt>
      <trkpt lat="49.80684" lon="4.80147">
        <ele>227</ele>
        <time>2022-07-15T06:03:21.000Z</time>
      </trkpt>
      <trkpt lat="49.80689" lon="4.8014">
        <ele>226</ele>
        <time>2022-07-15T06:03:22.000Z</time>
      </trkpt>
      <trkpt lat="49.80694" lon="4.80133">
        <ele>225</ele>
        <time>2022-07-15T06:03:23.000Z</time>
      </trkpt>
      <trkpt lat="49.807" lon="4.80127">
        <ele>224</ele>
        <time>2022-07-15T06:03:24.000Z</time>
      </trkpt>
      <trkpt lat="49.80707" lon="4.80121">
        <ele>223</ele>
        <time>2022-07-15T06:03:25.000Z</time>
      </trkpt>
      <trkpt lat="49.80713" lon="4.80115">
        <ele>222</ele>
        <time>2022-07-15T06:03:26.000Z</time>
      </trkpt>
      <trkpt lat="49.80719" lon="4.80111">
        <ele>222</ele>
        <time>2022-07-15T06:03:27.000Z</time>
      </trkpt>
      <trkpt lat="49.80726" lon="4.80106">
        <ele>221</ele>
        <time>2022-07-15T06:03:28.000Z</time>
      </trkpt>
      <trkpt lat="49.80733" lon="4.80104">
        <ele>220</ele>
        <time>2022-07-15T06:03:29.000Z</time>
      </trkpt>
      <trkpt lat="49.80739" lon="4.80101">
        <ele>219</ele>
        <time>2022-07-15T06:03:30.000Z</time>
      </trkpt>
      <trkpt lat="49.80745" lon="4.80099">
        <ele>218</ele>
        <time>2022-07-15T06:03:31.000Z</time>
      </trkpt>
      <trkpt lat="49.8075" lon="4.80095">
        <ele>217</ele>
        <time>2022-07-15T06:03:32.000Z</time>
      </trkpt>
      <trkpt lat="49.80754" lon="4.8009">
        <ele>216</ele>
        <time>2022-07-15T06:03:33.000Z</time>
      </trkpt>
      <trkpt lat="49.80758" lon="4.80083">
        <ele>216</ele>
        <time>2022-07-15T06:03:34.000Z</time>
      </trkpt>
      <trkpt lat="49.80762" lon="4.80076">
        <ele>215</ele>
        <time>2022-07-15T06:03:35.000Z</time>
      </trkpt>
      <trkpt lat="49.80765" lon="4.80067">
        <ele>214</ele>
        <time>2022-07-15T06:03:36.000Z</time>
      </trkpt>
      <trkpt lat="49.80768" lon="4.80058">
        <ele>213</ele>
        <time>2022-07-15T06:03:37.000Z</time>
      </trkpt>
      <trkpt lat="49.80771" lon="4.80049">
        <ele>212</ele>
        <time>2022-07-15T06:03:38.000Z</time>
      </trkpt>
      <trkpt lat="49.80774" lon="4.80039">
        <ele>211</ele>
        <time>2022-07-15T06:03:39.000Z</time>
      </trkpt>
      <trkpt lat="49.80778" lon="4.8003">
        <ele>210</ele>
        <time>2022-07-15T06:03:40.000Z</time>
      </trkpt>
      <trkpt lat="49.80781" lon="4.8002">
        <ele>210</ele>
        <time>2022-07-15T06:03:41.000Z</time>
      </trkpt>
      <trkpt lat="49.80784" lon="4.8001">
        <ele>209</ele>
        <time>2022-07-15T06:03:42.000Z</time>
      </trkpt>
      <trkpt lat="49.80787" lon="4.79999">
        <ele>208</ele>
        <time>2022-07-15T06:03:43.000Z</time>
      </trkpt>
      <trkpt lat="49.8079" lon="4.79989">
        <ele>208</ele>
        <time>2022-07-15T06:03:44.000Z</time>
      </trkpt>
      <trkpt lat="49.80793" lon="4.79979">
        <ele>207</ele>
        <time>2022-07-15T06:03:45.000Z</time>
      </trkpt>
      <trkpt lat="49.80796" lon="4.79968">
        <ele>206</ele>
        <time>2022-07-15T06:03:46.000Z</time>
      </trkpt>
      <trkpt lat="49.80799" lon="4.79958">
        <ele>206</ele>
        <time>2022-07-15T06:03:47.000Z</time>
      </trkpt>
      <trkpt lat="49.80803" lon="4.79947">
        <ele>205</ele>
        <time>2022-07-15T06:03:48.000Z</time>
      </trkpt>
      <trkpt lat="49.80806" lon="4.79936">
        <ele>204</ele>
        <time>2022-07-15T06:03:49.000Z</time>
      </trkpt>
      <trkpt lat="49.80811" lon="4.79925">
        <ele>203</ele>
        <time>2022-07-15T06:03:50.000Z</time>
      </trkpt>
      <trkpt lat="49.80815" lon="4.79914">
        <ele>202</ele>
        <time>2022-07-15T06:03:51.000Z</time>
      </trkpt>
      <trkpt lat="49.80819" lon="4.79903">
        <ele>201</ele>
        <time>2022-07-15T06:03:52.000Z</time>
      </trkpt>
      <trkpt lat="49.80824" lon="4.79893">
        <ele>201</ele>
        <time>2022-07-15T06:03:53.000Z</time>
      </trkpt>
      <trkpt lat="49.8083" lon="4.79884">
        <ele>200</ele>
        <time>2022-07-15T06:03:54.000Z</time>
      </trkpt>
      <trkpt lat="49.80836" lon="4.79875">
        <ele>199</ele>
        <time>2022-07-15T06:03:55.000Z</time>
      </trkpt>
      <trkpt lat="49.80843" lon="4.79867">
        <ele>197</ele>
        <time>2022-07-15T06:03:56.000Z</time>
      </trkpt>
      <trkpt lat="49.8085" lon="4.79858">
        <ele>196</ele>
        <time>2022-07-15T06:03:57.000Z</time>
      </trkpt>
      <trkpt lat="49.80858" lon="4.7985">
        <ele>195</ele>
        <time>2022-07-15T06:03:58.000Z</time>
      </trkpt>
      <trkpt lat="49.80867" lon="4.79842">
        <ele>194</ele>
        <time>2022-07-15T06:03:59.000Z</time>
      </trkpt>
      <trkpt lat="49.80876" lon="4.79835">
        <ele>193</ele>
        <time>2022-07-15T06:04:00.000Z</time>
      </trkpt>
      <trkpt lat="49.80884" lon="4.79828">
        <ele>191</ele>
        <time>2022-07-15T06:04:01.000Z</time>
      </trkpt>
      <trkpt lat="49.80893" lon="4.79821">
        <ele>190</ele>
        <time>2022-07-15T06:04:02.000Z</time>
      </trkpt>
      <trkpt lat="49.80901" lon="4.79814">
        <ele>189</ele>
        <time>2022-07-15T06:04:03.000Z</time>
      </trkpt>
      <trkpt lat="49.80909" lon="4.79806">
        <ele>188</ele>
        <time>2022-07-15T06:04:04.000Z</time>
      </trkpt>
      <trkpt lat="49.80917" lon="4.79798">
        <ele>186</ele>
        <time>2022-07-15T06:04:05.000Z</time>
      </trkpt>
      <trkpt lat="49.80925" lon="4.7979">
        <ele>185</ele>
        <time>2022-07-15T06:04:06.000Z</time>
      </trkpt>
      <trkpt lat="49.80933" lon="4.79783">
        <ele>184</ele>
        <time>2022-07-15T06:04:07.000Z</time>
      </trkpt>
      <trkpt lat="49.80941" lon="4.79777">
        <ele>183</ele>
        <time>2022-07-15T06:04:08.000Z</time>
      </trkpt>
      <trkpt lat="49.80949" lon="4.79771">
        <ele>182</ele>
        <time>2022-07-15T06:04:09.000Z</time>
      </trkpt>
      <trkpt lat="49.80956" lon="4.79767">
        <ele>181</ele>
        <time>2022-07-15T06:04:10.000Z</time>
      </trkpt>
      <trkpt lat="49.80963" lon="4.79764">
        <ele>181</ele>
        <time>2022-07-15T06:04:11.000Z</time>
      </trkpt>
      <trkpt lat="49.80969" lon="4.79761">
        <ele>181</ele>
        <time>2022-07-15T06:04:12.000Z</time>
      </trkpt>
      <trkpt lat="49.80975" lon="4.79757">
        <ele>180</ele>
        <time>2022-07-15T06:04:13.000Z</time>
      </trkpt>
      <trkpt lat="49.80981" lon="4.79751">
        <ele>180</ele>
        <time>2022-07-15T06:04:14.000Z</time>
      </trkpt>
      <trkpt lat="49.80986" lon="4.79746">
        <ele>180</ele>
        <time>2022-07-15T06:04:15.000Z</time>
      </trkpt>
      <trkpt lat="49.80992" lon="4.79741">
        <ele>180</ele>
        <time>2022-07-15T06:04:16.000Z</time>
      </trkpt>
      <trkpt lat="49.80997" lon="4.79736">
        <ele>180</ele>
        <time>2022-07-15T06:04:17.000Z</time>
      </trkpt>
      <trkpt lat="49.81002" lon="4.79731">
        <ele>180</ele>
        <time>2022-07-15T06:04:18.000Z</time>
      </trkpt>
      <trkpt lat="49.81007" lon="4.79726">
        <ele>180</ele>
        <time>2022-07-15T06:04:19.000Z</time>
      </trkpt>
      <trkpt lat="49.81012" lon="4.79724">
        <ele>180</ele>
        <time>2022-07-15T06:04:20.000Z</time>
      </trkpt>
      <trkpt lat="49.81017" lon="4.79725">
        <ele>180</ele>
        <time>2022-07-15T06:04:21.000Z</time>
      </trkpt>
      <trkpt lat="49.81022" lon="4.79729">
        <ele>180</ele>
        <time>2022-07-15T06:04:22.000Z</time>
      </trkpt>
      <trkpt lat="49.81027" lon="4.79735">
        <ele>180</ele>
        <time>2022-07-15T06:04:23.000Z</time>
      </trkpt>
      <trkpt lat="49.81031" lon="4.79741">
        <ele>179</ele>
        <time>2022-07-15T06:04:24.000Z</time>
      </trkpt>
      <trkpt lat="49.81036" lon="4.79748">
        <ele>179</ele>
        <time>2022-07-15T06:04:25.000Z</time>
      </trkpt>
      <trkpt lat="49.81041" lon="4.79754">
        <ele>179</ele>
        <time>2022-07-15T06:04:26.000Z</time>
      </trkpt>
      <trkpt lat="49.81045" lon="4.79762">
        <ele>179</ele>
        <time>2022-07-15T06:04:27.000Z</time>
      </trkpt>
      <trkpt lat="49.81049" lon="4.7977">
        <ele>179</ele>
        <time>2022-07-15T06:04:28.000Z</time>
      </trkpt>
      <trkpt lat="49.81053" lon="4.79779">
        <ele>179</ele>
        <time>2022-07-15T06:04:29.000Z</time>
      </trkpt>
      <trkpt lat="49.81057" lon="4.79788">
        <ele>179</ele>
        <time>2022-07-15T06:04:30.000Z</time>
      </trkpt>
      <trkpt lat="49.8106" lon="4.79796">
        <ele>178</ele>
        <time>2022-07-15T06:04:31.000Z</time>
      </trkpt>
      <trkpt lat="49.81064" lon="4.79806">
        <ele>178</ele>
        <time>2022-07-15T06:04:32.000Z</time>
      </trkpt>
      <trkpt lat="49.81067" lon="4.79815">
        <ele>178</ele>
        <time>2022-07-15T06:04:33.000Z</time>
      </trkpt>
      <trkpt lat="49.81071" lon="4.79824">
        <ele>178</ele>
        <time>2022-07-15T06:04:34.000Z</time>
      </trkpt>
      <trkpt lat="49.81075" lon="4.79832">
        <ele>178</ele>
        <time>2022-07-15T06:04:35.000Z</time>
      </trkpt>
      <trkpt lat="49.81078" lon="4.79841">
        <ele>177</ele>
        <time>2022-07-15T06:04:36.000Z</time>
      </trkpt>
      <trkpt lat="49.81082" lon="4.7985">
        <ele>177</ele>
        <time>2022-07-15T06:04:37.000Z</time>
      </trkpt>
      <trkpt lat="49.81085" lon="4.79859">
        <ele>177</ele>
        <time>2022-07-15T06:04:38.000Z</time>
      </trkpt>
      <trkpt lat="49.81088" lon="4.79867">
        <ele>177</ele>
        <time>2022-07-15T06:04:39.000Z</time>
      </trkpt>
      <trkpt lat="49.81092" lon="4.79875">
        <ele>177</ele>
        <time>2022-07-15T06:04:40.000Z</time>
      </trkpt>
      <trkpt lat="49.81095" lon="4.79883">
        <ele>177</ele>
        <time>2022-07-15T06:04:41.000Z</time>
      </trkpt>
      <trkpt lat="49.81098" lon="4.79892">
        <ele>176</ele>
        <time>2022-07-15T06:04:42.000Z</time>
      </trkpt>
      <trkpt lat="49.81101" lon="4.79899">
        <ele>176</ele>
        <time>2022-07-15T06:04:43.000Z</time>
      </trkpt>
      <trkpt lat="49.81105" lon="4.79907">
        <ele>176</ele>
        <time>2022-07-15T06:04:44.000Z</time>
      </trkpt>
      <trkpt lat="49.81108" lon="4.79914">
        <ele>176</ele>
        <time>2022-07-15T06:04:45.000Z</time>
      </trkpt>
      <trkpt lat="49.81112" lon="4.79921">
        <ele>176</ele>
        <time>2022-07-15T06:04:46.000Z</time>
      </trkpt>
      <trkpt lat="49.81116" lon="4.79928">
        <ele>176</ele>
        <time>2022-07-15T06:04:47.000Z</time>
      </trkpt>
      <trkpt lat="49.81121" lon="4.79935">
        <ele>176</ele>
        <time>2022-07-15T06:04:48.000Z</time>
      </trkpt>
      <trkpt lat="49.81125" lon="4.79941">
        <ele>176</ele>
        <time>2022-07-15T06:04:49.000Z</time>
      </trkpt>
      <trkpt lat="49.8113" lon="4.79948">
        <ele>176</ele>
        <time>2022-07-15T06:04:50.000Z</time>
      </trkpt>
      <trkpt lat="49.81134" lon="4.79954">
        <ele>176</ele>
        <time>2022-07-15T06:04:51.000Z</time>
      </trkpt>
      <trkpt lat="49.81139" lon="4.79961">
        <ele>176</ele>
        <time>2022-07-15T06:04:52.000Z</time>
      </trkpt>
      <trkpt lat="49.81143" lon="4.79968">
        <ele>176</ele>
        <time>2022-07-15T06:04:53.000Z</time>
      </trkpt>
      <trkpt lat="49.81145" lon="4.79976">
        <ele>176</ele>
        <time>2022-07-15T06:04:54.000Z</time>
      </trkpt>
      <trkpt lat="49.81146" lon="4.79985">
        <ele>176</ele>
        <time>2022-07-15T06:04:55.000Z</time>
      </trkpt>
      <trkpt lat="49.81147" lon="4.79993">
        <ele>176</ele>
        <time>2022-07-15T06:04:56.000Z</time>
      </trkpt>
      <trkpt lat="49.81147" lon="4.80002">
        <ele>176</ele>
        <time>2022-07-15T06:04:57.000Z</time>
      </trkpt>
      <trkpt lat="49.81148" lon="4.8001">
        <ele>176</ele>
        <time>2022-07-15T06:04:58.000Z</time>
      </trkpt>
      <trkpt lat="49.81149" lon="4.80017">
        <ele>176</ele>
        <time>2022-07-15T06:04:59.000Z</time>
      </trkpt>
      <trkpt lat="49.81149" lon="4.80023">
        <ele>176</ele>
        <time>2022-07-15T06:05:00.000Z</time>
      </trkpt>
      <trkpt lat="49.81149" lon="4.80028">
        <ele>176</ele>
        <time>2022-07-15T06:05:01.000Z</time>
      </trkpt>
      <trkpt lat="49.81149" lon="4.80033">
        <ele>176</ele>
        <time>2022-07-15T06:05:02.000Z</time>
      </trkpt>
      <trkpt lat="49.81149" lon="4.80038">
        <ele>177</ele>
        <time>2022-07-15T06:05:03.000Z</time>
      </trkpt>
      <trkpt lat="49.81149" lon="4.80041">
        <ele>177</ele>
        <time>2022-07-15T06:05:04.000Z</time>
      </trkpt>
      <trkpt lat="49.81148" lon="4.80045">
        <ele>177</ele>
        <time>2022-07-15T06:05:05.000Z</time>
      </trkpt>
      <trkpt lat="49.81148" lon="4.80049">
        <ele>177</ele>
        <time>2022-07-15T06:05:06.000Z</time>
      </trkpt>
      <trkpt lat="49.81148" lon="4.80053">
        <ele>177</ele>
        <time>2022-07-15T06:05:07.000Z</time>
      </trkpt>
      <trkpt lat="49.81147" lon="4.80057">
        <ele>177</ele>
        <time>2022-07-15T06:05:08.000Z</time>
      </trkpt>
      <trkpt lat="49.81147" lon="4.80061">
        <ele>177</ele>
        <time>2022-07-15T06:05:09.000Z</time>
      </trkpt>
      <trkpt lat="49.81146" lon="4.80066">
        <ele>178</ele>
        <time>2022-07-15T06:05:10.000Z</time>
      </trkpt>
      <trkpt lat="49.81145" lon="4.80072">
        <ele>178</ele>
        <time>2022-07-15T06:05:11.000Z</time>
      </trkpt>
      <trkpt lat="49.81144" lon="4.80076">
        <ele>178</ele>
        <time>2022-07-15T06:05:12.000Z</time>
      </trkpt>
      <trkpt lat="49.81144" lon="4.80081">
        <ele>178</ele>
        <time>2022-07-15T06:05:13.000Z</time>
      </trkpt>
      <trkpt lat="49.81143" lon="4.80085">
        <ele>178</ele>
        <time>2022-07-15T06:05:14.000Z</time>
      </trkpt>
      <trkpt lat="49.81143" lon="4.80089">
        <ele>178</ele>
        <time>2022-07-15T06:05:15.000Z</time>
      </trkpt>
      <trkpt lat="49.81142" lon="4.80092">
        <ele>179</ele>
        <time>2022-07-15T06:05:16.000Z</time>
      </trkpt>
      <trkpt lat="49.81141" lon="4.80096">
        <ele>179</ele>
        <time>2022-07-15T06:05:17.000Z</time>
      </trkpt>
      <trkpt lat="49.81141" lon="4.80099">
        <ele>179</ele>
        <time>2022-07-15T06:05:18.000Z</time>
      </trkpt>
      <trkpt lat="49.8114" lon="4.80102">
        <ele>179</ele>
        <time>2022-07-15T06:05:19.000Z</time>
      </trkpt>
      <trkpt lat="49.81139" lon="4.80106">
        <ele>179</ele>
        <time>2022-07-15T06:05:20.000Z</time>
      </trkpt>
      <trkpt lat="49.81139" lon="4.8011">
        <ele>179</ele>
        <time>2022-07-15T06:05:21.000Z</time>
      </trkpt>
      <trkpt lat="49.81138" lon="4.80114">
        <ele>179</ele>
        <time>2022-07-15T06:05:22.000Z</time>
      </trkpt>
      <trkpt lat="49.81137" lon="4.80117">
        <ele>179</ele>
        <time>2022-07-15T06:05:23.000Z</time>
      </trkpt>
      <trkpt lat="49.81137" lon="4.80121">
        <ele>179</ele>
        <time>2022-07-15T06:05:24.000Z</time>
      </trkpt>
      <trkpt lat="49.81136" lon="4.80126">
        <ele>179</ele>
        <time>2022-07-15T06:05:25.000Z</time>
      </trkpt>
      <trkpt lat="49.81136" lon="4.8013">
        <ele>179</ele>
        <time>2022-07-15T06:05:26.000Z</time>
      </trkpt>
      <trkpt lat="49.81135" lon="4.80135">
        <ele>179</ele>
        <time>2022-07-15T06:05:27.000Z</time>
      </trkpt>
      <trkpt lat="49.81135" lon="4.80139">
        <ele>179</ele>
        <time>2022-07-15T06:05:28.000Z</time>
      </trkpt>
      <trkpt lat="49.81134" lon="4.80143">
        <ele>179</ele>
        <time>2022-07-15T06:05:29.000Z</time>
      </trkpt>
      <trkpt lat="49.81134" lon="4.80147">
        <ele>180</ele>
        <time>2022-07-15T06:05:30.000Z</time>
      </trkpt>
      <trkpt lat="49.81134" lon="4.8015">
        <ele>180</ele>
        <time>2022-07-15T06:05:31.000Z</time>
      </trkpt>
      <trkpt lat="49.81134" lon="4.80154">
        <ele>180</ele>
        <time>2022-07-15T06:05:32.000Z</time>
      </trkpt>
      <trkpt lat="49.81134" lon="4.80157">
        <ele>180</ele>
        <time>2022-07-15T06:05:33.000Z</time>
      </trkpt>
      <trkpt lat="49.81133" lon="4.80161">
        <ele>180</ele>
        <time>2022-07-15T06:05:34.000Z</time>
      </trkpt>
      <trkpt lat="49.81133" lon="4.80164">
        <ele>180</ele>
        <time>2022-07-15T06:05:35.000Z</time>
      </trkpt>
      <trkpt lat="49.81133" lon="4.80168">
        <ele>180</ele>
        <time>2022-07-15T06:05:36.000Z</time>
      </trkpt>
      <trkpt lat="49.81133" lon="4.80171">
        <ele>180</ele>
        <time>2022-07-15T06:05:37.000Z</time>
      </trkpt>
      <trkpt lat="49.81132" lon="4.80174">
        <ele>180</ele>
        <time>2022-07-15T06:05:38.000Z</time>
      </trkpt>
      <trkpt lat="49.81132" lon="4.80177">
        <ele>180</ele>
        <time>2022-07-15T06:05:39.000Z</time>
      </trkpt>
      <trkpt lat="49.81132" lon="4.80182">
        <ele>181</ele>
        <time>2022-07-15T06:05:40.000Z</time>
      </trkpt>
      <trkpt lat="49.81132" lon="4.80186">
        <ele>181</ele>
        <time>2022-07-15T06:05:41.000Z</time>
      </trkpt>
      <trkpt lat="49.81132" lon="4.80189">
        <ele>181</ele>
        <time>2022-07-15T06:05:42.000Z</time>
      </trkpt>
      <trkpt lat="49.81132" lon="4.80192">
        <ele>181</ele>
        <time>2022-07-15T06:05:43.000Z</time>
      </trkpt>
      <trkpt lat="49.81132" lon="4.80195">
        <ele>181</ele>
        <time>2022-07-15T06:05:44.000Z</time>
      </trkpt>
      <trkpt lat="49.81133" lon="4.80198">
        <ele>181</ele>
        <time>2022-07-15T06:05:45.000Z</time>
      </trkpt>
      <trkpt lat="49.81133" lon="4.80202">
        <ele>181</ele>
        <time>2022-07-15T06:05:46.000Z</time>
      </trkpt>
      <trkpt lat="49.81134" lon="4.80207">
        <ele>181</ele>
        <time>2022-07-15T06:05:47.000Z</time>
      </trkpt>
      <trkpt lat="49.81134" lon="4.80211">
        <ele>181</ele>
        <time>2022-07-15T06:05:48.000Z</time>
      </trkpt>
      <trkpt lat="49.81135" lon="4.80216">
        <ele>181</ele>
        <time>2022-07-15T06:05:49.000Z</time>
      </trkpt>
      <trkpt lat="49.81136" lon="4.80221">
        <ele>182</ele>
        <time>2022-07-15T06:05:50.000Z</time>
      </trkpt>
      <trkpt lat="49.81136" lon="4.80226">
        <ele>182</ele>
        <time>2022-07-15T06:05:51.000Z</time>
      </trkpt>
      <trkpt lat="49.81137" lon="4.8023">
        <ele>182</ele>
        <time>2022-07-15T06:05:52.000Z</time>
      </trkpt>
      <trkpt lat="49.81137" lon="4.80234">
        <ele>182</ele>
        <time>2022-07-15T06:05:53.000Z</time>
      </trkpt>
      <trkpt lat="49.81137" lon="4.80239">
        <ele>182</ele>
        <time>2022-07-15T06:05:54.000Z</time>
      </trkpt>
      <trkpt lat="49.81137" lon="4.80243">
        <ele>182</ele>
        <time>2022-07-15T06:05:55.000Z</time>
      </trkpt>
      <trkpt lat="49.81137" lon="4.80247">
        <ele>183</ele>
        <time>2022-07-15T06:05:56.000Z</time>
      </trkpt>
      <trkpt lat="49.81138" lon="4.80251">
        <ele>183</ele>
        <time>2022-07-15T06:05:57.000Z</time>
      </trkpt>
      <trkpt lat="49.81138" lon="4.80255">
        <ele>183</ele>
        <time>2022-07-15T06:05:58.000Z</time>
      </trkpt>
      <trkpt lat="49.81138" lon="4.80259">
        <ele>183</ele>
        <time>2022-07-15T06:05:59.000Z</time>
      </trkpt>
      <trkpt lat="49.81138" lon="4.80264">
        <ele>184</ele>
        <time>2022-07-15T06:06:00.000Z</time>
      </trkpt>
      <trkpt lat="49.81139" lon="4.80268">
        <ele>184</ele>
        <time>2022-07-15T06:06:01.000Z</time>
      </trkpt>
      <trkpt lat="49.81139" lon="4.80272">
        <ele>184</ele>
        <time>2022-07-15T06:06:02.000Z</time>
      </trkpt>
      <trkpt lat="49.81139" lon="4.80276">
        <ele>184</ele>
        <time>2022-07-15T06:06:03.000Z</time>
      </trkpt>
      <trkpt lat="49.8114" lon="4.80281">
        <ele>185</ele>
        <time>2022-07-15T06:06:04.000Z</time>
      </trkpt>
      <trkpt lat="49.8114" lon="4.80286">
        <ele>185</ele>
        <time>2022-07-15T06:06:05.000Z</time>
      </trkpt>
      <trkpt lat="49.81141" lon="4.8029">
        <ele>185</ele>
        <time>2022-07-15T06:06:06.000Z</time>
      </trkpt>
      <trkpt lat="49.81141" lon="4.80294">
        <ele>185</ele>
        <time>2022-07-15T06:06:07.000Z</time>
      </trkpt>
      <trkpt lat="49.81142" lon="4.80299">
        <ele>185</ele>
        <time>2022-07-15T06:06:08.000Z</time>
      </trkpt>
      <trkpt lat="49.81143" lon="4.80304">
        <ele>185</ele>
        <time>2022-07-15T06:06:09.000Z</time>
      </trkpt>
      <trkpt lat="49.81143" lon="4.80309">
        <ele>185</ele>
        <time>2022-07-15T06:06:10.000Z</time>
      </trkpt>
      <trkpt lat="49.81144" lon="4.80313">
        <ele>185</ele>
        <time>2022-07-15T06:06:11.000Z</time>
      </trkpt>
      <trkpt lat="49.81144" lon="4.80318">
        <ele>185</ele>
        <time>2022-07-15T06:06:12.000Z</time>
      </trkpt>
      <trkpt lat="49.81144" lon="4.80322">
        <ele>185</ele>
        <time>2022-07-15T06:06:13.000Z</time>
      </trkpt>
      <trkpt lat="49.81144" lon="4.80326">
        <ele>185</ele>
        <time>2022-07-15T06:06:14.000Z</time>
      </trkpt>
      <trkpt lat="49.81145" lon="4.8033">
        <ele>185</ele>
        <time>2022-07-15T06:06:15.000Z</time>
      </trkpt>
      <trkpt lat="49.81146" lon="4.80334">
        <ele>185</ele>
        <time>2022-07-15T06:06:16.000Z</time>
      </trkpt>
      <trkpt lat="49.81148" lon="4.80337">
        <ele>186</ele>
        <time>2022-07-15T06:06:17.000Z</time>
      </trkpt>
      <trkpt lat="49.81149" lon="4.8034">
        <ele>186</ele>
        <time>2022-07-15T06:06:18.000Z</time>
      </trkpt>
      <trkpt lat="49.81151" lon="4.80342">
        <ele>186</ele>
        <time>2022-07-15T06:06:19.000Z</time>
      </trkpt>
      <trkpt lat="49.81153" lon="4.80343">
        <ele>187</ele>
        <time>2022-07-15T06:06:20.000Z</time>
      </trkpt>
      <trkpt lat="49.81154" lon="4.80344">
        <ele>187</ele>
        <time>2022-07-15T06:06:21.000Z</time>
      </trkpt>
      <trkpt lat="49.81155" lon="4.80344">
        <ele>188</ele>
        <time>2022-07-15T06:06:22.000Z</time>
      </trkpt>
      <trkpt lat="49.81157" lon="4.80343">
        <ele>188</ele>
        <time>2022-07-15T06:06:23.000Z</time>
      </trkpt>
      <trkpt lat="49.81158" lon="4.80342">
        <ele>188</ele>
        <time>2022-07-15T06:06:24.000Z</time>
      </trkpt>
      <trkpt lat="49.8116" lon="4.80339">
        <ele>189</ele>
        <time>2022-07-15T06:06:25.000Z</time>
      </trkpt>
      <trkpt lat="49.81161" lon="4.80336">
        <ele>189</ele>
        <time>2022-07-15T06:06:26.000Z</time>
      </trkpt>
      <trkpt lat="49.81163" lon="4.80332">
        <ele>190</ele>
        <time>2022-07-15T06:06:27.000Z</time>
      </trkpt>
      <trkpt lat="49.81165" lon="4.80328">
        <ele>190</ele>
        <time>2022-07-15T06:06:28.000Z</time>
      </trkpt>
      <trkpt lat="49.81167" lon="4.80323">
        <ele>190</ele>
        <time>2022-07-15T06:06:29.000Z</time>
      </trkpt>
      <trkpt lat="49.81169" lon="4.80319">
        <ele>191</ele>
        <time>2022-07-15T06:06:30.000Z</time>
      </trkpt>
      <trkpt lat="49.81172" lon="4.80315">
        <ele>191</ele>
        <time>2022-07-15T06:06:31.000Z</time>
      </trkpt>
      <trkpt lat="49.81175" lon="4.8031">
        <ele>192</ele>
        <time>2022-07-15T06:06:32.000Z</time>
      </trkpt>
      <trkpt lat="49.81177" lon="4.80303">
        <ele>192</ele>
        <time>2022-07-15T06:06:33.000Z</time>
      </trkpt>
      <trkpt lat="49.81179" lon="4.80297">
        <ele>193</ele>
        <time>2022-07-15T06:06:34.000Z</time>
      </trkpt>
      <trkpt lat="49.81182" lon="4.80291">
        <ele>193</ele>
        <time>2022-07-15T06:06:35.000Z</time>
      </trkpt>
      <trkpt lat="49.81185" lon="4.80285">
        <ele>193</ele>
        <time>2022-07-15T06:06:36.000Z</time>
      </trkpt>
      <trkpt lat="49.81187" lon="4.8028">
        <ele>194</ele>
        <time>2022-07-15T06:06:37.000Z</time>
      </trkpt>
      <trkpt lat="49.81189" lon="4.80274">
        <ele>194</ele>
        <time>2022-07-15T06:06:38.000Z</time>
      </trkpt>
      <trkpt lat="49.81192" lon="4.80269">
        <ele>194</ele>
        <time>2022-07-15T06:06:39.000Z</time>
      </trkpt>
      <trkpt lat="49.81194" lon="4.80263">
        <ele>195</ele>
        <time>2022-07-15T06:06:40.000Z</time>
      </trkpt>
      <trkpt lat="49.81196" lon="4.80257">
        <ele>195</ele>
        <time>2022-07-15T06:06:41.000Z</time>
      </trkpt>
      <trkpt lat="49.81197" lon="4.80252">
        <ele>195</ele>
        <time>2022-07-15T06:06:42.000Z</time>
      </trkpt>
      <trkpt lat="49.81199" lon="4.80247">
        <ele>196</ele>
        <time>2022-07-15T06:06:43.000Z</time>
      </trkpt>
      <trkpt lat="49.81201" lon="4.80242">
        <ele>196</ele>
        <time>2022-07-15T06:06:44.000Z</time>
      </trkpt>
      <trkpt lat="49.81203" lon="4.80236">
        <ele>196</ele>
        <time>2022-07-15T06:06:45.000Z</time>
      </trkpt>
      <trkpt lat="49.81205" lon="4.8023">
        <ele>196</ele>
        <time>2022-07-15T06:06:46.000Z</time>
      </trkpt>
      <trkpt lat="49.81208" lon="4.80224">
        <ele>197</ele>
        <time>2022-07-15T06:06:47.000Z</time>
      </trkpt>
      <trkpt lat="49.81211" lon="4.80218">
        <ele>197</ele>
        <time>2022-07-15T06:06:48.000Z</time>
      </trkpt>
      <trkpt lat="49.81213" lon="4.80212">
        <ele>197</ele>
        <time>2022-07-15T06:06:49.000Z</time>
      </trkpt>
      <trkpt lat="49.81215" lon="4.80206">
        <ele>197</ele>
        <time>2022-07-15T06:06:50.000Z</time>
      </trkpt>
      <trkpt lat="49.81218" lon="4.80199">
        <ele>197</ele>
        <time>2022-07-15T06:06:51.000Z</time>
      </trkpt>
      <trkpt lat="49.81221" lon="4.80193">
        <ele>198</ele>
        <time>2022-07-15T06:06:52.000Z</time>
      </trkpt>
      <trkpt lat="49.81224" lon="4.80187">
        <ele>198</ele>
        <time>2022-07-15T06:06:53.000Z</time>
      </trkpt>
      <trkpt lat="49.81226" lon="4.8018">
        <ele>198</ele>
        <time>2022-07-15T06:06:54.000Z</time>
      </trkpt>
      <trkpt lat="49.81229" lon="4.80174">
        <ele>198</ele>
        <time>2022-07-15T06:06:55.000Z</time>
      </trkpt>
      <trkpt lat="49.81231" lon="4.80167">
        <ele>198</ele>
        <time>2022-07-15T06:06:56.000Z</time>
      </trkpt>
      <trkpt lat="49.81234" lon="4.80161">
        <ele>199</ele>
        <time>2022-07-15T06:06:57.000Z</time>
      </trkpt>
      <trkpt lat="49.81236" lon="4.80155">
        <ele>199</ele>
        <time>2022-07-15T06:06:58.000Z</time>
      </trkpt>
      <trkpt lat="49.81239" lon="4.80148">
        <ele>199</ele>
        <time>2022-07-15T06:06:59.000Z</time>
      </trkpt>
      <trkpt lat="49.81241" lon="4.80143">
        <ele>199</ele>
        <time>2022-07-15T06:07:00.000Z</time>
      </trkpt>
      <trkpt lat="49.81243" lon="4.80137">
        <ele>200</ele>
        <time>2022-07-15T06:07:01.000Z</time>
      </trkpt>
      <trkpt lat="49.81246" lon="4.8013">
        <ele>200</ele>
        <time>2022-07-15T06:07:02.000Z</time>
      </trkpt>
      <trkpt lat="49.81249" lon="4.80124">
        <ele>200</ele>
        <time>2022-07-15T06:07:03.000Z</time>
      </trkpt>
      <trkpt lat="49.81252" lon="4.80118">
        <ele>200</ele>
        <time>2022-07-15T06:07:04.000Z</time>
      </trkpt>
      <trkpt lat="49.81255" lon="4.80111">
        <ele>201</ele>
        <time>2022-07-15T06:07:05.000Z</time>
      </trkpt>
      <trkpt lat="49.81257" lon="4.80104">
        <ele>201</ele>
        <time>2022-07-15T06:07:06.000Z</time>
      </trkpt>
      <trkpt lat="49.81259" lon="4.80098">
        <ele>201</ele>
        <time>2022-07-15T06:07:07.000Z</time>
      </trkpt>
      <trkpt lat="49.81261" lon="4.80091">
        <ele>201</ele>
        <time>2022-07-15T06:07:08.000Z</time>
      </trkpt>
      <trkpt lat="49.81264" lon="4.80086">
        <ele>202</ele>
        <time>2022-07-15T06:07:09.000Z</time>
      </trkpt>
      <trkpt lat="49.81266" lon="4.8008">
        <ele>202</ele>
        <time>2022-07-15T06:07:10.000Z</time>
      </trkpt>
      <trkpt lat="49.81269" lon="4.80074">
        <ele>202</ele>
        <time>2022-07-15T06:07:11.000Z</time>
      </trkpt>
      <trkpt lat="49.81272" lon="4.80067">
        <ele>202</ele>
        <time>2022-07-15T06:07:12.000Z</time>
      </trkpt>
      <trkpt lat="49.81275" lon="4.8006">
        <ele>202</ele>
        <time>2022-07-15T06:07:13.000Z</time>
      </trkpt>
      <trkpt lat="49.81278" lon="4.80053">
        <ele>203</ele>
        <time>2022-07-15T06:07:14.000Z</time>
      </trkpt>
      <trkpt lat="49.8128" lon="4.80046">
        <ele>203</ele>
        <time>2022-07-15T06:07:15.000Z</time>
      </trkpt>
      <trkpt lat="49.81283" lon="4.8004">
        <ele>203</ele>
        <time>2022-07-15T06:07:16.000Z</time>
      </trkpt>
      <trkpt lat="49.81286" lon="4.80035">
        <ele>203</ele>
        <time>2022-07-15T06:07:17.000Z</time>
      </trkpt>
      <trkpt lat="49.81289" lon="4.80029">
        <ele>203</ele>
        <time>2022-07-15T06:07:18.000Z</time>
      </trkpt>
      <trkpt lat="49.81292" lon="4.80023">
        <ele>204</ele>
        <time>2022-07-15T06:07:19.000Z</time>
      </trkpt>
      <trkpt lat="49.81294" lon="4.80016">
        <ele>204</ele>
        <time>2022-07-15T06:07:20.000Z</time>
      </trkpt>
      <trkpt lat="49.81297" lon="4.80009">
        <ele>204</ele>
        <time>2022-07-15T06:07:21.000Z</time>
      </trkpt>
      <trkpt lat="49.81299" lon="4.80002">
        <ele>204</ele>
        <time>2022-07-15T06:07:22.000Z</time>
      </trkpt>
      <trkpt lat="49.81301" lon="4.79995">
        <ele>204</ele>
        <time>2022-07-15T06:07:23.000Z</time>
      </trkpt>
      <trkpt lat="49.81304" lon="4.79988">
        <ele>204</ele>
        <time>2022-07-15T06:07:24.000Z</time>
      </trkpt>
      <trkpt lat="49.81307" lon="4.79982">
        <ele>204</ele>
        <time>2022-07-15T06:07:25.000Z</time>
      </trkpt>
      <trkpt lat="49.8131" lon="4.79975">
        <ele>204</ele>
        <time>2022-07-15T06:07:26.000Z</time>
      </trkpt>
      <trkpt lat="49.81313" lon="4.79969">
        <ele>204</ele>
        <time>2022-07-15T06:07:27.000Z</time>
      </trkpt>
      <trkpt lat="49.81316" lon="4.79963">
        <ele>205</ele>
        <time>2022-07-15T06:07:28.000Z</time>
      </trkpt>
      <trkpt lat="49.81319" lon="4.79956">
        <ele>205</ele>
        <time>2022-07-15T06:07:29.000Z</time>
      </trkpt>
      <trkpt lat="49.81323" lon="4.79949">
        <ele>205</ele>
        <time>2022-07-15T06:07:30.000Z</time>
      </trkpt>
      <trkpt lat="49.81326" lon="4.79942">
        <ele>205</ele>
        <time>2022-07-15T06:07:31.000Z</time>
      </trkpt>
      <trkpt lat="49.8133" lon="4.79936">
        <ele>205</ele>
        <time>2022-07-15T06:07:32.000Z</time>
      </trkpt>
      <trkpt lat="49.81333" lon="4.79928">
        <ele>205</ele>
        <time>2022-07-15T06:07:33.000Z</time>
      </trkpt>
      <trkpt lat="49.81336" lon="4.7992">
        <ele>205</ele>
        <time>2022-07-15T06:07:34.000Z</time>
      </trkpt>
      <trkpt lat="49.81339" lon="4.79913">
        <ele>205</ele>
        <time>2022-07-15T06:07:35.000Z</time>
      </trkpt>
      <trkpt lat="49.81342" lon="4.79905">
        <ele>205</ele>
        <time>2022-07-15T06:07:36.000Z</time>
      </trkpt>
      <trkpt lat="49.81344" lon="4.79898">
        <ele>205</ele>
        <time>2022-07-15T06:07:37.000Z</time>
      </trkpt>
      <trkpt lat="49.81347" lon="4.79891">
        <ele>205</ele>
        <time>2022-07-15T06:07:38.000Z</time>
      </trkpt>
      <trkpt lat="49.81349" lon="4.79883">
        <ele>205</ele>
        <time>2022-07-15T06:07:39.000Z</time>
      </trkpt>
      <trkpt lat="49.81352" lon="4.79876">
        <ele>205</ele>
        <time>2022-07-15T06:07:40.000Z</time>
      </trkpt>
      <trkpt lat="49.81354" lon="4.79869">
        <ele>205</ele>
        <time>2022-07-15T06:07:41.000Z</time>
      </trkpt>
      <trkpt lat="49.81356" lon="4.79862">
        <ele>205</ele>
        <time>2022-07-15T06:07:42.000Z</time>
      </trkpt>
      <trkpt lat="49.81358" lon="4.79855">
        <ele>205</ele>
        <time>2022-07-15T06:07:43.000Z</time>
      </trkpt>
      <trkpt lat="49.81361" lon="4.79847">
        <ele>205</ele>
        <time>2022-07-15T06:07:44.000Z</time>
      </trkpt>
      <trkpt lat="49.81364" lon="4.7984">
        <ele>205</ele>
        <time>2022-07-15T06:07:45.000Z</time>
      </trkpt>
      <trkpt lat="49.81367" lon="4.79833">
        <ele>205</ele>
        <time>2022-07-15T06:07:46.000Z</time>
      </trkpt>
      <trkpt lat="49.8137" lon="4.79824">
        <ele>205</ele>
        <time>2022-07-15T06:07:47.000Z</time>
      </trkpt>
      <trkpt lat="49.81373" lon="4.79815">
        <ele>204</ele>
        <time>2022-07-15T06:07:48.000Z</time>
      </trkpt>
      <trkpt lat="49.81376" lon="4.79807">
        <ele>204</ele>
        <time>2022-07-15T06:07:49.000Z</time>
      </trkpt>
      <trkpt lat="49.81378" lon="4.79799">
        <ele>204</ele>
        <time>2022-07-15T06:07:50.000Z</time>
      </trkpt>
      <trkpt lat="49.8138" lon="4.79792">
        <ele>204</ele>
        <time>2022-07-15T06:07:51.000Z</time>
      </trkpt>
      <trkpt lat="49.81383" lon="4.79783">
        <ele>204</ele>
        <time>2022-07-15T06:07:52.000Z</time>
      </trkpt>
      <trkpt lat="49.81386" lon="4.79775">
        <ele>204</ele>
        <time>2022-07-15T06:07:53.000Z</time>
      </trkpt>
      <trkpt lat="49.81389" lon="4.79767">
        <ele>204</ele>
        <time>2022-07-15T06:07:54.000Z</time>
      </trkpt>
      <trkpt lat="49.81392" lon="4.79758">
        <ele>204</ele>
        <time>2022-07-15T06:07:55.000Z</time>
      </trkpt>
      <trkpt lat="49.81394" lon="4.7975">
        <ele>203</ele>
        <time>2022-07-15T06:07:56.000Z</time>
      </trkpt>
      <trkpt lat="49.81397" lon="4.79741">
        <ele>203</ele>
        <time>2022-07-15T06:07:57.000Z</time>
      </trkpt>
      <trkpt lat="49.81399" lon="4.79732">
        <ele>203</ele>
        <time>2022-07-15T06:07:58.000Z</time>
      </trkpt>
      <trkpt lat="49.81401" lon="4.79724">
        <ele>203</ele>
        <time>2022-07-15T06:07:59.000Z</time>
      </trkpt>
      <trkpt lat="49.81403" lon="4.79717">
        <ele>203</ele>
        <time>2022-07-15T06:08:00.000Z</time>
      </trkpt>
      <trkpt lat="49.81406" lon="4.79709">
        <ele>203</ele>
        <time>2022-07-15T06:08:01.000Z</time>
      </trkpt>
      <trkpt lat="49.81408" lon="4.79702">
        <ele>203</ele>
        <time>2022-07-15T06:08:02.000Z</time>
      </trkpt>
      <trkpt lat="49.81411" lon="4.79695">
        <ele>203</ele>
        <time>2022-07-15T06:08:03.000Z</time>
      </trkpt>
      <trkpt lat="49.81413" lon="4.79687">
        <ele>203</ele>
        <time>2022-07-15T06:08:04.000Z</time>
      </trkpt>
      <trkpt lat="49.81415" lon="4.79679">
        <ele>203</ele>
        <time>2022-07-15T06:08:05.000Z</time>
      </trkpt>
      <trkpt lat="49.81416" lon="4.79671">
        <ele>203</ele>
        <time>2022-07-15T06:08:06.000Z</time>
      </trkpt>
      <trkpt lat="49.81418" lon="4.79663">
        <ele>203</ele>
        <time>2022-07-15T06:08:07.000Z</time>
      </trkpt>
      <trkpt lat="49.81419" lon="4.79654">
        <ele>203</ele>
        <time>2022-07-15T06:08:08.000Z</time>
      </trkpt>
      <trkpt lat="49.81422" lon="4.79646">
        <ele>203</ele>
        <time>2022-07-15T06:08:09.000Z</time>
      </trkpt>
      <trkpt lat="49.81424" lon="4.79637">
        <ele>203</ele>
        <time>2022-07-15T06:08:10.000Z</time>
      </trkpt>
      <trkpt lat="49.81425" lon="4.79629">
        <ele>203</ele>
        <time>2022-07-15T06:08:11.000Z</time>
      </trkpt>
      <trkpt lat="49.81426" lon="4.79621">
        <ele>203</ele>
        <time>2022-07-15T06:08:12.000Z</time>
      </trkpt>
      <trkpt lat="49.81427" lon="4.79614">
        <ele>203</ele>
        <time>2022-07-15T06:08:13.000Z</time>
      </trkpt>
      <trkpt lat="49.81428" lon="4.79607">
        <ele>203</ele>
        <time>2022-07-15T06:08:14.000Z</time>
      </trkpt>
      <trkpt lat="49.81429" lon="4.79601">
        <ele>203</ele>
        <time>2022-07-15T06:08:15.000Z</time>
      </trkpt>
      <trkpt lat="49.81429" lon="4.79593">
        <ele>203</ele>
        <time>2022-07-15T06:08:16.000Z</time>
      </trkpt>
      <trkpt lat="49.8143" lon="4.79585">
        <ele>203</ele>
        <time>2022-07-15T06:08:17.000Z</time>
      </trkpt>
      <trkpt lat="49.81431" lon="4.79575">
        <ele>203</ele>
        <time>2022-07-15T06:08:18.000Z</time>
      </trkpt>
      <trkpt lat="49.81432" lon="4.79565">
        <ele>203</ele>
        <time>2022-07-15T06:08:19.000Z</time>
      </trkpt>
      <trkpt lat="49.81433" lon="4.79556">
        <ele>202</ele>
        <time>2022-07-15T06:08:20.000Z</time>
      </trkpt>
      <trkpt lat="49.81434" lon="4.79547">
        <ele>202</ele>
        <time>2022-07-15T06:08:21.000Z</time>
      </trkpt>
      <trkpt lat="49.81434" lon="4.79538">
        <ele>202</ele>
        <time>2022-07-15T06:08:22.000Z</time>
      </trkpt>
      <trkpt lat="49.81435" lon="4.7953">
        <ele>202</ele>
        <time>2022-07-15T06:08:23.000Z</time>
      </trkpt>
      <trkpt lat="49.81435" lon="4.79521">
        <ele>202</ele>
        <time>2022-07-15T06:08:24.000Z</time>
      </trkpt>
      <trkpt lat="49.81436" lon="4.79514">
        <ele>202</ele>
        <time>2022-07-15T06:08:25.000Z</time>
      </trkpt>
      <trkpt lat="49.81437" lon="4.79506">
        <ele>202</ele>
        <time>2022-07-15T06:08:26.000Z</time>
      </trkpt>
      <trkpt lat="49.81439" lon="4.795">
        <ele>202</ele>
        <time>2022-07-15T06:08:27.000Z</time>
      </trkpt>
      <trkpt lat="49.81439" lon="4.79493">
        <ele>202</ele>
        <time>2022-07-15T06:08:28.000Z</time>
      </trkpt>
      <trkpt lat="49.8144" lon="4.79486">
        <ele>202</ele>
        <time>2022-07-15T06:08:29.000Z</time>
      </trkpt>
      <trkpt lat="49.8144" lon="4.79479">
        <ele>202</ele>
        <time>2022-07-15T06:08:30.000Z</time>
      </trkpt>
      <trkpt lat="49.8144" lon="4.79471">
        <ele>202</ele>
        <time>2022-07-15T06:08:31.000Z</time>
      </trkpt>
      <trkpt lat="49.81441" lon="4.79465">
        <ele>202</ele>
        <time>2022-07-15T06:08:32.000Z</time>
      </trkpt>
      <trkpt lat="49.81441" lon="4.79457">
        <ele>202</ele>
        <time>2022-07-15T06:08:33.000Z</time>
      </trkpt>
      <trkpt lat="49.81441" lon="4.79449">
        <ele>202</ele>
        <time>2022-07-15T06:08:34.000Z</time>
      </trkpt>
      <trkpt lat="49.81441" lon="4.79441">
        <ele>202</ele>
        <time>2022-07-15T06:08:35.000Z</time>
      </trkpt>
      <trkpt lat="49.81442" lon="4.79434">
        <ele>202</ele>
        <time>2022-07-15T06:08:36.000Z</time>
      </trkpt>
      <trkpt lat="49.81442" lon="4.79427">
        <ele>202</ele>
        <time>2022-07-15T06:08:37.000Z</time>
      </trkpt>
      <trkpt lat="49.81443" lon="4.79419">
        <ele>202</ele>
        <time>2022-07-15T06:08:38.000Z</time>
      </trkpt>
      <trkpt lat="49.81444" lon="4.79411">
        <ele>202</ele>
        <time>2022-07-15T06:08:39.000Z</time>
      </trkpt>
      <trkpt lat="49.81446" lon="4.79403">
        <ele>202</ele>
        <time>2022-07-15T06:08:40.000Z</time>
      </trkpt>
      <trkpt lat="49.81448" lon="4.79398">
        <ele>202</ele>
        <time>2022-07-15T06:08:41.000Z</time>
      </trkpt>
      <trkpt lat="49.81451" lon="4.79395">
        <ele>202</ele>
        <time>2022-07-15T06:08:42.000Z</time>
      </trkpt>
      <trkpt lat="49.81453" lon="4.79389">
        <ele>202</ele>
        <time>2022-07-15T06:08:43.000Z</time>
      </trkpt>
      <trkpt lat="49.81453" lon="4.79384">
        <ele>202</ele>
        <time>2022-07-15T06:08:44.000Z</time>
      </trkpt>
      <trkpt lat="49.81452" lon="4.79378">
        <ele>202</ele>
        <time>2022-07-15T06:08:45.000Z</time>
      </trkpt>
      <trkpt lat="49.81452" lon="4.79371">
        <ele>202</ele>
        <time>2022-07-15T06:08:46.000Z</time>
      </trkpt>
      <trkpt lat="49.81452" lon="4.79363">
        <ele>202</ele>
        <time>2022-07-15T06:08:47.000Z</time>
      </trkpt>
      <trkpt lat="49.81453" lon="4.79355">
        <ele>202</ele>
        <time>2022-07-15T06:08:48.000Z</time>
      </trkpt>
      <trkpt lat="49.81453" lon="4.79347">
        <ele>202</ele>
        <time>2022-07-15T06:08:49.000Z</time>
      </trkpt>
      <trkpt lat="49.81454" lon="4.79339">
        <ele>202</ele>
        <time>2022-07-15T06:08:50.000Z</time>
      </trkpt>
      <trkpt lat="49.81455" lon="4.79331">
        <ele>203</ele>
        <time>2022-07-15T06:08:51.000Z</time>
      </trkpt>
      <trkpt lat="49.81456" lon="4.79324">
        <ele>203</ele>
        <time>2022-07-15T06:08:52.000Z</time>
      </trkpt>
      <trkpt lat="49.81456" lon="4.79315">
        <ele>202</ele>
        <time>2022-07-15T06:08:53.000Z</time>
      </trkpt>
      <trkpt lat="49.81457" lon="4.79307">
        <ele>202</ele>
        <time>2022-07-15T06:08:54.000Z</time>
      </trkpt>
      <trkpt lat="49.81458" lon="4.79298">
        <ele>202</ele>
        <time>2022-07-15T06:08:55.000Z</time>
      </trkpt>
      <trkpt lat="49.81459" lon="4.79289">
        <ele>202</ele>
        <time>2022-07-15T06:08:56.000Z</time>
      </trkpt>
      <trkpt lat="49.8146" lon="4.79279">
        <ele>202</ele>
        <time>2022-07-15T06:08:57.000Z</time>
      </trkpt>
      <trkpt lat="49.81461" lon="4.7927">
        <ele>202</ele>
        <time>2022-07-15T06:08:58.000Z</time>
      </trkpt>
      <trkpt lat="49.81462" lon="4.79261">
        <ele>202</ele>
        <time>2022-07-15T06:08:59.000Z</time>
      </trkpt>
      <trkpt lat="49.81463" lon="4.79252">
        <ele>202</ele>
        <time>2022-07-15T06:09:00.000Z</time>
      </trkpt>
      <trkpt lat="49.81465" lon="4.79244">
        <ele>202</ele>
        <time>2022-07-15T06:09:01.000Z</time>
      </trkpt>
      <trkpt lat="49.81466" lon="4.79236">
        <ele>202</ele>
        <time>2022-07-15T06:09:02.000Z</time>
      </trkpt>
      <trkpt lat="49.81468" lon="4.79227">
        <ele>202</ele>
        <time>2022-07-15T06:09:03.000Z</time>
      </trkpt>
      <trkpt lat="49.8147" lon="4.79218">
        <ele>202</ele>
        <time>2022-07-15T06:09:04.000Z</time>
      </trkpt>
      <trkpt lat="49.81471" lon="4.79209">
        <ele>202</ele>
        <time>2022-07-15T06:09:05.000Z</time>
      </trkpt>
      <trkpt lat="49.81471" lon="4.792">
        <ele>202</ele>
        <time>2022-07-15T06:09:06.000Z</time>
      </trkpt>
      <trkpt lat="49.81471" lon="4.79192">
        <ele>202</ele>
        <time>2022-07-15T06:09:07.000Z</time>
      </trkpt>
      <trkpt lat="49.81471" lon="4.79182">
        <ele>202</ele>
        <time>2022-07-15T06:09:08.000Z</time>
      </trkpt>
      <trkpt lat="49.81471" lon="4.79171">
        <ele>202</ele>
        <time>2022-07-15T06:09:09.000Z</time>
      </trkpt>
      <trkpt lat="49.81471" lon="4.7916">
        <ele>202</ele>
        <time>2022-07-15T06:09:10.000Z</time>
      </trkpt>
      <trkpt lat="49.81471" lon="4.7915">
        <ele>202</ele>
        <time>2022-07-15T06:09:11.000Z</time>
      </trkpt>
      <trkpt lat="49.81471" lon="4.7914">
        <ele>202</ele>
        <time>2022-07-15T06:09:12.000Z</time>
      </trkpt>
      <trkpt lat="49.81472" lon="4.79129">
        <ele>201</ele>
        <time>2022-07-15T06:09:13.000Z</time>
      </trkpt>
      <trkpt lat="49.81473" lon="4.79119">
        <ele>201</ele>
        <time>2022-07-15T06:09:14.000Z</time>
      </trkpt>
      <trkpt lat="49.81475" lon="4.79109">
        <ele>201</ele>
        <time>2022-07-15T06:09:15.000Z</time>
      </trkpt>
      <trkpt lat="49.81477" lon="4.79099">
        <ele>201</ele>
        <time>2022-07-15T06:09:16.000Z</time>
      </trkpt>
      <trkpt lat="49.81479" lon="4.79089">
        <ele>201</ele>
        <time>2022-07-15T06:09:17.000Z</time>
      </trkpt>
      <trkpt lat="49.81481" lon="4.79081">
        <ele>201</ele>
        <time>2022-07-15T06:09:18.000Z</time>
      </trkpt>
      <trkpt lat="49.81483" lon="4.79073">
        <ele>201</ele>
        <time>2022-07-15T06:09:19.000Z</time>
      </trkpt>
      <trkpt lat="49.81485" lon="4.79065">
        <ele>201</ele>
        <time>2022-07-15T06:09:20.000Z</time>
      </trkpt>
      <trkpt lat="49.81487" lon="4.79057">
        <ele>200</ele>
        <time>2022-07-15T06:09:21.000Z</time>
      </trkpt>
      <trkpt lat="49.81488" lon="4.7905">
        <ele>200</ele>
        <time>2022-07-15T06:09:22.000Z</time>
      </trkpt>
      <trkpt lat="49.8149" lon="4.79043">
        <ele>200</ele>
        <time>2022-07-15T06:09:23.000Z</time>
      </trkpt>
      <trkpt lat="49.81492" lon="4.79035">
        <ele>200</ele>
        <time>2022-07-15T06:09:24.000Z</time>
      </trkpt>
      <trkpt lat="49.81493" lon="4.79027">
        <ele>200</ele>
        <time>2022-07-15T06:09:25.000Z</time>
      </trkpt>
      <trkpt lat="49.81494" lon="4.79019">
        <ele>200</ele>
        <time>2022-07-15T06:09:26.000Z</time>
      </trkpt>
      <trkpt lat="49.81496" lon="4.7901">
        <ele>200</ele>
        <time>2022-07-15T06:09:27.000Z</time>
      </trkpt>
      <trkpt lat="49.81498" lon="4.79001">
        <ele>200</ele>
        <time>2022-07-15T06:09:28.000Z</time>
      </trkpt>
      <trkpt lat="49.81499" lon="4.78992">
        <ele>199</ele>
        <time>2022-07-15T06:09:29.000Z</time>
      </trkpt>
      <trkpt lat="49.81501" lon="4.78984">
        <ele>199</ele>
        <time>2022-07-15T06:09:30.000Z</time>
      </trkpt>
      <trkpt lat="49.81502" lon="4.78976">
        <ele>199</ele>
        <time>2022-07-15T06:09:31.000Z</time>
      </trkpt>
      <trkpt lat="49.81503" lon="4.78967">
        <ele>199</ele>
        <time>2022-07-15T06:09:32.000Z</time>
      </trkpt>
      <trkpt lat="49.81504" lon="4.78959">
        <ele>199</ele>
        <time>2022-07-15T06:09:33.000Z</time>
      </trkpt>
      <trkpt lat="49.81505" lon="4.78949">
        <ele>198</ele>
        <time>2022-07-15T06:09:34.000Z</time>
      </trkpt>
      <trkpt lat="49.81505" lon="4.78939">
        <ele>198</ele>
        <time>2022-07-15T06:09:35.000Z</time>
      </trkpt>
      <trkpt lat="49.81506" lon="4.78929">
        <ele>198</ele>
        <time>2022-07-15T06:09:36.000Z</time>
      </trkpt>
      <trkpt lat="49.81508" lon="4.78919">
        <ele>198</ele>
        <time>2022-07-15T06:09:37.000Z</time>
      </trkpt>
      <trkpt lat="49.81509" lon="4.78909">
        <ele>198</ele>
        <time>2022-07-15T06:09:38.000Z</time>
      </trkpt>
      <trkpt lat="49.81512" lon="4.78901">
        <ele>198</ele>
        <time>2022-07-15T06:09:39.000Z</time>
      </trkpt>
      <trkpt lat="49.81514" lon="4.78891">
        <ele>197</ele>
        <time>2022-07-15T06:09:40.000Z</time>
      </trkpt>
      <trkpt lat="49.81517" lon="4.78882">
        <ele>197</ele>
        <time>2022-07-15T06:09:41.000Z</time>
      </trkpt>
      <trkpt lat="49.81519" lon="4.78873">
        <ele>197</ele>
        <time>2022-07-15T06:09:42.000Z</time>
      </trkpt>
      <trkpt lat="49.81521" lon="4.78866">
        <ele>197</ele>
        <time>2022-07-15T06:09:43.000Z</time>
      </trkpt>
      <trkpt lat="49.81523" lon="4.7886">
        <ele>197</ele>
        <time>2022-07-15T06:09:44.000Z</time>
      </trkpt>
      <trkpt lat="49.81524" lon="4.78854">
        <ele>197</ele>
        <time>2022-07-15T06:09:45.000Z</time>
      </trkpt>
      <trkpt lat="49.81525" lon="4.78847">
        <ele>197</ele>
        <time>2022-07-15T06:09:46.000Z</time>
      </trkpt>
      <trkpt lat="49.81528" lon="4.7884">
        <ele>196</ele>
        <time>2022-07-15T06:09:47.000Z</time>
      </trkpt>
      <trkpt lat="49.8153" lon="4.78832">
        <ele>196</ele>
        <time>2022-07-15T06:09:48.000Z</time>
      </trkpt>
      <trkpt lat="49.81532" lon="4.78825">
        <ele>196</ele>
        <time>2022-07-15T06:09:49.000Z</time>
      </trkpt>
      <trkpt lat="49.81535" lon="4.78817">
        <ele>196</ele>
        <time>2022-07-15T06:09:50.000Z</time>
      </trkpt>
      <trkpt lat="49.81538" lon="4.78811">
        <ele>196</ele>
        <time>2022-07-15T06:09:51.000Z</time>
      </trkpt>
      <trkpt lat="49.8154" lon="4.78804">
        <ele>196</ele>
        <time>2022-07-15T06:09:52.000Z</time>
      </trkpt>
      <trkpt lat="49.81543" lon="4.78798">
        <ele>195</ele>
        <time>2022-07-15T06:09:53.000Z</time>
      </trkpt>
      <trkpt lat="49.81544" lon="4.78792">
        <ele>195</ele>
        <time>2022-07-15T06:09:54.000Z</time>
      </trkpt>
      <trkpt lat="49.81546" lon="4.78789">
        <ele>195</ele>
        <time>2022-07-15T06:09:55.000Z</time>
      </trkpt>
      <trkpt lat="49.81548" lon="4.78785">
        <ele>195</ele>
        <time>2022-07-15T06:09:56.000Z</time>
      </trkpt>
      <trkpt lat="49.81549" lon="4.78781">
        <ele>194</ele>
        <time>2022-07-15T06:09:57.000Z</time>
      </trkpt>
      <trkpt lat="49.81551" lon="4.78778">
        <ele>194</ele>
        <time>2022-07-15T06:09:58.000Z</time>
      </trkpt>
      <trkpt lat="49.81552" lon="4.78775">
        <ele>194</ele>
        <time>2022-07-15T06:09:59.000Z</time>
      </trkpt>
      <trkpt lat="49.81553" lon="4.78769">
        <ele>194</ele>
        <time>2022-07-15T06:10:00.000Z</time>
      </trkpt>
      <trkpt lat="49.81555" lon="4.78762">
        <ele>193</ele>
        <time>2022-07-15T06:10:01.000Z</time>
      </trkpt>
      <trkpt lat="49.81557" lon="4.78755">
        <ele>193</ele>
        <time>2022-07-15T06:10:02.000Z</time>
      </trkpt>
      <trkpt lat="49.81558" lon="4.78748">
        <ele>193</ele>
        <time>2022-07-15T06:10:03.000Z</time>
      </trkpt>
      <trkpt lat="49.8156" lon="4.78742">
        <ele>193</ele>
        <time>2022-07-15T06:10:04.000Z</time>
      </trkpt>
      <trkpt lat="49.81562" lon="4.78737">
        <ele>193</ele>
        <time>2022-07-15T06:10:05.000Z</time>
      </trkpt>
      <trkpt lat="49.81564" lon="4.78734">
        <ele>193</ele>
        <time>2022-07-15T06:10:06.000Z</time>
      </trkpt>
      <trkpt lat="49.81566" lon="4.7873">
        <ele>193</ele>
        <time>2022-07-15T06:10:07.000Z</time>
      </trkpt>
      <trkpt lat="49.81567" lon="4.78727">
        <ele>193</ele>
        <time>2022-07-15T06:10:08.000Z</time>
      </trkpt>
      <trkpt lat="49.81568" lon="4.78723">
        <ele>193</ele>
        <time>2022-07-15T06:10:09.000Z</time>
      </trkpt>
      <trkpt lat="49.8157" lon="4.78718">
        <ele>193</ele>
        <time>2022-07-15T06:10:10.000Z</time>
      </trkpt>
      <trkpt lat="49.81572" lon="4.78714">
        <ele>193</ele>
        <time>2022-07-15T06:10:11.000Z</time>
      </trkpt>
      <trkpt lat="49.81574" lon="4.78709">
        <ele>193</ele>
        <time>2022-07-15T06:10:12.000Z</time>
      </trkpt>
      <trkpt lat="49.81575" lon="4.78704">
        <ele>193</ele>
        <time>2022-07-15T06:10:13.000Z</time>
      </trkpt>
      <trkpt lat="49.81577" lon="4.78699">
        <ele>193</ele>
        <time>2022-07-15T06:10:14.000Z</time>
      </trkpt>
      <trkpt lat="49.81579" lon="4.78694">
        <ele>193</ele>
        <time>2022-07-15T06:10:15.000Z</time>
      </trkpt>
      <trkpt lat="49.81581" lon="4.7869">
        <ele>193</ele>
        <time>2022-07-15T06:10:16.000Z</time>
      </trkpt>
      <trkpt lat="49.81583" lon="4.78686">
        <ele>193</ele>
        <time>2022-07-15T06:10:17.000Z</time>
      </trkpt>
      <trkpt lat="49.81586" lon="4.78681">
        <ele>193</ele>
        <time>2022-07-15T06:10:18.000Z</time>
      </trkpt>
      <trkpt lat="49.81589" lon="4.78677">
        <ele>193</ele>
        <time>2022-07-15T06:10:19.000Z</time>
      </trkpt>
      <trkpt lat="49.81591" lon="4.78676">
        <ele>193</ele>
        <time>2022-07-15T06:10:20.000Z</time>
      </trkpt>
      <trkpt lat="49.81593" lon="4.78675">
        <ele>193</ele>
        <time>2022-07-15T06:10:21.000Z</time>
      </trkpt>
      <trkpt lat="49.81595" lon="4.78674">
        <ele>193</ele>
        <time>2022-07-15T06:10:22.000Z</time>
      </trkpt>
      <trkpt lat="49.81598" lon="4.78673">
        <ele>193</ele>
        <time>2022-07-15T06:10:23.000Z</time>
      </trkpt>
      <trkpt lat="49.81602" lon="4.78673">
        <ele>193</ele>
        <time>2022-07-15T06:10:24.000Z</time>
      </trkpt>
      <trkpt lat="49.81606" lon="4.78674">
        <ele>194</ele>
        <time>2022-07-15T06:10:25.000Z</time>
      </trkpt>
      <trkpt lat="49.8161" lon="4.78676">
        <ele>194</ele>
        <time>2022-07-15T06:10:26.000Z</time>
      </trkpt>
      <trkpt lat="49.81614" lon="4.78678">
        <ele>194</ele>
        <time>2022-07-15T06:10:27.000Z</time>
      </trkpt>
      <trkpt lat="49.81617" lon="4.7868">
        <ele>194</ele>
        <time>2022-07-15T06:10:28.000Z</time>
      </trkpt>
      <trkpt lat="49.8162" lon="4.78683">
        <ele>194</ele>
        <time>2022-07-15T06:10:29.000Z</time>
      </trkpt>
      <trkpt lat="49.81624" lon="4.78684">
        <ele>194</ele>
        <time>2022-07-15T06:10:30.000Z</time>
      </trkpt>
      <trkpt lat="49.81627" lon="4.78684">
        <ele>194</ele>
        <time>2022-07-15T06:10:31.000Z</time>
      </trkpt>
      <trkpt lat="49.81631" lon="4.78685">
        <ele>195</ele>
        <time>2022-07-15T06:10:32.000Z</time>
      </trkpt>
      <trkpt lat="49.81635" lon="4.78686">
        <ele>195</ele>
        <time>2022-07-15T06:10:33.000Z</time>
      </trkpt>
      <trkpt lat="49.81639" lon="4.78689">
        <ele>195</ele>
        <time>2022-07-15T06:10:34.000Z</time>
      </trkpt>
      <trkpt lat="49.81643" lon="4.78691">
        <ele>195</ele>
        <time>2022-07-15T06:10:35.000Z</time>
      </trkpt>
      <trkpt lat="49.81647" lon="4.78692">
        <ele>195</ele>
        <time>2022-07-15T06:10:36.000Z</time>
      </trkpt>
      <trkpt lat="49.81652" lon="4.78695">
        <ele>195</ele>
        <time>2022-07-15T06:10:37.000Z</time>
      </trkpt>
      <trkpt lat="49.81655" lon="4.78697">
        <ele>196</ele>
        <time>2022-07-15T06:10:38.000Z</time>
      </trkpt>
      <trkpt lat="49.8166" lon="4.78698">
        <ele>196</ele>
        <time>2022-07-15T06:10:39.000Z</time>
      </trkpt>
      <trkpt lat="49.81664" lon="4.78699">
        <ele>196</ele>
        <time>2022-07-15T06:10:40.000Z</time>
      </trkpt>
      <trkpt lat="49.81668" lon="4.78701">
        <ele>196</ele>
        <time>2022-07-15T06:10:41.000Z</time>
      </trkpt>
      <trkpt lat="49.81672" lon="4.78702">
        <ele>196</ele>
        <time>2022-07-15T06:10:42.000Z</time>
      </trkpt>
      <trkpt lat="49.81676" lon="4.78703">
        <ele>196</ele>
        <time>2022-07-15T06:10:43.000Z</time>
      </trkpt>
      <trkpt lat="49.81679" lon="4.78706">
        <ele>196</ele>
        <time>2022-07-15T06:10:44.000Z</time>
      </trkpt>
      <trkpt lat="49.81683" lon="4.78708">
        <ele>196</ele>
        <time>2022-07-15T06:10:45.000Z</time>
      </trkpt>
      <trkpt lat="49.81688" lon="4.7871">
        <ele>196</ele>
        <time>2022-07-15T06:10:46.000Z</time>
      </trkpt>
      <trkpt lat="49.81692" lon="4.78712">
        <ele>196</ele>
        <time>2022-07-15T06:10:47.000Z</time>
      </trkpt>
      <trkpt lat="49.81697" lon="4.78715">
        <ele>196</ele>
        <time>2022-07-15T06:10:48.000Z</time>
      </trkpt>
      <trkpt lat="49.817" lon="4.78717">
        <ele>196</ele>
        <time>2022-07-15T06:10:49.000Z</time>
      </trkpt>
      <trkpt lat="49.81704" lon="4.78719">
        <ele>196</ele>
        <time>2022-07-15T06:10:50.000Z</time>
      </trkpt>
      <trkpt lat="49.81708" lon="4.78721">
        <ele>197</ele>
        <time>2022-07-15T06:10:51.000Z</time>
      </trkpt>
      <trkpt lat="49.81712" lon="4.78724">
        <ele>197</ele>
        <time>2022-07-15T06:10:52.000Z</time>
      </trkpt>
      <trkpt lat="49.81716" lon="4.78727">
        <ele>197</ele>
        <time>2022-07-15T06:10:53.000Z</time>
      </trkpt>
      <trkpt lat="49.81719" lon="4.7873">
        <ele>197</ele>
        <time>2022-07-15T06:10:54.000Z</time>
      </trkpt>
      <trkpt lat="49.81722" lon="4.78733">
        <ele>197</ele>
        <time>2022-07-15T06:10:55.000Z</time>
      </trkpt>
      <trkpt lat="49.81726" lon="4.78735">
        <ele>197</ele>
        <time>2022-07-15T06:10:56.000Z</time>
      </trkpt>
      <trkpt lat="49.81729" lon="4.78737">
        <ele>197</ele>
        <time>2022-07-15T06:10:57.000Z</time>
      </trkpt>
      <trkpt lat="49.81733" lon="4.7874">
        <ele>197</ele>
        <time>2022-07-15T06:10:58.000Z</time>
      </trkpt>
      <trkpt lat="49.81736" lon="4.78744">
        <ele>197</ele>
        <time>2022-07-15T06:10:59.000Z</time>
      </trkpt>
      <trkpt lat="49.8174" lon="4.78748">
        <ele>197</ele>
        <time>2022-07-15T06:11:00.000Z</time>
      </trkpt>
      <trkpt lat="49.81743" lon="4.78752">
        <ele>197</ele>
        <time>2022-07-15T06:11:01.000Z</time>
      </trkpt>
      <trkpt lat="49.81747" lon="4.78755">
        <ele>197</ele>
        <time>2022-07-15T06:11:02.000Z</time>
      </trkpt>
      <trkpt lat="49.81751" lon="4.78758">
        <ele>197</ele>
        <time>2022-07-15T06:11:03.000Z</time>
      </trkpt>
      <trkpt lat="49.81754" lon="4.7876">
        <ele>197</ele>
        <time>2022-07-15T06:11:04.000Z</time>
      </trkpt>
      <trkpt lat="49.81758" lon="4.78761">
        <ele>197</ele>
        <time>2022-07-15T06:11:05.000Z</time>
      </trkpt>
      <trkpt lat="49.81761" lon="4.7876">
        <ele>197</ele>
        <time>2022-07-15T06:11:06.000Z</time>
      </trkpt>
      <trkpt lat="49.81765" lon="4.78759">
        <ele>197</ele>
        <time>2022-07-15T06:11:07.000Z</time>
      </trkpt>
      <trkpt lat="49.81768" lon="4.78757">
        <ele>196</ele>
        <time>2022-07-15T06:11:08.000Z</time>
      </trkpt>
      <trkpt lat="49.8177" lon="4.78754">
        <ele>196</ele>
        <time>2022-07-15T06:11:09.000Z</time>
      </trkpt>
      <trkpt lat="49.81771" lon="4.78751">
        <ele>196</ele>
        <time>2022-07-15T06:11:10.000Z</time>
      </trkpt>
      <trkpt lat="49.8177" lon="4.78748">
        <ele>196</ele>
        <time>2022-07-15T06:11:11.000Z</time>
      </trkpt>
      <trkpt lat="49.81768" lon="4.78746">
        <ele>196</ele>
        <time>2022-07-15T06:11:12.000Z</time>
      </trkpt>
      <trkpt lat="49.81765" lon="4.78743">
        <ele>196</ele>
        <time>2022-07-15T06:11:13.000Z</time>
      </trkpt>
      <trkpt lat="49.81762" lon="4.7874">
        <ele>195</ele>
        <time>2022-07-15T06:11:14.000Z</time>
      </trkpt>
      <trkpt lat="49.81758" lon="4.78736">
        <ele>195</ele>
        <time>2022-07-15T06:11:15.000Z</time>
      </trkpt>
      <trkpt lat="49.81753" lon="4.78732">
        <ele>195</ele>
        <time>2022-07-15T06:11:16.000Z</time>
      </trkpt>
      <trkpt lat="49.81749" lon="4.78728">
        <ele>195</ele>
        <time>2022-07-15T06:11:17.000Z</time>
      </trkpt>
      <trkpt lat="49.81744" lon="4.78724">
        <ele>195</ele>
        <time>2022-07-15T06:11:18.000Z</time>
      </trkpt>
      <trkpt lat="49.81739" lon="4.78718">
        <ele>195</ele>
        <time>2022-07-15T06:11:19.000Z</time>
      </trkpt>
      <trkpt lat="49.81734" lon="4.78713">
        <ele>195</ele>
        <time>2022-07-15T06:11:20.000Z</time>
      </trkpt>
      <trkpt lat="49.81729" lon="4.78707">
        <ele>195</ele>
        <time>2022-07-15T06:11:21.000Z</time>
      </trkpt>
      <trkpt lat="49.81724" lon="4.78703">
        <ele>195</ele>
        <time>2022-07-15T06:11:22.000Z</time>
      </trkpt>
      <trkpt lat="49.81719" lon="4.78697">
        <ele>195</ele>
        <time>2022-07-15T06:11:23.000Z</time>
      </trkpt>
      <trkpt lat="49.81714" lon="4.78692">
        <ele>195</ele>
        <time>2022-07-15T06:11:24.000Z</time>
      </trkpt>
      <trkpt lat="49.81709" lon="4.78687">
        <ele>194</ele>
        <time>2022-07-15T06:11:25.000Z</time>
      </trkpt>
      <trkpt lat="49.81704" lon="4.78683">
        <ele>194</ele>
        <time>2022-07-15T06:11:26.000Z</time>
      </trkpt>
      <trkpt lat="49.81699" lon="4.78679">
        <ele>194</ele>
        <time>2022-07-15T06:11:27.000Z</time>
      </trkpt>
      <trkpt lat="49.81695" lon="4.78674">
        <ele>194</ele>
        <time>2022-07-15T06:11:28.000Z</time>
      </trkpt>
      <trkpt lat="49.8169" lon="4.7867">
        <ele>194</ele>
        <time>2022-07-15T06:11:29.000Z</time>
      </trkpt>
      <trkpt lat="49.81686" lon="4.78666">
        <ele>193</ele>
        <time>2022-07-15T06:11:30.000Z</time>
      </trkpt>
      <trkpt lat="49.81681" lon="4.78662">
        <ele>193</ele>
        <time>2022-07-15T06:11:31.000Z</time>
      </trkpt>
      <trkpt lat="49.81676" lon="4.78658">
        <ele>193</ele>
        <time>2022-07-15T06:11:32.000Z</time>
      </trkpt>
      <trkpt lat="49.8167" lon="4.78655">
        <ele>193</ele>
        <time>2022-07-15T06:11:33.000Z</time>
      </trkpt>
      <trkpt lat="49.81665" lon="4.78651">
        <ele>193</ele>
        <time>2022-07-15T06:11:34.000Z</time>
      </trkpt>
      <trkpt lat="49.81659" lon="4.78647">
        <ele>192</ele>
        <time>2022-07-15T06:11:35.000Z</time>
      </trkpt>
      <trkpt lat="49.81653" lon="4.78643">
        <ele>192</ele>
        <time>2022-07-15T06:11:36.000Z</time>
      </trkpt>
      <trkpt lat="49.81648" lon="4.7864">
        <ele>192</ele>
        <time>2022-07-15T06:11:37.000Z</time>
      </trkpt>
      <trkpt lat="49.81642" lon="4.78637">
        <ele>192</ele>
        <time>2022-07-15T06:11:38.000Z</time>
      </trkpt>
      <trkpt lat="49.81636" lon="4.78633">
        <ele>192</ele>
        <time>2022-07-15T06:11:39.000Z</time>
      </trkpt>
      <trkpt lat="49.81631" lon="4.7863">
        <ele>191</ele>
        <time>2022-07-15T06:11:40.000Z</time>
      </trkpt>
      <trkpt lat="49.81625" lon="4.78626">
        <ele>191</ele>
        <time>2022-07-15T06:11:41.000Z</time>
      </trkpt>
      <trkpt lat="49.8162" lon="4.78624">
        <ele>191</ele>
        <time>2022-07-15T06:11:42.000Z</time>
      </trkpt>
      <trkpt lat="49.81615" lon="4.78621">
        <ele>191</ele>
        <time>2022-07-15T06:11:43.000Z</time>
      </trkpt>
      <trkpt lat="49.81609" lon="4.78619">
        <ele>191</ele>
        <time>2022-07-15T06:11:44.000Z</time>
      </trkpt>
      <trkpt lat="49.81604" lon="4.78616">
        <ele>191</ele>
        <time>2022-07-15T06:11:45.000Z</time>
      </trkpt>
      <trkpt lat="49.81599" lon="4.78615">
        <ele>191</ele>
        <time>2022-07-15T06:11:46.000Z</time>
      </trkpt>
      <trkpt lat="49.81593" lon="4.78613">
        <ele>190</ele>
        <time>2022-07-15T06:11:47.000Z</time>
      </trkpt>
      <trkpt lat="49.81587" lon="4.78612">
        <ele>190</ele>
        <time>2022-07-15T06:11:48.000Z</time>
      </trkpt>
      <trkpt lat="49.81582" lon="4.78612">
        <ele>190</ele>
        <time>2022-07-15T06:11:49.000Z</time>
      </trkpt>
      <trkpt lat="49.81576" lon="4.78614">
        <ele>190</ele>
        <time>2022-07-15T06:11:50.000Z</time>
      </trkpt>
      <trkpt lat="49.8157" lon="4.78617">
        <ele>189</ele>
        <time>2022-07-15T06:11:51.000Z</time>
      </trkpt>
      <trkpt lat="49.81565" lon="4.78621">
        <ele>189</ele>
        <time>2022-07-15T06:11:52.000Z</time>
      </trkpt>
      <trkpt lat="49.8156" lon="4.78626">
        <ele>189</ele>
        <time>2022-07-15T06:11:53.000Z</time>
      </trkpt>
      <trkpt lat="49.81554" lon="4.7863">
        <ele>189</ele>
        <time>2022-07-15T06:11:54.000Z</time>
      </trkpt>
      <trkpt lat="49.81548" lon="4.78635">
        <ele>188</ele>
        <time>2022-07-15T06:11:55.000Z</time>
      </trkpt>
      <trkpt lat="49.81543" lon="4.7864">
        <ele>188</ele>
        <time>2022-07-15T06:11:56.000Z</time>
      </trkpt>
      <trkpt lat="49.81538" lon="4.78646">
        <ele>188</ele>
        <time>2022-07-15T06:11:57.000Z</time>
      </trkpt>
      <trkpt lat="49.81533" lon="4.78651">
        <ele>188</ele>
        <time>2022-07-15T06:11:58.000Z</time>
      </trkpt>
      <trkpt lat="49.81528" lon="4.78656">
        <ele>187</ele>
        <time>2022-07-15T06:11:59.000Z</time>
      </trkpt>
      <trkpt lat="49.81523" lon="4.78661">
        <ele>187</ele>
        <time>2022-07-15T06:12:00.000Z</time>
      </trkpt>
      <trkpt lat="49.81518" lon="4.78666">
        <ele>187</ele>
        <time>2022-07-15T06:12:01.000Z</time>
      </trkpt>
      <trkpt lat="49.81513" lon="4.78671">
        <ele>186</ele>
        <time>2022-07-15T06:12:02.000Z</time>
      </trkpt>
      <trkpt lat="49.81509" lon="4.78676">
        <ele>186</ele>
        <time>2022-07-15T06:12:03.000Z</time>
      </trkpt>
      <trkpt lat="49.81504" lon="4.78681">
        <ele>186</ele>
        <time>2022-07-15T06:12:04.000Z</time>
      </trkpt>
      <trkpt lat="49.815" lon="4.78686">
        <ele>185</ele>
        <time>2022-07-15T06:12:05.000Z</time>
      </trkpt>
      <trkpt lat="49.81495" lon="4.7869">
        <ele>185</ele>
        <time>2022-07-15T06:12:06.000Z</time>
      </trkpt>
      <trkpt lat="49.81491" lon="4.78691">
        <ele>184</ele>
        <time>2022-07-15T06:12:07.000Z</time>
      </trkpt>
      <trkpt lat="49.81486" lon="4.78689">
        <ele>184</ele>
        <time>2022-07-15T06:12:08.000Z</time>
      </trkpt>
      <trkpt lat="49.81482" lon="4.78684">
        <ele>183</ele>
        <time>2022-07-15T06:12:09.000Z</time>
      </trkpt>
      <trkpt lat="49.81479" lon="4.78677">
        <ele>183</ele>
        <time>2022-07-15T06:12:10.000Z</time>
      </trkpt>
      <trkpt lat="49.81477" lon="4.78667">
        <ele>182</ele>
        <time>2022-07-15T06:12:11.000Z</time>
      </trkpt>
      <trkpt lat="49.81475" lon="4.78658">
        <ele>181</ele>
        <time>2022-07-15T06:12:12.000Z</time>
      </trkpt>
      <trkpt lat="49.81474" lon="4.78648">
        <ele>181</ele>
        <time>2022-07-15T06:12:13.000Z</time>
      </trkpt>
      <trkpt lat="49.81473" lon="4.78637">
        <ele>180</ele>
        <time>2022-07-15T06:12:14.000Z</time>
      </trkpt>
      <trkpt lat="49.81474" lon="4.78627">
        <ele>180</ele>
        <time>2022-07-15T06:12:15.000Z</time>
      </trkpt>
      <trkpt lat="49.81475" lon="4.78616">
        <ele>179</ele>
        <time>2022-07-15T06:12:16.000Z</time>
      </trkpt>
      <trkpt lat="49.81477" lon="4.78605">
        <ele>179</ele>
        <time>2022-07-15T06:12:17.000Z</time>
      </trkpt>
      <trkpt lat="49.81479" lon="4.78595">
        <ele>179</ele>
        <time>2022-07-15T06:12:18.000Z</time>
      </trkpt>
      <trkpt lat="49.81482" lon="4.78585">
        <ele>178</ele>
        <time>2022-07-15T06:12:19.000Z</time>
      </trkpt>
      <trkpt lat="49.81486" lon="4.78575">
        <ele>178</ele>
        <time>2022-07-15T06:12:20.000Z</time>
      </trkpt>
      <trkpt lat="49.8149" lon="4.78566">
        <ele>178</ele>
        <time>2022-07-15T06:12:21.000Z</time>
      </trkpt>
      <trkpt lat="49.81494" lon="4.78558">
        <ele>177</ele>
        <time>2022-07-15T06:12:22.000Z</time>
      </trkpt>
      <trkpt lat="49.81499" lon="4.78549">
        <ele>177</ele>
        <time>2022-07-15T06:12:23.000Z</time>
      </trkpt>
      <trkpt lat="49.81504" lon="4.78541">
        <ele>177</ele>
        <time>2022-07-15T06:12:24.000Z</time>
      </trkpt>
      <trkpt lat="49.81509" lon="4.78533">
        <ele>176</ele>
        <time>2022-07-15T06:12:25.000Z</time>
      </trkpt>
      <trkpt lat="49.81514" lon="4.78525">
        <ele>176</ele>
        <time>2022-07-15T06:12:26.000Z</time>
      </trkpt>
      <trkpt lat="49.8152" lon="4.78518">
        <ele>176</ele>
        <time>2022-07-15T06:12:27.000Z</time>
      </trkpt>
      <trkpt lat="49.81524" lon="4.78511">
        <ele>176</ele>
        <time>2022-07-15T06:12:28.000Z</time>
      </trkpt>
      <trkpt lat="49.81528" lon="4.78503">
        <ele>175</ele>
        <time>2022-07-15T06:12:29.000Z</time>
      </trkpt>
      <trkpt lat="49.81532" lon="4.78496">
        <ele>175</ele>
        <time>2022-07-15T06:12:30.000Z</time>
      </trkpt>
      <trkpt lat="49.81536" lon="4.7849">
        <ele>175</ele>
        <time>2022-07-15T06:12:31.000Z</time>
      </trkpt>
      <trkpt lat="49.81539" lon="4.78482">
        <ele>175</ele>
        <time>2022-07-15T06:12:32.000Z</time>
      </trkpt>
      <trkpt lat="49.81541" lon="4.78475">
        <ele>175</ele>
        <time>2022-07-15T06:12:33.000Z</time>
      </trkpt>
      <trkpt lat="49.81542" lon="4.78466">
        <ele>175</ele>
        <time>2022-07-15T06:12:34.000Z</time>
      </trkpt>
      <trkpt lat="49.81542" lon="4.78457">
        <ele>174</ele>
        <time>2022-07-15T06:12:35.000Z</time>
      </trkpt>
      <trkpt lat="49.81543" lon="4.78448">
        <ele>174</ele>
        <time>2022-07-15T06:12:36.000Z</time>
      </trkpt>
      <trkpt lat="49.81543" lon="4.78439">
        <ele>174</ele>
        <time>2022-07-15T06:12:37.000Z</time>
      </trkpt>
      <trkpt lat="49.81543" lon="4.78429">
        <ele>174</ele>
        <time>2022-07-15T06:12:38.000Z</time>
      </trkpt>
      <trkpt lat="49.81543" lon="4.78419">
        <ele>174</ele>
        <time>2022-07-15T06:12:39.000Z</time>
      </trkpt>
      <trkpt lat="49.81543" lon="4.7841">
        <ele>173</ele>
        <time>2022-07-15T06:12:40.000Z</time>
      </trkpt>
      <trkpt lat="49.81543" lon="4.784">
        <ele>173</ele>
        <time>2022-07-15T06:12:41.000Z</time>
      </trkpt>
      <trkpt lat="49.81544" lon="4.7839">
        <ele>173</ele>
        <time>2022-07-15T06:12:42.000Z</time>
      </trkpt>
      <trkpt lat="49.81546" lon="4.78381">
        <ele>173</ele>
        <time>2022-07-15T06:12:43.000Z</time>
      </trkpt>
      <trkpt lat="49.81548" lon="4.78373">
        <ele>173</ele>
        <time>2022-07-15T06:12:44.000Z</time>
      </trkpt>
      <trkpt lat="49.8155" lon="4.78365">
        <ele>173</ele>
        <time>2022-07-15T06:12:45.000Z</time>
      </trkpt>
      <trkpt lat="49.81551" lon="4.78357">
        <ele>173</ele>
        <time>2022-07-15T06:12:46.000Z</time>
      </trkpt>
      <trkpt lat="49.81552" lon="4.7835">
        <ele>172</ele>
        <time>2022-07-15T06:12:47.000Z</time>
      </trkpt>
      <trkpt lat="49.81553" lon="4.78345">
        <ele>172</ele>
        <time>2022-07-15T06:12:48.000Z</time>
      </trkpt>
      <trkpt lat="49.81554" lon="4.78341">
        <ele>172</ele>
        <time>2022-07-15T06:12:49.000Z</time>
      </trkpt>
      <trkpt lat="49.81556" lon="4.78338">
        <ele>172</ele>
        <time>2022-07-15T06:12:50.000Z</time>
      </trkpt>
      <trkpt lat="49.81558" lon="4.78334">
        <ele>172</ele>
        <time>2022-07-15T06:12:51.000Z</time>
      </trkpt>
      <trkpt lat="49.8156" lon="4.78331">
        <ele>172</ele>
        <time>2022-07-15T06:12:52.000Z</time>
      </trkpt>
      <trkpt lat="49.81563" lon="4.78327">
        <ele>172</ele>
        <time>2022-07-15T06:12:53.000Z</time>
      </trkpt>
      <trkpt lat="49.81566" lon="4.78323">
        <ele>172</ele>
        <time>2022-07-15T06:12:54.000Z</time>
      </trkpt>
      <trkpt lat="49.81569" lon="4.78319">
        <ele>172</ele>
        <time>2022-07-15T06:12:55.000Z</time>
      </trkpt>
      <trkpt lat="49.8157" lon="4.78315">
        <ele>171</ele>
        <time>2022-07-15T06:12:56.000Z</time>
      </trkpt>
      <trkpt lat="49.81571" lon="4.7831">
        <ele>171</ele>
        <time>2022-07-15T06:12:57.000Z</time>
      </trkpt>
      <trkpt lat="49.81572" lon="4.78305">
        <ele>171</ele>
        <time>2022-07-15T06:12:58.000Z</time>
      </trkpt>
      <trkpt lat="49.81573" lon="4.783">
        <ele>171</ele>
        <time>2022-07-15T06:12:59.000Z</time>
      </trkpt>
      <trkpt lat="49.81574" lon="4.78296">
        <ele>171</ele>
        <time>2022-07-15T06:13:00.000Z</time>
      </trkpt>
      <trkpt lat="49.81575" lon="4.78292">
        <ele>171</ele>
        <time>2022-07-15T06:13:01.000Z</time>
      </trkpt>
      <trkpt lat="49.81578" lon="4.7829">
        <ele>171</ele>
        <time>2022-07-15T06:13:02.000Z</time>
      </trkpt>
      <trkpt lat="49.8158" lon="4.78289">
        <ele>171</ele>
        <time>2022-07-15T06:13:03.000Z</time>
      </trkpt>
      <trkpt lat="49.81583" lon="4.7829">
        <ele>171</ele>
        <time>2022-07-15T06:13:04.000Z</time>
      </trkpt>
      <trkpt lat="49.81584" lon="4.78292">
        <ele>171</ele>
        <time>2022-07-15T06:13:05.000Z</time>
      </trkpt>
      <trkpt lat="49.81586" lon="4.78294">
        <ele>171</ele>
        <time>2022-07-15T06:13:06.000Z</time>
      </trkpt>
      <trkpt lat="49.81587" lon="4.78297">
        <ele>171</ele>
        <time>2022-07-15T06:13:07.000Z</time>
      </trkpt>
      <trkpt lat="49.81587" lon="4.783">
        <ele>171</ele>
        <time>2022-07-15T06:13:08.000Z</time>
      </trkpt>
      <trkpt lat="49.81588" lon="4.78303">
        <ele>171</ele>
        <time>2022-07-15T06:13:09.000Z</time>
      </trkpt>
      <trkpt lat="49.81587" lon="4.78307">
        <ele>171</ele>
        <time>2022-07-15T06:13:10.000Z</time>
      </trkpt>
      <trkpt lat="49.81587" lon="4.7831">
        <ele>171</ele>
        <time>2022-07-15T06:13:11.000Z</time>
      </trkpt>
      <trkpt lat="49.81586" lon="4.78312">
        <ele>171</ele>
        <time>2022-07-15T06:13:12.000Z</time>
      </trkpt>
      <trkpt lat="49.81584" lon="4.78313">
        <ele>171</ele>
        <time>2022-07-15T06:13:13.000Z</time>
      </trkpt>
      <trkpt lat="49.81582" lon="4.78313">
        <ele>171</ele>
        <time>2022-07-15T06:13:14.000Z</time>
      </trkpt>
      <trkpt lat="49.8158" lon="4.78313">
        <ele>171</ele>
        <time>2022-07-15T06:13:15.000Z</time>
      </trkpt>
      <trkpt lat="49.81579" lon="4.78314">
        <ele>171</ele>
        <time>2022-07-15T06:13:16.000Z</time>
      </trkpt>
      <trkpt lat="49.81577" lon="4.78314">
        <ele>171</ele>
        <time>2022-07-15T06:13:17.000Z</time>
      </trkpt>
      <trkpt lat="49.81573" lon="4.78315">
        <ele>171</ele>
        <time>2022-07-15T06:13:18.000Z</time>
      </trkpt>
      <trkpt lat="49.8157" lon="4.78317">
        <ele>171</ele>
        <time>2022-07-15T06:13:19.000Z</time>
      </trkpt>
      <trkpt lat="49.81568" lon="4.7832">
        <ele>171</ele>
        <time>2022-07-15T06:13:20.000Z</time>
      </trkpt>
      <trkpt lat="49.81568" lon="4.78322">
        <ele>172</ele>
        <time>2022-07-15T06:13:21.000Z</time>
      </trkpt>
      <trkpt lat="49.81569" lon="4.78322">
        <ele>172</ele>
        <time>2022-07-15T06:13:22.000Z</time>
      </trkpt>
      <trkpt lat="49.8157" lon="4.78321">
        <ele>172</ele>
        <time>2022-07-15T06:13:23.000Z</time>
      </trkpt>
      <trkpt lat="49.8157" lon="4.78318">
        <ele>172</ele>
        <time>2022-07-15T06:13:24.000Z</time>
      </trkpt>
      <trkpt lat="49.81571" lon="4.78316">
        <ele>172</ele>
        <time>2022-07-15T06:13:25.000Z</time>
      </trkpt>
      <trkpt lat="49.81572" lon="4.78312">
        <ele>172</ele>
        <time>2022-07-15T06:13:26.000Z</time>
      </trkpt>
      <trkpt lat="49.81573" lon="4.78308">
        <ele>172</ele>
        <time>2022-07-15T06:13:27.000Z</time>
      </trkpt>
      <trkpt lat="49.81574" lon="4.78304">
        <ele>172</ele>
        <time>2022-07-15T06:13:28.000Z</time>
      </trkpt>
      <trkpt lat="49.81575" lon="4.78301">
        <ele>172</ele>
        <time>2022-07-15T06:13:29.000Z</time>
      </trkpt>
      <trkpt lat="49.81575" lon="4.78297">
        <ele>172</ele>
        <time>2022-07-15T06:13:30.000Z</time>
      </trkpt>
      <trkpt lat="49.81576" lon="4.78293">
        <ele>172</ele>
        <time>2022-07-15T06:13:31.000Z</time>
      </trkpt>
      <trkpt lat="49.81578" lon="4.7829">
        <ele>172</ele>
        <time>2022-07-15T06:13:32.000Z</time>
      </trkpt>
      <trkpt lat="49.8158" lon="4.7829">
        <ele>172</ele>
        <time>2022-07-15T06:13:33.000Z</time>
      </trkpt>
      <trkpt lat="49.81582" lon="4.7829">
        <ele>172</ele>
        <time>2022-07-15T06:13:34.000Z</time>
      </trkpt>
      <trkpt lat="49.81584" lon="4.78291">
        <ele>172</ele>
        <time>2022-07-15T06:13:35.000Z</time>
      </trkpt>
      <trkpt lat="49.81585" lon="4.78294">
        <ele>172</ele>
        <time>2022-07-15T06:13:36.000Z</time>
      </trkpt>
      <trkpt lat="49.81586" lon="4.78296">
        <ele>172</ele>
        <time>2022-07-15T06:13:37.000Z</time>
      </trkpt>
      <trkpt lat="49.81586" lon="4.78299">
        <ele>172</ele>
        <time>2022-07-15T06:13:38.000Z</time>
      </trkpt>
      <trkpt lat="49.81587" lon="4.78303">
        <ele>172</ele>
        <time>2022-07-15T06:13:39.000Z</time>
      </trkpt>
      <trkpt lat="49.81586" lon="4.78307">
        <ele>172</ele>
        <time>2022-07-15T06:13:40.000Z</time>
      </trkpt>
      <trkpt lat="49.81586" lon="4.78311">
        <ele>172</ele>
        <time>2022-07-15T06:13:41.000Z</time>
      </trkpt>
      <trkpt lat="49.81584" lon="4.78314">
        <ele>172</ele>
        <time>2022-07-15T06:13:42.000Z</time>
      </trkpt>
      <trkpt lat="49.81583" lon="4.78315">
        <ele>172</ele>
        <time>2022-07-15T06:13:43.000Z</time>
      </trkpt>
      <trkpt lat="49.81581" lon="4.78316">
        <ele>172</ele>
        <time>2022-07-15T06:13:44.000Z</time>
      </trkpt>
      <trkpt lat="49.81579" lon="4.78316">
        <ele>172</ele>
        <time>2022-07-15T06:13:45.000Z</time>
      </trkpt>
      <trkpt lat="49.81578" lon="4.78316">
        <ele>172</ele>
        <time>2022-07-15T06:13:46.000Z</time>
      </trkpt>
      <trkpt lat="49.81575" lon="4.78315">
        <ele>172</ele>
        <time>2022-07-15T06:13:47.000Z</time>
      </trkpt>
      <trkpt lat="49.81572" lon="4.78316">
        <ele>172</ele>
        <time>2022-07-15T06:13:48.000Z</time>
      </trkpt>
      <trkpt lat="49.81569" lon="4.78318">
        <ele>172</ele>
        <time>2022-07-15T06:13:49.000Z</time>
      </trkpt>
      <trkpt lat="49.81569" lon="4.7832">
        <ele>172</ele>
        <time>2022-07-15T06:13:50.000Z</time>
      </trkpt>
      <trkpt lat="49.81569" lon="4.78321">
        <ele>172</ele>
        <time>2022-07-15T06:13:51.000Z</time>
      </trkpt>
      <trkpt lat="49.81568" lon="4.7832">
        <ele>172</ele>
        <time>2022-07-15T06:13:52.000Z</time>
      </trkpt>
      <trkpt lat="49.81569" lon="4.78317">
        <ele>172</ele>
        <time>2022-07-15T06:13:53.000Z</time>
      </trkpt>
      <trkpt lat="49.8157" lon="4.78313">
        <ele>172</ele>
        <time>2022-07-15T06:13:54.000Z</time>
      </trkpt>
      <trkpt lat="49.81571" lon="4.78308">
        <ele>172</ele>
        <time>2022-07-15T06:13:55.000Z</time>
      </trkpt>
      <trkpt lat="49.81572" lon="4.78304">
        <ele>172</ele>
        <time>2022-07-15T06:13:56.000Z</time>
      </trkpt>
      <trkpt lat="49.81573" lon="4.783">
        <ele>172</ele>
        <time>2022-07-15T06:13:57.000Z</time>
      </trkpt>
      <trkpt lat="49.81574" lon="4.78295">
        <ele>172</ele>
        <time>2022-07-15T06:13:58.000Z</time>
      </trkpt>
      <trkpt lat="49.81575" lon="4.78291">
        <ele>172</ele>
        <time>2022-07-15T06:13:59.000Z</time>
      </trkpt>
      <trkpt lat="49.81576" lon="4.78288">
        <ele>172</ele>
        <time>2022-07-15T06:14:00.000Z</time>
      </trkpt>
      <trkpt lat="49.81579" lon="4.78286">
        <ele>172</ele>
        <time>2022-07-15T06:14:01.000Z</time>
      </trkpt>
      <trkpt lat="49.81581" lon="4.78287">
        <ele>172</ele>
        <time>2022-07-15T06:14:02.000Z</time>
      </trkpt>
      <trkpt lat="49.81583" lon="4.78288">
        <ele>172</ele>
        <time>2022-07-15T06:14:03.000Z</time>
      </trkpt>
      <trkpt lat="49.81584" lon="4.78291">
        <ele>172</ele>
        <time>2022-07-15T06:14:04.000Z</time>
      </trkpt>
      <trkpt lat="49.81584" lon="4.78294">
        <ele>172</ele>
        <time>2022-07-15T06:14:05.000Z</time>
      </trkpt>
      <trkpt lat="49.81585" lon="4.78297">
        <ele>172</ele>
        <time>2022-07-15T06:14:06.000Z</time>
      </trkpt>
      <trkpt lat="49.81585" lon="4.78301">
        <ele>172</ele>
        <time>2022-07-15T06:14:07.000Z</time>
      </trkpt>
      <trkpt lat="49.81586" lon="4.78305">
        <ele>172</ele>
        <time>2022-07-15T06:14:08.000Z</time>
      </trkpt>
      <trkpt lat="49.81588" lon="4.78309">
        <ele>172</ele>
        <time>2022-07-15T06:14:09.000Z</time>
      </trkpt>
      <trkpt lat="49.81589" lon="4.78314">
        <ele>172</ele>
        <time>2022-07-15T06:14:10.000Z</time>
      </trkpt>
      <trkpt lat="49.81591" lon="4.78318">
        <ele>172</ele>
        <time>2022-07-15T06:14:11.000Z</time>
      </trkpt>
      <trkpt lat="49.81592" lon="4.78323">
        <ele>172</ele>
        <time>2022-07-15T06:14:12.000Z</time>
      </trkpt>
      <trkpt lat="49.81594" lon="4.78328">
        <ele>172</ele>
        <time>2022-07-15T06:14:13.000Z</time>
      </trkpt>
      <trkpt lat="49.81596" lon="4.78333">
        <ele>172</ele>
        <time>2022-07-15T06:14:14.000Z</time>
      </trkpt>
      <trkpt lat="49.81599" lon="4.78339">
        <ele>172</ele>
        <time>2022-07-15T06:14:15.000Z</time>
      </trkpt>
      <trkpt lat="49.81602" lon="4.78345">
        <ele>172</ele>
        <time>2022-07-15T06:14:16.000Z</time>
      </trkpt>
      <trkpt lat="49.81605" lon="4.7835">
        <ele>172</ele>
        <time>2022-07-15T06:14:17.000Z</time>
      </trkpt>
      <trkpt lat="49.81608" lon="4.78357">
        <ele>172</ele>
        <time>2022-07-15T06:14:18.000Z</time>
      </trkpt>
      <trkpt lat="49.81612" lon="4.78363">
        <ele>171</ele>
        <time>2022-07-15T06:14:19.000Z</time>
      </trkpt>
      <trkpt lat="49.81615" lon="4.7837">
        <ele>171</ele>
        <time>2022-07-15T06:14:20.000Z</time>
      </trkpt>
      <trkpt lat="49.81619" lon="4.78376">
        <ele>171</ele>
        <time>2022-07-15T06:14:21.000Z</time>
      </trkpt>
      <trkpt lat="49.81622" lon="4.78383">
        <ele>171</ele>
        <time>2022-07-15T06:14:22.000Z</time>
      </trkpt>
      <trkpt lat="49.81626" lon="4.78389">
        <ele>171</ele>
        <time>2022-07-15T06:14:23.000Z</time>
      </trkpt>
      <trkpt lat="49.81629" lon="4.78396">
        <ele>171</ele>
        <time>2022-07-15T06:14:24.000Z</time>
      </trkpt>
      <trkpt lat="49.81633" lon="4.78402">
        <ele>171</ele>
        <time>2022-07-15T06:14:25.000Z</time>
      </trkpt>
      <trkpt lat="49.81636" lon="4.78408">
        <ele>171</ele>
        <time>2022-07-15T06:14:26.000Z</time>
      </trkpt>
      <trkpt lat="49.8164" lon="4.78413">
        <ele>171</ele>
        <time>2022-07-15T06:14:27.000Z</time>
      </trkpt>
      <trkpt lat="49.81644" lon="4.78418">
        <ele>171</ele>
        <time>2022-07-15T06:14:28.000Z</time>
      </trkpt>
      <trkpt lat="49.81648" lon="4.78423">
        <ele>171</ele>
        <time>2022-07-15T06:14:29.000Z</time>
      </trkpt>
      <trkpt lat="49.81652" lon="4.78428">
        <ele>171</ele>
        <time>2022-07-15T06:14:30.000Z</time>
      </trkpt>
      <trkpt lat="49.81656" lon="4.78433">
        <ele>171</ele>
        <time>2022-07-15T06:14:31.000Z</time>
      </trkpt>
      <trkpt lat="49.81661" lon="4.78437">
        <ele>171</ele>
        <time>2022-07-15T06:14:32.000Z</time>
      </trkpt>
      <trkpt lat="49.81665" lon="4.78441">
        <ele>171</ele>
        <time>2022-07-15T06:14:33.000Z</time>
      </trkpt>
      <trkpt lat="49.81669" lon="4.78445">
        <ele>171</ele>
        <time>2022-07-15T06:14:34.000Z</time>
      </trkpt>
      <trkpt lat="49.81674" lon="4.7845">
        <ele>171</ele>
        <time>2022-07-15T06:14:35.000Z</time>
      </trkpt>
      <trkpt lat="49.81678" lon="4.78454">
        <ele>171</ele>
        <time>2022-07-15T06:14:36.000Z</time>
      </trkpt>
      <trkpt lat="49.81683" lon="4.78458">
        <ele>172</ele>
        <time>2022-07-15T06:14:37.000Z</time>
      </trkpt>
      <trkpt lat="49.81688" lon="4.78462">
        <ele>172</ele>
        <time>2022-07-15T06:14:38.000Z</time>
      </trkpt>
      <trkpt lat="49.81692" lon="4.78467">
        <ele>172</ele>
        <time>2022-07-15T06:14:39.000Z</time>
      </trkpt>
      <trkpt lat="49.81696" lon="4.78472">
        <ele>172</ele>
        <time>2022-07-15T06:14:40.000Z</time>
      </trkpt>
      <trkpt lat="49.817" lon="4.78477">
        <ele>172</ele>
        <time>2022-07-15T06:14:41.000Z</time>
      </trkpt>
      <trkpt lat="49.81704" lon="4.78481">
        <ele>172</ele>
        <time>2022-07-15T06:14:42.000Z</time>
      </trkpt>
      <trkpt lat="49.81708" lon="4.78485">
        <ele>172</ele>
        <time>2022-07-15T06:14:43.000Z</time>
      </trkpt>
      <trkpt lat="49.81712" lon="4.78489">
        <ele>172</ele>
        <time>2022-07-15T06:14:44.000Z</time>
      </trkpt>
      <trkpt lat="49.81715" lon="4.78493">
        <ele>172</ele>
        <time>2022-07-15T06:14:45.000Z</time>
      </trkpt>
      <trkpt lat="49.81719" lon="4.78497">
        <ele>172</ele>
        <time>2022-07-15T06:14:46.000Z</time>
      </trkpt>
      <trkpt lat="49.81723" lon="4.785">
        <ele>172</ele>
        <time>2022-07-15T06:14:47.000Z</time>
      </trkpt>
      <trkpt lat="49.81728" lon="4.78503">
        <ele>172</ele>
        <time>2022-07-15T06:14:48.000Z</time>
      </trkpt>
      <trkpt lat="49.81732" lon="4.78506">
        <ele>172</ele>
        <time>2022-07-15T06:14:49.000Z</time>
      </trkpt>
      <trkpt lat="49.81736" lon="4.78508">
        <ele>172</ele>
        <time>2022-07-15T06:14:50.000Z</time>
      </trkpt>
      <trkpt lat="49.8174" lon="4.78511">
        <ele>173</ele>
        <time>2022-07-15T06:14:51.000Z</time>
      </trkpt>
      <trkpt lat="49.81745" lon="4.78513">
        <ele>173</ele>
        <time>2022-07-15T06:14:52.000Z</time>
      </trkpt>
      <trkpt lat="49.81749" lon="4.78515">
        <ele>173</ele>
        <time>2022-07-15T06:14:53.000Z</time>
      </trkpt>
      <trkpt lat="49.81753" lon="4.78518">
        <ele>173</ele>
        <time>2022-07-15T06:14:54.000Z</time>
      </trkpt>
      <trkpt lat="49.81757" lon="4.7852">
        <ele>173</ele>
        <time>2022-07-15T06:14:55.000Z</time>
      </trkpt>
      <trkpt lat="49.81761" lon="4.78522">
        <ele>173</ele>
        <time>2022-07-15T06:14:56.000Z</time>
      </trkpt>
      <trkpt lat="49.81765" lon="4.78524">
        <ele>173</ele>
        <time>2022-07-15T06:14:57.000Z</time>
      </trkpt>
      <trkpt lat="49.8177" lon="4.78527">
        <ele>174</ele>
        <time>2022-07-15T06:14:58.000Z</time>
      </trkpt>
      <trkpt lat="49.81774" lon="4.7853">
        <ele>174</ele>
        <time>2022-07-15T06:14:59.000Z</time>
      </trkpt>
      <trkpt lat="49.81778" lon="4.78532">
        <ele>174</ele>
        <time>2022-07-15T06:15:00.000Z</time>
      </trkpt>
      <trkpt lat="49.81782" lon="4.78535">
        <ele>174</ele>
        <time>2022-07-15T06:15:01.000Z</time>
      </trkpt>
      <trkpt lat="49.81786" lon="4.78538">
        <ele>175</ele>
        <time>2022-07-15T06:15:02.000Z</time>
      </trkpt>
      <trkpt lat="49.8179" lon="4.78541">
        <ele>175</ele>
        <time>2022-07-15T06:15:03.000Z</time>
      </trkpt>
      <trkpt lat="49.81795" lon="4.78543">
        <ele>175</ele>
        <time>2022-07-15T06:15:04.000Z</time>
      </trkpt>
      <trkpt lat="49.81799" lon="4.78546">
        <ele>175</ele>
        <time>2022-07-15T06:15:05.000Z</time>
      </trkpt>
      <trkpt lat="49.81803" lon="4.78549">
        <ele>175</ele>
        <time>2022-07-15T06:15:06.000Z</time>
      </trkpt>
      <trkpt lat="49.81807" lon="4.78552">
        <ele>176</ele>
        <time>2022-07-15T06:15:07.000Z</time>
      </trkpt>
      <trkpt lat="49.81811" lon="4.78556">
        <ele>176</ele>
        <time>2022-07-15T06:15:08.000Z</time>
      </trkpt>
      <trkpt lat="49.81814" lon="4.7856">
        <ele>176</ele>
        <time>2022-07-15T06:15:09.000Z</time>
      </trkpt>
      <trkpt lat="49.81818" lon="4.78563">
        <ele>176</ele>
        <time>2022-07-15T06:15:10.000Z</time>
      </trkpt>
      <trkpt lat="49.81822" lon="4.78566">
        <ele>177</ele>
        <time>2022-07-15T06:15:11.000Z</time>
      </trkpt>
      <trkpt lat="49.81825" lon="4.7857">
        <ele>177</ele>
        <time>2022-07-15T06:15:12.000Z</time>
      </trkpt>
      <trkpt lat="49.81829" lon="4.78573">
        <ele>177</ele>
        <time>2022-07-15T06:15:13.000Z</time>
      </trkpt>
      <trkpt lat="49.81832" lon="4.78577">
        <ele>177</ele>
        <time>2022-07-15T06:15:14.000Z</time>
      </trkpt>
      <trkpt lat="49.81835" lon="4.7858">
        <ele>177</ele>
        <time>2022-07-15T06:15:15.000Z</time>
      </trkpt>
      <trkpt lat="49.81839" lon="4.78583">
        <ele>178</ele>
        <time>2022-07-15T06:15:16.000Z</time>
      </trkpt>
      <trkpt lat="49.81842" lon="4.78587">
        <ele>178</ele>
        <time>2022-07-15T06:15:17.000Z</time>
      </trkpt>
      <trkpt lat="49.81845" lon="4.78591">
        <ele>178</ele>
        <time>2022-07-15T06:15:18.000Z</time>
      </trkpt>
      <trkpt lat="49.81849" lon="4.78595">
        <ele>178</ele>
        <time>2022-07-15T06:15:19.000Z</time>
      </trkpt>
      <trkpt lat="49.81853" lon="4.78599">
        <ele>179</ele>
        <time>2022-07-15T06:15:20.000Z</time>
      </trkpt>
      <trkpt lat="49.81856" lon="4.78603">
        <ele>179</ele>
        <time>2022-07-15T06:15:21.000Z</time>
      </trkpt>
      <trkpt lat="49.8186" lon="4.78606">
        <ele>179</ele>
        <time>2022-07-15T06:15:22.000Z</time>
      </trkpt>
      <trkpt lat="49.81864" lon="4.7861">
        <ele>179</ele>
        <time>2022-07-15T06:15:23.000Z</time>
      </trkpt>
      <trkpt lat="49.81867" lon="4.78615">
        <ele>179</ele>
        <time>2022-07-15T06:15:24.000Z</time>
      </trkpt>
      <trkpt lat="49.81871" lon="4.78619">
        <ele>179</ele>
        <time>2022-07-15T06:15:25.000Z</time>
      </trkpt>
      <trkpt lat="49.81875" lon="4.78623">
        <ele>180</ele>
        <time>2022-07-15T06:15:26.000Z</time>
      </trkpt>
      <trkpt lat="49.81879" lon="4.78627">
        <ele>180</ele>
        <time>2022-07-15T06:15:27.000Z</time>
      </trkpt>
      <trkpt lat="49.81883" lon="4.78631">
        <ele>180</ele>
        <time>2022-07-15T06:15:28.000Z</time>
      </trkpt>
      <trkpt lat="49.81887" lon="4.78635">
        <ele>180</ele>
        <time>2022-07-15T06:15:29.000Z</time>
      </trkpt>
      <trkpt lat="49.8189" lon="4.7864">
        <ele>180</ele>
        <time>2022-07-15T06:15:30.000Z</time>
      </trkpt>
      <trkpt lat="49.81894" lon="4.78644">
        <ele>180</ele>
        <time>2022-07-15T06:15:31.000Z</time>
      </trkpt>
      <trkpt lat="49.81898" lon="4.78649">
        <ele>180</ele>
        <time>2022-07-15T06:15:32.000Z</time>
      </trkpt>
      <trkpt lat="49.81902" lon="4.78653">
        <ele>180</ele>
        <time>2022-07-15T06:15:33.000Z</time>
      </trkpt>
      <trkpt lat="49.81906" lon="4.78657">
        <ele>180</ele>
        <time>2022-07-15T06:15:34.000Z</time>
      </trkpt>
      <trkpt lat="49.8191" lon="4.78662">
        <ele>181</ele>
        <time>2022-07-15T06:15:35.000Z</time>
      </trkpt>
      <trkpt lat="49.81914" lon="4.78666">
        <ele>181</ele>
        <time>2022-07-15T06:15:36.000Z</time>
      </trkpt>
      <trkpt lat="49.81918" lon="4.7867">
        <ele>181</ele>
        <time>2022-07-15T06:15:37.000Z</time>
      </trkpt>
      <trkpt lat="49.81922" lon="4.78674">
        <ele>181</ele>
        <time>2022-07-15T06:15:38.000Z</time>
      </trkpt>
      <trkpt lat="49.81925" lon="4.78679">
        <ele>181</ele>
        <time>2022-07-15T06:15:39.000Z</time>
      </trkpt>
      <trkpt lat="49.81929" lon="4.78683">
        <ele>181</ele>
        <time>2022-07-15T06:15:40.000Z</time>
      </trkpt>
      <trkpt lat="49.81934" lon="4.78687">
        <ele>182</ele>
        <time>2022-07-15T06:15:41.000Z</time>
      </trkpt>
      <trkpt lat="49.81938" lon="4.78691">
        <ele>182</ele>
        <time>2022-07-15T06:15:42.000Z</time>
      </trkpt>
      <trkpt lat="49.81942" lon="4.78694">
        <ele>182</ele>
        <time>2022-07-15T06:15:43.000Z</time>
      </trkpt>
      <trkpt lat="49.81946" lon="4.78698">
        <ele>182</ele>
        <time>2022-07-15T06:15:44.000Z</time>
      </trkpt>
      <trkpt lat="49.8195" lon="4.78701">
        <ele>182</ele>
        <time>2022-07-15T06:15:45.000Z</time>
      </trkpt>
      <trkpt lat="49.81954" lon="4.78705">
        <ele>183</ele>
        <time>2022-07-15T06:15:46.000Z</time>
      </trkpt>
      <trkpt lat="49.81958" lon="4.78709">
        <ele>183</ele>
        <time>2022-07-15T06:15:47.000Z</time>
      </trkpt>
      <trkpt lat="49.81963" lon="4.78712">
        <ele>183</ele>
        <time>2022-07-15T06:15:48.000Z</time>
      </trkpt>
      <trkpt lat="49.81967" lon="4.78716">
        <ele>183</ele>
        <time>2022-07-15T06:15:49.000Z</time>
      </trkpt>
      <trkpt lat="49.81971" lon="4.78719">
        <ele>184</ele>
        <time>2022-07-15T06:15:50.000Z</time>
      </trkpt>
      <trkpt lat="49.81975" lon="4.78723">
        <ele>184</ele>
        <time>2022-07-15T06:15:51.000Z</time>
      </trkpt>
      <trkpt lat="49.81979" lon="4.78727">
        <ele>184</ele>
        <time>2022-07-15T06:15:52.000Z</time>
      </trkpt>
      <trkpt lat="49.81983" lon="4.78731">
        <ele>185</ele>
        <time>2022-07-15T06:15:53.000Z</time>
      </trkpt>
      <trkpt lat="49.81987" lon="4.78735">
        <ele>185</ele>
        <time>2022-07-15T06:15:54.000Z</time>
      </trkpt>
      <trkpt lat="49.81991" lon="4.78739">
        <ele>185</ele>
        <time>2022-07-15T06:15:55.000Z</time>
      </trkpt>
      <trkpt lat="49.81995" lon="4.78742">
        <ele>186</ele>
        <time>2022-07-15T06:15:56.000Z</time>
      </trkpt>
      <trkpt lat="49.81999" lon="4.78746">
        <ele>186</ele>
        <time>2022-07-15T06:15:57.000Z</time>
      </trkpt>
      <trkpt lat="49.82003" lon="4.78749">
        <ele>186</ele>
        <time>2022-07-15T06:15:58.000Z</time>
      </trkpt>
      <trkpt lat="49.82007" lon="4.78752">
        <ele>187</ele>
        <time>2022-07-15T06:15:59.000Z</time>
      </trkpt>
      <trkpt lat="49.82011" lon="4.78756">
        <ele>187</ele>
        <time>2022-07-15T06:16:00.000Z</time>
      </trkpt>
      <trkpt lat="49.82014" lon="4.78759">
        <ele>187</ele>
        <time>2022-07-15T06:16:01.000Z</time>
      </trkpt>
      <trkpt lat="49.82018" lon="4.78762">
        <ele>188</ele>
        <time>2022-07-15T06:16:02.000Z</time>
      </trkpt>
      <trkpt lat="49.82022" lon="4.78766">
        <ele>188</ele>
        <time>2022-07-15T06:16:03.000Z</time>
      </trkpt>
      <trkpt lat="49.82025" lon="4.78769">
        <ele>188</ele>
        <time>2022-07-15T06:16:04.000Z</time>
      </trkpt>
      <trkpt lat="49.82029" lon="4.78772">
        <ele>188</ele>
        <time>2022-07-15T06:16:05.000Z</time>
      </trkpt>
      <trkpt lat="49.82034" lon="4.78774">
        <ele>189</ele>
        <time>2022-07-15T06:16:06.000Z</time>
      </trkpt>
      <trkpt lat="49.82037" lon="4.78777">
        <ele>189</ele>
        <time>2022-07-15T06:16:07.000Z</time>
      </trkpt>
      <trkpt lat="49.82041" lon="4.7878">
        <ele>189</ele>
        <time>2022-07-15T06:16:08.000Z</time>
      </trkpt>
      <trkpt lat="49.82045" lon="4.78783">
        <ele>189</ele>
        <time>2022-07-15T06:16:09.000Z</time>
      </trkpt>
      <trkpt lat="49.82049" lon="4.78786">
        <ele>189</ele>
        <time>2022-07-15T06:16:10.000Z</time>
      </trkpt>
      <trkpt lat="49.82053" lon="4.78789">
        <ele>190</ele>
        <time>2022-07-15T06:16:11.000Z</time>
      </trkpt>
      <trkpt lat="49.82056" lon="4.78792">
        <ele>190</ele>
        <time>2022-07-15T06:16:12.000Z</time>
      </trkpt>
      <trkpt lat="49.8206" lon="4.78796">
        <ele>190</ele>
        <time>2022-07-15T06:16:13.000Z</time>
      </trkpt>
      <trkpt lat="49.82064" lon="4.78799">
        <ele>191</ele>
        <time>2022-07-15T06:16:14.000Z</time>
      </trkpt>
      <trkpt lat="49.82068" lon="4.78803">
        <ele>191</ele>
        <time>2022-07-15T06:16:15.000Z</time>
      </trkpt>
      <trkpt lat="49.82071" lon="4.78807">
        <ele>191</ele>
        <time>2022-07-15T06:16:16.000Z</time>
      </trkpt>
      <trkpt lat="49.82074" lon="4.78811">
        <ele>191</ele>
        <time>2022-07-15T06:16:17.000Z</time>
      </trkpt>
      <trkpt lat="49.82077" lon="4.78815">
        <ele>191</ele>
        <time>2022-07-15T06:16:18.000Z</time>
      </trkpt>
      <trkpt lat="49.82081" lon="4.78819">
        <ele>191</ele>
        <time>2022-07-15T06:16:19.000Z</time>
      </trkpt>
      <trkpt lat="49.82084" lon="4.78824">
        <ele>192</ele>
        <time>2022-07-15T06:16:20.000Z</time>
      </trkpt>
      <trkpt lat="49.82087" lon="4.78829">
        <ele>192</ele>
        <time>2022-07-15T06:16:21.000Z</time>
      </trkpt>
      <trkpt lat="49.82089" lon="4.78835">
        <ele>192</ele>
        <time>2022-07-15T06:16:22.000Z</time>
      </trkpt>
      <trkpt lat="49.82092" lon="4.78841">
        <ele>192</ele>
        <time>2022-07-15T06:16:23.000Z</time>
      </trkpt>
      <trkpt lat="49.82094" lon="4.78847">
        <ele>192</ele>
        <time>2022-07-15T06:16:24.000Z</time>
      </trkpt>
      <trkpt lat="49.82097" lon="4.78853">
        <ele>192</ele>
        <time>2022-07-15T06:16:25.000Z</time>
      </trkpt>
      <trkpt lat="49.82099" lon="4.78859">
        <ele>192</ele>
        <time>2022-07-15T06:16:26.000Z</time>
      </trkpt>
      <trkpt lat="49.82101" lon="4.78864">
        <ele>192</ele>
        <time>2022-07-15T06:16:27.000Z</time>
      </trkpt>
      <trkpt lat="49.82104" lon="4.7887">
        <ele>192</ele>
        <time>2022-07-15T06:16:28.000Z</time>
      </trkpt>
      <trkpt lat="49.82106" lon="4.78877">
        <ele>192</ele>
        <time>2022-07-15T06:16:29.000Z</time>
      </trkpt>
      <trkpt lat="49.82108" lon="4.78882">
        <ele>192</ele>
        <time>2022-07-15T06:16:30.000Z</time>
      </trkpt>
      <trkpt lat="49.82111" lon="4.78888">
        <ele>192</ele>
        <time>2022-07-15T06:16:31.000Z</time>
      </trkpt>
      <trkpt lat="49.82114" lon="4.78894">
        <ele>192</ele>
        <time>2022-07-15T06:16:32.000Z</time>
      </trkpt>
      <trkpt lat="49.82116" lon="4.78899">
        <ele>192</ele>
        <time>2022-07-15T06:16:33.000Z</time>
      </trkpt>
      <trkpt lat="49.82119" lon="4.78905">
        <ele>192</ele>
        <time>2022-07-15T06:16:34.000Z</time>
      </trkpt>
      <trkpt lat="49.82122" lon="4.7891">
        <ele>192</ele>
        <time>2022-07-15T06:16:35.000Z</time>
      </trkpt>
      <trkpt lat="49.82125" lon="4.78915">
        <ele>192</ele>
        <time>2022-07-15T06:16:36.000Z</time>
      </trkpt>
      <trkpt lat="49.82128" lon="4.78921">
        <ele>193</ele>
        <time>2022-07-15T06:16:37.000Z</time>
      </trkpt>
      <trkpt lat="49.82131" lon="4.78925">
        <ele>193</ele>
        <time>2022-07-15T06:16:38.000Z</time>
      </trkpt>
      <trkpt lat="49.82133" lon="4.7893">
        <ele>193</ele>
        <time>2022-07-15T06:16:39.000Z</time>
      </trkpt>
      <trkpt lat="49.82136" lon="4.78935">
        <ele>192</ele>
        <time>2022-07-15T06:16:40.000Z</time>
      </trkpt>
      <trkpt lat="49.8214" lon="4.7894">
        <ele>192</ele>
        <time>2022-07-15T06:16:41.000Z</time>
      </trkpt>
      <trkpt lat="49.82143" lon="4.78945">
        <ele>192</ele>
        <time>2022-07-15T06:16:42.000Z</time>
      </trkpt>
      <trkpt lat="49.82146" lon="4.78951">
        <ele>192</ele>
        <time>2022-07-15T06:16:43.000Z</time>
      </trkpt>
      <trkpt lat="49.82149" lon="4.78956">
        <ele>192</ele>
        <time>2022-07-15T06:16:44.000Z</time>
      </trkpt>
      <trkpt lat="49.82153" lon="4.78961">
        <ele>192</ele>
        <time>2022-07-15T06:16:45.000Z</time>
      </trkpt>
      <trkpt lat="49.82156" lon="4.78967">
        <ele>192</ele>
        <time>2022-07-15T06:16:46.000Z</time>
      </trkpt>
      <trkpt lat="49.8216" lon="4.78972">
        <ele>192</ele>
        <time>2022-07-15T06:16:47.000Z</time>
      </trkpt>
      <trkpt lat="49.82163" lon="4.78977">
        <ele>192</ele>
        <time>2022-07-15T06:16:48.000Z</time>
      </trkpt>
      <trkpt lat="49.82167" lon="4.78982">
        <ele>192</ele>
        <time>2022-07-15T06:16:49.000Z</time>
      </trkpt>
      <trkpt lat="49.82171" lon="4.78986">
        <ele>191</ele>
        <time>2022-07-15T06:16:50.000Z</time>
      </trkpt>
      <trkpt lat="49.82175" lon="4.7899">
        <ele>191</ele>
        <time>2022-07-15T06:16:51.000Z</time>
      </trkpt>
      <trkpt lat="49.82179" lon="4.78994">
        <ele>191</ele>
        <time>2022-07-15T06:16:52.000Z</time>
      </trkpt>
      <trkpt lat="49.82184" lon="4.78997">
        <ele>191</ele>
        <time>2022-07-15T06:16:53.000Z</time>
      </trkpt>
      <trkpt lat="49.82188" lon="4.79">
        <ele>191</ele>
        <time>2022-07-15T06:16:54.000Z</time>
      </trkpt>
      <trkpt lat="49.82193" lon="4.79001">
        <ele>191</ele>
        <time>2022-07-15T06:16:55.000Z</time>
      </trkpt>
      <trkpt lat="49.82198" lon="4.79003">
        <ele>191</ele>
        <time>2022-07-15T06:16:56.000Z</time>
      </trkpt>
      <trkpt lat="49.82204" lon="4.79004">
        <ele>191</ele>
        <time>2022-07-15T06:16:57.000Z</time>
      </trkpt>
      <trkpt lat="49.82209" lon="4.79006">
        <ele>191</ele>
        <time>2022-07-15T06:16:58.000Z</time>
      </trkpt>
      <trkpt lat="49.82214" lon="4.79007">
        <ele>191</ele>
        <time>2022-07-15T06:16:59.000Z</time>
      </trkpt>
      <trkpt lat="49.82219" lon="4.79007">
        <ele>191</ele>
        <time>2022-07-15T06:17:00.000Z</time>
      </trkpt>
      <trkpt lat="49.82224" lon="4.79008">
        <ele>191</ele>
        <time>2022-07-15T06:17:01.000Z</time>
      </trkpt>
      <trkpt lat="49.8223" lon="4.79009">
        <ele>191</ele>
        <time>2022-07-15T06:17:02.000Z</time>
      </trkpt>
      <trkpt lat="49.82236" lon="4.7901">
        <ele>191</ele>
        <time>2022-07-15T06:17:03.000Z</time>
      </trkpt>
      <trkpt lat="49.82242" lon="4.79011">
        <ele>191</ele>
        <time>2022-07-15T06:17:04.000Z</time>
      </trkpt>
      <trkpt lat="49.82248" lon="4.79013">
        <ele>191</ele>
        <time>2022-07-15T06:17:05.000Z</time>
      </trkpt>
      <trkpt lat="49.82254" lon="4.79015">
        <ele>191</ele>
        <time>2022-07-15T06:17:06.000Z</time>
      </trkpt>
      <trkpt lat="49.82259" lon="4.79017">
        <ele>191</ele>
        <time>2022-07-15T06:17:07.000Z</time>
      </trkpt>
      <trkpt lat="49.82265" lon="4.79019">
        <ele>191</ele>
        <time>2022-07-15T06:17:08.000Z</time>
      </trkpt>
      <trkpt lat="49.8227" lon="4.79021">
        <ele>191</ele>
        <time>2022-07-15T06:17:09.000Z</time>
      </trkpt>
      <trkpt lat="49.82276" lon="4.79023">
        <ele>192</ele>
        <time>2022-07-15T06:17:10.000Z</time>
      </trkpt>
      <trkpt lat="49.82281" lon="4.79025">
        <ele>192</ele>
        <time>2022-07-15T06:17:11.000Z</time>
      </trkpt>
      <trkpt lat="49.82286" lon="4.79027">
        <ele>192</ele>
        <time>2022-07-15T06:17:12.000Z</time>
      </trkpt>
      <trkpt lat="49.82291" lon="4.79029">
        <ele>192</ele>
        <time>2022-07-15T06:17:13.000Z</time>
      </trkpt>
      <trkpt lat="49.82296" lon="4.79031">
        <ele>192</ele>
        <time>2022-07-15T06:17:14.000Z</time>
      </trkpt>
      <trkpt lat="49.823" lon="4.79033">
        <ele>193</ele>
        <time>2022-07-15T06:17:15.000Z</time>
      </trkpt>
      <trkpt lat="49.82305" lon="4.79035">
        <ele>193</ele>
        <time>2022-07-15T06:17:16.000Z</time>
      </trkpt>
      <trkpt lat="49.8231" lon="4.79036">
        <ele>193</ele>
        <time>2022-07-15T06:17:17.000Z</time>
      </trkpt>
      <trkpt lat="49.82315" lon="4.79038">
        <ele>193</ele>
        <time>2022-07-15T06:17:18.000Z</time>
      </trkpt>
      <trkpt lat="49.8232" lon="4.79039">
        <ele>193</ele>
        <time>2022-07-15T06:17:19.000Z</time>
      </trkpt>
      <trkpt lat="49.82325" lon="4.79041">
        <ele>193</ele>
        <time>2022-07-15T06:17:20.000Z</time>
      </trkpt>
      <trkpt lat="49.8233" lon="4.79042">
        <ele>193</ele>
        <time>2022-07-15T06:17:21.000Z</time>
      </trkpt>
      <trkpt lat="49.82335" lon="4.79043">
        <ele>193</ele>
        <time>2022-07-15T06:17:22.000Z</time>
      </trkpt>
      <trkpt lat="49.8234" lon="4.79044">
        <ele>193</ele>
        <time>2022-07-15T06:17:23.000Z</time>
      </trkpt>
      <trkpt lat="49.82346" lon="4.79044">
        <ele>193</ele>
        <time>2022-07-15T06:17:24.000Z</time>
      </trkpt>
      <trkpt lat="49.82351" lon="4.79044">
        <ele>193</ele>
        <time>2022-07-15T06:17:25.000Z</time>
      </trkpt>
      <trkpt lat="49.82357" lon="4.79043">
        <ele>193</ele>
        <time>2022-07-15T06:17:26.000Z</time>
      </trkpt>
      <trkpt lat="49.82363" lon="4.79043">
        <ele>194</ele>
        <time>2022-07-15T06:17:27.000Z</time>
      </trkpt>
      <trkpt lat="49.82368" lon="4.79042">
        <ele>194</ele>
        <time>2022-07-15T06:17:28.000Z</time>
      </trkpt>
      <trkpt lat="49.82374" lon="4.79042">
        <ele>194</ele>
        <time>2022-07-15T06:17:29.000Z</time>
      </trkpt>
      <trkpt lat="49.82379" lon="4.79043">
        <ele>194</ele>
        <time>2022-07-15T06:17:30.000Z</time>
      </trkpt>
      <trkpt lat="49.82384" lon="4.79043">
        <ele>194</ele>
        <time>2022-07-15T06:17:31.000Z</time>
      </trkpt>
      <trkpt lat="49.82389" lon="4.79044">
        <ele>194</ele>
        <time>2022-07-15T06:17:32.000Z</time>
      </trkpt>
      <trkpt lat="49.82394" lon="4.79045">
        <ele>194</ele>
        <time>2022-07-15T06:17:33.000Z</time>
      </trkpt>
      <trkpt lat="49.82399" lon="4.79048">
        <ele>194</ele>
        <time>2022-07-15T06:17:34.000Z</time>
      </trkpt>
      <trkpt lat="49.82404" lon="4.7905">
        <ele>194</ele>
        <time>2022-07-15T06:17:35.000Z</time>
      </trkpt>
      <trkpt lat="49.82408" lon="4.79053">
        <ele>195</ele>
        <time>2022-07-15T06:17:36.000Z</time>
      </trkpt>
      <trkpt lat="49.82413" lon="4.79056">
        <ele>195</ele>
        <time>2022-07-15T06:17:37.000Z</time>
      </trkpt>
      <trkpt lat="49.82418" lon="4.79059">
        <ele>195</ele>
        <time>2022-07-15T06:17:38.000Z</time>
      </trkpt>
      <trkpt lat="49.82422" lon="4.79061">
        <ele>195</ele>
        <time>2022-07-15T06:17:39.000Z</time>
      </trkpt>
      <trkpt lat="49.82427" lon="4.79064">
        <ele>195</ele>
        <time>2022-07-15T06:17:40.000Z</time>
      </trkpt>
      <trkpt lat="49.82432" lon="4.79066">
        <ele>196</ele>
        <time>2022-07-15T06:17:41.000Z</time>
      </trkpt>
      <trkpt lat="49.82437" lon="4.79067">
        <ele>196</ele>
        <time>2022-07-15T06:17:42.000Z</time>
      </trkpt>
      <trkpt lat="49.82442" lon="4.79068">
        <ele>196</ele>
        <time>2022-07-15T06:17:43.000Z</time>
      </trkpt>
      <trkpt lat="49.82447" lon="4.79069">
        <ele>196</ele>
        <time>2022-07-15T06:17:44.000Z</time>
      </trkpt>
      <trkpt lat="49.82452" lon="4.79069">
        <ele>196</ele>
        <time>2022-07-15T06:17:45.000Z</time>
      </trkpt>
      <trkpt lat="49.82457" lon="4.79068">
        <ele>196</ele>
        <time>2022-07-15T06:17:46.000Z</time>
      </trkpt>
      <trkpt lat="49.82462" lon="4.79067">
        <ele>196</ele>
        <time>2022-07-15T06:17:47.000Z</time>
      </trkpt>
      <trkpt lat="49.82468" lon="4.79065">
        <ele>197</ele>
        <time>2022-07-15T06:17:48.000Z</time>
      </trkpt>
      <trkpt lat="49.82473" lon="4.79062">
        <ele>197</ele>
        <time>2022-07-15T06:17:49.000Z</time>
      </trkpt>
      <trkpt lat="49.82479" lon="4.79061">
        <ele>197</ele>
        <time>2022-07-15T06:17:50.000Z</time>
      </trkpt>
      <trkpt lat="49.82484" lon="4.7906">
        <ele>197</ele>
        <time>2022-07-15T06:17:51.000Z</time>
      </trkpt>
      <trkpt lat="49.8249" lon="4.7906">
        <ele>197</ele>
        <time>2022-07-15T06:17:52.000Z</time>
      </trkpt>
      <trkpt lat="49.82495" lon="4.7906">
        <ele>197</ele>
        <time>2022-07-15T06:17:53.000Z</time>
      </trkpt>
      <trkpt lat="49.825" lon="4.79061">
        <ele>197</ele>
        <time>2022-07-15T06:17:54.000Z</time>
      </trkpt>
      <trkpt lat="49.82505" lon="4.79062">
        <ele>197</ele>
        <time>2022-07-15T06:17:55.000Z</time>
      </trkpt>
      <trkpt lat="49.8251" lon="4.79063">
        <ele>197</ele>
        <time>2022-07-15T06:17:56.000Z</time>
      </trkpt>
      <trkpt lat="49.82514" lon="4.79064">
        <ele>197</ele>
        <time>2022-07-15T06:17:57.000Z</time>
      </trkpt>
      <trkpt lat="49.82519" lon="4.79065">
        <ele>197</ele>
        <time>2022-07-15T06:17:58.000Z</time>
      </trkpt>
      <trkpt lat="49.82524" lon="4.79066">
        <ele>197</ele>
        <time>2022-07-15T06:17:59.000Z</time>
      </trkpt>
      <trkpt lat="49.82529" lon="4.79067">
        <ele>197</ele>
        <time>2022-07-15T06:18:00.000Z</time>
      </trkpt>
      <trkpt lat="49.82534" lon="4.79069">
        <ele>197</ele>
        <time>2022-07-15T06:18:01.000Z</time>
      </trkpt>
      <trkpt lat="49.82539" lon="4.79069">
        <ele>197</ele>
        <time>2022-07-15T06:18:02.000Z</time>
      </trkpt>
      <trkpt lat="49.82545" lon="4.7907">
        <ele>197</ele>
        <time>2022-07-15T06:18:03.000Z</time>
      </trkpt>
      <trkpt lat="49.82551" lon="4.79071">
        <ele>197</ele>
        <time>2022-07-15T06:18:04.000Z</time>
      </trkpt>
      <trkpt lat="49.82556" lon="4.79072">
        <ele>198</ele>
        <time>2022-07-15T06:18:05.000Z</time>
      </trkpt>
      <trkpt lat="49.82562" lon="4.79074">
        <ele>198</ele>
        <time>2022-07-15T06:18:06.000Z</time>
      </trkpt>
      <trkpt lat="49.82566" lon="4.79075">
        <ele>198</ele>
        <time>2022-07-15T06:18:07.000Z</time>
      </trkpt>
      <trkpt lat="49.82571" lon="4.79077">
        <ele>198</ele>
        <time>2022-07-15T06:18:08.000Z</time>
      </trkpt>
      <trkpt lat="49.82576" lon="4.79078">
        <ele>198</ele>
        <time>2022-07-15T06:18:09.000Z</time>
      </trkpt>
      <trkpt lat="49.8258" lon="4.79079">
        <ele>198</ele>
        <time>2022-07-15T06:18:10.000Z</time>
      </trkpt>
      <trkpt lat="49.82585" lon="4.7908">
        <ele>198</ele>
        <time>2022-07-15T06:18:11.000Z</time>
      </trkpt>
      <trkpt lat="49.8259" lon="4.79081">
        <ele>198</ele>
        <time>2022-07-15T06:18:12.000Z</time>
      </trkpt>
      <trkpt lat="49.82595" lon="4.79082">
        <ele>199</ele>
        <time>2022-07-15T06:18:13.000Z</time>
      </trkpt>
      <trkpt lat="49.82599" lon="4.79084">
        <ele>199</ele>
        <time>2022-07-15T06:18:14.000Z</time>
      </trkpt>
      <trkpt lat="49.82604" lon="4.79086">
        <ele>199</ele>
        <time>2022-07-15T06:18:15.000Z</time>
      </trkpt>
      <trkpt lat="49.82609" lon="4.79088">
        <ele>199</ele>
        <time>2022-07-15T06:18:16.000Z</time>
      </trkpt>
      <trkpt lat="49.82613" lon="4.7909">
        <ele>199</ele>
        <time>2022-07-15T06:18:17.000Z</time>
      </trkpt>
      <trkpt lat="49.82618" lon="4.79092">
        <ele>199</ele>
        <time>2022-07-15T06:18:18.000Z</time>
      </trkpt>
      <trkpt lat="49.82623" lon="4.79095">
        <ele>199</ele>
        <time>2022-07-15T06:18:19.000Z</time>
      </trkpt>
      <trkpt lat="49.82628" lon="4.79097">
        <ele>199</ele>
        <time>2022-07-15T06:18:20.000Z</time>
      </trkpt>
      <trkpt lat="49.82633" lon="4.79099">
        <ele>199</ele>
        <time>2022-07-15T06:18:21.000Z</time>
      </trkpt>
      <trkpt lat="49.82637" lon="4.79102">
        <ele>199</ele>
        <time>2022-07-15T06:18:22.000Z</time>
      </trkpt>
      <trkpt lat="49.82642" lon="4.79105">
        <ele>200</ele>
        <time>2022-07-15T06:18:23.000Z</time>
      </trkpt>
      <trkpt lat="49.82647" lon="4.79107">
        <ele>200</ele>
        <time>2022-07-15T06:18:24.000Z</time>
      </trkpt>
      <trkpt lat="49.82652" lon="4.79108">
        <ele>200</ele>
        <time>2022-07-15T06:18:25.000Z</time>
      </trkpt>
      <trkpt lat="49.82657" lon="4.79109">
        <ele>200</ele>
        <time>2022-07-15T06:18:26.000Z</time>
      </trkpt>
      <trkpt lat="49.82661" lon="4.79109">
        <ele>200</ele>
        <time>2022-07-15T06:18:27.000Z</time>
      </trkpt>
      <trkpt lat="49.82665" lon="4.79109">
        <ele>201</ele>
        <time>2022-07-15T06:18:28.000Z</time>
      </trkpt>
      <trkpt lat="49.8267" lon="4.79109">
        <ele>201</ele>
        <time>2022-07-15T06:18:29.000Z</time>
      </trkpt>
      <trkpt lat="49.82674" lon="4.79109">
        <ele>201</ele>
        <time>2022-07-15T06:18:30.000Z</time>
      </trkpt>
      <trkpt lat="49.82678" lon="4.79109">
        <ele>201</ele>
        <time>2022-07-15T06:18:31.000Z</time>
      </trkpt>
      <trkpt lat="49.82683" lon="4.79109">
        <ele>201</ele>
        <time>2022-07-15T06:18:32.000Z</time>
      </trkpt>
      <trkpt lat="49.82688" lon="4.7911">
        <ele>202</ele>
        <time>2022-07-15T06:18:33.000Z</time>
      </trkpt>
      <trkpt lat="49.82693" lon="4.79111">
        <ele>202</ele>
        <time>2022-07-15T06:18:34.000Z</time>
      </trkpt>
      <trkpt lat="49.82698" lon="4.79114">
        <ele>202</ele>
        <time>2022-07-15T06:18:35.000Z</time>
      </trkpt>
      <trkpt lat="49.82702" lon="4.79116">
        <ele>202</ele>
        <time>2022-07-15T06:18:36.000Z</time>
      </trkpt>
      <trkpt lat="49.82706" lon="4.79119">
        <ele>202</ele>
        <time>2022-07-15T06:18:37.000Z</time>
      </trkpt>
      <trkpt lat="49.8271" lon="4.79121">
        <ele>202</ele>
        <time>2022-07-15T06:18:38.000Z</time>
      </trkpt>
      <trkpt lat="49.82715" lon="4.79124">
        <ele>202</ele>
        <time>2022-07-15T06:18:39.000Z</time>
      </trkpt>
      <trkpt lat="49.82719" lon="4.79127">
        <ele>202</ele>
        <time>2022-07-15T06:18:40.000Z</time>
      </trkpt>
      <trkpt lat="49.82724" lon="4.7913">
        <ele>202</ele>
        <time>2022-07-15T06:18:41.000Z</time>
      </trkpt>
      <trkpt lat="49.82728" lon="4.79134">
        <ele>202</ele>
        <time>2022-07-15T06:18:42.000Z</time>
      </trkpt>
      <trkpt lat="49.82732" lon="4.79138">
        <ele>201</ele>
        <time>2022-07-15T06:18:43.000Z</time>
      </trkpt>
      <trkpt lat="49.82737" lon="4.79142">
        <ele>201</ele>
        <time>2022-07-15T06:18:44.000Z</time>
      </trkpt>
      <trkpt lat="49.82741" lon="4.79147">
        <ele>201</ele>
        <time>2022-07-15T06:18:45.000Z</time>
      </trkpt>
      <trkpt lat="49.82746" lon="4.7915">
        <ele>201</ele>
        <time>2022-07-15T06:18:46.000Z</time>
      </trkpt>
      <trkpt lat="49.8275" lon="4.79154">
        <ele>200</ele>
        <time>2022-07-15T06:18:47.000Z</time>
      </trkpt>
      <trkpt lat="49.82755" lon="4.79158">
        <ele>200</ele>
        <time>2022-07-15T06:18:48.000Z</time>
      </trkpt>
      <trkpt lat="49.8276" lon="4.79161">
        <ele>200</ele>
        <time>2022-07-15T06:18:49.000Z</time>
      </trkpt>
      <trkpt lat="49.82764" lon="4.79165">
        <ele>200</ele>
        <time>2022-07-15T06:18:50.000Z</time>
      </trkpt>
      <trkpt lat="49.82769" lon="4.79169">
        <ele>199</ele>
        <time>2022-07-15T06:18:51.000Z</time>
      </trkpt>
      <trkpt lat="49.82773" lon="4.79174">
        <ele>199</ele>
        <time>2022-07-15T06:18:52.000Z</time>
      </trkpt>
      <trkpt lat="49.82777" lon="4.79179">
        <ele>199</ele>
        <time>2022-07-15T06:18:53.000Z</time>
      </trkpt>
      <trkpt lat="49.82781" lon="4.79184">
        <ele>199</ele>
        <time>2022-07-15T06:18:54.000Z</time>
      </trkpt>
      <trkpt lat="49.82785" lon="4.79189">
        <ele>199</ele>
        <time>2022-07-15T06:18:55.000Z</time>
      </trkpt>
      <trkpt lat="49.82788" lon="4.79195">
        <ele>199</ele>
        <time>2022-07-15T06:18:56.000Z</time>
      </trkpt>
      <trkpt lat="49.82792" lon="4.79201">
        <ele>198</ele>
        <time>2022-07-15T06:18:57.000Z</time>
      </trkpt>
      <trkpt lat="49.82795" lon="4.79207">
        <ele>198</ele>
        <time>2022-07-15T06:18:58.000Z</time>
      </trkpt>
      <trkpt lat="49.82798" lon="4.79213">
        <ele>198</ele>
        <time>2022-07-15T06:18:59.000Z</time>
      </trkpt>
      <trkpt lat="49.82801" lon="4.79219">
        <ele>198</ele>
        <time>2022-07-15T06:19:00.000Z</time>
      </trkpt>
      <trkpt lat="49.82803" lon="4.79225">
        <ele>198</ele>
        <time>2022-07-15T06:19:01.000Z</time>
      </trkpt>
      <trkpt lat="49.82806" lon="4.79231">
        <ele>198</ele>
        <time>2022-07-15T06:19:02.000Z</time>
      </trkpt>
      <trkpt lat="49.82809" lon="4.79237">
        <ele>198</ele>
        <time>2022-07-15T06:19:03.000Z</time>
      </trkpt>
      <trkpt lat="49.82812" lon="4.79243">
        <ele>198</ele>
        <time>2022-07-15T06:19:04.000Z</time>
      </trkpt>
      <trkpt lat="49.82815" lon="4.79248">
        <ele>198</ele>
        <time>2022-07-15T06:19:05.000Z</time>
      </trkpt>
      <trkpt lat="49.82819" lon="4.79254">
        <ele>198</ele>
        <time>2022-07-15T06:19:06.000Z</time>
      </trkpt>
      <trkpt lat="49.82823" lon="4.79259">
        <ele>198</ele>
        <time>2022-07-15T06:19:07.000Z</time>
      </trkpt>
      <trkpt lat="49.82827" lon="4.79264">
        <ele>198</ele>
        <time>2022-07-15T06:19:08.000Z</time>
      </trkpt>
      <trkpt lat="49.82831" lon="4.79268">
        <ele>198</ele>
        <time>2022-07-15T06:19:09.000Z</time>
      </trkpt>
      <trkpt lat="49.82835" lon="4.79272">
        <ele>198</ele>
        <time>2022-07-15T06:19:10.000Z</time>
      </trkpt>
      <trkpt lat="49.82839" lon="4.79277">
        <ele>198</ele>
        <time>2022-07-15T06:19:11.000Z</time>
      </trkpt>
      <trkpt lat="49.82843" lon="4.79282">
        <ele>198</ele>
        <time>2022-07-15T06:19:12.000Z</time>
      </trkpt>
      <trkpt lat="49.82848" lon="4.79286">
        <ele>198</ele>
        <time>2022-07-15T06:19:13.000Z</time>
      </trkpt>
      <trkpt lat="49.82852" lon="4.7929">
        <ele>198</ele>
        <time>2022-07-15T06:19:14.000Z</time>
      </trkpt>
      <trkpt lat="49.82857" lon="4.79296">
        <ele>198</ele>
        <time>2022-07-15T06:19:15.000Z</time>
      </trkpt>
      <trkpt lat="49.82861" lon="4.79301">
        <ele>198</ele>
        <time>2022-07-15T06:19:16.000Z</time>
      </trkpt>
      <trkpt lat="49.82864" lon="4.79307">
        <ele>198</ele>
        <time>2022-07-15T06:19:17.000Z</time>
      </trkpt>
      <trkpt lat="49.82868" lon="4.79313">
        <ele>198</ele>
        <time>2022-07-15T06:19:18.000Z</time>
      </trkpt>
      <trkpt lat="49.82871" lon="4.79318">
        <ele>198</ele>
        <time>2022-07-15T06:19:19.000Z</time>
      </trkpt>
      <trkpt lat="49.82874" lon="4.79323">
        <ele>198</ele>
        <time>2022-07-15T06:19:20.000Z</time>
      </trkpt>
      <trkpt lat="49.82877" lon="4.79328">
        <ele>198</ele>
        <time>2022-07-15T06:19:21.000Z</time>
      </trkpt>
      <trkpt lat="49.8288" lon="4.79334">
        <ele>198</ele>
        <time>2022-07-15T06:19:22.000Z</time>
      </trkpt>
      <trkpt lat="49.82883" lon="4.79339">
        <ele>198</ele>
        <time>2022-07-15T06:19:23.000Z</time>
      </trkpt>
      <trkpt lat="49.82885" lon="4.79344">
        <ele>198</ele>
        <time>2022-07-15T06:19:24.000Z</time>
      </trkpt>
      <trkpt lat="49.82888" lon="4.79349">
        <ele>198</ele>
        <time>2022-07-15T06:19:25.000Z</time>
      </trkpt>
      <trkpt lat="49.8289" lon="4.79354">
        <ele>198</ele>
        <time>2022-07-15T06:19:26.000Z</time>
      </trkpt>
      <trkpt lat="49.82892" lon="4.79359">
        <ele>198</ele>
        <time>2022-07-15T06:19:27.000Z</time>
      </trkpt>
      <trkpt lat="49.82894" lon="4.79364">
        <ele>198</ele>
        <time>2022-07-15T06:19:28.000Z</time>
      </trkpt>
      <trkpt lat="49.82896" lon="4.79369">
        <ele>198</ele>
        <time>2022-07-15T06:19:29.000Z</time>
      </trkpt>
      <trkpt lat="49.82898" lon="4.79374">
        <ele>198</ele>
        <time>2022-07-15T06:19:30.000Z</time>
      </trkpt>
      <trkpt lat="49.829" lon="4.7938">
        <ele>198</ele>
        <time>2022-07-15T06:19:31.000Z</time>
      </trkpt>
      <trkpt lat="49.82902" lon="4.79385">
        <ele>198</ele>
        <time>2022-07-15T06:19:32.000Z</time>
      </trkpt>
      <trkpt lat="49.82904" lon="4.79391">
        <ele>198</ele>
        <time>2022-07-15T06:19:33.000Z</time>
      </trkpt>
      <trkpt lat="49.82906" lon="4.79397">
        <ele>198</ele>
        <time>2022-07-15T06:19:34.000Z</time>
      </trkpt>
      <trkpt lat="49.82907" lon="4.79402">
        <ele>198</ele>
        <time>2022-07-15T06:19:35.000Z</time>
      </trkpt>
      <trkpt lat="49.82909" lon="4.79408">
        <ele>198</ele>
        <time>2022-07-15T06:19:36.000Z</time>
      </trkpt>
      <trkpt lat="49.82911" lon="4.79414">
        <ele>198</ele>
        <time>2022-07-15T06:19:37.000Z</time>
      </trkpt>
      <trkpt lat="49.82913" lon="4.79419">
        <ele>198</ele>
        <time>2022-07-15T06:19:38.000Z</time>
      </trkpt>
      <trkpt lat="49.82914" lon="4.79424">
        <ele>198</ele>
        <time>2022-07-15T06:19:39.000Z</time>
      </trkpt>
      <trkpt lat="49.82916" lon="4.7943">
        <ele>198</ele>
        <time>2022-07-15T06:19:40.000Z</time>
      </trkpt>
      <trkpt lat="49.82918" lon="4.79435">
        <ele>198</ele>
        <time>2022-07-15T06:19:41.000Z</time>
      </trkpt>
      <trkpt lat="49.8292" lon="4.7944">
        <ele>199</ele>
        <time>2022-07-15T06:19:42.000Z</time>
      </trkpt>
      <trkpt lat="49.82922" lon="4.79444">
        <ele>199</ele>
        <time>2022-07-15T06:19:43.000Z</time>
      </trkpt>
      <trkpt lat="49.82925" lon="4.79448">
        <ele>199</ele>
        <time>2022-07-15T06:19:44.000Z</time>
      </trkpt>
      <trkpt lat="49.82928" lon="4.79451">
        <ele>199</ele>
        <time>2022-07-15T06:19:45.000Z</time>
      </trkpt>
      <trkpt lat="49.8293" lon="4.79454">
        <ele>199</ele>
        <time>2022-07-15T06:19:46.000Z</time>
      </trkpt>
      <trkpt lat="49.82933" lon="4.79456">
        <ele>199</ele>
        <time>2022-07-15T06:19:47.000Z</time>
      </trkpt>
      <trkpt lat="49.82935" lon="4.79459">
        <ele>199</ele>
        <time>2022-07-15T06:19:48.000Z</time>
      </trkpt>
      <trkpt lat="49.82937" lon="4.79462">
        <ele>200</ele>
        <time>2022-07-15T06:19:49.000Z</time>
      </trkpt>
      <trkpt lat="49.8294" lon="4.79464">
        <ele>200</ele>
        <time>2022-07-15T06:19:50.000Z</time>
      </trkpt>
      <trkpt lat="49.82943" lon="4.79466">
        <ele>200</ele>
        <time>2022-07-15T06:19:51.000Z</time>
      </trkpt>
      <trkpt lat="49.82946" lon="4.79468">
        <ele>201</ele>
        <time>2022-07-15T06:19:52.000Z</time>
      </trkpt>
      <trkpt lat="49.82949" lon="4.79469">
        <ele>201</ele>
        <time>2022-07-15T06:19:53.000Z</time>
      </trkpt>
      <trkpt lat="49.82952" lon="4.7947">
        <ele>201</ele>
        <time>2022-07-15T06:19:54.000Z</time>
      </trkpt>
      <trkpt lat="49.82955" lon="4.79471">
        <ele>202</ele>
        <time>2022-07-15T06:19:55.000Z</time>
      </trkpt>
      <trkpt lat="49.82958" lon="4.79472">
        <ele>202</ele>
        <time>2022-07-15T06:19:56.000Z</time>
      </trkpt>
      <trkpt lat="49.82962" lon="4.79473">
        <ele>202</ele>
        <time>2022-07-15T06:19:57.000Z</time>
      </trkpt>
      <trkpt lat="49.82965" lon="4.79473">
        <ele>203</ele>
        <time>2022-07-15T06:19:58.000Z</time>
      </trkpt>
      <trkpt lat="49.82968" lon="4.79474">
        <ele>203</ele>
        <time>2022-07-15T06:19:59.000Z</time>
      </trkpt>
      <trkpt lat="49.82971" lon="4.79475">
        <ele>204</ele>
        <time>2022-07-15T06:20:00.000Z</time>
      </trkpt>
      <trkpt lat="49.82974" lon="4.79475">
        <ele>204</ele>
        <time>2022-07-15T06:20:01.000Z</time>
      </trkpt>
      <trkpt lat="49.82977" lon="4.79476">
        <ele>205</ele>
        <time>2022-07-15T06:20:02.000Z</time>
      </trkpt>
      <trkpt lat="49.8298" lon="4.79477">
        <ele>205</ele>
        <time>2022-07-15T06:20:03.000Z</time>
      </trkpt>
      <trkpt lat="49.82983" lon="4.79479">
        <ele>206</ele>
        <time>2022-07-15T06:20:04.000Z</time>
      </trkpt>
      <trkpt lat="49.82986" lon="4.79479">
        <ele>206</ele>
        <time>2022-07-15T06:20:05.000Z</time>
      </trkpt>
      <trkpt lat="49.82989" lon="4.7948">
        <ele>207</ele>
        <time>2022-07-15T06:20:06.000Z</time>
      </trkpt>
      <trkpt lat="49.82992" lon="4.79481">
        <ele>207</ele>
        <time>2022-07-15T06:20:07.000Z</time>
      </trkpt>
      <trkpt lat="49.82995" lon="4.79481">
        <ele>207</ele>
        <time>2022-07-15T06:20:08.000Z</time>
      </trkpt>
      <trkpt lat="49.82997" lon="4.79481">
        <ele>208</ele>
        <time>2022-07-15T06:20:09.000Z</time>
      </trkpt>
      <trkpt lat="49.83" lon="4.79481">
        <ele>208</ele>
        <time>2022-07-15T06:20:10.000Z</time>
      </trkpt>
      <trkpt lat="49.83002" lon="4.79481">
        <ele>209</ele>
        <time>2022-07-15T06:20:11.000Z</time>
      </trkpt>
      <trkpt lat="49.83003" lon="4.79481">
        <ele>209</ele>
        <time>2022-07-15T06:20:12.000Z</time>
      </trkpt>
      <trkpt lat="49.83005" lon="4.79481">
        <ele>209</ele>
        <time>2022-07-15T06:20:13.000Z</time>
      </trkpt>
      <trkpt lat="49.83007" lon="4.79481">
        <ele>210</ele>
        <time>2022-07-15T06:20:14.000Z</time>
      </trkpt>
      <trkpt lat="49.83009" lon="4.79481">
        <ele>210</ele>
        <time>2022-07-15T06:20:15.000Z</time>
      </trkpt>
      <trkpt lat="49.83011" lon="4.79482">
        <ele>211</ele>
        <time>2022-07-15T06:20:16.000Z</time>
      </trkpt>
      <trkpt lat="49.83013" lon="4.79483">
        <ele>211</ele>
        <time>2022-07-15T06:20:17.000Z</time>
      </trkpt>
      <trkpt lat="49.83015" lon="4.79484">
        <ele>211</ele>
        <time>2022-07-15T06:20:18.000Z</time>
      </trkpt>
      <trkpt lat="49.83017" lon="4.79484">
        <ele>212</ele>
        <time>2022-07-15T06:20:19.000Z</time>
      </trkpt>
      <trkpt lat="49.83019" lon="4.79485">
        <ele>212</ele>
        <time>2022-07-15T06:20:20.000Z</time>
      </trkpt>
      <trkpt lat="49.83021" lon="4.79485">
        <ele>212</ele>
        <time>2022-07-15T06:20:21.000Z</time>
      </trkpt>
      <trkpt lat="49.83023" lon="4.79485">
        <ele>213</ele>
        <time>2022-07-15T06:20:22.000Z</time>
      </trkpt>
      <trkpt lat="49.83025" lon="4.79485">
        <ele>213</ele>
        <time>2022-07-15T06:20:23.000Z</time>
      </trkpt>
      <trkpt lat="49.83027" lon="4.79485">
        <ele>214</ele>
        <time>2022-07-15T06:20:24.000Z</time>
      </trkpt>
      <trkpt lat="49.83029" lon="4.79485">
        <ele>214</ele>
        <time>2022-07-15T06:20:25.000Z</time>
      </trkpt>
      <trkpt lat="49.83031" lon="4.79485">
        <ele>214</ele>
        <time>2022-07-15T06:20:26.000Z</time>
      </trkpt>
      <trkpt lat="49.83033" lon="4.79485">
        <ele>215</ele>
        <time>2022-07-15T06:20:27.000Z</time>
      </trkpt>
      <trkpt lat="49.83035" lon="4.79486">
        <ele>215</ele>
        <time>2022-07-15T06:20:28.000Z</time>
      </trkpt>
      <trkpt lat="49.83037" lon="4.79486">
        <ele>216</ele>
        <time>2022-07-15T06:20:29.000Z</time>
      </trkpt>
      <trkpt lat="49.83039" lon="4.79486">
        <ele>216</ele>
        <time>2022-07-15T06:20:30.000Z</time>
      </trkpt>
      <trkpt lat="49.8304" lon="4.79486">
        <ele>217</ele>
        <time>2022-07-15T06:20:31.000Z</time>
      </trkpt>
      <trkpt lat="49.83043" lon="4.79486">
        <ele>217</ele>
        <time>2022-07-15T06:20:32.000Z</time>
      </trkpt>
      <trkpt lat="49.83045" lon="4.79487">
        <ele>218</ele>
        <time>2022-07-15T06:20:33.000Z</time>
      </trkpt>
      <trkpt lat="49.83047" lon="4.79487">
        <ele>218</ele>
        <time>2022-07-15T06:20:34.000Z</time>
      </trkpt>
      <trkpt lat="49.83049" lon="4.79487">
        <ele>219</ele>
        <time>2022-07-15T06:20:35.000Z</time>
      </trkpt>
      <trkpt lat="49.83052" lon="4.79488">
        <ele>219</ele>
        <time>2022-07-15T06:20:36.000Z</time>
      </trkpt>
      <trkpt lat="49.83054" lon="4.79487">
        <ele>219</ele>
        <time>2022-07-15T06:20:37.000Z</time>
      </trkpt>
      <trkpt lat="49.83056" lon="4.79487">
        <ele>220</ele>
        <time>2022-07-15T06:20:38.000Z</time>
      </trkpt>
      <trkpt lat="49.83058" lon="4.79487">
        <ele>220</ele>
        <time>2022-07-15T06:20:39.000Z</time>
      </trkpt>
      <trkpt lat="49.83061" lon="4.79487">
        <ele>221</ele>
        <time>2022-07-15T06:20:40.000Z</time>
      </trkpt>
      <trkpt lat="49.83063" lon="4.79486">
        <ele>222</ele>
        <time>2022-07-15T06:20:41.000Z</time>
      </trkpt>
      <trkpt lat="49.83065" lon="4.79486">
        <ele>222</ele>
        <time>2022-07-15T06:20:42.000Z</time>
      </trkpt>
      <trkpt lat="49.83068" lon="4.79485">
        <ele>223</ele>
        <time>2022-07-15T06:20:43.000Z</time>
      </trkpt>
      <trkpt lat="49.83069" lon="4.79484">
        <ele>223</ele>
        <time>2022-07-15T06:20:44.000Z</time>
      </trkpt>
      <trkpt lat="49.83071" lon="4.79481">
        <ele>224</ele>
        <time>2022-07-15T06:20:45.000Z</time>
      </trkpt>
      <trkpt lat="49.83073" lon="4.79478">
        <ele>225</ele>
        <time>2022-07-15T06:20:46.000Z</time>
      </trkpt>
      <trkpt lat="49.83073" lon="4.79475">
        <ele>225</ele>
        <time>2022-07-15T06:20:47.000Z</time>
      </trkpt>
      <trkpt lat="49.83072" lon="4.79471">
        <ele>226</ele>
        <time>2022-07-15T06:20:48.000Z</time>
      </trkpt>
      <trkpt lat="49.8307" lon="4.79469">
        <ele>226</ele>
        <time>2022-07-15T06:20:49.000Z</time>
      </trkpt>
      <trkpt lat="49.83068" lon="4.79467">
        <ele>227</ele>
        <time>2022-07-15T06:20:50.000Z</time>
      </trkpt>
      <trkpt lat="49.83066" lon="4.79465">
        <ele>227</ele>
        <time>2022-07-15T06:20:51.000Z</time>
      </trkpt>
      <trkpt lat="49.83063" lon="4.79464">
        <ele>227</ele>
        <time>2022-07-15T06:20:52.000Z</time>
      </trkpt>
      <trkpt lat="49.8306" lon="4.79464">
        <ele>228</ele>
        <time>2022-07-15T06:20:53.000Z</time>
      </trkpt>
      <trkpt lat="49.83057" lon="4.79463">
        <ele>228</ele>
        <time>2022-07-15T06:20:54.000Z</time>
      </trkpt>
      <trkpt lat="49.83055" lon="4.79463">
        <ele>228</ele>
        <time>2022-07-15T06:20:55.000Z</time>
      </trkpt>
      <trkpt lat="49.83052" lon="4.79462">
        <ele>229</ele>
        <time>2022-07-15T06:20:56.000Z</time>
      </trkpt>
      <trkpt lat="49.83049" lon="4.7946">
        <ele>229</ele>
        <time>2022-07-15T06:20:57.000Z</time>
      </trkpt>
      <trkpt lat="49.83046" lon="4.79458">
        <ele>229</ele>
        <time>2022-07-15T06:20:58.000Z</time>
      </trkpt>
      <trkpt lat="49.83043" lon="4.79457">
        <ele>230</ele>
        <time>2022-07-15T06:20:59.000Z</time>
      </trkpt>
      <trkpt lat="49.8304" lon="4.79454">
        <ele>230</ele>
        <time>2022-07-15T06:21:00.000Z</time>
      </trkpt>
      <trkpt lat="49.83037" lon="4.79452">
        <ele>230</ele>
        <time>2022-07-15T06:21:01.000Z</time>
      </trkpt>
      <trkpt lat="49.83035" lon="4.7945">
        <ele>231</ele>
        <time>2022-07-15T06:21:02.000Z</time>
      </trkpt>
      <trkpt lat="49.83032" lon="4.79448">
        <ele>231</ele>
        <time>2022-07-15T06:21:03.000Z</time>
      </trkpt>
      <trkpt lat="49.8303" lon="4.79446">
        <ele>231</ele>
        <time>2022-07-15T06:21:04.000Z</time>
      </trkpt>
      <trkpt lat="49.83028" lon="4.79444">
        <ele>232</ele>
        <time>2022-07-15T06:21:05.000Z</time>
      </trkpt>
      <trkpt lat="49.83026" lon="4.79441">
        <ele>232</ele>
        <time>2022-07-15T06:21:06.000Z</time>
      </trkpt>
      <trkpt lat="49.83024" lon="4.79439">
        <ele>233</ele>
        <time>2022-07-15T06:21:07.000Z</time>
      </trkpt>
      <trkpt lat="49.83022" lon="4.79437">
        <ele>233</ele>
        <time>2022-07-15T06:21:08.000Z</time>
      </trkpt>
      <trkpt lat="49.83021" lon="4.79435">
        <ele>234</ele>
        <time>2022-07-15T06:21:09.000Z</time>
      </trkpt>
      <trkpt lat="49.83019" lon="4.79433">
        <ele>234</ele>
        <time>2022-07-15T06:21:10.000Z</time>
      </trkpt>
      <trkpt lat="49.83017" lon="4.7943">
        <ele>234</ele>
        <time>2022-07-15T06:21:11.000Z</time>
      </trkpt>
      <trkpt lat="49.83015" lon="4.79428">
        <ele>235</ele>
        <time>2022-07-15T06:21:12.000Z</time>
      </trkpt>
      <trkpt lat="49.83013" lon="4.79426">
        <ele>235</ele>
        <time>2022-07-15T06:21:13.000Z</time>
      </trkpt>
      <trkpt lat="49.83011" lon="4.79424">
        <ele>235</ele>
        <time>2022-07-15T06:21:14.000Z</time>
      </trkpt>
      <trkpt lat="49.8301" lon="4.79422">
        <ele>235</ele>
        <time>2022-07-15T06:21:15.000Z</time>
      </trkpt>
      <trkpt lat="49.83008" lon="4.7942">
        <ele>235</ele>
        <time>2022-07-15T06:21:16.000Z</time>
      </trkpt>
      <trkpt lat="49.83006" lon="4.79418">
        <ele>235</ele>
        <time>2022-07-15T06:21:17.000Z</time>
      </trkpt>
      <trkpt lat="49.83004" lon="4.79416">
        <ele>235</ele>
        <time>2022-07-15T06:21:18.000Z</time>
      </trkpt>
      <trkpt lat="49.83002" lon="4.79414">
        <ele>235</ele>
        <time>2022-07-15T06:21:19.000Z</time>
      </trkpt>
      <trkpt lat="49.83001" lon="4.79412">
        <ele>235</ele>
        <time>2022-07-15T06:21:20.000Z</time>
      </trkpt>
      <trkpt lat="49.82999" lon="4.7941">
        <ele>235</ele>
        <time>2022-07-15T06:21:21.000Z</time>
      </trkpt>
      <trkpt lat="49.82997" lon="4.79408">
        <ele>234</ele>
        <time>2022-07-15T06:21:22.000Z</time>
      </trkpt>
      <trkpt lat="49.82995" lon="4.79406">
        <ele>234</ele>
        <time>2022-07-15T06:21:23.000Z</time>
      </trkpt>
      <trkpt lat="49.82994" lon="4.79403">
        <ele>234</ele>
        <time>2022-07-15T06:21:24.000Z</time>
      </trkpt>
      <trkpt lat="49.82992" lon="4.79401">
        <ele>233</ele>
        <time>2022-07-15T06:21:25.000Z</time>
      </trkpt>
      <trkpt lat="49.82991" lon="4.79399">
        <ele>233</ele>
        <time>2022-07-15T06:21:26.000Z</time>
      </trkpt>
      <trkpt lat="49.82989" lon="4.79397">
        <ele>233</ele>
        <time>2022-07-15T06:21:27.000Z</time>
      </trkpt>
      <trkpt lat="49.82988" lon="4.79395">
        <ele>232</ele>
        <time>2022-07-15T06:21:28.000Z</time>
      </trkpt>
      <trkpt lat="49.82986" lon="4.79393">
        <ele>232</ele>
        <time>2022-07-15T06:21:29.000Z</time>
      </trkpt>
      <trkpt lat="49.82985" lon="4.7939">
        <ele>232</ele>
        <time>2022-07-15T06:21:30.000Z</time>
      </trkpt>
      <trkpt lat="49.82984" lon="4.79388">
        <ele>231</ele>
        <time>2022-07-15T06:21:31.000Z</time>
      </trkpt>
      <trkpt lat="49.82982" lon="4.79386">
        <ele>231</ele>
        <time>2022-07-15T06:21:32.000Z</time>
      </trkpt>
      <trkpt lat="49.8298" lon="4.79384">
        <ele>231</ele>
        <time>2022-07-15T06:21:33.000Z</time>
      </trkpt>
      <trkpt lat="49.82979" lon="4.79382">
        <ele>230</ele>
        <time>2022-07-15T06:21:34.000Z</time>
      </trkpt>
      <trkpt lat="49.82977" lon="4.7938">
        <ele>230</ele>
        <time>2022-07-15T06:21:35.000Z</time>
      </trkpt>
      <trkpt lat="49.82975" lon="4.79378">
        <ele>230</ele>
        <time>2022-07-15T06:21:36.000Z</time>
      </trkpt>
      <trkpt lat="49.82974" lon="4.79377">
        <ele>230</ele>
        <time>2022-07-15T06:21:37.000Z</time>
      </trkpt>
      <trkpt lat="49.82972" lon="4.79375">
        <ele>229</ele>
        <time>2022-07-15T06:21:38.000Z</time>
      </trkpt>
      <trkpt lat="49.8297" lon="4.79373">
        <ele>229</ele>
        <time>2022-07-15T06:21:39.000Z</time>
      </trkpt>
      <trkpt lat="49.82968" lon="4.79371">
        <ele>229</ele>
        <time>2022-07-15T06:21:40.000Z</time>
      </trkpt>
      <trkpt lat="49.82966" lon="4.79369">
        <ele>229</ele>
        <time>2022-07-15T06:21:41.000Z</time>
      </trkpt>
      <trkpt lat="49.82965" lon="4.79367">
        <ele>229</ele>
        <time>2022-07-15T06:21:42.000Z</time>
      </trkpt>
      <trkpt lat="49.82963" lon="4.79366">
        <ele>228</ele>
        <time>2022-07-15T06:21:43.000Z</time>
      </trkpt>
      <trkpt lat="49.82961" lon="4.79364">
        <ele>228</ele>
        <time>2022-07-15T06:21:44.000Z</time>
      </trkpt>
      <trkpt lat="49.82959" lon="4.79362">
        <ele>228</ele>
        <time>2022-07-15T06:21:45.000Z</time>
      </trkpt>
      <trkpt lat="49.82957" lon="4.7936">
        <ele>228</ele>
        <time>2022-07-15T06:21:46.000Z</time>
      </trkpt>
      <trkpt lat="49.82955" lon="4.79358">
        <ele>228</ele>
        <time>2022-07-15T06:21:47.000Z</time>
      </trkpt>
      <trkpt lat="49.82954" lon="4.79355">
        <ele>228</ele>
        <time>2022-07-15T06:21:48.000Z</time>
      </trkpt>
      <trkpt lat="49.82952" lon="4.79353">
        <ele>228</ele>
        <time>2022-07-15T06:21:49.000Z</time>
      </trkpt>
      <trkpt lat="49.82951" lon="4.7935">
        <ele>228</ele>
        <time>2022-07-15T06:21:50.000Z</time>
      </trkpt>
      <trkpt lat="49.82949" lon="4.79348">
        <ele>228</ele>
        <time>2022-07-15T06:21:51.000Z</time>
      </trkpt>
      <trkpt lat="49.82948" lon="4.79345">
        <ele>228</ele>
        <time>2022-07-15T06:21:52.000Z</time>
      </trkpt>
      <trkpt lat="49.82947" lon="4.79343">
        <ele>228</ele>
        <time>2022-07-15T06:21:53.000Z</time>
      </trkpt>
      <trkpt lat="49.82946" lon="4.7934">
        <ele>228</ele>
        <time>2022-07-15T06:21:54.000Z</time>
      </trkpt>
      <trkpt lat="49.82945" lon="4.79338">
        <ele>228</ele>
        <time>2022-07-15T06:21:55.000Z</time>
      </trkpt>
      <trkpt lat="49.82943" lon="4.79335">
        <ele>228</ele>
        <time>2022-07-15T06:21:56.000Z</time>
      </trkpt>
      <trkpt lat="49.82942" lon="4.79332">
        <ele>228</ele>
        <time>2022-07-15T06:21:57.000Z</time>
      </trkpt>
      <trkpt lat="49.82942" lon="4.79329">
        <ele>228</ele>
        <time>2022-07-15T06:21:58.000Z</time>
      </trkpt>
      <trkpt lat="49.82941" lon="4.79325">
        <ele>228</ele>
        <time>2022-07-15T06:21:59.000Z</time>
      </trkpt>
      <trkpt lat="49.8294" lon="4.79322">
        <ele>229</ele>
        <time>2022-07-15T06:22:00.000Z</time>
      </trkpt>
      <trkpt lat="49.82939" lon="4.79319">
        <ele>229</ele>
        <time>2022-07-15T06:22:01.000Z</time>
      </trkpt>
      <trkpt lat="49.82939" lon="4.79316">
        <ele>229</ele>
        <time>2022-07-15T06:22:02.000Z</time>
      </trkpt>
      <trkpt lat="49.82938" lon="4.79313">
        <ele>229</ele>
        <time>2022-07-15T06:22:03.000Z</time>
      </trkpt>
      <trkpt lat="49.82938" lon="4.7931">
        <ele>229</ele>
        <time>2022-07-15T06:22:04.000Z</time>
      </trkpt>
      <trkpt lat="49.82937" lon="4.79306">
        <ele>229</ele>
        <time>2022-07-15T06:22:05.000Z</time>
      </trkpt>
      <trkpt lat="49.82937" lon="4.79303">
        <ele>229</ele>
        <time>2022-07-15T06:22:06.000Z</time>
      </trkpt>
      <trkpt lat="49.82936" lon="4.79301">
        <ele>230</ele>
        <time>2022-07-15T06:22:07.000Z</time>
      </trkpt>
      <trkpt lat="49.82936" lon="4.79298">
        <ele>230</ele>
        <time>2022-07-15T06:22:08.000Z</time>
      </trkpt>
      <trkpt lat="49.82936" lon="4.79295">
        <ele>230</ele>
        <time>2022-07-15T06:22:09.000Z</time>
      </trkpt>
      <trkpt lat="49.82936" lon="4.79291">
        <ele>230</ele>
        <time>2022-07-15T06:22:10.000Z</time>
      </trkpt>
      <trkpt lat="49.82936" lon="4.79288">
        <ele>230</ele>
        <time>2022-07-15T06:22:11.000Z</time>
      </trkpt>
      <trkpt lat="49.82936" lon="4.79285">
        <ele>230</ele>
        <time>2022-07-15T06:22:12.000Z</time>
      </trkpt>
      <trkpt lat="49.82936" lon="4.79282">
        <ele>230</ele>
        <time>2022-07-15T06:22:13.000Z</time>
      </trkpt>
      <trkpt lat="49.82937" lon="4.79279">
        <ele>231</ele>
        <time>2022-07-15T06:22:14.000Z</time>
      </trkpt>
      <trkpt lat="49.82937" lon="4.79276">
        <ele>231</ele>
        <time>2022-07-15T06:22:15.000Z</time>
      </trkpt>
      <trkpt lat="49.82938" lon="4.79272">
        <ele>231</ele>
        <time>2022-07-15T06:22:16.000Z</time>
      </trkpt>
      <trkpt lat="49.82939" lon="4.79269">
        <ele>231</ele>
        <time>2022-07-15T06:22:17.000Z</time>
      </trkpt>
      <trkpt lat="49.82939" lon="4.79265">
        <ele>231</ele>
        <time>2022-07-15T06:22:18.000Z</time>
      </trkpt>
      <trkpt lat="49.8294" lon="4.79261">
        <ele>231</ele>
        <time>2022-07-15T06:22:19.000Z</time>
      </trkpt>
      <trkpt lat="49.8294" lon="4.79257">
        <ele>231</ele>
        <time>2022-07-15T06:22:20.000Z</time>
      </trkpt>
      <trkpt lat="49.82941" lon="4.79253">
        <ele>231</ele>
        <time>2022-07-15T06:22:21.000Z</time>
      </trkpt>
      <trkpt lat="49.82942" lon="4.7925">
        <ele>231</ele>
        <time>2022-07-15T06:22:22.000Z</time>
      </trkpt>
      <trkpt lat="49.82943" lon="4.79246">
        <ele>231</ele>
        <time>2022-07-15T06:22:23.000Z</time>
      </trkpt>
      <trkpt lat="49.82944" lon="4.79242">
        <ele>231</ele>
        <time>2022-07-15T06:22:24.000Z</time>
      </trkpt>
      <trkpt lat="49.82945" lon="4.79239">
        <ele>232</ele>
        <time>2022-07-15T06:22:25.000Z</time>
      </trkpt>
      <trkpt lat="49.82947" lon="4.79236">
        <ele>232</ele>
        <time>2022-07-15T06:22:26.000Z</time>
      </trkpt>
      <trkpt lat="49.82948" lon="4.79233">
        <ele>232</ele>
        <time>2022-07-15T06:22:27.000Z</time>
      </trkpt>
      <trkpt lat="49.82949" lon="4.79229">
        <ele>232</ele>
        <time>2022-07-15T06:22:28.000Z</time>
      </trkpt>
      <trkpt lat="49.8295" lon="4.79226">
        <ele>232</ele>
        <time>2022-07-15T06:22:29.000Z</time>
      </trkpt>
      <trkpt lat="49.82951" lon="4.79223">
        <ele>232</ele>
        <time>2022-07-15T06:22:30.000Z</time>
      </trkpt>
      <trkpt lat="49.82951" lon="4.7922">
        <ele>232</ele>
        <time>2022-07-15T06:22:31.000Z</time>
      </trkpt>
      <trkpt lat="49.82952" lon="4.79217">
        <ele>232</ele>
        <time>2022-07-15T06:22:32.000Z</time>
      </trkpt>
      <trkpt lat="49.82953" lon="4.79214">
        <ele>232</ele>
        <time>2022-07-15T06:22:33.000Z</time>
      </trkpt>
      <trkpt lat="49.82954" lon="4.79211">
        <ele>232</ele>
        <time>2022-07-15T06:22:34.000Z</time>
      </trkpt>
      <trkpt lat="49.82954" lon="4.79208">
        <ele>232</ele>
        <time>2022-07-15T06:22:35.000Z</time>
      </trkpt>
      <trkpt lat="49.82955" lon="4.79205">
        <ele>232</ele>
        <time>2022-07-15T06:22:36.000Z</time>
      </trkpt>
      <trkpt lat="49.82956" lon="4.79202">
        <ele>233</ele>
        <time>2022-07-15T06:22:37.000Z</time>
      </trkpt>
      <trkpt lat="49.82957" lon="4.79199">
        <ele>233</ele>
        <time>2022-07-15T06:22:38.000Z</time>
      </trkpt>
      <trkpt lat="49.82957" lon="4.79195">
        <ele>233</ele>
        <time>2022-07-15T06:22:39.000Z</time>
      </trkpt>
      <trkpt lat="49.82958" lon="4.79191">
        <ele>233</ele>
        <time>2022-07-15T06:22:40.000Z</time>
      </trkpt>
      <trkpt lat="49.82958" lon="4.79188">
        <ele>233</ele>
        <time>2022-07-15T06:22:41.000Z</time>
      </trkpt>
      <trkpt lat="49.82958" lon="4.79184">
        <ele>233</ele>
        <time>2022-07-15T06:22:42.000Z</time>
      </trkpt>
      <trkpt lat="49.82958" lon="4.7918">
        <ele>233</ele>
        <time>2022-07-15T06:22:43.000Z</time>
      </trkpt>
      <trkpt lat="49.82958" lon="4.79177">
        <ele>233</ele>
        <time>2022-07-15T06:22:44.000Z</time>
      </trkpt>
      <trkpt lat="49.82958" lon="4.79174">
        <ele>234</ele>
        <time>2022-07-15T06:22:45.000Z</time>
      </trkpt>
      <trkpt lat="49.82957" lon="4.7917">
        <ele>234</ele>
        <time>2022-07-15T06:22:46.000Z</time>
      </trkpt>
      <trkpt lat="49.82957" lon="4.79167">
        <ele>234</ele>
        <time>2022-07-15T06:22:47.000Z</time>
      </trkpt>
      <trkpt lat="49.82956" lon="4.79164">
        <ele>235</ele>
        <time>2022-07-15T06:22:48.000Z</time>
      </trkpt>
      <trkpt lat="49.82955" lon="4.7916">
        <ele>235</ele>
        <time>2022-07-15T06:22:49.000Z</time>
      </trkpt>
      <trkpt lat="49.82955" lon="4.79157">
        <ele>235</ele>
        <time>2022-07-15T06:22:50.000Z</time>
      </trkpt>
      <trkpt lat="49.82954" lon="4.79154">
        <ele>236</ele>
        <time>2022-07-15T06:22:51.000Z</time>
      </trkpt>
      <trkpt lat="49.82953" lon="4.79151">
        <ele>236</ele>
        <time>2022-07-15T06:22:52.000Z</time>
      </trkpt>
      <trkpt lat="49.82951" lon="4.79148">
        <ele>237</ele>
        <time>2022-07-15T06:22:53.000Z</time>
      </trkpt>
      <trkpt lat="49.8295" lon="4.79146">
        <ele>237</ele>
        <time>2022-07-15T06:22:54.000Z</time>
      </trkpt>
      <trkpt lat="49.82949" lon="4.79143">
        <ele>238</ele>
        <time>2022-07-15T06:22:55.000Z</time>
      </trkpt>
      <trkpt lat="49.82948" lon="4.7914">
        <ele>238</ele>
        <time>2022-07-15T06:22:56.000Z</time>
      </trkpt>
      <trkpt lat="49.82947" lon="4.79137">
        <ele>239</ele>
        <time>2022-07-15T06:22:57.000Z</time>
      </trkpt>
      <trkpt lat="49.82945" lon="4.79134">
        <ele>239</ele>
        <time>2022-07-15T06:22:58.000Z</time>
      </trkpt>
      <trkpt lat="49.82943" lon="4.7913">
        <ele>240</ele>
        <time>2022-07-15T06:22:59.000Z</time>
      </trkpt>
      <trkpt lat="49.82941" lon="4.79127">
        <ele>240</ele>
        <time>2022-07-15T06:23:00.000Z</time>
      </trkpt>
      <trkpt lat="49.82939" lon="4.79123">
        <ele>240</ele>
        <time>2022-07-15T06:23:01.000Z</time>
      </trkpt>
      <trkpt lat="49.82937" lon="4.79119">
        <ele>241</ele>
        <time>2022-07-15T06:23:02.000Z</time>
      </trkpt>
      <trkpt lat="49.82936" lon="4.79115">
        <ele>241</ele>
        <time>2022-07-15T06:23:03.000Z</time>
      </trkpt>
      <trkpt lat="49.82934" lon="4.79111">
        <ele>242</ele>
        <time>2022-07-15T06:23:04.000Z</time>
      </trkpt>
      <trkpt lat="49.82932" lon="4.79107">
        <ele>242</ele>
        <time>2022-07-15T06:23:05.000Z</time>
      </trkpt>
      <trkpt lat="49.8293" lon="4.79103">
        <ele>242</ele>
        <time>2022-07-15T06:23:06.000Z</time>
      </trkpt>
      <trkpt lat="49.82928" lon="4.79099">
        <ele>242</ele>
        <time>2022-07-15T06:23:07.000Z</time>
      </trkpt>
      <trkpt lat="49.82926" lon="4.79096">
        <ele>243</ele>
        <time>2022-07-15T06:23:08.000Z</time>
      </trkpt>
      <trkpt lat="49.82924" lon="4.79092">
        <ele>243</ele>
        <time>2022-07-15T06:23:09.000Z</time>
      </trkpt>
      <trkpt lat="49.82922" lon="4.79089">
        <ele>243</ele>
        <time>2022-07-15T06:23:10.000Z</time>
      </trkpt>
      <trkpt lat="49.82919" lon="4.79086">
        <ele>244</ele>
        <time>2022-07-15T06:23:11.000Z</time>
      </trkpt>
      <trkpt lat="49.82917" lon="4.79083">
        <ele>244</ele>
        <time>2022-07-15T06:23:12.000Z</time>
      </trkpt>
      <trkpt lat="49.82915" lon="4.7908">
        <ele>244</ele>
        <time>2022-07-15T06:23:13.000Z</time>
      </trkpt>
      <trkpt lat="49.82912" lon="4.79076">
        <ele>245</ele>
        <time>2022-07-15T06:23:14.000Z</time>
      </trkpt>
      <trkpt lat="49.82909" lon="4.79073">
        <ele>245</ele>
        <time>2022-07-15T06:23:15.000Z</time>
      </trkpt>
      <trkpt lat="49.82906" lon="4.79071">
        <ele>245</ele>
        <time>2022-07-15T06:23:16.000Z</time>
      </trkpt>
      <trkpt lat="49.82904" lon="4.79068">
        <ele>245</ele>
        <time>2022-07-15T06:23:17.000Z</time>
      </trkpt>
      <trkpt lat="49.82901" lon="4.79066">
        <ele>246</ele>
        <time>2022-07-15T06:23:18.000Z</time>
      </trkpt>
      <trkpt lat="49.82897" lon="4.79064">
        <ele>246</ele>
        <time>2022-07-15T06:23:19.000Z</time>
      </trkpt>
      <trkpt lat="49.82895" lon="4.79061">
        <ele>246</ele>
        <time>2022-07-15T06:23:20.000Z</time>
      </trkpt>
      <trkpt lat="49.82892" lon="4.79059">
        <ele>247</ele>
        <time>2022-07-15T06:23:21.000Z</time>
      </trkpt>
      <trkpt lat="49.82889" lon="4.79056">
        <ele>247</ele>
        <time>2022-07-15T06:23:22.000Z</time>
      </trkpt>
      <trkpt lat="49.82887" lon="4.79053">
        <ele>247</ele>
        <time>2022-07-15T06:23:23.000Z</time>
      </trkpt>
      <trkpt lat="49.82884" lon="4.79051">
        <ele>248</ele>
        <time>2022-07-15T06:23:24.000Z</time>
      </trkpt>
      <trkpt lat="49.82881" lon="4.79048">
        <ele>248</ele>
        <time>2022-07-15T06:23:25.000Z</time>
      </trkpt>
      <trkpt lat="49.82878" lon="4.79046">
        <ele>248</ele>
        <time>2022-07-15T06:23:26.000Z</time>
      </trkpt>
      <trkpt lat="49.82876" lon="4.79043">
        <ele>249</ele>
        <time>2022-07-15T06:23:27.000Z</time>
      </trkpt>
      <trkpt lat="49.82874" lon="4.79041">
        <ele>249</ele>
        <time>2022-07-15T06:23:28.000Z</time>
      </trkpt>
      <trkpt lat="49.82871" lon="4.79038">
        <ele>249</ele>
        <time>2022-07-15T06:23:29.000Z</time>
      </trkpt>
      <trkpt lat="49.82869" lon="4.79035">
        <ele>249</ele>
        <time>2022-07-15T06:23:30.000Z</time>
      </trkpt>
      <trkpt lat="49.82867" lon="4.79032">
        <ele>249</ele>
        <time>2022-07-15T06:23:31.000Z</time>
      </trkpt>
      <trkpt lat="49.82865" lon="4.79029">
        <ele>249</ele>
        <time>2022-07-15T06:23:32.000Z</time>
      </trkpt>
      <trkpt lat="49.82864" lon="4.79026">
        <ele>249</ele>
        <time>2022-07-15T06:23:33.000Z</time>
      </trkpt>
      <trkpt lat="49.82862" lon="4.79023">
        <ele>249</ele>
        <time>2022-07-15T06:23:34.000Z</time>
      </trkpt>
      <trkpt lat="49.8286" lon="4.79021">
        <ele>249</ele>
        <time>2022-07-15T06:23:35.000Z</time>
      </trkpt>
      <trkpt lat="49.82858" lon="4.79019">
        <ele>249</ele>
        <time>2022-07-15T06:23:36.000Z</time>
      </trkpt>
      <trkpt lat="49.82857" lon="4.79016">
        <ele>249</ele>
        <time>2022-07-15T06:23:37.000Z</time>
      </trkpt>
      <trkpt lat="49.82855" lon="4.79014">
        <ele>250</ele>
        <time>2022-07-15T06:23:38.000Z</time>
      </trkpt>
      <trkpt lat="49.82854" lon="4.79011">
        <ele>250</ele>
        <time>2022-07-15T06:23:39.000Z</time>
      </trkpt>
      <trkpt lat="49.82852" lon="4.79008">
        <ele>250</ele>
        <time>2022-07-15T06:23:40.000Z</time>
      </trkpt>
      <trkpt lat="49.82851" lon="4.79005">
        <ele>250</ele>
        <time>2022-07-15T06:23:41.000Z</time>
      </trkpt>
      <trkpt lat="49.8285" lon="4.79002">
        <ele>250</ele>
        <time>2022-07-15T06:23:42.000Z</time>
      </trkpt>
      <trkpt lat="49.8285" lon="4.78999">
        <ele>250</ele>
        <time>2022-07-15T06:23:43.000Z</time>
      </trkpt>
      <trkpt lat="49.8285" lon="4.78995">
        <ele>250</ele>
        <time>2022-07-15T06:23:44.000Z</time>
      </trkpt>
      <trkpt lat="49.8285" lon="4.78992">
        <ele>250</ele>
        <time>2022-07-15T06:23:45.000Z</time>
      </trkpt>
      <trkpt lat="49.8285" lon="4.78989">
        <ele>251</ele>
        <time>2022-07-15T06:23:46.000Z</time>
      </trkpt>
      <trkpt lat="49.82851" lon="4.78986">
        <ele>251</ele>
        <time>2022-07-15T06:23:47.000Z</time>
      </trkpt>
      <trkpt lat="49.82851" lon="4.78983">
        <ele>251</ele>
        <time>2022-07-15T06:23:48.000Z</time>
      </trkpt>
      <trkpt lat="49.82852" lon="4.78981">
        <ele>251</ele>
        <time>2022-07-15T06:23:49.000Z</time>
      </trkpt>
      <trkpt lat="49.82854" lon="4.78978">
        <ele>251</ele>
        <time>2022-07-15T06:23:50.000Z</time>
      </trkpt>
      <trkpt lat="49.82855" lon="4.78975">
        <ele>252</ele>
        <time>2022-07-15T06:23:51.000Z</time>
      </trkpt>
      <trkpt lat="49.82856" lon="4.78973">
        <ele>252</ele>
        <time>2022-07-15T06:23:52.000Z</time>
      </trkpt>
      <trkpt lat="49.82858" lon="4.78972">
        <ele>252</ele>
        <time>2022-07-15T06:23:53.000Z</time>
      </trkpt>
      <trkpt lat="49.8286" lon="4.78971">
        <ele>252</ele>
        <time>2022-07-15T06:23:54.000Z</time>
      </trkpt>
      <trkpt lat="49.82861" lon="4.7897">
        <ele>252</ele>
        <time>2022-07-15T06:23:55.000Z</time>
      </trkpt>
      <trkpt lat="49.82863" lon="4.78969">
        <ele>253</ele>
        <time>2022-07-15T06:23:56.000Z</time>
      </trkpt>
      <trkpt lat="49.82865" lon="4.78969">
        <ele>253</ele>
        <time>2022-07-15T06:23:57.000Z</time>
      </trkpt>
      <trkpt lat="49.82867" lon="4.78969">
        <ele>253</ele>
        <time>2022-07-15T06:23:58.000Z</time>
      </trkpt>
      <trkpt lat="49.82869" lon="4.7897">
        <ele>253</ele>
        <time>2022-07-15T06:23:59.000Z</time>
      </trkpt>
      <trkpt lat="49.82871" lon="4.78971">
        <ele>254</ele>
        <time>2022-07-15T06:24:00.000Z</time>
      </trkpt>
      <trkpt lat="49.82873" lon="4.78972">
        <ele>254</ele>
        <time>2022-07-15T06:24:01.000Z</time>
      </trkpt>
      <trkpt lat="49.82875" lon="4.78974">
        <ele>254</ele>
        <time>2022-07-15T06:24:02.000Z</time>
      </trkpt>
      <trkpt lat="49.82877" lon="4.78976">
        <ele>254</ele>
        <time>2022-07-15T06:24:03.000Z</time>
      </trkpt>
      <trkpt lat="49.8288" lon="4.78978">
        <ele>254</ele>
        <time>2022-07-15T06:24:04.000Z</time>
      </trkpt>
      <trkpt lat="49.82882" lon="4.7898">
        <ele>255</ele>
        <time>2022-07-15T06:24:05.000Z</time>
      </trkpt>
      <trkpt lat="49.82884" lon="4.78983">
        <ele>255</ele>
        <time>2022-07-15T06:24:06.000Z</time>
      </trkpt>
      <trkpt lat="49.82886" lon="4.78985">
        <ele>255</ele>
        <time>2022-07-15T06:24:07.000Z</time>
      </trkpt>
      <trkpt lat="49.82888" lon="4.78987">
        <ele>255</ele>
        <time>2022-07-15T06:24:08.000Z</time>
      </trkpt>
      <trkpt lat="49.8289" lon="4.78989">
        <ele>255</ele>
        <time>2022-07-15T06:24:09.000Z</time>
      </trkpt>
      <trkpt lat="49.82893" lon="4.78991">
        <ele>255</ele>
        <time>2022-07-15T06:24:10.000Z</time>
      </trkpt>
      <trkpt lat="49.82895" lon="4.78994">
        <ele>256</ele>
        <time>2022-07-15T06:24:11.000Z</time>
      </trkpt>
      <trkpt lat="49.82897" lon="4.78996">
        <ele>256</ele>
        <time>2022-07-15T06:24:12.000Z</time>
      </trkpt>
      <trkpt lat="49.829" lon="4.78998">
        <ele>255</ele>
        <time>2022-07-15T06:24:13.000Z</time>
      </trkpt>
      <trkpt lat="49.82902" lon="4.79">
        <ele>255</ele>
        <time>2022-07-15T06:24:14.000Z</time>
      </trkpt>
      <trkpt lat="49.82904" lon="4.79002">
        <ele>255</ele>
        <time>2022-07-15T06:24:15.000Z</time>
      </trkpt>
      <trkpt lat="49.82906" lon="4.79005">
        <ele>255</ele>
        <time>2022-07-15T06:24:16.000Z</time>
      </trkpt>
      <trkpt lat="49.82909" lon="4.79007">
        <ele>255</ele>
        <time>2022-07-15T06:24:17.000Z</time>
      </trkpt>
      <trkpt lat="49.8291" lon="4.79009">
        <ele>255</ele>
        <time>2022-07-15T06:24:18.000Z</time>
      </trkpt>
      <trkpt lat="49.82912" lon="4.79012">
        <ele>255</ele>
        <time>2022-07-15T06:24:19.000Z</time>
      </trkpt>
      <trkpt lat="49.82914" lon="4.79014">
        <ele>255</ele>
        <time>2022-07-15T06:24:20.000Z</time>
      </trkpt>
      <trkpt lat="49.82916" lon="4.79016">
        <ele>254</ele>
        <time>2022-07-15T06:24:21.000Z</time>
      </trkpt>
      <trkpt lat="49.82919" lon="4.79018">
        <ele>254</ele>
        <time>2022-07-15T06:24:22.000Z</time>
      </trkpt>
      <trkpt lat="49.82921" lon="4.7902">
        <ele>254</ele>
        <time>2022-07-15T06:24:23.000Z</time>
      </trkpt>
      <trkpt lat="49.82924" lon="4.79023">
        <ele>254</ele>
        <time>2022-07-15T06:24:24.000Z</time>
      </trkpt>
      <trkpt lat="49.82926" lon="4.79025">
        <ele>254</ele>
        <time>2022-07-15T06:24:25.000Z</time>
      </trkpt>
      <trkpt lat="49.82928" lon="4.79028">
        <ele>254</ele>
        <time>2022-07-15T06:24:26.000Z</time>
      </trkpt>
      <trkpt lat="49.8293" lon="4.7903">
        <ele>254</ele>
        <time>2022-07-15T06:24:27.000Z</time>
      </trkpt>
      <trkpt lat="49.82933" lon="4.79033">
        <ele>254</ele>
        <time>2022-07-15T06:24:28.000Z</time>
      </trkpt>
      <trkpt lat="49.82936" lon="4.79035">
        <ele>254</ele>
        <time>2022-07-15T06:24:29.000Z</time>
      </trkpt>
      <trkpt lat="49.82938" lon="4.79038">
        <ele>255</ele>
        <time>2022-07-15T06:24:30.000Z</time>
      </trkpt>
      <trkpt lat="49.82941" lon="4.7904">
        <ele>255</ele>
        <time>2022-07-15T06:24:31.000Z</time>
      </trkpt>
      <trkpt lat="49.82943" lon="4.79043">
        <ele>255</ele>
        <time>2022-07-15T06:24:32.000Z</time>
      </trkpt>
      <trkpt lat="49.82946" lon="4.79045">
        <ele>255</ele>
        <time>2022-07-15T06:24:33.000Z</time>
      </trkpt>
      <trkpt lat="49.82948" lon="4.79048">
        <ele>256</ele>
        <time>2022-07-15T06:24:34.000Z</time>
      </trkpt>
      <trkpt lat="49.82951" lon="4.7905">
        <ele>256</ele>
        <time>2022-07-15T06:24:35.000Z</time>
      </trkpt>
      <trkpt lat="49.82953" lon="4.79052">
        <ele>257</ele>
        <time>2022-07-15T06:24:36.000Z</time>
      </trkpt>
      <trkpt lat="49.82955" lon="4.79055">
        <ele>257</ele>
        <time>2022-07-15T06:24:37.000Z</time>
      </trkpt>
      <trkpt lat="49.82957" lon="4.79057">
        <ele>257</ele>
        <time>2022-07-15T06:24:38.000Z</time>
      </trkpt>
      <trkpt lat="49.8296" lon="4.7906">
        <ele>258</ele>
        <time>2022-07-15T06:24:39.000Z</time>
      </trkpt>
      <trkpt lat="49.82962" lon="4.79062">
        <ele>258</ele>
        <time>2022-07-15T06:24:40.000Z</time>
      </trkpt>
      <trkpt lat="49.82964" lon="4.79064">
        <ele>259</ele>
        <time>2022-07-15T06:24:41.000Z</time>
      </trkpt>
      <trkpt lat="49.82967" lon="4.79066">
        <ele>259</ele>
        <time>2022-07-15T06:24:42.000Z</time>
      </trkpt>
      <trkpt lat="49.82969" lon="4.79069">
        <ele>259</ele>
        <time>2022-07-15T06:24:43.000Z</time>
      </trkpt>
      <trkpt lat="49.82972" lon="4.79071">
        <ele>260</ele>
        <time>2022-07-15T06:24:44.000Z</time>
      </trkpt>
      <trkpt lat="49.82974" lon="4.79073">
        <ele>260</ele>
        <time>2022-07-15T06:24:45.000Z</time>
      </trkpt>
      <trkpt lat="49.82976" lon="4.79075">
        <ele>260</ele>
        <time>2022-07-15T06:24:46.000Z</time>
      </trkpt>
      <trkpt lat="49.82978" lon="4.79078">
        <ele>261</ele>
        <time>2022-07-15T06:24:47.000Z</time>
      </trkpt>
      <trkpt lat="49.8298" lon="4.7908">
        <ele>261</ele>
        <time>2022-07-15T06:24:48.000Z</time>
      </trkpt>
      <trkpt lat="49.82983" lon="4.79082">
        <ele>262</ele>
        <time>2022-07-15T06:24:49.000Z</time>
      </trkpt>
      <trkpt lat="49.82985" lon="4.79084">
        <ele>262</ele>
        <time>2022-07-15T06:24:50.000Z</time>
      </trkpt>
      <trkpt lat="49.82987" lon="4.79086">
        <ele>262</ele>
        <time>2022-07-15T06:24:51.000Z</time>
      </trkpt>
      <trkpt lat="49.82989" lon="4.79088">
        <ele>263</ele>
        <time>2022-07-15T06:24:52.000Z</time>
      </trkpt>
      <trkpt lat="49.82991" lon="4.7909">
        <ele>263</ele>
        <time>2022-07-15T06:24:53.000Z</time>
      </trkpt>
      <trkpt lat="49.82994" lon="4.79092">
        <ele>264</ele>
        <time>2022-07-15T06:24:54.000Z</time>
      </trkpt>
      <trkpt lat="49.82996" lon="4.79093">
        <ele>264</ele>
        <time>2022-07-15T06:24:55.000Z</time>
      </trkpt>
      <trkpt lat="49.82998" lon="4.79095">
        <ele>265</ele>
        <time>2022-07-15T06:24:56.000Z</time>
      </trkpt>
      <trkpt lat="49.83" lon="4.79097">
        <ele>265</ele>
        <time>2022-07-15T06:24:57.000Z</time>
      </trkpt>
      <trkpt lat="49.83003" lon="4.79099">
        <ele>265</ele>
        <time>2022-07-15T06:24:58.000Z</time>
      </trkpt>
      <trkpt lat="49.83005" lon="4.791">
        <ele>266</ele>
        <time>2022-07-15T06:24:59.000Z</time>
      </trkpt>
      <trkpt lat="49.83007" lon="4.79101">
        <ele>266</ele>
        <time>2022-07-15T06:25:00.000Z</time>
      </trkpt>
      <trkpt lat="49.83009" lon="4.79102">
        <ele>267</ele>
        <time>2022-07-15T06:25:01.000Z</time>
      </trkpt>
      <trkpt lat="49.83011" lon="4.79101">
        <ele>267</ele>
        <time>2022-07-15T06:25:02.000Z</time>
      </trkpt>
      <trkpt lat="49.83013" lon="4.79102">
        <ele>267</ele>
        <time>2022-07-15T06:25:03.000Z</time>
      </trkpt>
      <trkpt lat="49.83016" lon="4.79103">
        <ele>268</ele>
        <time>2022-07-15T06:25:04.000Z</time>
      </trkpt>
      <trkpt lat="49.83018" lon="4.79104">
        <ele>268</ele>
        <time>2022-07-15T06:25:05.000Z</time>
      </trkpt>
      <trkpt lat="49.83021" lon="4.79104">
        <ele>269</ele>
        <time>2022-07-15T06:25:06.000Z</time>
      </trkpt>
      <trkpt lat="49.83023" lon="4.79105">
        <ele>269</ele>
        <time>2022-07-15T06:25:07.000Z</time>
      </trkpt>
      <trkpt lat="49.83026" lon="4.79105">
        <ele>269</ele>
        <time>2022-07-15T06:25:08.000Z</time>
      </trkpt>
      <trkpt lat="49.83028" lon="4.79106">
        <ele>270</ele>
        <time>2022-07-15T06:25:09.000Z</time>
      </trkpt>
      <trkpt lat="49.83031" lon="4.79108">
        <ele>270</ele>
        <time>2022-07-15T06:25:10.000Z</time>
      </trkpt>
      <trkpt lat="49.83033" lon="4.79109">
        <ele>271</ele>
        <time>2022-07-15T06:25:11.000Z</time>
      </trkpt>
      <trkpt lat="49.83035" lon="4.7911">
        <ele>271</ele>
        <time>2022-07-15T06:25:12.000Z</time>
      </trkpt>
      <trkpt lat="49.83035" lon="4.79111">
        <ele>272</ele>
        <time>2022-07-15T06:25:13.000Z</time>
      </trkpt>
      <trkpt lat="49.83035" lon="4.79112">
        <ele>272</ele>
        <time>2022-07-15T06:25:14.000Z</time>
      </trkpt>
      <trkpt lat="49.83035" lon="4.79112">
        <ele>273</ele>
        <time>2022-07-15T06:25:15.000Z</time>
      </trkpt>
      <trkpt lat="49.83035" lon="4.79112">
        <ele>273</ele>
        <time>2022-07-15T06:25:16.000Z</time>
      </trkpt>
      <trkpt lat="49.83035" lon="4.79112">
        <ele>273</ele>
        <time>2022-07-15T06:25:17.000Z</time>
      </trkpt>
      <trkpt lat="49.83035" lon="4.79112">
        <ele>273</ele>
        <time>2022-07-15T06:25:18.000Z</time>
      </trkpt>
      <trkpt lat="49.83035" lon="4.79112">
        <ele>274</ele>
        <time>2022-07-15T06:25:19.000Z</time>
      </trkpt>
      <trkpt lat="49.83035" lon="4.79112">
        <ele>274</ele>
        <time>2022-07-15T06:25:20.000Z</time>
      </trkpt>
      <trkpt lat="49.83036" lon="4.79112">
        <ele>274</ele>
        <time>2022-07-15T06:25:21.000Z</time>
      </trkpt>
      <trkpt lat="49.83036" lon="4.79112">
        <ele>274</ele>
        <time>2022-07-15T06:25:22.000Z</time>
      </trkpt>
      <trkpt lat="49.83036" lon="4.79112">
        <ele>274</ele>
        <time>2022-07-15T06:25:23.000Z</time>
      </trkpt>
      <trkpt lat="49.83036" lon="4.79112">
        <ele>275</ele>
        <time>2022-07-15T06:25:24.000Z</time>
      </trkpt>
      <trkpt lat="49.83036" lon="4.79112">
        <ele>275</ele>
        <time>2022-07-15T06:25:25.000Z</time>
      </trkpt>
      <trkpt lat="49.83036" lon="4.79112">
        <ele>275</ele>
        <time>2022-07-15T06:25:26.000Z</time>
      </trkpt>
      <trkpt lat="49.83036" lon="4.79112">
        <ele>275</ele>
        <time>2022-07-15T06:25:27.000Z</time>
      </trkpt>
      <trkpt lat="49.83036" lon="4.79112">
        <ele>275</ele>
        <time>2022-07-15T06:25:28.000Z</time>
      </trkpt>
      <trkpt lat="49.83036" lon="4.79112">
        <ele>275</ele>
        <time>2022-07-15T06:25:29.000Z</time>
      </trkpt>
      <trkpt lat="49.83036" lon="4.79112">
        <ele>275</ele>
        <time>2022-07-15T06:25:30.000Z</time>
      </trkpt>
      <trkpt lat="49.83036" lon="4.79112">
        <ele>275</ele>
        <time>2022-07-15T06:25:31.000Z</time>
      </trkpt>
      <trkpt lat="49.83036" lon="4.79112">
        <ele>275</ele>
        <time>2022-07-15T06:25:32.000Z</time>
      </trkpt>
      <trkpt lat="49.83036" lon="4.79112">
        <ele>276</ele>
        <time>2022-07-15T06:25:33.000Z</time>
      </trkpt>
      <trkpt lat="49.83036" lon="4.79112">
        <ele>276</ele>
        <time>2022-07-15T06:25:34.000Z</time>
      </trkpt>
      <trkpt lat="49.83036" lon="4.79112">
        <ele>276</ele>
        <time>2022-07-15T06:25:35.000Z</time>
      </trkpt>
      <trkpt lat="49.83036" lon="4.79112">
        <ele>276</ele>
        <time>2022-07-15T06:25:36.000Z</time>
      </trkpt>
      <trkpt lat="49.83036" lon="4.79112">
        <ele>276</ele>
        <time>2022-07-15T06:25:37.000Z</time>
      </trkpt>
      <trkpt lat="49.83036" lon="4.79112">
        <ele>276</ele>
        <time>2022-07-15T06:25:38.000Z</time>
      </trkpt>
      <trkpt lat="49.83036" lon="4.79112">
        <ele>276</ele>
        <time>2022-07-15T06:25:39.000Z</time>
      </trkpt>
      <trkpt lat="49.83036" lon="4.79112">
        <ele>276</ele>
        <time>2022-07-15T06:25:40.000Z</time>
      </trkpt>
      <trkpt lat="49.83036" lon="4.79112">
        <ele>276</ele>
        <time>2022-07-15T06:25:41.000Z</time>
      </trkpt>
      <trkpt lat="49.83036" lon="4.79112">
        <ele>276</ele>
        <time>2022-07-15T06:25:42.000Z</time>
      </trkpt>
      <trkpt lat="49.83036" lon="4.79112">
        <ele>276</ele>
        <time>2022-07-15T06:25:43.000Z</time>
      </trkpt>
      <trkpt lat="49.83036" lon="4.79112">
        <ele>276</ele>
        <time>2022-07-15T06:25:44.000Z</time>
      </trkpt>
      <trkpt lat="49.83036" lon="4.79112">
        <ele>276</ele>
        <time>2022-07-15T06:25:45.000Z</time>
      </trkpt>
      <trkpt lat="49.83036" lon="4.79112">
        <ele>277</ele>
        <time>2022-07-15T06:25:46.000Z</time>
      </trkpt>
      <trkpt lat="49.83037" lon="4.79113">
        <ele>277</ele>
        <time>2022-07-15T06:25:47.000Z</time>
      </trkpt>
      <trkpt lat="49.83038" lon="4.79115">
        <ele>277</ele>
        <time>2022-07-15T06:25:48.000Z</time>
      </trkpt>
      <trkpt lat="49.8304" lon="4.79117">
        <ele>277</ele>
        <time>2022-07-15T06:25:49.000Z</time>
      </trkpt>
      <trkpt lat="49.83041" lon="4.7912">
        <ele>277</ele>
        <time>2022-07-15T06:25:50.000Z</time>
      </trkpt>
      <trkpt lat="49.83044" lon="4.79123">
        <ele>277</ele>
        <time>2022-07-15T06:25:51.000Z</time>
      </trkpt>
      <trkpt lat="49.83046" lon="4.79125">
        <ele>277</ele>
        <time>2022-07-15T06:25:52.000Z</time>
      </trkpt>
      <trkpt lat="49.83047" lon="4.79128">
        <ele>277</ele>
        <time>2022-07-15T06:25:53.000Z</time>
      </trkpt>
      <trkpt lat="49.83049" lon="4.79131">
        <ele>277</ele>
        <time>2022-07-15T06:25:54.000Z</time>
      </trkpt>
      <trkpt lat="49.8305" lon="4.79135">
        <ele>277</ele>
        <time>2022-07-15T06:25:55.000Z</time>
      </trkpt>
      <trkpt lat="49.83052" lon="4.79139">
        <ele>277</ele>
        <time>2022-07-15T06:25:56.000Z</time>
      </trkpt>
      <trkpt lat="49.83054" lon="4.79142">
        <ele>277</ele>
        <time>2022-07-15T06:25:57.000Z</time>
      </trkpt>
      <trkpt lat="49.83056" lon="4.79146">
        <ele>277</ele>
        <time>2022-07-15T06:25:58.000Z</time>
      </trkpt>
      <trkpt lat="49.83057" lon="4.7915">
        <ele>277</ele>
        <time>2022-07-15T06:25:59.000Z</time>
      </trkpt>
      <trkpt lat="49.83059" lon="4.79154">
        <ele>277</ele>
        <time>2022-07-15T06:26:00.000Z</time>
      </trkpt>
      <trkpt lat="49.8306" lon="4.79158">
        <ele>277</ele>
        <time>2022-07-15T06:26:01.000Z</time>
      </trkpt>
      <trkpt lat="49.83061" lon="4.79163">
        <ele>277</ele>
        <time>2022-07-15T06:26:02.000Z</time>
      </trkpt>
      <trkpt lat="49.83063" lon="4.79167">
        <ele>277</ele>
        <time>2022-07-15T06:26:03.000Z</time>
      </trkpt>
      <trkpt lat="49.83064" lon="4.79171">
        <ele>277</ele>
        <time>2022-07-15T06:26:04.000Z</time>
      </trkpt>
      <trkpt lat="49.83065" lon="4.79175">
        <ele>277</ele>
        <time>2022-07-15T06:26:05.000Z</time>
      </trkpt>
      <trkpt lat="49.83066" lon="4.79178">
        <ele>278</ele>
        <time>2022-07-15T06:26:06.000Z</time>
      </trkpt>
      <trkpt lat="49.83067" lon="4.79182">
        <ele>278</ele>
        <time>2022-07-15T06:26:07.000Z</time>
      </trkpt>
      <trkpt lat="49.83069" lon="4.79186">
        <ele>278</ele>
        <time>2022-07-15T06:26:08.000Z</time>
      </trkpt>
      <trkpt lat="49.8307" lon="4.7919">
        <ele>278</ele>
        <time>2022-07-15T06:26:09.000Z</time>
      </trkpt>
      <trkpt lat="49.83071" lon="4.79193">
        <ele>278</ele>
        <time>2022-07-15T06:26:10.000Z</time>
      </trkpt>
      <trkpt lat="49.83073" lon="4.79197">
        <ele>278</ele>
        <time>2022-07-15T06:26:11.000Z</time>
      </trkpt>
      <trkpt lat="49.83075" lon="4.792">
        <ele>279</ele>
        <time>2022-07-15T06:26:12.000Z</time>
      </trkpt>
      <trkpt lat="49.83077" lon="4.79203">
        <ele>279</ele>
        <time>2022-07-15T06:26:13.000Z</time>
      </trkpt>
      <trkpt lat="49.83079" lon="4.79206">
        <ele>279</ele>
        <time>2022-07-15T06:26:14.000Z</time>
      </trkpt>
      <trkpt lat="49.8308" lon="4.79208">
        <ele>279</ele>
        <time>2022-07-15T06:26:15.000Z</time>
      </trkpt>
      <trkpt lat="49.83083" lon="4.7921">
        <ele>279</ele>
        <time>2022-07-15T06:26:16.000Z</time>
      </trkpt>
      <trkpt lat="49.83085" lon="4.79211">
        <ele>280</ele>
        <time>2022-07-15T06:26:17.000Z</time>
      </trkpt>
      <trkpt lat="49.83087" lon="4.79212">
        <ele>280</ele>
        <time>2022-07-15T06:26:18.000Z</time>
      </trkpt>
      <trkpt lat="49.8309" lon="4.79212">
        <ele>280</ele>
        <time>2022-07-15T06:26:19.000Z</time>
      </trkpt>
      <trkpt lat="49.83093" lon="4.79211">
        <ele>280</ele>
        <time>2022-07-15T06:26:20.000Z</time>
      </trkpt>
      <trkpt lat="49.83096" lon="4.79211">
        <ele>280</ele>
        <time>2022-07-15T06:26:21.000Z</time>
      </trkpt>
      <trkpt lat="49.83099" lon="4.7921">
        <ele>280</ele>
        <time>2022-07-15T06:26:22.000Z</time>
      </trkpt>
      <trkpt lat="49.83102" lon="4.79209">
        <ele>281</ele>
        <time>2022-07-15T06:26:23.000Z</time>
      </trkpt>
      <trkpt lat="49.83105" lon="4.79208">
        <ele>281</ele>
        <time>2022-07-15T06:26:24.000Z</time>
      </trkpt>
      <trkpt lat="49.83108" lon="4.79208">
        <ele>281</ele>
        <time>2022-07-15T06:26:25.000Z</time>
      </trkpt>
      <trkpt lat="49.83112" lon="4.79208">
        <ele>281</ele>
        <time>2022-07-15T06:26:26.000Z</time>
      </trkpt>
      <trkpt lat="49.83115" lon="4.79208">
        <ele>281</ele>
        <time>2022-07-15T06:26:27.000Z</time>
      </trkpt>
      <trkpt lat="49.83118" lon="4.79209">
        <ele>282</ele>
        <time>2022-07-15T06:26:28.000Z</time>
      </trkpt>
      <trkpt lat="49.83121" lon="4.7921">
        <ele>282</ele>
        <time>2022-07-15T06:26:29.000Z</time>
      </trkpt>
      <trkpt lat="49.83124" lon="4.7921">
        <ele>282</ele>
        <time>2022-07-15T06:26:30.000Z</time>
      </trkpt>
      <trkpt lat="49.83127" lon="4.79211">
        <ele>282</ele>
        <time>2022-07-15T06:26:31.000Z</time>
      </trkpt>
      <trkpt lat="49.83129" lon="4.79212">
        <ele>282</ele>
        <time>2022-07-15T06:26:32.000Z</time>
      </trkpt>
      <trkpt lat="49.83131" lon="4.79214">
        <ele>282</ele>
        <time>2022-07-15T06:26:33.000Z</time>
      </trkpt>
      <trkpt lat="49.83134" lon="4.79215">
        <ele>283</ele>
        <time>2022-07-15T06:26:34.000Z</time>
      </trkpt>
      <trkpt lat="49.83137" lon="4.79217">
        <ele>283</ele>
        <time>2022-07-15T06:26:35.000Z</time>
      </trkpt>
      <trkpt lat="49.83139" lon="4.79218">
        <ele>283</ele>
        <time>2022-07-15T06:26:36.000Z</time>
      </trkpt>
      <trkpt lat="49.83142" lon="4.79219">
        <ele>283</ele>
        <time>2022-07-15T06:26:37.000Z</time>
      </trkpt>
      <trkpt lat="49.83145" lon="4.79219">
        <ele>283</ele>
        <time>2022-07-15T06:26:38.000Z</time>
      </trkpt>
      <trkpt lat="49.83147" lon="4.7922">
        <ele>283</ele>
        <time>2022-07-15T06:26:39.000Z</time>
      </trkpt>
      <trkpt lat="49.8315" lon="4.7922">
        <ele>283</ele>
        <time>2022-07-15T06:26:40.000Z</time>
      </trkpt>
      <trkpt lat="49.83152" lon="4.79221">
        <ele>284</ele>
        <time>2022-07-15T06:26:41.000Z</time>
      </trkpt>
      <trkpt lat="49.83154" lon="4.79221">
        <ele>284</ele>
        <time>2022-07-15T06:26:42.000Z</time>
      </trkpt>
      <trkpt lat="49.83157" lon="4.79222">
        <ele>284</ele>
        <time>2022-07-15T06:26:43.000Z</time>
      </trkpt>
      <trkpt lat="49.83159" lon="4.79222">
        <ele>284</ele>
        <time>2022-07-15T06:26:44.000Z</time>
      </trkpt>
      <trkpt lat="49.83161" lon="4.79222">
        <ele>284</ele>
        <time>2022-07-15T06:26:45.000Z</time>
      </trkpt>
      <trkpt lat="49.83164" lon="4.79222">
        <ele>284</ele>
        <time>2022-07-15T06:26:46.000Z</time>
      </trkpt>
      <trkpt lat="49.83166" lon="4.79221">
        <ele>284</ele>
        <time>2022-07-15T06:26:47.000Z</time>
      </trkpt>
      <trkpt lat="49.83168" lon="4.7922">
        <ele>284</ele>
        <time>2022-07-15T06:26:48.000Z</time>
      </trkpt>
      <trkpt lat="49.83171" lon="4.79219">
        <ele>284</ele>
        <time>2022-07-15T06:26:49.000Z</time>
      </trkpt>
      <trkpt lat="49.83173" lon="4.79218">
        <ele>284</ele>
        <time>2022-07-15T06:26:50.000Z</time>
      </trkpt>
      <trkpt lat="49.83175" lon="4.79218">
        <ele>284</ele>
        <time>2022-07-15T06:26:51.000Z</time>
      </trkpt>
      <trkpt lat="49.83178" lon="4.79216">
        <ele>285</ele>
        <time>2022-07-15T06:26:52.000Z</time>
      </trkpt>
      <trkpt lat="49.83179" lon="4.79214">
        <ele>285</ele>
        <time>2022-07-15T06:26:53.000Z</time>
      </trkpt>
      <trkpt lat="49.83181" lon="4.79212">
        <ele>285</ele>
        <time>2022-07-15T06:26:54.000Z</time>
      </trkpt>
      <trkpt lat="49.83184" lon="4.7921">
        <ele>285</ele>
        <time>2022-07-15T06:26:55.000Z</time>
      </trkpt>
      <trkpt lat="49.83186" lon="4.79209">
        <ele>285</ele>
        <time>2022-07-15T06:26:56.000Z</time>
      </trkpt>
      <trkpt lat="49.83188" lon="4.79206">
        <ele>286</ele>
        <time>2022-07-15T06:26:57.000Z</time>
      </trkpt>
      <trkpt lat="49.8319" lon="4.79204">
        <ele>286</ele>
        <time>2022-07-15T06:26:58.000Z</time>
      </trkpt>
      <trkpt lat="49.83192" lon="4.79201">
        <ele>286</ele>
        <time>2022-07-15T06:26:59.000Z</time>
      </trkpt>
      <trkpt lat="49.83194" lon="4.79198">
        <ele>286</ele>
        <time>2022-07-15T06:27:00.000Z</time>
      </trkpt>
      <trkpt lat="49.83196" lon="4.79194">
        <ele>287</ele>
        <time>2022-07-15T06:27:01.000Z</time>
      </trkpt>
      <trkpt lat="49.83197" lon="4.79191">
        <ele>287</ele>
        <time>2022-07-15T06:27:02.000Z</time>
      </trkpt>
      <trkpt lat="49.83198" lon="4.79188">
        <ele>287</ele>
        <time>2022-07-15T06:27:03.000Z</time>
      </trkpt>
      <trkpt lat="49.83199" lon="4.79185">
        <ele>287</ele>
        <time>2022-07-15T06:27:04.000Z</time>
      </trkpt>
      <trkpt lat="49.832" lon="4.79181">
        <ele>288</ele>
        <time>2022-07-15T06:27:05.000Z</time>
      </trkpt>
      <trkpt lat="49.83201" lon="4.79177">
        <ele>288</ele>
        <time>2022-07-15T06:27:06.000Z</time>
      </trkpt>
      <trkpt lat="49.83202" lon="4.79174">
        <ele>288</ele>
        <time>2022-07-15T06:27:07.000Z</time>
      </trkpt>
      <trkpt lat="49.83204" lon="4.79171">
        <ele>288</ele>
        <time>2022-07-15T06:27:08.000Z</time>
      </trkpt>
      <trkpt lat="49.83205" lon="4.79168">
        <ele>288</ele>
        <time>2022-07-15T06:27:09.000Z</time>
      </trkpt>
      <trkpt lat="49.83207" lon="4.79164">
        <ele>289</ele>
        <time>2022-07-15T06:27:10.000Z</time>
      </trkpt>
      <trkpt lat="49.83208" lon="4.79161">
        <ele>289</ele>
        <time>2022-07-15T06:27:11.000Z</time>
      </trkpt>
      <trkpt lat="49.83209" lon="4.79158">
        <ele>289</ele>
        <time>2022-07-15T06:27:12.000Z</time>
      </trkpt>
      <trkpt lat="49.8321" lon="4.79155">
        <ele>289</ele>
        <time>2022-07-15T06:27:13.000Z</time>
      </trkpt>
      <trkpt lat="49.83211" lon="4.79152">
        <ele>289</ele>
        <time>2022-07-15T06:27:14.000Z</time>
      </trkpt>
      <trkpt lat="49.83212" lon="4.79148">
        <ele>290</ele>
        <time>2022-07-15T06:27:15.000Z</time>
      </trkpt>
      <trkpt lat="49.83213" lon="4.79144">
        <ele>290</ele>
        <time>2022-07-15T06:27:16.000Z</time>
      </trkpt>
      <trkpt lat="49.83214" lon="4.7914">
        <ele>290</ele>
        <time>2022-07-15T06:27:17.000Z</time>
      </trkpt>
      <trkpt lat="49.83216" lon="4.79136">
        <ele>290</ele>
        <time>2022-07-15T06:27:18.000Z</time>
      </trkpt>
      <trkpt lat="49.83217" lon="4.79132">
        <ele>290</ele>
        <time>2022-07-15T06:27:19.000Z</time>
      </trkpt>
      <trkpt lat="49.83219" lon="4.79128">
        <ele>290</ele>
        <time>2022-07-15T06:27:20.000Z</time>
      </trkpt>
      <trkpt lat="49.8322" lon="4.79124">
        <ele>291</ele>
        <time>2022-07-15T06:27:21.000Z</time>
      </trkpt>
      <trkpt lat="49.83222" lon="4.7912">
        <ele>291</ele>
        <time>2022-07-15T06:27:22.000Z</time>
      </trkpt>
      <trkpt lat="49.83224" lon="4.79116">
        <ele>291</ele>
        <time>2022-07-15T06:27:23.000Z</time>
      </trkpt>
      <trkpt lat="49.83226" lon="4.79113">
        <ele>291</ele>
        <time>2022-07-15T06:27:24.000Z</time>
      </trkpt>
      <trkpt lat="49.83228" lon="4.79111">
        <ele>291</ele>
        <time>2022-07-15T06:27:25.000Z</time>
      </trkpt>
      <trkpt lat="49.83229" lon="4.79108">
        <ele>291</ele>
        <time>2022-07-15T06:27:26.000Z</time>
      </trkpt>
      <trkpt lat="49.83231" lon="4.79105">
        <ele>291</ele>
        <time>2022-07-15T06:27:27.000Z</time>
      </trkpt>
      <trkpt lat="49.83233" lon="4.79102">
        <ele>291</ele>
        <time>2022-07-15T06:27:28.000Z</time>
      </trkpt>
      <trkpt lat="49.83235" lon="4.79099">
        <ele>291</ele>
        <time>2022-07-15T06:27:29.000Z</time>
      </trkpt>
      <trkpt lat="49.83237" lon="4.79096">
        <ele>291</ele>
        <time>2022-07-15T06:27:30.000Z</time>
      </trkpt>
      <trkpt lat="49.8324" lon="4.79094">
        <ele>292</ele>
        <time>2022-07-15T06:27:31.000Z</time>
      </trkpt>
      <trkpt lat="49.83242" lon="4.79091">
        <ele>292</ele>
        <time>2022-07-15T06:27:32.000Z</time>
      </trkpt>
      <trkpt lat="49.83245" lon="4.79089">
        <ele>292</ele>
        <time>2022-07-15T06:27:33.000Z</time>
      </trkpt>
      <trkpt lat="49.83248" lon="4.79088">
        <ele>292</ele>
        <time>2022-07-15T06:27:34.000Z</time>
      </trkpt>
      <trkpt lat="49.83251" lon="4.79087">
        <ele>293</ele>
        <time>2022-07-15T06:27:35.000Z</time>
      </trkpt>
      <trkpt lat="49.83254" lon="4.79086">
        <ele>293</ele>
        <time>2022-07-15T06:27:36.000Z</time>
      </trkpt>
      <trkpt lat="49.83258" lon="4.79086">
        <ele>293</ele>
        <time>2022-07-15T06:27:37.000Z</time>
      </trkpt>
      <trkpt lat="49.83262" lon="4.79086">
        <ele>294</ele>
        <time>2022-07-15T06:27:38.000Z</time>
      </trkpt>
      <trkpt lat="49.83265" lon="4.79087">
        <ele>294</ele>
        <time>2022-07-15T06:27:39.000Z</time>
      </trkpt>
      <trkpt lat="49.83269" lon="4.79088">
        <ele>294</ele>
        <time>2022-07-15T06:27:40.000Z</time>
      </trkpt>
      <trkpt lat="49.83273" lon="4.79089">
        <ele>294</ele>
        <time>2022-07-15T06:27:41.000Z</time>
      </trkpt>
      <trkpt lat="49.83278" lon="4.79089">
        <ele>295</ele>
        <time>2022-07-15T06:27:42.000Z</time>
      </trkpt>
      <trkpt lat="49.83283" lon="4.79089">
        <ele>295</ele>
        <time>2022-07-15T06:27:43.000Z</time>
      </trkpt>
      <trkpt lat="49.83289" lon="4.79087">
        <ele>295</ele>
        <time>2022-07-15T06:27:44.000Z</time>
      </trkpt>
      <trkpt lat="49.83295" lon="4.79084">
        <ele>295</ele>
        <time>2022-07-15T06:27:45.000Z</time>
      </trkpt>
      <trkpt lat="49.83301" lon="4.79082">
        <ele>295</ele>
        <time>2022-07-15T06:27:46.000Z</time>
      </trkpt>
      <trkpt lat="49.83307" lon="4.79078">
        <ele>295</ele>
        <time>2022-07-15T06:27:47.000Z</time>
      </trkpt>
      <trkpt lat="49.83313" lon="4.79073">
        <ele>296</ele>
        <time>2022-07-15T06:27:48.000Z</time>
      </trkpt>
      <trkpt lat="49.8332" lon="4.79068">
        <ele>296</ele>
        <time>2022-07-15T06:27:49.000Z</time>
      </trkpt>
      <trkpt lat="49.83327" lon="4.79062">
        <ele>296</ele>
        <time>2022-07-15T06:27:50.000Z</time>
      </trkpt>
      <trkpt lat="49.83333" lon="4.79056">
        <ele>296</ele>
        <time>2022-07-15T06:27:51.000Z</time>
      </trkpt>
      <trkpt lat="49.8334" lon="4.79049">
        <ele>296</ele>
        <time>2022-07-15T06:27:52.000Z</time>
      </trkpt>
      <trkpt lat="49.83344" lon="4.7904">
        <ele>297</ele>
        <time>2022-07-15T06:27:53.000Z</time>
      </trkpt>
      <trkpt lat="49.83348" lon="4.7903">
        <ele>297</ele>
        <time>2022-07-15T06:27:54.000Z</time>
      </trkpt>
      <trkpt lat="49.83352" lon="4.79021">
        <ele>297</ele>
        <time>2022-07-15T06:27:55.000Z</time>
      </trkpt>
      <trkpt lat="49.83356" lon="4.79011">
        <ele>297</ele>
        <time>2022-07-15T06:27:56.000Z</time>
      </trkpt>
      <trkpt lat="49.8336" lon="4.79002">
        <ele>297</ele>
        <time>2022-07-15T06:27:57.000Z</time>
      </trkpt>
      <trkpt lat="49.83364" lon="4.78993">
        <ele>297</ele>
        <time>2022-07-15T06:27:58.000Z</time>
      </trkpt>
      <trkpt lat="49.83367" lon="4.78984">
        <ele>297</ele>
        <time>2022-07-15T06:27:59.000Z</time>
      </trkpt>
      <trkpt lat="49.8337" lon="4.78974">
        <ele>297</ele>
        <time>2022-07-15T06:28:00.000Z</time>
      </trkpt>
      <trkpt lat="49.83373" lon="4.78965">
        <ele>297</ele>
        <time>2022-07-15T06:28:01.000Z</time>
      </trkpt>
      <trkpt lat="49.83376" lon="4.78956">
        <ele>297</ele>
        <time>2022-07-15T06:28:02.000Z</time>
      </trkpt>
      <trkpt lat="49.8338" lon="4.78948">
        <ele>297</ele>
        <time>2022-07-15T06:28:03.000Z</time>
      </trkpt>
      <trkpt lat="49.83384" lon="4.7894">
        <ele>297</ele>
        <time>2022-07-15T06:28:04.000Z</time>
      </trkpt>
      <trkpt lat="49.83389" lon="4.78933">
        <ele>297</ele>
        <time>2022-07-15T06:28:05.000Z</time>
      </trkpt>
      <trkpt lat="49.83393" lon="4.78927">
        <ele>297</ele>
        <time>2022-07-15T06:28:06.000Z</time>
      </trkpt>
      <trkpt lat="49.83398" lon="4.78921">
        <ele>297</ele>
        <time>2022-07-15T06:28:07.000Z</time>
      </trkpt>
      <trkpt lat="49.83402" lon="4.78917">
        <ele>297</ele>
        <time>2022-07-15T06:28:08.000Z</time>
      </trkpt>
      <trkpt lat="49.83405" lon="4.78913">
        <ele>297</ele>
        <time>2022-07-15T06:28:09.000Z</time>
      </trkpt>
      <trkpt lat="49.83409" lon="4.7891">
        <ele>297</ele>
        <time>2022-07-15T06:28:10.000Z</time>
      </trkpt>
      <trkpt lat="49.83412" lon="4.78907">
        <ele>297</ele>
        <time>2022-07-15T06:28:11.000Z</time>
      </trkpt>
      <trkpt lat="49.83416" lon="4.78905">
        <ele>297</ele>
        <time>2022-07-15T06:28:12.000Z</time>
      </trkpt>
      <trkpt lat="49.83419" lon="4.78904">
        <ele>297</ele>
        <time>2022-07-15T06:28:13.000Z</time>
      </trkpt>
      <trkpt lat="49.83423" lon="4.78902">
        <ele>297</ele>
        <time>2022-07-15T06:28:14.000Z</time>
      </trkpt>
      <trkpt lat="49.83425" lon="4.78901">
        <ele>298</ele>
        <time>2022-07-15T06:28:15.000Z</time>
      </trkpt>
      <trkpt lat="49.83428" lon="4.78899">
        <ele>298</ele>
        <time>2022-07-15T06:28:16.000Z</time>
      </trkpt>
      <trkpt lat="49.8343" lon="4.78896">
        <ele>298</ele>
        <time>2022-07-15T06:28:17.000Z</time>
      </trkpt>
      <trkpt lat="49.83434" lon="4.78895">
        <ele>298</ele>
        <time>2022-07-15T06:28:18.000Z</time>
      </trkpt>
      <trkpt lat="49.83437" lon="4.78894">
        <ele>298</ele>
        <time>2022-07-15T06:28:19.000Z</time>
      </trkpt>
      <trkpt lat="49.8344" lon="4.78893">
        <ele>299</ele>
        <time>2022-07-15T06:28:20.000Z</time>
      </trkpt>
      <trkpt lat="49.83443" lon="4.78891">
        <ele>299</ele>
        <time>2022-07-15T06:28:21.000Z</time>
      </trkpt>
      <trkpt lat="49.83447" lon="4.78889">
        <ele>299</ele>
        <time>2022-07-15T06:28:22.000Z</time>
      </trkpt>
      <trkpt lat="49.83451" lon="4.78888">
        <ele>300</ele>
        <time>2022-07-15T06:28:23.000Z</time>
      </trkpt>
      <trkpt lat="49.83454" lon="4.78886">
        <ele>300</ele>
        <time>2022-07-15T06:28:24.000Z</time>
      </trkpt>
      <trkpt lat="49.83458" lon="4.78883">
        <ele>300</ele>
        <time>2022-07-15T06:28:25.000Z</time>
      </trkpt>
      <trkpt lat="49.83461" lon="4.78879">
        <ele>301</ele>
        <time>2022-07-15T06:28:26.000Z</time>
      </trkpt>
      <trkpt lat="49.83464" lon="4.78875">
        <ele>301</ele>
        <time>2022-07-15T06:28:27.000Z</time>
      </trkpt>
      <trkpt lat="49.83467" lon="4.78871">
        <ele>301</ele>
        <time>2022-07-15T06:28:28.000Z</time>
      </trkpt>
      <trkpt lat="49.8347" lon="4.78867">
        <ele>301</ele>
        <time>2022-07-15T06:28:29.000Z</time>
      </trkpt>
      <trkpt lat="49.83472" lon="4.78862">
        <ele>301</ele>
        <time>2022-07-15T06:28:30.000Z</time>
      </trkpt>
      <trkpt lat="49.83474" lon="4.78856">
        <ele>301</ele>
        <time>2022-07-15T06:28:31.000Z</time>
      </trkpt>
      <trkpt lat="49.83474" lon="4.78851">
        <ele>301</ele>
        <time>2022-07-15T06:28:32.000Z</time>
      </trkpt>
      <trkpt lat="49.83474" lon="4.78845">
        <ele>301</ele>
        <time>2022-07-15T06:28:33.000Z</time>
      </trkpt>
      <trkpt lat="49.83474" lon="4.78839">
        <ele>301</ele>
        <time>2022-07-15T06:28:34.000Z</time>
      </trkpt>
      <trkpt lat="49.83474" lon="4.78834">
        <ele>300</ele>
        <time>2022-07-15T06:28:35.000Z</time>
      </trkpt>
      <trkpt lat="49.83474" lon="4.78828">
        <ele>300</ele>
        <time>2022-07-15T06:28:36.000Z</time>
      </trkpt>
      <trkpt lat="49.83475" lon="4.78823">
        <ele>300</ele>
        <time>2022-07-15T06:28:37.000Z</time>
      </trkpt>
      <trkpt lat="49.83477" lon="4.78819">
        <ele>300</ele>
        <time>2022-07-15T06:28:38.000Z</time>
      </trkpt>
      <trkpt lat="49.8348" lon="4.78815">
        <ele>300</ele>
        <time>2022-07-15T06:28:39.000Z</time>
      </trkpt>
      <trkpt lat="49.83483" lon="4.78813">
        <ele>300</ele>
        <time>2022-07-15T06:28:40.000Z</time>
      </trkpt>
      <trkpt lat="49.83486" lon="4.7881">
        <ele>300</ele>
        <time>2022-07-15T06:28:41.000Z</time>
      </trkpt>
      <trkpt lat="49.8349" lon="4.78809">
        <ele>300</ele>
        <time>2022-07-15T06:28:42.000Z</time>
      </trkpt>
      <trkpt lat="49.83494" lon="4.78807">
        <ele>300</ele>
        <time>2022-07-15T06:28:43.000Z</time>
      </trkpt>
      <trkpt lat="49.83497" lon="4.78805">
        <ele>300</ele>
        <time>2022-07-15T06:28:44.000Z</time>
      </trkpt>
      <trkpt lat="49.835" lon="4.78802">
        <ele>300</ele>
        <time>2022-07-15T06:28:45.000Z</time>
      </trkpt>
      <trkpt lat="49.83504" lon="4.788">
        <ele>300</ele>
        <time>2022-07-15T06:28:46.000Z</time>
      </trkpt>
      <trkpt lat="49.83507" lon="4.78797">
        <ele>300</ele>
        <time>2022-07-15T06:28:47.000Z</time>
      </trkpt>
      <trkpt lat="49.83509" lon="4.78793">
        <ele>300</ele>
        <time>2022-07-15T06:28:48.000Z</time>
      </trkpt>
      <trkpt lat="49.83511" lon="4.78789">
        <ele>300</ele>
        <time>2022-07-15T06:28:49.000Z</time>
      </trkpt>
      <trkpt lat="49.83513" lon="4.78785">
        <ele>300</ele>
        <time>2022-07-15T06:28:50.000Z</time>
      </trkpt>
      <trkpt lat="49.83515" lon="4.78782">
        <ele>300</ele>
        <time>2022-07-15T06:28:51.000Z</time>
      </trkpt>
      <trkpt lat="49.83517" lon="4.78779">
        <ele>300</ele>
        <time>2022-07-15T06:28:52.000Z</time>
      </trkpt>
      <trkpt lat="49.83519" lon="4.78776">
        <ele>299</ele>
        <time>2022-07-15T06:28:53.000Z</time>
      </trkpt>
      <trkpt lat="49.83522" lon="4.78774">
        <ele>299</ele>
        <time>2022-07-15T06:28:54.000Z</time>
      </trkpt>
      <trkpt lat="49.83524" lon="4.78772">
        <ele>299</ele>
        <time>2022-07-15T06:28:55.000Z</time>
      </trkpt>
      <trkpt lat="49.83525" lon="4.78771">
        <ele>299</ele>
        <time>2022-07-15T06:28:56.000Z</time>
      </trkpt>
      <trkpt lat="49.83526" lon="4.78771">
        <ele>299</ele>
        <time>2022-07-15T06:28:57.000Z</time>
      </trkpt>
      <trkpt lat="49.83526" lon="4.7877">
        <ele>299</ele>
        <time>2022-07-15T06:28:58.000Z</time>
      </trkpt>
      <trkpt lat="49.83527" lon="4.7877">
        <ele>299</ele>
        <time>2022-07-15T06:28:59.000Z</time>
      </trkpt>
      <trkpt lat="49.83528" lon="4.78769">
        <ele>299</ele>
        <time>2022-07-15T06:29:00.000Z</time>
      </trkpt>
      <trkpt lat="49.83529" lon="4.78769">
        <ele>299</ele>
        <time>2022-07-15T06:29:01.000Z</time>
      </trkpt>
      <trkpt lat="49.8353" lon="4.78768">
        <ele>299</ele>
        <time>2022-07-15T06:29:02.000Z</time>
      </trkpt>
      <trkpt lat="49.83532" lon="4.78767">
        <ele>299</ele>
        <time>2022-07-15T06:29:03.000Z</time>
      </trkpt>
      <trkpt lat="49.83534" lon="4.78766">
        <ele>299</ele>
        <time>2022-07-15T06:29:04.000Z</time>
      </trkpt>
      <trkpt lat="49.83536" lon="4.78765">
        <ele>298</ele>
        <time>2022-07-15T06:29:05.000Z</time>
      </trkpt>
      <trkpt lat="49.83538" lon="4.78765">
        <ele>298</ele>
        <time>2022-07-15T06:29:06.000Z</time>
      </trkpt>
      <trkpt lat="49.83541" lon="4.78765">
        <ele>298</ele>
        <time>2022-07-15T06:29:07.000Z</time>
      </trkpt>
      <trkpt lat="49.83543" lon="4.78764">
        <ele>298</ele>
        <time>2022-07-15T06:29:08.000Z</time>
      </trkpt>
      <trkpt lat="49.83546" lon="4.78764">
        <ele>298</ele>
        <time>2022-07-15T06:29:09.000Z</time>
      </trkpt>
      <trkpt lat="49.83548" lon="4.78763">
        <ele>298</ele>
        <time>2022-07-15T06:29:10.000Z</time>
      </trkpt>
      <trkpt lat="49.8355" lon="4.78762">
        <ele>298</ele>
        <time>2022-07-15T06:29:11.000Z</time>
      </trkpt>
      <trkpt lat="49.83553" lon="4.7876">
        <ele>298</ele>
        <time>2022-07-15T06:29:12.000Z</time>
      </trkpt>
      <trkpt lat="49.83555" lon="4.78758">
        <ele>298</ele>
        <time>2022-07-15T06:29:13.000Z</time>
      </trkpt>
      <trkpt lat="49.83557" lon="4.78757">
        <ele>298</ele>
        <time>2022-07-15T06:29:14.000Z</time>
      </trkpt>
      <trkpt lat="49.83559" lon="4.78755">
        <ele>298</ele>
        <time>2022-07-15T06:29:15.000Z</time>
      </trkpt>
      <trkpt lat="49.83562" lon="4.78753">
        <ele>298</ele>
        <time>2022-07-15T06:29:16.000Z</time>
      </trkpt>
      <trkpt lat="49.83564" lon="4.78752">
        <ele>298</ele>
        <time>2022-07-15T06:29:17.000Z</time>
      </trkpt>
      <trkpt lat="49.83566" lon="4.7875">
        <ele>298</ele>
        <time>2022-07-15T06:29:18.000Z</time>
      </trkpt>
      <trkpt lat="49.83569" lon="4.78749">
        <ele>298</ele>
        <time>2022-07-15T06:29:19.000Z</time>
      </trkpt>
      <trkpt lat="49.83571" lon="4.78747">
        <ele>298</ele>
        <time>2022-07-15T06:29:20.000Z</time>
      </trkpt>
      <trkpt lat="49.83573" lon="4.78746">
        <ele>298</ele>
        <time>2022-07-15T06:29:21.000Z</time>
      </trkpt>
      <trkpt lat="49.83576" lon="4.78745">
        <ele>298</ele>
        <time>2022-07-15T06:29:22.000Z</time>
      </trkpt>
      <trkpt lat="49.83578" lon="4.78743">
        <ele>298</ele>
        <time>2022-07-15T06:29:23.000Z</time>
      </trkpt>
      <trkpt lat="49.83581" lon="4.78741">
        <ele>298</ele>
        <time>2022-07-15T06:29:24.000Z</time>
      </trkpt>
      <trkpt lat="49.83583" lon="4.7874">
        <ele>298</ele>
        <time>2022-07-15T06:29:25.000Z</time>
      </trkpt>
      <trkpt lat="49.83585" lon="4.78739">
        <ele>298</ele>
        <time>2022-07-15T06:29:26.000Z</time>
      </trkpt>
      <trkpt lat="49.83588" lon="4.78738">
        <ele>298</ele>
        <time>2022-07-15T06:29:27.000Z</time>
      </trkpt>
      <trkpt lat="49.83591" lon="4.78737">
        <ele>298</ele>
        <time>2022-07-15T06:29:28.000Z</time>
      </trkpt>
      <trkpt lat="49.83594" lon="4.78735">
        <ele>298</ele>
        <time>2022-07-15T06:29:29.000Z</time>
      </trkpt>
      <trkpt lat="49.83597" lon="4.78734">
        <ele>298</ele>
        <time>2022-07-15T06:29:30.000Z</time>
      </trkpt>
      <trkpt lat="49.836" lon="4.78734">
        <ele>299</ele>
        <time>2022-07-15T06:29:31.000Z</time>
      </trkpt>
      <trkpt lat="49.83602" lon="4.78733">
        <ele>299</ele>
        <time>2022-07-15T06:29:32.000Z</time>
      </trkpt>
      <trkpt lat="49.83605" lon="4.78732">
        <ele>299</ele>
        <time>2022-07-15T06:29:33.000Z</time>
      </trkpt>
      <trkpt lat="49.83608" lon="4.78732">
        <ele>299</ele>
        <time>2022-07-15T06:29:34.000Z</time>
      </trkpt>
      <trkpt lat="49.83611" lon="4.78732">
        <ele>299</ele>
        <time>2022-07-15T06:29:35.000Z</time>
      </trkpt>
      <trkpt lat="49.83614" lon="4.78731">
        <ele>299</ele>
        <time>2022-07-15T06:29:36.000Z</time>
      </trkpt>
      <trkpt lat="49.83616" lon="4.78732">
        <ele>299</ele>
        <time>2022-07-15T06:29:37.000Z</time>
      </trkpt>
      <trkpt lat="49.83619" lon="4.78732">
        <ele>299</ele>
        <time>2022-07-15T06:29:38.000Z</time>
      </trkpt>
      <trkpt lat="49.83622" lon="4.78733">
        <ele>300</ele>
        <time>2022-07-15T06:29:39.000Z</time>
      </trkpt>
      <trkpt lat="49.83624" lon="4.78733">
        <ele>300</ele>
        <time>2022-07-15T06:29:40.000Z</time>
      </trkpt>
      <trkpt lat="49.83627" lon="4.78733">
        <ele>300</ele>
        <time>2022-07-15T06:29:41.000Z</time>
      </trkpt>
      <trkpt lat="49.83629" lon="4.78734">
        <ele>300</ele>
        <time>2022-07-15T06:29:42.000Z</time>
      </trkpt>
      <trkpt lat="49.83631" lon="4.78734">
        <ele>300</ele>
        <time>2022-07-15T06:29:43.000Z</time>
      </trkpt>
      <trkpt lat="49.83634" lon="4.78735">
        <ele>300</ele>
        <time>2022-07-15T06:29:44.000Z</time>
      </trkpt>
      <trkpt lat="49.83636" lon="4.78736">
        <ele>300</ele>
        <time>2022-07-15T06:29:45.000Z</time>
      </trkpt>
      <trkpt lat="49.83638" lon="4.78736">
        <ele>301</ele>
        <time>2022-07-15T06:29:46.000Z</time>
      </trkpt>
      <trkpt lat="49.8364" lon="4.78737">
        <ele>301</ele>
        <time>2022-07-15T06:29:47.000Z</time>
      </trkpt>
      <trkpt lat="49.83642" lon="4.78737">
        <ele>301</ele>
        <time>2022-07-15T06:29:48.000Z</time>
      </trkpt>
      <trkpt lat="49.83645" lon="4.78738">
        <ele>301</ele>
        <time>2022-07-15T06:29:49.000Z</time>
      </trkpt>
      <trkpt lat="49.83647" lon="4.78739">
        <ele>301</ele>
        <time>2022-07-15T06:29:50.000Z</time>
      </trkpt>
      <trkpt lat="49.83649" lon="4.78739">
        <ele>302</ele>
        <time>2022-07-15T06:29:51.000Z</time>
      </trkpt>
      <trkpt lat="49.83651" lon="4.7874">
        <ele>302</ele>
        <time>2022-07-15T06:29:52.000Z</time>
      </trkpt>
      <trkpt lat="49.83653" lon="4.7874">
        <ele>302</ele>
        <time>2022-07-15T06:29:53.000Z</time>
      </trkpt>
      <trkpt lat="49.83656" lon="4.78741">
        <ele>302</ele>
        <time>2022-07-15T06:29:54.000Z</time>
      </trkpt>
      <trkpt lat="49.83658" lon="4.78742">
        <ele>302</ele>
        <time>2022-07-15T06:29:55.000Z</time>
      </trkpt>
      <trkpt lat="49.8366" lon="4.78743">
        <ele>302</ele>
        <time>2022-07-15T06:29:56.000Z</time>
      </trkpt>
      <trkpt lat="49.83662" lon="4.78745">
        <ele>302</ele>
        <time>2022-07-15T06:29:57.000Z</time>
      </trkpt>
      <trkpt lat="49.83665" lon="4.78746">
        <ele>303</ele>
        <time>2022-07-15T06:29:58.000Z</time>
      </trkpt>
      <trkpt lat="49.83667" lon="4.78747">
        <ele>303</ele>
        <time>2022-07-15T06:29:59.000Z</time>
      </trkpt>
      <trkpt lat="49.8367" lon="4.78748">
        <ele>303</ele>
        <time>2022-07-15T06:30:00.000Z</time>
      </trkpt>
      <trkpt lat="49.83672" lon="4.7875">
        <ele>303</ele>
        <time>2022-07-15T06:30:01.000Z</time>
      </trkpt>
      <trkpt lat="49.83674" lon="4.78751">
        <ele>303</ele>
        <time>2022-07-15T06:30:02.000Z</time>
      </trkpt>
      <trkpt lat="49.83677" lon="4.78752">
        <ele>304</ele>
        <time>2022-07-15T06:30:03.000Z</time>
      </trkpt>
      <trkpt lat="49.83679" lon="4.78754">
        <ele>304</ele>
        <time>2022-07-15T06:30:04.000Z</time>
      </trkpt>
      <trkpt lat="49.83682" lon="4.78756">
        <ele>304</ele>
        <time>2022-07-15T06:30:05.000Z</time>
      </trkpt>
      <trkpt lat="49.83684" lon="4.78758">
        <ele>304</ele>
        <time>2022-07-15T06:30:06.000Z</time>
      </trkpt>
      <trkpt lat="49.83687" lon="4.78761">
        <ele>304</ele>
        <time>2022-07-15T06:30:07.000Z</time>
      </trkpt>
      <trkpt lat="49.8369" lon="4.78763">
        <ele>304</ele>
        <time>2022-07-15T06:30:08.000Z</time>
      </trkpt>
      <trkpt lat="49.83692" lon="4.78766">
        <ele>305</ele>
        <time>2022-07-15T06:30:09.000Z</time>
      </trkpt>
      <trkpt lat="49.83694" lon="4.78768">
        <ele>305</ele>
        <time>2022-07-15T06:30:10.000Z</time>
      </trkpt>
      <trkpt lat="49.83696" lon="4.78769">
        <ele>305</ele>
        <time>2022-07-15T06:30:11.000Z</time>
      </trkpt>
      <trkpt lat="49.83698" lon="4.78771">
        <ele>305</ele>
        <time>2022-07-15T06:30:12.000Z</time>
      </trkpt>
      <trkpt lat="49.837" lon="4.78772">
        <ele>305</ele>
        <time>2022-07-15T06:30:13.000Z</time>
      </trkpt>
      <trkpt lat="49.83702" lon="4.78774">
        <ele>305</ele>
        <time>2022-07-15T06:30:14.000Z</time>
      </trkpt>
      <trkpt lat="49.83704" lon="4.78774">
        <ele>306</ele>
        <time>2022-07-15T06:30:15.000Z</time>
      </trkpt>
      <trkpt lat="49.83706" lon="4.78775">
        <ele>306</ele>
        <time>2022-07-15T06:30:16.000Z</time>
      </trkpt>
      <trkpt lat="49.83708" lon="4.78776">
        <ele>306</ele>
        <time>2022-07-15T06:30:17.000Z</time>
      </trkpt>
      <trkpt lat="49.8371" lon="4.78776">
        <ele>306</ele>
        <time>2022-07-15T06:30:18.000Z</time>
      </trkpt>
      <trkpt lat="49.83712" lon="4.78778">
        <ele>306</ele>
        <time>2022-07-15T06:30:19.000Z</time>
      </trkpt>
      <trkpt lat="49.83714" lon="4.78779">
        <ele>306</ele>
        <time>2022-07-15T06:30:20.000Z</time>
      </trkpt>
      <trkpt lat="49.83716" lon="4.7878">
        <ele>307</ele>
        <time>2022-07-15T06:30:21.000Z</time>
      </trkpt>
      <trkpt lat="49.83718" lon="4.78781">
        <ele>307</ele>
        <time>2022-07-15T06:30:22.000Z</time>
      </trkpt>
      <trkpt lat="49.8372" lon="4.78782">
        <ele>307</ele>
        <time>2022-07-15T06:30:23.000Z</time>
      </trkpt>
      <trkpt lat="49.83722" lon="4.78782">
        <ele>307</ele>
        <time>2022-07-15T06:30:24.000Z</time>
      </trkpt>
      <trkpt lat="49.83724" lon="4.78783">
        <ele>308</ele>
        <time>2022-07-15T06:30:25.000Z</time>
      </trkpt>
      <trkpt lat="49.83726" lon="4.78783">
        <ele>308</ele>
        <time>2022-07-15T06:30:26.000Z</time>
      </trkpt>
      <trkpt lat="49.83728" lon="4.78784">
        <ele>308</ele>
        <time>2022-07-15T06:30:27.000Z</time>
      </trkpt>
      <trkpt lat="49.8373" lon="4.78785">
        <ele>308</ele>
        <time>2022-07-15T06:30:28.000Z</time>
      </trkpt>
      <trkpt lat="49.83732" lon="4.78785">
        <ele>309</ele>
        <time>2022-07-15T06:30:29.000Z</time>
      </trkpt>
      <trkpt lat="49.83735" lon="4.78786">
        <ele>309</ele>
        <time>2022-07-15T06:30:30.000Z</time>
      </trkpt>
      <trkpt lat="49.83737" lon="4.78787">
        <ele>309</ele>
        <time>2022-07-15T06:30:31.000Z</time>
      </trkpt>
      <trkpt lat="49.83739" lon="4.78788">
        <ele>309</ele>
        <time>2022-07-15T06:30:32.000Z</time>
      </trkpt>
      <trkpt lat="49.83742" lon="4.7879">
        <ele>310</ele>
        <time>2022-07-15T06:30:33.000Z</time>
      </trkpt>
      <trkpt lat="49.83744" lon="4.78791">
        <ele>310</ele>
        <time>2022-07-15T06:30:34.000Z</time>
      </trkpt>
      <trkpt lat="49.83746" lon="4.78793">
        <ele>310</ele>
        <time>2022-07-15T06:30:35.000Z</time>
      </trkpt>
      <trkpt lat="49.83748" lon="4.78795">
        <ele>310</ele>
        <time>2022-07-15T06:30:36.000Z</time>
      </trkpt>
      <trkpt lat="49.8375" lon="4.78798">
        <ele>310</ele>
        <time>2022-07-15T06:30:37.000Z</time>
      </trkpt>
      <trkpt lat="49.83752" lon="4.788">
        <ele>310</ele>
        <time>2022-07-15T06:30:38.000Z</time>
      </trkpt>
      <trkpt lat="49.83754" lon="4.78803">
        <ele>310</ele>
        <time>2022-07-15T06:30:39.000Z</time>
      </trkpt>
      <trkpt lat="49.83756" lon="4.78805">
        <ele>311</ele>
        <time>2022-07-15T06:30:40.000Z</time>
      </trkpt>
      <trkpt lat="49.83759" lon="4.78808">
        <ele>311</ele>
        <time>2022-07-15T06:30:41.000Z</time>
      </trkpt>
      <trkpt lat="49.83761" lon="4.78811">
        <ele>311</ele>
        <time>2022-07-15T06:30:42.000Z</time>
      </trkpt>
      <trkpt lat="49.83764" lon="4.78814">
        <ele>311</ele>
        <time>2022-07-15T06:30:43.000Z</time>
      </trkpt>
      <trkpt lat="49.83767" lon="4.78817">
        <ele>311</ele>
        <time>2022-07-15T06:30:44.000Z</time>
      </trkpt>
      <trkpt lat="49.8377" lon="4.78819">
        <ele>311</ele>
        <time>2022-07-15T06:30:45.000Z</time>
      </trkpt>
      <trkpt lat="49.83773" lon="4.78821">
        <ele>311</ele>
        <time>2022-07-15T06:30:46.000Z</time>
      </trkpt>
      <trkpt lat="49.83776" lon="4.78823">
        <ele>311</ele>
        <time>2022-07-15T06:30:47.000Z</time>
      </trkpt>
      <trkpt lat="49.83778" lon="4.78823">
        <ele>311</ele>
        <time>2022-07-15T06:30:48.000Z</time>
      </trkpt>
      <trkpt lat="49.83781" lon="4.78824">
        <ele>311</ele>
        <time>2022-07-15T06:30:49.000Z</time>
      </trkpt>
      <trkpt lat="49.83783" lon="4.78824">
        <ele>311</ele>
        <time>2022-07-15T06:30:50.000Z</time>
      </trkpt>
      <trkpt lat="49.83785" lon="4.78825">
        <ele>312</ele>
        <time>2022-07-15T06:30:51.000Z</time>
      </trkpt>
      <trkpt lat="49.83788" lon="4.78825">
        <ele>312</ele>
        <time>2022-07-15T06:30:52.000Z</time>
      </trkpt>
      <trkpt lat="49.8379" lon="4.78825">
        <ele>312</ele>
        <time>2022-07-15T06:30:53.000Z</time>
      </trkpt>
      <trkpt lat="49.83792" lon="4.78826">
        <ele>312</ele>
        <time>2022-07-15T06:30:54.000Z</time>
      </trkpt>
      <trkpt lat="49.83795" lon="4.78826">
        <ele>312</ele>
        <time>2022-07-15T06:30:55.000Z</time>
      </trkpt>
      <trkpt lat="49.83797" lon="4.78826">
        <ele>313</ele>
        <time>2022-07-15T06:30:56.000Z</time>
      </trkpt>
      <trkpt lat="49.83799" lon="4.78827">
        <ele>313</ele>
        <time>2022-07-15T06:30:57.000Z</time>
      </trkpt>
      <trkpt lat="49.83802" lon="4.78827">
        <ele>313</ele>
        <time>2022-07-15T06:30:58.000Z</time>
      </trkpt>
      <trkpt lat="49.83804" lon="4.78827">
        <ele>313</ele>
        <time>2022-07-15T06:30:59.000Z</time>
      </trkpt>
      <trkpt lat="49.83806" lon="4.78827">
        <ele>314</ele>
        <time>2022-07-15T06:31:00.000Z</time>
      </trkpt>
      <trkpt lat="49.83807" lon="4.78828">
        <ele>314</ele>
        <time>2022-07-15T06:31:01.000Z</time>
      </trkpt>
      <trkpt lat="49.83809" lon="4.78828">
        <ele>314</ele>
        <time>2022-07-15T06:31:02.000Z</time>
      </trkpt>
      <trkpt lat="49.83811" lon="4.78828">
        <ele>314</ele>
        <time>2022-07-15T06:31:03.000Z</time>
      </trkpt>
      <trkpt lat="49.83812" lon="4.78829">
        <ele>315</ele>
        <time>2022-07-15T06:31:04.000Z</time>
      </trkpt>
      <trkpt lat="49.83814" lon="4.78829">
        <ele>315</ele>
        <time>2022-07-15T06:31:05.000Z</time>
      </trkpt>
      <trkpt lat="49.83815" lon="4.78829">
        <ele>315</ele>
        <time>2022-07-15T06:31:06.000Z</time>
      </trkpt>
      <trkpt lat="49.83817" lon="4.78829">
        <ele>315</ele>
        <time>2022-07-15T06:31:07.000Z</time>
      </trkpt>
      <trkpt lat="49.83819" lon="4.78829">
        <ele>316</ele>
        <time>2022-07-15T06:31:08.000Z</time>
      </trkpt>
      <trkpt lat="49.8382" lon="4.7883">
        <ele>316</ele>
        <time>2022-07-15T06:31:09.000Z</time>
      </trkpt>
      <trkpt lat="49.83822" lon="4.78831">
        <ele>316</ele>
        <time>2022-07-15T06:31:10.000Z</time>
      </trkpt>
      <trkpt lat="49.83824" lon="4.78831">
        <ele>316</ele>
        <time>2022-07-15T06:31:11.000Z</time>
      </trkpt>
      <trkpt lat="49.83826" lon="4.78832">
        <ele>317</ele>
        <time>2022-07-15T06:31:12.000Z</time>
      </trkpt>
      <trkpt lat="49.83828" lon="4.78832">
        <ele>317</ele>
        <time>2022-07-15T06:31:13.000Z</time>
      </trkpt>
      <trkpt lat="49.8383" lon="4.78833">
        <ele>317</ele>
        <time>2022-07-15T06:31:14.000Z</time>
      </trkpt>
      <trkpt lat="49.83832" lon="4.78833">
        <ele>317</ele>
        <time>2022-07-15T06:31:15.000Z</time>
      </trkpt>
      <trkpt lat="49.83835" lon="4.78834">
        <ele>318</ele>
        <time>2022-07-15T06:31:16.000Z</time>
      </trkpt>
      <trkpt lat="49.83837" lon="4.78834">
        <ele>318</ele>
        <time>2022-07-15T06:31:17.000Z</time>
      </trkpt>
      <trkpt lat="49.83839" lon="4.78834">
        <ele>318</ele>
        <time>2022-07-15T06:31:18.000Z</time>
      </trkpt>
      <trkpt lat="49.83841" lon="4.78834">
        <ele>319</ele>
        <time>2022-07-15T06:31:19.000Z</time>
      </trkpt>
      <trkpt lat="49.83843" lon="4.78835">
        <ele>319</ele>
        <time>2022-07-15T06:31:20.000Z</time>
      </trkpt>
      <trkpt lat="49.83845" lon="4.78835">
        <ele>319</ele>
        <time>2022-07-15T06:31:21.000Z</time>
      </trkpt>
      <trkpt lat="49.83847" lon="4.78835">
        <ele>320</ele>
        <time>2022-07-15T06:31:22.000Z</time>
      </trkpt>
      <trkpt lat="49.83849" lon="4.78836">
        <ele>320</ele>
        <time>2022-07-15T06:31:23.000Z</time>
      </trkpt>
      <trkpt lat="49.83851" lon="4.78836">
        <ele>320</ele>
        <time>2022-07-15T06:31:24.000Z</time>
      </trkpt>
      <trkpt lat="49.83853" lon="4.78837">
        <ele>320</ele>
        <time>2022-07-15T06:31:25.000Z</time>
      </trkpt>
      <trkpt lat="49.83855" lon="4.78837">
        <ele>321</ele>
        <time>2022-07-15T06:31:26.000Z</time>
      </trkpt>
      <trkpt lat="49.83857" lon="4.78838">
        <ele>321</ele>
        <time>2022-07-15T06:31:27.000Z</time>
      </trkpt>
      <trkpt lat="49.83858" lon="4.78838">
        <ele>321</ele>
        <time>2022-07-15T06:31:28.000Z</time>
      </trkpt>
      <trkpt lat="49.8386" lon="4.78838">
        <ele>322</ele>
        <time>2022-07-15T06:31:29.000Z</time>
      </trkpt>
      <trkpt lat="49.83862" lon="4.78839">
        <ele>322</ele>
        <time>2022-07-15T06:31:30.000Z</time>
      </trkpt>
      <trkpt lat="49.83864" lon="4.78839">
        <ele>322</ele>
        <time>2022-07-15T06:31:31.000Z</time>
      </trkpt>
      <trkpt lat="49.83866" lon="4.78839">
        <ele>323</ele>
        <time>2022-07-15T06:31:32.000Z</time>
      </trkpt>
      <trkpt lat="49.83868" lon="4.7884">
        <ele>323</ele>
        <time>2022-07-15T06:31:33.000Z</time>
      </trkpt>
      <trkpt lat="49.8387" lon="4.7884">
        <ele>323</ele>
        <time>2022-07-15T06:31:34.000Z</time>
      </trkpt>
      <trkpt lat="49.83872" lon="4.7884">
        <ele>323</ele>
        <time>2022-07-15T06:31:35.000Z</time>
      </trkpt>
      <trkpt lat="49.83874" lon="4.7884">
        <ele>324</ele>
        <time>2022-07-15T06:31:36.000Z</time>
      </trkpt>
      <trkpt lat="49.83876" lon="4.7884">
        <ele>324</ele>
        <time>2022-07-15T06:31:37.000Z</time>
      </trkpt>
      <trkpt lat="49.83878" lon="4.78841">
        <ele>324</ele>
        <time>2022-07-15T06:31:38.000Z</time>
      </trkpt>
      <trkpt lat="49.8388" lon="4.78841">
        <ele>324</ele>
        <time>2022-07-15T06:31:39.000Z</time>
      </trkpt>
      <trkpt lat="49.83882" lon="4.78841">
        <ele>325</ele>
        <time>2022-07-15T06:31:40.000Z</time>
      </trkpt>
      <trkpt lat="49.83884" lon="4.78841">
        <ele>325</ele>
        <time>2022-07-15T06:31:41.000Z</time>
      </trkpt>
      <trkpt lat="49.83886" lon="4.78842">
        <ele>325</ele>
        <time>2022-07-15T06:31:42.000Z</time>
      </trkpt>
      <trkpt lat="49.83888" lon="4.78842">
        <ele>326</ele>
        <time>2022-07-15T06:31:43.000Z</time>
      </trkpt>
      <trkpt lat="49.8389" lon="4.78842">
        <ele>326</ele>
        <time>2022-07-15T06:31:44.000Z</time>
      </trkpt>
      <trkpt lat="49.83893" lon="4.78842">
        <ele>326</ele>
        <time>2022-07-15T06:31:45.000Z</time>
      </trkpt>
      <trkpt lat="49.83895" lon="4.78842">
        <ele>327</ele>
        <time>2022-07-15T06:31:46.000Z</time>
      </trkpt>
      <trkpt lat="49.83896" lon="4.78843">
        <ele>327</ele>
        <time>2022-07-15T06:31:47.000Z</time>
      </trkpt>
      <trkpt lat="49.83898" lon="4.78843">
        <ele>327</ele>
        <time>2022-07-15T06:31:48.000Z</time>
      </trkpt>
      <trkpt lat="49.839" lon="4.78844">
        <ele>328</ele>
        <time>2022-07-15T06:31:49.000Z</time>
      </trkpt>
      <trkpt lat="49.83902" lon="4.78844">
        <ele>328</ele>
        <time>2022-07-15T06:31:50.000Z</time>
      </trkpt>
      <trkpt lat="49.83904" lon="4.78844">
        <ele>328</ele>
        <time>2022-07-15T06:31:51.000Z</time>
      </trkpt>
      <trkpt lat="49.83906" lon="4.78845">
        <ele>329</ele>
        <time>2022-07-15T06:31:52.000Z</time>
      </trkpt>
      <trkpt lat="49.83908" lon="4.78845">
        <ele>329</ele>
        <time>2022-07-15T06:31:53.000Z</time>
      </trkpt>
      <trkpt lat="49.8391" lon="4.78845">
        <ele>329</ele>
        <time>2022-07-15T06:31:54.000Z</time>
      </trkpt>
      <trkpt lat="49.83912" lon="4.78845">
        <ele>330</ele>
        <time>2022-07-15T06:31:55.000Z</time>
      </trkpt>
      <trkpt lat="49.83915" lon="4.78845">
        <ele>330</ele>
        <time>2022-07-15T06:31:56.000Z</time>
      </trkpt>
      <trkpt lat="49.83917" lon="4.78845">
        <ele>331</ele>
        <time>2022-07-15T06:31:57.000Z</time>
      </trkpt>
      <trkpt lat="49.83919" lon="4.78846">
        <ele>331</ele>
        <time>2022-07-15T06:31:58.000Z</time>
      </trkpt>
      <trkpt lat="49.83921" lon="4.78846">
        <ele>331</ele>
        <time>2022-07-15T06:31:59.000Z</time>
      </trkpt>
      <trkpt lat="49.83923" lon="4.78847">
        <ele>332</ele>
        <time>2022-07-15T06:32:00.000Z</time>
      </trkpt>
      <trkpt lat="49.83925" lon="4.78848">
        <ele>332</ele>
        <time>2022-07-15T06:32:01.000Z</time>
      </trkpt>
      <trkpt lat="49.83927" lon="4.78848">
        <ele>333</ele>
        <time>2022-07-15T06:32:02.000Z</time>
      </trkpt>
      <trkpt lat="49.83928" lon="4.78847">
        <ele>333</ele>
        <time>2022-07-15T06:32:03.000Z</time>
      </trkpt>
      <trkpt lat="49.83929" lon="4.78847">
        <ele>333</ele>
        <time>2022-07-15T06:32:04.000Z</time>
      </trkpt>
      <trkpt lat="49.83929" lon="4.78847">
        <ele>334</ele>
        <time>2022-07-15T06:32:05.000Z</time>
      </trkpt>
      <trkpt lat="49.8393" lon="4.78847">
        <ele>334</ele>
        <time>2022-07-15T06:32:06.000Z</time>
      </trkpt>
      <trkpt lat="49.83931" lon="4.78847">
        <ele>334</ele>
        <time>2022-07-15T06:32:07.000Z</time>
      </trkpt>
      <trkpt lat="49.83932" lon="4.78847">
        <ele>335</ele>
        <time>2022-07-15T06:32:08.000Z</time>
      </trkpt>
      <trkpt lat="49.83933" lon="4.78847">
        <ele>335</ele>
        <time>2022-07-15T06:32:09.000Z</time>
      </trkpt>
      <trkpt lat="49.83934" lon="4.78848">
        <ele>335</ele>
        <time>2022-07-15T06:32:10.000Z</time>
      </trkpt>
      <trkpt lat="49.83935" lon="4.78848">
        <ele>336</ele>
        <time>2022-07-15T06:32:11.000Z</time>
      </trkpt>
      <trkpt lat="49.83936" lon="4.78849">
        <ele>336</ele>
        <time>2022-07-15T06:32:12.000Z</time>
      </trkpt>
      <trkpt lat="49.83937" lon="4.7885">
        <ele>336</ele>
        <time>2022-07-15T06:32:13.000Z</time>
      </trkpt>
      <trkpt lat="49.83938" lon="4.78851">
        <ele>336</ele>
        <time>2022-07-15T06:32:14.000Z</time>
      </trkpt>
      <trkpt lat="49.83939" lon="4.78851">
        <ele>337</ele>
        <time>2022-07-15T06:32:15.000Z</time>
      </trkpt>
      <trkpt lat="49.83941" lon="4.78852">
        <ele>337</ele>
        <time>2022-07-15T06:32:16.000Z</time>
      </trkpt>
      <trkpt lat="49.83942" lon="4.78853">
        <ele>337</ele>
        <time>2022-07-15T06:32:17.000Z</time>
      </trkpt>
      <trkpt lat="49.83944" lon="4.78853">
        <ele>337</ele>
        <time>2022-07-15T06:32:18.000Z</time>
      </trkpt>
      <trkpt lat="49.83945" lon="4.78853">
        <ele>337</ele>
        <time>2022-07-15T06:32:19.000Z</time>
      </trkpt>
      <trkpt lat="49.83946" lon="4.78854">
        <ele>337</ele>
        <time>2022-07-15T06:32:20.000Z</time>
      </trkpt>
      <trkpt lat="49.83948" lon="4.78854">
        <ele>338</ele>
        <time>2022-07-15T06:32:21.000Z</time>
      </trkpt>
      <trkpt lat="49.83949" lon="4.78854">
        <ele>338</ele>
        <time>2022-07-15T06:32:22.000Z</time>
      </trkpt>
      <trkpt lat="49.8395" lon="4.78854">
        <ele>338</ele>
        <time>2022-07-15T06:32:23.000Z</time>
      </trkpt>
      <trkpt lat="49.83951" lon="4.78855">
        <ele>338</ele>
        <time>2022-07-15T06:32:24.000Z</time>
      </trkpt>
      <trkpt lat="49.83953" lon="4.78855">
        <ele>338</ele>
        <time>2022-07-15T06:32:25.000Z</time>
      </trkpt>
      <trkpt lat="49.83953" lon="4.78855">
        <ele>338</ele>
        <time>2022-07-15T06:32:26.000Z</time>
      </trkpt>
      <trkpt lat="49.83954" lon="4.78855">
        <ele>338</ele>
        <time>2022-07-15T06:32:27.000Z</time>
      </trkpt>
      <trkpt lat="49.83954" lon="4.78854">
        <ele>339</ele>
        <time>2022-07-15T06:32:28.000Z</time>
      </trkpt>
      <trkpt lat="49.83954" lon="4.78855">
        <ele>339</ele>
        <time>2022-07-15T06:32:29.000Z</time>
      </trkpt>
      <trkpt lat="49.83954" lon="4.78855">
        <ele>339</ele>
        <time>2022-07-15T06:32:30.000Z</time>
      </trkpt>
      <trkpt lat="49.83955" lon="4.78855">
        <ele>339</ele>
        <time>2022-07-15T06:32:31.000Z</time>
      </trkpt>
      <trkpt lat="49.83956" lon="4.78855">
        <ele>339</ele>
        <time>2022-07-15T06:32:32.000Z</time>
      </trkpt>
      <trkpt lat="49.83958" lon="4.78855">
        <ele>339</ele>
        <time>2022-07-15T06:32:33.000Z</time>
      </trkpt>
      <trkpt lat="49.83959" lon="4.78856">
        <ele>340</ele>
        <time>2022-07-15T06:32:34.000Z</time>
      </trkpt>
      <trkpt lat="49.83961" lon="4.78856">
        <ele>340</ele>
        <time>2022-07-15T06:32:35.000Z</time>
      </trkpt>
      <trkpt lat="49.83963" lon="4.78856">
        <ele>340</ele>
        <time>2022-07-15T06:32:36.000Z</time>
      </trkpt>
      <trkpt lat="49.83965" lon="4.78857">
        <ele>340</ele>
        <time>2022-07-15T06:32:37.000Z</time>
      </trkpt>
      <trkpt lat="49.83967" lon="4.78857">
        <ele>340</ele>
        <time>2022-07-15T06:32:38.000Z</time>
      </trkpt>
      <trkpt lat="49.83969" lon="4.78857">
        <ele>340</ele>
        <time>2022-07-15T06:32:39.000Z</time>
      </trkpt>
      <trkpt lat="49.83971" lon="4.78858">
        <ele>341</ele>
        <time>2022-07-15T06:32:40.000Z</time>
      </trkpt>
      <trkpt lat="49.83973" lon="4.78858">
        <ele>341</ele>
        <time>2022-07-15T06:32:41.000Z</time>
      </trkpt>
      <trkpt lat="49.83975" lon="4.78858">
        <ele>341</ele>
        <time>2022-07-15T06:32:42.000Z</time>
      </trkpt>
      <trkpt lat="49.83977" lon="4.78859">
        <ele>341</ele>
        <time>2022-07-15T06:32:43.000Z</time>
      </trkpt>
      <trkpt lat="49.83979" lon="4.78859">
        <ele>342</ele>
        <time>2022-07-15T06:32:44.000Z</time>
      </trkpt>
      <trkpt lat="49.83981" lon="4.7886">
        <ele>342</ele>
        <time>2022-07-15T06:32:45.000Z</time>
      </trkpt>
      <trkpt lat="49.83983" lon="4.7886">
        <ele>342</ele>
        <time>2022-07-15T06:32:46.000Z</time>
      </trkpt>
      <trkpt lat="49.83986" lon="4.78861">
        <ele>342</ele>
        <time>2022-07-15T06:32:47.000Z</time>
      </trkpt>
      <trkpt lat="49.83988" lon="4.78861">
        <ele>342</ele>
        <time>2022-07-15T06:32:48.000Z</time>
      </trkpt>
      <trkpt lat="49.8399" lon="4.78862">
        <ele>343</ele>
        <time>2022-07-15T06:32:49.000Z</time>
      </trkpt>
      <trkpt lat="49.83992" lon="4.78862">
        <ele>343</ele>
        <time>2022-07-15T06:32:50.000Z</time>
      </trkpt>
      <trkpt lat="49.83995" lon="4.78863">
        <ele>343</ele>
        <time>2022-07-15T06:32:51.000Z</time>
      </trkpt>
      <trkpt lat="49.83997" lon="4.78863">
        <ele>343</ele>
        <time>2022-07-15T06:32:52.000Z</time>
      </trkpt>
      <trkpt lat="49.83999" lon="4.78864">
        <ele>343</ele>
        <time>2022-07-15T06:32:53.000Z</time>
      </trkpt>
      <trkpt lat="49.84001" lon="4.78864">
        <ele>344</ele>
        <time>2022-07-15T06:32:54.000Z</time>
      </trkpt>
      <trkpt lat="49.84003" lon="4.78864">
        <ele>344</ele>
        <time>2022-07-15T06:32:55.000Z</time>
      </trkpt>
      <trkpt lat="49.84005" lon="4.78865">
        <ele>344</ele>
        <time>2022-07-15T06:32:56.000Z</time>
      </trkpt>
      <trkpt lat="49.84008" lon="4.78865">
        <ele>344</ele>
        <time>2022-07-15T06:32:57.000Z</time>
      </trkpt>
      <trkpt lat="49.8401" lon="4.78866">
        <ele>344</ele>
        <time>2022-07-15T06:32:58.000Z</time>
      </trkpt>
      <trkpt lat="49.84012" lon="4.78867">
        <ele>345</ele>
        <time>2022-07-15T06:32:59.000Z</time>
      </trkpt>
      <trkpt lat="49.84014" lon="4.78867">
        <ele>345</ele>
        <time>2022-07-15T06:33:00.000Z</time>
      </trkpt>
      <trkpt lat="49.84016" lon="4.78868">
        <ele>345</ele>
        <time>2022-07-15T06:33:01.000Z</time>
      </trkpt>
      <trkpt lat="49.84018" lon="4.78868">
        <ele>345</ele>
        <time>2022-07-15T06:33:02.000Z</time>
      </trkpt>
      <trkpt lat="49.8402" lon="4.78868">
        <ele>345</ele>
        <time>2022-07-15T06:33:03.000Z</time>
      </trkpt>
      <trkpt lat="49.84021" lon="4.78868">
        <ele>345</ele>
        <time>2022-07-15T06:33:04.000Z</time>
      </trkpt>
      <trkpt lat="49.84022" lon="4.78868">
        <ele>345</ele>
        <time>2022-07-15T06:33:05.000Z</time>
      </trkpt>
      <trkpt lat="49.84022" lon="4.78868">
        <ele>345</ele>
        <time>2022-07-15T06:33:06.000Z</time>
      </trkpt>
      <trkpt lat="49.84023" lon="4.78868">
        <ele>345</ele>
        <time>2022-07-15T06:33:07.000Z</time>
      </trkpt>
      <trkpt lat="49.84024" lon="4.78868">
        <ele>345</ele>
        <time>2022-07-15T06:33:08.000Z</time>
      </trkpt>
      <trkpt lat="49.84025" lon="4.78869">
        <ele>345</ele>
        <time>2022-07-15T06:33:09.000Z</time>
      </trkpt>
      <trkpt lat="49.84025" lon="4.78868">
        <ele>345</ele>
        <time>2022-07-15T06:33:10.000Z</time>
      </trkpt>
      <trkpt lat="49.84026" lon="4.78869">
        <ele>345</ele>
        <time>2022-07-15T06:33:11.000Z</time>
      </trkpt>
      <trkpt lat="49.84027" lon="4.78869">
        <ele>345</ele>
        <time>2022-07-15T06:33:12.000Z</time>
      </trkpt>
      <trkpt lat="49.84029" lon="4.78869">
        <ele>345</ele>
        <time>2022-07-15T06:33:13.000Z</time>
      </trkpt>
      <trkpt lat="49.84031" lon="4.7887">
        <ele>345</ele>
        <time>2022-07-15T06:33:14.000Z</time>
      </trkpt>
      <trkpt lat="49.84033" lon="4.78871">
        <ele>345</ele>
        <time>2022-07-15T06:33:15.000Z</time>
      </trkpt>
      <trkpt lat="49.84035" lon="4.78872">
        <ele>345</ele>
        <time>2022-07-15T06:33:16.000Z</time>
      </trkpt>
      <trkpt lat="49.84037" lon="4.78873">
        <ele>345</ele>
        <time>2022-07-15T06:33:17.000Z</time>
      </trkpt>
      <trkpt lat="49.84038" lon="4.78873">
        <ele>345</ele>
        <time>2022-07-15T06:33:18.000Z</time>
      </trkpt>
      <trkpt lat="49.8404" lon="4.78874">
        <ele>346</ele>
        <time>2022-07-15T06:33:19.000Z</time>
      </trkpt>
      <trkpt lat="49.84041" lon="4.78875">
        <ele>346</ele>
        <time>2022-07-15T06:33:20.000Z</time>
      </trkpt>
      <trkpt lat="49.84042" lon="4.78876">
        <ele>346</ele>
        <time>2022-07-15T06:33:21.000Z</time>
      </trkpt>
      <trkpt lat="49.84043" lon="4.78879">
        <ele>346</ele>
        <time>2022-07-15T06:33:22.000Z</time>
      </trkpt>
      <trkpt lat="49.84044" lon="4.78882">
        <ele>346</ele>
        <time>2022-07-15T06:33:23.000Z</time>
      </trkpt>
      <trkpt lat="49.84045" lon="4.78885">
        <ele>346</ele>
        <time>2022-07-15T06:33:24.000Z</time>
      </trkpt>
      <trkpt lat="49.84046" lon="4.78888">
        <ele>346</ele>
        <time>2022-07-15T06:33:25.000Z</time>
      </trkpt>
      <trkpt lat="49.84048" lon="4.78889">
        <ele>346</ele>
        <time>2022-07-15T06:33:26.000Z</time>
      </trkpt>
      <trkpt lat="49.8405" lon="4.78889">
        <ele>346</ele>
        <time>2022-07-15T06:33:27.000Z</time>
      </trkpt>
      <trkpt lat="49.84051" lon="4.78889">
        <ele>346</ele>
        <time>2022-07-15T06:33:28.000Z</time>
      </trkpt>
      <trkpt lat="49.84054" lon="4.78889">
        <ele>346</ele>
        <time>2022-07-15T06:33:29.000Z</time>
      </trkpt>
      <trkpt lat="49.84056" lon="4.78888">
        <ele>346</ele>
        <time>2022-07-15T06:33:30.000Z</time>
      </trkpt>
      <trkpt lat="49.84058" lon="4.78888">
        <ele>347</ele>
        <time>2022-07-15T06:33:31.000Z</time>
      </trkpt>
      <trkpt lat="49.84061" lon="4.78888">
        <ele>347</ele>
        <time>2022-07-15T06:33:32.000Z</time>
      </trkpt>
      <trkpt lat="49.84063" lon="4.78888">
        <ele>347</ele>
        <time>2022-07-15T06:33:33.000Z</time>
      </trkpt>
      <trkpt lat="49.84065" lon="4.78889">
        <ele>347</ele>
        <time>2022-07-15T06:33:34.000Z</time>
      </trkpt>
      <trkpt lat="49.84068" lon="4.7889">
        <ele>347</ele>
        <time>2022-07-15T06:33:35.000Z</time>
      </trkpt>
      <trkpt lat="49.84071" lon="4.78891">
        <ele>347</ele>
        <time>2022-07-15T06:33:36.000Z</time>
      </trkpt>
      <trkpt lat="49.84074" lon="4.78893">
        <ele>348</ele>
        <time>2022-07-15T06:33:37.000Z</time>
      </trkpt>
      <trkpt lat="49.84077" lon="4.78894">
        <ele>348</ele>
        <time>2022-07-15T06:33:38.000Z</time>
      </trkpt>
      <trkpt lat="49.8408" lon="4.78896">
        <ele>348</ele>
        <time>2022-07-15T06:33:39.000Z</time>
      </trkpt>
      <trkpt lat="49.84083" lon="4.78897">
        <ele>348</ele>
        <time>2022-07-15T06:33:40.000Z</time>
      </trkpt>
      <trkpt lat="49.84086" lon="4.78899">
        <ele>348</ele>
        <time>2022-07-15T06:33:41.000Z</time>
      </trkpt>
      <trkpt lat="49.84089" lon="4.789">
        <ele>349</ele>
        <time>2022-07-15T06:33:42.000Z</time>
      </trkpt>
      <trkpt lat="49.84092" lon="4.78902">
        <ele>349</ele>
        <time>2022-07-15T06:33:43.000Z</time>
      </trkpt>
      <trkpt lat="49.84096" lon="4.78903">
        <ele>349</ele>
        <time>2022-07-15T06:33:44.000Z</time>
      </trkpt>
      <trkpt lat="49.84099" lon="4.78904">
        <ele>349</ele>
        <time>2022-07-15T06:33:45.000Z</time>
      </trkpt>
      <trkpt lat="49.84102" lon="4.78904">
        <ele>349</ele>
        <time>2022-07-15T06:33:46.000Z</time>
      </trkpt>
      <trkpt lat="49.84105" lon="4.78905">
        <ele>350</ele>
        <time>2022-07-15T06:33:47.000Z</time>
      </trkpt>
      <trkpt lat="49.84109" lon="4.78906">
        <ele>350</ele>
        <time>2022-07-15T06:33:48.000Z</time>
      </trkpt>
      <trkpt lat="49.84112" lon="4.78907">
        <ele>350</ele>
        <time>2022-07-15T06:33:49.000Z</time>
      </trkpt>
      <trkpt lat="49.84115" lon="4.78907">
        <ele>350</ele>
        <time>2022-07-15T06:33:50.000Z</time>
      </trkpt>
      <trkpt lat="49.84118" lon="4.78908">
        <ele>350</ele>
        <time>2022-07-15T06:33:51.000Z</time>
      </trkpt>
      <trkpt lat="49.84122" lon="4.7891">
        <ele>350</ele>
        <time>2022-07-15T06:33:52.000Z</time>
      </trkpt>
      <trkpt lat="49.84125" lon="4.7891">
        <ele>351</ele>
        <time>2022-07-15T06:33:53.000Z</time>
      </trkpt>
      <trkpt lat="49.84129" lon="4.78911">
        <ele>351</ele>
        <time>2022-07-15T06:33:54.000Z</time>
      </trkpt>
      <trkpt lat="49.84132" lon="4.78912">
        <ele>351</ele>
        <time>2022-07-15T06:33:55.000Z</time>
      </trkpt>
      <trkpt lat="49.84136" lon="4.78914">
        <ele>351</ele>
        <time>2022-07-15T06:33:56.000Z</time>
      </trkpt>
      <trkpt lat="49.84139" lon="4.78915">
        <ele>351</ele>
        <time>2022-07-15T06:33:57.000Z</time>
      </trkpt>
      <trkpt lat="49.84143" lon="4.78917">
        <ele>351</ele>
        <time>2022-07-15T06:33:58.000Z</time>
      </trkpt>
      <trkpt lat="49.84146" lon="4.78918">
        <ele>352</ele>
        <time>2022-07-15T06:33:59.000Z</time>
      </trkpt>
      <trkpt lat="49.8415" lon="4.78919">
        <ele>352</ele>
        <time>2022-07-15T06:34:00.000Z</time>
      </trkpt>
      <trkpt lat="49.84153" lon="4.78921">
        <ele>352</ele>
        <time>2022-07-15T06:34:01.000Z</time>
      </trkpt>
      <trkpt lat="49.84156" lon="4.78922">
        <ele>352</ele>
        <time>2022-07-15T06:34:02.000Z</time>
      </trkpt>
      <trkpt lat="49.84159" lon="4.78924">
        <ele>352</ele>
        <time>2022-07-15T06:34:03.000Z</time>
      </trkpt>
      <trkpt lat="49.84163" lon="4.78927">
        <ele>353</ele>
        <time>2022-07-15T06:34:04.000Z</time>
      </trkpt>
      <trkpt lat="49.84166" lon="4.78928">
        <ele>353</ele>
        <time>2022-07-15T06:34:05.000Z</time>
      </trkpt>
      <trkpt lat="49.84168" lon="4.78931">
        <ele>353</ele>
        <time>2022-07-15T06:34:06.000Z</time>
      </trkpt>
      <trkpt lat="49.84171" lon="4.78933">
        <ele>353</ele>
        <time>2022-07-15T06:34:07.000Z</time>
      </trkpt>
      <trkpt lat="49.84173" lon="4.78935">
        <ele>354</ele>
        <time>2022-07-15T06:34:08.000Z</time>
      </trkpt>
      <trkpt lat="49.84174" lon="4.78936">
        <ele>354</ele>
        <time>2022-07-15T06:34:09.000Z</time>
      </trkpt>
      <trkpt lat="49.84176" lon="4.78937">
        <ele>354</ele>
        <time>2022-07-15T06:34:10.000Z</time>
      </trkpt>
      <trkpt lat="49.84179" lon="4.78938">
        <ele>354</ele>
        <time>2022-07-15T06:34:11.000Z</time>
      </trkpt>
      <trkpt lat="49.84182" lon="4.78939">
        <ele>355</ele>
        <time>2022-07-15T06:34:12.000Z</time>
      </trkpt>
      <trkpt lat="49.84185" lon="4.78939">
        <ele>355</ele>
        <time>2022-07-15T06:34:13.000Z</time>
      </trkpt>
      <trkpt lat="49.84188" lon="4.78941">
        <ele>356</ele>
        <time>2022-07-15T06:34:14.000Z</time>
      </trkpt>
      <trkpt lat="49.8419" lon="4.78942">
        <ele>356</ele>
        <time>2022-07-15T06:34:15.000Z</time>
      </trkpt>
      <trkpt lat="49.84193" lon="4.78943">
        <ele>356</ele>
        <time>2022-07-15T06:34:16.000Z</time>
      </trkpt>
      <trkpt lat="49.84196" lon="4.78944">
        <ele>356</ele>
        <time>2022-07-15T06:34:17.000Z</time>
      </trkpt>
      <trkpt lat="49.84199" lon="4.78946">
        <ele>357</ele>
        <time>2022-07-15T06:34:18.000Z</time>
      </trkpt>
      <trkpt lat="49.84202" lon="4.78948">
        <ele>357</ele>
        <time>2022-07-15T06:34:19.000Z</time>
      </trkpt>
      <trkpt lat="49.84206" lon="4.7895">
        <ele>357</ele>
        <time>2022-07-15T06:34:20.000Z</time>
      </trkpt>
      <trkpt lat="49.84208" lon="4.78952">
        <ele>358</ele>
        <time>2022-07-15T06:34:21.000Z</time>
      </trkpt>
      <trkpt lat="49.84211" lon="4.78954">
        <ele>358</ele>
        <time>2022-07-15T06:34:22.000Z</time>
      </trkpt>
      <trkpt lat="49.84213" lon="4.78955">
        <ele>358</ele>
        <time>2022-07-15T06:34:23.000Z</time>
      </trkpt>
      <trkpt lat="49.84216" lon="4.78957">
        <ele>358</ele>
        <time>2022-07-15T06:34:24.000Z</time>
      </trkpt>
      <trkpt lat="49.84219" lon="4.7896">
        <ele>358</ele>
        <time>2022-07-15T06:34:25.000Z</time>
      </trkpt>
      <trkpt lat="49.84221" lon="4.78963">
        <ele>359</ele>
        <time>2022-07-15T06:34:26.000Z</time>
      </trkpt>
      <trkpt lat="49.84223" lon="4.78966">
        <ele>359</ele>
        <time>2022-07-15T06:34:27.000Z</time>
      </trkpt>
      <trkpt lat="49.84226" lon="4.78968">
        <ele>359</ele>
        <time>2022-07-15T06:34:28.000Z</time>
      </trkpt>
      <trkpt lat="49.84229" lon="4.78971">
        <ele>359</ele>
        <time>2022-07-15T06:34:29.000Z</time>
      </trkpt>
      <trkpt lat="49.84231" lon="4.78974">
        <ele>359</ele>
        <time>2022-07-15T06:34:30.000Z</time>
      </trkpt>
      <trkpt lat="49.84234" lon="4.78977">
        <ele>360</ele>
        <time>2022-07-15T06:34:31.000Z</time>
      </trkpt>
      <trkpt lat="49.84237" lon="4.7898">
        <ele>360</ele>
        <time>2022-07-15T06:34:32.000Z</time>
      </trkpt>
      <trkpt lat="49.8424" lon="4.78983">
        <ele>360</ele>
        <time>2022-07-15T06:34:33.000Z</time>
      </trkpt>
      <trkpt lat="49.84242" lon="4.78986">
        <ele>360</ele>
        <time>2022-07-15T06:34:34.000Z</time>
      </trkpt>
      <trkpt lat="49.84245" lon="4.78989">
        <ele>360</ele>
        <time>2022-07-15T06:34:35.000Z</time>
      </trkpt>
      <trkpt lat="49.84248" lon="4.78992">
        <ele>361</ele>
        <time>2022-07-15T06:34:36.000Z</time>
      </trkpt>
      <trkpt lat="49.8425" lon="4.78996">
        <ele>361</ele>
        <time>2022-07-15T06:34:37.000Z</time>
      </trkpt>
      <trkpt lat="49.84253" lon="4.78999">
        <ele>361</ele>
        <time>2022-07-15T06:34:38.000Z</time>
      </trkpt>
      <trkpt lat="49.84256" lon="4.79003">
        <ele>361</ele>
        <time>2022-07-15T06:34:39.000Z</time>
      </trkpt>
      <trkpt lat="49.84258" lon="4.79006">
        <ele>361</ele>
        <time>2022-07-15T06:34:40.000Z</time>
      </trkpt>
      <trkpt lat="49.84261" lon="4.7901">
        <ele>361</ele>
        <time>2022-07-15T06:34:41.000Z</time>
      </trkpt>
      <trkpt lat="49.84263" lon="4.79014">
        <ele>362</ele>
        <time>2022-07-15T06:34:42.000Z</time>
      </trkpt>
      <trkpt lat="49.84266" lon="4.79018">
        <ele>362</ele>
        <time>2022-07-15T06:34:43.000Z</time>
      </trkpt>
      <trkpt lat="49.84268" lon="4.79021">
        <ele>362</ele>
        <time>2022-07-15T06:34:44.000Z</time>
      </trkpt>
      <trkpt lat="49.84271" lon="4.79025">
        <ele>362</ele>
        <time>2022-07-15T06:34:45.000Z</time>
      </trkpt>
      <trkpt lat="49.84273" lon="4.79029">
        <ele>362</ele>
        <time>2022-07-15T06:34:46.000Z</time>
      </trkpt>
      <trkpt lat="49.84276" lon="4.79032">
        <ele>363</ele>
        <time>2022-07-15T06:34:47.000Z</time>
      </trkpt>
      <trkpt lat="49.84278" lon="4.79035">
        <ele>363</ele>
        <time>2022-07-15T06:34:48.000Z</time>
      </trkpt>
      <trkpt lat="49.84281" lon="4.79039">
        <ele>364</ele>
        <time>2022-07-15T06:34:49.000Z</time>
      </trkpt>
      <trkpt lat="49.84284" lon="4.79042">
        <ele>364</ele>
        <time>2022-07-15T06:34:50.000Z</time>
      </trkpt>
      <trkpt lat="49.84287" lon="4.79045">
        <ele>364</ele>
        <time>2022-07-15T06:34:51.000Z</time>
      </trkpt>
      <trkpt lat="49.8429" lon="4.79048">
        <ele>365</ele>
        <time>2022-07-15T06:34:52.000Z</time>
      </trkpt>
      <trkpt lat="49.84293" lon="4.79051">
        <ele>365</ele>
        <time>2022-07-15T06:34:53.000Z</time>
      </trkpt>
      <trkpt lat="49.84296" lon="4.79053">
        <ele>365</ele>
        <time>2022-07-15T06:34:54.000Z</time>
      </trkpt>
      <trkpt lat="49.84299" lon="4.79056">
        <ele>366</ele>
        <time>2022-07-15T06:34:55.000Z</time>
      </trkpt>
      <trkpt lat="49.84302" lon="4.79058">
        <ele>366</ele>
        <time>2022-07-15T06:34:56.000Z</time>
      </trkpt>
      <trkpt lat="49.84305" lon="4.7906">
        <ele>366</ele>
        <time>2022-07-15T06:34:57.000Z</time>
      </trkpt>
      <trkpt lat="49.84308" lon="4.79062">
        <ele>366</ele>
        <time>2022-07-15T06:34:58.000Z</time>
      </trkpt>
      <trkpt lat="49.8431" lon="4.79064">
        <ele>367</ele>
        <time>2022-07-15T06:34:59.000Z</time>
      </trkpt>
      <trkpt lat="49.84313" lon="4.79065">
        <ele>367</ele>
        <time>2022-07-15T06:35:00.000Z</time>
      </trkpt>
      <trkpt lat="49.84315" lon="4.79067">
        <ele>367</ele>
        <time>2022-07-15T06:35:01.000Z</time>
      </trkpt>
      <trkpt lat="49.84318" lon="4.79069">
        <ele>368</ele>
        <time>2022-07-15T06:35:02.000Z</time>
      </trkpt>
      <trkpt lat="49.84321" lon="4.79071">
        <ele>368</ele>
        <time>2022-07-15T06:35:03.000Z</time>
      </trkpt>
      <trkpt lat="49.84324" lon="4.79073">
        <ele>368</ele>
        <time>2022-07-15T06:35:04.000Z</time>
      </trkpt>
      <trkpt lat="49.84327" lon="4.79075">
        <ele>369</ele>
        <time>2022-07-15T06:35:05.000Z</time>
      </trkpt>
      <trkpt lat="49.84329" lon="4.79077">
        <ele>369</ele>
        <time>2022-07-15T06:35:06.000Z</time>
      </trkpt>
      <trkpt lat="49.84331" lon="4.79078">
        <ele>369</ele>
        <time>2022-07-15T06:35:07.000Z</time>
      </trkpt>
      <trkpt lat="49.84333" lon="4.79079">
        <ele>370</ele>
        <time>2022-07-15T06:35:08.000Z</time>
      </trkpt>
      <trkpt lat="49.84336" lon="4.79081">
        <ele>370</ele>
        <time>2022-07-15T06:35:09.000Z</time>
      </trkpt>
      <trkpt lat="49.84339" lon="4.79083">
        <ele>370</ele>
        <time>2022-07-15T06:35:10.000Z</time>
      </trkpt>
      <trkpt lat="49.84343" lon="4.79085">
        <ele>370</ele>
        <time>2022-07-15T06:35:11.000Z</time>
      </trkpt>
      <trkpt lat="49.84346" lon="4.79087">
        <ele>370</ele>
        <time>2022-07-15T06:35:12.000Z</time>
      </trkpt>
      <trkpt lat="49.84349" lon="4.79089">
        <ele>371</ele>
        <time>2022-07-15T06:35:13.000Z</time>
      </trkpt>
      <trkpt lat="49.84352" lon="4.79091">
        <ele>371</ele>
        <time>2022-07-15T06:35:14.000Z</time>
      </trkpt>
      <trkpt lat="49.84355" lon="4.79092">
        <ele>371</ele>
        <time>2022-07-15T06:35:15.000Z</time>
      </trkpt>
      <trkpt lat="49.84359" lon="4.79094">
        <ele>371</ele>
        <time>2022-07-15T06:35:16.000Z</time>
      </trkpt>
      <trkpt lat="49.84362" lon="4.79096">
        <ele>371</ele>
        <time>2022-07-15T06:35:17.000Z</time>
      </trkpt>
      <trkpt lat="49.84365" lon="4.79098">
        <ele>371</ele>
        <time>2022-07-15T06:35:18.000Z</time>
      </trkpt>
      <trkpt lat="49.84368" lon="4.79099">
        <ele>371</ele>
        <time>2022-07-15T06:35:19.000Z</time>
      </trkpt>
      <trkpt lat="49.84371" lon="4.79101">
        <ele>372</ele>
        <time>2022-07-15T06:35:20.000Z</time>
      </trkpt>
      <trkpt lat="49.84375" lon="4.79103">
        <ele>372</ele>
        <time>2022-07-15T06:35:21.000Z</time>
      </trkpt>
      <trkpt lat="49.84378" lon="4.79106">
        <ele>372</ele>
        <time>2022-07-15T06:35:22.000Z</time>
      </trkpt>
      <trkpt lat="49.84381" lon="4.79108">
        <ele>373</ele>
        <time>2022-07-15T06:35:23.000Z</time>
      </trkpt>
      <trkpt lat="49.84384" lon="4.79111">
        <ele>373</ele>
        <time>2022-07-15T06:35:24.000Z</time>
      </trkpt>
      <trkpt lat="49.84386" lon="4.79113">
        <ele>373</ele>
        <time>2022-07-15T06:35:25.000Z</time>
      </trkpt>
      <trkpt lat="49.84389" lon="4.79117">
        <ele>373</ele>
        <time>2022-07-15T06:35:26.000Z</time>
      </trkpt>
      <trkpt lat="49.84392" lon="4.7912">
        <ele>373</ele>
        <time>2022-07-15T06:35:27.000Z</time>
      </trkpt>
      <trkpt lat="49.84394" lon="4.79124">
        <ele>373</ele>
        <time>2022-07-15T06:35:28.000Z</time>
      </trkpt>
      <trkpt lat="49.84397" lon="4.79127">
        <ele>373</ele>
        <time>2022-07-15T06:35:29.000Z</time>
      </trkpt>
      <trkpt lat="49.84399" lon="4.79131">
        <ele>374</ele>
        <time>2022-07-15T06:35:30.000Z</time>
      </trkpt>
      <trkpt lat="49.84402" lon="4.79135">
        <ele>374</ele>
        <time>2022-07-15T06:35:31.000Z</time>
      </trkpt>
      <trkpt lat="49.84404" lon="4.7914">
        <ele>374</ele>
        <time>2022-07-15T06:35:32.000Z</time>
      </trkpt>
      <trkpt lat="49.84406" lon="4.79144">
        <ele>374</ele>
        <time>2022-07-15T06:35:33.000Z</time>
      </trkpt>
      <trkpt lat="49.84408" lon="4.79149">
        <ele>374</ele>
        <time>2022-07-15T06:35:34.000Z</time>
      </trkpt>
      <trkpt lat="49.8441" lon="4.79153">
        <ele>374</ele>
        <time>2022-07-15T06:35:35.000Z</time>
      </trkpt>
      <trkpt lat="49.84412" lon="4.79157">
        <ele>374</ele>
        <time>2022-07-15T06:35:36.000Z</time>
      </trkpt>
      <trkpt lat="49.84415" lon="4.79161">
        <ele>374</ele>
        <time>2022-07-15T06:35:37.000Z</time>
      </trkpt>
      <trkpt lat="49.84417" lon="4.79165">
        <ele>375</ele>
        <time>2022-07-15T06:35:38.000Z</time>
      </trkpt>
      <trkpt lat="49.84419" lon="4.79169">
        <ele>375</ele>
        <time>2022-07-15T06:35:39.000Z</time>
      </trkpt>
      <trkpt lat="49.84422" lon="4.79173">
        <ele>375</ele>
        <time>2022-07-15T06:35:40.000Z</time>
      </trkpt>
      <trkpt lat="49.84424" lon="4.79177">
        <ele>375</ele>
        <time>2022-07-15T06:35:41.000Z</time>
      </trkpt>
      <trkpt lat="49.84426" lon="4.79182">
        <ele>375</ele>
        <time>2022-07-15T06:35:42.000Z</time>
      </trkpt>
      <trkpt lat="49.84429" lon="4.79186">
        <ele>375</ele>
        <time>2022-07-15T06:35:43.000Z</time>
      </trkpt>
      <trkpt lat="49.84431" lon="4.7919">
        <ele>375</ele>
        <time>2022-07-15T06:35:44.000Z</time>
      </trkpt>
      <trkpt lat="49.84433" lon="4.79194">
        <ele>375</ele>
        <time>2022-07-15T06:35:45.000Z</time>
      </trkpt>
      <trkpt lat="49.84435" lon="4.79199">
        <ele>375</ele>
        <time>2022-07-15T06:35:46.000Z</time>
      </trkpt>
      <trkpt lat="49.84436" lon="4.79203">
        <ele>375</ele>
        <time>2022-07-15T06:35:47.000Z</time>
      </trkpt>
      <trkpt lat="49.84438" lon="4.79208">
        <ele>375</ele>
        <time>2022-07-15T06:35:48.000Z</time>
      </trkpt>
      <trkpt lat="49.84439" lon="4.79213">
        <ele>375</ele>
        <time>2022-07-15T06:35:49.000Z</time>
      </trkpt>
      <trkpt lat="49.8444" lon="4.79218">
        <ele>375</ele>
        <time>2022-07-15T06:35:50.000Z</time>
      </trkpt>
      <trkpt lat="49.84441" lon="4.79224">
        <ele>376</ele>
        <time>2022-07-15T06:35:51.000Z</time>
      </trkpt>
      <trkpt lat="49.84442" lon="4.79229">
        <ele>376</ele>
        <time>2022-07-15T06:35:52.000Z</time>
      </trkpt>
      <trkpt lat="49.84444" lon="4.79235">
        <ele>376</ele>
        <time>2022-07-15T06:35:53.000Z</time>
      </trkpt>
      <trkpt lat="49.84445" lon="4.79241">
        <ele>376</ele>
        <time>2022-07-15T06:35:54.000Z</time>
      </trkpt>
      <trkpt lat="49.84446" lon="4.79246">
        <ele>376</ele>
        <time>2022-07-15T06:35:55.000Z</time>
      </trkpt>
      <trkpt lat="49.84447" lon="4.79251">
        <ele>376</ele>
        <time>2022-07-15T06:35:56.000Z</time>
      </trkpt>
      <trkpt lat="49.84448" lon="4.79257">
        <ele>376</ele>
        <time>2022-07-15T06:35:57.000Z</time>
      </trkpt>
      <trkpt lat="49.84449" lon="4.79262">
        <ele>376</ele>
        <time>2022-07-15T06:35:58.000Z</time>
      </trkpt>
      <trkpt lat="49.84451" lon="4.79267">
        <ele>376</ele>
        <time>2022-07-15T06:35:59.000Z</time>
      </trkpt>
      <trkpt lat="49.84452" lon="4.79273">
        <ele>376</ele>
        <time>2022-07-15T06:36:00.000Z</time>
      </trkpt>
      <trkpt lat="49.84453" lon="4.79278">
        <ele>376</ele>
        <time>2022-07-15T06:36:01.000Z</time>
      </trkpt>
      <trkpt lat="49.84455" lon="4.79284">
        <ele>376</ele>
        <time>2022-07-15T06:36:02.000Z</time>
      </trkpt>
      <trkpt lat="49.84457" lon="4.79288">
        <ele>376</ele>
        <time>2022-07-15T06:36:03.000Z</time>
      </trkpt>
      <trkpt lat="49.84458" lon="4.79293">
        <ele>377</ele>
        <time>2022-07-15T06:36:04.000Z</time>
      </trkpt>
      <trkpt lat="49.84459" lon="4.79298">
        <ele>377</ele>
        <time>2022-07-15T06:36:05.000Z</time>
      </trkpt>
      <trkpt lat="49.8446" lon="4.79303">
        <ele>377</ele>
        <time>2022-07-15T06:36:06.000Z</time>
      </trkpt>
      <trkpt lat="49.84461" lon="4.79309">
        <ele>377</ele>
        <time>2022-07-15T06:36:07.000Z</time>
      </trkpt>
      <trkpt lat="49.84462" lon="4.79315">
        <ele>377</ele>
        <time>2022-07-15T06:36:08.000Z</time>
      </trkpt>
      <trkpt lat="49.84463" lon="4.7932">
        <ele>377</ele>
        <time>2022-07-15T06:36:09.000Z</time>
      </trkpt>
      <trkpt lat="49.84465" lon="4.79325">
        <ele>378</ele>
        <time>2022-07-15T06:36:10.000Z</time>
      </trkpt>
      <trkpt lat="49.84466" lon="4.7933">
        <ele>378</ele>
        <time>2022-07-15T06:36:11.000Z</time>
      </trkpt>
      <trkpt lat="49.84468" lon="4.79336">
        <ele>378</ele>
        <time>2022-07-15T06:36:12.000Z</time>
      </trkpt>
      <trkpt lat="49.84469" lon="4.79342">
        <ele>378</ele>
        <time>2022-07-15T06:36:13.000Z</time>
      </trkpt>
      <trkpt lat="49.8447" lon="4.79347">
        <ele>379</ele>
        <time>2022-07-15T06:36:14.000Z</time>
      </trkpt>
      <trkpt lat="49.84472" lon="4.79352">
        <ele>379</ele>
        <time>2022-07-15T06:36:15.000Z</time>
      </trkpt>
      <trkpt lat="49.84474" lon="4.79357">
        <ele>379</ele>
        <time>2022-07-15T06:36:16.000Z</time>
      </trkpt>
      <trkpt lat="49.84475" lon="4.79363">
        <ele>379</ele>
        <time>2022-07-15T06:36:17.000Z</time>
      </trkpt>
      <trkpt lat="49.84476" lon="4.79369">
        <ele>380</ele>
        <time>2022-07-15T06:36:18.000Z</time>
      </trkpt>
      <trkpt lat="49.84477" lon="4.79375">
        <ele>380</ele>
        <time>2022-07-15T06:36:19.000Z</time>
      </trkpt>
      <trkpt lat="49.84478" lon="4.79381">
        <ele>380</ele>
        <time>2022-07-15T06:36:20.000Z</time>
      </trkpt>
      <trkpt lat="49.84479" lon="4.79387">
        <ele>380</ele>
        <time>2022-07-15T06:36:21.000Z</time>
      </trkpt>
      <trkpt lat="49.84479" lon="4.79394">
        <ele>380</ele>
        <time>2022-07-15T06:36:22.000Z</time>
      </trkpt>
      <trkpt lat="49.84479" lon="4.794">
        <ele>380</ele>
        <time>2022-07-15T06:36:23.000Z</time>
      </trkpt>
      <trkpt lat="49.8448" lon="4.79406">
        <ele>380</ele>
        <time>2022-07-15T06:36:24.000Z</time>
      </trkpt>
      <trkpt lat="49.84479" lon="4.79412">
        <ele>380</ele>
        <time>2022-07-15T06:36:25.000Z</time>
      </trkpt>
      <trkpt lat="49.84479" lon="4.79417">
        <ele>380</ele>
        <time>2022-07-15T06:36:26.000Z</time>
      </trkpt>
      <trkpt lat="49.84478" lon="4.79422">
        <ele>380</ele>
        <time>2022-07-15T06:36:27.000Z</time>
      </trkpt>
      <trkpt lat="49.84477" lon="4.79427">
        <ele>380</ele>
        <time>2022-07-15T06:36:28.000Z</time>
      </trkpt>
      <trkpt lat="49.84477" lon="4.79433">
        <ele>381</ele>
        <time>2022-07-15T06:36:29.000Z</time>
      </trkpt>
      <trkpt lat="49.84477" lon="4.79439">
        <ele>381</ele>
        <time>2022-07-15T06:36:30.000Z</time>
      </trkpt>
      <trkpt lat="49.84476" lon="4.79445">
        <ele>381</ele>
        <time>2022-07-15T06:36:31.000Z</time>
      </trkpt>
      <trkpt lat="49.84475" lon="4.79451">
        <ele>381</ele>
        <time>2022-07-15T06:36:32.000Z</time>
      </trkpt>
      <trkpt lat="49.84474" lon="4.79456">
        <ele>382</ele>
        <time>2022-07-15T06:36:33.000Z</time>
      </trkpt>
      <trkpt lat="49.84471" lon="4.79461">
        <ele>382</ele>
        <time>2022-07-15T06:36:34.000Z</time>
      </trkpt>
      <trkpt lat="49.84469" lon="4.79466">
        <ele>382</ele>
        <time>2022-07-15T06:36:35.000Z</time>
      </trkpt>
      <trkpt lat="49.84467" lon="4.7947">
        <ele>383</ele>
        <time>2022-07-15T06:36:36.000Z</time>
      </trkpt>
      <trkpt lat="49.84465" lon="4.79475">
        <ele>383</ele>
        <time>2022-07-15T06:36:37.000Z</time>
      </trkpt>
      <trkpt lat="49.84464" lon="4.79479">
        <ele>383</ele>
        <time>2022-07-15T06:36:38.000Z</time>
      </trkpt>
      <trkpt lat="49.84463" lon="4.79483">
        <ele>383</ele>
        <time>2022-07-15T06:36:39.000Z</time>
      </trkpt>
      <trkpt lat="49.84463" lon="4.79487">
        <ele>384</ele>
        <time>2022-07-15T06:36:40.000Z</time>
      </trkpt>
      <trkpt lat="49.84464" lon="4.79492">
        <ele>384</ele>
        <time>2022-07-15T06:36:41.000Z</time>
      </trkpt>
      <trkpt lat="49.84465" lon="4.79496">
        <ele>384</ele>
        <time>2022-07-15T06:36:42.000Z</time>
      </trkpt>
      <trkpt lat="49.84466" lon="4.79499">
        <ele>385</ele>
        <time>2022-07-15T06:36:43.000Z</time>
      </trkpt>
      <trkpt lat="49.84467" lon="4.79503">
        <ele>385</ele>
        <time>2022-07-15T06:36:44.000Z</time>
      </trkpt>
      <trkpt lat="49.84467" lon="4.79509">
        <ele>385</ele>
        <time>2022-07-15T06:36:45.000Z</time>
      </trkpt>
      <trkpt lat="49.84468" lon="4.79516">
        <ele>385</ele>
        <time>2022-07-15T06:36:46.000Z</time>
      </trkpt>
      <trkpt lat="49.84468" lon="4.79523">
        <ele>385</ele>
        <time>2022-07-15T06:36:47.000Z</time>
      </trkpt>
      <trkpt lat="49.8447" lon="4.7953">
        <ele>386</ele>
        <time>2022-07-15T06:36:48.000Z</time>
      </trkpt>
      <trkpt lat="49.8447" lon="4.79537">
        <ele>386</ele>
        <time>2022-07-15T06:36:49.000Z</time>
      </trkpt>
      <trkpt lat="49.8447" lon="4.79544">
        <ele>386</ele>
        <time>2022-07-15T06:36:50.000Z</time>
      </trkpt>
      <trkpt lat="49.84469" lon="4.79551">
        <ele>386</ele>
        <time>2022-07-15T06:36:51.000Z</time>
      </trkpt>
      <trkpt lat="49.84468" lon="4.79558">
        <ele>386</ele>
        <time>2022-07-15T06:36:52.000Z</time>
      </trkpt>
      <trkpt lat="49.84467" lon="4.79564">
        <ele>386</ele>
        <time>2022-07-15T06:36:53.000Z</time>
      </trkpt>
      <trkpt lat="49.84466" lon="4.79571">
        <ele>386</ele>
        <time>2022-07-15T06:36:54.000Z</time>
      </trkpt>
      <trkpt lat="49.84466" lon="4.79577">
        <ele>386</ele>
        <time>2022-07-15T06:36:55.000Z</time>
      </trkpt>
      <trkpt lat="49.84465" lon="4.79584">
        <ele>386</ele>
        <time>2022-07-15T06:36:56.000Z</time>
      </trkpt>
      <trkpt lat="49.84465" lon="4.7959">
        <ele>386</ele>
        <time>2022-07-15T06:36:57.000Z</time>
      </trkpt>
      <trkpt lat="49.84464" lon="4.79597">
        <ele>386</ele>
        <time>2022-07-15T06:36:58.000Z</time>
      </trkpt>
      <trkpt lat="49.84463" lon="4.79603">
        <ele>385</ele>
        <time>2022-07-15T06:36:59.000Z</time>
      </trkpt>
      <trkpt lat="49.84461" lon="4.7961">
        <ele>385</ele>
        <time>2022-07-15T06:37:00.000Z</time>
      </trkpt>
      <trkpt lat="49.8446" lon="4.79617">
        <ele>385</ele>
        <time>2022-07-15T06:37:01.000Z</time>
      </trkpt>
      <trkpt lat="49.84459" lon="4.79623">
        <ele>385</ele>
        <time>2022-07-15T06:37:02.000Z</time>
      </trkpt>
      <trkpt lat="49.8446" lon="4.79628">
        <ele>384</ele>
        <time>2022-07-15T06:37:03.000Z</time>
      </trkpt>
      <trkpt lat="49.84462" lon="4.79632">
        <ele>384</ele>
        <time>2022-07-15T06:37:04.000Z</time>
      </trkpt>
      <trkpt lat="49.84464" lon="4.79635">
        <ele>384</ele>
        <time>2022-07-15T06:37:05.000Z</time>
      </trkpt>
      <trkpt lat="49.84467" lon="4.79636">
        <ele>384</ele>
        <time>2022-07-15T06:37:06.000Z</time>
      </trkpt>
      <trkpt lat="49.8447" lon="4.79635">
        <ele>384</ele>
        <time>2022-07-15T06:37:07.000Z</time>
      </trkpt>
      <trkpt lat="49.84474" lon="4.79635">
        <ele>384</ele>
        <time>2022-07-15T06:37:08.000Z</time>
      </trkpt>
      <trkpt lat="49.84478" lon="4.79636">
        <ele>383</ele>
        <time>2022-07-15T06:37:09.000Z</time>
      </trkpt>
      <trkpt lat="49.84481" lon="4.79636">
        <ele>383</ele>
        <time>2022-07-15T06:37:10.000Z</time>
      </trkpt>
      <trkpt lat="49.84484" lon="4.79635">
        <ele>383</ele>
        <time>2022-07-15T06:37:11.000Z</time>
      </trkpt>
      <trkpt lat="49.84488" lon="4.79635">
        <ele>383</ele>
        <time>2022-07-15T06:37:12.000Z</time>
      </trkpt>
      <trkpt lat="49.84491" lon="4.79638">
        <ele>383</ele>
        <time>2022-07-15T06:37:13.000Z</time>
      </trkpt>
      <trkpt lat="49.84494" lon="4.79642">
        <ele>383</ele>
        <time>2022-07-15T06:37:14.000Z</time>
      </trkpt>
      <trkpt lat="49.84496" lon="4.79647">
        <ele>383</ele>
        <time>2022-07-15T06:37:15.000Z</time>
      </trkpt>
      <trkpt lat="49.84497" lon="4.79653">
        <ele>383</ele>
        <time>2022-07-15T06:37:16.000Z</time>
      </trkpt>
      <trkpt lat="49.84498" lon="4.79659">
        <ele>383</ele>
        <time>2022-07-15T06:37:17.000Z</time>
      </trkpt>
      <trkpt lat="49.84498" lon="4.79665">
        <ele>383</ele>
        <time>2022-07-15T06:37:18.000Z</time>
      </trkpt>
      <trkpt lat="49.84499" lon="4.7967">
        <ele>383</ele>
        <time>2022-07-15T06:37:19.000Z</time>
      </trkpt>
      <trkpt lat="49.84499" lon="4.79676">
        <ele>383</ele>
        <time>2022-07-15T06:37:20.000Z</time>
      </trkpt>
      <trkpt lat="49.845" lon="4.79681">
        <ele>383</ele>
        <time>2022-07-15T06:37:21.000Z</time>
      </trkpt>
      <trkpt lat="49.84501" lon="4.79686">
        <ele>383</ele>
        <time>2022-07-15T06:37:22.000Z</time>
      </trkpt>
      <trkpt lat="49.84502" lon="4.79692">
        <ele>383</ele>
        <time>2022-07-15T06:37:23.000Z</time>
      </trkpt>
      <trkpt lat="49.84503" lon="4.79698">
        <ele>383</ele>
        <time>2022-07-15T06:37:24.000Z</time>
      </trkpt>
      <trkpt lat="49.84504" lon="4.79705">
        <ele>383</ele>
        <time>2022-07-15T06:37:25.000Z</time>
      </trkpt>
      <trkpt lat="49.84504" lon="4.79711">
        <ele>383</ele>
        <time>2022-07-15T06:37:26.000Z</time>
      </trkpt>
      <trkpt lat="49.84505" lon="4.79718">
        <ele>384</ele>
        <time>2022-07-15T06:37:27.000Z</time>
      </trkpt>
      <trkpt lat="49.84506" lon="4.79725">
        <ele>384</ele>
        <time>2022-07-15T06:37:28.000Z</time>
      </trkpt>
      <trkpt lat="49.84507" lon="4.79731">
        <ele>384</ele>
        <time>2022-07-15T06:37:29.000Z</time>
      </trkpt>
      <trkpt lat="49.84507" lon="4.79738">
        <ele>384</ele>
        <time>2022-07-15T06:37:30.000Z</time>
      </trkpt>
      <trkpt lat="49.84508" lon="4.79745">
        <ele>384</ele>
        <time>2022-07-15T06:37:31.000Z</time>
      </trkpt>
      <trkpt lat="49.84508" lon="4.79752">
        <ele>384</ele>
        <time>2022-07-15T06:37:32.000Z</time>
      </trkpt>
      <trkpt lat="49.84509" lon="4.79758">
        <ele>384</ele>
        <time>2022-07-15T06:37:33.000Z</time>
      </trkpt>
      <trkpt lat="49.84509" lon="4.79765">
        <ele>384</ele>
        <time>2022-07-15T06:37:34.000Z</time>
      </trkpt>
      <trkpt lat="49.8451" lon="4.79771">
        <ele>384</ele>
        <time>2022-07-15T06:37:35.000Z</time>
      </trkpt>
      <trkpt lat="49.8451" lon="4.79777">
        <ele>384</ele>
        <time>2022-07-15T06:37:36.000Z</time>
      </trkpt>
      <trkpt lat="49.84511" lon="4.79784">
        <ele>385</ele>
        <time>2022-07-15T06:37:37.000Z</time>
      </trkpt>
      <trkpt lat="49.84511" lon="4.7979">
        <ele>385</ele>
        <time>2022-07-15T06:37:38.000Z</time>
      </trkpt>
      <trkpt lat="49.84512" lon="4.79797">
        <ele>385</ele>
        <time>2022-07-15T06:37:39.000Z</time>
      </trkpt>
      <trkpt lat="49.84512" lon="4.79804">
        <ele>385</ele>
        <time>2022-07-15T06:37:40.000Z</time>
      </trkpt>
      <trkpt lat="49.84512" lon="4.7981">
        <ele>386</ele>
        <time>2022-07-15T06:37:41.000Z</time>
      </trkpt>
      <trkpt lat="49.84512" lon="4.79817">
        <ele>386</ele>
        <time>2022-07-15T06:37:42.000Z</time>
      </trkpt>
      <trkpt lat="49.84513" lon="4.79823">
        <ele>386</ele>
        <time>2022-07-15T06:37:43.000Z</time>
      </trkpt>
      <trkpt lat="49.84513" lon="4.79829">
        <ele>387</ele>
        <time>2022-07-15T06:37:44.000Z</time>
      </trkpt>
      <trkpt lat="49.84514" lon="4.79834">
        <ele>387</ele>
        <time>2022-07-15T06:37:45.000Z</time>
      </trkpt>
      <trkpt lat="49.84514" lon="4.7984">
        <ele>387</ele>
        <time>2022-07-15T06:37:46.000Z</time>
      </trkpt>
      <trkpt lat="49.84515" lon="4.79845">
        <ele>387</ele>
        <time>2022-07-15T06:37:47.000Z</time>
      </trkpt>
      <trkpt lat="49.84516" lon="4.79851">
        <ele>387</ele>
        <time>2022-07-15T06:37:48.000Z</time>
      </trkpt>
      <trkpt lat="49.84517" lon="4.79857">
        <ele>388</ele>
        <time>2022-07-15T06:37:49.000Z</time>
      </trkpt>
      <trkpt lat="49.84518" lon="4.79863">
        <ele>388</ele>
        <time>2022-07-15T06:37:50.000Z</time>
      </trkpt>
      <trkpt lat="49.8452" lon="4.79869">
        <ele>388</ele>
        <time>2022-07-15T06:37:51.000Z</time>
      </trkpt>
      <trkpt lat="49.84521" lon="4.79875">
        <ele>388</ele>
        <time>2022-07-15T06:37:52.000Z</time>
      </trkpt>
      <trkpt lat="49.84522" lon="4.79881">
        <ele>389</ele>
        <time>2022-07-15T06:37:53.000Z</time>
      </trkpt>
      <trkpt lat="49.84524" lon="4.79887">
        <ele>389</ele>
        <time>2022-07-15T06:37:54.000Z</time>
      </trkpt>
      <trkpt lat="49.84525" lon="4.79894">
        <ele>389</ele>
        <time>2022-07-15T06:37:55.000Z</time>
      </trkpt>
      <trkpt lat="49.84527" lon="4.799">
        <ele>389</ele>
        <time>2022-07-15T06:37:56.000Z</time>
      </trkpt>
      <trkpt lat="49.84529" lon="4.79906">
        <ele>390</ele>
        <time>2022-07-15T06:37:57.000Z</time>
      </trkpt>
      <trkpt lat="49.8453" lon="4.79911">
        <ele>390</ele>
        <time>2022-07-15T06:37:58.000Z</time>
      </trkpt>
      <trkpt lat="49.84532" lon="4.79918">
        <ele>390</ele>
        <time>2022-07-15T06:37:59.000Z</time>
      </trkpt>
      <trkpt lat="49.84534" lon="4.79924">
        <ele>390</ele>
        <time>2022-07-15T06:38:00.000Z</time>
      </trkpt>
      <trkpt lat="49.84536" lon="4.7993">
        <ele>390</ele>
        <time>2022-07-15T06:38:01.000Z</time>
      </trkpt>
      <trkpt lat="49.84538" lon="4.79936">
        <ele>390</ele>
        <time>2022-07-15T06:38:02.000Z</time>
      </trkpt>
      <trkpt lat="49.84539" lon="4.79942">
        <ele>390</ele>
        <time>2022-07-15T06:38:03.000Z</time>
      </trkpt>
      <trkpt lat="49.84541" lon="4.79949">
        <ele>390</ele>
        <time>2022-07-15T06:38:04.000Z</time>
      </trkpt>
      <trkpt lat="49.84543" lon="4.79955">
        <ele>390</ele>
        <time>2022-07-15T06:38:05.000Z</time>
      </trkpt>
      <trkpt lat="49.84545" lon="4.79961">
        <ele>390</ele>
        <time>2022-07-15T06:38:06.000Z</time>
      </trkpt>
      <trkpt lat="49.84547" lon="4.79968">
        <ele>390</ele>
        <time>2022-07-15T06:38:07.000Z</time>
      </trkpt>
      <trkpt lat="49.84548" lon="4.79974">
        <ele>390</ele>
        <time>2022-07-15T06:38:08.000Z</time>
      </trkpt>
      <trkpt lat="49.8455" lon="4.7998">
        <ele>391</ele>
        <time>2022-07-15T06:38:09.000Z</time>
      </trkpt>
      <trkpt lat="49.84552" lon="4.79986">
        <ele>391</ele>
        <time>2022-07-15T06:38:10.000Z</time>
      </trkpt>
      <trkpt lat="49.84554" lon="4.79992">
        <ele>391</ele>
        <time>2022-07-15T06:38:11.000Z</time>
      </trkpt>
      <trkpt lat="49.84556" lon="4.79998">
        <ele>391</ele>
        <time>2022-07-15T06:38:12.000Z</time>
      </trkpt>
      <trkpt lat="49.84557" lon="4.80004">
        <ele>391</ele>
        <time>2022-07-15T06:38:13.000Z</time>
      </trkpt>
      <trkpt lat="49.84559" lon="4.8001">
        <ele>391</ele>
        <time>2022-07-15T06:38:14.000Z</time>
      </trkpt>
      <trkpt lat="49.84561" lon="4.80015">
        <ele>391</ele>
        <time>2022-07-15T06:38:15.000Z</time>
      </trkpt>
      <trkpt lat="49.84563" lon="4.8002">
        <ele>391</ele>
        <time>2022-07-15T06:38:16.000Z</time>
      </trkpt>
      <trkpt lat="49.84564" lon="4.80025">
        <ele>391</ele>
        <time>2022-07-15T06:38:17.000Z</time>
      </trkpt>
      <trkpt lat="49.84566" lon="4.8003">
        <ele>391</ele>
        <time>2022-07-15T06:38:18.000Z</time>
      </trkpt>
      <trkpt lat="49.84568" lon="4.80035">
        <ele>391</ele>
        <time>2022-07-15T06:38:19.000Z</time>
      </trkpt>
      <trkpt lat="49.84569" lon="4.8004">
        <ele>391</ele>
        <time>2022-07-15T06:38:20.000Z</time>
      </trkpt>
      <trkpt lat="49.84571" lon="4.80045">
        <ele>391</ele>
        <time>2022-07-15T06:38:21.000Z</time>
      </trkpt>
      <trkpt lat="49.84573" lon="4.8005">
        <ele>392</ele>
        <time>2022-07-15T06:38:22.000Z</time>
      </trkpt>
      <trkpt lat="49.84575" lon="4.80055">
        <ele>392</ele>
        <time>2022-07-15T06:38:23.000Z</time>
      </trkpt>
      <trkpt lat="49.84576" lon="4.80061">
        <ele>392</ele>
        <time>2022-07-15T06:38:24.000Z</time>
      </trkpt>
      <trkpt lat="49.84577" lon="4.80067">
        <ele>392</ele>
        <time>2022-07-15T06:38:25.000Z</time>
      </trkpt>
      <trkpt lat="49.84579" lon="4.80073">
        <ele>392</ele>
        <time>2022-07-15T06:38:26.000Z</time>
      </trkpt>
      <trkpt lat="49.84581" lon="4.80079">
        <ele>392</ele>
        <time>2022-07-15T06:38:27.000Z</time>
      </trkpt>
      <trkpt lat="49.84583" lon="4.80085">
        <ele>392</ele>
        <time>2022-07-15T06:38:28.000Z</time>
      </trkpt>
      <trkpt lat="49.84585" lon="4.80091">
        <ele>392</ele>
        <time>2022-07-15T06:38:29.000Z</time>
      </trkpt>
      <trkpt lat="49.84587" lon="4.80097">
        <ele>392</ele>
        <time>2022-07-15T06:38:30.000Z</time>
      </trkpt>
      <trkpt lat="49.84589" lon="4.80103">
        <ele>392</ele>
        <time>2022-07-15T06:38:31.000Z</time>
      </trkpt>
      <trkpt lat="49.8459" lon="4.80109">
        <ele>392</ele>
        <time>2022-07-15T06:38:32.000Z</time>
      </trkpt>
      <trkpt lat="49.84592" lon="4.80116">
        <ele>392</ele>
        <time>2022-07-15T06:38:33.000Z</time>
      </trkpt>
      <trkpt lat="49.84593" lon="4.80121">
        <ele>392</ele>
        <time>2022-07-15T06:38:34.000Z</time>
      </trkpt>
      <trkpt lat="49.84595" lon="4.80126">
        <ele>392</ele>
        <time>2022-07-15T06:38:35.000Z</time>
      </trkpt>
      <trkpt lat="49.84596" lon="4.80131">
        <ele>393</ele>
        <time>2022-07-15T06:38:36.000Z</time>
      </trkpt>
      <trkpt lat="49.84598" lon="4.80134">
        <ele>393</ele>
        <time>2022-07-15T06:38:37.000Z</time>
      </trkpt>
      <trkpt lat="49.84599" lon="4.80138">
        <ele>393</ele>
        <time>2022-07-15T06:38:38.000Z</time>
      </trkpt>
      <trkpt lat="49.846" lon="4.80142">
        <ele>393</ele>
        <time>2022-07-15T06:38:39.000Z</time>
      </trkpt>
      <trkpt lat="49.84601" lon="4.80147">
        <ele>393</ele>
        <time>2022-07-15T06:38:40.000Z</time>
      </trkpt>
      <trkpt lat="49.84602" lon="4.80153">
        <ele>394</ele>
        <time>2022-07-15T06:38:41.000Z</time>
      </trkpt>
      <trkpt lat="49.84603" lon="4.80159">
        <ele>394</ele>
        <time>2022-07-15T06:38:42.000Z</time>
      </trkpt>
      <trkpt lat="49.84603" lon="4.80165">
        <ele>394</ele>
        <time>2022-07-15T06:38:43.000Z</time>
      </trkpt>
      <trkpt lat="49.84604" lon="4.80171">
        <ele>394</ele>
        <time>2022-07-15T06:38:44.000Z</time>
      </trkpt>
      <trkpt lat="49.84604" lon="4.80177">
        <ele>394</ele>
        <time>2022-07-15T06:38:45.000Z</time>
      </trkpt>
      <trkpt lat="49.84605" lon="4.80183">
        <ele>395</ele>
        <time>2022-07-15T06:38:46.000Z</time>
      </trkpt>
      <trkpt lat="49.84606" lon="4.80188">
        <ele>395</ele>
        <time>2022-07-15T06:38:47.000Z</time>
      </trkpt>
      <trkpt lat="49.84607" lon="4.80194">
        <ele>395</ele>
        <time>2022-07-15T06:38:48.000Z</time>
      </trkpt>
      <trkpt lat="49.84609" lon="4.80199">
        <ele>395</ele>
        <time>2022-07-15T06:38:49.000Z</time>
      </trkpt>
      <trkpt lat="49.84611" lon="4.80204">
        <ele>396</ele>
        <time>2022-07-15T06:38:50.000Z</time>
      </trkpt>
      <trkpt lat="49.84613" lon="4.8021">
        <ele>396</ele>
        <time>2022-07-15T06:38:51.000Z</time>
      </trkpt>
      <trkpt lat="49.84616" lon="4.80215">
        <ele>396</ele>
        <time>2022-07-15T06:38:52.000Z</time>
      </trkpt>
      <trkpt lat="49.84619" lon="4.8022">
        <ele>396</ele>
        <time>2022-07-15T06:38:53.000Z</time>
      </trkpt>
      <trkpt lat="49.84621" lon="4.80225">
        <ele>396</ele>
        <time>2022-07-15T06:38:54.000Z</time>
      </trkpt>
      <trkpt lat="49.84623" lon="4.8023">
        <ele>397</ele>
        <time>2022-07-15T06:38:55.000Z</time>
      </trkpt>
      <trkpt lat="49.84625" lon="4.80234">
        <ele>397</ele>
        <time>2022-07-15T06:38:56.000Z</time>
      </trkpt>
      <trkpt lat="49.84627" lon="4.80239">
        <ele>397</ele>
        <time>2022-07-15T06:38:57.000Z</time>
      </trkpt>
      <trkpt lat="49.84629" lon="4.80244">
        <ele>397</ele>
        <time>2022-07-15T06:38:58.000Z</time>
      </trkpt>
      <trkpt lat="49.84632" lon="4.80249">
        <ele>397</ele>
        <time>2022-07-15T06:38:59.000Z</time>
      </trkpt>
      <trkpt lat="49.84634" lon="4.80255">
        <ele>397</ele>
        <time>2022-07-15T06:39:00.000Z</time>
      </trkpt>
      <trkpt lat="49.84635" lon="4.80261">
        <ele>397</ele>
        <time>2022-07-15T06:39:01.000Z</time>
      </trkpt>
      <trkpt lat="49.84637" lon="4.80267">
        <ele>397</ele>
        <time>2022-07-15T06:39:02.000Z</time>
      </trkpt>
      <trkpt lat="49.84639" lon="4.80273">
        <ele>397</ele>
        <time>2022-07-15T06:39:03.000Z</time>
      </trkpt>
      <trkpt lat="49.84642" lon="4.80279">
        <ele>397</ele>
        <time>2022-07-15T06:39:04.000Z</time>
      </trkpt>
      <trkpt lat="49.84644" lon="4.80285">
        <ele>397</ele>
        <time>2022-07-15T06:39:05.000Z</time>
      </trkpt>
      <trkpt lat="49.84647" lon="4.80292">
        <ele>397</ele>
        <time>2022-07-15T06:39:06.000Z</time>
      </trkpt>
      <trkpt lat="49.84649" lon="4.80298">
        <ele>397</ele>
        <time>2022-07-15T06:39:07.000Z</time>
      </trkpt>
      <trkpt lat="49.84652" lon="4.80305">
        <ele>397</ele>
        <time>2022-07-15T06:39:08.000Z</time>
      </trkpt>
      <trkpt lat="49.84654" lon="4.80311">
        <ele>397</ele>
        <time>2022-07-15T06:39:09.000Z</time>
      </trkpt>
      <trkpt lat="49.84656" lon="4.80318">
        <ele>397</ele>
        <time>2022-07-15T06:39:10.000Z</time>
      </trkpt>
      <trkpt lat="49.84659" lon="4.80324">
        <ele>397</ele>
        <time>2022-07-15T06:39:11.000Z</time>
      </trkpt>
      <trkpt lat="49.84661" lon="4.8033">
        <ele>397</ele>
        <time>2022-07-15T06:39:12.000Z</time>
      </trkpt>
      <trkpt lat="49.84664" lon="4.80337">
        <ele>397</ele>
        <time>2022-07-15T06:39:13.000Z</time>
      </trkpt>
      <trkpt lat="49.84666" lon="4.80343">
        <ele>397</ele>
        <time>2022-07-15T06:39:14.000Z</time>
      </trkpt>
      <trkpt lat="49.84669" lon="4.8035">
        <ele>397</ele>
        <time>2022-07-15T06:39:15.000Z</time>
      </trkpt>
      <trkpt lat="49.84671" lon="4.80357">
        <ele>397</ele>
        <time>2022-07-15T06:39:16.000Z</time>
      </trkpt>
      <trkpt lat="49.84674" lon="4.80363">
        <ele>397</ele>
        <time>2022-07-15T06:39:17.000Z</time>
      </trkpt>
      <trkpt lat="49.84676" lon="4.80369">
        <ele>397</ele>
        <time>2022-07-15T06:39:18.000Z</time>
      </trkpt>
      <trkpt lat="49.84679" lon="4.80376">
        <ele>397</ele>
        <time>2022-07-15T06:39:19.000Z</time>
      </trkpt>
      <trkpt lat="49.84681" lon="4.80383">
        <ele>397</ele>
        <time>2022-07-15T06:39:20.000Z</time>
      </trkpt>
      <trkpt lat="49.84684" lon="4.8039">
        <ele>397</ele>
        <time>2022-07-15T06:39:21.000Z</time>
      </trkpt>
      <trkpt lat="49.84687" lon="4.80397">
        <ele>397</ele>
        <time>2022-07-15T06:39:22.000Z</time>
      </trkpt>
      <trkpt lat="49.84689" lon="4.80404">
        <ele>397</ele>
        <time>2022-07-15T06:39:23.000Z</time>
      </trkpt>
      <trkpt lat="49.84692" lon="4.80412">
        <ele>397</ele>
        <time>2022-07-15T06:39:24.000Z</time>
      </trkpt>
      <trkpt lat="49.84695" lon="4.80419">
        <ele>397</ele>
        <time>2022-07-15T06:39:25.000Z</time>
      </trkpt>
      <trkpt lat="49.84698" lon="4.80426">
        <ele>397</ele>
        <time>2022-07-15T06:39:26.000Z</time>
      </trkpt>
      <trkpt lat="49.84701" lon="4.80434">
        <ele>397</ele>
        <time>2022-07-15T06:39:27.000Z</time>
      </trkpt>
      <trkpt lat="49.84704" lon="4.80441">
        <ele>397</ele>
        <time>2022-07-15T06:39:28.000Z</time>
      </trkpt>
      <trkpt lat="49.84707" lon="4.80449">
        <ele>396</ele>
        <time>2022-07-15T06:39:29.000Z</time>
      </trkpt>
      <trkpt lat="49.8471" lon="4.80457">
        <ele>396</ele>
        <time>2022-07-15T06:39:30.000Z</time>
      </trkpt>
      <trkpt lat="49.84713" lon="4.80464">
        <ele>396</ele>
        <time>2022-07-15T06:39:31.000Z</time>
      </trkpt>
      <trkpt lat="49.84716" lon="4.80471">
        <ele>396</ele>
        <time>2022-07-15T06:39:32.000Z</time>
      </trkpt>
      <trkpt lat="49.84719" lon="4.80478">
        <ele>396</ele>
        <time>2022-07-15T06:39:33.000Z</time>
      </trkpt>
      <trkpt lat="49.84721" lon="4.80486">
        <ele>396</ele>
        <time>2022-07-15T06:39:34.000Z</time>
      </trkpt>
      <trkpt lat="49.84724" lon="4.80493">
        <ele>395</ele>
        <time>2022-07-15T06:39:35.000Z</time>
      </trkpt>
      <trkpt lat="49.84727" lon="4.805">
        <ele>395</ele>
        <time>2022-07-15T06:39:36.000Z</time>
      </trkpt>
      <trkpt lat="49.8473" lon="4.80507">
        <ele>395</ele>
        <time>2022-07-15T06:39:37.000Z</time>
      </trkpt>
      <trkpt lat="49.84733" lon="4.80515">
        <ele>395</ele>
        <time>2022-07-15T06:39:38.000Z</time>
      </trkpt>
      <trkpt lat="49.84737" lon="4.80522">
        <ele>394</ele>
        <time>2022-07-15T06:39:39.000Z</time>
      </trkpt>
      <trkpt lat="49.8474" lon="4.80529">
        <ele>394</ele>
        <time>2022-07-15T06:39:40.000Z</time>
      </trkpt>
      <trkpt lat="49.84743" lon="4.80536">
        <ele>394</ele>
        <time>2022-07-15T06:39:41.000Z</time>
      </trkpt>
      <trkpt lat="49.84746" lon="4.80542">
        <ele>393</ele>
        <time>2022-07-15T06:39:42.000Z</time>
      </trkpt>
      <trkpt lat="49.84749" lon="4.80546">
        <ele>393</ele>
        <time>2022-07-15T06:39:43.000Z</time>
      </trkpt>
      <trkpt lat="49.8475" lon="4.80551">
        <ele>393</ele>
        <time>2022-07-15T06:39:44.000Z</time>
      </trkpt>
      <trkpt lat="49.84752" lon="4.80555">
        <ele>392</ele>
        <time>2022-07-15T06:39:45.000Z</time>
      </trkpt>
      <trkpt lat="49.84753" lon="4.80561">
        <ele>392</ele>
        <time>2022-07-15T06:39:46.000Z</time>
      </trkpt>
      <trkpt lat="49.84753" lon="4.80566">
        <ele>392</ele>
        <time>2022-07-15T06:39:47.000Z</time>
      </trkpt>
      <trkpt lat="49.84754" lon="4.80572">
        <ele>391</ele>
        <time>2022-07-15T06:39:48.000Z</time>
      </trkpt>
      <trkpt lat="49.84754" lon="4.80578">
        <ele>391</ele>
        <time>2022-07-15T06:39:49.000Z</time>
      </trkpt>
      <trkpt lat="49.84755" lon="4.80582">
        <ele>391</ele>
        <time>2022-07-15T06:39:50.000Z</time>
      </trkpt>
      <trkpt lat="49.84755" lon="4.80586">
        <ele>391</ele>
        <time>2022-07-15T06:39:51.000Z</time>
      </trkpt>
      <trkpt lat="49.84756" lon="4.8059">
        <ele>391</ele>
        <time>2022-07-15T06:39:52.000Z</time>
      </trkpt>
      <trkpt lat="49.84756" lon="4.80596">
        <ele>390</ele>
        <time>2022-07-15T06:39:53.000Z</time>
      </trkpt>
      <trkpt lat="49.84756" lon="4.80602">
        <ele>390</ele>
        <time>2022-07-15T06:39:54.000Z</time>
      </trkpt>
      <trkpt lat="49.84758" lon="4.80609">
        <ele>390</ele>
        <time>2022-07-15T06:39:55.000Z</time>
      </trkpt>
      <trkpt lat="49.84761" lon="4.80616">
        <ele>389</ele>
        <time>2022-07-15T06:39:56.000Z</time>
      </trkpt>
      <trkpt lat="49.84765" lon="4.80623">
        <ele>389</ele>
        <time>2022-07-15T06:39:57.000Z</time>
      </trkpt>
      <trkpt lat="49.8477" lon="4.80629">
        <ele>389</ele>
        <time>2022-07-15T06:39:58.000Z</time>
      </trkpt>
      <trkpt lat="49.84775" lon="4.80634">
        <ele>388</ele>
        <time>2022-07-15T06:39:59.000Z</time>
      </trkpt>
      <trkpt lat="49.84779" lon="4.80641">
        <ele>388</ele>
        <time>2022-07-15T06:40:00.000Z</time>
      </trkpt>
      <trkpt lat="49.84783" lon="4.80648">
        <ele>388</ele>
        <time>2022-07-15T06:40:01.000Z</time>
      </trkpt>
      <trkpt lat="49.84786" lon="4.80656">
        <ele>387</ele>
        <time>2022-07-15T06:40:02.000Z</time>
      </trkpt>
      <trkpt lat="49.84789" lon="4.80663">
        <ele>387</ele>
        <time>2022-07-15T06:40:03.000Z</time>
      </trkpt>
      <trkpt lat="49.84793" lon="4.8067">
        <ele>387</ele>
        <time>2022-07-15T06:40:04.000Z</time>
      </trkpt>
      <trkpt lat="49.84796" lon="4.80678">
        <ele>386</ele>
        <time>2022-07-15T06:40:05.000Z</time>
      </trkpt>
      <trkpt lat="49.84799" lon="4.80685">
        <ele>386</ele>
        <time>2022-07-15T06:40:06.000Z</time>
      </trkpt>
      <trkpt lat="49.84803" lon="4.80691">
        <ele>386</ele>
        <time>2022-07-15T06:40:07.000Z</time>
      </trkpt>
      <trkpt lat="49.84806" lon="4.80697">
        <ele>386</ele>
        <time>2022-07-15T06:40:08.000Z</time>
      </trkpt>
      <trkpt lat="49.8481" lon="4.80702">
        <ele>385</ele>
        <time>2022-07-15T06:40:09.000Z</time>
      </trkpt>
      <trkpt lat="49.84814" lon="4.80707">
        <ele>385</ele>
        <time>2022-07-15T06:40:10.000Z</time>
      </trkpt>
      <trkpt lat="49.84818" lon="4.80712">
        <ele>385</ele>
        <time>2022-07-15T06:40:11.000Z</time>
      </trkpt>
      <trkpt lat="49.84821" lon="4.80717">
        <ele>385</ele>
        <time>2022-07-15T06:40:12.000Z</time>
      </trkpt>
      <trkpt lat="49.84823" lon="4.80724">
        <ele>385</ele>
        <time>2022-07-15T06:40:13.000Z</time>
      </trkpt>
      <trkpt lat="49.84824" lon="4.8073">
        <ele>385</ele>
        <time>2022-07-15T06:40:14.000Z</time>
      </trkpt>
      <trkpt lat="49.84827" lon="4.80737">
        <ele>385</ele>
        <time>2022-07-15T06:40:15.000Z</time>
      </trkpt>
      <trkpt lat="49.8483" lon="4.80745">
        <ele>385</ele>
        <time>2022-07-15T06:40:16.000Z</time>
      </trkpt>
      <trkpt lat="49.84833" lon="4.80751">
        <ele>384</ele>
        <time>2022-07-15T06:40:17.000Z</time>
      </trkpt>
      <trkpt lat="49.84837" lon="4.80759">
        <ele>384</ele>
        <time>2022-07-15T06:40:18.000Z</time>
      </trkpt>
      <trkpt lat="49.84841" lon="4.80766">
        <ele>384</ele>
        <time>2022-07-15T06:40:19.000Z</time>
      </trkpt>
      <trkpt lat="49.84844" lon="4.80772">
        <ele>384</ele>
        <time>2022-07-15T06:40:20.000Z</time>
      </trkpt>
      <trkpt lat="49.84847" lon="4.80777">
        <ele>384</ele>
        <time>2022-07-15T06:40:21.000Z</time>
      </trkpt>
      <trkpt lat="49.8485" lon="4.80781">
        <ele>384</ele>
        <time>2022-07-15T06:40:22.000Z</time>
      </trkpt>
      <trkpt lat="49.84853" lon="4.80785">
        <ele>384</ele>
        <time>2022-07-15T06:40:23.000Z</time>
      </trkpt>
      <trkpt lat="49.84856" lon="4.8079">
        <ele>384</ele>
        <time>2022-07-15T06:40:24.000Z</time>
      </trkpt>
      <trkpt lat="49.84859" lon="4.80794">
        <ele>384</ele>
        <time>2022-07-15T06:40:25.000Z</time>
      </trkpt>
      <trkpt lat="49.84863" lon="4.80798">
        <ele>384</ele>
        <time>2022-07-15T06:40:26.000Z</time>
      </trkpt>
      <trkpt lat="49.84868" lon="4.808">
        <ele>384</ele>
        <time>2022-07-15T06:40:27.000Z</time>
      </trkpt>
      <trkpt lat="49.84872" lon="4.80802">
        <ele>384</ele>
        <time>2022-07-15T06:40:28.000Z</time>
      </trkpt>
      <trkpt lat="49.84878" lon="4.80805">
        <ele>384</ele>
        <time>2022-07-15T06:40:29.000Z</time>
      </trkpt>
      <trkpt lat="49.84883" lon="4.80809">
        <ele>384</ele>
        <time>2022-07-15T06:40:30.000Z</time>
      </trkpt>
      <trkpt lat="49.84887" lon="4.80816">
        <ele>384</ele>
        <time>2022-07-15T06:40:31.000Z</time>
      </trkpt>
      <trkpt lat="49.84892" lon="4.80822">
        <ele>384</ele>
        <time>2022-07-15T06:40:32.000Z</time>
      </trkpt>
      <trkpt lat="49.84895" lon="4.80829">
        <ele>384</ele>
        <time>2022-07-15T06:40:33.000Z</time>
      </trkpt>
      <trkpt lat="49.84899" lon="4.80837">
        <ele>384</ele>
        <time>2022-07-15T06:40:34.000Z</time>
      </trkpt>
      <trkpt lat="49.84903" lon="4.80844">
        <ele>384</ele>
        <time>2022-07-15T06:40:35.000Z</time>
      </trkpt>
      <trkpt lat="49.84907" lon="4.80852">
        <ele>384</ele>
        <time>2022-07-15T06:40:36.000Z</time>
      </trkpt>
      <trkpt lat="49.84911" lon="4.8086">
        <ele>384</ele>
        <time>2022-07-15T06:40:37.000Z</time>
      </trkpt>
      <trkpt lat="49.84916" lon="4.80868">
        <ele>384</ele>
        <time>2022-07-15T06:40:38.000Z</time>
      </trkpt>
      <trkpt lat="49.8492" lon="4.80877">
        <ele>384</ele>
        <time>2022-07-15T06:40:39.000Z</time>
      </trkpt>
      <trkpt lat="49.84923" lon="4.80886">
        <ele>384</ele>
        <time>2022-07-15T06:40:40.000Z</time>
      </trkpt>
      <trkpt lat="49.84926" lon="4.80895">
        <ele>383</ele>
        <time>2022-07-15T06:40:41.000Z</time>
      </trkpt>
      <trkpt lat="49.84927" lon="4.80904">
        <ele>383</ele>
        <time>2022-07-15T06:40:42.000Z</time>
      </trkpt>
      <trkpt lat="49.84928" lon="4.80912">
        <ele>383</ele>
        <time>2022-07-15T06:40:43.000Z</time>
      </trkpt>
      <trkpt lat="49.84929" lon="4.8092">
        <ele>383</ele>
        <time>2022-07-15T06:40:44.000Z</time>
      </trkpt>
      <trkpt lat="49.8493" lon="4.80928">
        <ele>383</ele>
        <time>2022-07-15T06:40:45.000Z</time>
      </trkpt>
      <trkpt lat="49.84932" lon="4.80935">
        <ele>383</ele>
        <time>2022-07-15T06:40:46.000Z</time>
      </trkpt>
      <trkpt lat="49.84934" lon="4.80942">
        <ele>383</ele>
        <time>2022-07-15T06:40:47.000Z</time>
      </trkpt>
      <trkpt lat="49.84936" lon="4.80948">
        <ele>383</ele>
        <time>2022-07-15T06:40:48.000Z</time>
      </trkpt>
      <trkpt lat="49.84939" lon="4.80954">
        <ele>383</ele>
        <time>2022-07-15T06:40:49.000Z</time>
      </trkpt>
      <trkpt lat="49.84941" lon="4.8096">
        <ele>382</ele>
        <time>2022-07-15T06:40:50.000Z</time>
      </trkpt>
      <trkpt lat="49.84943" lon="4.80967">
        <ele>382</ele>
        <time>2022-07-15T06:40:51.000Z</time>
      </trkpt>
      <trkpt lat="49.84945" lon="4.80974">
        <ele>382</ele>
        <time>2022-07-15T06:40:52.000Z</time>
      </trkpt>
      <trkpt lat="49.84947" lon="4.8098">
        <ele>382</ele>
        <time>2022-07-15T06:40:53.000Z</time>
      </trkpt>
      <trkpt lat="49.84949" lon="4.80987">
        <ele>382</ele>
        <time>2022-07-15T06:40:54.000Z</time>
      </trkpt>
      <trkpt lat="49.84951" lon="4.80994">
        <ele>382</ele>
        <time>2022-07-15T06:40:55.000Z</time>
      </trkpt>
      <trkpt lat="49.84953" lon="4.81001">
        <ele>382</ele>
        <time>2022-07-15T06:40:56.000Z</time>
      </trkpt>
      <trkpt lat="49.84955" lon="4.81008">
        <ele>382</ele>
        <time>2022-07-15T06:40:57.000Z</time>
      </trkpt>
      <trkpt lat="49.84958" lon="4.81015">
        <ele>382</ele>
        <time>2022-07-15T06:40:58.000Z</time>
      </trkpt>
      <trkpt lat="49.8496" lon="4.81022">
        <ele>382</ele>
        <time>2022-07-15T06:40:59.000Z</time>
      </trkpt>
      <trkpt lat="49.84962" lon="4.81028">
        <ele>382</ele>
        <time>2022-07-15T06:41:00.000Z</time>
      </trkpt>
      <trkpt lat="49.84964" lon="4.81034">
        <ele>382</ele>
        <time>2022-07-15T06:41:01.000Z</time>
      </trkpt>
      <trkpt lat="49.84966" lon="4.81039">
        <ele>382</ele>
        <time>2022-07-15T06:41:02.000Z</time>
      </trkpt>
      <trkpt lat="49.84968" lon="4.81044">
        <ele>382</ele>
        <time>2022-07-15T06:41:03.000Z</time>
      </trkpt>
      <trkpt lat="49.84971" lon="4.8105">
        <ele>382</ele>
        <time>2022-07-15T06:41:04.000Z</time>
      </trkpt>
      <trkpt lat="49.84973" lon="4.81056">
        <ele>382</ele>
        <time>2022-07-15T06:41:05.000Z</time>
      </trkpt>
      <trkpt lat="49.84975" lon="4.81062">
        <ele>382</ele>
        <time>2022-07-15T06:41:06.000Z</time>
      </trkpt>
      <trkpt lat="49.84977" lon="4.81068">
        <ele>382</ele>
        <time>2022-07-15T06:41:07.000Z</time>
      </trkpt>
      <trkpt lat="49.84979" lon="4.81074">
        <ele>382</ele>
        <time>2022-07-15T06:41:08.000Z</time>
      </trkpt>
      <trkpt lat="49.84981" lon="4.81081">
        <ele>382</ele>
        <time>2022-07-15T06:41:09.000Z</time>
      </trkpt>
      <trkpt lat="49.84984" lon="4.81087">
        <ele>382</ele>
        <time>2022-07-15T06:41:10.000Z</time>
      </trkpt>
      <trkpt lat="49.84986" lon="4.81093">
        <ele>382</ele>
        <time>2022-07-15T06:41:11.000Z</time>
      </trkpt>
      <trkpt lat="49.84988" lon="4.81099">
        <ele>382</ele>
        <time>2022-07-15T06:41:12.000Z</time>
      </trkpt>
      <trkpt lat="49.8499" lon="4.81105">
        <ele>382</ele>
        <time>2022-07-15T06:41:13.000Z</time>
      </trkpt>
      <trkpt lat="49.84993" lon="4.8111">
        <ele>382</ele>
        <time>2022-07-15T06:41:14.000Z</time>
      </trkpt>
      <trkpt lat="49.84995" lon="4.81116">
        <ele>382</ele>
        <time>2022-07-15T06:41:15.000Z</time>
      </trkpt>
      <trkpt lat="49.84997" lon="4.81121">
        <ele>382</ele>
        <time>2022-07-15T06:41:16.000Z</time>
      </trkpt>
      <trkpt lat="49.85" lon="4.81126">
        <ele>382</ele>
        <time>2022-07-15T06:41:17.000Z</time>
      </trkpt>
      <trkpt lat="49.85002" lon="4.81132">
        <ele>382</ele>
        <time>2022-07-15T06:41:18.000Z</time>
      </trkpt>
      <trkpt lat="49.85005" lon="4.81138">
        <ele>383</ele>
        <time>2022-07-15T06:41:19.000Z</time>
      </trkpt>
      <trkpt lat="49.85008" lon="4.81144">
        <ele>383</ele>
        <time>2022-07-15T06:41:20.000Z</time>
      </trkpt>
      <trkpt lat="49.85011" lon="4.81149">
        <ele>383</ele>
        <time>2022-07-15T06:41:21.000Z</time>
      </trkpt>
      <trkpt lat="49.85014" lon="4.81154">
        <ele>383</ele>
        <time>2022-07-15T06:41:22.000Z</time>
      </trkpt>
      <trkpt lat="49.85017" lon="4.8116">
        <ele>384</ele>
        <time>2022-07-15T06:41:23.000Z</time>
      </trkpt>
      <trkpt lat="49.85021" lon="4.81165">
        <ele>384</ele>
        <time>2022-07-15T06:41:24.000Z</time>
      </trkpt>
      <trkpt lat="49.85024" lon="4.8117">
        <ele>384</ele>
        <time>2022-07-15T06:41:25.000Z</time>
      </trkpt>
      <trkpt lat="49.85028" lon="4.81176">
        <ele>384</ele>
        <time>2022-07-15T06:41:26.000Z</time>
      </trkpt>
      <trkpt lat="49.85031" lon="4.81183">
        <ele>384</ele>
        <time>2022-07-15T06:41:27.000Z</time>
      </trkpt>
      <trkpt lat="49.85035" lon="4.81189">
        <ele>384</ele>
        <time>2022-07-15T06:41:28.000Z</time>
      </trkpt>
      <trkpt lat="49.85038" lon="4.81195">
        <ele>384</ele>
        <time>2022-07-15T06:41:29.000Z</time>
      </trkpt>
      <trkpt lat="49.85042" lon="4.81202">
        <ele>384</ele>
        <time>2022-07-15T06:41:30.000Z</time>
      </trkpt>
      <trkpt lat="49.85046" lon="4.81208">
        <ele>385</ele>
        <time>2022-07-15T06:41:31.000Z</time>
      </trkpt>
      <trkpt lat="49.8505" lon="4.81214">
        <ele>385</ele>
        <time>2022-07-15T06:41:32.000Z</time>
      </trkpt>
      <trkpt lat="49.85053" lon="4.8122">
        <ele>385</ele>
        <time>2022-07-15T06:41:33.000Z</time>
      </trkpt>
      <trkpt lat="49.85056" lon="4.81225">
        <ele>385</ele>
        <time>2022-07-15T06:41:34.000Z</time>
      </trkpt>
      <trkpt lat="49.85059" lon="4.8123">
        <ele>385</ele>
        <time>2022-07-15T06:41:35.000Z</time>
      </trkpt>
      <trkpt lat="49.85063" lon="4.81235">
        <ele>385</ele>
        <time>2022-07-15T06:41:36.000Z</time>
      </trkpt>
      <trkpt lat="49.85066" lon="4.8124">
        <ele>385</ele>
        <time>2022-07-15T06:41:37.000Z</time>
      </trkpt>
      <trkpt lat="49.85069" lon="4.81245">
        <ele>385</ele>
        <time>2022-07-15T06:41:38.000Z</time>
      </trkpt>
      <trkpt lat="49.85072" lon="4.81251">
        <ele>385</ele>
        <time>2022-07-15T06:41:39.000Z</time>
      </trkpt>
      <trkpt lat="49.85075" lon="4.81257">
        <ele>385</ele>
        <time>2022-07-15T06:41:40.000Z</time>
      </trkpt>
      <trkpt lat="49.85078" lon="4.81262">
        <ele>385</ele>
        <time>2022-07-15T06:41:41.000Z</time>
      </trkpt>
      <trkpt lat="49.85082" lon="4.81267">
        <ele>385</ele>
        <time>2022-07-15T06:41:42.000Z</time>
      </trkpt>
      <trkpt lat="49.85085" lon="4.81272">
        <ele>385</ele>
        <time>2022-07-15T06:41:43.000Z</time>
      </trkpt>
      <trkpt lat="49.85088" lon="4.81276">
        <ele>386</ele>
        <time>2022-07-15T06:41:44.000Z</time>
      </trkpt>
      <trkpt lat="49.85091" lon="4.8128">
        <ele>386</ele>
        <time>2022-07-15T06:41:45.000Z</time>
      </trkpt>
      <trkpt lat="49.85095" lon="4.81285">
        <ele>386</ele>
        <time>2022-07-15T06:41:46.000Z</time>
      </trkpt>
      <trkpt lat="49.85098" lon="4.8129">
        <ele>386</ele>
        <time>2022-07-15T06:41:47.000Z</time>
      </trkpt>
      <trkpt lat="49.85102" lon="4.81295">
        <ele>386</ele>
        <time>2022-07-15T06:41:48.000Z</time>
      </trkpt>
      <trkpt lat="49.85105" lon="4.813">
        <ele>386</ele>
        <time>2022-07-15T06:41:49.000Z</time>
      </trkpt>
      <trkpt lat="49.85108" lon="4.81305">
        <ele>386</ele>
        <time>2022-07-15T06:41:50.000Z</time>
      </trkpt>
      <trkpt lat="49.85111" lon="4.81311">
        <ele>387</ele>
        <time>2022-07-15T06:41:51.000Z</time>
      </trkpt>
      <trkpt lat="49.85113" lon="4.81316">
        <ele>387</ele>
        <time>2022-07-15T06:41:52.000Z</time>
      </trkpt>
      <trkpt lat="49.85116" lon="4.81321">
        <ele>387</ele>
        <time>2022-07-15T06:41:53.000Z</time>
      </trkpt>
      <trkpt lat="49.85119" lon="4.81326">
        <ele>387</ele>
        <time>2022-07-15T06:41:54.000Z</time>
      </trkpt>
      <trkpt lat="49.85122" lon="4.8133">
        <ele>387</ele>
        <time>2022-07-15T06:41:55.000Z</time>
      </trkpt>
      <trkpt lat="49.85124" lon="4.81334">
        <ele>387</ele>
        <time>2022-07-15T06:41:56.000Z</time>
      </trkpt>
      <trkpt lat="49.85127" lon="4.81339">
        <ele>387</ele>
        <time>2022-07-15T06:41:57.000Z</time>
      </trkpt>
      <trkpt lat="49.85129" lon="4.81344">
        <ele>387</ele>
        <time>2022-07-15T06:41:58.000Z</time>
      </trkpt>
      <trkpt lat="49.85131" lon="4.8135">
        <ele>387</ele>
        <time>2022-07-15T06:41:59.000Z</time>
      </trkpt>
      <trkpt lat="49.85134" lon="4.81356">
        <ele>387</ele>
        <time>2022-07-15T06:42:00.000Z</time>
      </trkpt>
      <trkpt lat="49.85136" lon="4.81362">
        <ele>387</ele>
        <time>2022-07-15T06:42:01.000Z</time>
      </trkpt>
      <trkpt lat="49.85137" lon="4.81369">
        <ele>387</ele>
        <time>2022-07-15T06:42:02.000Z</time>
      </trkpt>
      <trkpt lat="49.8514" lon="4.81376">
        <ele>387</ele>
        <time>2022-07-15T06:42:03.000Z</time>
      </trkpt>
      <trkpt lat="49.85141" lon="4.81382">
        <ele>387</ele>
        <time>2022-07-15T06:42:04.000Z</time>
      </trkpt>
      <trkpt lat="49.85143" lon="4.81388">
        <ele>388</ele>
        <time>2022-07-15T06:42:05.000Z</time>
      </trkpt>
      <trkpt lat="49.85144" lon="4.81394">
        <ele>388</ele>
        <time>2022-07-15T06:42:06.000Z</time>
      </trkpt>
      <trkpt lat="49.85146" lon="4.81401">
        <ele>388</ele>
        <time>2022-07-15T06:42:07.000Z</time>
      </trkpt>
      <trkpt lat="49.85147" lon="4.81409">
        <ele>388</ele>
        <time>2022-07-15T06:42:08.000Z</time>
      </trkpt>
      <trkpt lat="49.85147" lon="4.81417">
        <ele>388</ele>
        <time>2022-07-15T06:42:09.000Z</time>
      </trkpt>
      <trkpt lat="49.85148" lon="4.81425">
        <ele>388</ele>
        <time>2022-07-15T06:42:10.000Z</time>
      </trkpt>
      <trkpt lat="49.85149" lon="4.81433">
        <ele>388</ele>
        <time>2022-07-15T06:42:11.000Z</time>
      </trkpt>
      <trkpt lat="49.85149" lon="4.81441">
        <ele>388</ele>
        <time>2022-07-15T06:42:12.000Z</time>
      </trkpt>
      <trkpt lat="49.85149" lon="4.81449">
        <ele>389</ele>
        <time>2022-07-15T06:42:13.000Z</time>
      </trkpt>
      <trkpt lat="49.85149" lon="4.81456">
        <ele>389</ele>
        <time>2022-07-15T06:42:14.000Z</time>
      </trkpt>
      <trkpt lat="49.85149" lon="4.81464">
        <ele>389</ele>
        <time>2022-07-15T06:42:15.000Z</time>
      </trkpt>
      <trkpt lat="49.85149" lon="4.81472">
        <ele>389</ele>
        <time>2022-07-15T06:42:16.000Z</time>
      </trkpt>
      <trkpt lat="49.85148" lon="4.8148">
        <ele>389</ele>
        <time>2022-07-15T06:42:17.000Z</time>
      </trkpt>
      <trkpt lat="49.85148" lon="4.81489">
        <ele>389</ele>
        <time>2022-07-15T06:42:18.000Z</time>
      </trkpt>
      <trkpt lat="49.85148" lon="4.81497">
        <ele>389</ele>
        <time>2022-07-15T06:42:19.000Z</time>
      </trkpt>
      <trkpt lat="49.85147" lon="4.81504">
        <ele>390</ele>
        <time>2022-07-15T06:42:20.000Z</time>
      </trkpt>
      <trkpt lat="49.85146" lon="4.81512">
        <ele>390</ele>
        <time>2022-07-15T06:42:21.000Z</time>
      </trkpt>
      <trkpt lat="49.85146" lon="4.81519">
        <ele>390</ele>
        <time>2022-07-15T06:42:22.000Z</time>
      </trkpt>
      <trkpt lat="49.85145" lon="4.81526">
        <ele>390</ele>
        <time>2022-07-15T06:42:23.000Z</time>
      </trkpt>
      <trkpt lat="49.85145" lon="4.81533">
        <ele>390</ele>
        <time>2022-07-15T06:42:24.000Z</time>
      </trkpt>
      <trkpt lat="49.85144" lon="4.8154">
        <ele>390</ele>
        <time>2022-07-15T06:42:25.000Z</time>
      </trkpt>
      <trkpt lat="49.85143" lon="4.81548">
        <ele>390</ele>
        <time>2022-07-15T06:42:26.000Z</time>
      </trkpt>
      <trkpt lat="49.85143" lon="4.81556">
        <ele>390</ele>
        <time>2022-07-15T06:42:27.000Z</time>
      </trkpt>
      <trkpt lat="49.85143" lon="4.81564">
        <ele>391</ele>
        <time>2022-07-15T06:42:28.000Z</time>
      </trkpt>
      <trkpt lat="49.85143" lon="4.81572">
        <ele>391</ele>
        <time>2022-07-15T06:42:29.000Z</time>
      </trkpt>
      <trkpt lat="49.85143" lon="4.81579">
        <ele>391</ele>
        <time>2022-07-15T06:42:30.000Z</time>
      </trkpt>
      <trkpt lat="49.85142" lon="4.81586">
        <ele>391</ele>
        <time>2022-07-15T06:42:31.000Z</time>
      </trkpt>
      <trkpt lat="49.85142" lon="4.81592">
        <ele>391</ele>
        <time>2022-07-15T06:42:32.000Z</time>
      </trkpt>
      <trkpt lat="49.85143" lon="4.81599">
        <ele>392</ele>
        <time>2022-07-15T06:42:33.000Z</time>
      </trkpt>
      <trkpt lat="49.85143" lon="4.81606">
        <ele>392</ele>
        <time>2022-07-15T06:42:34.000Z</time>
      </trkpt>
      <trkpt lat="49.85143" lon="4.81613">
        <ele>392</ele>
        <time>2022-07-15T06:42:35.000Z</time>
      </trkpt>
      <trkpt lat="49.85143" lon="4.81619">
        <ele>392</ele>
        <time>2022-07-15T06:42:36.000Z</time>
      </trkpt>
      <trkpt lat="49.85144" lon="4.81627">
        <ele>393</ele>
        <time>2022-07-15T06:42:37.000Z</time>
      </trkpt>
      <trkpt lat="49.85145" lon="4.81634">
        <ele>393</ele>
        <time>2022-07-15T06:42:38.000Z</time>
      </trkpt>
      <trkpt lat="49.85146" lon="4.81641">
        <ele>393</ele>
        <time>2022-07-15T06:42:39.000Z</time>
      </trkpt>
      <trkpt lat="49.85147" lon="4.81647">
        <ele>393</ele>
        <time>2022-07-15T06:42:40.000Z</time>
      </trkpt>
      <trkpt lat="49.85147" lon="4.81654">
        <ele>394</ele>
        <time>2022-07-15T06:42:41.000Z</time>
      </trkpt>
      <trkpt lat="49.85148" lon="4.8166">
        <ele>394</ele>
        <time>2022-07-15T06:42:42.000Z</time>
      </trkpt>
      <trkpt lat="49.8515" lon="4.81666">
        <ele>394</ele>
        <time>2022-07-15T06:42:43.000Z</time>
      </trkpt>
      <trkpt lat="49.85152" lon="4.81673">
        <ele>394</ele>
        <time>2022-07-15T06:42:44.000Z</time>
      </trkpt>
      <trkpt lat="49.85153" lon="4.81679">
        <ele>394</ele>
        <time>2022-07-15T06:42:45.000Z</time>
      </trkpt>
      <trkpt lat="49.85154" lon="4.81687">
        <ele>395</ele>
        <time>2022-07-15T06:42:46.000Z</time>
      </trkpt>
      <trkpt lat="49.85155" lon="4.81694">
        <ele>395</ele>
        <time>2022-07-15T06:42:47.000Z</time>
      </trkpt>
      <trkpt lat="49.85157" lon="4.817">
        <ele>395</ele>
        <time>2022-07-15T06:42:48.000Z</time>
      </trkpt>
      <trkpt lat="49.85158" lon="4.81705">
        <ele>395</ele>
        <time>2022-07-15T06:42:49.000Z</time>
      </trkpt>
      <trkpt lat="49.8516" lon="4.81711">
        <ele>395</ele>
        <time>2022-07-15T06:42:50.000Z</time>
      </trkpt>
      <trkpt lat="49.85162" lon="4.81718">
        <ele>396</ele>
        <time>2022-07-15T06:42:51.000Z</time>
      </trkpt>
      <trkpt lat="49.85164" lon="4.81724">
        <ele>396</ele>
        <time>2022-07-15T06:42:52.000Z</time>
      </trkpt>
      <trkpt lat="49.85166" lon="4.81731">
        <ele>396</ele>
        <time>2022-07-15T06:42:53.000Z</time>
      </trkpt>
      <trkpt lat="49.85167" lon="4.81738">
        <ele>396</ele>
        <time>2022-07-15T06:42:54.000Z</time>
      </trkpt>
      <trkpt lat="49.85169" lon="4.81745">
        <ele>396</ele>
        <time>2022-07-15T06:42:55.000Z</time>
      </trkpt>
      <trkpt lat="49.85171" lon="4.81753">
        <ele>396</ele>
        <time>2022-07-15T06:42:56.000Z</time>
      </trkpt>
      <trkpt lat="49.85173" lon="4.81761">
        <ele>397</ele>
        <time>2022-07-15T06:42:57.000Z</time>
      </trkpt>
      <trkpt lat="49.85174" lon="4.81769">
        <ele>397</ele>
        <time>2022-07-15T06:42:58.000Z</time>
      </trkpt>
      <trkpt lat="49.85176" lon="4.81778">
        <ele>397</ele>
        <time>2022-07-15T06:42:59.000Z</time>
      </trkpt>
      <trkpt lat="49.85178" lon="4.81786">
        <ele>397</ele>
        <time>2022-07-15T06:43:00.000Z</time>
      </trkpt>
      <trkpt lat="49.85179" lon="4.81794">
        <ele>397</ele>
        <time>2022-07-15T06:43:01.000Z</time>
      </trkpt>
      <trkpt lat="49.8518" lon="4.81804">
        <ele>397</ele>
        <time>2022-07-15T06:43:02.000Z</time>
      </trkpt>
      <trkpt lat="49.85182" lon="4.81813">
        <ele>397</ele>
        <time>2022-07-15T06:43:03.000Z</time>
      </trkpt>
      <trkpt lat="49.85184" lon="4.81822">
        <ele>397</ele>
        <time>2022-07-15T06:43:04.000Z</time>
      </trkpt>
      <trkpt lat="49.85185" lon="4.81832">
        <ele>396</ele>
        <time>2022-07-15T06:43:05.000Z</time>
      </trkpt>
      <trkpt lat="49.85187" lon="4.81841">
        <ele>396</ele>
        <time>2022-07-15T06:43:06.000Z</time>
      </trkpt>
      <trkpt lat="49.85189" lon="4.8185">
        <ele>396</ele>
        <time>2022-07-15T06:43:07.000Z</time>
      </trkpt>
      <trkpt lat="49.8519" lon="4.81859">
        <ele>396</ele>
        <time>2022-07-15T06:43:08.000Z</time>
      </trkpt>
      <trkpt lat="49.85191" lon="4.81868">
        <ele>396</ele>
        <time>2022-07-15T06:43:09.000Z</time>
      </trkpt>
      <trkpt lat="49.85192" lon="4.81877">
        <ele>396</ele>
        <time>2022-07-15T06:43:10.000Z</time>
      </trkpt>
      <trkpt lat="49.85193" lon="4.81885">
        <ele>396</ele>
        <time>2022-07-15T06:43:11.000Z</time>
      </trkpt>
      <trkpt lat="49.85193" lon="4.81893">
        <ele>396</ele>
        <time>2022-07-15T06:43:12.000Z</time>
      </trkpt>
      <trkpt lat="49.85194" lon="4.81903">
        <ele>395</ele>
        <time>2022-07-15T06:43:13.000Z</time>
      </trkpt>
      <trkpt lat="49.85194" lon="4.81912">
        <ele>395</ele>
        <time>2022-07-15T06:43:14.000Z</time>
      </trkpt>
      <trkpt lat="49.85194" lon="4.81922">
        <ele>395</ele>
        <time>2022-07-15T06:43:15.000Z</time>
      </trkpt>
      <trkpt lat="49.85193" lon="4.81931">
        <ele>394</ele>
        <time>2022-07-15T06:43:16.000Z</time>
      </trkpt>
      <trkpt lat="49.85193" lon="4.81942">
        <ele>394</ele>
        <time>2022-07-15T06:43:17.000Z</time>
      </trkpt>
      <trkpt lat="49.85193" lon="4.81952">
        <ele>394</ele>
        <time>2022-07-15T06:43:18.000Z</time>
      </trkpt>
      <trkpt lat="49.85194" lon="4.81962">
        <ele>393</ele>
        <time>2022-07-15T06:43:19.000Z</time>
      </trkpt>
      <trkpt lat="49.85195" lon="4.81972">
        <ele>393</ele>
        <time>2022-07-15T06:43:20.000Z</time>
      </trkpt>
      <trkpt lat="49.85196" lon="4.81982">
        <ele>393</ele>
        <time>2022-07-15T06:43:21.000Z</time>
      </trkpt>
      <trkpt lat="49.85196" lon="4.81992">
        <ele>392</ele>
        <time>2022-07-15T06:43:22.000Z</time>
      </trkpt>
      <trkpt lat="49.85196" lon="4.82002">
        <ele>392</ele>
        <time>2022-07-15T06:43:23.000Z</time>
      </trkpt>
      <trkpt lat="49.85197" lon="4.82013">
        <ele>391</ele>
        <time>2022-07-15T06:43:24.000Z</time>
      </trkpt>
      <trkpt lat="49.85197" lon="4.82024">
        <ele>391</ele>
        <time>2022-07-15T06:43:25.000Z</time>
      </trkpt>
      <trkpt lat="49.85199" lon="4.82036">
        <ele>390</ele>
        <time>2022-07-15T06:43:26.000Z</time>
      </trkpt>
      <trkpt lat="49.852" lon="4.82048">
        <ele>390</ele>
        <time>2022-07-15T06:43:27.000Z</time>
      </trkpt>
      <trkpt lat="49.85202" lon="4.8206">
        <ele>389</ele>
        <time>2022-07-15T06:43:28.000Z</time>
      </trkpt>
      <trkpt lat="49.85204" lon="4.82072">
        <ele>388</ele>
        <time>2022-07-15T06:43:29.000Z</time>
      </trkpt>
      <trkpt lat="49.85205" lon="4.82084">
        <ele>388</ele>
        <time>2022-07-15T06:43:30.000Z</time>
      </trkpt>
      <trkpt lat="49.85207" lon="4.82095">
        <ele>387</ele>
        <time>2022-07-15T06:43:31.000Z</time>
      </trkpt>
      <trkpt lat="49.85209" lon="4.82105">
        <ele>387</ele>
        <time>2022-07-15T06:43:32.000Z</time>
      </trkpt>
      <trkpt lat="49.85211" lon="4.82116">
        <ele>386</ele>
        <time>2022-07-15T06:43:33.000Z</time>
      </trkpt>
      <trkpt lat="49.85213" lon="4.82127">
        <ele>385</ele>
        <time>2022-07-15T06:43:34.000Z</time>
      </trkpt>
      <trkpt lat="49.85214" lon="4.82138">
        <ele>385</ele>
        <time>2022-07-15T06:43:35.000Z</time>
      </trkpt>
      <trkpt lat="49.85215" lon="4.8215">
        <ele>384</ele>
        <time>2022-07-15T06:43:36.000Z</time>
      </trkpt>
      <trkpt lat="49.85216" lon="4.82162">
        <ele>384</ele>
        <time>2022-07-15T06:43:37.000Z</time>
      </trkpt>
      <trkpt lat="49.85216" lon="4.82173">
        <ele>383</ele>
        <time>2022-07-15T06:43:38.000Z</time>
      </trkpt>
      <trkpt lat="49.85218" lon="4.82183">
        <ele>383</ele>
        <time>2022-07-15T06:43:39.000Z</time>
      </trkpt>
      <trkpt lat="49.85219" lon="4.82193">
        <ele>382</ele>
        <time>2022-07-15T06:43:40.000Z</time>
      </trkpt>
      <trkpt lat="49.85221" lon="4.82204">
        <ele>382</ele>
        <time>2022-07-15T06:43:41.000Z</time>
      </trkpt>
      <trkpt lat="49.85223" lon="4.82215">
        <ele>381</ele>
        <time>2022-07-15T06:43:42.000Z</time>
      </trkpt>
      <trkpt lat="49.85226" lon="4.82227">
        <ele>381</ele>
        <time>2022-07-15T06:43:43.000Z</time>
      </trkpt>
      <trkpt lat="49.85227" lon="4.82238">
        <ele>380</ele>
        <time>2022-07-15T06:43:44.000Z</time>
      </trkpt>
      <trkpt lat="49.85229" lon="4.8225">
        <ele>380</ele>
        <time>2022-07-15T06:43:45.000Z</time>
      </trkpt>
      <trkpt lat="49.8523" lon="4.82262">
        <ele>379</ele>
        <time>2022-07-15T06:43:46.000Z</time>
      </trkpt>
      <trkpt lat="49.85231" lon="4.82274">
        <ele>379</ele>
        <time>2022-07-15T06:43:47.000Z</time>
      </trkpt>
      <trkpt lat="49.85232" lon="4.82286">
        <ele>378</ele>
        <time>2022-07-15T06:43:48.000Z</time>
      </trkpt>
      <trkpt lat="49.85233" lon="4.82298">
        <ele>377</ele>
        <time>2022-07-15T06:43:49.000Z</time>
      </trkpt>
      <trkpt lat="49.85234" lon="4.82309">
        <ele>376</ele>
        <time>2022-07-15T06:43:50.000Z</time>
      </trkpt>
      <trkpt lat="49.85235" lon="4.82321">
        <ele>376</ele>
        <time>2022-07-15T06:43:51.000Z</time>
      </trkpt>
      <trkpt lat="49.85236" lon="4.82332">
        <ele>375</ele>
        <time>2022-07-15T06:43:52.000Z</time>
      </trkpt>
      <trkpt lat="49.85237" lon="4.82344">
        <ele>374</ele>
        <time>2022-07-15T06:43:53.000Z</time>
      </trkpt>
      <trkpt lat="49.85238" lon="4.82356">
        <ele>373</ele>
        <time>2022-07-15T06:43:54.000Z</time>
      </trkpt>
      <trkpt lat="49.85239" lon="4.82367">
        <ele>373</ele>
        <time>2022-07-15T06:43:55.000Z</time>
      </trkpt>
      <trkpt lat="49.85239" lon="4.82377">
        <ele>372</ele>
        <time>2022-07-15T06:43:56.000Z</time>
      </trkpt>
      <trkpt lat="49.85239" lon="4.82384">
        <ele>371</ele>
        <time>2022-07-15T06:43:57.000Z</time>
      </trkpt>
      <trkpt lat="49.85239" lon="4.8239">
        <ele>371</ele>
        <time>2022-07-15T06:43:58.000Z</time>
      </trkpt>
      <trkpt lat="49.8524" lon="4.82394">
        <ele>371</ele>
        <time>2022-07-15T06:43:59.000Z</time>
      </trkpt>
      <trkpt lat="49.8524" lon="4.82397">
        <ele>370</ele>
        <time>2022-07-15T06:44:00.000Z</time>
      </trkpt>
      <trkpt lat="49.85241" lon="4.82401">
        <ele>370</ele>
        <time>2022-07-15T06:44:01.000Z</time>
      </trkpt>
      <trkpt lat="49.85243" lon="4.82405">
        <ele>370</ele>
        <time>2022-07-15T06:44:02.000Z</time>
      </trkpt>
      <trkpt lat="49.85244" lon="4.8241">
        <ele>369</ele>
        <time>2022-07-15T06:44:03.000Z</time>
      </trkpt>
      <trkpt lat="49.85246" lon="4.82415">
        <ele>369</ele>
        <time>2022-07-15T06:44:04.000Z</time>
      </trkpt>
      <trkpt lat="49.85248" lon="4.82419">
        <ele>368</ele>
        <time>2022-07-15T06:44:05.000Z</time>
      </trkpt>
      <trkpt lat="49.85251" lon="4.82425">
        <ele>368</ele>
        <time>2022-07-15T06:44:06.000Z</time>
      </trkpt>
      <trkpt lat="49.85253" lon="4.8243">
        <ele>368</ele>
        <time>2022-07-15T06:44:07.000Z</time>
      </trkpt>
      <trkpt lat="49.85256" lon="4.82435">
        <ele>367</ele>
        <time>2022-07-15T06:44:08.000Z</time>
      </trkpt>
      <trkpt lat="49.85259" lon="4.8244">
        <ele>367</ele>
        <time>2022-07-15T06:44:09.000Z</time>
      </trkpt>
      <trkpt lat="49.85261" lon="4.82444">
        <ele>367</ele>
        <time>2022-07-15T06:44:10.000Z</time>
      </trkpt>
      <trkpt lat="49.85265" lon="4.82449">
        <ele>366</ele>
        <time>2022-07-15T06:44:11.000Z</time>
      </trkpt>
      <trkpt lat="49.85268" lon="4.82454">
        <ele>366</ele>
        <time>2022-07-15T06:44:12.000Z</time>
      </trkpt>
      <trkpt lat="49.85271" lon="4.82458">
        <ele>366</ele>
        <time>2022-07-15T06:44:13.000Z</time>
      </trkpt>
      <trkpt lat="49.85275" lon="4.82463">
        <ele>365</ele>
        <time>2022-07-15T06:44:14.000Z</time>
      </trkpt>
      <trkpt lat="49.85279" lon="4.82467">
        <ele>365</ele>
        <time>2022-07-15T06:44:15.000Z</time>
      </trkpt>
      <trkpt lat="49.85284" lon="4.82471">
        <ele>364</ele>
        <time>2022-07-15T06:44:16.000Z</time>
      </trkpt>
      <trkpt lat="49.85288" lon="4.82475">
        <ele>364</ele>
        <time>2022-07-15T06:44:17.000Z</time>
      </trkpt>
      <trkpt lat="49.85292" lon="4.8248">
        <ele>364</ele>
        <time>2022-07-15T06:44:18.000Z</time>
      </trkpt>
      <trkpt lat="49.85296" lon="4.82484">
        <ele>363</ele>
        <time>2022-07-15T06:44:19.000Z</time>
      </trkpt>
      <trkpt lat="49.85299" lon="4.82488">
        <ele>363</ele>
        <time>2022-07-15T06:44:20.000Z</time>
      </trkpt>
      <trkpt lat="49.85303" lon="4.82492">
        <ele>363</ele>
        <time>2022-07-15T06:44:21.000Z</time>
      </trkpt>
      <trkpt lat="49.85307" lon="4.82497">
        <ele>362</ele>
        <time>2022-07-15T06:44:22.000Z</time>
      </trkpt>
      <trkpt lat="49.85311" lon="4.82501">
        <ele>362</ele>
        <time>2022-07-15T06:44:23.000Z</time>
      </trkpt>
      <trkpt lat="49.85314" lon="4.82506">
        <ele>362</ele>
        <time>2022-07-15T06:44:24.000Z</time>
      </trkpt>
      <trkpt lat="49.85318" lon="4.82511">
        <ele>362</ele>
        <time>2022-07-15T06:44:25.000Z</time>
      </trkpt>
      <trkpt lat="49.85321" lon="4.82516">
        <ele>362</ele>
        <time>2022-07-15T06:44:26.000Z</time>
      </trkpt>
      <trkpt lat="49.85324" lon="4.82521">
        <ele>361</ele>
        <time>2022-07-15T06:44:27.000Z</time>
      </trkpt>
      <trkpt lat="49.85327" lon="4.82526">
        <ele>361</ele>
        <time>2022-07-15T06:44:28.000Z</time>
      </trkpt>
      <trkpt lat="49.85329" lon="4.8253">
        <ele>361</ele>
        <time>2022-07-15T06:44:29.000Z</time>
      </trkpt>
      <trkpt lat="49.85331" lon="4.82535">
        <ele>361</ele>
        <time>2022-07-15T06:44:30.000Z</time>
      </trkpt>
      <trkpt lat="49.85334" lon="4.82539">
        <ele>361</ele>
        <time>2022-07-15T06:44:31.000Z</time>
      </trkpt>
      <trkpt lat="49.85336" lon="4.82543">
        <ele>361</ele>
        <time>2022-07-15T06:44:32.000Z</time>
      </trkpt>
      <trkpt lat="49.85338" lon="4.82546">
        <ele>361</ele>
        <time>2022-07-15T06:44:33.000Z</time>
      </trkpt>
      <trkpt lat="49.85341" lon="4.82549">
        <ele>361</ele>
        <time>2022-07-15T06:44:34.000Z</time>
      </trkpt>
      <trkpt lat="49.85342" lon="4.82554">
        <ele>361</ele>
        <time>2022-07-15T06:44:35.000Z</time>
      </trkpt>
      <trkpt lat="49.85344" lon="4.82558">
        <ele>360</ele>
        <time>2022-07-15T06:44:36.000Z</time>
      </trkpt>
      <trkpt lat="49.85346" lon="4.82563">
        <ele>360</ele>
        <time>2022-07-15T06:44:37.000Z</time>
      </trkpt>
      <trkpt lat="49.85349" lon="4.82567">
        <ele>360</ele>
        <time>2022-07-15T06:44:38.000Z</time>
      </trkpt>
      <trkpt lat="49.85351" lon="4.82573">
        <ele>360</ele>
        <time>2022-07-15T06:44:39.000Z</time>
      </trkpt>
      <trkpt lat="49.85353" lon="4.82579">
        <ele>360</ele>
        <time>2022-07-15T06:44:40.000Z</time>
      </trkpt>
      <trkpt lat="49.85354" lon="4.82586">
        <ele>360</ele>
        <time>2022-07-15T06:44:41.000Z</time>
      </trkpt>
      <trkpt lat="49.85356" lon="4.82593">
        <ele>360</ele>
        <time>2022-07-15T06:44:42.000Z</time>
      </trkpt>
      <trkpt lat="49.85357" lon="4.826">
        <ele>360</ele>
        <time>2022-07-15T06:44:43.000Z</time>
      </trkpt>
      <trkpt lat="49.85359" lon="4.82606">
        <ele>360</ele>
        <time>2022-07-15T06:44:44.000Z</time>
      </trkpt>
      <trkpt lat="49.85361" lon="4.82612">
        <ele>359</ele>
        <time>2022-07-15T06:44:45.000Z</time>
      </trkpt>
      <trkpt lat="49.85364" lon="4.82618">
        <ele>359</ele>
        <time>2022-07-15T06:44:46.000Z</time>
      </trkpt>
      <trkpt lat="49.85366" lon="4.82624">
        <ele>359</ele>
        <time>2022-07-15T06:44:47.000Z</time>
      </trkpt>
      <trkpt lat="49.85368" lon="4.82629">
        <ele>359</ele>
        <time>2022-07-15T06:44:48.000Z</time>
      </trkpt>
      <trkpt lat="49.8537" lon="4.82635">
        <ele>360</ele>
        <time>2022-07-15T06:44:49.000Z</time>
      </trkpt>
      <trkpt lat="49.85372" lon="4.8264">
        <ele>360</ele>
        <time>2022-07-15T06:44:50.000Z</time>
      </trkpt>
      <trkpt lat="49.85375" lon="4.82646">
        <ele>360</ele>
        <time>2022-07-15T06:44:51.000Z</time>
      </trkpt>
      <trkpt lat="49.85377" lon="4.82651">
        <ele>360</ele>
        <time>2022-07-15T06:44:52.000Z</time>
      </trkpt>
      <trkpt lat="49.85379" lon="4.82656">
        <ele>360</ele>
        <time>2022-07-15T06:44:53.000Z</time>
      </trkpt>
      <trkpt lat="49.85382" lon="4.82661">
        <ele>360</ele>
        <time>2022-07-15T06:44:54.000Z</time>
      </trkpt>
      <trkpt lat="49.85384" lon="4.82666">
        <ele>359</ele>
        <time>2022-07-15T06:44:55.000Z</time>
      </trkpt>
      <trkpt lat="49.85387" lon="4.82672">
        <ele>359</ele>
        <time>2022-07-15T06:44:56.000Z</time>
      </trkpt>
      <trkpt lat="49.85389" lon="4.82677">
        <ele>359</ele>
        <time>2022-07-15T06:44:57.000Z</time>
      </trkpt>
      <trkpt lat="49.85391" lon="4.82682">
        <ele>359</ele>
        <time>2022-07-15T06:44:58.000Z</time>
      </trkpt>
      <trkpt lat="49.85394" lon="4.82687">
        <ele>359</ele>
        <time>2022-07-15T06:44:59.000Z</time>
      </trkpt>
      <trkpt lat="49.85396" lon="4.82692">
        <ele>359</ele>
        <time>2022-07-15T06:45:00.000Z</time>
      </trkpt>
      <trkpt lat="49.85399" lon="4.82697">
        <ele>359</ele>
        <time>2022-07-15T06:45:01.000Z</time>
      </trkpt>
      <trkpt lat="49.85402" lon="4.82702">
        <ele>359</ele>
        <time>2022-07-15T06:45:02.000Z</time>
      </trkpt>
      <trkpt lat="49.85404" lon="4.82707">
        <ele>359</ele>
        <time>2022-07-15T06:45:03.000Z</time>
      </trkpt>
      <trkpt lat="49.85407" lon="4.82713">
        <ele>359</ele>
        <time>2022-07-15T06:45:04.000Z</time>
      </trkpt>
      <trkpt lat="49.85409" lon="4.82719">
        <ele>359</ele>
        <time>2022-07-15T06:45:05.000Z</time>
      </trkpt>
      <trkpt lat="49.85411" lon="4.82724">
        <ele>359</ele>
        <time>2022-07-15T06:45:06.000Z</time>
      </trkpt>
      <trkpt lat="49.85412" lon="4.8273">
        <ele>359</ele>
        <time>2022-07-15T06:45:07.000Z</time>
      </trkpt>
      <trkpt lat="49.85414" lon="4.82735">
        <ele>360</ele>
        <time>2022-07-15T06:45:08.000Z</time>
      </trkpt>
      <trkpt lat="49.85417" lon="4.8274">
        <ele>360</ele>
        <time>2022-07-15T06:45:09.000Z</time>
      </trkpt>
      <trkpt lat="49.8542" lon="4.82746">
        <ele>360</ele>
        <time>2022-07-15T06:45:10.000Z</time>
      </trkpt>
      <trkpt lat="49.85423" lon="4.82751">
        <ele>360</ele>
        <time>2022-07-15T06:45:11.000Z</time>
      </trkpt>
      <trkpt lat="49.85427" lon="4.82756">
        <ele>360</ele>
        <time>2022-07-15T06:45:12.000Z</time>
      </trkpt>
      <trkpt lat="49.8543" lon="4.8276">
        <ele>360</ele>
        <time>2022-07-15T06:45:13.000Z</time>
      </trkpt>
      <trkpt lat="49.85434" lon="4.82765">
        <ele>360</ele>
        <time>2022-07-15T06:45:14.000Z</time>
      </trkpt>
      <trkpt lat="49.85437" lon="4.82769">
        <ele>360</ele>
        <time>2022-07-15T06:45:15.000Z</time>
      </trkpt>
      <trkpt lat="49.8544" lon="4.82773">
        <ele>360</ele>
        <time>2022-07-15T06:45:16.000Z</time>
      </trkpt>
      <trkpt lat="49.85444" lon="4.82778">
        <ele>360</ele>
        <time>2022-07-15T06:45:17.000Z</time>
      </trkpt>
      <trkpt lat="49.85447" lon="4.82782">
        <ele>360</ele>
        <time>2022-07-15T06:45:18.000Z</time>
      </trkpt>
      <trkpt lat="49.85449" lon="4.82786">
        <ele>360</ele>
        <time>2022-07-15T06:45:19.000Z</time>
      </trkpt>
      <trkpt lat="49.85451" lon="4.82791">
        <ele>360</ele>
        <time>2022-07-15T06:45:20.000Z</time>
      </trkpt>
      <trkpt lat="49.85454" lon="4.82795">
        <ele>360</ele>
        <time>2022-07-15T06:45:21.000Z</time>
      </trkpt>
      <trkpt lat="49.85457" lon="4.82799">
        <ele>360</ele>
        <time>2022-07-15T06:45:22.000Z</time>
      </trkpt>
      <trkpt lat="49.8546" lon="4.82803">
        <ele>360</ele>
        <time>2022-07-15T06:45:23.000Z</time>
      </trkpt>
      <trkpt lat="49.85463" lon="4.82807">
        <ele>360</ele>
        <time>2022-07-15T06:45:24.000Z</time>
      </trkpt>
      <trkpt lat="49.85466" lon="4.82811">
        <ele>360</ele>
        <time>2022-07-15T06:45:25.000Z</time>
      </trkpt>
      <trkpt lat="49.85469" lon="4.82815">
        <ele>360</ele>
        <time>2022-07-15T06:45:26.000Z</time>
      </trkpt>
      <trkpt lat="49.85472" lon="4.82818">
        <ele>360</ele>
        <time>2022-07-15T06:45:27.000Z</time>
      </trkpt>
      <trkpt lat="49.85474" lon="4.82821">
        <ele>360</ele>
        <time>2022-07-15T06:45:28.000Z</time>
      </trkpt>
      <trkpt lat="49.85476" lon="4.82824">
        <ele>360</ele>
        <time>2022-07-15T06:45:29.000Z</time>
      </trkpt>
      <trkpt lat="49.85478" lon="4.82827">
        <ele>360</ele>
        <time>2022-07-15T06:45:30.000Z</time>
      </trkpt>
      <trkpt lat="49.8548" lon="4.8283">
        <ele>360</ele>
        <time>2022-07-15T06:45:31.000Z</time>
      </trkpt>
      <trkpt lat="49.85483" lon="4.82833">
        <ele>360</ele>
        <time>2022-07-15T06:45:32.000Z</time>
      </trkpt>
      <trkpt lat="49.85485" lon="4.82836">
        <ele>360</ele>
        <time>2022-07-15T06:45:33.000Z</time>
      </trkpt>
      <trkpt lat="49.85487" lon="4.82839">
        <ele>360</ele>
        <time>2022-07-15T06:45:34.000Z</time>
      </trkpt>
      <trkpt lat="49.8549" lon="4.82842">
        <ele>360</ele>
        <time>2022-07-15T06:45:35.000Z</time>
      </trkpt>
      <trkpt lat="49.85492" lon="4.82845">
        <ele>360</ele>
        <time>2022-07-15T06:45:36.000Z</time>
      </trkpt>
      <trkpt lat="49.85494" lon="4.82848">
        <ele>360</ele>
        <time>2022-07-15T06:45:37.000Z</time>
      </trkpt>
      <trkpt lat="49.85496" lon="4.82851">
        <ele>361</ele>
        <time>2022-07-15T06:45:38.000Z</time>
      </trkpt>
      <trkpt lat="49.85498" lon="4.82855">
        <ele>361</ele>
        <time>2022-07-15T06:45:39.000Z</time>
      </trkpt>
      <trkpt lat="49.855" lon="4.82857">
        <ele>361</ele>
        <time>2022-07-15T06:45:40.000Z</time>
      </trkpt>
      <trkpt lat="49.85502" lon="4.8286">
        <ele>361</ele>
        <time>2022-07-15T06:45:41.000Z</time>
      </trkpt>
      <trkpt lat="49.85504" lon="4.82863">
        <ele>362</ele>
        <time>2022-07-15T06:45:42.000Z</time>
      </trkpt>
      <trkpt lat="49.85506" lon="4.82866">
        <ele>362</ele>
        <time>2022-07-15T06:45:43.000Z</time>
      </trkpt>
      <trkpt lat="49.85508" lon="4.82869">
        <ele>362</ele>
        <time>2022-07-15T06:45:44.000Z</time>
      </trkpt>
      <trkpt lat="49.8551" lon="4.82872">
        <ele>362</ele>
        <time>2022-07-15T06:45:45.000Z</time>
      </trkpt>
      <trkpt lat="49.85511" lon="4.82876">
        <ele>363</ele>
        <time>2022-07-15T06:45:46.000Z</time>
      </trkpt>
      <trkpt lat="49.85513" lon="4.82879">
        <ele>363</ele>
        <time>2022-07-15T06:45:47.000Z</time>
      </trkpt>
      <trkpt lat="49.85515" lon="4.82882">
        <ele>363</ele>
        <time>2022-07-15T06:45:48.000Z</time>
      </trkpt>
      <trkpt lat="49.85517" lon="4.82885">
        <ele>363</ele>
        <time>2022-07-15T06:45:49.000Z</time>
      </trkpt>
      <trkpt lat="49.85519" lon="4.82888">
        <ele>364</ele>
        <time>2022-07-15T06:45:50.000Z</time>
      </trkpt>
      <trkpt lat="49.85521" lon="4.82891">
        <ele>364</ele>
        <time>2022-07-15T06:45:51.000Z</time>
      </trkpt>
      <trkpt lat="49.85523" lon="4.82894">
        <ele>364</ele>
        <time>2022-07-15T06:45:52.000Z</time>
      </trkpt>
      <trkpt lat="49.85526" lon="4.82898">
        <ele>364</ele>
        <time>2022-07-15T06:45:53.000Z</time>
      </trkpt>
      <trkpt lat="49.85528" lon="4.82901">
        <ele>365</ele>
        <time>2022-07-15T06:45:54.000Z</time>
      </trkpt>
      <trkpt lat="49.8553" lon="4.82904">
        <ele>365</ele>
        <time>2022-07-15T06:45:55.000Z</time>
      </trkpt>
      <trkpt lat="49.85532" lon="4.82907">
        <ele>365</ele>
        <time>2022-07-15T06:45:56.000Z</time>
      </trkpt>
      <trkpt lat="49.85533" lon="4.82911">
        <ele>365</ele>
        <time>2022-07-15T06:45:57.000Z</time>
      </trkpt>
      <trkpt lat="49.85535" lon="4.82915">
        <ele>366</ele>
        <time>2022-07-15T06:45:58.000Z</time>
      </trkpt>
      <trkpt lat="49.85537" lon="4.82918">
        <ele>366</ele>
        <time>2022-07-15T06:45:59.000Z</time>
      </trkpt>
      <trkpt lat="49.85539" lon="4.82921">
        <ele>366</ele>
        <time>2022-07-15T06:46:00.000Z</time>
      </trkpt>
      <trkpt lat="49.8554" lon="4.82924">
        <ele>366</ele>
        <time>2022-07-15T06:46:01.000Z</time>
      </trkpt>
      <trkpt lat="49.85542" lon="4.82928">
        <ele>366</ele>
        <time>2022-07-15T06:46:02.000Z</time>
      </trkpt>
      <trkpt lat="49.85543" lon="4.82932">
        <ele>366</ele>
        <time>2022-07-15T06:46:03.000Z</time>
      </trkpt>
      <trkpt lat="49.85545" lon="4.82935">
        <ele>367</ele>
        <time>2022-07-15T06:46:04.000Z</time>
      </trkpt>
      <trkpt lat="49.85546" lon="4.82939">
        <ele>367</ele>
        <time>2022-07-15T06:46:05.000Z</time>
      </trkpt>
      <trkpt lat="49.85548" lon="4.82943">
        <ele>367</ele>
        <time>2022-07-15T06:46:06.000Z</time>
      </trkpt>
      <trkpt lat="49.85549" lon="4.82947">
        <ele>367</ele>
        <time>2022-07-15T06:46:07.000Z</time>
      </trkpt>
      <trkpt lat="49.85551" lon="4.82951">
        <ele>368</ele>
        <time>2022-07-15T06:46:08.000Z</time>
      </trkpt>
      <trkpt lat="49.85553" lon="4.82955">
        <ele>368</ele>
        <time>2022-07-15T06:46:09.000Z</time>
      </trkpt>
      <trkpt lat="49.85554" lon="4.82958">
        <ele>368</ele>
        <time>2022-07-15T06:46:10.000Z</time>
      </trkpt>
      <trkpt lat="49.85556" lon="4.82962">
        <ele>368</ele>
        <time>2022-07-15T06:46:11.000Z</time>
      </trkpt>
      <trkpt lat="49.85557" lon="4.82966">
        <ele>369</ele>
        <time>2022-07-15T06:46:12.000Z</time>
      </trkpt>
      <trkpt lat="49.85558" lon="4.8297">
        <ele>369</ele>
        <time>2022-07-15T06:46:13.000Z</time>
      </trkpt>
      <trkpt lat="49.8556" lon="4.82974">
        <ele>369</ele>
        <time>2022-07-15T06:46:14.000Z</time>
      </trkpt>
      <trkpt lat="49.85561" lon="4.82977">
        <ele>369</ele>
        <time>2022-07-15T06:46:15.000Z</time>
      </trkpt>
      <trkpt lat="49.85562" lon="4.82981">
        <ele>370</ele>
        <time>2022-07-15T06:46:16.000Z</time>
      </trkpt>
      <trkpt lat="49.85563" lon="4.82985">
        <ele>370</ele>
        <time>2022-07-15T06:46:17.000Z</time>
      </trkpt>
      <trkpt lat="49.85565" lon="4.8299">
        <ele>370</ele>
        <time>2022-07-15T06:46:18.000Z</time>
      </trkpt>
      <trkpt lat="49.85566" lon="4.82994">
        <ele>370</ele>
        <time>2022-07-15T06:46:19.000Z</time>
      </trkpt>
      <trkpt lat="49.85567" lon="4.82998">
        <ele>371</ele>
        <time>2022-07-15T06:46:20.000Z</time>
      </trkpt>
      <trkpt lat="49.85568" lon="4.83002">
        <ele>371</ele>
        <time>2022-07-15T06:46:21.000Z</time>
      </trkpt>
      <trkpt lat="49.8557" lon="4.83006">
        <ele>371</ele>
        <time>2022-07-15T06:46:22.000Z</time>
      </trkpt>
      <trkpt lat="49.85571" lon="4.8301">
        <ele>371</ele>
        <time>2022-07-15T06:46:23.000Z</time>
      </trkpt>
      <trkpt lat="49.85572" lon="4.83014">
        <ele>372</ele>
        <time>2022-07-15T06:46:24.000Z</time>
      </trkpt>
      <trkpt lat="49.85573" lon="4.83019">
        <ele>372</ele>
        <time>2022-07-15T06:46:25.000Z</time>
      </trkpt>
      <trkpt lat="49.85574" lon="4.83023">
        <ele>372</ele>
        <time>2022-07-15T06:46:26.000Z</time>
      </trkpt>
      <trkpt lat="49.85575" lon="4.83027">
        <ele>372</ele>
        <time>2022-07-15T06:46:27.000Z</time>
      </trkpt>
      <trkpt lat="49.85576" lon="4.83031">
        <ele>373</ele>
        <time>2022-07-15T06:46:28.000Z</time>
      </trkpt>
      <trkpt lat="49.85577" lon="4.83036">
        <ele>373</ele>
        <time>2022-07-15T06:46:29.000Z</time>
      </trkpt>
      <trkpt lat="49.85578" lon="4.8304">
        <ele>373</ele>
        <time>2022-07-15T06:46:30.000Z</time>
      </trkpt>
      <trkpt lat="49.85579" lon="4.83044">
        <ele>373</ele>
        <time>2022-07-15T06:46:31.000Z</time>
      </trkpt>
      <trkpt lat="49.8558" lon="4.83048">
        <ele>373</ele>
        <time>2022-07-15T06:46:32.000Z</time>
      </trkpt>
      <trkpt lat="49.85581" lon="4.83053">
        <ele>374</ele>
        <time>2022-07-15T06:46:33.000Z</time>
      </trkpt>
      <trkpt lat="49.85581" lon="4.83057">
        <ele>374</ele>
        <time>2022-07-15T06:46:34.000Z</time>
      </trkpt>
      <trkpt lat="49.85582" lon="4.83061">
        <ele>374</ele>
        <time>2022-07-15T06:46:35.000Z</time>
      </trkpt>
      <trkpt lat="49.85584" lon="4.83066">
        <ele>374</ele>
        <time>2022-07-15T06:46:36.000Z</time>
      </trkpt>
      <trkpt lat="49.85585" lon="4.8307">
        <ele>374</ele>
        <time>2022-07-15T06:46:37.000Z</time>
      </trkpt>
      <trkpt lat="49.85586" lon="4.83074">
        <ele>375</ele>
        <time>2022-07-15T06:46:38.000Z</time>
      </trkpt>
      <trkpt lat="49.85587" lon="4.83078">
        <ele>375</ele>
        <time>2022-07-15T06:46:39.000Z</time>
      </trkpt>
      <trkpt lat="49.85588" lon="4.83081">
        <ele>375</ele>
        <time>2022-07-15T06:46:40.000Z</time>
      </trkpt>
      <trkpt lat="49.8559" lon="4.83085">
        <ele>375</ele>
        <time>2022-07-15T06:46:41.000Z</time>
      </trkpt>
      <trkpt lat="49.85591" lon="4.83088">
        <ele>375</ele>
        <time>2022-07-15T06:46:42.000Z</time>
      </trkpt>
      <trkpt lat="49.85593" lon="4.83091">
        <ele>375</ele>
        <time>2022-07-15T06:46:43.000Z</time>
      </trkpt>
      <trkpt lat="49.85595" lon="4.83095">
        <ele>376</ele>
        <time>2022-07-15T06:46:44.000Z</time>
      </trkpt>
      <trkpt lat="49.85597" lon="4.83098">
        <ele>376</ele>
        <time>2022-07-15T06:46:45.000Z</time>
      </trkpt>
      <trkpt lat="49.85599" lon="4.83102">
        <ele>376</ele>
        <time>2022-07-15T06:46:46.000Z</time>
      </trkpt>
      <trkpt lat="49.85601" lon="4.83105">
        <ele>376</ele>
        <time>2022-07-15T06:46:47.000Z</time>
      </trkpt>
      <trkpt lat="49.85604" lon="4.83108">
        <ele>376</ele>
        <time>2022-07-15T06:46:48.000Z</time>
      </trkpt>
      <trkpt lat="49.85606" lon="4.83111">
        <ele>376</ele>
        <time>2022-07-15T06:46:49.000Z</time>
      </trkpt>
      <trkpt lat="49.85607" lon="4.83113">
        <ele>376</ele>
        <time>2022-07-15T06:46:50.000Z</time>
      </trkpt>
      <trkpt lat="49.8561" lon="4.83115">
        <ele>377</ele>
        <time>2022-07-15T06:46:51.000Z</time>
      </trkpt>
      <trkpt lat="49.85612" lon="4.83118">
        <ele>377</ele>
        <time>2022-07-15T06:46:52.000Z</time>
      </trkpt>
      <trkpt lat="49.85615" lon="4.8312">
        <ele>377</ele>
        <time>2022-07-15T06:46:53.000Z</time>
      </trkpt>
      <trkpt lat="49.85617" lon="4.83123">
        <ele>378</ele>
        <time>2022-07-15T06:46:54.000Z</time>
      </trkpt>
      <trkpt lat="49.8562" lon="4.83125">
        <ele>378</ele>
        <time>2022-07-15T06:46:55.000Z</time>
      </trkpt>
      <trkpt lat="49.85622" lon="4.83128">
        <ele>378</ele>
        <time>2022-07-15T06:46:56.000Z</time>
      </trkpt>
      <trkpt lat="49.85625" lon="4.83131">
        <ele>378</ele>
        <time>2022-07-15T06:46:57.000Z</time>
      </trkpt>
      <trkpt lat="49.85627" lon="4.83133">
        <ele>378</ele>
        <time>2022-07-15T06:46:58.000Z</time>
      </trkpt>
      <trkpt lat="49.85629" lon="4.83135">
        <ele>379</ele>
        <time>2022-07-15T06:46:59.000Z</time>
      </trkpt>
      <trkpt lat="49.85632" lon="4.83137">
        <ele>379</ele>
        <time>2022-07-15T06:47:00.000Z</time>
      </trkpt>
      <trkpt lat="49.85635" lon="4.83138">
        <ele>379</ele>
        <time>2022-07-15T06:47:01.000Z</time>
      </trkpt>
      <trkpt lat="49.85638" lon="4.8314">
        <ele>379</ele>
        <time>2022-07-15T06:47:02.000Z</time>
      </trkpt>
      <trkpt lat="49.85641" lon="4.83142">
        <ele>379</ele>
        <time>2022-07-15T06:47:03.000Z</time>
      </trkpt>
      <trkpt lat="49.85644" lon="4.83143">
        <ele>379</ele>
        <time>2022-07-15T06:47:04.000Z</time>
      </trkpt>
      <trkpt lat="49.85647" lon="4.83145">
        <ele>380</ele>
        <time>2022-07-15T06:47:05.000Z</time>
      </trkpt>
      <trkpt lat="49.85649" lon="4.83147">
        <ele>380</ele>
        <time>2022-07-15T06:47:06.000Z</time>
      </trkpt>
      <trkpt lat="49.85651" lon="4.83149">
        <ele>380</ele>
        <time>2022-07-15T06:47:07.000Z</time>
      </trkpt>
      <trkpt lat="49.85654" lon="4.83151">
        <ele>381</ele>
        <time>2022-07-15T06:47:08.000Z</time>
      </trkpt>
      <trkpt lat="49.85657" lon="4.83152">
        <ele>381</ele>
        <time>2022-07-15T06:47:09.000Z</time>
      </trkpt>
      <trkpt lat="49.85659" lon="4.83153">
        <ele>381</ele>
        <time>2022-07-15T06:47:10.000Z</time>
      </trkpt>
      <trkpt lat="49.85661" lon="4.83154">
        <ele>381</ele>
        <time>2022-07-15T06:47:11.000Z</time>
      </trkpt>
      <trkpt lat="49.85663" lon="4.83155">
        <ele>382</ele>
        <time>2022-07-15T06:47:12.000Z</time>
      </trkpt>
      <trkpt lat="49.85666" lon="4.83157">
        <ele>382</ele>
        <time>2022-07-15T06:47:13.000Z</time>
      </trkpt>
      <trkpt lat="49.85669" lon="4.83159">
        <ele>382</ele>
        <time>2022-07-15T06:47:14.000Z</time>
      </trkpt>
      <trkpt lat="49.85672" lon="4.8316">
        <ele>382</ele>
        <time>2022-07-15T06:47:15.000Z</time>
      </trkpt>
      <trkpt lat="49.85676" lon="4.83161">
        <ele>383</ele>
        <time>2022-07-15T06:47:16.000Z</time>
      </trkpt>
      <trkpt lat="49.85679" lon="4.8316">
        <ele>383</ele>
        <time>2022-07-15T06:47:17.000Z</time>
      </trkpt>
      <trkpt lat="49.85683" lon="4.8316">
        <ele>383</ele>
        <time>2022-07-15T06:47:18.000Z</time>
      </trkpt>
      <trkpt lat="49.85687" lon="4.83159">
        <ele>383</ele>
        <time>2022-07-15T06:47:19.000Z</time>
      </trkpt>
      <trkpt lat="49.8569" lon="4.83159">
        <ele>383</ele>
        <time>2022-07-15T06:47:20.000Z</time>
      </trkpt>
      <trkpt lat="49.85695" lon="4.83158">
        <ele>384</ele>
        <time>2022-07-15T06:47:21.000Z</time>
      </trkpt>
      <trkpt lat="49.857" lon="4.83157">
        <ele>384</ele>
        <time>2022-07-15T06:47:22.000Z</time>
      </trkpt>
      <trkpt lat="49.85704" lon="4.83156">
        <ele>384</ele>
        <time>2022-07-15T06:47:23.000Z</time>
      </trkpt>
      <trkpt lat="49.8571" lon="4.83155">
        <ele>384</ele>
        <time>2022-07-15T06:47:24.000Z</time>
      </trkpt>
      <trkpt lat="49.85715" lon="4.83156">
        <ele>384</ele>
        <time>2022-07-15T06:47:25.000Z</time>
      </trkpt>
      <trkpt lat="49.8572" lon="4.83157">
        <ele>384</ele>
        <time>2022-07-15T06:47:26.000Z</time>
      </trkpt>
      <trkpt lat="49.85725" lon="4.83158">
        <ele>384</ele>
        <time>2022-07-15T06:47:27.000Z</time>
      </trkpt>
      <trkpt lat="49.8573" lon="4.8316">
        <ele>384</ele>
        <time>2022-07-15T06:47:28.000Z</time>
      </trkpt>
      <trkpt lat="49.85735" lon="4.83161">
        <ele>384</ele>
        <time>2022-07-15T06:47:29.000Z</time>
      </trkpt>
      <trkpt lat="49.85741" lon="4.83164">
        <ele>384</ele>
        <time>2022-07-15T06:47:30.000Z</time>
      </trkpt>
      <trkpt lat="49.85747" lon="4.83167">
        <ele>384</ele>
        <time>2022-07-15T06:47:31.000Z</time>
      </trkpt>
      <trkpt lat="49.85752" lon="4.83172">
        <ele>384</ele>
        <time>2022-07-15T06:47:32.000Z</time>
      </trkpt>
      <trkpt lat="49.85757" lon="4.83178">
        <ele>384</ele>
        <time>2022-07-15T06:47:33.000Z</time>
      </trkpt>
      <trkpt lat="49.85762" lon="4.83183">
        <ele>384</ele>
        <time>2022-07-15T06:47:34.000Z</time>
      </trkpt>
      <trkpt lat="49.85767" lon="4.83188">
        <ele>384</ele>
        <time>2022-07-15T06:47:35.000Z</time>
      </trkpt>
      <trkpt lat="49.85772" lon="4.83192">
        <ele>384</ele>
        <time>2022-07-15T06:47:36.000Z</time>
      </trkpt>
      <trkpt lat="49.85778" lon="4.83196">
        <ele>384</ele>
        <time>2022-07-15T06:47:37.000Z</time>
      </trkpt>
      <trkpt lat="49.85783" lon="4.832">
        <ele>383</ele>
        <time>2022-07-15T06:47:38.000Z</time>
      </trkpt>
      <trkpt lat="49.85789" lon="4.83203">
        <ele>383</ele>
        <time>2022-07-15T06:47:39.000Z</time>
      </trkpt>
      <trkpt lat="49.85796" lon="4.83209">
        <ele>383</ele>
        <time>2022-07-15T06:47:40.000Z</time>
      </trkpt>
      <trkpt lat="49.85801" lon="4.83216">
        <ele>383</ele>
        <time>2022-07-15T06:47:41.000Z</time>
      </trkpt>
      <trkpt lat="49.85806" lon="4.83225">
        <ele>382</ele>
        <time>2022-07-15T06:47:42.000Z</time>
      </trkpt>
      <trkpt lat="49.85811" lon="4.83234">
        <ele>382</ele>
        <time>2022-07-15T06:47:43.000Z</time>
      </trkpt>
      <trkpt lat="49.85815" lon="4.83244">
        <ele>381</ele>
        <time>2022-07-15T06:47:44.000Z</time>
      </trkpt>
      <trkpt lat="49.85819" lon="4.83255">
        <ele>381</ele>
        <time>2022-07-15T06:47:45.000Z</time>
      </trkpt>
      <trkpt lat="49.85823" lon="4.83266">
        <ele>380</ele>
        <time>2022-07-15T06:47:46.000Z</time>
      </trkpt>
      <trkpt lat="49.85826" lon="4.83277">
        <ele>380</ele>
        <time>2022-07-15T06:47:47.000Z</time>
      </trkpt>
      <trkpt lat="49.85829" lon="4.83288">
        <ele>379</ele>
        <time>2022-07-15T06:47:48.000Z</time>
      </trkpt>
      <trkpt lat="49.85832" lon="4.83297">
        <ele>379</ele>
        <time>2022-07-15T06:47:49.000Z</time>
      </trkpt>
      <trkpt lat="49.85835" lon="4.83307">
        <ele>378</ele>
        <time>2022-07-15T06:47:50.000Z</time>
      </trkpt>
      <trkpt lat="49.85837" lon="4.83317">
        <ele>378</ele>
        <time>2022-07-15T06:47:51.000Z</time>
      </trkpt>
      <trkpt lat="49.85838" lon="4.83327">
        <ele>377</ele>
        <time>2022-07-15T06:47:52.000Z</time>
      </trkpt>
      <trkpt lat="49.85839" lon="4.83337">
        <ele>377</ele>
        <time>2022-07-15T06:47:53.000Z</time>
      </trkpt>
      <trkpt lat="49.85839" lon="4.83348">
        <ele>376</ele>
        <time>2022-07-15T06:47:54.000Z</time>
      </trkpt>
      <trkpt lat="49.85838" lon="4.83359">
        <ele>375</ele>
        <time>2022-07-15T06:47:55.000Z</time>
      </trkpt>
      <trkpt lat="49.85836" lon="4.83369">
        <ele>375</ele>
        <time>2022-07-15T06:47:56.000Z</time>
      </trkpt>
      <trkpt lat="49.85834" lon="4.83379">
        <ele>374</ele>
        <time>2022-07-15T06:47:57.000Z</time>
      </trkpt>
      <trkpt lat="49.85833" lon="4.83388">
        <ele>374</ele>
        <time>2022-07-15T06:47:58.000Z</time>
      </trkpt>
      <trkpt lat="49.85832" lon="4.83398">
        <ele>373</ele>
        <time>2022-07-15T06:47:59.000Z</time>
      </trkpt>
      <trkpt lat="49.85831" lon="4.83407">
        <ele>372</ele>
        <time>2022-07-15T06:48:00.000Z</time>
      </trkpt>
      <trkpt lat="49.85832" lon="4.83416">
        <ele>371</ele>
        <time>2022-07-15T06:48:01.000Z</time>
      </trkpt>
      <trkpt lat="49.85834" lon="4.83424">
        <ele>371</ele>
        <time>2022-07-15T06:48:02.000Z</time>
      </trkpt>
      <trkpt lat="49.85837" lon="4.83432">
        <ele>370</ele>
        <time>2022-07-15T06:48:03.000Z</time>
      </trkpt>
      <trkpt lat="49.8584" lon="4.83439">
        <ele>370</ele>
        <time>2022-07-15T06:48:04.000Z</time>
      </trkpt>
      <trkpt lat="49.85843" lon="4.83447">
        <ele>369</ele>
        <time>2022-07-15T06:48:05.000Z</time>
      </trkpt>
      <trkpt lat="49.85846" lon="4.83454">
        <ele>369</ele>
        <time>2022-07-15T06:48:06.000Z</time>
      </trkpt>
      <trkpt lat="49.8585" lon="4.83459">
        <ele>368</ele>
        <time>2022-07-15T06:48:07.000Z</time>
      </trkpt>
      <trkpt lat="49.85853" lon="4.83463">
        <ele>368</ele>
        <time>2022-07-15T06:48:08.000Z</time>
      </trkpt>
      <trkpt lat="49.85857" lon="4.83467">
        <ele>367</ele>
        <time>2022-07-15T06:48:09.000Z</time>
      </trkpt>
      <trkpt lat="49.8586" lon="4.8347">
        <ele>367</ele>
        <time>2022-07-15T06:48:10.000Z</time>
      </trkpt>
      <trkpt lat="49.85864" lon="4.83473">
        <ele>366</ele>
        <time>2022-07-15T06:48:11.000Z</time>
      </trkpt>
      <trkpt lat="49.85867" lon="4.83475">
        <ele>366</ele>
        <time>2022-07-15T06:48:12.000Z</time>
      </trkpt>
      <trkpt lat="49.8587" lon="4.83478">
        <ele>365</ele>
        <time>2022-07-15T06:48:13.000Z</time>
      </trkpt>
      <trkpt lat="49.85872" lon="4.8348">
        <ele>365</ele>
        <time>2022-07-15T06:48:14.000Z</time>
      </trkpt>
      <trkpt lat="49.85876" lon="4.83481">
        <ele>364</ele>
        <time>2022-07-15T06:48:15.000Z</time>
      </trkpt>
      <trkpt lat="49.85879" lon="4.83483">
        <ele>364</ele>
        <time>2022-07-15T06:48:16.000Z</time>
      </trkpt>
      <trkpt lat="49.85883" lon="4.83485">
        <ele>364</ele>
        <time>2022-07-15T06:48:17.000Z</time>
      </trkpt>
      <trkpt lat="49.85886" lon="4.83487">
        <ele>363</ele>
        <time>2022-07-15T06:48:18.000Z</time>
      </trkpt>
      <trkpt lat="49.8589" lon="4.8349">
        <ele>363</ele>
        <time>2022-07-15T06:48:19.000Z</time>
      </trkpt>
      <trkpt lat="49.85894" lon="4.83491">
        <ele>363</ele>
        <time>2022-07-15T06:48:20.000Z</time>
      </trkpt>
      <trkpt lat="49.85897" lon="4.83493">
        <ele>362</ele>
        <time>2022-07-15T06:48:21.000Z</time>
      </trkpt>
      <trkpt lat="49.85901" lon="4.83494">
        <ele>362</ele>
        <time>2022-07-15T06:48:22.000Z</time>
      </trkpt>
      <trkpt lat="49.85905" lon="4.83495">
        <ele>362</ele>
        <time>2022-07-15T06:48:23.000Z</time>
      </trkpt>
      <trkpt lat="49.85909" lon="4.83496">
        <ele>362</ele>
        <time>2022-07-15T06:48:24.000Z</time>
      </trkpt>
      <trkpt lat="49.85913" lon="4.83496">
        <ele>362</ele>
        <time>2022-07-15T06:48:25.000Z</time>
      </trkpt>
      <trkpt lat="49.85916" lon="4.83495">
        <ele>362</ele>
        <time>2022-07-15T06:48:26.000Z</time>
      </trkpt>
      <trkpt lat="49.8592" lon="4.83494">
        <ele>362</ele>
        <time>2022-07-15T06:48:27.000Z</time>
      </trkpt>
      <trkpt lat="49.85924" lon="4.83492">
        <ele>362</ele>
        <time>2022-07-15T06:48:28.000Z</time>
      </trkpt>
      <trkpt lat="49.85927" lon="4.8349">
        <ele>362</ele>
        <time>2022-07-15T06:48:29.000Z</time>
      </trkpt>
      <trkpt lat="49.8593" lon="4.83488">
        <ele>362</ele>
        <time>2022-07-15T06:48:30.000Z</time>
      </trkpt>
      <trkpt lat="49.85933" lon="4.83485">
        <ele>362</ele>
        <time>2022-07-15T06:48:31.000Z</time>
      </trkpt>
      <trkpt lat="49.85935" lon="4.83482">
        <ele>362</ele>
        <time>2022-07-15T06:48:32.000Z</time>
      </trkpt>
      <trkpt lat="49.85939" lon="4.83479">
        <ele>362</ele>
        <time>2022-07-15T06:48:33.000Z</time>
      </trkpt>
      <trkpt lat="49.85942" lon="4.83476">
        <ele>362</ele>
        <time>2022-07-15T06:48:34.000Z</time>
      </trkpt>
      <trkpt lat="49.85946" lon="4.83474">
        <ele>362</ele>
        <time>2022-07-15T06:48:35.000Z</time>
      </trkpt>
      <trkpt lat="49.8595" lon="4.83472">
        <ele>362</ele>
        <time>2022-07-15T06:48:36.000Z</time>
      </trkpt>
      <trkpt lat="49.85953" lon="4.8347">
        <ele>362</ele>
        <time>2022-07-15T06:48:37.000Z</time>
      </trkpt>
      <trkpt lat="49.85957" lon="4.83469">
        <ele>363</ele>
        <time>2022-07-15T06:48:38.000Z</time>
      </trkpt>
      <trkpt lat="49.85961" lon="4.83467">
        <ele>363</ele>
        <time>2022-07-15T06:48:39.000Z</time>
      </trkpt>
      <trkpt lat="49.85965" lon="4.83466">
        <ele>363</ele>
        <time>2022-07-15T06:48:40.000Z</time>
      </trkpt>
      <trkpt lat="49.85969" lon="4.83464">
        <ele>363</ele>
        <time>2022-07-15T06:48:41.000Z</time>
      </trkpt>
      <trkpt lat="49.85973" lon="4.83461">
        <ele>363</ele>
        <time>2022-07-15T06:48:42.000Z</time>
      </trkpt>
      <trkpt lat="49.85977" lon="4.83459">
        <ele>364</ele>
        <time>2022-07-15T06:48:43.000Z</time>
      </trkpt>
      <trkpt lat="49.85981" lon="4.83456">
        <ele>364</ele>
        <time>2022-07-15T06:48:44.000Z</time>
      </trkpt>
      <trkpt lat="49.85985" lon="4.83454">
        <ele>364</ele>
        <time>2022-07-15T06:48:45.000Z</time>
      </trkpt>
      <trkpt lat="49.85989" lon="4.83451">
        <ele>364</ele>
        <time>2022-07-15T06:48:46.000Z</time>
      </trkpt>
      <trkpt lat="49.85993" lon="4.83449">
        <ele>364</ele>
        <time>2022-07-15T06:48:47.000Z</time>
      </trkpt>
      <trkpt lat="49.85997" lon="4.83446">
        <ele>364</ele>
        <time>2022-07-15T06:48:48.000Z</time>
      </trkpt>
      <trkpt lat="49.86" lon="4.83442">
        <ele>364</ele>
        <time>2022-07-15T06:48:49.000Z</time>
      </trkpt>
      <trkpt lat="49.86004" lon="4.83437">
        <ele>365</ele>
        <time>2022-07-15T06:48:50.000Z</time>
      </trkpt>
      <trkpt lat="49.86008" lon="4.83432">
        <ele>365</ele>
        <time>2022-07-15T06:48:51.000Z</time>
      </trkpt>
      <trkpt lat="49.86011" lon="4.83427">
        <ele>365</ele>
        <time>2022-07-15T06:48:52.000Z</time>
      </trkpt>
      <trkpt lat="49.86015" lon="4.83423">
        <ele>365</ele>
        <time>2022-07-15T06:48:53.000Z</time>
      </trkpt>
      <trkpt lat="49.86019" lon="4.83418">
        <ele>365</ele>
        <time>2022-07-15T06:48:54.000Z</time>
      </trkpt>
      <trkpt lat="49.86024" lon="4.83415">
        <ele>365</ele>
        <time>2022-07-15T06:48:55.000Z</time>
      </trkpt>
      <trkpt lat="49.86029" lon="4.83412">
        <ele>365</ele>
        <time>2022-07-15T06:48:56.000Z</time>
      </trkpt>
      <trkpt lat="49.86035" lon="4.8341">
        <ele>365</ele>
        <time>2022-07-15T06:48:57.000Z</time>
      </trkpt>
      <trkpt lat="49.86041" lon="4.83409">
        <ele>365</ele>
        <time>2022-07-15T06:48:58.000Z</time>
      </trkpt>
      <trkpt lat="49.86048" lon="4.83407">
        <ele>365</ele>
        <time>2022-07-15T06:48:59.000Z</time>
      </trkpt>
      <trkpt lat="49.86054" lon="4.83405">
        <ele>365</ele>
        <time>2022-07-15T06:49:00.000Z</time>
      </trkpt>
      <trkpt lat="49.8606" lon="4.83402">
        <ele>365</ele>
        <time>2022-07-15T06:49:01.000Z</time>
      </trkpt>
      <trkpt lat="49.86067" lon="4.83399">
        <ele>365</ele>
        <time>2022-07-15T06:49:02.000Z</time>
      </trkpt>
      <trkpt lat="49.86075" lon="4.83396">
        <ele>365</ele>
        <time>2022-07-15T06:49:03.000Z</time>
      </trkpt>
      <trkpt lat="49.86082" lon="4.83393">
        <ele>365</ele>
        <time>2022-07-15T06:49:04.000Z</time>
      </trkpt>
      <trkpt lat="49.86088" lon="4.83391">
        <ele>364</ele>
        <time>2022-07-15T06:49:05.000Z</time>
      </trkpt>
      <trkpt lat="49.86093" lon="4.83388">
        <ele>364</ele>
        <time>2022-07-15T06:49:06.000Z</time>
      </trkpt>
      <trkpt lat="49.86098" lon="4.83385">
        <ele>364</ele>
        <time>2022-07-15T06:49:07.000Z</time>
      </trkpt>
      <trkpt lat="49.86103" lon="4.83382">
        <ele>364</ele>
        <time>2022-07-15T06:49:08.000Z</time>
      </trkpt>
      <trkpt lat="49.86107" lon="4.83379">
        <ele>364</ele>
        <time>2022-07-15T06:49:09.000Z</time>
      </trkpt>
      <trkpt lat="49.86113" lon="4.83375">
        <ele>364</ele>
        <time>2022-07-15T06:49:10.000Z</time>
      </trkpt>
      <trkpt lat="49.86118" lon="4.83373">
        <ele>364</ele>
        <time>2022-07-15T06:49:11.000Z</time>
      </trkpt>
      <trkpt lat="49.86124" lon="4.8337">
        <ele>363</ele>
        <time>2022-07-15T06:49:12.000Z</time>
      </trkpt>
      <trkpt lat="49.8613" lon="4.83367">
        <ele>363</ele>
        <time>2022-07-15T06:49:13.000Z</time>
      </trkpt>
      <trkpt lat="49.86136" lon="4.83364">
        <ele>363</ele>
        <time>2022-07-15T06:49:14.000Z</time>
      </trkpt>
      <trkpt lat="49.86142" lon="4.83361">
        <ele>363</ele>
        <time>2022-07-15T06:49:15.000Z</time>
      </trkpt>
      <trkpt lat="49.86148" lon="4.83358">
        <ele>363</ele>
        <time>2022-07-15T06:49:16.000Z</time>
      </trkpt>
      <trkpt lat="49.86154" lon="4.83356">
        <ele>362</ele>
        <time>2022-07-15T06:49:17.000Z</time>
      </trkpt>
      <trkpt lat="49.86159" lon="4.83353">
        <ele>362</ele>
        <time>2022-07-15T06:49:18.000Z</time>
      </trkpt>
      <trkpt lat="49.86164" lon="4.83351">
        <ele>362</ele>
        <time>2022-07-15T06:49:19.000Z</time>
      </trkpt>
      <trkpt lat="49.86169" lon="4.83349">
        <ele>362</ele>
        <time>2022-07-15T06:49:20.000Z</time>
      </trkpt>
      <trkpt lat="49.86174" lon="4.83347">
        <ele>362</ele>
        <time>2022-07-15T06:49:21.000Z</time>
      </trkpt>
      <trkpt lat="49.86179" lon="4.83346">
        <ele>362</ele>
        <time>2022-07-15T06:49:22.000Z</time>
      </trkpt>
      <trkpt lat="49.86183" lon="4.83344">
        <ele>362</ele>
        <time>2022-07-15T06:49:23.000Z</time>
      </trkpt>
      <trkpt lat="49.86188" lon="4.83343">
        <ele>362</ele>
        <time>2022-07-15T06:49:24.000Z</time>
      </trkpt>
      <trkpt lat="49.86193" lon="4.83341">
        <ele>362</ele>
        <time>2022-07-15T06:49:25.000Z</time>
      </trkpt>
      <trkpt lat="49.86199" lon="4.8334">
        <ele>362</ele>
        <time>2022-07-15T06:49:26.000Z</time>
      </trkpt>
      <trkpt lat="49.86205" lon="4.83338">
        <ele>361</ele>
        <time>2022-07-15T06:49:27.000Z</time>
      </trkpt>
      <trkpt lat="49.86211" lon="4.83335">
        <ele>361</ele>
        <time>2022-07-15T06:49:28.000Z</time>
      </trkpt>
      <trkpt lat="49.86216" lon="4.83332">
        <ele>361</ele>
        <time>2022-07-15T06:49:29.000Z</time>
      </trkpt>
      <trkpt lat="49.86222" lon="4.83328">
        <ele>361</ele>
        <time>2022-07-15T06:49:30.000Z</time>
      </trkpt>
      <trkpt lat="49.86226" lon="4.83324">
        <ele>361</ele>
        <time>2022-07-15T06:49:31.000Z</time>
      </trkpt>
      <trkpt lat="49.86229" lon="4.83319">
        <ele>361</ele>
        <time>2022-07-15T06:49:32.000Z</time>
      </trkpt>
      <trkpt lat="49.86232" lon="4.83315">
        <ele>361</ele>
        <time>2022-07-15T06:49:33.000Z</time>
      </trkpt>
      <trkpt lat="49.86235" lon="4.8331">
        <ele>360</ele>
        <time>2022-07-15T06:49:34.000Z</time>
      </trkpt>
      <trkpt lat="49.86238" lon="4.83306">
        <ele>360</ele>
        <time>2022-07-15T06:49:35.000Z</time>
      </trkpt>
      <trkpt lat="49.8624" lon="4.83302">
        <ele>360</ele>
        <time>2022-07-15T06:49:36.000Z</time>
      </trkpt>
      <trkpt lat="49.86243" lon="4.83297">
        <ele>360</ele>
        <time>2022-07-15T06:49:37.000Z</time>
      </trkpt>
      <trkpt lat="49.86245" lon="4.83293">
        <ele>360</ele>
        <time>2022-07-15T06:49:38.000Z</time>
      </trkpt>
      <trkpt lat="49.86248" lon="4.83288">
        <ele>360</ele>
        <time>2022-07-15T06:49:39.000Z</time>
      </trkpt>
      <trkpt lat="49.8625" lon="4.83282">
        <ele>360</ele>
        <time>2022-07-15T06:49:40.000Z</time>
      </trkpt>
      <trkpt lat="49.86253" lon="4.83276">
        <ele>361</ele>
        <time>2022-07-15T06:49:41.000Z</time>
      </trkpt>
      <trkpt lat="49.86256" lon="4.83271">
        <ele>361</ele>
        <time>2022-07-15T06:49:42.000Z</time>
      </trkpt>
      <trkpt lat="49.86259" lon="4.83267">
        <ele>361</ele>
        <time>2022-07-15T06:49:43.000Z</time>
      </trkpt>
      <trkpt lat="49.86263" lon="4.83262">
        <ele>361</ele>
        <time>2022-07-15T06:49:44.000Z</time>
      </trkpt>
      <trkpt lat="49.86267" lon="4.83259">
        <ele>361</ele>
        <time>2022-07-15T06:49:45.000Z</time>
      </trkpt>
      <trkpt lat="49.86269" lon="4.83256">
        <ele>361</ele>
        <time>2022-07-15T06:49:46.000Z</time>
      </trkpt>
      <trkpt lat="49.86272" lon="4.83253">
        <ele>361</ele>
        <time>2022-07-15T06:49:47.000Z</time>
      </trkpt>
      <trkpt lat="49.86275" lon="4.83249">
        <ele>361</ele>
        <time>2022-07-15T06:49:48.000Z</time>
      </trkpt>
      <trkpt lat="49.86277" lon="4.83244">
        <ele>361</ele>
        <time>2022-07-15T06:49:49.000Z</time>
      </trkpt>
      <trkpt lat="49.8628" lon="4.83239">
        <ele>361</ele>
        <time>2022-07-15T06:49:50.000Z</time>
      </trkpt>
      <trkpt lat="49.86283" lon="4.83235">
        <ele>361</ele>
        <time>2022-07-15T06:49:51.000Z</time>
      </trkpt>
      <trkpt lat="49.86285" lon="4.8323">
        <ele>361</ele>
        <time>2022-07-15T06:49:52.000Z</time>
      </trkpt>
      <trkpt lat="49.86288" lon="4.83225">
        <ele>361</ele>
        <time>2022-07-15T06:49:53.000Z</time>
      </trkpt>
      <trkpt lat="49.8629" lon="4.83221">
        <ele>360</ele>
        <time>2022-07-15T06:49:54.000Z</time>
      </trkpt>
      <trkpt lat="49.86293" lon="4.83215">
        <ele>360</ele>
        <time>2022-07-15T06:49:55.000Z</time>
      </trkpt>
      <trkpt lat="49.86295" lon="4.83209">
        <ele>360</ele>
        <time>2022-07-15T06:49:56.000Z</time>
      </trkpt>
      <trkpt lat="49.86298" lon="4.83204">
        <ele>360</ele>
        <time>2022-07-15T06:49:57.000Z</time>
      </trkpt>
      <trkpt lat="49.863" lon="4.83199">
        <ele>360</ele>
        <time>2022-07-15T06:49:58.000Z</time>
      </trkpt>
      <trkpt lat="49.86302" lon="4.83194">
        <ele>360</ele>
        <time>2022-07-15T06:49:59.000Z</time>
      </trkpt>
      <trkpt lat="49.86305" lon="4.8319">
        <ele>360</ele>
        <time>2022-07-15T06:50:00.000Z</time>
      </trkpt>
      <trkpt lat="49.86307" lon="4.83186">
        <ele>359</ele>
        <time>2022-07-15T06:50:01.000Z</time>
      </trkpt>
      <trkpt lat="49.86309" lon="4.83182">
        <ele>359</ele>
        <time>2022-07-15T06:50:02.000Z</time>
      </trkpt>
      <trkpt lat="49.8631" lon="4.83177">
        <ele>359</ele>
        <time>2022-07-15T06:50:03.000Z</time>
      </trkpt>
      <trkpt lat="49.86311" lon="4.83172">
        <ele>359</ele>
        <time>2022-07-15T06:50:04.000Z</time>
      </trkpt>
      <trkpt lat="49.86313" lon="4.83166">
        <ele>358</ele>
        <time>2022-07-15T06:50:05.000Z</time>
      </trkpt>
      <trkpt lat="49.86313" lon="4.83161">
        <ele>358</ele>
        <time>2022-07-15T06:50:06.000Z</time>
      </trkpt>
      <trkpt lat="49.86314" lon="4.83155">
        <ele>358</ele>
        <time>2022-07-15T06:50:07.000Z</time>
      </trkpt>
      <trkpt lat="49.86314" lon="4.8315">
        <ele>358</ele>
        <time>2022-07-15T06:50:08.000Z</time>
      </trkpt>
      <trkpt lat="49.86315" lon="4.83144">
        <ele>358</ele>
        <time>2022-07-15T06:50:09.000Z</time>
      </trkpt>
      <trkpt lat="49.86315" lon="4.83138">
        <ele>358</ele>
        <time>2022-07-15T06:50:10.000Z</time>
      </trkpt>
      <trkpt lat="49.86315" lon="4.83132">
        <ele>357</ele>
        <time>2022-07-15T06:50:11.000Z</time>
      </trkpt>
      <trkpt lat="49.86316" lon="4.83127">
        <ele>357</ele>
        <time>2022-07-15T06:50:12.000Z</time>
      </trkpt>
      <trkpt lat="49.86317" lon="4.83121">
        <ele>357</ele>
        <time>2022-07-15T06:50:13.000Z</time>
      </trkpt>
      <trkpt lat="49.86319" lon="4.83115">
        <ele>357</ele>
        <time>2022-07-15T06:50:14.000Z</time>
      </trkpt>
      <trkpt lat="49.8632" lon="4.83109">
        <ele>356</ele>
        <time>2022-07-15T06:50:15.000Z</time>
      </trkpt>
      <trkpt lat="49.86321" lon="4.83102">
        <ele>356</ele>
        <time>2022-07-15T06:50:16.000Z</time>
      </trkpt>
      <trkpt lat="49.86322" lon="4.83096">
        <ele>356</ele>
        <time>2022-07-15T06:50:17.000Z</time>
      </trkpt>
      <trkpt lat="49.86323" lon="4.8309">
        <ele>356</ele>
        <time>2022-07-15T06:50:18.000Z</time>
      </trkpt>
      <trkpt lat="49.86324" lon="4.83083">
        <ele>356</ele>
        <time>2022-07-15T06:50:19.000Z</time>
      </trkpt>
      <trkpt lat="49.86326" lon="4.83077">
        <ele>355</ele>
        <time>2022-07-15T06:50:20.000Z</time>
      </trkpt>
      <trkpt lat="49.86326" lon="4.83072">
        <ele>355</ele>
        <time>2022-07-15T06:50:21.000Z</time>
      </trkpt>
      <trkpt lat="49.86327" lon="4.83066">
        <ele>355</ele>
        <time>2022-07-15T06:50:22.000Z</time>
      </trkpt>
      <trkpt lat="49.86328" lon="4.8306">
        <ele>355</ele>
        <time>2022-07-15T06:50:23.000Z</time>
      </trkpt>
      <trkpt lat="49.86328" lon="4.83054">
        <ele>355</ele>
        <time>2022-07-15T06:50:24.000Z</time>
      </trkpt>
      <trkpt lat="49.86329" lon="4.83048">
        <ele>355</ele>
        <time>2022-07-15T06:50:25.000Z</time>
      </trkpt>
      <trkpt lat="49.8633" lon="4.83042">
        <ele>355</ele>
        <time>2022-07-15T06:50:26.000Z</time>
      </trkpt>
      <trkpt lat="49.86332" lon="4.83035">
        <ele>355</ele>
        <time>2022-07-15T06:50:27.000Z</time>
      </trkpt>
      <trkpt lat="49.86334" lon="4.83029">
        <ele>354</ele>
        <time>2022-07-15T06:50:28.000Z</time>
      </trkpt>
      <trkpt lat="49.86336" lon="4.83023">
        <ele>354</ele>
        <time>2022-07-15T06:50:29.000Z</time>
      </trkpt>
      <trkpt lat="49.86337" lon="4.83017">
        <ele>354</ele>
        <time>2022-07-15T06:50:30.000Z</time>
      </trkpt>
      <trkpt lat="49.86339" lon="4.8301">
        <ele>354</ele>
        <time>2022-07-15T06:50:31.000Z</time>
      </trkpt>
      <trkpt lat="49.86341" lon="4.83004">
        <ele>354</ele>
        <time>2022-07-15T06:50:32.000Z</time>
      </trkpt>
      <trkpt lat="49.86343" lon="4.82998">
        <ele>354</ele>
        <time>2022-07-15T06:50:33.000Z</time>
      </trkpt>
      <trkpt lat="49.86344" lon="4.82993">
        <ele>354</ele>
        <time>2022-07-15T06:50:34.000Z</time>
      </trkpt>
      <trkpt lat="49.86346" lon="4.82989">
        <ele>354</ele>
        <time>2022-07-15T06:50:35.000Z</time>
      </trkpt>
      <trkpt lat="49.86347" lon="4.82985">
        <ele>354</ele>
        <time>2022-07-15T06:50:36.000Z</time>
      </trkpt>
      <trkpt lat="49.86347" lon="4.82982">
        <ele>354</ele>
        <time>2022-07-15T06:50:37.000Z</time>
      </trkpt>
      <trkpt lat="49.86348" lon="4.82979">
        <ele>354</ele>
        <time>2022-07-15T06:50:38.000Z</time>
      </trkpt>
      <trkpt lat="49.86349" lon="4.82975">
        <ele>354</ele>
        <time>2022-07-15T06:50:39.000Z</time>
      </trkpt>
      <trkpt lat="49.86351" lon="4.82972">
        <ele>354</ele>
        <time>2022-07-15T06:50:40.000Z</time>
      </trkpt>
      <trkpt lat="49.86352" lon="4.82968">
        <ele>354</ele>
        <time>2022-07-15T06:50:41.000Z</time>
      </trkpt>
      <trkpt lat="49.86353" lon="4.82964">
        <ele>354</ele>
        <time>2022-07-15T06:50:42.000Z</time>
      </trkpt>
      <trkpt lat="49.86353" lon="4.82959">
        <ele>355</ele>
        <time>2022-07-15T06:50:43.000Z</time>
      </trkpt>
      <trkpt lat="49.86354" lon="4.82955">
        <ele>355</ele>
        <time>2022-07-15T06:50:44.000Z</time>
      </trkpt>
      <trkpt lat="49.86355" lon="4.82952">
        <ele>355</ele>
        <time>2022-07-15T06:50:45.000Z</time>
      </trkpt>
      <trkpt lat="49.86356" lon="4.82948">
        <ele>355</ele>
        <time>2022-07-15T06:50:46.000Z</time>
      </trkpt>
      <trkpt lat="49.86358" lon="4.82945">
        <ele>355</ele>
        <time>2022-07-15T06:50:47.000Z</time>
      </trkpt>
      <trkpt lat="49.8636" lon="4.82943">
        <ele>355</ele>
        <time>2022-07-15T06:50:48.000Z</time>
      </trkpt>
      <trkpt lat="49.86362" lon="4.82941">
        <ele>355</ele>
        <time>2022-07-15T06:50:49.000Z</time>
      </trkpt>
      <trkpt lat="49.86364" lon="4.82939">
        <ele>356</ele>
        <time>2022-07-15T06:50:50.000Z</time>
      </trkpt>
      <trkpt lat="49.86367" lon="4.82938">
        <ele>356</ele>
        <time>2022-07-15T06:50:51.000Z</time>
      </trkpt>
      <trkpt lat="49.8637" lon="4.82938">
        <ele>356</ele>
        <time>2022-07-15T06:50:52.000Z</time>
      </trkpt>
      <trkpt lat="49.86373" lon="4.82939">
        <ele>356</ele>
        <time>2022-07-15T06:50:53.000Z</time>
      </trkpt>
      <trkpt lat="49.86375" lon="4.8294">
        <ele>356</ele>
        <time>2022-07-15T06:50:54.000Z</time>
      </trkpt>
      <trkpt lat="49.86378" lon="4.82942">
        <ele>356</ele>
        <time>2022-07-15T06:50:55.000Z</time>
      </trkpt>
      <trkpt lat="49.86381" lon="4.82944">
        <ele>356</ele>
        <time>2022-07-15T06:50:56.000Z</time>
      </trkpt>
      <trkpt lat="49.86385" lon="4.82946">
        <ele>356</ele>
        <time>2022-07-15T06:50:57.000Z</time>
      </trkpt>
      <trkpt lat="49.86388" lon="4.82948">
        <ele>356</ele>
        <time>2022-07-15T06:50:58.000Z</time>
      </trkpt>
      <trkpt lat="49.86392" lon="4.8295">
        <ele>356</ele>
        <time>2022-07-15T06:50:59.000Z</time>
      </trkpt>
      <trkpt lat="49.86394" lon="4.82953">
        <ele>356</ele>
        <time>2022-07-15T06:51:00.000Z</time>
      </trkpt>
      <trkpt lat="49.86397" lon="4.82955">
        <ele>356</ele>
        <time>2022-07-15T06:51:01.000Z</time>
      </trkpt>
      <trkpt lat="49.86401" lon="4.82957">
        <ele>356</ele>
        <time>2022-07-15T06:51:02.000Z</time>
      </trkpt>
      <trkpt lat="49.86404" lon="4.8296">
        <ele>356</ele>
        <time>2022-07-15T06:51:03.000Z</time>
      </trkpt>
      <trkpt lat="49.86408" lon="4.82962">
        <ele>356</ele>
        <time>2022-07-15T06:51:04.000Z</time>
      </trkpt>
      <trkpt lat="49.86412" lon="4.82965">
        <ele>356</ele>
        <time>2022-07-15T06:51:05.000Z</time>
      </trkpt>
      <trkpt lat="49.86416" lon="4.82966">
        <ele>356</ele>
        <time>2022-07-15T06:51:06.000Z</time>
      </trkpt>
      <trkpt lat="49.86419" lon="4.82969">
        <ele>356</ele>
        <time>2022-07-15T06:51:07.000Z</time>
      </trkpt>
      <trkpt lat="49.86423" lon="4.8297">
        <ele>356</ele>
        <time>2022-07-15T06:51:08.000Z</time>
      </trkpt>
      <trkpt lat="49.86426" lon="4.82973">
        <ele>356</ele>
        <time>2022-07-15T06:51:09.000Z</time>
      </trkpt>
      <trkpt lat="49.8643" lon="4.82975">
        <ele>356</ele>
        <time>2022-07-15T06:51:10.000Z</time>
      </trkpt>
      <trkpt lat="49.86432" lon="4.82977">
        <ele>356</ele>
        <time>2022-07-15T06:51:11.000Z</time>
      </trkpt>
      <trkpt lat="49.86436" lon="4.82978">
        <ele>356</ele>
        <time>2022-07-15T06:51:12.000Z</time>
      </trkpt>
      <trkpt lat="49.8644" lon="4.8298">
        <ele>356</ele>
        <time>2022-07-15T06:51:13.000Z</time>
      </trkpt>
      <trkpt lat="49.86443" lon="4.82983">
        <ele>356</ele>
        <time>2022-07-15T06:51:14.000Z</time>
      </trkpt>
      <trkpt lat="49.86446" lon="4.82985">
        <ele>356</ele>
        <time>2022-07-15T06:51:15.000Z</time>
      </trkpt>
      <trkpt lat="49.86449" lon="4.82986">
        <ele>356</ele>
        <time>2022-07-15T06:51:16.000Z</time>
      </trkpt>
      <trkpt lat="49.86453" lon="4.82988">
        <ele>356</ele>
        <time>2022-07-15T06:51:17.000Z</time>
      </trkpt>
      <trkpt lat="49.86456" lon="4.8299">
        <ele>356</ele>
        <time>2022-07-15T06:51:18.000Z</time>
      </trkpt>
      <trkpt lat="49.8646" lon="4.82993">
        <ele>356</ele>
        <time>2022-07-15T06:51:19.000Z</time>
      </trkpt>
      <trkpt lat="49.86464" lon="4.82995">
        <ele>356</ele>
        <time>2022-07-15T06:51:20.000Z</time>
      </trkpt>
      <trkpt lat="49.86467" lon="4.82998">
        <ele>356</ele>
        <time>2022-07-15T06:51:21.000Z</time>
      </trkpt>
      <trkpt lat="49.86471" lon="4.83">
        <ele>356</ele>
        <time>2022-07-15T06:51:22.000Z</time>
      </trkpt>
      <trkpt lat="49.86475" lon="4.83003">
        <ele>356</ele>
        <time>2022-07-15T06:51:23.000Z</time>
      </trkpt>
      <trkpt lat="49.8648" lon="4.83007">
        <ele>356</ele>
        <time>2022-07-15T06:51:24.000Z</time>
      </trkpt>
      <trkpt lat="49.86485" lon="4.8301">
        <ele>356</ele>
        <time>2022-07-15T06:51:25.000Z</time>
      </trkpt>
      <trkpt lat="49.8649" lon="4.83015">
        <ele>356</ele>
        <time>2022-07-15T06:51:26.000Z</time>
      </trkpt>
      <trkpt lat="49.86496" lon="4.8302">
        <ele>356</ele>
        <time>2022-07-15T06:51:27.000Z</time>
      </trkpt>
      <trkpt lat="49.865" lon="4.83026">
        <ele>356</ele>
        <time>2022-07-15T06:51:28.000Z</time>
      </trkpt>
      <trkpt lat="49.86505" lon="4.8303">
        <ele>356</ele>
        <time>2022-07-15T06:51:29.000Z</time>
      </trkpt>
      <trkpt lat="49.86509" lon="4.83036">
        <ele>355</ele>
        <time>2022-07-15T06:51:30.000Z</time>
      </trkpt>
      <trkpt lat="49.86513" lon="4.83041">
        <ele>355</ele>
        <time>2022-07-15T06:51:31.000Z</time>
      </trkpt>
      <trkpt lat="49.86517" lon="4.83047">
        <ele>355</ele>
        <time>2022-07-15T06:51:32.000Z</time>
      </trkpt>
      <trkpt lat="49.86521" lon="4.83052">
        <ele>354</ele>
        <time>2022-07-15T06:51:33.000Z</time>
      </trkpt>
      <trkpt lat="49.86525" lon="4.83057">
        <ele>354</ele>
        <time>2022-07-15T06:51:34.000Z</time>
      </trkpt>
      <trkpt lat="49.86528" lon="4.83063">
        <ele>353</ele>
        <time>2022-07-15T06:51:35.000Z</time>
      </trkpt>
      <trkpt lat="49.86531" lon="4.8307">
        <ele>353</ele>
        <time>2022-07-15T06:51:36.000Z</time>
      </trkpt>
      <trkpt lat="49.86534" lon="4.83077">
        <ele>353</ele>
        <time>2022-07-15T06:51:37.000Z</time>
      </trkpt>
      <trkpt lat="49.86538" lon="4.83084">
        <ele>352</ele>
        <time>2022-07-15T06:51:38.000Z</time>
      </trkpt>
      <trkpt lat="49.86541" lon="4.8309">
        <ele>352</ele>
        <time>2022-07-15T06:51:39.000Z</time>
      </trkpt>
      <trkpt lat="49.86544" lon="4.83097">
        <ele>352</ele>
        <time>2022-07-15T06:51:40.000Z</time>
      </trkpt>
      <trkpt lat="49.86548" lon="4.83103">
        <ele>352</ele>
        <time>2022-07-15T06:51:41.000Z</time>
      </trkpt>
      <trkpt lat="49.86552" lon="4.8311">
        <ele>351</ele>
        <time>2022-07-15T06:51:42.000Z</time>
      </trkpt>
      <trkpt lat="49.86557" lon="4.83115">
        <ele>351</ele>
        <time>2022-07-15T06:51:43.000Z</time>
      </trkpt>
      <trkpt lat="49.86562" lon="4.8312">
        <ele>351</ele>
        <time>2022-07-15T06:51:44.000Z</time>
      </trkpt>
      <trkpt lat="49.86566" lon="4.83125">
        <ele>350</ele>
        <time>2022-07-15T06:51:45.000Z</time>
      </trkpt>
      <trkpt lat="49.86571" lon="4.83129">
        <ele>350</ele>
        <time>2022-07-15T06:51:46.000Z</time>
      </trkpt>
      <trkpt lat="49.86576" lon="4.83134">
        <ele>349</ele>
        <time>2022-07-15T06:51:47.000Z</time>
      </trkpt>
      <trkpt lat="49.8658" lon="4.83139">
        <ele>348</ele>
        <time>2022-07-15T06:51:48.000Z</time>
      </trkpt>
      <trkpt lat="49.86584" lon="4.83144">
        <ele>348</ele>
        <time>2022-07-15T06:51:49.000Z</time>
      </trkpt>
      <trkpt lat="49.86588" lon="4.83148">
        <ele>347</ele>
        <time>2022-07-15T06:51:50.000Z</time>
      </trkpt>
      <trkpt lat="49.86593" lon="4.83152">
        <ele>347</ele>
        <time>2022-07-15T06:51:51.000Z</time>
      </trkpt>
      <trkpt lat="49.86598" lon="4.83157">
        <ele>346</ele>
        <time>2022-07-15T06:51:52.000Z</time>
      </trkpt>
      <trkpt lat="49.86602" lon="4.83161">
        <ele>346</ele>
        <time>2022-07-15T06:51:53.000Z</time>
      </trkpt>
      <trkpt lat="49.86606" lon="4.83165">
        <ele>346</ele>
        <time>2022-07-15T06:51:54.000Z</time>
      </trkpt>
      <trkpt lat="49.8661" lon="4.83169">
        <ele>345</ele>
        <time>2022-07-15T06:51:55.000Z</time>
      </trkpt>
      <trkpt lat="49.86614" lon="4.83173">
        <ele>345</ele>
        <time>2022-07-15T06:51:56.000Z</time>
      </trkpt>
      <trkpt lat="49.86619" lon="4.83177">
        <ele>345</ele>
        <time>2022-07-15T06:51:57.000Z</time>
      </trkpt>
      <trkpt lat="49.86624" lon="4.83181">
        <ele>344</ele>
        <time>2022-07-15T06:51:58.000Z</time>
      </trkpt>
      <trkpt lat="49.86628" lon="4.83184">
        <ele>344</ele>
        <time>2022-07-15T06:51:59.000Z</time>
      </trkpt>
      <trkpt lat="49.86633" lon="4.83186">
        <ele>344</ele>
        <time>2022-07-15T06:52:00.000Z</time>
      </trkpt>
      <trkpt lat="49.86638" lon="4.83187">
        <ele>344</ele>
        <time>2022-07-15T06:52:01.000Z</time>
      </trkpt>
      <trkpt lat="49.86643" lon="4.83187">
        <ele>343</ele>
        <time>2022-07-15T06:52:02.000Z</time>
      </trkpt>
      <trkpt lat="49.86648" lon="4.83187">
        <ele>343</ele>
        <time>2022-07-15T06:52:03.000Z</time>
      </trkpt>
      <trkpt lat="49.86652" lon="4.83188">
        <ele>343</ele>
        <time>2022-07-15T06:52:04.000Z</time>
      </trkpt>
      <trkpt lat="49.86657" lon="4.8319">
        <ele>343</ele>
        <time>2022-07-15T06:52:05.000Z</time>
      </trkpt>
      <trkpt lat="49.8666" lon="4.83192">
        <ele>342</ele>
        <time>2022-07-15T06:52:06.000Z</time>
      </trkpt>
      <trkpt lat="49.86663" lon="4.83193">
        <ele>342</ele>
        <time>2022-07-15T06:52:07.000Z</time>
      </trkpt>
      <trkpt lat="49.86664" lon="4.83192">
        <ele>342</ele>
        <time>2022-07-15T06:52:08.000Z</time>
      </trkpt>
      <trkpt lat="49.86665" lon="4.83192">
        <ele>342</ele>
        <time>2022-07-15T06:52:09.000Z</time>
      </trkpt>
      <trkpt lat="49.86665" lon="4.83193">
        <ele>341</ele>
        <time>2022-07-15T06:52:10.000Z</time>
      </trkpt>
      <trkpt lat="49.86665" lon="4.83193">
        <ele>341</ele>
        <time>2022-07-15T06:52:11.000Z</time>
      </trkpt>
      <trkpt lat="49.86666" lon="4.83193">
        <ele>341</ele>
        <time>2022-07-15T06:52:12.000Z</time>
      </trkpt>
      <trkpt lat="49.86666" lon="4.83193">
        <ele>341</ele>
        <time>2022-07-15T06:52:13.000Z</time>
      </trkpt>
      <trkpt lat="49.86665" lon="4.83193">
        <ele>341</ele>
        <time>2022-07-15T06:52:14.000Z</time>
      </trkpt>
      <trkpt lat="49.86666" lon="4.83192">
        <ele>340</ele>
        <time>2022-07-15T06:52:15.000Z</time>
      </trkpt>
      <trkpt lat="49.86666" lon="4.83192">
        <ele>340</ele>
        <time>2022-07-15T06:52:16.000Z</time>
      </trkpt>
      <trkpt lat="49.86666" lon="4.83192">
        <ele>340</ele>
        <time>2022-07-15T06:52:17.000Z</time>
      </trkpt>
      <trkpt lat="49.86666" lon="4.83192">
        <ele>340</ele>
        <time>2022-07-15T06:52:18.000Z</time>
      </trkpt>
      <trkpt lat="49.86666" lon="4.83192">
        <ele>340</ele>
        <time>2022-07-15T06:52:19.000Z</time>
      </trkpt>
      <trkpt lat="49.86666" lon="4.83192">
        <ele>340</ele>
        <time>2022-07-15T06:52:20.000Z</time>
      </trkpt>
      <trkpt lat="49.86666" lon="4.83192">
        <ele>340</ele>
        <time>2022-07-15T06:52:21.000Z</time>
      </trkpt>
      <trkpt lat="49.86666" lon="4.83191">
        <ele>339</ele>
        <time>2022-07-15T06:52:22.000Z</time>
      </trkpt>
      <trkpt lat="49.86667" lon="4.83189">
        <ele>339</ele>
        <time>2022-07-15T06:52:23.000Z</time>
      </trkpt>
      <trkpt lat="49.86668" lon="4.83186">
        <ele>339</ele>
        <time>2022-07-15T06:52:24.000Z</time>
      </trkpt>
      <trkpt lat="49.86669" lon="4.83183">
        <ele>339</ele>
        <time>2022-07-15T06:52:25.000Z</time>
      </trkpt>
      <trkpt lat="49.8667" lon="4.83179">
        <ele>339</ele>
        <time>2022-07-15T06:52:26.000Z</time>
      </trkpt>
      <trkpt lat="49.86672" lon="4.83175">
        <ele>339</ele>
        <time>2022-07-15T06:52:27.000Z</time>
      </trkpt>
      <trkpt lat="49.86674" lon="4.83172">
        <ele>339</ele>
        <time>2022-07-15T06:52:28.000Z</time>
      </trkpt>
      <trkpt lat="49.86677" lon="4.83169">
        <ele>339</ele>
        <time>2022-07-15T06:52:29.000Z</time>
      </trkpt>
      <trkpt lat="49.8668" lon="4.83165">
        <ele>339</ele>
        <time>2022-07-15T06:52:30.000Z</time>
      </trkpt>
      <trkpt lat="49.86682" lon="4.83162">
        <ele>339</ele>
        <time>2022-07-15T06:52:31.000Z</time>
      </trkpt>
      <trkpt lat="49.86684" lon="4.83159">
        <ele>339</ele>
        <time>2022-07-15T06:52:32.000Z</time>
      </trkpt>
      <trkpt lat="49.86686" lon="4.83155">
        <ele>339</ele>
        <time>2022-07-15T06:52:33.000Z</time>
      </trkpt>
      <trkpt lat="49.86688" lon="4.83151">
        <ele>338</ele>
        <time>2022-07-15T06:52:34.000Z</time>
      </trkpt>
      <trkpt lat="49.8669" lon="4.83147">
        <ele>338</ele>
        <time>2022-07-15T06:52:35.000Z</time>
      </trkpt>
      <trkpt lat="49.86692" lon="4.83144">
        <ele>338</ele>
        <time>2022-07-15T06:52:36.000Z</time>
      </trkpt>
      <trkpt lat="49.86694" lon="4.8314">
        <ele>338</ele>
        <time>2022-07-15T06:52:37.000Z</time>
      </trkpt>
      <trkpt lat="49.86696" lon="4.83136">
        <ele>338</ele>
        <time>2022-07-15T06:52:38.000Z</time>
      </trkpt>
      <trkpt lat="49.86699" lon="4.83133">
        <ele>337</ele>
        <time>2022-07-15T06:52:39.000Z</time>
      </trkpt>
      <trkpt lat="49.86701" lon="4.83129">
        <ele>337</ele>
        <time>2022-07-15T06:52:40.000Z</time>
      </trkpt>
      <trkpt lat="49.86703" lon="4.83125">
        <ele>337</ele>
        <time>2022-07-15T06:52:41.000Z</time>
      </trkpt>
      <trkpt lat="49.86705" lon="4.83121">
        <ele>337</ele>
        <time>2022-07-15T06:52:42.000Z</time>
      </trkpt>
      <trkpt lat="49.86707" lon="4.83116">
        <ele>336</ele>
        <time>2022-07-15T06:52:43.000Z</time>
      </trkpt>
      <trkpt lat="49.86709" lon="4.83112">
        <ele>336</ele>
        <time>2022-07-15T06:52:44.000Z</time>
      </trkpt>
      <trkpt lat="49.86711" lon="4.83108">
        <ele>336</ele>
        <time>2022-07-15T06:52:45.000Z</time>
      </trkpt>
      <trkpt lat="49.86714" lon="4.83105">
        <ele>336</ele>
        <time>2022-07-15T06:52:46.000Z</time>
      </trkpt>
      <trkpt lat="49.86716" lon="4.83101">
        <ele>336</ele>
        <time>2022-07-15T06:52:47.000Z</time>
      </trkpt>
      <trkpt lat="49.8672" lon="4.83097">
        <ele>335</ele>
        <time>2022-07-15T06:52:48.000Z</time>
      </trkpt>
      <trkpt lat="49.86723" lon="4.83093">
        <ele>335</ele>
        <time>2022-07-15T06:52:49.000Z</time>
      </trkpt>
      <trkpt lat="49.86725" lon="4.83089">
        <ele>335</ele>
        <time>2022-07-15T06:52:50.000Z</time>
      </trkpt>
      <trkpt lat="49.86729" lon="4.83085">
        <ele>335</ele>
        <time>2022-07-15T06:52:51.000Z</time>
      </trkpt>
      <trkpt lat="49.86731" lon="4.83081">
        <ele>335</ele>
        <time>2022-07-15T06:52:52.000Z</time>
      </trkpt>
      <trkpt lat="49.86734" lon="4.83077">
        <ele>335</ele>
        <time>2022-07-15T06:52:53.000Z</time>
      </trkpt>
      <trkpt lat="49.86736" lon="4.83073">
        <ele>335</ele>
        <time>2022-07-15T06:52:54.000Z</time>
      </trkpt>
      <trkpt lat="49.86739" lon="4.83069">
        <ele>335</ele>
        <time>2022-07-15T06:52:55.000Z</time>
      </trkpt>
      <trkpt lat="49.86741" lon="4.83065">
        <ele>335</ele>
        <time>2022-07-15T06:52:56.000Z</time>
      </trkpt>
      <trkpt lat="49.86744" lon="4.83062">
        <ele>335</ele>
        <time>2022-07-15T06:52:57.000Z</time>
      </trkpt>
      <trkpt lat="49.86746" lon="4.83059">
        <ele>335</ele>
        <time>2022-07-15T06:52:58.000Z</time>
      </trkpt>
      <trkpt lat="49.86748" lon="4.83056">
        <ele>335</ele>
        <time>2022-07-15T06:52:59.000Z</time>
      </trkpt>
      <trkpt lat="49.86751" lon="4.83053">
        <ele>336</ele>
        <time>2022-07-15T06:53:00.000Z</time>
      </trkpt>
      <trkpt lat="49.86753" lon="4.83049">
        <ele>336</ele>
        <time>2022-07-15T06:53:01.000Z</time>
      </trkpt>
      <trkpt lat="49.86755" lon="4.83045">
        <ele>336</ele>
        <time>2022-07-15T06:53:02.000Z</time>
      </trkpt>
      <trkpt lat="49.86758" lon="4.8304">
        <ele>336</ele>
        <time>2022-07-15T06:53:03.000Z</time>
      </trkpt>
      <trkpt lat="49.8676" lon="4.83036">
        <ele>336</ele>
        <time>2022-07-15T06:53:04.000Z</time>
      </trkpt>
      <trkpt lat="49.86762" lon="4.83032">
        <ele>336</ele>
        <time>2022-07-15T06:53:05.000Z</time>
      </trkpt>
      <trkpt lat="49.86764" lon="4.83028">
        <ele>336</ele>
        <time>2022-07-15T06:53:06.000Z</time>
      </trkpt>
      <trkpt lat="49.86765" lon="4.83025">
        <ele>336</ele>
        <time>2022-07-15T06:53:07.000Z</time>
      </trkpt>
      <trkpt lat="49.86766" lon="4.8302">
        <ele>336</ele>
        <time>2022-07-15T06:53:08.000Z</time>
      </trkpt>
      <trkpt lat="49.86767" lon="4.83017">
        <ele>336</ele>
        <time>2022-07-15T06:53:09.000Z</time>
      </trkpt>
      <trkpt lat="49.86769" lon="4.83013">
        <ele>336</ele>
        <time>2022-07-15T06:53:10.000Z</time>
      </trkpt>
      <trkpt lat="49.86771" lon="4.83009">
        <ele>336</ele>
        <time>2022-07-15T06:53:11.000Z</time>
      </trkpt>
      <trkpt lat="49.86772" lon="4.83005">
        <ele>336</ele>
        <time>2022-07-15T06:53:12.000Z</time>
      </trkpt>
      <trkpt lat="49.86774" lon="4.83001">
        <ele>336</ele>
        <time>2022-07-15T06:53:13.000Z</time>
      </trkpt>
      <trkpt lat="49.86775" lon="4.82997">
        <ele>336</ele>
        <time>2022-07-15T06:53:14.000Z</time>
      </trkpt>
      <trkpt lat="49.86777" lon="4.82993">
        <ele>337</ele>
        <time>2022-07-15T06:53:15.000Z</time>
      </trkpt>
      <trkpt lat="49.86779" lon="4.8299">
        <ele>337</ele>
        <time>2022-07-15T06:53:16.000Z</time>
      </trkpt>
      <trkpt lat="49.8678" lon="4.82986">
        <ele>337</ele>
        <time>2022-07-15T06:53:17.000Z</time>
      </trkpt>
      <trkpt lat="49.86781" lon="4.82983">
        <ele>337</ele>
        <time>2022-07-15T06:53:18.000Z</time>
      </trkpt>
      <trkpt lat="49.86783" lon="4.82979">
        <ele>337</ele>
        <time>2022-07-15T06:53:19.000Z</time>
      </trkpt>
      <trkpt lat="49.86784" lon="4.82975">
        <ele>337</ele>
        <time>2022-07-15T06:53:20.000Z</time>
      </trkpt>
      <trkpt lat="49.86785" lon="4.82972">
        <ele>337</ele>
        <time>2022-07-15T06:53:21.000Z</time>
      </trkpt>
      <trkpt lat="49.86786" lon="4.82969">
        <ele>338</ele>
        <time>2022-07-15T06:53:22.000Z</time>
      </trkpt>
      <trkpt lat="49.86787" lon="4.82966">
        <ele>338</ele>
        <time>2022-07-15T06:53:23.000Z</time>
      </trkpt>
      <trkpt lat="49.86787" lon="4.82961">
        <ele>338</ele>
        <time>2022-07-15T06:53:24.000Z</time>
      </trkpt>
      <trkpt lat="49.86788" lon="4.82957">
        <ele>338</ele>
        <time>2022-07-15T06:53:25.000Z</time>
      </trkpt>
      <trkpt lat="49.86789" lon="4.82952">
        <ele>338</ele>
        <time>2022-07-15T06:53:26.000Z</time>
      </trkpt>
      <trkpt lat="49.86789" lon="4.82948">
        <ele>338</ele>
        <time>2022-07-15T06:53:27.000Z</time>
      </trkpt>
      <trkpt lat="49.86789" lon="4.82943">
        <ele>338</ele>
        <time>2022-07-15T06:53:28.000Z</time>
      </trkpt>
      <trkpt lat="49.86789" lon="4.82939">
        <ele>338</ele>
        <time>2022-07-15T06:53:29.000Z</time>
      </trkpt>
      <trkpt lat="49.86789" lon="4.82935">
        <ele>338</ele>
        <time>2022-07-15T06:53:30.000Z</time>
      </trkpt>
      <trkpt lat="49.86788" lon="4.8293">
        <ele>338</ele>
        <time>2022-07-15T06:53:31.000Z</time>
      </trkpt>
      <trkpt lat="49.86788" lon="4.82926">
        <ele>338</ele>
        <time>2022-07-15T06:53:32.000Z</time>
      </trkpt>
      <trkpt lat="49.86788" lon="4.82924">
        <ele>338</ele>
        <time>2022-07-15T06:53:33.000Z</time>
      </trkpt>
      <trkpt lat="49.86788" lon="4.82922">
        <ele>338</ele>
        <time>2022-07-15T06:53:34.000Z</time>
      </trkpt>
      <trkpt lat="49.86788" lon="4.8292">
        <ele>338</ele>
        <time>2022-07-15T06:53:35.000Z</time>
      </trkpt>
      <trkpt lat="49.86788" lon="4.82918">
        <ele>338</ele>
        <time>2022-07-15T06:53:36.000Z</time>
      </trkpt>
      <trkpt lat="49.86789" lon="4.82917">
        <ele>338</ele>
        <time>2022-07-15T06:53:37.000Z</time>
      </trkpt>
      <trkpt lat="49.86789" lon="4.82915">
        <ele>338</ele>
        <time>2022-07-15T06:53:38.000Z</time>
      </trkpt>
      <trkpt lat="49.86789" lon="4.82912">
        <ele>338</ele>
        <time>2022-07-15T06:53:39.000Z</time>
      </trkpt>
      <trkpt lat="49.8679" lon="4.82909">
        <ele>339</ele>
        <time>2022-07-15T06:53:40.000Z</time>
      </trkpt>
      <trkpt lat="49.8679" lon="4.82905">
        <ele>339</ele>
        <time>2022-07-15T06:53:41.000Z</time>
      </trkpt>
      <trkpt lat="49.8679" lon="4.82901">
        <ele>339</ele>
        <time>2022-07-15T06:53:42.000Z</time>
      </trkpt>
      <trkpt lat="49.86791" lon="4.82898">
        <ele>339</ele>
        <time>2022-07-15T06:53:43.000Z</time>
      </trkpt>
      <trkpt lat="49.86791" lon="4.82894">
        <ele>339</ele>
        <time>2022-07-15T06:53:44.000Z</time>
      </trkpt>
      <trkpt lat="49.86791" lon="4.82891">
        <ele>339</ele>
        <time>2022-07-15T06:53:45.000Z</time>
      </trkpt>
      <trkpt lat="49.86792" lon="4.82887">
        <ele>339</ele>
        <time>2022-07-15T06:53:46.000Z</time>
      </trkpt>
      <trkpt lat="49.86793" lon="4.82884">
        <ele>339</ele>
        <time>2022-07-15T06:53:47.000Z</time>
      </trkpt>
      <trkpt lat="49.86793" lon="4.8288">
        <ele>339</ele>
        <time>2022-07-15T06:53:48.000Z</time>
      </trkpt>
      <trkpt lat="49.86794" lon="4.82877">
        <ele>339</ele>
        <time>2022-07-15T06:53:49.000Z</time>
      </trkpt>
      <trkpt lat="49.86794" lon="4.82872">
        <ele>339</ele>
        <time>2022-07-15T06:53:50.000Z</time>
      </trkpt>
      <trkpt lat="49.86795" lon="4.82867">
        <ele>339</ele>
        <time>2022-07-15T06:53:51.000Z</time>
      </trkpt>
      <trkpt lat="49.86795" lon="4.82861">
        <ele>339</ele>
        <time>2022-07-15T06:53:52.000Z</time>
      </trkpt>
      <trkpt lat="49.86796" lon="4.82856">
        <ele>339</ele>
        <time>2022-07-15T06:53:53.000Z</time>
      </trkpt>
      <trkpt lat="49.86797" lon="4.82851">
        <ele>339</ele>
        <time>2022-07-15T06:53:54.000Z</time>
      </trkpt>
      <trkpt lat="49.86798" lon="4.82848">
        <ele>339</ele>
        <time>2022-07-15T06:53:55.000Z</time>
      </trkpt>
      <trkpt lat="49.86799" lon="4.82845">
        <ele>339</ele>
        <time>2022-07-15T06:53:56.000Z</time>
      </trkpt>
      <trkpt lat="49.868" lon="4.82842">
        <ele>339</ele>
        <time>2022-07-15T06:53:57.000Z</time>
      </trkpt>
      <trkpt lat="49.86801" lon="4.82839">
        <ele>339</ele>
        <time>2022-07-15T06:53:58.000Z</time>
      </trkpt>
      <trkpt lat="49.86803" lon="4.82837">
        <ele>339</ele>
        <time>2022-07-15T06:53:59.000Z</time>
      </trkpt>
      <trkpt lat="49.86804" lon="4.82835">
        <ele>340</ele>
        <time>2022-07-15T06:54:00.000Z</time>
      </trkpt>
      <trkpt lat="49.86804" lon="4.82833">
        <ele>340</ele>
        <time>2022-07-15T06:54:01.000Z</time>
      </trkpt>
      <trkpt lat="49.86804" lon="4.82833">
        <ele>340</ele>
        <time>2022-07-15T06:54:02.000Z</time>
      </trkpt>
      <trkpt lat="49.86804" lon="4.82832">
        <ele>340</ele>
        <time>2022-07-15T06:54:03.000Z</time>
      </trkpt>
      <trkpt lat="49.86804" lon="4.8283">
        <ele>340</ele>
        <time>2022-07-15T06:54:04.000Z</time>
      </trkpt>
      <trkpt lat="49.86805" lon="4.82829">
        <ele>340</ele>
        <time>2022-07-15T06:54:05.000Z</time>
      </trkpt>
      <trkpt lat="49.86805" lon="4.82828">
        <ele>340</ele>
        <time>2022-07-15T06:54:06.000Z</time>
      </trkpt>
      <trkpt lat="49.86805" lon="4.82828">
        <ele>340</ele>
        <time>2022-07-15T06:54:07.000Z</time>
      </trkpt>
      <trkpt lat="49.86805" lon="4.82828">
        <ele>339</ele>
        <time>2022-07-15T06:54:08.000Z</time>
      </trkpt>
      <trkpt lat="49.86804" lon="4.82829">
        <ele>339</ele>
        <time>2022-07-15T06:54:09.000Z</time>
      </trkpt>
      <trkpt lat="49.86804" lon="4.82831">
        <ele>339</ele>
        <time>2022-07-15T06:54:10.000Z</time>
      </trkpt>
      <trkpt lat="49.86804" lon="4.82832">
        <ele>339</ele>
        <time>2022-07-15T06:54:11.000Z</time>
      </trkpt>
      <trkpt lat="49.86804" lon="4.82833">
        <ele>339</ele>
        <time>2022-07-15T06:54:12.000Z</time>
      </trkpt>
      <trkpt lat="49.86803" lon="4.82834">
        <ele>339</ele>
        <time>2022-07-15T06:54:13.000Z</time>
      </trkpt>
      <trkpt lat="49.86802" lon="4.82836">
        <ele>339</ele>
        <time>2022-07-15T06:54:14.000Z</time>
      </trkpt>
      <trkpt lat="49.86802" lon="4.82837">
        <ele>339</ele>
        <time>2022-07-15T06:54:15.000Z</time>
      </trkpt>
      <trkpt lat="49.86801" lon="4.82839">
        <ele>339</ele>
        <time>2022-07-15T06:54:16.000Z</time>
      </trkpt>
      <trkpt lat="49.868" lon="4.82841">
        <ele>339</ele>
        <time>2022-07-15T06:54:17.000Z</time>
      </trkpt>
      <trkpt lat="49.86799" lon="4.82845">
        <ele>339</ele>
        <time>2022-07-15T06:54:18.000Z</time>
      </trkpt>
      <trkpt lat="49.86798" lon="4.82848">
        <ele>339</ele>
        <time>2022-07-15T06:54:19.000Z</time>
      </trkpt>
      <trkpt lat="49.86796" lon="4.82851">
        <ele>339</ele>
        <time>2022-07-15T06:54:20.000Z</time>
      </trkpt>
      <trkpt lat="49.86795" lon="4.82854">
        <ele>339</ele>
        <time>2022-07-15T06:54:21.000Z</time>
      </trkpt>
      <trkpt lat="49.86794" lon="4.82857">
        <ele>339</ele>
        <time>2022-07-15T06:54:22.000Z</time>
      </trkpt>
      <trkpt lat="49.86793" lon="4.8286">
        <ele>339</ele>
        <time>2022-07-15T06:54:23.000Z</time>
      </trkpt>
      <trkpt lat="49.86791" lon="4.82864">
        <ele>339</ele>
        <time>2022-07-15T06:54:24.000Z</time>
      </trkpt>
      <trkpt lat="49.8679" lon="4.82867">
        <ele>339</ele>
        <time>2022-07-15T06:54:25.000Z</time>
      </trkpt>
      <trkpt lat="49.86788" lon="4.82871">
        <ele>339</ele>
        <time>2022-07-15T06:54:26.000Z</time>
      </trkpt>
      <trkpt lat="49.86787" lon="4.82874">
        <ele>339</ele>
        <time>2022-07-15T06:54:27.000Z</time>
      </trkpt>
      <trkpt lat="49.86785" lon="4.82878">
        <ele>339</ele>
        <time>2022-07-15T06:54:28.000Z</time>
      </trkpt>
      <trkpt lat="49.86785" lon="4.82881">
        <ele>339</ele>
        <time>2022-07-15T06:54:29.000Z</time>
      </trkpt>
      <trkpt lat="49.86784" lon="4.82884">
        <ele>339</ele>
        <time>2022-07-15T06:54:30.000Z</time>
      </trkpt>
      <trkpt lat="49.86783" lon="4.82888">
        <ele>339</ele>
        <time>2022-07-15T06:54:31.000Z</time>
      </trkpt>
      <trkpt lat="49.86782" lon="4.82892">
        <ele>339</ele>
        <time>2022-07-15T06:54:32.000Z</time>
      </trkpt>
      <trkpt lat="49.86782" lon="4.82896">
        <ele>339</ele>
        <time>2022-07-15T06:54:33.000Z</time>
      </trkpt>
      <trkpt lat="49.86782" lon="4.829">
        <ele>339</ele>
        <time>2022-07-15T06:54:34.000Z</time>
      </trkpt>
      <trkpt lat="49.86781" lon="4.82904">
        <ele>339</ele>
        <time>2022-07-15T06:54:35.000Z</time>
      </trkpt>
      <trkpt lat="49.86781" lon="4.82908">
        <ele>339</ele>
        <time>2022-07-15T06:54:36.000Z</time>
      </trkpt>
      <trkpt lat="49.86782" lon="4.82913">
        <ele>339</ele>
        <time>2022-07-15T06:54:37.000Z</time>
      </trkpt>
      <trkpt lat="49.86782" lon="4.82918">
        <ele>339</ele>
        <time>2022-07-15T06:54:38.000Z</time>
      </trkpt>
      <trkpt lat="49.86783" lon="4.82923">
        <ele>339</ele>
        <time>2022-07-15T06:54:39.000Z</time>
      </trkpt>
      <trkpt lat="49.86783" lon="4.82929">
        <ele>339</ele>
        <time>2022-07-15T06:54:40.000Z</time>
      </trkpt>
      <trkpt lat="49.86783" lon="4.82934">
        <ele>339</ele>
        <time>2022-07-15T06:54:41.000Z</time>
      </trkpt>
      <trkpt lat="49.86783" lon="4.8294">
        <ele>339</ele>
        <time>2022-07-15T06:54:42.000Z</time>
      </trkpt>
      <trkpt lat="49.86783" lon="4.82947">
        <ele>338</ele>
        <time>2022-07-15T06:54:43.000Z</time>
      </trkpt>
      <trkpt lat="49.86783" lon="4.82953">
        <ele>338</ele>
        <time>2022-07-15T06:54:44.000Z</time>
      </trkpt>
      <trkpt lat="49.86782" lon="4.82959">
        <ele>338</ele>
        <time>2022-07-15T06:54:45.000Z</time>
      </trkpt>
      <trkpt lat="49.86781" lon="4.82965">
        <ele>338</ele>
        <time>2022-07-15T06:54:46.000Z</time>
      </trkpt>
      <trkpt lat="49.86781" lon="4.8297">
        <ele>338</ele>
        <time>2022-07-15T06:54:47.000Z</time>
      </trkpt>
      <trkpt lat="49.86781" lon="4.82975">
        <ele>338</ele>
        <time>2022-07-15T06:54:48.000Z</time>
      </trkpt>
      <trkpt lat="49.86781" lon="4.82981">
        <ele>338</ele>
        <time>2022-07-15T06:54:49.000Z</time>
      </trkpt>
      <trkpt lat="49.8678" lon="4.82986">
        <ele>338</ele>
        <time>2022-07-15T06:54:50.000Z</time>
      </trkpt>
      <trkpt lat="49.86778" lon="4.82991">
        <ele>338</ele>
        <time>2022-07-15T06:54:51.000Z</time>
      </trkpt>
      <trkpt lat="49.86776" lon="4.82996">
        <ele>338</ele>
        <time>2022-07-15T06:54:52.000Z</time>
      </trkpt>
      <trkpt lat="49.86775" lon="4.83002">
        <ele>338</ele>
        <time>2022-07-15T06:54:53.000Z</time>
      </trkpt>
      <trkpt lat="49.86774" lon="4.83007">
        <ele>338</ele>
        <time>2022-07-15T06:54:54.000Z</time>
      </trkpt>
      <trkpt lat="49.86772" lon="4.83012">
        <ele>338</ele>
        <time>2022-07-15T06:54:55.000Z</time>
      </trkpt>
      <trkpt lat="49.86771" lon="4.83016">
        <ele>338</ele>
        <time>2022-07-15T06:54:56.000Z</time>
      </trkpt>
      <trkpt lat="49.8677" lon="4.83019">
        <ele>338</ele>
        <time>2022-07-15T06:54:57.000Z</time>
      </trkpt>
      <trkpt lat="49.86769" lon="4.83022">
        <ele>338</ele>
        <time>2022-07-15T06:54:58.000Z</time>
      </trkpt>
      <trkpt lat="49.86767" lon="4.83025">
        <ele>338</ele>
        <time>2022-07-15T06:54:59.000Z</time>
      </trkpt>
      <trkpt lat="49.86766" lon="4.83027">
        <ele>338</ele>
        <time>2022-07-15T06:55:00.000Z</time>
      </trkpt>
      <trkpt lat="49.86766" lon="4.8303">
        <ele>338</ele>
        <time>2022-07-15T06:55:01.000Z</time>
      </trkpt>
      <trkpt lat="49.86765" lon="4.83034">
        <ele>338</ele>
        <time>2022-07-15T06:55:02.000Z</time>
      </trkpt>
      <trkpt lat="49.86764" lon="4.83037">
        <ele>338</ele>
        <time>2022-07-15T06:55:03.000Z</time>
      </trkpt>
      <trkpt lat="49.86762" lon="4.8304">
        <ele>338</ele>
        <time>2022-07-15T06:55:04.000Z</time>
      </trkpt>
      <trkpt lat="49.86761" lon="4.83043">
        <ele>338</ele>
        <time>2022-07-15T06:55:05.000Z</time>
      </trkpt>
      <trkpt lat="49.86759" lon="4.83046">
        <ele>338</ele>
        <time>2022-07-15T06:55:06.000Z</time>
      </trkpt>
      <trkpt lat="49.86757" lon="4.83048">
        <ele>337</ele>
        <time>2022-07-15T06:55:07.000Z</time>
      </trkpt>
      <trkpt lat="49.86755" lon="4.83051">
        <ele>337</ele>
        <time>2022-07-15T06:55:08.000Z</time>
      </trkpt>
      <trkpt lat="49.86753" lon="4.83054">
        <ele>337</ele>
        <time>2022-07-15T06:55:09.000Z</time>
      </trkpt>
      <trkpt lat="49.86751" lon="4.83057">
        <ele>337</ele>
        <time>2022-07-15T06:55:10.000Z</time>
      </trkpt>
      <trkpt lat="49.86747" lon="4.8306">
        <ele>337</ele>
        <time>2022-07-15T06:55:11.000Z</time>
      </trkpt>
      <trkpt lat="49.86744" lon="4.83064">
        <ele>337</ele>
        <time>2022-07-15T06:55:12.000Z</time>
      </trkpt>
      <trkpt lat="49.86742" lon="4.83067">
        <ele>337</ele>
        <time>2022-07-15T06:55:13.000Z</time>
      </trkpt>
      <trkpt lat="49.86739" lon="4.83071">
        <ele>337</ele>
        <time>2022-07-15T06:55:14.000Z</time>
      </trkpt>
      <trkpt lat="49.86735" lon="4.83075">
        <ele>337</ele>
        <time>2022-07-15T06:55:15.000Z</time>
      </trkpt>
      <trkpt lat="49.86731" lon="4.83081">
        <ele>337</ele>
        <time>2022-07-15T06:55:16.000Z</time>
      </trkpt>
      <trkpt lat="49.86727" lon="4.83086">
        <ele>337</ele>
        <time>2022-07-15T06:55:17.000Z</time>
      </trkpt>
      <trkpt lat="49.86724" lon="4.83092">
        <ele>336</ele>
        <time>2022-07-15T06:55:18.000Z</time>
      </trkpt>
      <trkpt lat="49.8672" lon="4.83096">
        <ele>336</ele>
        <time>2022-07-15T06:55:19.000Z</time>
      </trkpt>
      <trkpt lat="49.86716" lon="4.83102">
        <ele>336</ele>
        <time>2022-07-15T06:55:20.000Z</time>
      </trkpt>
      <trkpt lat="49.86714" lon="4.83106">
        <ele>336</ele>
        <time>2022-07-15T06:55:21.000Z</time>
      </trkpt>
      <trkpt lat="49.86711" lon="4.83111">
        <ele>335</ele>
        <time>2022-07-15T06:55:22.000Z</time>
      </trkpt>
      <trkpt lat="49.86708" lon="4.83116">
        <ele>335</ele>
        <time>2022-07-15T06:55:23.000Z</time>
      </trkpt>
      <trkpt lat="49.86706" lon="4.83121">
        <ele>335</ele>
        <time>2022-07-15T06:55:24.000Z</time>
      </trkpt>
      <trkpt lat="49.86703" lon="4.83126">
        <ele>334</ele>
        <time>2022-07-15T06:55:25.000Z</time>
      </trkpt>
      <trkpt lat="49.86699" lon="4.83132">
        <ele>334</ele>
        <time>2022-07-15T06:55:26.000Z</time>
      </trkpt>
      <trkpt lat="49.86696" lon="4.83138">
        <ele>334</ele>
        <time>2022-07-15T06:55:27.000Z</time>
      </trkpt>
      <trkpt lat="49.86692" lon="4.83146">
        <ele>333</ele>
        <time>2022-07-15T06:55:28.000Z</time>
      </trkpt>
      <trkpt lat="49.86689" lon="4.83152">
        <ele>333</ele>
        <time>2022-07-15T06:55:29.000Z</time>
      </trkpt>
      <trkpt lat="49.86685" lon="4.83159">
        <ele>333</ele>
        <time>2022-07-15T06:55:30.000Z</time>
      </trkpt>
      <trkpt lat="49.86682" lon="4.83164">
        <ele>332</ele>
        <time>2022-07-15T06:55:31.000Z</time>
      </trkpt>
      <trkpt lat="49.86679" lon="4.83169">
        <ele>332</ele>
        <time>2022-07-15T06:55:32.000Z</time>
      </trkpt>
      <trkpt lat="49.86677" lon="4.83174">
        <ele>332</ele>
        <time>2022-07-15T06:55:33.000Z</time>
      </trkpt>
      <trkpt lat="49.86675" lon="4.83177">
        <ele>332</ele>
        <time>2022-07-15T06:55:34.000Z</time>
      </trkpt>
      <trkpt lat="49.86673" lon="4.8318">
        <ele>332</ele>
        <time>2022-07-15T06:55:35.000Z</time>
      </trkpt>
      <trkpt lat="49.86671" lon="4.83183">
        <ele>331</ele>
        <time>2022-07-15T06:55:36.000Z</time>
      </trkpt>
      <trkpt lat="49.8667" lon="4.83185">
        <ele>331</ele>
        <time>2022-07-15T06:55:37.000Z</time>
      </trkpt>
      <trkpt lat="49.86668" lon="4.83189">
        <ele>331</ele>
        <time>2022-07-15T06:55:38.000Z</time>
      </trkpt>
      <trkpt lat="49.86668" lon="4.83192">
        <ele>332</ele>
        <time>2022-07-15T06:55:39.000Z</time>
      </trkpt>
      <trkpt lat="49.86667" lon="4.83196">
        <ele>332</ele>
        <time>2022-07-15T06:55:40.000Z</time>
      </trkpt>
      <trkpt lat="49.86668" lon="4.832">
        <ele>332</ele>
        <time>2022-07-15T06:55:41.000Z</time>
      </trkpt>
      <trkpt lat="49.86668" lon="4.83204">
        <ele>332</ele>
        <time>2022-07-15T06:55:42.000Z</time>
      </trkpt>
      <trkpt lat="49.86668" lon="4.83208">
        <ele>331</ele>
        <time>2022-07-15T06:55:43.000Z</time>
      </trkpt>
      <trkpt lat="49.86668" lon="4.83212">
        <ele>331</ele>
        <time>2022-07-15T06:55:44.000Z</time>
      </trkpt>
      <trkpt lat="49.86669" lon="4.83216">
        <ele>331</ele>
        <time>2022-07-15T06:55:45.000Z</time>
      </trkpt>
      <trkpt lat="49.86669" lon="4.8322">
        <ele>331</ele>
        <time>2022-07-15T06:55:46.000Z</time>
      </trkpt>
      <trkpt lat="49.86669" lon="4.83224">
        <ele>331</ele>
        <time>2022-07-15T06:55:47.000Z</time>
      </trkpt>
      <trkpt lat="49.8667" lon="4.83228">
        <ele>331</ele>
        <time>2022-07-15T06:55:48.000Z</time>
      </trkpt>
      <trkpt lat="49.8667" lon="4.83232">
        <ele>331</ele>
        <time>2022-07-15T06:55:49.000Z</time>
      </trkpt>
      <trkpt lat="49.86669" lon="4.83236">
        <ele>331</ele>
        <time>2022-07-15T06:55:50.000Z</time>
      </trkpt>
      <trkpt lat="49.86669" lon="4.8324">
        <ele>331</ele>
        <time>2022-07-15T06:55:51.000Z</time>
      </trkpt>
      <trkpt lat="49.8667" lon="4.83243">
        <ele>331</ele>
        <time>2022-07-15T06:55:52.000Z</time>
      </trkpt>
      <trkpt lat="49.8667" lon="4.83247">
        <ele>331</ele>
        <time>2022-07-15T06:55:53.000Z</time>
      </trkpt>
      <trkpt lat="49.8667" lon="4.83252">
        <ele>331</ele>
        <time>2022-07-15T06:55:54.000Z</time>
      </trkpt>
      <trkpt lat="49.86671" lon="4.83255">
        <ele>332</ele>
        <time>2022-07-15T06:55:55.000Z</time>
      </trkpt>
      <trkpt lat="49.86671" lon="4.83259">
        <ele>332</ele>
        <time>2022-07-15T06:55:56.000Z</time>
      </trkpt>
      <trkpt lat="49.86671" lon="4.83263">
        <ele>332</ele>
        <time>2022-07-15T06:55:57.000Z</time>
      </trkpt>
      <trkpt lat="49.86672" lon="4.83267">
        <ele>332</ele>
        <time>2022-07-15T06:55:58.000Z</time>
      </trkpt>
      <trkpt lat="49.86672" lon="4.8327">
        <ele>333</ele>
        <time>2022-07-15T06:55:59.000Z</time>
      </trkpt>
      <trkpt lat="49.86673" lon="4.83274">
        <ele>333</ele>
        <time>2022-07-15T06:56:00.000Z</time>
      </trkpt>
      <trkpt lat="49.86673" lon="4.83277">
        <ele>333</ele>
        <time>2022-07-15T06:56:01.000Z</time>
      </trkpt>
      <trkpt lat="49.86674" lon="4.8328">
        <ele>333</ele>
        <time>2022-07-15T06:56:02.000Z</time>
      </trkpt>
      <trkpt lat="49.86675" lon="4.83284">
        <ele>334</ele>
        <time>2022-07-15T06:56:03.000Z</time>
      </trkpt>
      <trkpt lat="49.86675" lon="4.83287">
        <ele>334</ele>
        <time>2022-07-15T06:56:04.000Z</time>
      </trkpt>
      <trkpt lat="49.86675" lon="4.8329">
        <ele>334</ele>
        <time>2022-07-15T06:56:05.000Z</time>
      </trkpt>
      <trkpt lat="49.86675" lon="4.83293">
        <ele>334</ele>
        <time>2022-07-15T06:56:06.000Z</time>
      </trkpt>
      <trkpt lat="49.86676" lon="4.83298">
        <ele>334</ele>
        <time>2022-07-15T06:56:07.000Z</time>
      </trkpt>
      <trkpt lat="49.86676" lon="4.83301">
        <ele>334</ele>
        <time>2022-07-15T06:56:08.000Z</time>
      </trkpt>
      <trkpt lat="49.86677" lon="4.83304">
        <ele>335</ele>
        <time>2022-07-15T06:56:09.000Z</time>
      </trkpt>
      <trkpt lat="49.86678" lon="4.83308">
        <ele>335</ele>
        <time>2022-07-15T06:56:10.000Z</time>
      </trkpt>
      <trkpt lat="49.86678" lon="4.83312">
        <ele>335</ele>
        <time>2022-07-15T06:56:11.000Z</time>
      </trkpt>
      <trkpt lat="49.86679" lon="4.83316">
        <ele>335</ele>
        <time>2022-07-15T06:56:12.000Z</time>
      </trkpt>
      <trkpt lat="49.8668" lon="4.83321">
        <ele>335</ele>
        <time>2022-07-15T06:56:13.000Z</time>
      </trkpt>
      <trkpt lat="49.86681" lon="4.83325">
        <ele>335</ele>
        <time>2022-07-15T06:56:14.000Z</time>
      </trkpt>
      <trkpt lat="49.86682" lon="4.83329">
        <ele>336</ele>
        <time>2022-07-15T06:56:15.000Z</time>
      </trkpt>
      <trkpt lat="49.86684" lon="4.83334">
        <ele>336</ele>
        <time>2022-07-15T06:56:16.000Z</time>
      </trkpt>
      <trkpt lat="49.86685" lon="4.83338">
        <ele>336</ele>
        <time>2022-07-15T06:56:17.000Z</time>
      </trkpt>
      <trkpt lat="49.86686" lon="4.83342">
        <ele>336</ele>
        <time>2022-07-15T06:56:18.000Z</time>
      </trkpt>
      <trkpt lat="49.86688" lon="4.83346">
        <ele>337</ele>
        <time>2022-07-15T06:56:19.000Z</time>
      </trkpt>
      <trkpt lat="49.86689" lon="4.8335">
        <ele>337</ele>
        <time>2022-07-15T06:56:20.000Z</time>
      </trkpt>
      <trkpt lat="49.8669" lon="4.83353">
        <ele>337</ele>
        <time>2022-07-15T06:56:21.000Z</time>
      </trkpt>
      <trkpt lat="49.86692" lon="4.83357">
        <ele>337</ele>
        <time>2022-07-15T06:56:22.000Z</time>
      </trkpt>
      <trkpt lat="49.86694" lon="4.8336">
        <ele>337</ele>
        <time>2022-07-15T06:56:23.000Z</time>
      </trkpt>
      <trkpt lat="49.86695" lon="4.83364">
        <ele>337</ele>
        <time>2022-07-15T06:56:24.000Z</time>
      </trkpt>
      <trkpt lat="49.86697" lon="4.83367">
        <ele>338</ele>
        <time>2022-07-15T06:56:25.000Z</time>
      </trkpt>
      <trkpt lat="49.86698" lon="4.8337">
        <ele>338</ele>
        <time>2022-07-15T06:56:26.000Z</time>
      </trkpt>
      <trkpt lat="49.867" lon="4.83374">
        <ele>338</ele>
        <time>2022-07-15T06:56:27.000Z</time>
      </trkpt>
      <trkpt lat="49.86701" lon="4.83378">
        <ele>338</ele>
        <time>2022-07-15T06:56:28.000Z</time>
      </trkpt>
      <trkpt lat="49.86702" lon="4.83381">
        <ele>338</ele>
        <time>2022-07-15T06:56:29.000Z</time>
      </trkpt>
      <trkpt lat="49.86703" lon="4.83385">
        <ele>338</ele>
        <time>2022-07-15T06:56:30.000Z</time>
      </trkpt>
      <trkpt lat="49.86704" lon="4.83389">
        <ele>339</ele>
        <time>2022-07-15T06:56:31.000Z</time>
      </trkpt>
      <trkpt lat="49.86704" lon="4.83393">
        <ele>339</ele>
        <time>2022-07-15T06:56:32.000Z</time>
      </trkpt>
      <trkpt lat="49.86705" lon="4.83397">
        <ele>339</ele>
        <time>2022-07-15T06:56:33.000Z</time>
      </trkpt>
      <trkpt lat="49.86705" lon="4.834">
        <ele>339</ele>
        <time>2022-07-15T06:56:34.000Z</time>
      </trkpt>
      <trkpt lat="49.86706" lon="4.83404">
        <ele>339</ele>
        <time>2022-07-15T06:56:35.000Z</time>
      </trkpt>
      <trkpt lat="49.86706" lon="4.83409">
        <ele>339</ele>
        <time>2022-07-15T06:56:36.000Z</time>
      </trkpt>
      <trkpt lat="49.86707" lon="4.83413">
        <ele>339</ele>
        <time>2022-07-15T06:56:37.000Z</time>
      </trkpt>
      <trkpt lat="49.86707" lon="4.83416">
        <ele>339</ele>
        <time>2022-07-15T06:56:38.000Z</time>
      </trkpt>
      <trkpt lat="49.86706" lon="4.8342">
        <ele>340</ele>
        <time>2022-07-15T06:56:39.000Z</time>
      </trkpt>
      <trkpt lat="49.86706" lon="4.83424">
        <ele>340</ele>
        <time>2022-07-15T06:56:40.000Z</time>
      </trkpt>
      <trkpt lat="49.86707" lon="4.83428">
        <ele>340</ele>
        <time>2022-07-15T06:56:41.000Z</time>
      </trkpt>
      <trkpt lat="49.86707" lon="4.83432">
        <ele>340</ele>
        <time>2022-07-15T06:56:42.000Z</time>
      </trkpt>
      <trkpt lat="49.86707" lon="4.83435">
        <ele>340</ele>
        <time>2022-07-15T06:56:43.000Z</time>
      </trkpt>
      <trkpt lat="49.86707" lon="4.83439">
        <ele>340</ele>
        <time>2022-07-15T06:56:44.000Z</time>
      </trkpt>
      <trkpt lat="49.86707" lon="4.83444">
        <ele>341</ele>
        <time>2022-07-15T06:56:45.000Z</time>
      </trkpt>
      <trkpt lat="49.86708" lon="4.83448">
        <ele>341</ele>
        <time>2022-07-15T06:56:46.000Z</time>
      </trkpt>
      <trkpt lat="49.86707" lon="4.83452">
        <ele>341</ele>
        <time>2022-07-15T06:56:47.000Z</time>
      </trkpt>
      <trkpt lat="49.86707" lon="4.83457">
        <ele>341</ele>
        <time>2022-07-15T06:56:48.000Z</time>
      </trkpt>
      <trkpt lat="49.86707" lon="4.83462">
        <ele>341</ele>
        <time>2022-07-15T06:56:49.000Z</time>
      </trkpt>
      <trkpt lat="49.86706" lon="4.83466">
        <ele>342</ele>
        <time>2022-07-15T06:56:50.000Z</time>
      </trkpt>
      <trkpt lat="49.86706" lon="4.8347">
        <ele>342</ele>
        <time>2022-07-15T06:56:51.000Z</time>
      </trkpt>
      <trkpt lat="49.86705" lon="4.83474">
        <ele>342</ele>
        <time>2022-07-15T06:56:52.000Z</time>
      </trkpt>
      <trkpt lat="49.86705" lon="4.83479">
        <ele>342</ele>
        <time>2022-07-15T06:56:53.000Z</time>
      </trkpt>
      <trkpt lat="49.86706" lon="4.83483">
        <ele>342</ele>
        <time>2022-07-15T06:56:54.000Z</time>
      </trkpt>
      <trkpt lat="49.86707" lon="4.83489">
        <ele>342</ele>
        <time>2022-07-15T06:56:55.000Z</time>
      </trkpt>
      <trkpt lat="49.86708" lon="4.83494">
        <ele>342</ele>
        <time>2022-07-15T06:56:56.000Z</time>
      </trkpt>
      <trkpt lat="49.8671" lon="4.83499">
        <ele>342</ele>
        <time>2022-07-15T06:56:57.000Z</time>
      </trkpt>
      <trkpt lat="49.86711" lon="4.83504">
        <ele>342</ele>
        <time>2022-07-15T06:56:58.000Z</time>
      </trkpt>
      <trkpt lat="49.86713" lon="4.83508">
        <ele>342</ele>
        <time>2022-07-15T06:56:59.000Z</time>
      </trkpt>
      <trkpt lat="49.86716" lon="4.83512">
        <ele>342</ele>
        <time>2022-07-15T06:57:00.000Z</time>
      </trkpt>
      <trkpt lat="49.86718" lon="4.83515">
        <ele>342</ele>
        <time>2022-07-15T06:57:01.000Z</time>
      </trkpt>
      <trkpt lat="49.8672" lon="4.83518">
        <ele>342</ele>
        <time>2022-07-15T06:57:02.000Z</time>
      </trkpt>
      <trkpt lat="49.86723" lon="4.83521">
        <ele>342</ele>
        <time>2022-07-15T06:57:03.000Z</time>
      </trkpt>
      <trkpt lat="49.86725" lon="4.83524">
        <ele>342</ele>
        <time>2022-07-15T06:57:04.000Z</time>
      </trkpt>
      <trkpt lat="49.86728" lon="4.83527">
        <ele>341</ele>
        <time>2022-07-15T06:57:05.000Z</time>
      </trkpt>
      <trkpt lat="49.8673" lon="4.83532">
        <ele>341</ele>
        <time>2022-07-15T06:57:06.000Z</time>
      </trkpt>
      <trkpt lat="49.86732" lon="4.83537">
        <ele>341</ele>
        <time>2022-07-15T06:57:07.000Z</time>
      </trkpt>
      <trkpt lat="49.86733" lon="4.83542">
        <ele>341</ele>
        <time>2022-07-15T06:57:08.000Z</time>
      </trkpt>
      <trkpt lat="49.86734" lon="4.83547">
        <ele>341</ele>
        <time>2022-07-15T06:57:09.000Z</time>
      </trkpt>
      <trkpt lat="49.86735" lon="4.83553">
        <ele>341</ele>
        <time>2022-07-15T06:57:10.000Z</time>
      </trkpt>
      <trkpt lat="49.86736" lon="4.83558">
        <ele>341</ele>
        <time>2022-07-15T06:57:11.000Z</time>
      </trkpt>
      <trkpt lat="49.86736" lon="4.83563">
        <ele>341</ele>
        <time>2022-07-15T06:57:12.000Z</time>
      </trkpt>
      <trkpt lat="49.86736" lon="4.83568">
        <ele>340</ele>
        <time>2022-07-15T06:57:13.000Z</time>
      </trkpt>
      <trkpt lat="49.86736" lon="4.83573">
        <ele>340</ele>
        <time>2022-07-15T06:57:14.000Z</time>
      </trkpt>
      <trkpt lat="49.86737" lon="4.83576">
        <ele>340</ele>
        <time>2022-07-15T06:57:15.000Z</time>
      </trkpt>
      <trkpt lat="49.86739" lon="4.83578">
        <ele>340</ele>
        <time>2022-07-15T06:57:16.000Z</time>
      </trkpt>
      <trkpt lat="49.86741" lon="4.83579">
        <ele>340</ele>
        <time>2022-07-15T06:57:17.000Z</time>
      </trkpt>
      <trkpt lat="49.86742" lon="4.83578">
        <ele>340</ele>
        <time>2022-07-15T06:57:18.000Z</time>
      </trkpt>
      <trkpt lat="49.86744" lon="4.83576">
        <ele>340</ele>
        <time>2022-07-15T06:57:19.000Z</time>
      </trkpt>
      <trkpt lat="49.86745" lon="4.83573">
        <ele>340</ele>
        <time>2022-07-15T06:57:20.000Z</time>
      </trkpt>
      <trkpt lat="49.86745" lon="4.83569">
        <ele>340</ele>
        <time>2022-07-15T06:57:21.000Z</time>
      </trkpt>
      <trkpt lat="49.86744" lon="4.83565">
        <ele>340</ele>
        <time>2022-07-15T06:57:22.000Z</time>
      </trkpt>
      <trkpt lat="49.86743" lon="4.8356">
        <ele>340</ele>
        <time>2022-07-15T06:57:23.000Z</time>
      </trkpt>
      <trkpt lat="49.86742" lon="4.83555">
        <ele>340</ele>
        <time>2022-07-15T06:57:24.000Z</time>
      </trkpt>
      <trkpt lat="49.8674" lon="4.83551">
        <ele>340</ele>
        <time>2022-07-15T06:57:25.000Z</time>
      </trkpt>
      <trkpt lat="49.86739" lon="4.83547">
        <ele>340</ele>
        <time>2022-07-15T06:57:26.000Z</time>
      </trkpt>
      <trkpt lat="49.86737" lon="4.83542">
        <ele>340</ele>
        <time>2022-07-15T06:57:27.000Z</time>
      </trkpt>
      <trkpt lat="49.86736" lon="4.83538">
        <ele>340</ele>
        <time>2022-07-15T06:57:28.000Z</time>
      </trkpt>
      <trkpt lat="49.86735" lon="4.83534">
        <ele>340</ele>
        <time>2022-07-15T06:57:29.000Z</time>
      </trkpt>
      <trkpt lat="49.86734" lon="4.83529">
        <ele>340</ele>
        <time>2022-07-15T06:57:30.000Z</time>
      </trkpt>
      <trkpt lat="49.86735" lon="4.83524">
        <ele>340</ele>
        <time>2022-07-15T06:57:31.000Z</time>
      </trkpt>
      <trkpt lat="49.86736" lon="4.8352">
        <ele>340</ele>
        <time>2022-07-15T06:57:32.000Z</time>
      </trkpt>
      <trkpt lat="49.86737" lon="4.83516">
        <ele>340</ele>
        <time>2022-07-15T06:57:33.000Z</time>
      </trkpt>
      <trkpt lat="49.86739" lon="4.83513">
        <ele>340</ele>
        <time>2022-07-15T06:57:34.000Z</time>
      </trkpt>
      <trkpt lat="49.86742" lon="4.8351">
        <ele>340</ele>
        <time>2022-07-15T06:57:35.000Z</time>
      </trkpt>
      <trkpt lat="49.86744" lon="4.83507">
        <ele>340</ele>
        <time>2022-07-15T06:57:36.000Z</time>
      </trkpt>
      <trkpt lat="49.86747" lon="4.83504">
        <ele>340</ele>
        <time>2022-07-15T06:57:37.000Z</time>
      </trkpt>
      <trkpt lat="49.8675" lon="4.835">
        <ele>340</ele>
        <time>2022-07-15T06:57:38.000Z</time>
      </trkpt>
      <trkpt lat="49.86752" lon="4.83497">
        <ele>340</ele>
        <time>2022-07-15T06:57:39.000Z</time>
      </trkpt>
      <trkpt lat="49.86755" lon="4.83494">
        <ele>340</ele>
        <time>2022-07-15T06:57:40.000Z</time>
      </trkpt>
      <trkpt lat="49.86756" lon="4.8349">
        <ele>340</ele>
        <time>2022-07-15T06:57:41.000Z</time>
      </trkpt>
      <trkpt lat="49.86759" lon="4.83486">
        <ele>340</ele>
        <time>2022-07-15T06:57:42.000Z</time>
      </trkpt>
      <trkpt lat="49.86761" lon="4.83483">
        <ele>340</ele>
        <time>2022-07-15T06:57:43.000Z</time>
      </trkpt>
      <trkpt lat="49.86764" lon="4.8348">
        <ele>340</ele>
        <time>2022-07-15T06:57:44.000Z</time>
      </trkpt>
      <trkpt lat="49.86767" lon="4.83476">
        <ele>341</ele>
        <time>2022-07-15T06:57:45.000Z</time>
      </trkpt>
      <trkpt lat="49.86769" lon="4.83473">
        <ele>341</ele>
        <time>2022-07-15T06:57:46.000Z</time>
      </trkpt>
      <trkpt lat="49.86771" lon="4.83469">
        <ele>341</ele>
        <time>2022-07-15T06:57:47.000Z</time>
      </trkpt>
      <trkpt lat="49.86774" lon="4.83465">
        <ele>341</ele>
        <time>2022-07-15T06:57:48.000Z</time>
      </trkpt>
      <trkpt lat="49.86777" lon="4.83463">
        <ele>341</ele>
        <time>2022-07-15T06:57:49.000Z</time>
      </trkpt>
      <trkpt lat="49.86779" lon="4.83461">
        <ele>341</ele>
        <time>2022-07-15T06:57:50.000Z</time>
      </trkpt>
      <trkpt lat="49.8678" lon="4.83458">
        <ele>341</ele>
        <time>2022-07-15T06:57:51.000Z</time>
      </trkpt>
      <trkpt lat="49.86781" lon="4.83456">
        <ele>342</ele>
        <time>2022-07-15T06:57:52.000Z</time>
      </trkpt>
      <trkpt lat="49.86782" lon="4.83454">
        <ele>342</ele>
        <time>2022-07-15T06:57:53.000Z</time>
      </trkpt>
      <trkpt lat="49.86782" lon="4.83454">
        <ele>342</ele>
        <time>2022-07-15T06:57:54.000Z</time>
      </trkpt>
      <trkpt lat="49.86782" lon="4.83454">
        <ele>342</ele>
        <time>2022-07-15T06:57:55.000Z</time>
      </trkpt>
      <trkpt lat="49.86782" lon="4.83453">
        <ele>342</ele>
        <time>2022-07-15T06:57:56.000Z</time>
      </trkpt>
      <trkpt lat="49.86783" lon="4.83453">
        <ele>342</ele>
        <time>2022-07-15T06:57:57.000Z</time>
      </trkpt>
      <trkpt lat="49.86784" lon="4.83452">
        <ele>342</ele>
        <time>2022-07-15T06:57:58.000Z</time>
      </trkpt>
      <trkpt lat="49.86785" lon="4.83452">
        <ele>343</ele>
        <time>2022-07-15T06:57:59.000Z</time>
      </trkpt>
      <trkpt lat="49.86786" lon="4.83451">
        <ele>343</ele>
        <time>2022-07-15T06:58:00.000Z</time>
      </trkpt>
      <trkpt lat="49.86787" lon="4.83451">
        <ele>343</ele>
        <time>2022-07-15T06:58:01.000Z</time>
      </trkpt>
      <trkpt lat="49.86788" lon="4.8345">
        <ele>343</ele>
        <time>2022-07-15T06:58:02.000Z</time>
      </trkpt>
      <trkpt lat="49.86789" lon="4.8345">
        <ele>344</ele>
        <time>2022-07-15T06:58:03.000Z</time>
      </trkpt>
      <trkpt lat="49.86789" lon="4.83449">
        <ele>344</ele>
        <time>2022-07-15T06:58:04.000Z</time>
      </trkpt>
      <trkpt lat="49.8679" lon="4.83449">
        <ele>344</ele>
        <time>2022-07-15T06:58:05.000Z</time>
      </trkpt>
      <trkpt lat="49.8679" lon="4.83448">
        <ele>345</ele>
        <time>2022-07-15T06:58:06.000Z</time>
      </trkpt>
      <trkpt lat="49.86792" lon="4.83446">
        <ele>345</ele>
        <time>2022-07-15T06:58:07.000Z</time>
      </trkpt>
      <trkpt lat="49.86794" lon="4.83443">
        <ele>345</ele>
        <time>2022-07-15T06:58:08.000Z</time>
      </trkpt>
      <trkpt lat="49.86796" lon="4.8344">
        <ele>346</ele>
        <time>2022-07-15T06:58:09.000Z</time>
      </trkpt>
      <trkpt lat="49.86797" lon="4.83438">
        <ele>346</ele>
        <time>2022-07-15T06:58:10.000Z</time>
      </trkpt>
      <trkpt lat="49.86799" lon="4.83435">
        <ele>346</ele>
        <time>2022-07-15T06:58:11.000Z</time>
      </trkpt>
      <trkpt lat="49.86801" lon="4.83433">
        <ele>347</ele>
        <time>2022-07-15T06:58:12.000Z</time>
      </trkpt>
      <trkpt lat="49.86802" lon="4.83431">
        <ele>347</ele>
        <time>2022-07-15T06:58:13.000Z</time>
      </trkpt>
      <trkpt lat="49.86804" lon="4.83429">
        <ele>347</ele>
        <time>2022-07-15T06:58:14.000Z</time>
      </trkpt>
      <trkpt lat="49.86806" lon="4.83426">
        <ele>348</ele>
        <time>2022-07-15T06:58:15.000Z</time>
      </trkpt>
      <trkpt lat="49.86809" lon="4.83422">
        <ele>348</ele>
        <time>2022-07-15T06:58:16.000Z</time>
      </trkpt>
      <trkpt lat="49.86811" lon="4.83419">
        <ele>348</ele>
        <time>2022-07-15T06:58:17.000Z</time>
      </trkpt>
      <trkpt lat="49.86814" lon="4.83416">
        <ele>348</ele>
        <time>2022-07-15T06:58:18.000Z</time>
      </trkpt>
      <trkpt lat="49.86817" lon="4.83412">
        <ele>349</ele>
        <time>2022-07-15T06:58:19.000Z</time>
      </trkpt>
      <trkpt lat="49.86821" lon="4.83409">
        <ele>349</ele>
        <time>2022-07-15T06:58:20.000Z</time>
      </trkpt>
      <trkpt lat="49.86824" lon="4.83406">
        <ele>349</ele>
        <time>2022-07-15T06:58:21.000Z</time>
      </trkpt>
      <trkpt lat="49.86827" lon="4.83402">
        <ele>349</ele>
        <time>2022-07-15T06:58:22.000Z</time>
      </trkpt>
      <trkpt lat="49.8683" lon="4.83398">
        <ele>350</ele>
        <time>2022-07-15T06:58:23.000Z</time>
      </trkpt>
      <trkpt lat="49.86833" lon="4.83395">
        <ele>350</ele>
        <time>2022-07-15T06:58:24.000Z</time>
      </trkpt>
      <trkpt lat="49.86836" lon="4.83393">
        <ele>350</ele>
        <time>2022-07-15T06:58:25.000Z</time>
      </trkpt>
      <trkpt lat="49.86839" lon="4.83391">
        <ele>350</ele>
        <time>2022-07-15T06:58:26.000Z</time>
      </trkpt>
      <trkpt lat="49.86841" lon="4.83388">
        <ele>351</ele>
        <time>2022-07-15T06:58:27.000Z</time>
      </trkpt>
      <trkpt lat="49.86843" lon="4.83386">
        <ele>351</ele>
        <time>2022-07-15T06:58:28.000Z</time>
      </trkpt>
      <trkpt lat="49.86845" lon="4.83384">
        <ele>351</ele>
        <time>2022-07-15T06:58:29.000Z</time>
      </trkpt>
      <trkpt lat="49.86848" lon="4.83381">
        <ele>351</ele>
        <time>2022-07-15T06:58:30.000Z</time>
      </trkpt>
      <trkpt lat="49.8685" lon="4.83378">
        <ele>351</ele>
        <time>2022-07-15T06:58:31.000Z</time>
      </trkpt>
      <trkpt lat="49.86853" lon="4.83374">
        <ele>352</ele>
        <time>2022-07-15T06:58:32.000Z</time>
      </trkpt>
      <trkpt lat="49.86856" lon="4.83371">
        <ele>352</ele>
        <time>2022-07-15T06:58:33.000Z</time>
      </trkpt>
      <trkpt lat="49.86859" lon="4.83368">
        <ele>352</ele>
        <time>2022-07-15T06:58:34.000Z</time>
      </trkpt>
      <trkpt lat="49.86862" lon="4.83365">
        <ele>352</ele>
        <time>2022-07-15T06:58:35.000Z</time>
      </trkpt>
      <trkpt lat="49.86865" lon="4.83362">
        <ele>353</ele>
        <time>2022-07-15T06:58:36.000Z</time>
      </trkpt>
      <trkpt lat="49.86868" lon="4.83358">
        <ele>353</ele>
        <time>2022-07-15T06:58:37.000Z</time>
      </trkpt>
      <trkpt lat="49.86872" lon="4.83355">
        <ele>353</ele>
        <time>2022-07-15T06:58:38.000Z</time>
      </trkpt>
      <trkpt lat="49.86876" lon="4.83352">
        <ele>353</ele>
        <time>2022-07-15T06:58:39.000Z</time>
      </trkpt>
      <trkpt lat="49.8688" lon="4.83349">
        <ele>353</ele>
        <time>2022-07-15T06:58:40.000Z</time>
      </trkpt>
      <trkpt lat="49.86884" lon="4.83346">
        <ele>353</ele>
        <time>2022-07-15T06:58:41.000Z</time>
      </trkpt>
      <trkpt lat="49.86887" lon="4.83343">
        <ele>354</ele>
        <time>2022-07-15T06:58:42.000Z</time>
      </trkpt>
      <trkpt lat="49.8689" lon="4.83341">
        <ele>354</ele>
        <time>2022-07-15T06:58:43.000Z</time>
      </trkpt>
      <trkpt lat="49.86892" lon="4.83339">
        <ele>354</ele>
        <time>2022-07-15T06:58:44.000Z</time>
      </trkpt>
      <trkpt lat="49.86893" lon="4.83337">
        <ele>354</ele>
        <time>2022-07-15T06:58:45.000Z</time>
      </trkpt>
      <trkpt lat="49.86894" lon="4.83335">
        <ele>354</ele>
        <time>2022-07-15T06:58:46.000Z</time>
      </trkpt>
      <trkpt lat="49.86894" lon="4.83334">
        <ele>354</ele>
        <time>2022-07-15T06:58:47.000Z</time>
      </trkpt>
      <trkpt lat="49.86895" lon="4.83334">
        <ele>354</ele>
        <time>2022-07-15T06:58:48.000Z</time>
      </trkpt>
      <trkpt lat="49.86897" lon="4.83332">
        <ele>354</ele>
        <time>2022-07-15T06:58:49.000Z</time>
      </trkpt>
      <trkpt lat="49.86899" lon="4.83331">
        <ele>355</ele>
        <time>2022-07-15T06:58:50.000Z</time>
      </trkpt>
      <trkpt lat="49.86901" lon="4.8333">
        <ele>355</ele>
        <time>2022-07-15T06:58:51.000Z</time>
      </trkpt>
      <trkpt lat="49.86903" lon="4.83328">
        <ele>355</ele>
        <time>2022-07-15T06:58:52.000Z</time>
      </trkpt>
      <trkpt lat="49.86905" lon="4.83326">
        <ele>355</ele>
        <time>2022-07-15T06:58:53.000Z</time>
      </trkpt>
      <trkpt lat="49.86908" lon="4.83324">
        <ele>355</ele>
        <time>2022-07-15T06:58:54.000Z</time>
      </trkpt>
      <trkpt lat="49.8691" lon="4.83322">
        <ele>355</ele>
        <time>2022-07-15T06:58:55.000Z</time>
      </trkpt>
      <trkpt lat="49.86913" lon="4.8332">
        <ele>356</ele>
        <time>2022-07-15T06:58:56.000Z</time>
      </trkpt>
      <trkpt lat="49.86916" lon="4.83318">
        <ele>356</ele>
        <time>2022-07-15T06:58:57.000Z</time>
      </trkpt>
      <trkpt lat="49.86919" lon="4.83314">
        <ele>356</ele>
        <time>2022-07-15T06:58:58.000Z</time>
      </trkpt>
      <trkpt lat="49.86921" lon="4.8331">
        <ele>356</ele>
        <time>2022-07-15T06:58:59.000Z</time>
      </trkpt>
      <trkpt lat="49.86923" lon="4.83306">
        <ele>356</ele>
        <time>2022-07-15T06:59:00.000Z</time>
      </trkpt>
      <trkpt lat="49.86926" lon="4.83304">
        <ele>356</ele>
        <time>2022-07-15T06:59:01.000Z</time>
      </trkpt>
      <trkpt lat="49.86928" lon="4.83301">
        <ele>356</ele>
        <time>2022-07-15T06:59:02.000Z</time>
      </trkpt>
      <trkpt lat="49.8693" lon="4.83297">
        <ele>357</ele>
        <time>2022-07-15T06:59:03.000Z</time>
      </trkpt>
      <trkpt lat="49.86932" lon="4.83293">
        <ele>357</ele>
        <time>2022-07-15T06:59:04.000Z</time>
      </trkpt>
      <trkpt lat="49.86935" lon="4.83289">
        <ele>357</ele>
        <time>2022-07-15T06:59:05.000Z</time>
      </trkpt>
      <trkpt lat="49.86937" lon="4.83286">
        <ele>357</ele>
        <time>2022-07-15T06:59:06.000Z</time>
      </trkpt>
      <trkpt lat="49.86939" lon="4.83282">
        <ele>357</ele>
        <time>2022-07-15T06:59:07.000Z</time>
      </trkpt>
      <trkpt lat="49.86941" lon="4.83278">
        <ele>357</ele>
        <time>2022-07-15T06:59:08.000Z</time>
      </trkpt>
      <trkpt lat="49.86943" lon="4.83274">
        <ele>357</ele>
        <time>2022-07-15T06:59:09.000Z</time>
      </trkpt>
      <trkpt lat="49.86945" lon="4.8327">
        <ele>357</ele>
        <time>2022-07-15T06:59:10.000Z</time>
      </trkpt>
      <trkpt lat="49.86947" lon="4.83266">
        <ele>358</ele>
        <time>2022-07-15T06:59:11.000Z</time>
      </trkpt>
      <trkpt lat="49.86949" lon="4.83262">
        <ele>358</ele>
        <time>2022-07-15T06:59:12.000Z</time>
      </trkpt>
      <trkpt lat="49.86951" lon="4.83259">
        <ele>358</ele>
        <time>2022-07-15T06:59:13.000Z</time>
      </trkpt>
      <trkpt lat="49.86953" lon="4.83255">
        <ele>358</ele>
        <time>2022-07-15T06:59:14.000Z</time>
      </trkpt>
      <trkpt lat="49.86956" lon="4.83251">
        <ele>358</ele>
        <time>2022-07-15T06:59:15.000Z</time>
      </trkpt>
      <trkpt lat="49.86958" lon="4.83247">
        <ele>358</ele>
        <time>2022-07-15T06:59:16.000Z</time>
      </trkpt>
      <trkpt lat="49.8696" lon="4.83244">
        <ele>358</ele>
        <time>2022-07-15T06:59:17.000Z</time>
      </trkpt>
      <trkpt lat="49.86962" lon="4.8324">
        <ele>358</ele>
        <time>2022-07-15T06:59:18.000Z</time>
      </trkpt>
      <trkpt lat="49.86965" lon="4.83236">
        <ele>358</ele>
        <time>2022-07-15T06:59:19.000Z</time>
      </trkpt>
      <trkpt lat="49.86967" lon="4.83232">
        <ele>358</ele>
        <time>2022-07-15T06:59:20.000Z</time>
      </trkpt>
      <trkpt lat="49.86969" lon="4.83229">
        <ele>358</ele>
        <time>2022-07-15T06:59:21.000Z</time>
      </trkpt>
      <trkpt lat="49.86972" lon="4.83225">
        <ele>359</ele>
        <time>2022-07-15T06:59:22.000Z</time>
      </trkpt>
      <trkpt lat="49.86973" lon="4.83221">
        <ele>359</ele>
        <time>2022-07-15T06:59:23.000Z</time>
      </trkpt>
      <trkpt lat="49.86976" lon="4.83217">
        <ele>359</ele>
        <time>2022-07-15T06:59:24.000Z</time>
      </trkpt>
      <trkpt lat="49.86978" lon="4.83214">
        <ele>359</ele>
        <time>2022-07-15T06:59:25.000Z</time>
      </trkpt>
      <trkpt lat="49.86979" lon="4.83211">
        <ele>359</ele>
        <time>2022-07-15T06:59:26.000Z</time>
      </trkpt>
      <trkpt lat="49.86981" lon="4.83207">
        <ele>359</ele>
        <time>2022-07-15T06:59:27.000Z</time>
      </trkpt>
      <trkpt lat="49.86983" lon="4.83203">
        <ele>359</ele>
        <time>2022-07-15T06:59:28.000Z</time>
      </trkpt>
      <trkpt lat="49.86986" lon="4.832">
        <ele>359</ele>
        <time>2022-07-15T06:59:29.000Z</time>
      </trkpt>
      <trkpt lat="49.86988" lon="4.83197">
        <ele>359</ele>
        <time>2022-07-15T06:59:30.000Z</time>
      </trkpt>
      <trkpt lat="49.86991" lon="4.83194">
        <ele>359</ele>
        <time>2022-07-15T06:59:31.000Z</time>
      </trkpt>
      <trkpt lat="49.86993" lon="4.83191">
        <ele>359</ele>
        <time>2022-07-15T06:59:32.000Z</time>
      </trkpt>
      <trkpt lat="49.86995" lon="4.83189">
        <ele>359</ele>
        <time>2022-07-15T06:59:33.000Z</time>
      </trkpt>
      <trkpt lat="49.86998" lon="4.83187">
        <ele>359</ele>
        <time>2022-07-15T06:59:34.000Z</time>
      </trkpt>
      <trkpt lat="49.87" lon="4.83184">
        <ele>359</ele>
        <time>2022-07-15T06:59:35.000Z</time>
      </trkpt>
      <trkpt lat="49.87002" lon="4.8318">
        <ele>359</ele>
        <time>2022-07-15T06:59:36.000Z</time>
      </trkpt>
      <trkpt lat="49.87005" lon="4.83177">
        <ele>359</ele>
        <time>2022-07-15T06:59:37.000Z</time>
      </trkpt>
      <trkpt lat="49.87007" lon="4.83173">
        <ele>359</ele>
        <time>2022-07-15T06:59:38.000Z</time>
      </trkpt>
      <trkpt lat="49.87009" lon="4.83169">
        <ele>359</ele>
        <time>2022-07-15T06:59:39.000Z</time>
      </trkpt>
      <trkpt lat="49.87012" lon="4.83165">
        <ele>359</ele>
        <time>2022-07-15T06:59:40.000Z</time>
      </trkpt>
      <trkpt lat="49.87014" lon="4.83162">
        <ele>359</ele>
        <time>2022-07-15T06:59:41.000Z</time>
      </trkpt>
      <trkpt lat="49.87017" lon="4.83158">
        <ele>359</ele>
        <time>2022-07-15T06:59:42.000Z</time>
      </trkpt>
      <trkpt lat="49.8702" lon="4.83155">
        <ele>359</ele>
        <time>2022-07-15T06:59:43.000Z</time>
      </trkpt>
      <trkpt lat="49.87023" lon="4.83152">
        <ele>359</ele>
        <time>2022-07-15T06:59:44.000Z</time>
      </trkpt>
      <trkpt lat="49.87025" lon="4.83149">
        <ele>359</ele>
        <time>2022-07-15T06:59:45.000Z</time>
      </trkpt>
      <trkpt lat="49.87028" lon="4.83146">
        <ele>359</ele>
        <time>2022-07-15T06:59:46.000Z</time>
      </trkpt>
      <trkpt lat="49.87031" lon="4.83144">
        <ele>359</ele>
        <time>2022-07-15T06:59:47.000Z</time>
      </trkpt>
      <trkpt lat="49.87034" lon="4.83142">
        <ele>359</ele>
        <time>2022-07-15T06:59:48.000Z</time>
      </trkpt>
      <trkpt lat="49.87037" lon="4.83139">
        <ele>359</ele>
        <time>2022-07-15T06:59:49.000Z</time>
      </trkpt>
      <trkpt lat="49.87039" lon="4.83137">
        <ele>359</ele>
        <time>2022-07-15T06:59:50.000Z</time>
      </trkpt>
      <trkpt lat="49.87041" lon="4.83134">
        <ele>359</ele>
        <time>2022-07-15T06:59:51.000Z</time>
      </trkpt>
      <trkpt lat="49.87042" lon="4.83131">
        <ele>359</ele>
        <time>2022-07-15T06:59:52.000Z</time>
      </trkpt>
      <trkpt lat="49.87043" lon="4.83129">
        <ele>359</ele>
        <time>2022-07-15T06:59:53.000Z</time>
      </trkpt>
      <trkpt lat="49.87045" lon="4.83126">
        <ele>359</ele>
        <time>2022-07-15T06:59:54.000Z</time>
      </trkpt>
      <trkpt lat="49.87046" lon="4.83123">
        <ele>359</ele>
        <time>2022-07-15T06:59:55.000Z</time>
      </trkpt>
      <trkpt lat="49.87048" lon="4.8312">
        <ele>359</ele>
        <time>2022-07-15T06:59:56.000Z</time>
      </trkpt>
      <trkpt lat="49.8705" lon="4.83117">
        <ele>360</ele>
        <time>2022-07-15T06:59:57.000Z</time>
      </trkpt>
      <trkpt lat="49.87052" lon="4.83114">
        <ele>360</ele>
        <time>2022-07-15T06:59:58.000Z</time>
      </trkpt>
      <trkpt lat="49.87055" lon="4.83111">
        <ele>360</ele>
        <time>2022-07-15T06:59:59.000Z</time>
      </trkpt>
      <trkpt lat="49.87057" lon="4.8311">
        <ele>360</ele>
        <time>2022-07-15T07:00:00.000Z</time>
      </trkpt>
      <trkpt lat="49.8706" lon="4.83108">
        <ele>360</ele>
        <time>2022-07-15T07:00:01.000Z</time>
      </trkpt>
      <trkpt lat="49.87062" lon="4.83107">
        <ele>360</ele>
        <time>2022-07-15T07:00:02.000Z</time>
      </trkpt>
      <trkpt lat="49.87063" lon="4.83105">
        <ele>360</ele>
        <time>2022-07-15T07:00:03.000Z</time>
      </trkpt>
      <trkpt lat="49.87065" lon="4.83104">
        <ele>361</ele>
        <time>2022-07-15T07:00:04.000Z</time>
      </trkpt>
      <trkpt lat="49.87067" lon="4.83103">
        <ele>361</ele>
        <time>2022-07-15T07:00:05.000Z</time>
      </trkpt>
      <trkpt lat="49.87069" lon="4.83102">
        <ele>361</ele>
        <time>2022-07-15T07:00:06.000Z</time>
      </trkpt>
      <trkpt lat="49.8707" lon="4.83101">
        <ele>361</ele>
        <time>2022-07-15T07:00:07.000Z</time>
      </trkpt>
      <trkpt lat="49.87071" lon="4.83099">
        <ele>361</ele>
        <time>2022-07-15T07:00:08.000Z</time>
      </trkpt>
      <trkpt lat="49.87072" lon="4.83097">
        <ele>360</ele>
        <time>2022-07-15T07:00:09.000Z</time>
      </trkpt>
      <trkpt lat="49.87072" lon="4.83095">
        <ele>360</ele>
        <time>2022-07-15T07:00:10.000Z</time>
      </trkpt>
      <trkpt lat="49.87073" lon="4.83093">
        <ele>360</ele>
        <time>2022-07-15T07:00:11.000Z</time>
      </trkpt>
      <trkpt lat="49.87074" lon="4.83091">
        <ele>360</ele>
        <time>2022-07-15T07:00:12.000Z</time>
      </trkpt>
      <trkpt lat="49.87074" lon="4.83089">
        <ele>360</ele>
        <time>2022-07-15T07:00:13.000Z</time>
      </trkpt>
      <trkpt lat="49.87074" lon="4.83086">
        <ele>360</ele>
        <time>2022-07-15T07:00:14.000Z</time>
      </trkpt>
      <trkpt lat="49.87075" lon="4.83083">
        <ele>360</ele>
        <time>2022-07-15T07:00:15.000Z</time>
      </trkpt>
      <trkpt lat="49.87076" lon="4.8308">
        <ele>360</ele>
        <time>2022-07-15T07:00:16.000Z</time>
      </trkpt>
      <trkpt lat="49.87077" lon="4.83077">
        <ele>360</ele>
        <time>2022-07-15T07:00:17.000Z</time>
      </trkpt>
      <trkpt lat="49.87079" lon="4.83073">
        <ele>360</ele>
        <time>2022-07-15T07:00:18.000Z</time>
      </trkpt>
      <trkpt lat="49.87082" lon="4.8307">
        <ele>360</ele>
        <time>2022-07-15T07:00:19.000Z</time>
      </trkpt>
      <trkpt lat="49.87085" lon="4.83067">
        <ele>360</ele>
        <time>2022-07-15T07:00:20.000Z</time>
      </trkpt>
      <trkpt lat="49.87087" lon="4.83063">
        <ele>360</ele>
        <time>2022-07-15T07:00:21.000Z</time>
      </trkpt>
      <trkpt lat="49.87089" lon="4.8306">
        <ele>360</ele>
        <time>2022-07-15T07:00:22.000Z</time>
      </trkpt>
      <trkpt lat="49.87091" lon="4.83057">
        <ele>359</ele>
        <time>2022-07-15T07:00:23.000Z</time>
      </trkpt>
      <trkpt lat="49.87092" lon="4.83054">
        <ele>359</ele>
        <time>2022-07-15T07:00:24.000Z</time>
      </trkpt>
      <trkpt lat="49.87093" lon="4.83053">
        <ele>359</ele>
        <time>2022-07-15T07:00:25.000Z</time>
      </trkpt>
      <trkpt lat="49.87093" lon="4.83052">
        <ele>359</ele>
        <time>2022-07-15T07:00:26.000Z</time>
      </trkpt>
      <trkpt lat="49.87094" lon="4.83053">
        <ele>359</ele>
        <time>2022-07-15T07:00:27.000Z</time>
      </trkpt>
      <trkpt lat="49.87094" lon="4.83052">
        <ele>359</ele>
        <time>2022-07-15T07:00:28.000Z</time>
      </trkpt>
      <trkpt lat="49.87094" lon="4.83052">
        <ele>358</ele>
        <time>2022-07-15T07:00:29.000Z</time>
      </trkpt>
      <trkpt lat="49.87094" lon="4.83052">
        <ele>358</ele>
        <time>2022-07-15T07:00:30.000Z</time>
      </trkpt>
      <trkpt lat="49.87094" lon="4.83052">
        <ele>358</ele>
        <time>2022-07-15T07:00:31.000Z</time>
      </trkpt>
      <trkpt lat="49.87094" lon="4.83051">
        <ele>358</ele>
        <time>2022-07-15T07:00:32.000Z</time>
      </trkpt>
      <trkpt lat="49.87094" lon="4.83051">
        <ele>358</ele>
        <time>2022-07-15T07:00:33.000Z</time>
      </trkpt>
      <trkpt lat="49.87094" lon="4.83051">
        <ele>358</ele>
        <time>2022-07-15T07:00:34.000Z</time>
      </trkpt>
      <trkpt lat="49.87094" lon="4.83051">
        <ele>358</ele>
        <time>2022-07-15T07:00:35.000Z</time>
      </trkpt>
      <trkpt lat="49.87094" lon="4.83051">
        <ele>358</ele>
        <time>2022-07-15T07:00:36.000Z</time>
      </trkpt>
      <trkpt lat="49.87094" lon="4.83051">
        <ele>357</ele>
        <time>2022-07-15T07:00:37.000Z</time>
      </trkpt>
      <trkpt lat="49.87094" lon="4.83051">
        <ele>357</ele>
        <time>2022-07-15T07:00:38.000Z</time>
      </trkpt>
      <trkpt lat="49.87094" lon="4.8305">
        <ele>357</ele>
        <time>2022-07-15T07:00:39.000Z</time>
      </trkpt>
      <trkpt lat="49.87095" lon="4.8305">
        <ele>357</ele>
        <time>2022-07-15T07:00:40.000Z</time>
      </trkpt>
      <trkpt lat="49.87095" lon="4.8305">
        <ele>357</ele>
        <time>2022-07-15T07:00:41.000Z</time>
      </trkpt>
      <trkpt lat="49.87095" lon="4.8305">
        <ele>357</ele>
        <time>2022-07-15T07:00:42.000Z</time>
      </trkpt>
      <trkpt lat="49.87095" lon="4.8305">
        <ele>357</ele>
        <time>2022-07-15T07:00:43.000Z</time>
      </trkpt>
      <trkpt lat="49.87095" lon="4.8305">
        <ele>357</ele>
        <time>2022-07-15T07:00:44.000Z</time>
      </trkpt>
      <trkpt lat="49.87095" lon="4.8305">
        <ele>357</ele>
        <time>2022-07-15T07:00:45.000Z</time>
      </trkpt>
      <trkpt lat="49.87095" lon="4.8305">
        <ele>357</ele>
        <time>2022-07-15T07:00:46.000Z</time>
      </trkpt>
      <trkpt lat="49.87095" lon="4.8305">
        <ele>357</ele>
        <time>2022-07-15T07:00:47.000Z</time>
      </trkpt>
      <trkpt lat="49.87095" lon="4.8305">
        <ele>357</ele>
        <time>2022-07-15T07:00:48.000Z</time>
      </trkpt>
      <trkpt lat="49.87095" lon="4.8305">
        <ele>357</ele>
        <time>2022-07-15T07:00:49.000Z</time>
      </trkpt>
      <trkpt lat="49.87095" lon="4.83049">
        <ele>357</ele>
        <time>2022-07-15T07:00:50.000Z</time>
      </trkpt>
      <trkpt lat="49.87095" lon="4.83048">
        <ele>357</ele>
        <time>2022-07-15T07:00:51.000Z</time>
      </trkpt>
      <trkpt lat="49.87096" lon="4.83047">
        <ele>357</ele>
        <time>2022-07-15T07:00:52.000Z</time>
      </trkpt>
      <trkpt lat="49.87098" lon="4.83045">
        <ele>357</ele>
        <time>2022-07-15T07:00:53.000Z</time>
      </trkpt>
      <trkpt lat="49.871" lon="4.83042">
        <ele>357</ele>
        <time>2022-07-15T07:00:54.000Z</time>
      </trkpt>
      <trkpt lat="49.87102" lon="4.8304">
        <ele>357</ele>
        <time>2022-07-15T07:00:55.000Z</time>
      </trkpt>
      <trkpt lat="49.87104" lon="4.83037">
        <ele>356</ele>
        <time>2022-07-15T07:00:56.000Z</time>
      </trkpt>
      <trkpt lat="49.87107" lon="4.83034">
        <ele>356</ele>
        <time>2022-07-15T07:00:57.000Z</time>
      </trkpt>
      <trkpt lat="49.87109" lon="4.8303">
        <ele>356</ele>
        <time>2022-07-15T07:00:58.000Z</time>
      </trkpt>
      <trkpt lat="49.87111" lon="4.83027">
        <ele>356</ele>
        <time>2022-07-15T07:00:59.000Z</time>
      </trkpt>
      <trkpt lat="49.87113" lon="4.83023">
        <ele>356</ele>
        <time>2022-07-15T07:01:00.000Z</time>
      </trkpt>
      <trkpt lat="49.87116" lon="4.83019">
        <ele>356</ele>
        <time>2022-07-15T07:01:01.000Z</time>
      </trkpt>
      <trkpt lat="49.87119" lon="4.83015">
        <ele>356</ele>
        <time>2022-07-15T07:01:02.000Z</time>
      </trkpt>
      <trkpt lat="49.87122" lon="4.83011">
        <ele>356</ele>
        <time>2022-07-15T07:01:03.000Z</time>
      </trkpt>
      <trkpt lat="49.87125" lon="4.83007">
        <ele>356</ele>
        <time>2022-07-15T07:01:04.000Z</time>
      </trkpt>
      <trkpt lat="49.87128" lon="4.83003">
        <ele>356</ele>
        <time>2022-07-15T07:01:05.000Z</time>
      </trkpt>
      <trkpt lat="49.87131" lon="4.82999">
        <ele>356</ele>
        <time>2022-07-15T07:01:06.000Z</time>
      </trkpt>
      <trkpt lat="49.87134" lon="4.82994">
        <ele>356</ele>
        <time>2022-07-15T07:01:07.000Z</time>
      </trkpt>
      <trkpt lat="49.87138" lon="4.82989">
        <ele>356</ele>
        <time>2022-07-15T07:01:08.000Z</time>
      </trkpt>
      <trkpt lat="49.87142" lon="4.82986">
        <ele>356</ele>
        <time>2022-07-15T07:01:09.000Z</time>
      </trkpt>
      <trkpt lat="49.87145" lon="4.82981">
        <ele>356</ele>
        <time>2022-07-15T07:01:10.000Z</time>
      </trkpt>
      <trkpt lat="49.87149" lon="4.82976">
        <ele>356</ele>
        <time>2022-07-15T07:01:11.000Z</time>
      </trkpt>
      <trkpt lat="49.87154" lon="4.82971">
        <ele>356</ele>
        <time>2022-07-15T07:01:12.000Z</time>
      </trkpt>
      <trkpt lat="49.87159" lon="4.82966">
        <ele>356</ele>
        <time>2022-07-15T07:01:13.000Z</time>
      </trkpt>
      <trkpt lat="49.87163" lon="4.82961">
        <ele>356</ele>
        <time>2022-07-15T07:01:14.000Z</time>
      </trkpt>
      <trkpt lat="49.87167" lon="4.82956">
        <ele>356</ele>
        <time>2022-07-15T07:01:15.000Z</time>
      </trkpt>
      <trkpt lat="49.87171" lon="4.82952">
        <ele>356</ele>
        <time>2022-07-15T07:01:16.000Z</time>
      </trkpt>
      <trkpt lat="49.87175" lon="4.82948">
        <ele>356</ele>
        <time>2022-07-15T07:01:17.000Z</time>
      </trkpt>
      <trkpt lat="49.87179" lon="4.82943">
        <ele>356</ele>
        <time>2022-07-15T07:01:18.000Z</time>
      </trkpt>
      <trkpt lat="49.87183" lon="4.82939">
        <ele>356</ele>
        <time>2022-07-15T07:01:19.000Z</time>
      </trkpt>
      <trkpt lat="49.87187" lon="4.82935">
        <ele>356</ele>
        <time>2022-07-15T07:01:20.000Z</time>
      </trkpt>
      <trkpt lat="49.87191" lon="4.82931">
        <ele>355</ele>
        <time>2022-07-15T07:01:21.000Z</time>
      </trkpt>
      <trkpt lat="49.87195" lon="4.82926">
        <ele>355</ele>
        <time>2022-07-15T07:01:22.000Z</time>
      </trkpt>
      <trkpt lat="49.87199" lon="4.82922">
        <ele>355</ele>
        <time>2022-07-15T07:01:23.000Z</time>
      </trkpt>
      <trkpt lat="49.87203" lon="4.82917">
        <ele>355</ele>
        <time>2022-07-15T07:01:24.000Z</time>
      </trkpt>
      <trkpt lat="49.87208" lon="4.82913">
        <ele>355</ele>
        <time>2022-07-15T07:01:25.000Z</time>
      </trkpt>
      <trkpt lat="49.87212" lon="4.82908">
        <ele>354</ele>
        <time>2022-07-15T07:01:26.000Z</time>
      </trkpt>
      <trkpt lat="49.87216" lon="4.82904">
        <ele>354</ele>
        <time>2022-07-15T07:01:27.000Z</time>
      </trkpt>
      <trkpt lat="49.8722" lon="4.82901">
        <ele>354</ele>
        <time>2022-07-15T07:01:28.000Z</time>
      </trkpt>
      <trkpt lat="49.87223" lon="4.82897">
        <ele>354</ele>
        <time>2022-07-15T07:01:29.000Z</time>
      </trkpt>
      <trkpt lat="49.87226" lon="4.82893">
        <ele>353</ele>
        <time>2022-07-15T07:01:30.000Z</time>
      </trkpt>
      <trkpt lat="49.87229" lon="4.82888">
        <ele>353</ele>
        <time>2022-07-15T07:01:31.000Z</time>
      </trkpt>
      <trkpt lat="49.87233" lon="4.82883">
        <ele>352</ele>
        <time>2022-07-15T07:01:32.000Z</time>
      </trkpt>
      <trkpt lat="49.87237" lon="4.82878">
        <ele>352</ele>
        <time>2022-07-15T07:01:33.000Z</time>
      </trkpt>
      <trkpt lat="49.8724" lon="4.82873">
        <ele>351</ele>
        <time>2022-07-15T07:01:34.000Z</time>
      </trkpt>
      <trkpt lat="49.87242" lon="4.82868">
        <ele>351</ele>
        <time>2022-07-15T07:01:35.000Z</time>
      </trkpt>
      <trkpt lat="49.87244" lon="4.82863">
        <ele>351</ele>
        <time>2022-07-15T07:01:36.000Z</time>
      </trkpt>
      <trkpt lat="49.87246" lon="4.82856">
        <ele>350</ele>
        <time>2022-07-15T07:01:37.000Z</time>
      </trkpt>
      <trkpt lat="49.87248" lon="4.82849">
        <ele>350</ele>
        <time>2022-07-15T07:01:38.000Z</time>
      </trkpt>
      <trkpt lat="49.8725" lon="4.82841">
        <ele>349</ele>
        <time>2022-07-15T07:01:39.000Z</time>
      </trkpt>
      <trkpt lat="49.87252" lon="4.82834">
        <ele>349</ele>
        <time>2022-07-15T07:01:40.000Z</time>
      </trkpt>
      <trkpt lat="49.87255" lon="4.82826">
        <ele>348</ele>
        <time>2022-07-15T07:01:41.000Z</time>
      </trkpt>
      <trkpt lat="49.87258" lon="4.82819">
        <ele>348</ele>
        <time>2022-07-15T07:01:42.000Z</time>
      </trkpt>
      <trkpt lat="49.87262" lon="4.82812">
        <ele>347</ele>
        <time>2022-07-15T07:01:43.000Z</time>
      </trkpt>
      <trkpt lat="49.87266" lon="4.82805">
        <ele>347</ele>
        <time>2022-07-15T07:01:44.000Z</time>
      </trkpt>
      <trkpt lat="49.87271" lon="4.82798">
        <ele>346</ele>
        <time>2022-07-15T07:01:45.000Z</time>
      </trkpt>
      <trkpt lat="49.87275" lon="4.82791">
        <ele>346</ele>
        <time>2022-07-15T07:01:46.000Z</time>
      </trkpt>
      <trkpt lat="49.87278" lon="4.82783">
        <ele>345</ele>
        <time>2022-07-15T07:01:47.000Z</time>
      </trkpt>
      <trkpt lat="49.87281" lon="4.82774">
        <ele>344</ele>
        <time>2022-07-15T07:01:48.000Z</time>
      </trkpt>
      <trkpt lat="49.87284" lon="4.82764">
        <ele>344</ele>
        <time>2022-07-15T07:01:49.000Z</time>
      </trkpt>
      <trkpt lat="49.87286" lon="4.82754">
        <ele>343</ele>
        <time>2022-07-15T07:01:50.000Z</time>
      </trkpt>
      <trkpt lat="49.87288" lon="4.82744">
        <ele>342</ele>
        <time>2022-07-15T07:01:51.000Z</time>
      </trkpt>
      <trkpt lat="49.87289" lon="4.82737">
        <ele>341</ele>
        <time>2022-07-15T07:01:52.000Z</time>
      </trkpt>
      <trkpt lat="49.87291" lon="4.82734">
        <ele>341</ele>
        <time>2022-07-15T07:01:53.000Z</time>
      </trkpt>
      <trkpt lat="49.87292" lon="4.82732">
        <ele>340</ele>
        <time>2022-07-15T07:01:54.000Z</time>
      </trkpt>
      <trkpt lat="49.87295" lon="4.82731">
        <ele>339</ele>
        <time>2022-07-15T07:01:55.000Z</time>
      </trkpt>
      <trkpt lat="49.87298" lon="4.82731">
        <ele>339</ele>
        <time>2022-07-15T07:01:56.000Z</time>
      </trkpt>
      <trkpt lat="49.87302" lon="4.8273">
        <ele>338</ele>
        <time>2022-07-15T07:01:57.000Z</time>
      </trkpt>
      <trkpt lat="49.87304" lon="4.82729">
        <ele>337</ele>
        <time>2022-07-15T07:01:58.000Z</time>
      </trkpt>
      <trkpt lat="49.87307" lon="4.82727">
        <ele>337</ele>
        <time>2022-07-15T07:01:59.000Z</time>
      </trkpt>
      <trkpt lat="49.87309" lon="4.82724">
        <ele>336</ele>
        <time>2022-07-15T07:02:00.000Z</time>
      </trkpt>
      <trkpt lat="49.87312" lon="4.82721">
        <ele>335</ele>
        <time>2022-07-15T07:02:01.000Z</time>
      </trkpt>
      <trkpt lat="49.87315" lon="4.82717">
        <ele>335</ele>
        <time>2022-07-15T07:02:02.000Z</time>
      </trkpt>
      <trkpt lat="49.87318" lon="4.82713">
        <ele>334</ele>
        <time>2022-07-15T07:02:03.000Z</time>
      </trkpt>
      <trkpt lat="49.87321" lon="4.8271">
        <ele>334</ele>
        <time>2022-07-15T07:02:04.000Z</time>
      </trkpt>
      <trkpt lat="49.87325" lon="4.82706">
        <ele>333</ele>
        <time>2022-07-15T07:02:05.000Z</time>
      </trkpt>
      <trkpt lat="49.87328" lon="4.82703">
        <ele>333</ele>
        <time>2022-07-15T07:02:06.000Z</time>
      </trkpt>
      <trkpt lat="49.87332" lon="4.82699">
        <ele>332</ele>
        <time>2022-07-15T07:02:07.000Z</time>
      </trkpt>
      <trkpt lat="49.87335" lon="4.82695">
        <ele>332</ele>
        <time>2022-07-15T07:02:08.000Z</time>
      </trkpt>
      <trkpt lat="49.87339" lon="4.82691">
        <ele>331</ele>
        <time>2022-07-15T07:02:09.000Z</time>
      </trkpt>
      <trkpt lat="49.87342" lon="4.82687">
        <ele>331</ele>
        <time>2022-07-15T07:02:10.000Z</time>
      </trkpt>
      <trkpt lat="49.87345" lon="4.82682">
        <ele>330</ele>
        <time>2022-07-15T07:02:11.000Z</time>
      </trkpt>
      <trkpt lat="49.87348" lon="4.82678">
        <ele>330</ele>
        <time>2022-07-15T07:02:12.000Z</time>
      </trkpt>
      <trkpt lat="49.8735" lon="4.82675">
        <ele>329</ele>
        <time>2022-07-15T07:02:13.000Z</time>
      </trkpt>
      <trkpt lat="49.87352" lon="4.82672">
        <ele>329</ele>
        <time>2022-07-15T07:02:14.000Z</time>
      </trkpt>
      <trkpt lat="49.87353" lon="4.8267">
        <ele>329</ele>
        <time>2022-07-15T07:02:15.000Z</time>
      </trkpt>
      <trkpt lat="49.87354" lon="4.82668">
        <ele>328</ele>
        <time>2022-07-15T07:02:16.000Z</time>
      </trkpt>
      <trkpt lat="49.87356" lon="4.82665">
        <ele>328</ele>
        <time>2022-07-15T07:02:17.000Z</time>
      </trkpt>
      <trkpt lat="49.87358" lon="4.82664">
        <ele>327</ele>
        <time>2022-07-15T07:02:18.000Z</time>
      </trkpt>
      <trkpt lat="49.87359" lon="4.82662">
        <ele>327</ele>
        <time>2022-07-15T07:02:19.000Z</time>
      </trkpt>
      <trkpt lat="49.87361" lon="4.82661">
        <ele>326</ele>
        <time>2022-07-15T07:02:20.000Z</time>
      </trkpt>
      <trkpt lat="49.87361" lon="4.8266">
        <ele>326</ele>
        <time>2022-07-15T07:02:21.000Z</time>
      </trkpt>
      <trkpt lat="49.87361" lon="4.8266">
        <ele>326</ele>
        <time>2022-07-15T07:02:22.000Z</time>
      </trkpt>
      <trkpt lat="49.87361" lon="4.8266">
        <ele>325</ele>
        <time>2022-07-15T07:02:23.000Z</time>
      </trkpt>
      <trkpt lat="49.87361" lon="4.8266">
        <ele>325</ele>
        <time>2022-07-15T07:02:24.000Z</time>
      </trkpt>
      <trkpt lat="49.8736" lon="4.8266">
        <ele>325</ele>
        <time>2022-07-15T07:02:25.000Z</time>
      </trkpt>
      <trkpt lat="49.8736" lon="4.82659">
        <ele>325</ele>
        <time>2022-07-15T07:02:26.000Z</time>
      </trkpt>
      <trkpt lat="49.8736" lon="4.82659">
        <ele>325</ele>
        <time>2022-07-15T07:02:27.000Z</time>
      </trkpt>
      <trkpt lat="49.87361" lon="4.82659">
        <ele>324</ele>
        <time>2022-07-15T07:02:28.000Z</time>
      </trkpt>
      <trkpt lat="49.8736" lon="4.82659">
        <ele>324</ele>
        <time>2022-07-15T07:02:29.000Z</time>
      </trkpt>
      <trkpt lat="49.8736" lon="4.82659">
        <ele>324</ele>
        <time>2022-07-15T07:02:30.000Z</time>
      </trkpt>
      <trkpt lat="49.87359" lon="4.8266">
        <ele>324</ele>
        <time>2022-07-15T07:02:31.000Z</time>
      </trkpt>
      <trkpt lat="49.87359" lon="4.8266">
        <ele>324</ele>
        <time>2022-07-15T07:02:32.000Z</time>
      </trkpt>
      <trkpt lat="49.87358" lon="4.82661">
        <ele>323</ele>
        <time>2022-07-15T07:02:33.000Z</time>
      </trkpt>
      <trkpt lat="49.87358" lon="4.82661">
        <ele>323</ele>
        <time>2022-07-15T07:02:34.000Z</time>
      </trkpt>
      <trkpt lat="49.87357" lon="4.82661">
        <ele>323</ele>
        <time>2022-07-15T07:02:35.000Z</time>
      </trkpt>
      <trkpt lat="49.87356" lon="4.82662">
        <ele>323</ele>
        <time>2022-07-15T07:02:36.000Z</time>
      </trkpt>
      <trkpt lat="49.87356" lon="4.82663">
        <ele>322</ele>
        <time>2022-07-15T07:02:37.000Z</time>
      </trkpt>
      <trkpt lat="49.87355" lon="4.82665">
        <ele>322</ele>
        <time>2022-07-15T07:02:38.000Z</time>
      </trkpt>
      <trkpt lat="49.87354" lon="4.82666">
        <ele>322</ele>
        <time>2022-07-15T07:02:39.000Z</time>
      </trkpt>
      <trkpt lat="49.87354" lon="4.82667">
        <ele>322</ele>
        <time>2022-07-15T07:02:40.000Z</time>
      </trkpt>
      <trkpt lat="49.87353" lon="4.82669">
        <ele>322</ele>
        <time>2022-07-15T07:02:41.000Z</time>
      </trkpt>
      <trkpt lat="49.87353" lon="4.8267">
        <ele>322</ele>
        <time>2022-07-15T07:02:42.000Z</time>
      </trkpt>
      <trkpt lat="49.87353" lon="4.82671">
        <ele>322</ele>
        <time>2022-07-15T07:02:43.000Z</time>
      </trkpt>
      <trkpt lat="49.87352" lon="4.82672">
        <ele>322</ele>
        <time>2022-07-15T07:02:44.000Z</time>
      </trkpt>
      <trkpt lat="49.87352" lon="4.82672">
        <ele>322</ele>
        <time>2022-07-15T07:02:45.000Z</time>
      </trkpt>
      <trkpt lat="49.87352" lon="4.82672">
        <ele>322</ele>
        <time>2022-07-15T07:02:46.000Z</time>
      </trkpt>
      <trkpt lat="49.87352" lon="4.82673">
        <ele>322</ele>
        <time>2022-07-15T07:02:47.000Z</time>
      </trkpt>
      <trkpt lat="49.87353" lon="4.82673">
        <ele>322</ele>
        <time>2022-07-15T07:02:48.000Z</time>
      </trkpt>
      <trkpt lat="49.87353" lon="4.82675">
        <ele>321</ele>
        <time>2022-07-15T07:02:49.000Z</time>
      </trkpt>
      <trkpt lat="49.87353" lon="4.82676">
        <ele>321</ele>
        <time>2022-07-15T07:02:50.000Z</time>
      </trkpt>
      <trkpt lat="49.87353" lon="4.82676">
        <ele>321</ele>
        <time>2022-07-15T07:02:51.000Z</time>
      </trkpt>
      <trkpt lat="49.87354" lon="4.82677">
        <ele>321</ele>
        <time>2022-07-15T07:02:52.000Z</time>
      </trkpt>
      <trkpt lat="49.87354" lon="4.82677">
        <ele>321</ele>
        <time>2022-07-15T07:02:53.000Z</time>
      </trkpt>
      <trkpt lat="49.87354" lon="4.82677">
        <ele>321</ele>
        <time>2022-07-15T07:02:54.000Z</time>
      </trkpt>
      <trkpt lat="49.87355" lon="4.82678">
        <ele>321</ele>
        <time>2022-07-15T07:02:55.000Z</time>
      </trkpt>
      <trkpt lat="49.87356" lon="4.82679">
        <ele>321</ele>
        <time>2022-07-15T07:02:56.000Z</time>
      </trkpt>
      <trkpt lat="49.87356" lon="4.82681">
        <ele>321</ele>
        <time>2022-07-15T07:02:57.000Z</time>
      </trkpt>
      <trkpt lat="49.87357" lon="4.82683">
        <ele>321</ele>
        <time>2022-07-15T07:02:58.000Z</time>
      </trkpt>
      <trkpt lat="49.87358" lon="4.82685">
        <ele>321</ele>
        <time>2022-07-15T07:02:59.000Z</time>
      </trkpt>
      <trkpt lat="49.87359" lon="4.82688">
        <ele>321</ele>
        <time>2022-07-15T07:03:00.000Z</time>
      </trkpt>
      <trkpt lat="49.87361" lon="4.82689">
        <ele>321</ele>
        <time>2022-07-15T07:03:01.000Z</time>
      </trkpt>
      <trkpt lat="49.87363" lon="4.8269">
        <ele>321</ele>
        <time>2022-07-15T07:03:02.000Z</time>
      </trkpt>
      <trkpt lat="49.87365" lon="4.82689">
        <ele>321</ele>
        <time>2022-07-15T07:03:03.000Z</time>
      </trkpt>
      <trkpt lat="49.87368" lon="4.82689">
        <ele>321</ele>
        <time>2022-07-15T07:03:04.000Z</time>
      </trkpt>
      <trkpt lat="49.8737" lon="4.82689">
        <ele>320</ele>
        <time>2022-07-15T07:03:05.000Z</time>
      </trkpt>
      <trkpt lat="49.87373" lon="4.82689">
        <ele>320</ele>
        <time>2022-07-15T07:03:06.000Z</time>
      </trkpt>
      <trkpt lat="49.87375" lon="4.8269">
        <ele>320</ele>
        <time>2022-07-15T07:03:07.000Z</time>
      </trkpt>
      <trkpt lat="49.87377" lon="4.8269">
        <ele>320</ele>
        <time>2022-07-15T07:03:08.000Z</time>
      </trkpt>
      <trkpt lat="49.8738" lon="4.8269">
        <ele>320</ele>
        <time>2022-07-15T07:03:09.000Z</time>
      </trkpt>
      <trkpt lat="49.87384" lon="4.82689">
        <ele>320</ele>
        <time>2022-07-15T07:03:10.000Z</time>
      </trkpt>
      <trkpt lat="49.87387" lon="4.82688">
        <ele>320</ele>
        <time>2022-07-15T07:03:11.000Z</time>
      </trkpt>
      <trkpt lat="49.87391" lon="4.82687">
        <ele>320</ele>
        <time>2022-07-15T07:03:12.000Z</time>
      </trkpt>
      <trkpt lat="49.87395" lon="4.82687">
        <ele>320</ele>
        <time>2022-07-15T07:03:13.000Z</time>
      </trkpt>
      <trkpt lat="49.87399" lon="4.82686">
        <ele>320</ele>
        <time>2022-07-15T07:03:14.000Z</time>
      </trkpt>
      <trkpt lat="49.87402" lon="4.82685">
        <ele>319</ele>
        <time>2022-07-15T07:03:15.000Z</time>
      </trkpt>
      <trkpt lat="49.87404" lon="4.82684">
        <ele>319</ele>
        <time>2022-07-15T07:03:16.000Z</time>
      </trkpt>
      <trkpt lat="49.87407" lon="4.82685">
        <ele>319</ele>
        <time>2022-07-15T07:03:17.000Z</time>
      </trkpt>
      <trkpt lat="49.8741" lon="4.82684">
        <ele>318</ele>
        <time>2022-07-15T07:03:18.000Z</time>
      </trkpt>
      <trkpt lat="49.87413" lon="4.82683">
        <ele>318</ele>
        <time>2022-07-15T07:03:19.000Z</time>
      </trkpt>
      <trkpt lat="49.87417" lon="4.82683">
        <ele>318</ele>
        <time>2022-07-15T07:03:20.000Z</time>
      </trkpt>
      <trkpt lat="49.8742" lon="4.82682">
        <ele>317</ele>
        <time>2022-07-15T07:03:21.000Z</time>
      </trkpt>
      <trkpt lat="49.87424" lon="4.82681">
        <ele>317</ele>
        <time>2022-07-15T07:03:22.000Z</time>
      </trkpt>
      <trkpt lat="49.87427" lon="4.82679">
        <ele>317</ele>
        <time>2022-07-15T07:03:23.000Z</time>
      </trkpt>
      <trkpt lat="49.87431" lon="4.82678">
        <ele>316</ele>
        <time>2022-07-15T07:03:24.000Z</time>
      </trkpt>
      <trkpt lat="49.87435" lon="4.82675">
        <ele>316</ele>
        <time>2022-07-15T07:03:25.000Z</time>
      </trkpt>
      <trkpt lat="49.87438" lon="4.82673">
        <ele>316</ele>
        <time>2022-07-15T07:03:26.000Z</time>
      </trkpt>
      <trkpt lat="49.8744" lon="4.8267">
        <ele>315</ele>
        <time>2022-07-15T07:03:27.000Z</time>
      </trkpt>
      <trkpt lat="49.87441" lon="4.82665">
        <ele>315</ele>
        <time>2022-07-15T07:03:28.000Z</time>
      </trkpt>
      <trkpt lat="49.87442" lon="4.82659">
        <ele>314</ele>
        <time>2022-07-15T07:03:29.000Z</time>
      </trkpt>
      <trkpt lat="49.87444" lon="4.82653">
        <ele>314</ele>
        <time>2022-07-15T07:03:30.000Z</time>
      </trkpt>
      <trkpt lat="49.87446" lon="4.82647">
        <ele>314</ele>
        <time>2022-07-15T07:03:31.000Z</time>
      </trkpt>
      <trkpt lat="49.87448" lon="4.8264">
        <ele>313</ele>
        <time>2022-07-15T07:03:32.000Z</time>
      </trkpt>
      <trkpt lat="49.87452" lon="4.82633">
        <ele>313</ele>
        <time>2022-07-15T07:03:33.000Z</time>
      </trkpt>
      <trkpt lat="49.87455" lon="4.82629">
        <ele>312</ele>
        <time>2022-07-15T07:03:34.000Z</time>
      </trkpt>
      <trkpt lat="49.87457" lon="4.82626">
        <ele>312</ele>
        <time>2022-07-15T07:03:35.000Z</time>
      </trkpt>
      <trkpt lat="49.87458" lon="4.82625">
        <ele>311</ele>
        <time>2022-07-15T07:03:36.000Z</time>
      </trkpt>
      <trkpt lat="49.87459" lon="4.82624">
        <ele>311</ele>
        <time>2022-07-15T07:03:37.000Z</time>
      </trkpt>
      <trkpt lat="49.8746" lon="4.82622">
        <ele>311</ele>
        <time>2022-07-15T07:03:38.000Z</time>
      </trkpt>
      <trkpt lat="49.87462" lon="4.82621">
        <ele>310</ele>
        <time>2022-07-15T07:03:39.000Z</time>
      </trkpt>
      <trkpt lat="49.87464" lon="4.82618">
        <ele>310</ele>
        <time>2022-07-15T07:03:40.000Z</time>
      </trkpt>
      <trkpt lat="49.87465" lon="4.82614">
        <ele>309</ele>
        <time>2022-07-15T07:03:41.000Z</time>
      </trkpt>
      <trkpt lat="49.87466" lon="4.8261">
        <ele>309</ele>
        <time>2022-07-15T07:03:42.000Z</time>
      </trkpt>
      <trkpt lat="49.87469" lon="4.82607">
        <ele>308</ele>
        <time>2022-07-15T07:03:43.000Z</time>
      </trkpt>
      <trkpt lat="49.87471" lon="4.82605">
        <ele>308</ele>
        <time>2022-07-15T07:03:44.000Z</time>
      </trkpt>
      <trkpt lat="49.87474" lon="4.82602">
        <ele>307</ele>
        <time>2022-07-15T07:03:45.000Z</time>
      </trkpt>
      <trkpt lat="49.87476" lon="4.82597">
        <ele>307</ele>
        <time>2022-07-15T07:03:46.000Z</time>
      </trkpt>
      <trkpt lat="49.87477" lon="4.82593">
        <ele>306</ele>
        <time>2022-07-15T07:03:47.000Z</time>
      </trkpt>
      <trkpt lat="49.87479" lon="4.82588">
        <ele>306</ele>
        <time>2022-07-15T07:03:48.000Z</time>
      </trkpt>
      <trkpt lat="49.87481" lon="4.82583">
        <ele>305</ele>
        <time>2022-07-15T07:03:49.000Z</time>
      </trkpt>
      <trkpt lat="49.87482" lon="4.82577">
        <ele>305</ele>
        <time>2022-07-15T07:03:50.000Z</time>
      </trkpt>
      <trkpt lat="49.87485" lon="4.82572">
        <ele>304</ele>
        <time>2022-07-15T07:03:51.000Z</time>
      </trkpt>
      <trkpt lat="49.87488" lon="4.82566">
        <ele>303</ele>
        <time>2022-07-15T07:03:52.000Z</time>
      </trkpt>
      <trkpt lat="49.87492" lon="4.8256">
        <ele>303</ele>
        <time>2022-07-15T07:03:53.000Z</time>
      </trkpt>
      <trkpt lat="49.87495" lon="4.82554">
        <ele>302</ele>
        <time>2022-07-15T07:03:54.000Z</time>
      </trkpt>
      <trkpt lat="49.87498" lon="4.82548">
        <ele>302</ele>
        <time>2022-07-15T07:03:55.000Z</time>
      </trkpt>
      <trkpt lat="49.875" lon="4.82543">
        <ele>301</ele>
        <time>2022-07-15T07:03:56.000Z</time>
      </trkpt>
      <trkpt lat="49.87501" lon="4.82539">
        <ele>301</ele>
        <time>2022-07-15T07:03:57.000Z</time>
      </trkpt>
      <trkpt lat="49.87502" lon="4.82535">
        <ele>301</ele>
        <time>2022-07-15T07:03:58.000Z</time>
      </trkpt>
      <trkpt lat="49.87502" lon="4.82531">
        <ele>300</ele>
        <time>2022-07-15T07:03:59.000Z</time>
      </trkpt>
      <trkpt lat="49.87503" lon="4.82527">
        <ele>300</ele>
        <time>2022-07-15T07:04:00.000Z</time>
      </trkpt>
      <trkpt lat="49.87503" lon="4.82525">
        <ele>300</ele>
        <time>2022-07-15T07:04:01.000Z</time>
      </trkpt>
      <trkpt lat="49.87502" lon="4.82521">
        <ele>299</ele>
        <time>2022-07-15T07:04:02.000Z</time>
      </trkpt>
      <trkpt lat="49.87502" lon="4.82518">
        <ele>299</ele>
        <time>2022-07-15T07:04:03.000Z</time>
      </trkpt>
      <trkpt lat="49.87502" lon="4.82514">
        <ele>299</ele>
        <time>2022-07-15T07:04:04.000Z</time>
      </trkpt>
      <trkpt lat="49.87503" lon="4.82511">
        <ele>298</ele>
        <time>2022-07-15T07:04:05.000Z</time>
      </trkpt>
      <trkpt lat="49.87504" lon="4.82507">
        <ele>298</ele>
        <time>2022-07-15T07:04:06.000Z</time>
      </trkpt>
      <trkpt lat="49.87505" lon="4.82504">
        <ele>298</ele>
        <time>2022-07-15T07:04:07.000Z</time>
      </trkpt>
      <trkpt lat="49.87505" lon="4.82501">
        <ele>298</ele>
        <time>2022-07-15T07:04:08.000Z</time>
      </trkpt>
      <trkpt lat="49.87506" lon="4.82497">
        <ele>298</ele>
        <time>2022-07-15T07:04:09.000Z</time>
      </trkpt>
      <trkpt lat="49.87506" lon="4.82493">
        <ele>298</ele>
        <time>2022-07-15T07:04:10.000Z</time>
      </trkpt>
      <trkpt lat="49.87507" lon="4.8249">
        <ele>297</ele>
        <time>2022-07-15T07:04:11.000Z</time>
      </trkpt>
      <trkpt lat="49.87508" lon="4.82486">
        <ele>297</ele>
        <time>2022-07-15T07:04:12.000Z</time>
      </trkpt>
      <trkpt lat="49.8751" lon="4.82482">
        <ele>297</ele>
        <time>2022-07-15T07:04:13.000Z</time>
      </trkpt>
      <trkpt lat="49.87511" lon="4.8248">
        <ele>297</ele>
        <time>2022-07-15T07:04:14.000Z</time>
      </trkpt>
      <trkpt lat="49.87512" lon="4.82478">
        <ele>297</ele>
        <time>2022-07-15T07:04:15.000Z</time>
      </trkpt>
      <trkpt lat="49.87512" lon="4.82478">
        <ele>296</ele>
        <time>2022-07-15T07:04:16.000Z</time>
      </trkpt>
      <trkpt lat="49.87512" lon="4.82477">
        <ele>296</ele>
        <time>2022-07-15T07:04:17.000Z</time>
      </trkpt>
      <trkpt lat="49.87512" lon="4.82477">
        <ele>296</ele>
        <time>2022-07-15T07:04:18.000Z</time>
      </trkpt>
      <trkpt lat="49.87512" lon="4.82477">
        <ele>296</ele>
        <time>2022-07-15T07:04:19.000Z</time>
      </trkpt>
      <trkpt lat="49.87512" lon="4.82476">
        <ele>296</ele>
        <time>2022-07-15T07:04:20.000Z</time>
      </trkpt>
      <trkpt lat="49.87513" lon="4.82476">
        <ele>296</ele>
        <time>2022-07-15T07:04:21.000Z</time>
      </trkpt>
      <trkpt lat="49.87513" lon="4.82476">
        <ele>296</ele>
        <time>2022-07-15T07:04:22.000Z</time>
      </trkpt>
      <trkpt lat="49.87513" lon="4.82476">
        <ele>296</ele>
        <time>2022-07-15T07:04:23.000Z</time>
      </trkpt>
      <trkpt lat="49.87513" lon="4.82475">
        <ele>296</ele>
        <time>2022-07-15T07:04:24.000Z</time>
      </trkpt>
      <trkpt lat="49.87514" lon="4.82475">
        <ele>295</ele>
        <time>2022-07-15T07:04:25.000Z</time>
      </trkpt>
      <trkpt lat="49.87514" lon="4.82474">
        <ele>295</ele>
        <time>2022-07-15T07:04:26.000Z</time>
      </trkpt>
      <trkpt lat="49.87516" lon="4.82472">
        <ele>295</ele>
        <time>2022-07-15T07:04:27.000Z</time>
      </trkpt>
      <trkpt lat="49.87517" lon="4.8247">
        <ele>295</ele>
        <time>2022-07-15T07:04:28.000Z</time>
      </trkpt>
      <trkpt lat="49.87519" lon="4.82467">
        <ele>295</ele>
        <time>2022-07-15T07:04:29.000Z</time>
      </trkpt>
      <trkpt lat="49.87522" lon="4.82464">
        <ele>295</ele>
        <time>2022-07-15T07:04:30.000Z</time>
      </trkpt>
      <trkpt lat="49.87524" lon="4.82462">
        <ele>294</ele>
        <time>2022-07-15T07:04:31.000Z</time>
      </trkpt>
      <trkpt lat="49.87526" lon="4.82459">
        <ele>294</ele>
        <time>2022-07-15T07:04:32.000Z</time>
      </trkpt>
      <trkpt lat="49.87528" lon="4.82455">
        <ele>294</ele>
        <time>2022-07-15T07:04:33.000Z</time>
      </trkpt>
      <trkpt lat="49.87531" lon="4.82452">
        <ele>294</ele>
        <time>2022-07-15T07:04:34.000Z</time>
      </trkpt>
      <trkpt lat="49.87533" lon="4.82449">
        <ele>294</ele>
        <time>2022-07-15T07:04:35.000Z</time>
      </trkpt>
      <trkpt lat="49.87536" lon="4.82447">
        <ele>294</ele>
        <time>2022-07-15T07:04:36.000Z</time>
      </trkpt>
      <trkpt lat="49.87538" lon="4.82444">
        <ele>293</ele>
        <time>2022-07-15T07:04:37.000Z</time>
      </trkpt>
      <trkpt lat="49.8754" lon="4.82441">
        <ele>293</ele>
        <time>2022-07-15T07:04:38.000Z</time>
      </trkpt>
      <trkpt lat="49.87542" lon="4.82439">
        <ele>293</ele>
        <time>2022-07-15T07:04:39.000Z</time>
      </trkpt>
      <trkpt lat="49.87544" lon="4.82437">
        <ele>293</ele>
        <time>2022-07-15T07:04:40.000Z</time>
      </trkpt>
      <trkpt lat="49.87545" lon="4.82435">
        <ele>293</ele>
        <time>2022-07-15T07:04:41.000Z</time>
      </trkpt>
      <trkpt lat="49.87545" lon="4.82432">
        <ele>293</ele>
        <time>2022-07-15T07:04:42.000Z</time>
      </trkpt>
      <trkpt lat="49.87546" lon="4.82427">
        <ele>292</ele>
        <time>2022-07-15T07:04:43.000Z</time>
      </trkpt>
      <trkpt lat="49.87548" lon="4.82424">
        <ele>292</ele>
        <time>2022-07-15T07:04:44.000Z</time>
      </trkpt>
      <trkpt lat="49.8755" lon="4.82422">
        <ele>291</ele>
        <time>2022-07-15T07:04:45.000Z</time>
      </trkpt>
      <trkpt lat="49.87551" lon="4.8242">
        <ele>291</ele>
        <time>2022-07-15T07:04:46.000Z</time>
      </trkpt>
      <trkpt lat="49.87553" lon="4.82417">
        <ele>291</ele>
        <time>2022-07-15T07:04:47.000Z</time>
      </trkpt>
      <trkpt lat="49.87555" lon="4.82414">
        <ele>290</ele>
        <time>2022-07-15T07:04:48.000Z</time>
      </trkpt>
      <trkpt lat="49.87558" lon="4.82411">
        <ele>290</ele>
        <time>2022-07-15T07:04:49.000Z</time>
      </trkpt>
      <trkpt lat="49.8756" lon="4.82407">
        <ele>289</ele>
        <time>2022-07-15T07:04:50.000Z</time>
      </trkpt>
      <trkpt lat="49.87561" lon="4.82403">
        <ele>289</ele>
        <time>2022-07-15T07:04:51.000Z</time>
      </trkpt>
      <trkpt lat="49.87563" lon="4.824">
        <ele>289</ele>
        <time>2022-07-15T07:04:52.000Z</time>
      </trkpt>
      <trkpt lat="49.87564" lon="4.82397">
        <ele>288</ele>
        <time>2022-07-15T07:04:53.000Z</time>
      </trkpt>
      <trkpt lat="49.87566" lon="4.82394">
        <ele>288</ele>
        <time>2022-07-15T07:04:54.000Z</time>
      </trkpt>
      <trkpt lat="49.87568" lon="4.82391">
        <ele>287</ele>
        <time>2022-07-15T07:04:55.000Z</time>
      </trkpt>
      <trkpt lat="49.8757" lon="4.82389">
        <ele>287</ele>
        <time>2022-07-15T07:04:56.000Z</time>
      </trkpt>
      <trkpt lat="49.87572" lon="4.82388">
        <ele>287</ele>
        <time>2022-07-15T07:04:57.000Z</time>
      </trkpt>
      <trkpt lat="49.87574" lon="4.82388">
        <ele>286</ele>
        <time>2022-07-15T07:04:58.000Z</time>
      </trkpt>
      <trkpt lat="49.87577" lon="4.82386">
        <ele>286</ele>
        <time>2022-07-15T07:04:59.000Z</time>
      </trkpt>
      <trkpt lat="49.87579" lon="4.82385">
        <ele>286</ele>
        <time>2022-07-15T07:05:00.000Z</time>
      </trkpt>
      <trkpt lat="49.87581" lon="4.82384">
        <ele>286</ele>
        <time>2022-07-15T07:05:01.000Z</time>
      </trkpt>
      <trkpt lat="49.87583" lon="4.82384">
        <ele>285</ele>
        <time>2022-07-15T07:05:02.000Z</time>
      </trkpt>
      <trkpt lat="49.87585" lon="4.82384">
        <ele>285</ele>
        <time>2022-07-15T07:05:03.000Z</time>
      </trkpt>
      <trkpt lat="49.87587" lon="4.82384">
        <ele>285</ele>
        <time>2022-07-15T07:05:04.000Z</time>
      </trkpt>
      <trkpt lat="49.87588" lon="4.82384">
        <ele>285</ele>
        <time>2022-07-15T07:05:05.000Z</time>
      </trkpt>
      <trkpt lat="49.8759" lon="4.82382">
        <ele>285</ele>
        <time>2022-07-15T07:05:06.000Z</time>
      </trkpt>
      <trkpt lat="49.87591" lon="4.8238">
        <ele>284</ele>
        <time>2022-07-15T07:05:07.000Z</time>
      </trkpt>
      <trkpt lat="49.87592" lon="4.82377">
        <ele>284</ele>
        <time>2022-07-15T07:05:08.000Z</time>
      </trkpt>
      <trkpt lat="49.87594" lon="4.82373">
        <ele>284</ele>
        <time>2022-07-15T07:05:09.000Z</time>
      </trkpt>
      <trkpt lat="49.87596" lon="4.82368">
        <ele>284</ele>
        <time>2022-07-15T07:05:10.000Z</time>
      </trkpt>
      <trkpt lat="49.87598" lon="4.82364">
        <ele>284</ele>
        <time>2022-07-15T07:05:11.000Z</time>
      </trkpt>
      <trkpt lat="49.876" lon="4.82361">
        <ele>284</ele>
        <time>2022-07-15T07:05:12.000Z</time>
      </trkpt>
      <trkpt lat="49.87602" lon="4.82358">
        <ele>284</ele>
        <time>2022-07-15T07:05:13.000Z</time>
      </trkpt>
      <trkpt lat="49.87604" lon="4.82356">
        <ele>284</ele>
        <time>2022-07-15T07:05:14.000Z</time>
      </trkpt>
      <trkpt lat="49.87606" lon="4.82354">
        <ele>283</ele>
        <time>2022-07-15T07:05:15.000Z</time>
      </trkpt>
      <trkpt lat="49.87609" lon="4.82354">
        <ele>283</ele>
        <time>2022-07-15T07:05:16.000Z</time>
      </trkpt>
      <trkpt lat="49.87611" lon="4.82353">
        <ele>283</ele>
        <time>2022-07-15T07:05:17.000Z</time>
      </trkpt>
      <trkpt lat="49.87613" lon="4.82352">
        <ele>284</ele>
        <time>2022-07-15T07:05:18.000Z</time>
      </trkpt>
      <trkpt lat="49.87615" lon="4.82352">
        <ele>284</ele>
        <time>2022-07-15T07:05:19.000Z</time>
      </trkpt>
      <trkpt lat="49.87617" lon="4.82352">
        <ele>284</ele>
        <time>2022-07-15T07:05:20.000Z</time>
      </trkpt>
      <trkpt lat="49.87618" lon="4.82351">
        <ele>284</ele>
        <time>2022-07-15T07:05:21.000Z</time>
      </trkpt>
      <trkpt lat="49.8762" lon="4.82349">
        <ele>284</ele>
        <time>2022-07-15T07:05:22.000Z</time>
      </trkpt>
      <trkpt lat="49.87622" lon="4.82347">
        <ele>284</ele>
        <time>2022-07-15T07:05:23.000Z</time>
      </trkpt>
      <trkpt lat="49.87624" lon="4.82345">
        <ele>285</ele>
        <time>2022-07-15T07:05:24.000Z</time>
      </trkpt>
      <trkpt lat="49.87626" lon="4.82344">
        <ele>285</ele>
        <time>2022-07-15T07:05:25.000Z</time>
      </trkpt>
      <trkpt lat="49.87628" lon="4.82343">
        <ele>285</ele>
        <time>2022-07-15T07:05:26.000Z</time>
      </trkpt>
      <trkpt lat="49.8763" lon="4.82341">
        <ele>285</ele>
        <time>2022-07-15T07:05:27.000Z</time>
      </trkpt>
      <trkpt lat="49.87632" lon="4.8234">
        <ele>285</ele>
        <time>2022-07-15T07:05:28.000Z</time>
      </trkpt>
      <trkpt lat="49.87634" lon="4.82339">
        <ele>286</ele>
        <time>2022-07-15T07:05:29.000Z</time>
      </trkpt>
      <trkpt lat="49.87635" lon="4.82337">
        <ele>286</ele>
        <time>2022-07-15T07:05:30.000Z</time>
      </trkpt>
      <trkpt lat="49.87637" lon="4.82336">
        <ele>286</ele>
        <time>2022-07-15T07:05:31.000Z</time>
      </trkpt>
      <trkpt lat="49.87639" lon="4.82334">
        <ele>286</ele>
        <time>2022-07-15T07:05:32.000Z</time>
      </trkpt>
      <trkpt lat="49.87641" lon="4.82332">
        <ele>287</ele>
        <time>2022-07-15T07:05:33.000Z</time>
      </trkpt>
      <trkpt lat="49.87642" lon="4.82331">
        <ele>287</ele>
        <time>2022-07-15T07:05:34.000Z</time>
      </trkpt>
      <trkpt lat="49.87644" lon="4.8233">
        <ele>287</ele>
        <time>2022-07-15T07:05:35.000Z</time>
      </trkpt>
      <trkpt lat="49.87645" lon="4.82329">
        <ele>287</ele>
        <time>2022-07-15T07:05:36.000Z</time>
      </trkpt>
      <trkpt lat="49.87646" lon="4.82327">
        <ele>288</ele>
        <time>2022-07-15T07:05:37.000Z</time>
      </trkpt>
      <trkpt lat="49.87648" lon="4.82325">
        <ele>288</ele>
        <time>2022-07-15T07:05:38.000Z</time>
      </trkpt>
      <trkpt lat="49.87649" lon="4.82324">
        <ele>288</ele>
        <time>2022-07-15T07:05:39.000Z</time>
      </trkpt>
      <trkpt lat="49.8765" lon="4.82323">
        <ele>288</ele>
        <time>2022-07-15T07:05:40.000Z</time>
      </trkpt>
      <trkpt lat="49.8765" lon="4.82322">
        <ele>289</ele>
        <time>2022-07-15T07:05:41.000Z</time>
      </trkpt>
      <trkpt lat="49.87651" lon="4.82321">
        <ele>289</ele>
        <time>2022-07-15T07:05:42.000Z</time>
      </trkpt>
      <trkpt lat="49.87652" lon="4.82319">
        <ele>289</ele>
        <time>2022-07-15T07:05:43.000Z</time>
      </trkpt>
      <trkpt lat="49.87653" lon="4.82316">
        <ele>289</ele>
        <time>2022-07-15T07:05:44.000Z</time>
      </trkpt>
      <trkpt lat="49.87655" lon="4.82314">
        <ele>289</ele>
        <time>2022-07-15T07:05:45.000Z</time>
      </trkpt>
      <trkpt lat="49.87657" lon="4.8231">
        <ele>289</ele>
        <time>2022-07-15T07:05:46.000Z</time>
      </trkpt>
      <trkpt lat="49.87659" lon="4.82306">
        <ele>289</ele>
        <time>2022-07-15T07:05:47.000Z</time>
      </trkpt>
      <trkpt lat="49.87661" lon="4.82301">
        <ele>289</ele>
        <time>2022-07-15T07:05:48.000Z</time>
      </trkpt>
      <trkpt lat="49.87664" lon="4.82297">
        <ele>289</ele>
        <time>2022-07-15T07:05:49.000Z</time>
      </trkpt>
      <trkpt lat="49.87666" lon="4.82294">
        <ele>289</ele>
        <time>2022-07-15T07:05:50.000Z</time>
      </trkpt>
      <trkpt lat="49.87667" lon="4.82292">
        <ele>289</ele>
        <time>2022-07-15T07:05:51.000Z</time>
      </trkpt>
      <trkpt lat="49.87669" lon="4.82291">
        <ele>289</ele>
        <time>2022-07-15T07:05:52.000Z</time>
      </trkpt>
      <trkpt lat="49.87671" lon="4.82289">
        <ele>290</ele>
        <time>2022-07-15T07:05:53.000Z</time>
      </trkpt>
      <trkpt lat="49.87673" lon="4.82287">
        <ele>290</ele>
        <time>2022-07-15T07:05:54.000Z</time>
      </trkpt>
      <trkpt lat="49.87674" lon="4.82285">
        <ele>290</ele>
        <time>2022-07-15T07:05:55.000Z</time>
      </trkpt>
      <trkpt lat="49.87676" lon="4.82283">
        <ele>290</ele>
        <time>2022-07-15T07:05:56.000Z</time>
      </trkpt>
      <trkpt lat="49.87677" lon="4.82279">
        <ele>290</ele>
        <time>2022-07-15T07:05:57.000Z</time>
      </trkpt>
      <trkpt lat="49.87678" lon="4.82276">
        <ele>291</ele>
        <time>2022-07-15T07:05:58.000Z</time>
      </trkpt>
      <trkpt lat="49.8768" lon="4.82272">
        <ele>291</ele>
        <time>2022-07-15T07:05:59.000Z</time>
      </trkpt>
      <trkpt lat="49.87681" lon="4.82269">
        <ele>291</ele>
        <time>2022-07-15T07:06:00.000Z</time>
      </trkpt>
      <trkpt lat="49.87683" lon="4.82265">
        <ele>291</ele>
        <time>2022-07-15T07:06:01.000Z</time>
      </trkpt>
      <trkpt lat="49.87684" lon="4.82262">
        <ele>291</ele>
        <time>2022-07-15T07:06:02.000Z</time>
      </trkpt>
      <trkpt lat="49.87686" lon="4.82259">
        <ele>292</ele>
        <time>2022-07-15T07:06:03.000Z</time>
      </trkpt>
      <trkpt lat="49.87687" lon="4.82257">
        <ele>292</ele>
        <time>2022-07-15T07:06:04.000Z</time>
      </trkpt>
      <trkpt lat="49.87689" lon="4.82255">
        <ele>292</ele>
        <time>2022-07-15T07:06:05.000Z</time>
      </trkpt>
      <trkpt lat="49.87692" lon="4.82254">
        <ele>292</ele>
        <time>2022-07-15T07:06:06.000Z</time>
      </trkpt>
      <trkpt lat="49.87695" lon="4.82252">
        <ele>292</ele>
        <time>2022-07-15T07:06:07.000Z</time>
      </trkpt>
      <trkpt lat="49.87697" lon="4.82252">
        <ele>292</ele>
        <time>2022-07-15T07:06:08.000Z</time>
      </trkpt>
      <trkpt lat="49.87697" lon="4.82251">
        <ele>292</ele>
        <time>2022-07-15T07:06:09.000Z</time>
      </trkpt>
      <trkpt lat="49.87698" lon="4.82251">
        <ele>292</ele>
        <time>2022-07-15T07:06:10.000Z</time>
      </trkpt>
      <trkpt lat="49.87699" lon="4.82251">
        <ele>292</ele>
        <time>2022-07-15T07:06:11.000Z</time>
      </trkpt>
      <trkpt lat="49.87701" lon="4.82252">
        <ele>292</ele>
        <time>2022-07-15T07:06:12.000Z</time>
      </trkpt>
      <trkpt lat="49.87702" lon="4.82253">
        <ele>292</ele>
        <time>2022-07-15T07:06:13.000Z</time>
      </trkpt>
      <trkpt lat="49.87705" lon="4.82253">
        <ele>292</ele>
        <time>2022-07-15T07:06:14.000Z</time>
      </trkpt>
      <trkpt lat="49.87707" lon="4.82253">
        <ele>292</ele>
        <time>2022-07-15T07:06:15.000Z</time>
      </trkpt>
      <trkpt lat="49.87711" lon="4.82252">
        <ele>292</ele>
        <time>2022-07-15T07:06:16.000Z</time>
      </trkpt>
      <trkpt lat="49.87714" lon="4.82251">
        <ele>291</ele>
        <time>2022-07-15T07:06:17.000Z</time>
      </trkpt>
      <trkpt lat="49.87717" lon="4.82251">
        <ele>291</ele>
        <time>2022-07-15T07:06:18.000Z</time>
      </trkpt>
      <trkpt lat="49.87721" lon="4.8225">
        <ele>291</ele>
        <time>2022-07-15T07:06:19.000Z</time>
      </trkpt>
      <trkpt lat="49.87724" lon="4.8225">
        <ele>291</ele>
        <time>2022-07-15T07:06:20.000Z</time>
      </trkpt>
      <trkpt lat="49.87727" lon="4.82249">
        <ele>290</ele>
        <time>2022-07-15T07:06:21.000Z</time>
      </trkpt>
      <trkpt lat="49.87731" lon="4.82247">
        <ele>290</ele>
        <time>2022-07-15T07:06:22.000Z</time>
      </trkpt>
      <trkpt lat="49.87735" lon="4.82244">
        <ele>290</ele>
        <time>2022-07-15T07:06:23.000Z</time>
      </trkpt>
      <trkpt lat="49.87738" lon="4.82242">
        <ele>290</ele>
        <time>2022-07-15T07:06:24.000Z</time>
      </trkpt>
      <trkpt lat="49.8774" lon="4.8224">
        <ele>289</ele>
        <time>2022-07-15T07:06:25.000Z</time>
      </trkpt>
      <trkpt lat="49.87743" lon="4.82238">
        <ele>289</ele>
        <time>2022-07-15T07:06:26.000Z</time>
      </trkpt>
      <trkpt lat="49.87746" lon="4.82236">
        <ele>289</ele>
        <time>2022-07-15T07:06:27.000Z</time>
      </trkpt>
      <trkpt lat="49.87749" lon="4.82232">
        <ele>289</ele>
        <time>2022-07-15T07:06:28.000Z</time>
      </trkpt>
      <trkpt lat="49.87754" lon="4.82229">
        <ele>289</ele>
        <time>2022-07-15T07:06:29.000Z</time>
      </trkpt>
      <trkpt lat="49.87759" lon="4.82224">
        <ele>288</ele>
        <time>2022-07-15T07:06:30.000Z</time>
      </trkpt>
      <trkpt lat="49.87764" lon="4.8222">
        <ele>288</ele>
        <time>2022-07-15T07:06:31.000Z</time>
      </trkpt>
      <trkpt lat="49.87768" lon="4.82216">
        <ele>288</ele>
        <time>2022-07-15T07:06:32.000Z</time>
      </trkpt>
      <trkpt lat="49.87772" lon="4.82212">
        <ele>288</ele>
        <time>2022-07-15T07:06:33.000Z</time>
      </trkpt>
      <trkpt lat="49.87777" lon="4.82208">
        <ele>288</ele>
        <time>2022-07-15T07:06:34.000Z</time>
      </trkpt>
      <trkpt lat="49.8778" lon="4.82206">
        <ele>287</ele>
        <time>2022-07-15T07:06:35.000Z</time>
      </trkpt>
      <trkpt lat="49.87783" lon="4.82204">
        <ele>287</ele>
        <time>2022-07-15T07:06:36.000Z</time>
      </trkpt>
      <trkpt lat="49.87787" lon="4.82204">
        <ele>287</ele>
        <time>2022-07-15T07:06:37.000Z</time>
      </trkpt>
      <trkpt lat="49.8779" lon="4.82202">
        <ele>287</ele>
        <time>2022-07-15T07:06:38.000Z</time>
      </trkpt>
      <trkpt lat="49.87793" lon="4.822">
        <ele>286</ele>
        <time>2022-07-15T07:06:39.000Z</time>
      </trkpt>
      <trkpt lat="49.87796" lon="4.82197">
        <ele>286</ele>
        <time>2022-07-15T07:06:40.000Z</time>
      </trkpt>
      <trkpt lat="49.87798" lon="4.82193">
        <ele>286</ele>
        <time>2022-07-15T07:06:41.000Z</time>
      </trkpt>
      <trkpt lat="49.87801" lon="4.8219">
        <ele>286</ele>
        <time>2022-07-15T07:06:42.000Z</time>
      </trkpt>
      <trkpt lat="49.87803" lon="4.82188">
        <ele>286</ele>
        <time>2022-07-15T07:06:43.000Z</time>
      </trkpt>
      <trkpt lat="49.87806" lon="4.82189">
        <ele>285</ele>
        <time>2022-07-15T07:06:44.000Z</time>
      </trkpt>
      <trkpt lat="49.87809" lon="4.8219">
        <ele>285</ele>
        <time>2022-07-15T07:06:45.000Z</time>
      </trkpt>
      <trkpt lat="49.87811" lon="4.82191">
        <ele>285</ele>
        <time>2022-07-15T07:06:46.000Z</time>
      </trkpt>
      <trkpt lat="49.87813" lon="4.82192">
        <ele>284</ele>
        <time>2022-07-15T07:06:47.000Z</time>
      </trkpt>
      <trkpt lat="49.87815" lon="4.82192">
        <ele>284</ele>
        <time>2022-07-15T07:06:48.000Z</time>
      </trkpt>
      <trkpt lat="49.87817" lon="4.82189">
        <ele>284</ele>
        <time>2022-07-15T07:06:49.000Z</time>
      </trkpt>
      <trkpt lat="49.87819" lon="4.82187">
        <ele>283</ele>
        <time>2022-07-15T07:06:50.000Z</time>
      </trkpt>
      <trkpt lat="49.87821" lon="4.82184">
        <ele>283</ele>
        <time>2022-07-15T07:06:51.000Z</time>
      </trkpt>
      <trkpt lat="49.87822" lon="4.8218">
        <ele>283</ele>
        <time>2022-07-15T07:06:52.000Z</time>
      </trkpt>
      <trkpt lat="49.87824" lon="4.82177">
        <ele>283</ele>
        <time>2022-07-15T07:06:53.000Z</time>
      </trkpt>
      <trkpt lat="49.87826" lon="4.82174">
        <ele>283</ele>
        <time>2022-07-15T07:06:54.000Z</time>
      </trkpt>
      <trkpt lat="49.87828" lon="4.82173">
        <ele>283</ele>
        <time>2022-07-15T07:06:55.000Z</time>
      </trkpt>
      <trkpt lat="49.8783" lon="4.82171">
        <ele>282</ele>
        <time>2022-07-15T07:06:56.000Z</time>
      </trkpt>
      <trkpt lat="49.87832" lon="4.8217">
        <ele>282</ele>
        <time>2022-07-15T07:06:57.000Z</time>
      </trkpt>
      <trkpt lat="49.87834" lon="4.82168">
        <ele>282</ele>
        <time>2022-07-15T07:06:58.000Z</time>
      </trkpt>
      <trkpt lat="49.87836" lon="4.82167">
        <ele>282</ele>
        <time>2022-07-15T07:06:59.000Z</time>
      </trkpt>
      <trkpt lat="49.87838" lon="4.82166">
        <ele>281</ele>
        <time>2022-07-15T07:07:00.000Z</time>
      </trkpt>
      <trkpt lat="49.8784" lon="4.82165">
        <ele>281</ele>
        <time>2022-07-15T07:07:01.000Z</time>
      </trkpt>
      <trkpt lat="49.87841" lon="4.82164">
        <ele>281</ele>
        <time>2022-07-15T07:07:02.000Z</time>
      </trkpt>
      <trkpt lat="49.87843" lon="4.82162">
        <ele>281</ele>
        <time>2022-07-15T07:07:03.000Z</time>
      </trkpt>
      <trkpt lat="49.87845" lon="4.82159">
        <ele>280</ele>
        <time>2022-07-15T07:07:04.000Z</time>
      </trkpt>
      <trkpt lat="49.87848" lon="4.82157">
        <ele>280</ele>
        <time>2022-07-15T07:07:05.000Z</time>
      </trkpt>
      <trkpt lat="49.8785" lon="4.82155">
        <ele>280</ele>
        <time>2022-07-15T07:07:06.000Z</time>
      </trkpt>
      <trkpt lat="49.87852" lon="4.82153">
        <ele>280</ele>
        <time>2022-07-15T07:07:07.000Z</time>
      </trkpt>
      <trkpt lat="49.87854" lon="4.82152">
        <ele>280</ele>
        <time>2022-07-15T07:07:08.000Z</time>
      </trkpt>
      <trkpt lat="49.87854" lon="4.8215">
        <ele>280</ele>
        <time>2022-07-15T07:07:09.000Z</time>
      </trkpt>
      <trkpt lat="49.87855" lon="4.82148">
        <ele>279</ele>
        <time>2022-07-15T07:07:10.000Z</time>
      </trkpt>
      <trkpt lat="49.87857" lon="4.82145">
        <ele>279</ele>
        <time>2022-07-15T07:07:11.000Z</time>
      </trkpt>
      <trkpt lat="49.87858" lon="4.82142">
        <ele>279</ele>
        <time>2022-07-15T07:07:12.000Z</time>
      </trkpt>
      <trkpt lat="49.8786" lon="4.82138">
        <ele>279</ele>
        <time>2022-07-15T07:07:13.000Z</time>
      </trkpt>
      <trkpt lat="49.87863" lon="4.82135">
        <ele>279</ele>
        <time>2022-07-15T07:07:14.000Z</time>
      </trkpt>
      <trkpt lat="49.87866" lon="4.82131">
        <ele>279</ele>
        <time>2022-07-15T07:07:15.000Z</time>
      </trkpt>
      <trkpt lat="49.8787" lon="4.82128">
        <ele>279</ele>
        <time>2022-07-15T07:07:16.000Z</time>
      </trkpt>
      <trkpt lat="49.87873" lon="4.82126">
        <ele>279</ele>
        <time>2022-07-15T07:07:17.000Z</time>
      </trkpt>
      <trkpt lat="49.87876" lon="4.82123">
        <ele>279</ele>
        <time>2022-07-15T07:07:18.000Z</time>
      </trkpt>
      <trkpt lat="49.87879" lon="4.82121">
        <ele>279</ele>
        <time>2022-07-15T07:07:19.000Z</time>
      </trkpt>
      <trkpt lat="49.8788" lon="4.8212">
        <ele>279</ele>
        <time>2022-07-15T07:07:20.000Z</time>
      </trkpt>
      <trkpt lat="49.87881" lon="4.82119">
        <ele>279</ele>
        <time>2022-07-15T07:07:21.000Z</time>
      </trkpt>
      <trkpt lat="49.87881" lon="4.82118">
        <ele>278</ele>
        <time>2022-07-15T07:07:22.000Z</time>
      </trkpt>
      <trkpt lat="49.87882" lon="4.82117">
        <ele>278</ele>
        <time>2022-07-15T07:07:23.000Z</time>
      </trkpt>
      <trkpt lat="49.87882" lon="4.82116">
        <ele>278</ele>
        <time>2022-07-15T07:07:24.000Z</time>
      </trkpt>
      <trkpt lat="49.87884" lon="4.82114">
        <ele>278</ele>
        <time>2022-07-15T07:07:25.000Z</time>
      </trkpt>
      <trkpt lat="49.87886" lon="4.82112">
        <ele>278</ele>
        <time>2022-07-15T07:07:26.000Z</time>
      </trkpt>
      <trkpt lat="49.87888" lon="4.8211">
        <ele>278</ele>
        <time>2022-07-15T07:07:27.000Z</time>
      </trkpt>
      <trkpt lat="49.87891" lon="4.82107">
        <ele>278</ele>
        <time>2022-07-15T07:07:28.000Z</time>
      </trkpt>
      <trkpt lat="49.87894" lon="4.82105">
        <ele>278</ele>
        <time>2022-07-15T07:07:29.000Z</time>
      </trkpt>
      <trkpt lat="49.87897" lon="4.82103">
        <ele>278</ele>
        <time>2022-07-15T07:07:30.000Z</time>
      </trkpt>
      <trkpt lat="49.879" lon="4.821">
        <ele>278</ele>
        <time>2022-07-15T07:07:31.000Z</time>
      </trkpt>
      <trkpt lat="49.87904" lon="4.82097">
        <ele>278</ele>
        <time>2022-07-15T07:07:32.000Z</time>
      </trkpt>
      <trkpt lat="49.87907" lon="4.82093">
        <ele>278</ele>
        <time>2022-07-15T07:07:33.000Z</time>
      </trkpt>
      <trkpt lat="49.8791" lon="4.82089">
        <ele>278</ele>
        <time>2022-07-15T07:07:34.000Z</time>
      </trkpt>
      <trkpt lat="49.87913" lon="4.82086">
        <ele>278</ele>
        <time>2022-07-15T07:07:35.000Z</time>
      </trkpt>
      <trkpt lat="49.87916" lon="4.82083">
        <ele>278</ele>
        <time>2022-07-15T07:07:36.000Z</time>
      </trkpt>
      <trkpt lat="49.87919" lon="4.8208">
        <ele>278</ele>
        <time>2022-07-15T07:07:37.000Z</time>
      </trkpt>
      <trkpt lat="49.87923" lon="4.82076">
        <ele>278</ele>
        <time>2022-07-15T07:07:38.000Z</time>
      </trkpt>
      <trkpt lat="49.87925" lon="4.82073">
        <ele>278</ele>
        <time>2022-07-15T07:07:39.000Z</time>
      </trkpt>
      <trkpt lat="49.87928" lon="4.82068">
        <ele>278</ele>
        <time>2022-07-15T07:07:40.000Z</time>
      </trkpt>
      <trkpt lat="49.8793" lon="4.82064">
        <ele>278</ele>
        <time>2022-07-15T07:07:41.000Z</time>
      </trkpt>
      <trkpt lat="49.87932" lon="4.82059">
        <ele>278</ele>
        <time>2022-07-15T07:07:42.000Z</time>
      </trkpt>
      <trkpt lat="49.87935" lon="4.82054">
        <ele>278</ele>
        <time>2022-07-15T07:07:43.000Z</time>
      </trkpt>
      <trkpt lat="49.87936" lon="4.8205">
        <ele>278</ele>
        <time>2022-07-15T07:07:44.000Z</time>
      </trkpt>
      <trkpt lat="49.87937" lon="4.82045">
        <ele>278</ele>
        <time>2022-07-15T07:07:45.000Z</time>
      </trkpt>
      <trkpt lat="49.87939" lon="4.82041">
        <ele>278</ele>
        <time>2022-07-15T07:07:46.000Z</time>
      </trkpt>
      <trkpt lat="49.8794" lon="4.82036">
        <ele>278</ele>
        <time>2022-07-15T07:07:47.000Z</time>
      </trkpt>
      <trkpt lat="49.87941" lon="4.82031">
        <ele>278</ele>
        <time>2022-07-15T07:07:48.000Z</time>
      </trkpt>
      <trkpt lat="49.87943" lon="4.82026">
        <ele>279</ele>
        <time>2022-07-15T07:07:49.000Z</time>
      </trkpt>
      <trkpt lat="49.87946" lon="4.82022">
        <ele>279</ele>
        <time>2022-07-15T07:07:50.000Z</time>
      </trkpt>
      <trkpt lat="49.87949" lon="4.82019">
        <ele>279</ele>
        <time>2022-07-15T07:07:51.000Z</time>
      </trkpt>
      <trkpt lat="49.87952" lon="4.82016">
        <ele>278</ele>
        <time>2022-07-15T07:07:52.000Z</time>
      </trkpt>
      <trkpt lat="49.87955" lon="4.82015">
        <ele>278</ele>
        <time>2022-07-15T07:07:53.000Z</time>
      </trkpt>
      <trkpt lat="49.87957" lon="4.82013">
        <ele>278</ele>
        <time>2022-07-15T07:07:54.000Z</time>
      </trkpt>
      <trkpt lat="49.87961" lon="4.8201">
        <ele>278</ele>
        <time>2022-07-15T07:07:55.000Z</time>
      </trkpt>
      <trkpt lat="49.87963" lon="4.82008">
        <ele>278</ele>
        <time>2022-07-15T07:07:56.000Z</time>
      </trkpt>
      <trkpt lat="49.87966" lon="4.82005">
        <ele>278</ele>
        <time>2022-07-15T07:07:57.000Z</time>
      </trkpt>
      <trkpt lat="49.87969" lon="4.82002">
        <ele>278</ele>
        <time>2022-07-15T07:07:58.000Z</time>
      </trkpt>
      <trkpt lat="49.87972" lon="4.82">
        <ele>277</ele>
        <time>2022-07-15T07:07:59.000Z</time>
      </trkpt>
      <trkpt lat="49.87974" lon="4.81998">
        <ele>277</ele>
        <time>2022-07-15T07:08:00.000Z</time>
      </trkpt>
      <trkpt lat="49.87976" lon="4.81996">
        <ele>277</ele>
        <time>2022-07-15T07:08:01.000Z</time>
      </trkpt>
      <trkpt lat="49.87977" lon="4.81994">
        <ele>277</ele>
        <time>2022-07-15T07:08:02.000Z</time>
      </trkpt>
      <trkpt lat="49.87978" lon="4.81991">
        <ele>277</ele>
        <time>2022-07-15T07:08:03.000Z</time>
      </trkpt>
      <trkpt lat="49.87981" lon="4.81988">
        <ele>276</ele>
        <time>2022-07-15T07:08:04.000Z</time>
      </trkpt>
      <trkpt lat="49.87983" lon="4.81985">
        <ele>276</ele>
        <time>2022-07-15T07:08:05.000Z</time>
      </trkpt>
      <trkpt lat="49.87984" lon="4.81981">
        <ele>276</ele>
        <time>2022-07-15T07:08:06.000Z</time>
      </trkpt>
      <trkpt lat="49.87985" lon="4.81979">
        <ele>276</ele>
        <time>2022-07-15T07:08:07.000Z</time>
      </trkpt>
      <trkpt lat="49.87985" lon="4.81978">
        <ele>276</ele>
        <time>2022-07-15T07:08:08.000Z</time>
      </trkpt>
      <trkpt lat="49.87986" lon="4.81978">
        <ele>276</ele>
        <time>2022-07-15T07:08:09.000Z</time>
      </trkpt>
      <trkpt lat="49.87987" lon="4.81976">
        <ele>276</ele>
        <time>2022-07-15T07:08:10.000Z</time>
      </trkpt>
      <trkpt lat="49.87988" lon="4.81974">
        <ele>275</ele>
        <time>2022-07-15T07:08:11.000Z</time>
      </trkpt>
      <trkpt lat="49.8799" lon="4.81972">
        <ele>275</ele>
        <time>2022-07-15T07:08:12.000Z</time>
      </trkpt>
      <trkpt lat="49.87992" lon="4.81969">
        <ele>275</ele>
        <time>2022-07-15T07:08:13.000Z</time>
      </trkpt>
      <trkpt lat="49.87993" lon="4.81967">
        <ele>275</ele>
        <time>2022-07-15T07:08:14.000Z</time>
      </trkpt>
      <trkpt lat="49.87995" lon="4.81964">
        <ele>275</ele>
        <time>2022-07-15T07:08:15.000Z</time>
      </trkpt>
      <trkpt lat="49.87997" lon="4.81961">
        <ele>274</ele>
        <time>2022-07-15T07:08:16.000Z</time>
      </trkpt>
      <trkpt lat="49.87999" lon="4.81959">
        <ele>274</ele>
        <time>2022-07-15T07:08:17.000Z</time>
      </trkpt>
      <trkpt lat="49.88001" lon="4.81957">
        <ele>274</ele>
        <time>2022-07-15T07:08:18.000Z</time>
      </trkpt>
      <trkpt lat="49.88004" lon="4.81955">
        <ele>273</ele>
        <time>2022-07-15T07:08:19.000Z</time>
      </trkpt>
      <trkpt lat="49.88005" lon="4.81953">
        <ele>273</ele>
        <time>2022-07-15T07:08:20.000Z</time>
      </trkpt>
      <trkpt lat="49.88006" lon="4.8195">
        <ele>273</ele>
        <time>2022-07-15T07:08:21.000Z</time>
      </trkpt>
      <trkpt lat="49.88007" lon="4.81947">
        <ele>272</ele>
        <time>2022-07-15T07:08:22.000Z</time>
      </trkpt>
      <trkpt lat="49.88008" lon="4.81944">
        <ele>272</ele>
        <time>2022-07-15T07:08:23.000Z</time>
      </trkpt>
      <trkpt lat="49.88009" lon="4.81941">
        <ele>272</ele>
        <time>2022-07-15T07:08:24.000Z</time>
      </trkpt>
      <trkpt lat="49.88012" lon="4.81938">
        <ele>271</ele>
        <time>2022-07-15T07:08:25.000Z</time>
      </trkpt>
      <trkpt lat="49.88015" lon="4.81935">
        <ele>271</ele>
        <time>2022-07-15T07:08:26.000Z</time>
      </trkpt>
      <trkpt lat="49.88018" lon="4.81932">
        <ele>271</ele>
        <time>2022-07-15T07:08:27.000Z</time>
      </trkpt>
      <trkpt lat="49.88021" lon="4.81928">
        <ele>271</ele>
        <time>2022-07-15T07:08:28.000Z</time>
      </trkpt>
      <trkpt lat="49.88024" lon="4.81925">
        <ele>270</ele>
        <time>2022-07-15T07:08:29.000Z</time>
      </trkpt>
      <trkpt lat="49.88026" lon="4.81922">
        <ele>270</ele>
        <time>2022-07-15T07:08:30.000Z</time>
      </trkpt>
      <trkpt lat="49.88028" lon="4.81919">
        <ele>269</ele>
        <time>2022-07-15T07:08:31.000Z</time>
      </trkpt>
      <trkpt lat="49.88031" lon="4.81916">
        <ele>269</ele>
        <time>2022-07-15T07:08:32.000Z</time>
      </trkpt>
      <trkpt lat="49.88033" lon="4.81913">
        <ele>269</ele>
        <time>2022-07-15T07:08:33.000Z</time>
      </trkpt>
      <trkpt lat="49.88035" lon="4.8191">
        <ele>268</ele>
        <time>2022-07-15T07:08:34.000Z</time>
      </trkpt>
      <trkpt lat="49.88037" lon="4.81907">
        <ele>268</ele>
        <time>2022-07-15T07:08:35.000Z</time>
      </trkpt>
      <trkpt lat="49.88038" lon="4.81903">
        <ele>268</ele>
        <time>2022-07-15T07:08:36.000Z</time>
      </trkpt>
      <trkpt lat="49.8804" lon="4.81901">
        <ele>267</ele>
        <time>2022-07-15T07:08:37.000Z</time>
      </trkpt>
      <trkpt lat="49.88041" lon="4.81898">
        <ele>267</ele>
        <time>2022-07-15T07:08:38.000Z</time>
      </trkpt>
      <trkpt lat="49.88043" lon="4.81895">
        <ele>267</ele>
        <time>2022-07-15T07:08:39.000Z</time>
      </trkpt>
      <trkpt lat="49.88046" lon="4.81892">
        <ele>266</ele>
        <time>2022-07-15T07:08:40.000Z</time>
      </trkpt>
      <trkpt lat="49.88047" lon="4.81889">
        <ele>266</ele>
        <time>2022-07-15T07:08:41.000Z</time>
      </trkpt>
      <trkpt lat="49.8805" lon="4.81886">
        <ele>266</ele>
        <time>2022-07-15T07:08:42.000Z</time>
      </trkpt>
      <trkpt lat="49.88051" lon="4.81882">
        <ele>265</ele>
        <time>2022-07-15T07:08:43.000Z</time>
      </trkpt>
      <trkpt lat="49.88052" lon="4.81877">
        <ele>265</ele>
        <time>2022-07-15T07:08:44.000Z</time>
      </trkpt>
      <trkpt lat="49.88054" lon="4.81872">
        <ele>265</ele>
        <time>2022-07-15T07:08:45.000Z</time>
      </trkpt>
      <trkpt lat="49.88056" lon="4.81868">
        <ele>265</ele>
        <time>2022-07-15T07:08:46.000Z</time>
      </trkpt>
      <trkpt lat="49.88058" lon="4.81866">
        <ele>265</ele>
        <time>2022-07-15T07:08:47.000Z</time>
      </trkpt>
      <trkpt lat="49.8806" lon="4.81866">
        <ele>265</ele>
        <time>2022-07-15T07:08:48.000Z</time>
      </trkpt>
      <trkpt lat="49.88062" lon="4.81867">
        <ele>264</ele>
        <time>2022-07-15T07:08:49.000Z</time>
      </trkpt>
      <trkpt lat="49.88064" lon="4.81869">
        <ele>264</ele>
        <time>2022-07-15T07:08:50.000Z</time>
      </trkpt>
      <trkpt lat="49.88066" lon="4.8187">
        <ele>264</ele>
        <time>2022-07-15T07:08:51.000Z</time>
      </trkpt>
      <trkpt lat="49.88068" lon="4.81871">
        <ele>264</ele>
        <time>2022-07-15T07:08:52.000Z</time>
      </trkpt>
      <trkpt lat="49.88072" lon="4.81872">
        <ele>264</ele>
        <time>2022-07-15T07:08:53.000Z</time>
      </trkpt>
      <trkpt lat="49.88076" lon="4.81872">
        <ele>263</ele>
        <time>2022-07-15T07:08:54.000Z</time>
      </trkpt>
      <trkpt lat="49.88079" lon="4.81873">
        <ele>263</ele>
        <time>2022-07-15T07:08:55.000Z</time>
      </trkpt>
      <trkpt lat="49.88082" lon="4.81873">
        <ele>263</ele>
        <time>2022-07-15T07:08:56.000Z</time>
      </trkpt>
      <trkpt lat="49.88085" lon="4.81872">
        <ele>263</ele>
        <time>2022-07-15T07:08:57.000Z</time>
      </trkpt>
      <trkpt lat="49.88089" lon="4.81871">
        <ele>262</ele>
        <time>2022-07-15T07:08:58.000Z</time>
      </trkpt>
      <trkpt lat="49.88092" lon="4.81868">
        <ele>262</ele>
        <time>2022-07-15T07:08:59.000Z</time>
      </trkpt>
      <trkpt lat="49.88096" lon="4.81865">
        <ele>262</ele>
        <time>2022-07-15T07:09:00.000Z</time>
      </trkpt>
      <trkpt lat="49.88099" lon="4.81862">
        <ele>261</ele>
        <time>2022-07-15T07:09:01.000Z</time>
      </trkpt>
      <trkpt lat="49.88103" lon="4.81859">
        <ele>261</ele>
        <time>2022-07-15T07:09:02.000Z</time>
      </trkpt>
      <trkpt lat="49.88106" lon="4.81855">
        <ele>261</ele>
        <time>2022-07-15T07:09:03.000Z</time>
      </trkpt>
      <trkpt lat="49.88109" lon="4.81852">
        <ele>261</ele>
        <time>2022-07-15T07:09:04.000Z</time>
      </trkpt>
      <trkpt lat="49.88111" lon="4.81849">
        <ele>260</ele>
        <time>2022-07-15T07:09:05.000Z</time>
      </trkpt>
      <trkpt lat="49.88114" lon="4.81845">
        <ele>260</ele>
        <time>2022-07-15T07:09:06.000Z</time>
      </trkpt>
      <trkpt lat="49.88115" lon="4.81842">
        <ele>260</ele>
        <time>2022-07-15T07:09:07.000Z</time>
      </trkpt>
      <trkpt lat="49.88116" lon="4.81838">
        <ele>259</ele>
        <time>2022-07-15T07:09:08.000Z</time>
      </trkpt>
      <trkpt lat="49.88116" lon="4.81835">
        <ele>259</ele>
        <time>2022-07-15T07:09:09.000Z</time>
      </trkpt>
      <trkpt lat="49.88116" lon="4.81832">
        <ele>259</ele>
        <time>2022-07-15T07:09:10.000Z</time>
      </trkpt>
      <trkpt lat="49.88115" lon="4.81827">
        <ele>259</ele>
        <time>2022-07-15T07:09:11.000Z</time>
      </trkpt>
      <trkpt lat="49.88115" lon="4.81823">
        <ele>258</ele>
        <time>2022-07-15T07:09:12.000Z</time>
      </trkpt>
      <trkpt lat="49.88115" lon="4.81818">
        <ele>258</ele>
        <time>2022-07-15T07:09:13.000Z</time>
      </trkpt>
      <trkpt lat="49.88116" lon="4.81814">
        <ele>258</ele>
        <time>2022-07-15T07:09:14.000Z</time>
      </trkpt>
      <trkpt lat="49.88117" lon="4.81809">
        <ele>258</ele>
        <time>2022-07-15T07:09:15.000Z</time>
      </trkpt>
      <trkpt lat="49.88118" lon="4.81805">
        <ele>258</ele>
        <time>2022-07-15T07:09:16.000Z</time>
      </trkpt>
      <trkpt lat="49.88119" lon="4.81799">
        <ele>258</ele>
        <time>2022-07-15T07:09:17.000Z</time>
      </trkpt>
      <trkpt lat="49.88121" lon="4.81795">
        <ele>259</ele>
        <time>2022-07-15T07:09:18.000Z</time>
      </trkpt>
      <trkpt lat="49.88123" lon="4.81792">
        <ele>259</ele>
        <time>2022-07-15T07:09:19.000Z</time>
      </trkpt>
      <trkpt lat="49.88126" lon="4.81789">
        <ele>258</ele>
        <time>2022-07-15T07:09:20.000Z</time>
      </trkpt>
      <trkpt lat="49.88129" lon="4.81785">
        <ele>258</ele>
        <time>2022-07-15T07:09:21.000Z</time>
      </trkpt>
      <trkpt lat="49.88131" lon="4.81782">
        <ele>258</ele>
        <time>2022-07-15T07:09:22.000Z</time>
      </trkpt>
      <trkpt lat="49.88133" lon="4.81779">
        <ele>258</ele>
        <time>2022-07-15T07:09:23.000Z</time>
      </trkpt>
      <trkpt lat="49.88135" lon="4.81776">
        <ele>258</ele>
        <time>2022-07-15T07:09:24.000Z</time>
      </trkpt>
      <trkpt lat="49.88137" lon="4.81773">
        <ele>258</ele>
        <time>2022-07-15T07:09:25.000Z</time>
      </trkpt>
      <trkpt lat="49.88139" lon="4.81771">
        <ele>258</ele>
        <time>2022-07-15T07:09:26.000Z</time>
      </trkpt>
      <trkpt lat="49.88142" lon="4.81769">
        <ele>258</ele>
        <time>2022-07-15T07:09:27.000Z</time>
      </trkpt>
      <trkpt lat="49.88144" lon="4.81768">
        <ele>258</ele>
        <time>2022-07-15T07:09:28.000Z</time>
      </trkpt>
      <trkpt lat="49.88148" lon="4.81766">
        <ele>258</ele>
        <time>2022-07-15T07:09:29.000Z</time>
      </trkpt>
      <trkpt lat="49.88151" lon="4.81764">
        <ele>258</ele>
        <time>2022-07-15T07:09:30.000Z</time>
      </trkpt>
      <trkpt lat="49.88154" lon="4.81763">
        <ele>258</ele>
        <time>2022-07-15T07:09:31.000Z</time>
      </trkpt>
      <trkpt lat="49.88156" lon="4.81761">
        <ele>258</ele>
        <time>2022-07-15T07:09:32.000Z</time>
      </trkpt>
      <trkpt lat="49.88159" lon="4.81759">
        <ele>258</ele>
        <time>2022-07-15T07:09:33.000Z</time>
      </trkpt>
      <trkpt lat="49.88163" lon="4.81758">
        <ele>258</ele>
        <time>2022-07-15T07:09:34.000Z</time>
      </trkpt>
      <trkpt lat="49.88166" lon="4.81757">
        <ele>258</ele>
        <time>2022-07-15T07:09:35.000Z</time>
      </trkpt>
      <trkpt lat="49.88169" lon="4.81757">
        <ele>258</ele>
        <time>2022-07-15T07:09:36.000Z</time>
      </trkpt>
      <trkpt lat="49.88172" lon="4.81757">
        <ele>258</ele>
        <time>2022-07-15T07:09:37.000Z</time>
      </trkpt>
      <trkpt lat="49.88176" lon="4.81756">
        <ele>257</ele>
        <time>2022-07-15T07:09:38.000Z</time>
      </trkpt>
      <trkpt lat="49.88179" lon="4.81755">
        <ele>257</ele>
        <time>2022-07-15T07:09:39.000Z</time>
      </trkpt>
      <trkpt lat="49.88183" lon="4.81753">
        <ele>257</ele>
        <time>2022-07-15T07:09:40.000Z</time>
      </trkpt>
      <trkpt lat="49.88187" lon="4.8175">
        <ele>257</ele>
        <time>2022-07-15T07:09:41.000Z</time>
      </trkpt>
      <trkpt lat="49.88191" lon="4.81747">
        <ele>257</ele>
        <time>2022-07-15T07:09:42.000Z</time>
      </trkpt>
      <trkpt lat="49.88194" lon="4.81745">
        <ele>256</ele>
        <time>2022-07-15T07:09:43.000Z</time>
      </trkpt>
      <trkpt lat="49.88198" lon="4.81743">
        <ele>256</ele>
        <time>2022-07-15T07:09:44.000Z</time>
      </trkpt>
      <trkpt lat="49.88202" lon="4.81742">
        <ele>256</ele>
        <time>2022-07-15T07:09:45.000Z</time>
      </trkpt>
      <trkpt lat="49.88205" lon="4.81739">
        <ele>256</ele>
        <time>2022-07-15T07:09:46.000Z</time>
      </trkpt>
      <trkpt lat="49.88208" lon="4.81735">
        <ele>256</ele>
        <time>2022-07-15T07:09:47.000Z</time>
      </trkpt>
      <trkpt lat="49.88213" lon="4.81733">
        <ele>256</ele>
        <time>2022-07-15T07:09:48.000Z</time>
      </trkpt>
      <trkpt lat="49.88217" lon="4.81731">
        <ele>256</ele>
        <time>2022-07-15T07:09:49.000Z</time>
      </trkpt>
      <trkpt lat="49.88222" lon="4.81727">
        <ele>256</ele>
        <time>2022-07-15T07:09:50.000Z</time>
      </trkpt>
      <trkpt lat="49.88228" lon="4.81723">
        <ele>255</ele>
        <time>2022-07-15T07:09:51.000Z</time>
      </trkpt>
      <trkpt lat="49.88233" lon="4.81719">
        <ele>255</ele>
        <time>2022-07-15T07:09:52.000Z</time>
      </trkpt>
      <trkpt lat="49.88237" lon="4.81716">
        <ele>255</ele>
        <time>2022-07-15T07:09:53.000Z</time>
      </trkpt>
      <trkpt lat="49.88241" lon="4.81713">
        <ele>255</ele>
        <time>2022-07-15T07:09:54.000Z</time>
      </trkpt>
      <trkpt lat="49.88245" lon="4.81711">
        <ele>255</ele>
        <time>2022-07-15T07:09:55.000Z</time>
      </trkpt>
      <trkpt lat="49.88249" lon="4.81708">
        <ele>255</ele>
        <time>2022-07-15T07:09:56.000Z</time>
      </trkpt>
      <trkpt lat="49.88252" lon="4.81705">
        <ele>254</ele>
        <time>2022-07-15T07:09:57.000Z</time>
      </trkpt>
      <trkpt lat="49.88256" lon="4.81702">
        <ele>254</ele>
        <time>2022-07-15T07:09:58.000Z</time>
      </trkpt>
      <trkpt lat="49.8826" lon="4.817">
        <ele>254</ele>
        <time>2022-07-15T07:09:59.000Z</time>
      </trkpt>
      <trkpt lat="49.88264" lon="4.81698">
        <ele>254</ele>
        <time>2022-07-15T07:10:00.000Z</time>
      </trkpt>
      <trkpt lat="49.88268" lon="4.81695">
        <ele>253</ele>
        <time>2022-07-15T07:10:01.000Z</time>
      </trkpt>
      <trkpt lat="49.88272" lon="4.81693">
        <ele>253</ele>
        <time>2022-07-15T07:10:02.000Z</time>
      </trkpt>
      <trkpt lat="49.88276" lon="4.81692">
        <ele>253</ele>
        <time>2022-07-15T07:10:03.000Z</time>
      </trkpt>
      <trkpt lat="49.88281" lon="4.81689">
        <ele>253</ele>
        <time>2022-07-15T07:10:04.000Z</time>
      </trkpt>
      <trkpt lat="49.88285" lon="4.81686">
        <ele>253</ele>
        <time>2022-07-15T07:10:05.000Z</time>
      </trkpt>
      <trkpt lat="49.88289" lon="4.81684">
        <ele>252</ele>
        <time>2022-07-15T07:10:06.000Z</time>
      </trkpt>
      <trkpt lat="49.88293" lon="4.81683">
        <ele>252</ele>
        <time>2022-07-15T07:10:07.000Z</time>
      </trkpt>
      <trkpt lat="49.88296" lon="4.81684">
        <ele>252</ele>
        <time>2022-07-15T07:10:08.000Z</time>
      </trkpt>
      <trkpt lat="49.88298" lon="4.81684">
        <ele>251</ele>
        <time>2022-07-15T07:10:09.000Z</time>
      </trkpt>
      <trkpt lat="49.88301" lon="4.81684">
        <ele>251</ele>
        <time>2022-07-15T07:10:10.000Z</time>
      </trkpt>
      <trkpt lat="49.88304" lon="4.81683">
        <ele>251</ele>
        <time>2022-07-15T07:10:11.000Z</time>
      </trkpt>
      <trkpt lat="49.88306" lon="4.81682">
        <ele>251</ele>
        <time>2022-07-15T07:10:12.000Z</time>
      </trkpt>
      <trkpt lat="49.88309" lon="4.81681">
        <ele>250</ele>
        <time>2022-07-15T07:10:13.000Z</time>
      </trkpt>
      <trkpt lat="49.88311" lon="4.81679">
        <ele>250</ele>
        <time>2022-07-15T07:10:14.000Z</time>
      </trkpt>
      <trkpt lat="49.88312" lon="4.81678">
        <ele>250</ele>
        <time>2022-07-15T07:10:15.000Z</time>
      </trkpt>
      <trkpt lat="49.88315" lon="4.81677">
        <ele>250</ele>
        <time>2022-07-15T07:10:16.000Z</time>
      </trkpt>
      <trkpt lat="49.88319" lon="4.81676">
        <ele>250</ele>
        <time>2022-07-15T07:10:17.000Z</time>
      </trkpt>
      <trkpt lat="49.88323" lon="4.81676">
        <ele>249</ele>
        <time>2022-07-15T07:10:18.000Z</time>
      </trkpt>
      <trkpt lat="49.88326" lon="4.81675">
        <ele>249</ele>
        <time>2022-07-15T07:10:19.000Z</time>
      </trkpt>
      <trkpt lat="49.88329" lon="4.81675">
        <ele>249</ele>
        <time>2022-07-15T07:10:20.000Z</time>
      </trkpt>
      <trkpt lat="49.88332" lon="4.81673">
        <ele>249</ele>
        <time>2022-07-15T07:10:21.000Z</time>
      </trkpt>
      <trkpt lat="49.88335" lon="4.81672">
        <ele>249</ele>
        <time>2022-07-15T07:10:22.000Z</time>
      </trkpt>
      <trkpt lat="49.88339" lon="4.81671">
        <ele>248</ele>
        <time>2022-07-15T07:10:23.000Z</time>
      </trkpt>
      <trkpt lat="49.88342" lon="4.81668">
        <ele>248</ele>
        <time>2022-07-15T07:10:24.000Z</time>
      </trkpt>
      <trkpt lat="49.88345" lon="4.81665">
        <ele>248</ele>
        <time>2022-07-15T07:10:25.000Z</time>
      </trkpt>
      <trkpt lat="49.88348" lon="4.81663">
        <ele>248</ele>
        <time>2022-07-15T07:10:26.000Z</time>
      </trkpt>
      <trkpt lat="49.88351" lon="4.8166">
        <ele>248</ele>
        <time>2022-07-15T07:10:27.000Z</time>
      </trkpt>
      <trkpt lat="49.88354" lon="4.81658">
        <ele>248</ele>
        <time>2022-07-15T07:10:28.000Z</time>
      </trkpt>
      <trkpt lat="49.88357" lon="4.81657">
        <ele>248</ele>
        <time>2022-07-15T07:10:29.000Z</time>
      </trkpt>
      <trkpt lat="49.88361" lon="4.81655">
        <ele>247</ele>
        <time>2022-07-15T07:10:30.000Z</time>
      </trkpt>
      <trkpt lat="49.88364" lon="4.81653">
        <ele>247</ele>
        <time>2022-07-15T07:10:31.000Z</time>
      </trkpt>
      <trkpt lat="49.88366" lon="4.81651">
        <ele>247</ele>
        <time>2022-07-15T07:10:32.000Z</time>
      </trkpt>
      <trkpt lat="49.88369" lon="4.81649">
        <ele>247</ele>
        <time>2022-07-15T07:10:33.000Z</time>
      </trkpt>
      <trkpt lat="49.88372" lon="4.81649">
        <ele>247</ele>
        <time>2022-07-15T07:10:34.000Z</time>
      </trkpt>
      <trkpt lat="49.88376" lon="4.81647">
        <ele>247</ele>
        <time>2022-07-15T07:10:35.000Z</time>
      </trkpt>
      <trkpt lat="49.88379" lon="4.81646">
        <ele>247</ele>
        <time>2022-07-15T07:10:36.000Z</time>
      </trkpt>
      <trkpt lat="49.88383" lon="4.81645">
        <ele>246</ele>
        <time>2022-07-15T07:10:37.000Z</time>
      </trkpt>
      <trkpt lat="49.88388" lon="4.81645">
        <ele>246</ele>
        <time>2022-07-15T07:10:38.000Z</time>
      </trkpt>
      <trkpt lat="49.88392" lon="4.81645">
        <ele>246</ele>
        <time>2022-07-15T07:10:39.000Z</time>
      </trkpt>
      <trkpt lat="49.88396" lon="4.81644">
        <ele>246</ele>
        <time>2022-07-15T07:10:40.000Z</time>
      </trkpt>
      <trkpt lat="49.88401" lon="4.81642">
        <ele>246</ele>
        <time>2022-07-15T07:10:41.000Z</time>
      </trkpt>
      <trkpt lat="49.88406" lon="4.8164">
        <ele>246</ele>
        <time>2022-07-15T07:10:42.000Z</time>
      </trkpt>
      <trkpt lat="49.88411" lon="4.81638">
        <ele>246</ele>
        <time>2022-07-15T07:10:43.000Z</time>
      </trkpt>
      <trkpt lat="49.88415" lon="4.81637">
        <ele>246</ele>
        <time>2022-07-15T07:10:44.000Z</time>
      </trkpt>
      <trkpt lat="49.88421" lon="4.81638">
        <ele>246</ele>
        <time>2022-07-15T07:10:45.000Z</time>
      </trkpt>
      <trkpt lat="49.88425" lon="4.8164">
        <ele>246</ele>
        <time>2022-07-15T07:10:46.000Z</time>
      </trkpt>
      <trkpt lat="49.8843" lon="4.81643">
        <ele>245</ele>
        <time>2022-07-15T07:10:47.000Z</time>
      </trkpt>
      <trkpt lat="49.88433" lon="4.81645">
        <ele>245</ele>
        <time>2022-07-15T07:10:48.000Z</time>
      </trkpt>
      <trkpt lat="49.88436" lon="4.81647">
        <ele>245</ele>
        <time>2022-07-15T07:10:49.000Z</time>
      </trkpt>
      <trkpt lat="49.88439" lon="4.8165">
        <ele>245</ele>
        <time>2022-07-15T07:10:50.000Z</time>
      </trkpt>
      <trkpt lat="49.88442" lon="4.81651">
        <ele>245</ele>
        <time>2022-07-15T07:10:51.000Z</time>
      </trkpt>
      <trkpt lat="49.88445" lon="4.81651">
        <ele>244</ele>
        <time>2022-07-15T07:10:52.000Z</time>
      </trkpt>
      <trkpt lat="49.88447" lon="4.81651">
        <ele>244</ele>
        <time>2022-07-15T07:10:53.000Z</time>
      </trkpt>
      <trkpt lat="49.8845" lon="4.81651">
        <ele>244</ele>
        <time>2022-07-15T07:10:54.000Z</time>
      </trkpt>
      <trkpt lat="49.88454" lon="4.81651">
        <ele>244</ele>
        <time>2022-07-15T07:10:55.000Z</time>
      </trkpt>
      <trkpt lat="49.88458" lon="4.81649">
        <ele>243</ele>
        <time>2022-07-15T07:10:56.000Z</time>
      </trkpt>
      <trkpt lat="49.88462" lon="4.81647">
        <ele>243</ele>
        <time>2022-07-15T07:10:57.000Z</time>
      </trkpt>
      <trkpt lat="49.88466" lon="4.81646">
        <ele>243</ele>
        <time>2022-07-15T07:10:58.000Z</time>
      </trkpt>
      <trkpt lat="49.88471" lon="4.81645">
        <ele>243</ele>
        <time>2022-07-15T07:10:59.000Z</time>
      </trkpt>
      <trkpt lat="49.88475" lon="4.81643">
        <ele>242</ele>
        <time>2022-07-15T07:11:00.000Z</time>
      </trkpt>
      <trkpt lat="49.8848" lon="4.8164">
        <ele>242</ele>
        <time>2022-07-15T07:11:01.000Z</time>
      </trkpt>
      <trkpt lat="49.88485" lon="4.81638">
        <ele>242</ele>
        <time>2022-07-15T07:11:02.000Z</time>
      </trkpt>
      <trkpt lat="49.88489" lon="4.81636">
        <ele>242</ele>
        <time>2022-07-15T07:11:03.000Z</time>
      </trkpt>
      <trkpt lat="49.88493" lon="4.81634">
        <ele>241</ele>
        <time>2022-07-15T07:11:04.000Z</time>
      </trkpt>
      <trkpt lat="49.88497" lon="4.81633">
        <ele>241</ele>
        <time>2022-07-15T07:11:05.000Z</time>
      </trkpt>
      <trkpt lat="49.88501" lon="4.81632">
        <ele>241</ele>
        <time>2022-07-15T07:11:06.000Z</time>
      </trkpt>
      <trkpt lat="49.88504" lon="4.8163">
        <ele>241</ele>
        <time>2022-07-15T07:11:07.000Z</time>
      </trkpt>
      <trkpt lat="49.88508" lon="4.81629">
        <ele>240</ele>
        <time>2022-07-15T07:11:08.000Z</time>
      </trkpt>
      <trkpt lat="49.88512" lon="4.81629">
        <ele>240</ele>
        <time>2022-07-15T07:11:09.000Z</time>
      </trkpt>
      <trkpt lat="49.88515" lon="4.81631">
        <ele>240</ele>
        <time>2022-07-15T07:11:10.000Z</time>
      </trkpt>
      <trkpt lat="49.88519" lon="4.81631">
        <ele>240</ele>
        <time>2022-07-15T07:11:11.000Z</time>
      </trkpt>
      <trkpt lat="49.88523" lon="4.81631">
        <ele>239</ele>
        <time>2022-07-15T07:11:12.000Z</time>
      </trkpt>
      <trkpt lat="49.88527" lon="4.81631">
        <ele>239</ele>
        <time>2022-07-15T07:11:13.000Z</time>
      </trkpt>
      <trkpt lat="49.88531" lon="4.8163">
        <ele>239</ele>
        <time>2022-07-15T07:11:14.000Z</time>
      </trkpt>
      <trkpt lat="49.88536" lon="4.81631">
        <ele>239</ele>
        <time>2022-07-15T07:11:15.000Z</time>
      </trkpt>
      <trkpt lat="49.88539" lon="4.81632">
        <ele>238</ele>
        <time>2022-07-15T07:11:16.000Z</time>
      </trkpt>
      <trkpt lat="49.88542" lon="4.81632">
        <ele>238</ele>
        <time>2022-07-15T07:11:17.000Z</time>
      </trkpt>
      <trkpt lat="49.88545" lon="4.81632">
        <ele>238</ele>
        <time>2022-07-15T07:11:18.000Z</time>
      </trkpt>
      <trkpt lat="49.88549" lon="4.81632">
        <ele>238</ele>
        <time>2022-07-15T07:11:19.000Z</time>
      </trkpt>
      <trkpt lat="49.88552" lon="4.81633">
        <ele>237</ele>
        <time>2022-07-15T07:11:20.000Z</time>
      </trkpt>
      <trkpt lat="49.88557" lon="4.81634">
        <ele>237</ele>
        <time>2022-07-15T07:11:21.000Z</time>
      </trkpt>
      <trkpt lat="49.88563" lon="4.81635">
        <ele>237</ele>
        <time>2022-07-15T07:11:22.000Z</time>
      </trkpt>
      <trkpt lat="49.88568" lon="4.81635">
        <ele>237</ele>
        <time>2022-07-15T07:11:23.000Z</time>
      </trkpt>
      <trkpt lat="49.88572" lon="4.81636">
        <ele>236</ele>
        <time>2022-07-15T07:11:24.000Z</time>
      </trkpt>
      <trkpt lat="49.88576" lon="4.81636">
        <ele>236</ele>
        <time>2022-07-15T07:11:25.000Z</time>
      </trkpt>
      <trkpt lat="49.88581" lon="4.81637">
        <ele>236</ele>
        <time>2022-07-15T07:11:26.000Z</time>
      </trkpt>
      <trkpt lat="49.88585" lon="4.81638">
        <ele>236</ele>
        <time>2022-07-15T07:11:27.000Z</time>
      </trkpt>
      <trkpt lat="49.88588" lon="4.81637">
        <ele>236</ele>
        <time>2022-07-15T07:11:28.000Z</time>
      </trkpt>
      <trkpt lat="49.88592" lon="4.81637">
        <ele>235</ele>
        <time>2022-07-15T07:11:29.000Z</time>
      </trkpt>
      <trkpt lat="49.88596" lon="4.81639">
        <ele>235</ele>
        <time>2022-07-15T07:11:30.000Z</time>
      </trkpt>
      <trkpt lat="49.886" lon="4.81641">
        <ele>235</ele>
        <time>2022-07-15T07:11:31.000Z</time>
      </trkpt>
      <trkpt lat="49.88604" lon="4.81642">
        <ele>235</ele>
        <time>2022-07-15T07:11:32.000Z</time>
      </trkpt>
      <trkpt lat="49.88608" lon="4.81643">
        <ele>234</ele>
        <time>2022-07-15T07:11:33.000Z</time>
      </trkpt>
      <trkpt lat="49.88612" lon="4.81642">
        <ele>234</ele>
        <time>2022-07-15T07:11:34.000Z</time>
      </trkpt>
      <trkpt lat="49.88616" lon="4.81641">
        <ele>234</ele>
        <time>2022-07-15T07:11:35.000Z</time>
      </trkpt>
      <trkpt lat="49.88621" lon="4.81638">
        <ele>233</ele>
        <time>2022-07-15T07:11:36.000Z</time>
      </trkpt>
      <trkpt lat="49.88625" lon="4.81637">
        <ele>233</ele>
        <time>2022-07-15T07:11:37.000Z</time>
      </trkpt>
      <trkpt lat="49.88629" lon="4.81637">
        <ele>233</ele>
        <time>2022-07-15T07:11:38.000Z</time>
      </trkpt>
      <trkpt lat="49.88633" lon="4.81636">
        <ele>232</ele>
        <time>2022-07-15T07:11:39.000Z</time>
      </trkpt>
      <trkpt lat="49.88636" lon="4.81633">
        <ele>232</ele>
        <time>2022-07-15T07:11:40.000Z</time>
      </trkpt>
      <trkpt lat="49.8864" lon="4.8163">
        <ele>232</ele>
        <time>2022-07-15T07:11:41.000Z</time>
      </trkpt>
      <trkpt lat="49.88643" lon="4.81627">
        <ele>231</ele>
        <time>2022-07-15T07:11:42.000Z</time>
      </trkpt>
      <trkpt lat="49.88647" lon="4.81624">
        <ele>231</ele>
        <time>2022-07-15T07:11:43.000Z</time>
      </trkpt>
      <trkpt lat="49.88651" lon="4.81623">
        <ele>231</ele>
        <time>2022-07-15T07:11:44.000Z</time>
      </trkpt>
      <trkpt lat="49.88655" lon="4.81621">
        <ele>231</ele>
        <time>2022-07-15T07:11:45.000Z</time>
      </trkpt>
      <trkpt lat="49.88657" lon="4.81618">
        <ele>230</ele>
        <time>2022-07-15T07:11:46.000Z</time>
      </trkpt>
      <trkpt lat="49.88658" lon="4.81615">
        <ele>230</ele>
        <time>2022-07-15T07:11:47.000Z</time>
      </trkpt>
      <trkpt lat="49.8866" lon="4.81611">
        <ele>230</ele>
        <time>2022-07-15T07:11:48.000Z</time>
      </trkpt>
      <trkpt lat="49.88663" lon="4.81606">
        <ele>230</ele>
        <time>2022-07-15T07:11:49.000Z</time>
      </trkpt>
      <trkpt lat="49.88664" lon="4.81602">
        <ele>230</ele>
        <time>2022-07-15T07:11:50.000Z</time>
      </trkpt>
      <trkpt lat="49.88665" lon="4.81597">
        <ele>230</ele>
        <time>2022-07-15T07:11:51.000Z</time>
      </trkpt>
      <trkpt lat="49.88665" lon="4.81592">
        <ele>229</ele>
        <time>2022-07-15T07:11:52.000Z</time>
      </trkpt>
      <trkpt lat="49.88665" lon="4.81587">
        <ele>229</ele>
        <time>2022-07-15T07:11:53.000Z</time>
      </trkpt>
      <trkpt lat="49.88664" lon="4.81583">
        <ele>229</ele>
        <time>2022-07-15T07:11:54.000Z</time>
      </trkpt>
      <trkpt lat="49.88664" lon="4.8158">
        <ele>229</ele>
        <time>2022-07-15T07:11:55.000Z</time>
      </trkpt>
      <trkpt lat="49.88664" lon="4.81578">
        <ele>229</ele>
        <time>2022-07-15T07:11:56.000Z</time>
      </trkpt>
      <trkpt lat="49.88664" lon="4.81576">
        <ele>230</ele>
        <time>2022-07-15T07:11:57.000Z</time>
      </trkpt>
      <trkpt lat="49.88664" lon="4.81573">
        <ele>230</ele>
        <time>2022-07-15T07:11:58.000Z</time>
      </trkpt>
      <trkpt lat="49.88665" lon="4.81569">
        <ele>230</ele>
        <time>2022-07-15T07:11:59.000Z</time>
      </trkpt>
      <trkpt lat="49.88666" lon="4.81565">
        <ele>230</ele>
        <time>2022-07-15T07:12:00.000Z</time>
      </trkpt>
      <trkpt lat="49.88667" lon="4.81563">
        <ele>230</ele>
        <time>2022-07-15T07:12:01.000Z</time>
      </trkpt>
      <trkpt lat="49.88669" lon="4.8156">
        <ele>230</ele>
        <time>2022-07-15T07:12:02.000Z</time>
      </trkpt>
      <trkpt lat="49.88672" lon="4.81556">
        <ele>230</ele>
        <time>2022-07-15T07:12:03.000Z</time>
      </trkpt>
      <trkpt lat="49.88674" lon="4.81553">
        <ele>230</ele>
        <time>2022-07-15T07:12:04.000Z</time>
      </trkpt>
      <trkpt lat="49.88678" lon="4.81551">
        <ele>230</ele>
        <time>2022-07-15T07:12:05.000Z</time>
      </trkpt>
      <trkpt lat="49.88681" lon="4.81548">
        <ele>230</ele>
        <time>2022-07-15T07:12:06.000Z</time>
      </trkpt>
      <trkpt lat="49.88685" lon="4.81546">
        <ele>229</ele>
        <time>2022-07-15T07:12:07.000Z</time>
      </trkpt>
      <trkpt lat="49.8869" lon="4.81543">
        <ele>229</ele>
        <time>2022-07-15T07:12:08.000Z</time>
      </trkpt>
      <trkpt lat="49.88694" lon="4.81541">
        <ele>229</ele>
        <time>2022-07-15T07:12:09.000Z</time>
      </trkpt>
      <trkpt lat="49.88698" lon="4.8154">
        <ele>229</ele>
        <time>2022-07-15T07:12:10.000Z</time>
      </trkpt>
      <trkpt lat="49.88703" lon="4.81539">
        <ele>229</ele>
        <time>2022-07-15T07:12:11.000Z</time>
      </trkpt>
      <trkpt lat="49.88707" lon="4.81538">
        <ele>229</ele>
        <time>2022-07-15T07:12:12.000Z</time>
      </trkpt>
      <trkpt lat="49.88712" lon="4.81536">
        <ele>228</ele>
        <time>2022-07-15T07:12:13.000Z</time>
      </trkpt>
      <trkpt lat="49.88715" lon="4.81535">
        <ele>228</ele>
        <time>2022-07-15T07:12:14.000Z</time>
      </trkpt>
      <trkpt lat="49.88719" lon="4.81533">
        <ele>228</ele>
        <time>2022-07-15T07:12:15.000Z</time>
      </trkpt>
      <trkpt lat="49.88722" lon="4.81531">
        <ele>228</ele>
        <time>2022-07-15T07:12:16.000Z</time>
      </trkpt>
      <trkpt lat="49.88725" lon="4.8153">
        <ele>228</ele>
        <time>2022-07-15T07:12:17.000Z</time>
      </trkpt>
      <trkpt lat="49.88727" lon="4.81529">
        <ele>228</ele>
        <time>2022-07-15T07:12:18.000Z</time>
      </trkpt>
      <trkpt lat="49.8873" lon="4.81529">
        <ele>228</ele>
        <time>2022-07-15T07:12:19.000Z</time>
      </trkpt>
      <trkpt lat="49.88732" lon="4.81529">
        <ele>228</ele>
        <time>2022-07-15T07:12:20.000Z</time>
      </trkpt>
      <trkpt lat="49.88733" lon="4.81528">
        <ele>227</ele>
        <time>2022-07-15T07:12:21.000Z</time>
      </trkpt>
      <trkpt lat="49.88736" lon="4.81527">
        <ele>227</ele>
        <time>2022-07-15T07:12:22.000Z</time>
      </trkpt>
      <trkpt lat="49.88738" lon="4.81525">
        <ele>227</ele>
        <time>2022-07-15T07:12:23.000Z</time>
      </trkpt>
      <trkpt lat="49.88741" lon="4.81524">
        <ele>227</ele>
        <time>2022-07-15T07:12:24.000Z</time>
      </trkpt>
      <trkpt lat="49.88744" lon="4.81523">
        <ele>227</ele>
        <time>2022-07-15T07:12:25.000Z</time>
      </trkpt>
      <trkpt lat="49.88747" lon="4.81522">
        <ele>226</ele>
        <time>2022-07-15T07:12:26.000Z</time>
      </trkpt>
      <trkpt lat="49.88751" lon="4.81522">
        <ele>226</ele>
        <time>2022-07-15T07:12:27.000Z</time>
      </trkpt>
      <trkpt lat="49.88755" lon="4.81522">
        <ele>226</ele>
        <time>2022-07-15T07:12:28.000Z</time>
      </trkpt>
      <trkpt lat="49.88758" lon="4.81521">
        <ele>226</ele>
        <time>2022-07-15T07:12:29.000Z</time>
      </trkpt>
      <trkpt lat="49.88762" lon="4.81521">
        <ele>225</ele>
        <time>2022-07-15T07:12:30.000Z</time>
      </trkpt>
      <trkpt lat="49.88766" lon="4.81521">
        <ele>225</ele>
        <time>2022-07-15T07:12:31.000Z</time>
      </trkpt>
      <trkpt lat="49.8877" lon="4.81521">
        <ele>225</ele>
        <time>2022-07-15T07:12:32.000Z</time>
      </trkpt>
      <trkpt lat="49.88774" lon="4.8152">
        <ele>224</ele>
        <time>2022-07-15T07:12:33.000Z</time>
      </trkpt>
      <trkpt lat="49.88778" lon="4.81519">
        <ele>224</ele>
        <time>2022-07-15T07:12:34.000Z</time>
      </trkpt>
      <trkpt lat="49.88783" lon="4.81517">
        <ele>224</ele>
        <time>2022-07-15T07:12:35.000Z</time>
      </trkpt>
      <trkpt lat="49.88787" lon="4.81516">
        <ele>224</ele>
        <time>2022-07-15T07:12:36.000Z</time>
      </trkpt>
      <trkpt lat="49.88792" lon="4.81515">
        <ele>223</ele>
        <time>2022-07-15T07:12:37.000Z</time>
      </trkpt>
      <trkpt lat="49.88796" lon="4.81514">
        <ele>223</ele>
        <time>2022-07-15T07:12:38.000Z</time>
      </trkpt>
      <trkpt lat="49.88801" lon="4.81514">
        <ele>223</ele>
        <time>2022-07-15T07:12:39.000Z</time>
      </trkpt>
      <trkpt lat="49.88806" lon="4.81514">
        <ele>223</ele>
        <time>2022-07-15T07:12:40.000Z</time>
      </trkpt>
      <trkpt lat="49.88811" lon="4.81514">
        <ele>222</ele>
        <time>2022-07-15T07:12:41.000Z</time>
      </trkpt>
      <trkpt lat="49.88816" lon="4.81514">
        <ele>222</ele>
        <time>2022-07-15T07:12:42.000Z</time>
      </trkpt>
      <trkpt lat="49.88822" lon="4.81513">
        <ele>222</ele>
        <time>2022-07-15T07:12:43.000Z</time>
      </trkpt>
      <trkpt lat="49.88827" lon="4.81512">
        <ele>221</ele>
        <time>2022-07-15T07:12:44.000Z</time>
      </trkpt>
      <trkpt lat="49.88832" lon="4.8151">
        <ele>221</ele>
        <time>2022-07-15T07:12:45.000Z</time>
      </trkpt>
      <trkpt lat="49.88837" lon="4.8151">
        <ele>221</ele>
        <time>2022-07-15T07:12:46.000Z</time>
      </trkpt>
      <trkpt lat="49.88842" lon="4.8151">
        <ele>220</ele>
        <time>2022-07-15T07:12:47.000Z</time>
      </trkpt>
      <trkpt lat="49.88846" lon="4.81509">
        <ele>220</ele>
        <time>2022-07-15T07:12:48.000Z</time>
      </trkpt>
      <trkpt lat="49.88851" lon="4.81509">
        <ele>220</ele>
        <time>2022-07-15T07:12:49.000Z</time>
      </trkpt>
      <trkpt lat="49.88857" lon="4.81508">
        <ele>219</ele>
        <time>2022-07-15T07:12:50.000Z</time>
      </trkpt>
      <trkpt lat="49.88862" lon="4.81507">
        <ele>219</ele>
        <time>2022-07-15T07:12:51.000Z</time>
      </trkpt>
      <trkpt lat="49.88869" lon="4.81507">
        <ele>219</ele>
        <time>2022-07-15T07:12:52.000Z</time>
      </trkpt>
      <trkpt lat="49.88875" lon="4.81506">
        <ele>218</ele>
        <time>2022-07-15T07:12:53.000Z</time>
      </trkpt>
      <trkpt lat="49.88881" lon="4.81506">
        <ele>218</ele>
        <time>2022-07-15T07:12:54.000Z</time>
      </trkpt>
      <trkpt lat="49.88887" lon="4.81505">
        <ele>217</ele>
        <time>2022-07-15T07:12:55.000Z</time>
      </trkpt>
      <trkpt lat="49.88892" lon="4.81505">
        <ele>217</ele>
        <time>2022-07-15T07:12:56.000Z</time>
      </trkpt>
      <trkpt lat="49.88896" lon="4.81505">
        <ele>217</ele>
        <time>2022-07-15T07:12:57.000Z</time>
      </trkpt>
      <trkpt lat="49.88901" lon="4.81504">
        <ele>216</ele>
        <time>2022-07-15T07:12:58.000Z</time>
      </trkpt>
      <trkpt lat="49.88905" lon="4.81503">
        <ele>216</ele>
        <time>2022-07-15T07:12:59.000Z</time>
      </trkpt>
      <trkpt lat="49.8891" lon="4.81503">
        <ele>215</ele>
        <time>2022-07-15T07:13:00.000Z</time>
      </trkpt>
      <trkpt lat="49.88914" lon="4.81503">
        <ele>215</ele>
        <time>2022-07-15T07:13:01.000Z</time>
      </trkpt>
      <trkpt lat="49.88917" lon="4.81503">
        <ele>214</ele>
        <time>2022-07-15T07:13:02.000Z</time>
      </trkpt>
      <trkpt lat="49.88922" lon="4.81503">
        <ele>214</ele>
        <time>2022-07-15T07:13:03.000Z</time>
      </trkpt>
      <trkpt lat="49.88926" lon="4.81504">
        <ele>213</ele>
        <time>2022-07-15T07:13:04.000Z</time>
      </trkpt>
      <trkpt lat="49.8893" lon="4.81504">
        <ele>213</ele>
        <time>2022-07-15T07:13:05.000Z</time>
      </trkpt>
      <trkpt lat="49.88935" lon="4.81503">
        <ele>213</ele>
        <time>2022-07-15T07:13:06.000Z</time>
      </trkpt>
      <trkpt lat="49.88939" lon="4.81503">
        <ele>212</ele>
        <time>2022-07-15T07:13:07.000Z</time>
      </trkpt>
      <trkpt lat="49.88943" lon="4.81502">
        <ele>212</ele>
        <time>2022-07-15T07:13:08.000Z</time>
      </trkpt>
      <trkpt lat="49.88947" lon="4.81502">
        <ele>211</ele>
        <time>2022-07-15T07:13:09.000Z</time>
      </trkpt>
      <trkpt lat="49.88952" lon="4.81502">
        <ele>211</ele>
        <time>2022-07-15T07:13:10.000Z</time>
      </trkpt>
      <trkpt lat="49.88957" lon="4.81502">
        <ele>210</ele>
        <time>2022-07-15T07:13:11.000Z</time>
      </trkpt>
      <trkpt lat="49.88962" lon="4.81502">
        <ele>210</ele>
        <time>2022-07-15T07:13:12.000Z</time>
      </trkpt>
      <trkpt lat="49.88967" lon="4.81502">
        <ele>209</ele>
        <time>2022-07-15T07:13:13.000Z</time>
      </trkpt>
      <trkpt lat="49.88972" lon="4.81502">
        <ele>209</ele>
        <time>2022-07-15T07:13:14.000Z</time>
      </trkpt>
      <trkpt lat="49.88978" lon="4.81502">
        <ele>208</ele>
        <time>2022-07-15T07:13:15.000Z</time>
      </trkpt>
      <trkpt lat="49.88983" lon="4.81501">
        <ele>207</ele>
        <time>2022-07-15T07:13:16.000Z</time>
      </trkpt>
      <trkpt lat="49.88987" lon="4.815">
        <ele>207</ele>
        <time>2022-07-15T07:13:17.000Z</time>
      </trkpt>
      <trkpt lat="49.88992" lon="4.81501">
        <ele>206</ele>
        <time>2022-07-15T07:13:18.000Z</time>
      </trkpt>
      <trkpt lat="49.88995" lon="4.815">
        <ele>205</ele>
        <time>2022-07-15T07:13:19.000Z</time>
      </trkpt>
      <trkpt lat="49.88998" lon="4.81499">
        <ele>205</ele>
        <time>2022-07-15T07:13:20.000Z</time>
      </trkpt>
      <trkpt lat="49.88999" lon="4.81497">
        <ele>204</ele>
        <time>2022-07-15T07:13:21.000Z</time>
      </trkpt>
      <trkpt lat="49.89001" lon="4.81495">
        <ele>204</ele>
        <time>2022-07-15T07:13:22.000Z</time>
      </trkpt>
      <trkpt lat="49.89002" lon="4.81493">
        <ele>203</ele>
        <time>2022-07-15T07:13:23.000Z</time>
      </trkpt>
      <trkpt lat="49.89004" lon="4.8149">
        <ele>203</ele>
        <time>2022-07-15T07:13:24.000Z</time>
      </trkpt>
      <trkpt lat="49.89006" lon="4.81487">
        <ele>203</ele>
        <time>2022-07-15T07:13:25.000Z</time>
      </trkpt>
      <trkpt lat="49.89007" lon="4.81485">
        <ele>202</ele>
        <time>2022-07-15T07:13:26.000Z</time>
      </trkpt>
      <trkpt lat="49.89009" lon="4.81482">
        <ele>202</ele>
        <time>2022-07-15T07:13:27.000Z</time>
      </trkpt>
      <trkpt lat="49.89011" lon="4.81479">
        <ele>202</ele>
        <time>2022-07-15T07:13:28.000Z</time>
      </trkpt>
      <trkpt lat="49.89013" lon="4.81476">
        <ele>201</ele>
        <time>2022-07-15T07:13:29.000Z</time>
      </trkpt>
      <trkpt lat="49.89015" lon="4.81473">
        <ele>201</ele>
        <time>2022-07-15T07:13:30.000Z</time>
      </trkpt>
      <trkpt lat="49.89017" lon="4.81469">
        <ele>201</ele>
        <time>2022-07-15T07:13:31.000Z</time>
      </trkpt>
      <trkpt lat="49.8902" lon="4.81466">
        <ele>201</ele>
        <time>2022-07-15T07:13:32.000Z</time>
      </trkpt>
      <trkpt lat="49.89022" lon="4.81462">
        <ele>201</ele>
        <time>2022-07-15T07:13:33.000Z</time>
      </trkpt>
      <trkpt lat="49.89025" lon="4.81459">
        <ele>201</ele>
        <time>2022-07-15T07:13:34.000Z</time>
      </trkpt>
      <trkpt lat="49.89027" lon="4.81456">
        <ele>201</ele>
        <time>2022-07-15T07:13:35.000Z</time>
      </trkpt>
      <trkpt lat="49.8903" lon="4.81453">
        <ele>201</ele>
        <time>2022-07-15T07:13:36.000Z</time>
      </trkpt>
      <trkpt lat="49.89032" lon="4.81449">
        <ele>201</ele>
        <time>2022-07-15T07:13:37.000Z</time>
      </trkpt>
      <trkpt lat="49.89034" lon="4.81446">
        <ele>201</ele>
        <time>2022-07-15T07:13:38.000Z</time>
      </trkpt>
      <trkpt lat="49.89035" lon="4.81442">
        <ele>201</ele>
        <time>2022-07-15T07:13:39.000Z</time>
      </trkpt>
      <trkpt lat="49.89037" lon="4.81439">
        <ele>201</ele>
        <time>2022-07-15T07:13:40.000Z</time>
      </trkpt>
      <trkpt lat="49.89039" lon="4.81435">
        <ele>201</ele>
        <time>2022-07-15T07:13:41.000Z</time>
      </trkpt>
      <trkpt lat="49.8904" lon="4.81431">
        <ele>201</ele>
        <time>2022-07-15T07:13:42.000Z</time>
      </trkpt>
      <trkpt lat="49.89041" lon="4.81428">
        <ele>200</ele>
        <time>2022-07-15T07:13:43.000Z</time>
      </trkpt>
      <trkpt lat="49.89043" lon="4.81425">
        <ele>200</ele>
        <time>2022-07-15T07:13:44.000Z</time>
      </trkpt>
      <trkpt lat="49.89043" lon="4.81421">
        <ele>200</ele>
        <time>2022-07-15T07:13:45.000Z</time>
      </trkpt>
      <trkpt lat="49.89044" lon="4.81418">
        <ele>200</ele>
        <time>2022-07-15T07:13:46.000Z</time>
      </trkpt>
      <trkpt lat="49.89045" lon="4.81415">
        <ele>200</ele>
        <time>2022-07-15T07:13:47.000Z</time>
      </trkpt>
      <trkpt lat="49.89047" lon="4.81413">
        <ele>200</ele>
        <time>2022-07-15T07:13:48.000Z</time>
      </trkpt>
      <trkpt lat="49.89048" lon="4.81411">
        <ele>200</ele>
        <time>2022-07-15T07:13:49.000Z</time>
      </trkpt>
      <trkpt lat="49.8905" lon="4.81409">
        <ele>200</ele>
        <time>2022-07-15T07:13:50.000Z</time>
      </trkpt>
      <trkpt lat="49.89051" lon="4.81406">
        <ele>200</ele>
        <time>2022-07-15T07:13:51.000Z</time>
      </trkpt>
      <trkpt lat="49.89052" lon="4.81403">
        <ele>199</ele>
        <time>2022-07-15T07:13:52.000Z</time>
      </trkpt>
      <trkpt lat="49.89053" lon="4.814">
        <ele>199</ele>
        <time>2022-07-15T07:13:53.000Z</time>
      </trkpt>
      <trkpt lat="49.89055" lon="4.81397">
        <ele>199</ele>
        <time>2022-07-15T07:13:54.000Z</time>
      </trkpt>
      <trkpt lat="49.89056" lon="4.81394">
        <ele>199</ele>
        <time>2022-07-15T07:13:55.000Z</time>
      </trkpt>
      <trkpt lat="49.89057" lon="4.81391">
        <ele>199</ele>
        <time>2022-07-15T07:13:56.000Z</time>
      </trkpt>
      <trkpt lat="49.89058" lon="4.81388">
        <ele>199</ele>
        <time>2022-07-15T07:13:57.000Z</time>
      </trkpt>
      <trkpt lat="49.89059" lon="4.81385">
        <ele>199</ele>
        <time>2022-07-15T07:13:58.000Z</time>
      </trkpt>
      <trkpt lat="49.8906" lon="4.81382">
        <ele>199</ele>
        <time>2022-07-15T07:13:59.000Z</time>
      </trkpt>
      <trkpt lat="49.89061" lon="4.81379">
        <ele>198</ele>
        <time>2022-07-15T07:14:00.000Z</time>
      </trkpt>
      <trkpt lat="49.89063" lon="4.81376">
        <ele>198</ele>
        <time>2022-07-15T07:14:01.000Z</time>
      </trkpt>
      <trkpt lat="49.89064" lon="4.81373">
        <ele>198</ele>
        <time>2022-07-15T07:14:02.000Z</time>
      </trkpt>
      <trkpt lat="49.89066" lon="4.8137">
        <ele>198</ele>
        <time>2022-07-15T07:14:03.000Z</time>
      </trkpt>
      <trkpt lat="49.89067" lon="4.81367">
        <ele>198</ele>
        <time>2022-07-15T07:14:04.000Z</time>
      </trkpt>
      <trkpt lat="49.89068" lon="4.81364">
        <ele>198</ele>
        <time>2022-07-15T07:14:05.000Z</time>
      </trkpt>
      <trkpt lat="49.89069" lon="4.8136">
        <ele>198</ele>
        <time>2022-07-15T07:14:06.000Z</time>
      </trkpt>
      <trkpt lat="49.89071" lon="4.81356">
        <ele>198</ele>
        <time>2022-07-15T07:14:07.000Z</time>
      </trkpt>
      <trkpt lat="49.89072" lon="4.81351">
        <ele>198</ele>
        <time>2022-07-15T07:14:08.000Z</time>
      </trkpt>
      <trkpt lat="49.89074" lon="4.81347">
        <ele>198</ele>
        <time>2022-07-15T07:14:09.000Z</time>
      </trkpt>
      <trkpt lat="49.89076" lon="4.81343">
        <ele>198</ele>
        <time>2022-07-15T07:14:10.000Z</time>
      </trkpt>
      <trkpt lat="49.89079" lon="4.81339">
        <ele>198</ele>
        <time>2022-07-15T07:14:11.000Z</time>
      </trkpt>
      <trkpt lat="49.89081" lon="4.81334">
        <ele>198</ele>
        <time>2022-07-15T07:14:12.000Z</time>
      </trkpt>
      <trkpt lat="49.89083" lon="4.81331">
        <ele>198</ele>
        <time>2022-07-15T07:14:13.000Z</time>
      </trkpt>
      <trkpt lat="49.89086" lon="4.81328">
        <ele>198</ele>
        <time>2022-07-15T07:14:14.000Z</time>
      </trkpt>
      <trkpt lat="49.89089" lon="4.81326">
        <ele>198</ele>
        <time>2022-07-15T07:14:15.000Z</time>
      </trkpt>
      <trkpt lat="49.89092" lon="4.81323">
        <ele>198</ele>
        <time>2022-07-15T07:14:16.000Z</time>
      </trkpt>
      <trkpt lat="49.89095" lon="4.8132">
        <ele>197</ele>
        <time>2022-07-15T07:14:17.000Z</time>
      </trkpt>
      <trkpt lat="49.891" lon="4.81317">
        <ele>197</ele>
        <time>2022-07-15T07:14:18.000Z</time>
      </trkpt>
      <trkpt lat="49.89104" lon="4.81313">
        <ele>197</ele>
        <time>2022-07-15T07:14:19.000Z</time>
      </trkpt>
      <trkpt lat="49.89108" lon="4.8131">
        <ele>197</ele>
        <time>2022-07-15T07:14:20.000Z</time>
      </trkpt>
      <trkpt lat="49.89111" lon="4.81306">
        <ele>196</ele>
        <time>2022-07-15T07:14:21.000Z</time>
      </trkpt>
      <trkpt lat="49.89115" lon="4.81303">
        <ele>196</ele>
        <time>2022-07-15T07:14:22.000Z</time>
      </trkpt>
      <trkpt lat="49.89118" lon="4.81299">
        <ele>196</ele>
        <time>2022-07-15T07:14:23.000Z</time>
      </trkpt>
      <trkpt lat="49.89121" lon="4.81295">
        <ele>196</ele>
        <time>2022-07-15T07:14:24.000Z</time>
      </trkpt>
      <trkpt lat="49.89124" lon="4.8129">
        <ele>195</ele>
        <time>2022-07-15T07:14:25.000Z</time>
      </trkpt>
      <trkpt lat="49.89127" lon="4.81287">
        <ele>195</ele>
        <time>2022-07-15T07:14:26.000Z</time>
      </trkpt>
      <trkpt lat="49.89129" lon="4.81284">
        <ele>195</ele>
        <time>2022-07-15T07:14:27.000Z</time>
      </trkpt>
      <trkpt lat="49.8913" lon="4.81281">
        <ele>195</ele>
        <time>2022-07-15T07:14:28.000Z</time>
      </trkpt>
      <trkpt lat="49.89132" lon="4.81279">
        <ele>194</ele>
        <time>2022-07-15T07:14:29.000Z</time>
      </trkpt>
      <trkpt lat="49.89134" lon="4.81277">
        <ele>194</ele>
        <time>2022-07-15T07:14:30.000Z</time>
      </trkpt>
      <trkpt lat="49.89137" lon="4.81273">
        <ele>194</ele>
        <time>2022-07-15T07:14:31.000Z</time>
      </trkpt>
      <trkpt lat="49.8914" lon="4.8127">
        <ele>194</ele>
        <time>2022-07-15T07:14:32.000Z</time>
      </trkpt>
      <trkpt lat="49.89142" lon="4.81266">
        <ele>194</ele>
        <time>2022-07-15T07:14:33.000Z</time>
      </trkpt>
      <trkpt lat="49.89145" lon="4.81263">
        <ele>194</ele>
        <time>2022-07-15T07:14:34.000Z</time>
      </trkpt>
      <trkpt lat="49.89147" lon="4.81259">
        <ele>194</ele>
        <time>2022-07-15T07:14:35.000Z</time>
      </trkpt>
      <trkpt lat="49.89149" lon="4.81255">
        <ele>193</ele>
        <time>2022-07-15T07:14:36.000Z</time>
      </trkpt>
      <trkpt lat="49.89152" lon="4.81251">
        <ele>193</ele>
        <time>2022-07-15T07:14:37.000Z</time>
      </trkpt>
      <trkpt lat="49.89156" lon="4.81248">
        <ele>193</ele>
        <time>2022-07-15T07:14:38.000Z</time>
      </trkpt>
      <trkpt lat="49.89158" lon="4.81244">
        <ele>193</ele>
        <time>2022-07-15T07:14:39.000Z</time>
      </trkpt>
      <trkpt lat="49.89162" lon="4.81239">
        <ele>193</ele>
        <time>2022-07-15T07:14:40.000Z</time>
      </trkpt>
      <trkpt lat="49.89165" lon="4.81235">
        <ele>193</ele>
        <time>2022-07-15T07:14:41.000Z</time>
      </trkpt>
      <trkpt lat="49.89167" lon="4.81232">
        <ele>193</ele>
        <time>2022-07-15T07:14:42.000Z</time>
      </trkpt>
      <trkpt lat="49.89169" lon="4.81228">
        <ele>193</ele>
        <time>2022-07-15T07:14:43.000Z</time>
      </trkpt>
      <trkpt lat="49.89172" lon="4.81224">
        <ele>193</ele>
        <time>2022-07-15T07:14:44.000Z</time>
      </trkpt>
      <trkpt lat="49.89175" lon="4.8122">
        <ele>193</ele>
        <time>2022-07-15T07:14:45.000Z</time>
      </trkpt>
      <trkpt lat="49.89178" lon="4.81216">
        <ele>192</ele>
        <time>2022-07-15T07:14:46.000Z</time>
      </trkpt>
      <trkpt lat="49.89181" lon="4.81212">
        <ele>192</ele>
        <time>2022-07-15T07:14:47.000Z</time>
      </trkpt>
      <trkpt lat="49.89184" lon="4.81209">
        <ele>192</ele>
        <time>2022-07-15T07:14:48.000Z</time>
      </trkpt>
      <trkpt lat="49.89186" lon="4.81207">
        <ele>191</ele>
        <time>2022-07-15T07:14:49.000Z</time>
      </trkpt>
      <trkpt lat="49.89189" lon="4.81205">
        <ele>191</ele>
        <time>2022-07-15T07:14:50.000Z</time>
      </trkpt>
      <trkpt lat="49.89191" lon="4.81204">
        <ele>191</ele>
        <time>2022-07-15T07:14:51.000Z</time>
      </trkpt>
      <trkpt lat="49.89195" lon="4.81203">
        <ele>190</ele>
        <time>2022-07-15T07:14:52.000Z</time>
      </trkpt>
      <trkpt lat="49.89199" lon="4.81203">
        <ele>190</ele>
        <time>2022-07-15T07:14:53.000Z</time>
      </trkpt>
      <trkpt lat="49.89203" lon="4.81203">
        <ele>189</ele>
        <time>2022-07-15T07:14:54.000Z</time>
      </trkpt>
      <trkpt lat="49.89208" lon="4.81203">
        <ele>189</ele>
        <time>2022-07-15T07:14:55.000Z</time>
      </trkpt>
      <trkpt lat="49.89212" lon="4.81204">
        <ele>188</ele>
        <time>2022-07-15T07:14:56.000Z</time>
      </trkpt>
      <trkpt lat="49.89217" lon="4.81206">
        <ele>188</ele>
        <time>2022-07-15T07:14:57.000Z</time>
      </trkpt>
      <trkpt lat="49.89221" lon="4.81208">
        <ele>188</ele>
        <time>2022-07-15T07:14:58.000Z</time>
      </trkpt>
      <trkpt lat="49.89225" lon="4.8121">
        <ele>187</ele>
        <time>2022-07-15T07:14:59.000Z</time>
      </trkpt>
      <trkpt lat="49.89229" lon="4.81212">
        <ele>187</ele>
        <time>2022-07-15T07:15:00.000Z</time>
      </trkpt>
      <trkpt lat="49.89232" lon="4.81214">
        <ele>186</ele>
        <time>2022-07-15T07:15:01.000Z</time>
      </trkpt>
      <trkpt lat="49.89235" lon="4.81216">
        <ele>186</ele>
        <time>2022-07-15T07:15:02.000Z</time>
      </trkpt>
      <trkpt lat="49.89237" lon="4.81219">
        <ele>185</ele>
        <time>2022-07-15T07:15:03.000Z</time>
      </trkpt>
      <trkpt lat="49.8924" lon="4.8122">
        <ele>185</ele>
        <time>2022-07-15T07:15:04.000Z</time>
      </trkpt>
      <trkpt lat="49.89242" lon="4.81222">
        <ele>184</ele>
        <time>2022-07-15T07:15:05.000Z</time>
      </trkpt>
      <trkpt lat="49.89243" lon="4.81223">
        <ele>184</ele>
        <time>2022-07-15T07:15:06.000Z</time>
      </trkpt>
      <trkpt lat="49.89245" lon="4.81225">
        <ele>184</ele>
        <time>2022-07-15T07:15:07.000Z</time>
      </trkpt>
      <trkpt lat="49.89245" lon="4.81228">
        <ele>183</ele>
        <time>2022-07-15T07:15:08.000Z</time>
      </trkpt>
      <trkpt lat="49.89244" lon="4.81232">
        <ele>183</ele>
        <time>2022-07-15T07:15:09.000Z</time>
      </trkpt>
      <trkpt lat="49.89243" lon="4.81237">
        <ele>183</ele>
        <time>2022-07-15T07:15:10.000Z</time>
      </trkpt>
      <trkpt lat="49.89241" lon="4.81243">
        <ele>183</ele>
        <time>2022-07-15T07:15:11.000Z</time>
      </trkpt>
      <trkpt lat="49.8924" lon="4.81249">
        <ele>182</ele>
        <time>2022-07-15T07:15:12.000Z</time>
      </trkpt>
      <trkpt lat="49.89239" lon="4.81256">
        <ele>182</ele>
        <time>2022-07-15T07:15:13.000Z</time>
      </trkpt>
      <trkpt lat="49.89238" lon="4.81263">
        <ele>182</ele>
        <time>2022-07-15T07:15:14.000Z</time>
      </trkpt>
      <trkpt lat="49.89237" lon="4.8127">
        <ele>182</ele>
        <time>2022-07-15T07:15:15.000Z</time>
      </trkpt>
      <trkpt lat="49.89236" lon="4.81278">
        <ele>182</ele>
        <time>2022-07-15T07:15:16.000Z</time>
      </trkpt>
      <trkpt lat="49.89235" lon="4.81286">
        <ele>182</ele>
        <time>2022-07-15T07:15:17.000Z</time>
      </trkpt>
      <trkpt lat="49.89233" lon="4.81294">
        <ele>181</ele>
        <time>2022-07-15T07:15:18.000Z</time>
      </trkpt>
      <trkpt lat="49.89232" lon="4.81302">
        <ele>181</ele>
        <time>2022-07-15T07:15:19.000Z</time>
      </trkpt>
      <trkpt lat="49.89231" lon="4.8131">
        <ele>181</ele>
        <time>2022-07-15T07:15:20.000Z</time>
      </trkpt>
      <trkpt lat="49.89229" lon="4.81319">
        <ele>181</ele>
        <time>2022-07-15T07:15:21.000Z</time>
      </trkpt>
      <trkpt lat="49.89228" lon="4.81327">
        <ele>181</ele>
        <time>2022-07-15T07:15:22.000Z</time>
      </trkpt>
      <trkpt lat="49.89226" lon="4.81335">
        <ele>180</ele>
        <time>2022-07-15T07:15:23.000Z</time>
      </trkpt>
      <trkpt lat="49.89224" lon="4.81344">
        <ele>180</ele>
        <time>2022-07-15T07:15:24.000Z</time>
      </trkpt>
      <trkpt lat="49.89222" lon="4.81352">
        <ele>180</ele>
        <time>2022-07-15T07:15:25.000Z</time>
      </trkpt>
      <trkpt lat="49.8922" lon="4.8136">
        <ele>180</ele>
        <time>2022-07-15T07:15:26.000Z</time>
      </trkpt>
      <trkpt lat="49.89218" lon="4.81368">
        <ele>179</ele>
        <time>2022-07-15T07:15:27.000Z</time>
      </trkpt>
      <trkpt lat="49.89215" lon="4.81376">
        <ele>179</ele>
        <time>2022-07-15T07:15:28.000Z</time>
      </trkpt>
      <trkpt lat="49.89212" lon="4.81384">
        <ele>179</ele>
        <time>2022-07-15T07:15:29.000Z</time>
      </trkpt>
      <trkpt lat="49.89209" lon="4.81391">
        <ele>179</ele>
        <time>2022-07-15T07:15:30.000Z</time>
      </trkpt>
      <trkpt lat="49.89206" lon="4.81398">
        <ele>179</ele>
        <time>2022-07-15T07:15:31.000Z</time>
      </trkpt>
      <trkpt lat="49.89203" lon="4.81405">
        <ele>179</ele>
        <time>2022-07-15T07:15:32.000Z</time>
      </trkpt>
      <trkpt lat="49.89199" lon="4.81412">
        <ele>178</ele>
        <time>2022-07-15T07:15:33.000Z</time>
      </trkpt>
      <trkpt lat="49.89195" lon="4.81419">
        <ele>178</ele>
        <time>2022-07-15T07:15:34.000Z</time>
      </trkpt>
      <trkpt lat="49.89191" lon="4.81426">
        <ele>178</ele>
        <time>2022-07-15T07:15:35.000Z</time>
      </trkpt>
      <trkpt lat="49.89187" lon="4.81433">
        <ele>177</ele>
        <time>2022-07-15T07:15:36.000Z</time>
      </trkpt>
      <trkpt lat="49.89183" lon="4.8144">
        <ele>177</ele>
        <time>2022-07-15T07:15:37.000Z</time>
      </trkpt>
      <trkpt lat="49.89178" lon="4.81446">
        <ele>177</ele>
        <time>2022-07-15T07:15:38.000Z</time>
      </trkpt>
      <trkpt lat="49.89174" lon="4.81453">
        <ele>177</ele>
        <time>2022-07-15T07:15:39.000Z</time>
      </trkpt>
      <trkpt lat="49.8917" lon="4.8146">
        <ele>177</ele>
        <time>2022-07-15T07:15:40.000Z</time>
      </trkpt>
      <trkpt lat="49.89166" lon="4.81468">
        <ele>177</ele>
        <time>2022-07-15T07:15:41.000Z</time>
      </trkpt>
      <trkpt lat="49.89162" lon="4.81476">
        <ele>177</ele>
        <time>2022-07-15T07:15:42.000Z</time>
      </trkpt>
      <trkpt lat="49.89158" lon="4.81484">
        <ele>177</ele>
        <time>2022-07-15T07:15:43.000Z</time>
      </trkpt>
      <trkpt lat="49.89157" lon="4.81494">
        <ele>177</ele>
        <time>2022-07-15T07:15:44.000Z</time>
      </trkpt>
      <trkpt lat="49.89156" lon="4.81505">
        <ele>177</ele>
        <time>2022-07-15T07:15:45.000Z</time>
      </trkpt>
      <trkpt lat="49.89157" lon="4.81515">
        <ele>176</ele>
        <time>2022-07-15T07:15:46.000Z</time>
      </trkpt>
      <trkpt lat="49.89158" lon="4.81526">
        <ele>176</ele>
        <time>2022-07-15T07:15:47.000Z</time>
      </trkpt>
      <trkpt lat="49.8916" lon="4.81536">
        <ele>176</ele>
        <time>2022-07-15T07:15:48.000Z</time>
      </trkpt>
      <trkpt lat="49.89162" lon="4.81545">
        <ele>175</ele>
        <time>2022-07-15T07:15:49.000Z</time>
      </trkpt>
      <trkpt lat="49.89163" lon="4.81554">
        <ele>175</ele>
        <time>2022-07-15T07:15:50.000Z</time>
      </trkpt>
      <trkpt lat="49.89165" lon="4.81563">
        <ele>175</ele>
        <time>2022-07-15T07:15:51.000Z</time>
      </trkpt>
      <trkpt lat="49.89166" lon="4.81571">
        <ele>174</ele>
        <time>2022-07-15T07:15:52.000Z</time>
      </trkpt>
      <trkpt lat="49.89168" lon="4.81578">
        <ele>174</ele>
        <time>2022-07-15T07:15:53.000Z</time>
      </trkpt>
      <trkpt lat="49.89169" lon="4.81585">
        <ele>173</ele>
        <time>2022-07-15T07:15:54.000Z</time>
      </trkpt>
      <trkpt lat="49.89171" lon="4.81592">
        <ele>173</ele>
        <time>2022-07-15T07:15:55.000Z</time>
      </trkpt>
      <trkpt lat="49.89172" lon="4.81599">
        <ele>173</ele>
        <time>2022-07-15T07:15:56.000Z</time>
      </trkpt>
      <trkpt lat="49.89173" lon="4.81606">
        <ele>172</ele>
        <time>2022-07-15T07:15:57.000Z</time>
      </trkpt>
      <trkpt lat="49.89174" lon="4.81613">
        <ele>172</ele>
        <time>2022-07-15T07:15:58.000Z</time>
      </trkpt>
      <trkpt lat="49.89175" lon="4.81619">
        <ele>171</ele>
        <time>2022-07-15T07:15:59.000Z</time>
      </trkpt>
      <trkpt lat="49.89176" lon="4.81626">
        <ele>171</ele>
        <time>2022-07-15T07:16:00.000Z</time>
      </trkpt>
      <trkpt lat="49.89177" lon="4.81633">
        <ele>170</ele>
        <time>2022-07-15T07:16:01.000Z</time>
      </trkpt>
      <trkpt lat="49.89177" lon="4.8164">
        <ele>170</ele>
        <time>2022-07-15T07:16:02.000Z</time>
      </trkpt>
      <trkpt lat="49.89176" lon="4.81647">
        <ele>169</ele>
        <time>2022-07-15T07:16:03.000Z</time>
      </trkpt>
      <trkpt lat="49.89175" lon="4.81654">
        <ele>169</ele>
        <time>2022-07-15T07:16:04.000Z</time>
      </trkpt>
      <trkpt lat="49.89174" lon="4.81662">
        <ele>168</ele>
        <time>2022-07-15T07:16:05.000Z</time>
      </trkpt>
      <trkpt lat="49.89172" lon="4.81669">
        <ele>168</ele>
        <time>2022-07-15T07:16:06.000Z</time>
      </trkpt>
      <trkpt lat="49.89168" lon="4.81675">
        <ele>167</ele>
        <time>2022-07-15T07:16:07.000Z</time>
      </trkpt>
      <trkpt lat="49.89164" lon="4.81682">
        <ele>167</ele>
        <time>2022-07-15T07:16:08.000Z</time>
      </trkpt>
      <trkpt lat="49.8916" lon="4.81687">
        <ele>166</ele>
        <time>2022-07-15T07:16:09.000Z</time>
      </trkpt>
      <trkpt lat="49.89156" lon="4.81693">
        <ele>166</ele>
        <time>2022-07-15T07:16:10.000Z</time>
      </trkpt>
      <trkpt lat="49.89151" lon="4.81699">
        <ele>165</ele>
        <time>2022-07-15T07:16:11.000Z</time>
      </trkpt>
      <trkpt lat="49.89146" lon="4.81705">
        <ele>165</ele>
        <time>2022-07-15T07:16:12.000Z</time>
      </trkpt>
      <trkpt lat="49.89141" lon="4.8171">
        <ele>164</ele>
        <time>2022-07-15T07:16:13.000Z</time>
      </trkpt>
      <trkpt lat="49.89136" lon="4.81715">
        <ele>164</ele>
        <time>2022-07-15T07:16:14.000Z</time>
      </trkpt>
      <trkpt lat="49.89132" lon="4.8172">
        <ele>163</ele>
        <time>2022-07-15T07:16:15.000Z</time>
      </trkpt>
      <trkpt lat="49.89131" lon="4.81723">
        <ele>163</ele>
        <time>2022-07-15T07:16:16.000Z</time>
      </trkpt>
      <trkpt lat="49.89131" lon="4.81726">
        <ele>163</ele>
        <time>2022-07-15T07:16:17.000Z</time>
      </trkpt>
      <trkpt lat="49.89133" lon="4.81727">
        <ele>163</ele>
        <time>2022-07-15T07:16:18.000Z</time>
      </trkpt>
      <trkpt lat="49.89136" lon="4.81726">
        <ele>162</ele>
        <time>2022-07-15T07:16:19.000Z</time>
      </trkpt>
      <trkpt lat="49.89139" lon="4.81724">
        <ele>162</ele>
        <time>2022-07-15T07:16:20.000Z</time>
      </trkpt>
      <trkpt lat="49.89142" lon="4.81721">
        <ele>162</ele>
        <time>2022-07-15T07:16:21.000Z</time>
      </trkpt>
      <trkpt lat="49.89145" lon="4.81718">
        <ele>162</ele>
        <time>2022-07-15T07:16:22.000Z</time>
      </trkpt>
      <trkpt lat="49.89149" lon="4.81714">
        <ele>162</ele>
        <time>2022-07-15T07:16:23.000Z</time>
      </trkpt>
      <trkpt lat="49.89152" lon="4.81711">
        <ele>161</ele>
        <time>2022-07-15T07:16:24.000Z</time>
      </trkpt>
      <trkpt lat="49.89156" lon="4.81707">
        <ele>161</ele>
        <time>2022-07-15T07:16:25.000Z</time>
      </trkpt>
      <trkpt lat="49.8916" lon="4.81703">
        <ele>161</ele>
        <time>2022-07-15T07:16:26.000Z</time>
      </trkpt>
      <trkpt lat="49.89164" lon="4.81698">
        <ele>161</ele>
        <time>2022-07-15T07:16:27.000Z</time>
      </trkpt>
      <trkpt lat="49.89167" lon="4.81694">
        <ele>161</ele>
        <time>2022-07-15T07:16:28.000Z</time>
      </trkpt>
      <trkpt lat="49.89171" lon="4.81689">
        <ele>160</ele>
        <time>2022-07-15T07:16:29.000Z</time>
      </trkpt>
      <trkpt lat="49.89174" lon="4.81685">
        <ele>160</ele>
        <time>2022-07-15T07:16:30.000Z</time>
      </trkpt>
      <trkpt lat="49.89178" lon="4.8168">
        <ele>160</ele>
        <time>2022-07-15T07:16:31.000Z</time>
      </trkpt>
      <trkpt lat="49.89181" lon="4.81675">
        <ele>160</ele>
        <time>2022-07-15T07:16:32.000Z</time>
      </trkpt>
      <trkpt lat="49.89185" lon="4.8167">
        <ele>160</ele>
        <time>2022-07-15T07:16:33.000Z</time>
      </trkpt>
      <trkpt lat="49.89188" lon="4.81665">
        <ele>160</ele>
        <time>2022-07-15T07:16:34.000Z</time>
      </trkpt>
      <trkpt lat="49.89191" lon="4.81661">
        <ele>160</ele>
        <time>2022-07-15T07:16:35.000Z</time>
      </trkpt>
      <trkpt lat="49.89194" lon="4.81658">
        <ele>160</ele>
        <time>2022-07-15T07:16:36.000Z</time>
      </trkpt>
      <trkpt lat="49.89197" lon="4.81653">
        <ele>160</ele>
        <time>2022-07-15T07:16:37.000Z</time>
      </trkpt>
      <trkpt lat="49.892" lon="4.81649">
        <ele>159</ele>
        <time>2022-07-15T07:16:38.000Z</time>
      </trkpt>
      <trkpt lat="49.89204" lon="4.81646">
        <ele>159</ele>
        <time>2022-07-15T07:16:39.000Z</time>
      </trkpt>
      <trkpt lat="49.89208" lon="4.81642">
        <ele>159</ele>
        <time>2022-07-15T07:16:40.000Z</time>
      </trkpt>
      <trkpt lat="49.89212" lon="4.81638">
        <ele>159</ele>
        <time>2022-07-15T07:16:41.000Z</time>
      </trkpt>
      <trkpt lat="49.89216" lon="4.81634">
        <ele>159</ele>
        <time>2022-07-15T07:16:42.000Z</time>
      </trkpt>
      <trkpt lat="49.8922" lon="4.81631">
        <ele>159</ele>
        <time>2022-07-15T07:16:43.000Z</time>
      </trkpt>
      <trkpt lat="49.89223" lon="4.81627">
        <ele>159</ele>
        <time>2022-07-15T07:16:44.000Z</time>
      </trkpt>
      <trkpt lat="49.89227" lon="4.81625">
        <ele>159</ele>
        <time>2022-07-15T07:16:45.000Z</time>
      </trkpt>
      <trkpt lat="49.8923" lon="4.81623">
        <ele>159</ele>
        <time>2022-07-15T07:16:46.000Z</time>
      </trkpt>
      <trkpt lat="49.89232" lon="4.81622">
        <ele>159</ele>
        <time>2022-07-15T07:16:47.000Z</time>
      </trkpt>
      <trkpt lat="49.89234" lon="4.81619">
        <ele>159</ele>
        <time>2022-07-15T07:16:48.000Z</time>
      </trkpt>
      <trkpt lat="49.89236" lon="4.81616">
        <ele>159</ele>
        <time>2022-07-15T07:16:49.000Z</time>
      </trkpt>
      <trkpt lat="49.8924" lon="4.81614">
        <ele>159</ele>
        <time>2022-07-15T07:16:50.000Z</time>
      </trkpt>
      <trkpt lat="49.89243" lon="4.81612">
        <ele>159</ele>
        <time>2022-07-15T07:16:51.000Z</time>
      </trkpt>
      <trkpt lat="49.89248" lon="4.8161">
        <ele>159</ele>
        <time>2022-07-15T07:16:52.000Z</time>
      </trkpt>
      <trkpt lat="49.89252" lon="4.81608">
        <ele>158</ele>
        <time>2022-07-15T07:16:53.000Z</time>
      </trkpt>
      <trkpt lat="49.89256" lon="4.81605">
        <ele>158</ele>
        <time>2022-07-15T07:16:54.000Z</time>
      </trkpt>
      <trkpt lat="49.89261" lon="4.81601">
        <ele>158</ele>
        <time>2022-07-15T07:16:55.000Z</time>
      </trkpt>
      <trkpt lat="49.89265" lon="4.81598">
        <ele>158</ele>
        <time>2022-07-15T07:16:56.000Z</time>
      </trkpt>
      <trkpt lat="49.8927" lon="4.81595">
        <ele>158</ele>
        <time>2022-07-15T07:16:57.000Z</time>
      </trkpt>
      <trkpt lat="49.89275" lon="4.81592">
        <ele>158</ele>
        <time>2022-07-15T07:16:58.000Z</time>
      </trkpt>
      <trkpt lat="49.8928" lon="4.81589">
        <ele>158</ele>
        <time>2022-07-15T07:16:59.000Z</time>
      </trkpt>
      <trkpt lat="49.89285" lon="4.81586">
        <ele>158</ele>
        <time>2022-07-15T07:17:00.000Z</time>
      </trkpt>
      <trkpt lat="49.89289" lon="4.81584">
        <ele>158</ele>
        <time>2022-07-15T07:17:01.000Z</time>
      </trkpt>
      <trkpt lat="49.89294" lon="4.81582">
        <ele>157</ele>
        <time>2022-07-15T07:17:02.000Z</time>
      </trkpt>
      <trkpt lat="49.89298" lon="4.81579">
        <ele>157</ele>
        <time>2022-07-15T07:17:03.000Z</time>
      </trkpt>
      <trkpt lat="49.89302" lon="4.81577">
        <ele>157</ele>
        <time>2022-07-15T07:17:04.000Z</time>
      </trkpt>
      <trkpt lat="49.89306" lon="4.81575">
        <ele>157</ele>
        <time>2022-07-15T07:17:05.000Z</time>
      </trkpt>
      <trkpt lat="49.8931" lon="4.81573">
        <ele>157</ele>
        <time>2022-07-15T07:17:06.000Z</time>
      </trkpt>
      <trkpt lat="49.89315" lon="4.81571">
        <ele>157</ele>
        <time>2022-07-15T07:17:07.000Z</time>
      </trkpt>
      <trkpt lat="49.8932" lon="4.81569">
        <ele>157</ele>
        <time>2022-07-15T07:17:08.000Z</time>
      </trkpt>
      <trkpt lat="49.89324" lon="4.81566">
        <ele>157</ele>
        <time>2022-07-15T07:17:09.000Z</time>
      </trkpt>
      <trkpt lat="49.89329" lon="4.81563">
        <ele>157</ele>
        <time>2022-07-15T07:17:10.000Z</time>
      </trkpt>
      <trkpt lat="49.89333" lon="4.81559">
        <ele>157</ele>
        <time>2022-07-15T07:17:11.000Z</time>
      </trkpt>
      <trkpt lat="49.89337" lon="4.81556">
        <ele>157</ele>
        <time>2022-07-15T07:17:12.000Z</time>
      </trkpt>
      <trkpt lat="49.89341" lon="4.81553">
        <ele>157</ele>
        <time>2022-07-15T07:17:13.000Z</time>
      </trkpt>
      <trkpt lat="49.89345" lon="4.8155">
        <ele>157</ele>
        <time>2022-07-15T07:17:14.000Z</time>
      </trkpt>
      <trkpt lat="49.8935" lon="4.81548">
        <ele>156</ele>
        <time>2022-07-15T07:17:15.000Z</time>
      </trkpt>
      <trkpt lat="49.89354" lon="4.81547">
        <ele>156</ele>
        <time>2022-07-15T07:17:16.000Z</time>
      </trkpt>
      <trkpt lat="49.89358" lon="4.81545">
        <ele>156</ele>
        <time>2022-07-15T07:17:17.000Z</time>
      </trkpt>
      <trkpt lat="49.89362" lon="4.81544">
        <ele>156</ele>
        <time>2022-07-15T07:17:18.000Z</time>
      </trkpt>
      <trkpt lat="49.89365" lon="4.81542">
        <ele>156</ele>
        <time>2022-07-15T07:17:19.000Z</time>
      </trkpt>
      <trkpt lat="49.89369" lon="4.8154">
        <ele>156</ele>
        <time>2022-07-15T07:17:20.000Z</time>
      </trkpt>
      <trkpt lat="49.89373" lon="4.81539">
        <ele>156</ele>
        <time>2022-07-15T07:17:21.000Z</time>
      </trkpt>
      <trkpt lat="49.89377" lon="4.81537">
        <ele>156</ele>
        <time>2022-07-15T07:17:22.000Z</time>
      </trkpt>
      <trkpt lat="49.89381" lon="4.81535">
        <ele>156</ele>
        <time>2022-07-15T07:17:23.000Z</time>
      </trkpt>
      <trkpt lat="49.89385" lon="4.81534">
        <ele>156</ele>
        <time>2022-07-15T07:17:24.000Z</time>
      </trkpt>
      <trkpt lat="49.89389" lon="4.81532">
        <ele>156</ele>
        <time>2022-07-15T07:17:25.000Z</time>
      </trkpt>
      <trkpt lat="49.89393" lon="4.81531">
        <ele>156</ele>
        <time>2022-07-15T07:17:26.000Z</time>
      </trkpt>
      <trkpt lat="49.89397" lon="4.8153">
        <ele>156</ele>
        <time>2022-07-15T07:17:27.000Z</time>
      </trkpt>
      <trkpt lat="49.89402" lon="4.8153">
        <ele>156</ele>
        <time>2022-07-15T07:17:28.000Z</time>
      </trkpt>
      <trkpt lat="49.89406" lon="4.81529">
        <ele>156</ele>
        <time>2022-07-15T07:17:29.000Z</time>
      </trkpt>
      <trkpt lat="49.89411" lon="4.81529">
        <ele>156</ele>
        <time>2022-07-15T07:17:30.000Z</time>
      </trkpt>
      <trkpt lat="49.89416" lon="4.81528">
        <ele>156</ele>
        <time>2022-07-15T07:17:31.000Z</time>
      </trkpt>
      <trkpt lat="49.89421" lon="4.81528">
        <ele>156</ele>
        <time>2022-07-15T07:17:32.000Z</time>
      </trkpt>
      <trkpt lat="49.89426" lon="4.81528">
        <ele>156</ele>
        <time>2022-07-15T07:17:33.000Z</time>
      </trkpt>
      <trkpt lat="49.89431" lon="4.81528">
        <ele>156</ele>
        <time>2022-07-15T07:17:34.000Z</time>
      </trkpt>
      <trkpt lat="49.89436" lon="4.81528">
        <ele>156</ele>
        <time>2022-07-15T07:17:35.000Z</time>
      </trkpt>
      <trkpt lat="49.8944" lon="4.81527">
        <ele>156</ele>
        <time>2022-07-15T07:17:36.000Z</time>
      </trkpt>
      <trkpt lat="49.89445" lon="4.81526">
        <ele>156</ele>
        <time>2022-07-15T07:17:37.000Z</time>
      </trkpt>
      <trkpt lat="49.89449" lon="4.81526">
        <ele>156</ele>
        <time>2022-07-15T07:17:38.000Z</time>
      </trkpt>
      <trkpt lat="49.89454" lon="4.81525">
        <ele>156</ele>
        <time>2022-07-15T07:17:39.000Z</time>
      </trkpt>
      <trkpt lat="49.89459" lon="4.81523">
        <ele>156</ele>
        <time>2022-07-15T07:17:40.000Z</time>
      </trkpt>
      <trkpt lat="49.89463" lon="4.81522">
        <ele>156</ele>
        <time>2022-07-15T07:17:41.000Z</time>
      </trkpt>
      <trkpt lat="49.89468" lon="4.81521">
        <ele>156</ele>
        <time>2022-07-15T07:17:42.000Z</time>
      </trkpt>
      <trkpt lat="49.89473" lon="4.8152">
        <ele>156</ele>
        <time>2022-07-15T07:17:43.000Z</time>
      </trkpt>
      <trkpt lat="49.89477" lon="4.81519">
        <ele>156</ele>
        <time>2022-07-15T07:17:44.000Z</time>
      </trkpt>
      <trkpt lat="49.89482" lon="4.81518">
        <ele>156</ele>
        <time>2022-07-15T07:17:45.000Z</time>
      </trkpt>
      <trkpt lat="49.89487" lon="4.81517">
        <ele>156</ele>
        <time>2022-07-15T07:17:46.000Z</time>
      </trkpt>
      <trkpt lat="49.89493" lon="4.81516">
        <ele>156</ele>
        <time>2022-07-15T07:17:47.000Z</time>
      </trkpt>
      <trkpt lat="49.89498" lon="4.81516">
        <ele>156</ele>
        <time>2022-07-15T07:17:48.000Z</time>
      </trkpt>
      <trkpt lat="49.89503" lon="4.81515">
        <ele>156</ele>
        <time>2022-07-15T07:17:49.000Z</time>
      </trkpt>
      <trkpt lat="49.89508" lon="4.81515">
        <ele>156</ele>
        <time>2022-07-15T07:17:50.000Z</time>
      </trkpt>
      <trkpt lat="49.89514" lon="4.81515">
        <ele>156</ele>
        <time>2022-07-15T07:17:51.000Z</time>
      </trkpt>
      <trkpt lat="49.89519" lon="4.81515">
        <ele>156</ele>
        <time>2022-07-15T07:17:52.000Z</time>
      </trkpt>
      <trkpt lat="49.89524" lon="4.81515">
        <ele>157</ele>
        <time>2022-07-15T07:17:53.000Z</time>
      </trkpt>
      <trkpt lat="49.89529" lon="4.81515">
        <ele>157</ele>
        <time>2022-07-15T07:17:54.000Z</time>
      </trkpt>
      <trkpt lat="49.89533" lon="4.81515">
        <ele>157</ele>
        <time>2022-07-15T07:17:55.000Z</time>
      </trkpt>
      <trkpt lat="49.89538" lon="4.81514">
        <ele>157</ele>
        <time>2022-07-15T07:17:56.000Z</time>
      </trkpt>
      <trkpt lat="49.89542" lon="4.81514">
        <ele>157</ele>
        <time>2022-07-15T07:17:57.000Z</time>
      </trkpt>
      <trkpt lat="49.89547" lon="4.81513">
        <ele>157</ele>
        <time>2022-07-15T07:17:58.000Z</time>
      </trkpt>
      <trkpt lat="49.89551" lon="4.81512">
        <ele>157</ele>
        <time>2022-07-15T07:17:59.000Z</time>
      </trkpt>
      <trkpt lat="49.89556" lon="4.81511">
        <ele>157</ele>
        <time>2022-07-15T07:18:00.000Z</time>
      </trkpt>
      <trkpt lat="49.8956" lon="4.8151">
        <ele>157</ele>
        <time>2022-07-15T07:18:01.000Z</time>
      </trkpt>
      <trkpt lat="49.89564" lon="4.81509">
        <ele>158</ele>
        <time>2022-07-15T07:18:02.000Z</time>
      </trkpt>
      <trkpt lat="49.89568" lon="4.81508">
        <ele>158</ele>
        <time>2022-07-15T07:18:03.000Z</time>
      </trkpt>
      <trkpt lat="49.89572" lon="4.81507">
        <ele>158</ele>
        <time>2022-07-15T07:18:04.000Z</time>
      </trkpt>
      <trkpt lat="49.89576" lon="4.81506">
        <ele>158</ele>
        <time>2022-07-15T07:18:05.000Z</time>
      </trkpt>
      <trkpt lat="49.89579" lon="4.81505">
        <ele>158</ele>
        <time>2022-07-15T07:18:06.000Z</time>
      </trkpt>
      <trkpt lat="49.89582" lon="4.81506">
        <ele>158</ele>
        <time>2022-07-15T07:18:07.000Z</time>
      </trkpt>
      <trkpt lat="49.89583" lon="4.8151">
        <ele>159</ele>
        <time>2022-07-15T07:18:08.000Z</time>
      </trkpt>
      <trkpt lat="49.89584" lon="4.81513">
        <ele>159</ele>
        <time>2022-07-15T07:18:09.000Z</time>
      </trkpt>
      <trkpt lat="49.89583" lon="4.81518">
        <ele>159</ele>
        <time>2022-07-15T07:18:10.000Z</time>
      </trkpt>
      <trkpt lat="49.89582" lon="4.81524">
        <ele>159</ele>
        <time>2022-07-15T07:18:11.000Z</time>
      </trkpt>
      <trkpt lat="49.89581" lon="4.81529">
        <ele>159</ele>
        <time>2022-07-15T07:18:12.000Z</time>
      </trkpt>
      <trkpt lat="49.89579" lon="4.81535">
        <ele>159</ele>
        <time>2022-07-15T07:18:13.000Z</time>
      </trkpt>
      <trkpt lat="49.89578" lon="4.8154">
        <ele>159</ele>
        <time>2022-07-15T07:18:14.000Z</time>
      </trkpt>
      <trkpt lat="49.89577" lon="4.81545">
        <ele>159</ele>
        <time>2022-07-15T07:18:15.000Z</time>
      </trkpt>
      <trkpt lat="49.89576" lon="4.81551">
        <ele>159</ele>
        <time>2022-07-15T07:18:16.000Z</time>
      </trkpt>
      <trkpt lat="49.89575" lon="4.81557">
        <ele>159</ele>
        <time>2022-07-15T07:18:17.000Z</time>
      </trkpt>
      <trkpt lat="49.89574" lon="4.81563">
        <ele>159</ele>
        <time>2022-07-15T07:18:18.000Z</time>
      </trkpt>
      <trkpt lat="49.89573" lon="4.8157">
        <ele>160</ele>
        <time>2022-07-15T07:18:19.000Z</time>
      </trkpt>
      <trkpt lat="49.89572" lon="4.81577">
        <ele>160</ele>
        <time>2022-07-15T07:18:20.000Z</time>
      </trkpt>
      <trkpt lat="49.8957" lon="4.81584">
        <ele>160</ele>
        <time>2022-07-15T07:18:21.000Z</time>
      </trkpt>
      <trkpt lat="49.89569" lon="4.81591">
        <ele>160</ele>
        <time>2022-07-15T07:18:22.000Z</time>
      </trkpt>
      <trkpt lat="49.89568" lon="4.81598">
        <ele>160</ele>
        <time>2022-07-15T07:18:23.000Z</time>
      </trkpt>
      <trkpt lat="49.89567" lon="4.81605">
        <ele>160</ele>
        <time>2022-07-15T07:18:24.000Z</time>
      </trkpt>
      <trkpt lat="49.89566" lon="4.81613">
        <ele>160</ele>
        <time>2022-07-15T07:18:25.000Z</time>
      </trkpt>
      <trkpt lat="49.89565" lon="4.8162">
        <ele>160</ele>
        <time>2022-07-15T07:18:26.000Z</time>
      </trkpt>
      <trkpt lat="49.89563" lon="4.81627">
        <ele>160</ele>
        <time>2022-07-15T07:18:27.000Z</time>
      </trkpt>
      <trkpt lat="49.89562" lon="4.81635">
        <ele>160</ele>
        <time>2022-07-15T07:18:28.000Z</time>
      </trkpt>
      <trkpt lat="49.8956" lon="4.81642">
        <ele>160</ele>
        <time>2022-07-15T07:18:29.000Z</time>
      </trkpt>
      <trkpt lat="49.89559" lon="4.8165">
        <ele>160</ele>
        <time>2022-07-15T07:18:30.000Z</time>
      </trkpt>
      <trkpt lat="49.89558" lon="4.81657">
        <ele>160</ele>
        <time>2022-07-15T07:18:31.000Z</time>
      </trkpt>
      <trkpt lat="49.89557" lon="4.81664">
        <ele>160</ele>
        <time>2022-07-15T07:18:32.000Z</time>
      </trkpt>
      <trkpt lat="49.89555" lon="4.81671">
        <ele>161</ele>
        <time>2022-07-15T07:18:33.000Z</time>
      </trkpt>
      <trkpt lat="49.89553" lon="4.81679">
        <ele>161</ele>
        <time>2022-07-15T07:18:34.000Z</time>
      </trkpt>
      <trkpt lat="49.89552" lon="4.81685">
        <ele>161</ele>
        <time>2022-07-15T07:18:35.000Z</time>
      </trkpt>
      <trkpt lat="49.8955" lon="4.81692">
        <ele>161</ele>
        <time>2022-07-15T07:18:36.000Z</time>
      </trkpt>
      <trkpt lat="49.89548" lon="4.81699">
        <ele>161</ele>
        <time>2022-07-15T07:18:37.000Z</time>
      </trkpt>
      <trkpt lat="49.89547" lon="4.81706">
        <ele>161</ele>
        <time>2022-07-15T07:18:38.000Z</time>
      </trkpt>
      <trkpt lat="49.89545" lon="4.81713">
        <ele>161</ele>
        <time>2022-07-15T07:18:39.000Z</time>
      </trkpt>
      <trkpt lat="49.89543" lon="4.8172">
        <ele>161</ele>
        <time>2022-07-15T07:18:40.000Z</time>
      </trkpt>
      <trkpt lat="49.8954" lon="4.81727">
        <ele>162</ele>
        <time>2022-07-15T07:18:41.000Z</time>
      </trkpt>
      <trkpt lat="49.89538" lon="4.81734">
        <ele>162</ele>
        <time>2022-07-15T07:18:42.000Z</time>
      </trkpt>
      <trkpt lat="49.89535" lon="4.8174">
        <ele>162</ele>
        <time>2022-07-15T07:18:43.000Z</time>
      </trkpt>
      <trkpt lat="49.89532" lon="4.81747">
        <ele>162</ele>
        <time>2022-07-15T07:18:44.000Z</time>
      </trkpt>
      <trkpt lat="49.89529" lon="4.81753">
        <ele>162</ele>
        <time>2022-07-15T07:18:45.000Z</time>
      </trkpt>
      <trkpt lat="49.89526" lon="4.81759">
        <ele>162</ele>
        <time>2022-07-15T07:18:46.000Z</time>
      </trkpt>
      <trkpt lat="49.89523" lon="4.81766">
        <ele>162</ele>
        <time>2022-07-15T07:18:47.000Z</time>
      </trkpt>
      <trkpt lat="49.8952" lon="4.81772">
        <ele>162</ele>
        <time>2022-07-15T07:18:48.000Z</time>
      </trkpt>
      <trkpt lat="49.89517" lon="4.81778">
        <ele>162</ele>
        <time>2022-07-15T07:18:49.000Z</time>
      </trkpt>
      <trkpt lat="49.89514" lon="4.81784">
        <ele>162</ele>
        <time>2022-07-15T07:18:50.000Z</time>
      </trkpt>
      <trkpt lat="49.8951" lon="4.81789">
        <ele>162</ele>
        <time>2022-07-15T07:18:51.000Z</time>
      </trkpt>
      <trkpt lat="49.89507" lon="4.81794">
        <ele>162</ele>
        <time>2022-07-15T07:18:52.000Z</time>
      </trkpt>
      <trkpt lat="49.89504" lon="4.81799">
        <ele>162</ele>
        <time>2022-07-15T07:18:53.000Z</time>
      </trkpt>
      <trkpt lat="49.89501" lon="4.81804">
        <ele>162</ele>
        <time>2022-07-15T07:18:54.000Z</time>
      </trkpt>
      <trkpt lat="49.89497" lon="4.81809">
        <ele>162</ele>
        <time>2022-07-15T07:18:55.000Z</time>
      </trkpt>
      <trkpt lat="49.89493" lon="4.81814">
        <ele>162</ele>
        <time>2022-07-15T07:18:56.000Z</time>
      </trkpt>
      <trkpt lat="49.8949" lon="4.81819">
        <ele>162</ele>
        <time>2022-07-15T07:18:57.000Z</time>
      </trkpt>
      <trkpt lat="49.89486" lon="4.81824">
        <ele>162</ele>
        <time>2022-07-15T07:18:58.000Z</time>
      </trkpt>
      <trkpt lat="49.89482" lon="4.8183">
        <ele>162</ele>
        <time>2022-07-15T07:18:59.000Z</time>
      </trkpt>
      <trkpt lat="49.89478" lon="4.81835">
        <ele>162</ele>
        <time>2022-07-15T07:19:00.000Z</time>
      </trkpt>
      <trkpt lat="49.89474" lon="4.8184">
        <ele>162</ele>
        <time>2022-07-15T07:19:01.000Z</time>
      </trkpt>
      <trkpt lat="49.8947" lon="4.81845">
        <ele>162</ele>
        <time>2022-07-15T07:19:02.000Z</time>
      </trkpt>
      <trkpt lat="49.89466" lon="4.81849">
        <ele>162</ele>
        <time>2022-07-15T07:19:03.000Z</time>
      </trkpt>
      <trkpt lat="49.89462" lon="4.81853">
        <ele>162</ele>
        <time>2022-07-15T07:19:04.000Z</time>
      </trkpt>
      <trkpt lat="49.89458" lon="4.81858">
        <ele>162</ele>
        <time>2022-07-15T07:19:05.000Z</time>
      </trkpt>
      <trkpt lat="49.89453" lon="4.81862">
        <ele>162</ele>
        <time>2022-07-15T07:19:06.000Z</time>
      </trkpt>
      <trkpt lat="49.89449" lon="4.81867">
        <ele>162</ele>
        <time>2022-07-15T07:19:07.000Z</time>
      </trkpt>
      <trkpt lat="49.89445" lon="4.81871">
        <ele>162</ele>
        <time>2022-07-15T07:19:08.000Z</time>
      </trkpt>
      <trkpt lat="49.89441" lon="4.81875">
        <ele>163</ele>
        <time>2022-07-15T07:19:09.000Z</time>
      </trkpt>
      <trkpt lat="49.89437" lon="4.81879">
        <ele>163</ele>
        <time>2022-07-15T07:19:10.000Z</time>
      </trkpt>
      <trkpt lat="49.89433" lon="4.81883">
        <ele>163</ele>
        <time>2022-07-15T07:19:11.000Z</time>
      </trkpt>
      <trkpt lat="49.89429" lon="4.81887">
        <ele>163</ele>
        <time>2022-07-15T07:19:12.000Z</time>
      </trkpt>
      <trkpt lat="49.89425" lon="4.81891">
        <ele>163</ele>
        <time>2022-07-15T07:19:13.000Z</time>
      </trkpt>
      <trkpt lat="49.89421" lon="4.81895">
        <ele>163</ele>
        <time>2022-07-15T07:19:14.000Z</time>
      </trkpt>
      <trkpt lat="49.89416" lon="4.81899">
        <ele>163</ele>
        <time>2022-07-15T07:19:15.000Z</time>
      </trkpt>
      <trkpt lat="49.89412" lon="4.81903">
        <ele>163</ele>
        <time>2022-07-15T07:19:16.000Z</time>
      </trkpt>
      <trkpt lat="49.89408" lon="4.81906">
        <ele>163</ele>
        <time>2022-07-15T07:19:17.000Z</time>
      </trkpt>
      <trkpt lat="49.89404" lon="4.8191">
        <ele>163</ele>
        <time>2022-07-15T07:19:18.000Z</time>
      </trkpt>
      <trkpt lat="49.894" lon="4.81914">
        <ele>163</ele>
        <time>2022-07-15T07:19:19.000Z</time>
      </trkpt>
      <trkpt lat="49.89397" lon="4.81918">
        <ele>163</ele>
        <time>2022-07-15T07:19:20.000Z</time>
      </trkpt>
      <trkpt lat="49.89393" lon="4.81922">
        <ele>163</ele>
        <time>2022-07-15T07:19:21.000Z</time>
      </trkpt>
      <trkpt lat="49.89389" lon="4.81927">
        <ele>163</ele>
        <time>2022-07-15T07:19:22.000Z</time>
      </trkpt>
      <trkpt lat="49.89386" lon="4.81931">
        <ele>163</ele>
        <time>2022-07-15T07:19:23.000Z</time>
      </trkpt>
      <trkpt lat="49.89382" lon="4.81935">
        <ele>163</ele>
        <time>2022-07-15T07:19:24.000Z</time>
      </trkpt>
      <trkpt lat="49.89378" lon="4.81938">
        <ele>163</ele>
        <time>2022-07-15T07:19:25.000Z</time>
      </trkpt>
      <trkpt lat="49.89374" lon="4.81942">
        <ele>163</ele>
        <time>2022-07-15T07:19:26.000Z</time>
      </trkpt>
      <trkpt lat="49.8937" lon="4.81946">
        <ele>163</ele>
        <time>2022-07-15T07:19:27.000Z</time>
      </trkpt>
      <trkpt lat="49.89366" lon="4.8195">
        <ele>163</ele>
        <time>2022-07-15T07:19:28.000Z</time>
      </trkpt>
      <trkpt lat="49.89361" lon="4.81953">
        <ele>163</ele>
        <time>2022-07-15T07:19:29.000Z</time>
      </trkpt>
      <trkpt lat="49.89358" lon="4.81957">
        <ele>163</ele>
        <time>2022-07-15T07:19:30.000Z</time>
      </trkpt>
      <trkpt lat="49.89354" lon="4.81961">
        <ele>163</ele>
        <time>2022-07-15T07:19:31.000Z</time>
      </trkpt>
      <trkpt lat="49.8935" lon="4.81964">
        <ele>163</ele>
        <time>2022-07-15T07:19:32.000Z</time>
      </trkpt>
      <trkpt lat="49.89347" lon="4.81968">
        <ele>163</ele>
        <time>2022-07-15T07:19:33.000Z</time>
      </trkpt>
      <trkpt lat="49.89343" lon="4.81972">
        <ele>163</ele>
        <time>2022-07-15T07:19:34.000Z</time>
      </trkpt>
      <trkpt lat="49.89339" lon="4.81975">
        <ele>163</ele>
        <time>2022-07-15T07:19:35.000Z</time>
      </trkpt>
      <trkpt lat="49.89335" lon="4.81979">
        <ele>163</ele>
        <time>2022-07-15T07:19:36.000Z</time>
      </trkpt>
      <trkpt lat="49.89331" lon="4.81982">
        <ele>163</ele>
        <time>2022-07-15T07:19:37.000Z</time>
      </trkpt>
      <trkpt lat="49.89326" lon="4.81985">
        <ele>163</ele>
        <time>2022-07-15T07:19:38.000Z</time>
      </trkpt>
      <trkpt lat="49.89322" lon="4.81988">
        <ele>164</ele>
        <time>2022-07-15T07:19:39.000Z</time>
      </trkpt>
      <trkpt lat="49.89317" lon="4.81991">
        <ele>164</ele>
        <time>2022-07-15T07:19:40.000Z</time>
      </trkpt>
      <trkpt lat="49.89313" lon="4.81994">
        <ele>164</ele>
        <time>2022-07-15T07:19:41.000Z</time>
      </trkpt>
      <trkpt lat="49.89308" lon="4.81996">
        <ele>164</ele>
        <time>2022-07-15T07:19:42.000Z</time>
      </trkpt>
      <trkpt lat="49.89304" lon="4.81998">
        <ele>164</ele>
        <time>2022-07-15T07:19:43.000Z</time>
      </trkpt>
      <trkpt lat="49.893" lon="4.81999">
        <ele>164</ele>
        <time>2022-07-15T07:19:44.000Z</time>
      </trkpt>
      <trkpt lat="49.89295" lon="4.82001">
        <ele>164</ele>
        <time>2022-07-15T07:19:45.000Z</time>
      </trkpt>
      <trkpt lat="49.8929" lon="4.82003">
        <ele>164</ele>
        <time>2022-07-15T07:19:46.000Z</time>
      </trkpt>
      <trkpt lat="49.89286" lon="4.82005">
        <ele>164</ele>
        <time>2022-07-15T07:19:47.000Z</time>
      </trkpt>
      <trkpt lat="49.89281" lon="4.82005">
        <ele>164</ele>
        <time>2022-07-15T07:19:48.000Z</time>
      </trkpt>
      <trkpt lat="49.89276" lon="4.82006">
        <ele>164</ele>
        <time>2022-07-15T07:19:49.000Z</time>
      </trkpt>
      <trkpt lat="49.89271" lon="4.82008">
        <ele>164</ele>
        <time>2022-07-15T07:19:50.000Z</time>
      </trkpt>
      <trkpt lat="49.89266" lon="4.82009">
        <ele>165</ele>
        <time>2022-07-15T07:19:51.000Z</time>
      </trkpt>
      <trkpt lat="49.89262" lon="4.8201">
        <ele>165</ele>
        <time>2022-07-15T07:19:52.000Z</time>
      </trkpt>
      <trkpt lat="49.89257" lon="4.82011">
        <ele>165</ele>
        <time>2022-07-15T07:19:53.000Z</time>
      </trkpt>
      <trkpt lat="49.89252" lon="4.82011">
        <ele>165</ele>
        <time>2022-07-15T07:19:54.000Z</time>
      </trkpt>
      <trkpt lat="49.89248" lon="4.82012">
        <ele>165</ele>
        <time>2022-07-15T07:19:55.000Z</time>
      </trkpt>
      <trkpt lat="49.89243" lon="4.82012">
        <ele>165</ele>
        <time>2022-07-15T07:19:56.000Z</time>
      </trkpt>
      <trkpt lat="49.89238" lon="4.82012">
        <ele>165</ele>
        <time>2022-07-15T07:19:57.000Z</time>
      </trkpt>
      <trkpt lat="49.89233" lon="4.82012">
        <ele>165</ele>
        <time>2022-07-15T07:19:58.000Z</time>
      </trkpt>
      <trkpt lat="49.89228" lon="4.82012">
        <ele>165</ele>
        <time>2022-07-15T07:19:59.000Z</time>
      </trkpt>
      <trkpt lat="49.89224" lon="4.82013">
        <ele>165</ele>
        <time>2022-07-15T07:20:00.000Z</time>
      </trkpt>
      <trkpt lat="49.89221" lon="4.82013">
        <ele>165</ele>
        <time>2022-07-15T07:20:01.000Z</time>
      </trkpt>
      <trkpt lat="49.89218" lon="4.82014">
        <ele>165</ele>
        <time>2022-07-15T07:20:02.000Z</time>
      </trkpt>
      <trkpt lat="49.89215" lon="4.82014">
        <ele>165</ele>
        <time>2022-07-15T07:20:03.000Z</time>
      </trkpt>
      <trkpt lat="49.89212" lon="4.82015">
        <ele>165</ele>
        <time>2022-07-15T07:20:04.000Z</time>
      </trkpt>
      <trkpt lat="49.89208" lon="4.82015">
        <ele>165</ele>
        <time>2022-07-15T07:20:05.000Z</time>
      </trkpt>
      <trkpt lat="49.89204" lon="4.82016">
        <ele>165</ele>
        <time>2022-07-15T07:20:06.000Z</time>
      </trkpt>
      <trkpt lat="49.892" lon="4.82016">
        <ele>165</ele>
        <time>2022-07-15T07:20:07.000Z</time>
      </trkpt>
      <trkpt lat="49.89195" lon="4.82017">
        <ele>165</ele>
        <time>2022-07-15T07:20:08.000Z</time>
      </trkpt>
      <trkpt lat="49.8919" lon="4.82017">
        <ele>165</ele>
        <time>2022-07-15T07:20:09.000Z</time>
      </trkpt>
      <trkpt lat="49.89185" lon="4.82017">
        <ele>165</ele>
        <time>2022-07-15T07:20:10.000Z</time>
      </trkpt>
      <trkpt lat="49.8918" lon="4.82018">
        <ele>165</ele>
        <time>2022-07-15T07:20:11.000Z</time>
      </trkpt>
      <trkpt lat="49.89176" lon="4.82017">
        <ele>165</ele>
        <time>2022-07-15T07:20:12.000Z</time>
      </trkpt>
      <trkpt lat="49.89171" lon="4.82018">
        <ele>165</ele>
        <time>2022-07-15T07:20:13.000Z</time>
      </trkpt>
      <trkpt lat="49.89167" lon="4.82018">
        <ele>165</ele>
        <time>2022-07-15T07:20:14.000Z</time>
      </trkpt>
      <trkpt lat="49.89162" lon="4.82019">
        <ele>165</ele>
        <time>2022-07-15T07:20:15.000Z</time>
      </trkpt>
      <trkpt lat="49.89158" lon="4.82019">
        <ele>165</ele>
        <time>2022-07-15T07:20:16.000Z</time>
      </trkpt>
      <trkpt lat="49.89153" lon="4.8202">
        <ele>165</ele>
        <time>2022-07-15T07:20:17.000Z</time>
      </trkpt>
      <trkpt lat="49.89149" lon="4.8202">
        <ele>165</ele>
        <time>2022-07-15T07:20:18.000Z</time>
      </trkpt>
      <trkpt lat="49.89145" lon="4.82021">
        <ele>165</ele>
        <time>2022-07-15T07:20:19.000Z</time>
      </trkpt>
      <trkpt lat="49.89141" lon="4.82021">
        <ele>165</ele>
        <time>2022-07-15T07:20:20.000Z</time>
      </trkpt>
      <trkpt lat="49.89136" lon="4.82022">
        <ele>165</ele>
        <time>2022-07-15T07:20:21.000Z</time>
      </trkpt>
      <trkpt lat="49.89131" lon="4.82022">
        <ele>165</ele>
        <time>2022-07-15T07:20:22.000Z</time>
      </trkpt>
      <trkpt lat="49.89125" lon="4.82023">
        <ele>165</ele>
        <time>2022-07-15T07:20:23.000Z</time>
      </trkpt>
      <trkpt lat="49.8912" lon="4.82024">
        <ele>165</ele>
        <time>2022-07-15T07:20:24.000Z</time>
      </trkpt>
      <trkpt lat="49.89114" lon="4.82025">
        <ele>165</ele>
        <time>2022-07-15T07:20:25.000Z</time>
      </trkpt>
      <trkpt lat="49.89109" lon="4.82026">
        <ele>165</ele>
        <time>2022-07-15T07:20:26.000Z</time>
      </trkpt>
      <trkpt lat="49.89103" lon="4.82028">
        <ele>165</ele>
        <time>2022-07-15T07:20:27.000Z</time>
      </trkpt>
      <trkpt lat="49.89098" lon="4.8203">
        <ele>165</ele>
        <time>2022-07-15T07:20:28.000Z</time>
      </trkpt>
      <trkpt lat="49.89093" lon="4.82033">
        <ele>165</ele>
        <time>2022-07-15T07:20:29.000Z</time>
      </trkpt>
      <trkpt lat="49.89088" lon="4.82036">
        <ele>165</ele>
        <time>2022-07-15T07:20:30.000Z</time>
      </trkpt>
      <trkpt lat="49.89084" lon="4.8204">
        <ele>165</ele>
        <time>2022-07-15T07:20:31.000Z</time>
      </trkpt>
      <trkpt lat="49.89079" lon="4.82045">
        <ele>164</ele>
        <time>2022-07-15T07:20:32.000Z</time>
      </trkpt>
      <trkpt lat="49.89074" lon="4.82049">
        <ele>164</ele>
        <time>2022-07-15T07:20:33.000Z</time>
      </trkpt>
      <trkpt lat="49.8907" lon="4.82052">
        <ele>164</ele>
        <time>2022-07-15T07:20:34.000Z</time>
      </trkpt>
      <trkpt lat="49.89065" lon="4.82056">
        <ele>164</ele>
        <time>2022-07-15T07:20:35.000Z</time>
      </trkpt>
      <trkpt lat="49.89061" lon="4.8206">
        <ele>164</ele>
        <time>2022-07-15T07:20:36.000Z</time>
      </trkpt>
      <trkpt lat="49.89056" lon="4.82064">
        <ele>164</ele>
        <time>2022-07-15T07:20:37.000Z</time>
      </trkpt>
      <trkpt lat="49.89052" lon="4.82069">
        <ele>164</ele>
        <time>2022-07-15T07:20:38.000Z</time>
      </trkpt>
      <trkpt lat="49.89047" lon="4.82073">
        <ele>165</ele>
        <time>2022-07-15T07:20:39.000Z</time>
      </trkpt>
      <trkpt lat="49.89043" lon="4.82077">
        <ele>165</ele>
        <time>2022-07-15T07:20:40.000Z</time>
      </trkpt>
      <trkpt lat="49.89039" lon="4.82081">
        <ele>165</ele>
        <time>2022-07-15T07:20:41.000Z</time>
      </trkpt>
      <trkpt lat="49.89034" lon="4.82085">
        <ele>165</ele>
        <time>2022-07-15T07:20:42.000Z</time>
      </trkpt>
      <trkpt lat="49.8903" lon="4.82089">
        <ele>165</ele>
        <time>2022-07-15T07:20:43.000Z</time>
      </trkpt>
      <trkpt lat="49.89025" lon="4.82093">
        <ele>165</ele>
        <time>2022-07-15T07:20:44.000Z</time>
      </trkpt>
      <trkpt lat="49.8902" lon="4.82097">
        <ele>165</ele>
        <time>2022-07-15T07:20:45.000Z</time>
      </trkpt>
      <trkpt lat="49.89016" lon="4.82101">
        <ele>165</ele>
        <time>2022-07-15T07:20:46.000Z</time>
      </trkpt>
      <trkpt lat="49.89011" lon="4.82105">
        <ele>165</ele>
        <time>2022-07-15T07:20:47.000Z</time>
      </trkpt>
      <trkpt lat="49.89007" lon="4.82108">
        <ele>165</ele>
        <time>2022-07-15T07:20:48.000Z</time>
      </trkpt>
      <trkpt lat="49.89002" lon="4.82112">
        <ele>165</ele>
        <time>2022-07-15T07:20:49.000Z</time>
      </trkpt>
      <trkpt lat="49.88998" lon="4.82116">
        <ele>165</ele>
        <time>2022-07-15T07:20:50.000Z</time>
      </trkpt>
      <trkpt lat="49.88993" lon="4.82121">
        <ele>165</ele>
        <time>2022-07-15T07:20:51.000Z</time>
      </trkpt>
      <trkpt lat="49.88989" lon="4.82125">
        <ele>165</ele>
        <time>2022-07-15T07:20:52.000Z</time>
      </trkpt>
      <trkpt lat="49.88984" lon="4.82129">
        <ele>165</ele>
        <time>2022-07-15T07:20:53.000Z</time>
      </trkpt>
      <trkpt lat="49.88979" lon="4.82133">
        <ele>165</ele>
        <time>2022-07-15T07:20:54.000Z</time>
      </trkpt>
      <trkpt lat="49.88975" lon="4.82137">
        <ele>165</ele>
        <time>2022-07-15T07:20:55.000Z</time>
      </trkpt>
      <trkpt lat="49.88971" lon="4.82141">
        <ele>165</ele>
        <time>2022-07-15T07:20:56.000Z</time>
      </trkpt>
      <trkpt lat="49.88966" lon="4.82145">
        <ele>165</ele>
        <time>2022-07-15T07:20:57.000Z</time>
      </trkpt>
      <trkpt lat="49.88961" lon="4.82149">
        <ele>165</ele>
        <time>2022-07-15T07:20:58.000Z</time>
      </trkpt>
      <trkpt lat="49.88957" lon="4.82153">
        <ele>165</ele>
        <time>2022-07-15T07:20:59.000Z</time>
      </trkpt>
      <trkpt lat="49.88952" lon="4.82157">
        <ele>165</ele>
        <time>2022-07-15T07:21:00.000Z</time>
      </trkpt>
      <trkpt lat="49.88948" lon="4.82161">
        <ele>165</ele>
        <time>2022-07-15T07:21:01.000Z</time>
      </trkpt>
      <trkpt lat="49.88944" lon="4.82165">
        <ele>165</ele>
        <time>2022-07-15T07:21:02.000Z</time>
      </trkpt>
      <trkpt lat="49.88939" lon="4.82169">
        <ele>165</ele>
        <time>2022-07-15T07:21:03.000Z</time>
      </trkpt>
      <trkpt lat="49.88935" lon="4.82173">
        <ele>164</ele>
        <time>2022-07-15T07:21:04.000Z</time>
      </trkpt>
      <trkpt lat="49.88931" lon="4.82177">
        <ele>164</ele>
        <time>2022-07-15T07:21:05.000Z</time>
      </trkpt>
      <trkpt lat="49.88927" lon="4.8218">
        <ele>164</ele>
        <time>2022-07-15T07:21:06.000Z</time>
      </trkpt>
      <trkpt lat="49.88923" lon="4.82184">
        <ele>164</ele>
        <time>2022-07-15T07:21:07.000Z</time>
      </trkpt>
      <trkpt lat="49.88919" lon="4.82187">
        <ele>164</ele>
        <time>2022-07-15T07:21:08.000Z</time>
      </trkpt>
      <trkpt lat="49.88915" lon="4.8219">
        <ele>164</ele>
        <time>2022-07-15T07:21:09.000Z</time>
      </trkpt>
      <trkpt lat="49.88912" lon="4.82193">
        <ele>164</ele>
        <time>2022-07-15T07:21:10.000Z</time>
      </trkpt>
      <trkpt lat="49.88909" lon="4.82196">
        <ele>164</ele>
        <time>2022-07-15T07:21:11.000Z</time>
      </trkpt>
      <trkpt lat="49.88906" lon="4.82199">
        <ele>164</ele>
        <time>2022-07-15T07:21:12.000Z</time>
      </trkpt>
      <trkpt lat="49.88903" lon="4.82203">
        <ele>165</ele>
        <time>2022-07-15T07:21:13.000Z</time>
      </trkpt>
      <trkpt lat="49.88899" lon="4.82207">
        <ele>165</ele>
        <time>2022-07-15T07:21:14.000Z</time>
      </trkpt>
      <trkpt lat="49.88894" lon="4.82211">
        <ele>165</ele>
        <time>2022-07-15T07:21:15.000Z</time>
      </trkpt>
      <trkpt lat="49.8889" lon="4.82215">
        <ele>165</ele>
        <time>2022-07-15T07:21:16.000Z</time>
      </trkpt>
      <trkpt lat="49.88885" lon="4.82219">
        <ele>165</ele>
        <time>2022-07-15T07:21:17.000Z</time>
      </trkpt>
      <trkpt lat="49.88881" lon="4.82223">
        <ele>165</ele>
        <time>2022-07-15T07:21:18.000Z</time>
      </trkpt>
      <trkpt lat="49.88876" lon="4.82226">
        <ele>165</ele>
        <time>2022-07-15T07:21:19.000Z</time>
      </trkpt>
      <trkpt lat="49.88871" lon="4.82228">
        <ele>166</ele>
        <time>2022-07-15T07:21:20.000Z</time>
      </trkpt>
      <trkpt lat="49.88866" lon="4.82231">
        <ele>166</ele>
        <time>2022-07-15T07:21:21.000Z</time>
      </trkpt>
      <trkpt lat="49.8886" lon="4.82234">
        <ele>166</ele>
        <time>2022-07-15T07:21:22.000Z</time>
      </trkpt>
      <trkpt lat="49.88855" lon="4.82236">
        <ele>166</ele>
        <time>2022-07-15T07:21:23.000Z</time>
      </trkpt>
      <trkpt lat="49.88851" lon="4.82239">
        <ele>167</ele>
        <time>2022-07-15T07:21:24.000Z</time>
      </trkpt>
      <trkpt lat="49.88846" lon="4.82241">
        <ele>167</ele>
        <time>2022-07-15T07:21:25.000Z</time>
      </trkpt>
      <trkpt lat="49.88841" lon="4.82242">
        <ele>167</ele>
        <time>2022-07-15T07:21:26.000Z</time>
      </trkpt>
      <trkpt lat="49.88835" lon="4.82244">
        <ele>167</ele>
        <time>2022-07-15T07:21:27.000Z</time>
      </trkpt>
      <trkpt lat="49.8883" lon="4.82245">
        <ele>167</ele>
        <time>2022-07-15T07:21:28.000Z</time>
      </trkpt>
      <trkpt lat="49.88825" lon="4.82246">
        <ele>167</ele>
        <time>2022-07-15T07:21:29.000Z</time>
      </trkpt>
      <trkpt lat="49.88819" lon="4.82247">
        <ele>167</ele>
        <time>2022-07-15T07:21:30.000Z</time>
      </trkpt>
      <trkpt lat="49.88814" lon="4.82248">
        <ele>166</ele>
        <time>2022-07-15T07:21:31.000Z</time>
      </trkpt>
      <trkpt lat="49.88809" lon="4.82248">
        <ele>166</ele>
        <time>2022-07-15T07:21:32.000Z</time>
      </trkpt>
      <trkpt lat="49.88804" lon="4.82249">
        <ele>166</ele>
        <time>2022-07-15T07:21:33.000Z</time>
      </trkpt>
      <trkpt lat="49.88799" lon="4.8225">
        <ele>166</ele>
        <time>2022-07-15T07:21:34.000Z</time>
      </trkpt>
      <trkpt lat="49.88794" lon="4.8225">
        <ele>166</ele>
        <time>2022-07-15T07:21:35.000Z</time>
      </trkpt>
      <trkpt lat="49.88788" lon="4.82251">
        <ele>166</ele>
        <time>2022-07-15T07:21:36.000Z</time>
      </trkpt>
      <trkpt lat="49.88783" lon="4.82251">
        <ele>166</ele>
        <time>2022-07-15T07:21:37.000Z</time>
      </trkpt>
      <trkpt lat="49.88778" lon="4.82252">
        <ele>166</ele>
        <time>2022-07-15T07:21:38.000Z</time>
      </trkpt>
      <trkpt lat="49.88773" lon="4.82253">
        <ele>166</ele>
        <time>2022-07-15T07:21:39.000Z</time>
      </trkpt>
      <trkpt lat="49.88768" lon="4.82253">
        <ele>166</ele>
        <time>2022-07-15T07:21:40.000Z</time>
      </trkpt>
      <trkpt lat="49.88763" lon="4.82254">
        <ele>166</ele>
        <time>2022-07-15T07:21:41.000Z</time>
      </trkpt>
      <trkpt lat="49.88758" lon="4.82254">
        <ele>165</ele>
        <time>2022-07-15T07:21:42.000Z</time>
      </trkpt>
      <trkpt lat="49.88753" lon="4.82255">
        <ele>165</ele>
        <time>2022-07-15T07:21:43.000Z</time>
      </trkpt>
      <trkpt lat="49.88748" lon="4.82256">
        <ele>165</ele>
        <time>2022-07-15T07:21:44.000Z</time>
      </trkpt>
      <trkpt lat="49.88743" lon="4.82256">
        <ele>165</ele>
        <time>2022-07-15T07:21:45.000Z</time>
      </trkpt>
      <trkpt lat="49.88738" lon="4.82257">
        <ele>165</ele>
        <time>2022-07-15T07:21:46.000Z</time>
      </trkpt>
      <trkpt lat="49.88733" lon="4.82258">
        <ele>165</ele>
        <time>2022-07-15T07:21:47.000Z</time>
      </trkpt>
      <trkpt lat="49.88728" lon="4.82259">
        <ele>165</ele>
        <time>2022-07-15T07:21:48.000Z</time>
      </trkpt>
      <trkpt lat="49.88723" lon="4.8226">
        <ele>165</ele>
        <time>2022-07-15T07:21:49.000Z</time>
      </trkpt>
      <trkpt lat="49.88718" lon="4.8226">
        <ele>165</ele>
        <time>2022-07-15T07:21:50.000Z</time>
      </trkpt>
      <trkpt lat="49.88713" lon="4.82261">
        <ele>165</ele>
        <time>2022-07-15T07:21:51.000Z</time>
      </trkpt>
      <trkpt lat="49.88708" lon="4.82262">
        <ele>164</ele>
        <time>2022-07-15T07:21:52.000Z</time>
      </trkpt>
      <trkpt lat="49.88703" lon="4.82263">
        <ele>164</ele>
        <time>2022-07-15T07:21:53.000Z</time>
      </trkpt>
      <trkpt lat="49.88698" lon="4.82264">
        <ele>164</ele>
        <time>2022-07-15T07:21:54.000Z</time>
      </trkpt>
      <trkpt lat="49.88693" lon="4.82265">
        <ele>164</ele>
        <time>2022-07-15T07:21:55.000Z</time>
      </trkpt>
      <trkpt lat="49.88688" lon="4.82265">
        <ele>164</ele>
        <time>2022-07-15T07:21:56.000Z</time>
      </trkpt>
      <trkpt lat="49.88683" lon="4.82266">
        <ele>164</ele>
        <time>2022-07-15T07:21:57.000Z</time>
      </trkpt>
      <trkpt lat="49.88678" lon="4.82266">
        <ele>164</ele>
        <time>2022-07-15T07:21:58.000Z</time>
      </trkpt>
      <trkpt lat="49.88673" lon="4.82267">
        <ele>164</ele>
        <time>2022-07-15T07:21:59.000Z</time>
      </trkpt>
      <trkpt lat="49.88668" lon="4.82267">
        <ele>164</ele>
        <time>2022-07-15T07:22:00.000Z</time>
      </trkpt>
      <trkpt lat="49.88663" lon="4.82268">
        <ele>164</ele>
        <time>2022-07-15T07:22:01.000Z</time>
      </trkpt>
      <trkpt lat="49.88658" lon="4.82269">
        <ele>164</ele>
        <time>2022-07-15T07:22:02.000Z</time>
      </trkpt>
      <trkpt lat="49.88653" lon="4.8227">
        <ele>164</ele>
        <time>2022-07-15T07:22:03.000Z</time>
      </trkpt>
      <trkpt lat="49.88648" lon="4.82271">
        <ele>164</ele>
        <time>2022-07-15T07:22:04.000Z</time>
      </trkpt>
      <trkpt lat="49.88643" lon="4.82272">
        <ele>164</ele>
        <time>2022-07-15T07:22:05.000Z</time>
      </trkpt>
      <trkpt lat="49.88638" lon="4.82273">
        <ele>164</ele>
        <time>2022-07-15T07:22:06.000Z</time>
      </trkpt>
      <trkpt lat="49.88633" lon="4.82275">
        <ele>164</ele>
        <time>2022-07-15T07:22:07.000Z</time>
      </trkpt>
      <trkpt lat="49.88628" lon="4.82277">
        <ele>164</ele>
        <time>2022-07-15T07:22:08.000Z</time>
      </trkpt>
      <trkpt lat="49.88623" lon="4.82278">
        <ele>164</ele>
        <time>2022-07-15T07:22:09.000Z</time>
      </trkpt>
      <trkpt lat="49.88618" lon="4.8228">
        <ele>164</ele>
        <time>2022-07-15T07:22:10.000Z</time>
      </trkpt>
      <trkpt lat="49.88613" lon="4.82282">
        <ele>164</ele>
        <time>2022-07-15T07:22:11.000Z</time>
      </trkpt>
      <trkpt lat="49.88608" lon="4.82283">
        <ele>164</ele>
        <time>2022-07-15T07:22:12.000Z</time>
      </trkpt>
      <trkpt lat="49.88603" lon="4.82285">
        <ele>164</ele>
        <time>2022-07-15T07:22:13.000Z</time>
      </trkpt>
      <trkpt lat="49.88599" lon="4.82286">
        <ele>164</ele>
        <time>2022-07-15T07:22:14.000Z</time>
      </trkpt>
      <trkpt lat="49.88594" lon="4.82287">
        <ele>164</ele>
        <time>2022-07-15T07:22:15.000Z</time>
      </trkpt>
      <trkpt lat="49.8859" lon="4.82289">
        <ele>164</ele>
        <time>2022-07-15T07:22:16.000Z</time>
      </trkpt>
      <trkpt lat="49.88585" lon="4.8229">
        <ele>165</ele>
        <time>2022-07-15T07:22:17.000Z</time>
      </trkpt>
      <trkpt lat="49.88581" lon="4.82292">
        <ele>165</ele>
        <time>2022-07-15T07:22:18.000Z</time>
      </trkpt>
      <trkpt lat="49.88576" lon="4.82293">
        <ele>165</ele>
        <time>2022-07-15T07:22:19.000Z</time>
      </trkpt>
      <trkpt lat="49.88572" lon="4.82295">
        <ele>165</ele>
        <time>2022-07-15T07:22:20.000Z</time>
      </trkpt>
      <trkpt lat="49.88567" lon="4.82296">
        <ele>165</ele>
        <time>2022-07-15T07:22:21.000Z</time>
      </trkpt>
      <trkpt lat="49.88562" lon="4.82297">
        <ele>164</ele>
        <time>2022-07-15T07:22:22.000Z</time>
      </trkpt>
      <trkpt lat="49.88558" lon="4.82299">
        <ele>164</ele>
        <time>2022-07-15T07:22:23.000Z</time>
      </trkpt>
      <trkpt lat="49.88553" lon="4.82301">
        <ele>164</ele>
        <time>2022-07-15T07:22:24.000Z</time>
      </trkpt>
      <trkpt lat="49.88549" lon="4.82302">
        <ele>164</ele>
        <time>2022-07-15T07:22:25.000Z</time>
      </trkpt>
      <trkpt lat="49.88544" lon="4.82304">
        <ele>164</ele>
        <time>2022-07-15T07:22:26.000Z</time>
      </trkpt>
      <trkpt lat="49.8854" lon="4.82306">
        <ele>164</ele>
        <time>2022-07-15T07:22:27.000Z</time>
      </trkpt>
      <trkpt lat="49.88536" lon="4.82307">
        <ele>164</ele>
        <time>2022-07-15T07:22:28.000Z</time>
      </trkpt>
      <trkpt lat="49.88531" lon="4.82309">
        <ele>164</ele>
        <time>2022-07-15T07:22:29.000Z</time>
      </trkpt>
      <trkpt lat="49.88527" lon="4.8231">
        <ele>164</ele>
        <time>2022-07-15T07:22:30.000Z</time>
      </trkpt>
      <trkpt lat="49.88523" lon="4.82312">
        <ele>164</ele>
        <time>2022-07-15T07:22:31.000Z</time>
      </trkpt>
      <trkpt lat="49.8852" lon="4.82313">
        <ele>164</ele>
        <time>2022-07-15T07:22:32.000Z</time>
      </trkpt>
      <trkpt lat="49.88517" lon="4.82317">
        <ele>164</ele>
        <time>2022-07-15T07:22:33.000Z</time>
      </trkpt>
      <trkpt lat="49.88517" lon="4.82322">
        <ele>163</ele>
        <time>2022-07-15T07:22:34.000Z</time>
      </trkpt>
      <trkpt lat="49.88517" lon="4.82326">
        <ele>163</ele>
        <time>2022-07-15T07:22:35.000Z</time>
      </trkpt>
      <trkpt lat="49.88518" lon="4.82328">
        <ele>163</ele>
        <time>2022-07-15T07:22:36.000Z</time>
      </trkpt>
      <trkpt lat="49.88521" lon="4.8233">
        <ele>163</ele>
        <time>2022-07-15T07:22:37.000Z</time>
      </trkpt>
      <trkpt lat="49.88524" lon="4.82332">
        <ele>163</ele>
        <time>2022-07-15T07:22:38.000Z</time>
      </trkpt>
      <trkpt lat="49.88527" lon="4.82334">
        <ele>163</ele>
        <time>2022-07-15T07:22:39.000Z</time>
      </trkpt>
      <trkpt lat="49.88531" lon="4.82335">
        <ele>163</ele>
        <time>2022-07-15T07:22:40.000Z</time>
      </trkpt>
      <trkpt lat="49.88534" lon="4.82336">
        <ele>163</ele>
        <time>2022-07-15T07:22:41.000Z</time>
      </trkpt>
      <trkpt lat="49.88538" lon="4.82338">
        <ele>163</ele>
        <time>2022-07-15T07:22:42.000Z</time>
      </trkpt>
      <trkpt lat="49.88541" lon="4.82339">
        <ele>163</ele>
        <time>2022-07-15T07:22:43.000Z</time>
      </trkpt>
      <trkpt lat="49.88545" lon="4.82341">
        <ele>163</ele>
        <time>2022-07-15T07:22:44.000Z</time>
      </trkpt>
      <trkpt lat="49.88548" lon="4.82342">
        <ele>163</ele>
        <time>2022-07-15T07:22:45.000Z</time>
      </trkpt>
      <trkpt lat="49.88551" lon="4.82344">
        <ele>164</ele>
        <time>2022-07-15T07:22:46.000Z</time>
      </trkpt>
      <trkpt lat="49.88555" lon="4.82344">
        <ele>164</ele>
        <time>2022-07-15T07:22:47.000Z</time>
      </trkpt>
      <trkpt lat="49.88558" lon="4.82346">
        <ele>164</ele>
        <time>2022-07-15T07:22:48.000Z</time>
      </trkpt>
      <trkpt lat="49.8856" lon="4.82347">
        <ele>164</ele>
        <time>2022-07-15T07:22:49.000Z</time>
      </trkpt>
      <trkpt lat="49.88563" lon="4.82348">
        <ele>164</ele>
        <time>2022-07-15T07:22:50.000Z</time>
      </trkpt>
      <trkpt lat="49.88565" lon="4.82351">
        <ele>164</ele>
        <time>2022-07-15T07:22:51.000Z</time>
      </trkpt>
      <trkpt lat="49.88567" lon="4.82354">
        <ele>165</ele>
        <time>2022-07-15T07:22:52.000Z</time>
      </trkpt>
      <trkpt lat="49.88568" lon="4.82357">
        <ele>165</ele>
        <time>2022-07-15T07:22:53.000Z</time>
      </trkpt>
      <trkpt lat="49.88568" lon="4.8236">
        <ele>165</ele>
        <time>2022-07-15T07:22:54.000Z</time>
      </trkpt>
      <trkpt lat="49.88568" lon="4.82364">
        <ele>165</ele>
        <time>2022-07-15T07:22:55.000Z</time>
      </trkpt>
      <trkpt lat="49.88567" lon="4.82367">
        <ele>165</ele>
        <time>2022-07-15T07:22:56.000Z</time>
      </trkpt>
      <trkpt lat="49.88566" lon="4.82369">
        <ele>165</ele>
        <time>2022-07-15T07:22:57.000Z</time>
      </trkpt>
      <trkpt lat="49.88565" lon="4.82372">
        <ele>166</ele>
        <time>2022-07-15T07:22:58.000Z</time>
      </trkpt>
      <trkpt lat="49.88564" lon="4.82375">
        <ele>166</ele>
        <time>2022-07-15T07:22:59.000Z</time>
      </trkpt>
      <trkpt lat="49.88561" lon="4.82379">
        <ele>166</ele>
        <time>2022-07-15T07:23:00.000Z</time>
      </trkpt>
      <trkpt lat="49.88559" lon="4.82382">
        <ele>166</ele>
        <time>2022-07-15T07:23:01.000Z</time>
      </trkpt>
      <trkpt lat="49.88556" lon="4.82385">
        <ele>166</ele>
        <time>2022-07-15T07:23:02.000Z</time>
      </trkpt>
      <trkpt lat="49.88553" lon="4.82387">
        <ele>166</ele>
        <time>2022-07-15T07:23:03.000Z</time>
      </trkpt>
      <trkpt lat="49.88549" lon="4.82388">
        <ele>166</ele>
        <time>2022-07-15T07:23:04.000Z</time>
      </trkpt>
      <trkpt lat="49.88545" lon="4.82389">
        <ele>166</ele>
        <time>2022-07-15T07:23:05.000Z</time>
      </trkpt>
      <trkpt lat="49.88542" lon="4.8239">
        <ele>167</ele>
        <time>2022-07-15T07:23:06.000Z</time>
      </trkpt>
      <trkpt lat="49.88538" lon="4.8239">
        <ele>167</ele>
        <time>2022-07-15T07:23:07.000Z</time>
      </trkpt>
      <trkpt lat="49.88534" lon="4.8239">
        <ele>167</ele>
        <time>2022-07-15T07:23:08.000Z</time>
      </trkpt>
      <trkpt lat="49.8853" lon="4.82391">
        <ele>167</ele>
        <time>2022-07-15T07:23:09.000Z</time>
      </trkpt>
      <trkpt lat="49.88526" lon="4.82391">
        <ele>167</ele>
        <time>2022-07-15T07:23:10.000Z</time>
      </trkpt>
      <trkpt lat="49.88522" lon="4.82392">
        <ele>167</ele>
        <time>2022-07-15T07:23:11.000Z</time>
      </trkpt>
      <trkpt lat="49.88517" lon="4.82392">
        <ele>167</ele>
        <time>2022-07-15T07:23:12.000Z</time>
      </trkpt>
      <trkpt lat="49.88513" lon="4.82393">
        <ele>167</ele>
        <time>2022-07-15T07:23:13.000Z</time>
      </trkpt>
      <trkpt lat="49.88509" lon="4.82394">
        <ele>167</ele>
        <time>2022-07-15T07:23:14.000Z</time>
      </trkpt>
      <trkpt lat="49.88504" lon="4.82395">
        <ele>167</ele>
        <time>2022-07-15T07:23:15.000Z</time>
      </trkpt>
      <trkpt lat="49.885" lon="4.82397">
        <ele>167</ele>
        <time>2022-07-15T07:23:16.000Z</time>
      </trkpt>
      <trkpt lat="49.88497" lon="4.82398">
        <ele>167</ele>
        <time>2022-07-15T07:23:17.000Z</time>
      </trkpt>
      <trkpt lat="49.88494" lon="4.824">
        <ele>167</ele>
        <time>2022-07-15T07:23:18.000Z</time>
      </trkpt>
      <trkpt lat="49.88491" lon="4.82402">
        <ele>167</ele>
        <time>2022-07-15T07:23:19.000Z</time>
      </trkpt>
      <trkpt lat="49.88489" lon="4.82404">
        <ele>167</ele>
        <time>2022-07-15T07:23:20.000Z</time>
      </trkpt>
      <trkpt lat="49.88487" lon="4.82406">
        <ele>168</ele>
        <time>2022-07-15T07:23:21.000Z</time>
      </trkpt>
      <trkpt lat="49.88487" lon="4.82406">
        <ele>168</ele>
        <time>2022-07-15T07:23:22.000Z</time>
      </trkpt>
      <trkpt lat="49.88486" lon="4.82406">
        <ele>168</ele>
        <time>2022-07-15T07:23:23.000Z</time>
      </trkpt>
      <trkpt lat="49.88486" lon="4.82406">
        <ele>168</ele>
        <time>2022-07-15T07:23:24.000Z</time>
      </trkpt>
      <trkpt lat="49.88486" lon="4.82407">
        <ele>168</ele>
        <time>2022-07-15T07:23:25.000Z</time>
      </trkpt>
      <trkpt lat="49.88486" lon="4.82407">
        <ele>168</ele>
        <time>2022-07-15T07:23:26.000Z</time>
      </trkpt>
      <trkpt lat="49.88486" lon="4.82407">
        <ele>168</ele>
        <time>2022-07-15T07:23:27.000Z</time>
      </trkpt>
      <trkpt lat="49.88485" lon="4.82407">
        <ele>168</ele>
        <time>2022-07-15T07:23:28.000Z</time>
      </trkpt>
      <trkpt lat="49.88485" lon="4.82406">
        <ele>168</ele>
        <time>2022-07-15T07:23:29.000Z</time>
      </trkpt>
      <trkpt lat="49.88485" lon="4.82407">
        <ele>168</ele>
        <time>2022-07-15T07:23:30.000Z</time>
      </trkpt>
      <trkpt lat="49.88484" lon="4.82407">
        <ele>169</ele>
        <time>2022-07-15T07:23:31.000Z</time>
      </trkpt>
      <trkpt lat="49.88483" lon="4.82407">
        <ele>169</ele>
        <time>2022-07-15T07:23:32.000Z</time>
      </trkpt>
      <trkpt lat="49.88482" lon="4.82407">
        <ele>169</ele>
        <time>2022-07-15T07:23:33.000Z</time>
      </trkpt>
      <trkpt lat="49.88482" lon="4.82407">
        <ele>169</ele>
        <time>2022-07-15T07:23:34.000Z</time>
      </trkpt>
      <trkpt lat="49.88482" lon="4.82406">
        <ele>169</ele>
        <time>2022-07-15T07:23:35.000Z</time>
      </trkpt>
      <trkpt lat="49.88482" lon="4.82406">
        <ele>169</ele>
        <time>2022-07-15T07:23:36.000Z</time>
      </trkpt>
      <trkpt lat="49.88482" lon="4.82406">
        <ele>169</ele>
        <time>2022-07-15T07:23:37.000Z</time>
      </trkpt>
      <trkpt lat="49.88482" lon="4.82407">
        <ele>168</ele>
        <time>2022-07-15T07:23:38.000Z</time>
      </trkpt>
      <trkpt lat="49.88482" lon="4.82407">
        <ele>168</ele>
        <time>2022-07-15T07:23:39.000Z</time>
      </trkpt>
      <trkpt lat="49.88482" lon="4.82407">
        <ele>168</ele>
        <time>2022-07-15T07:23:40.000Z</time>
      </trkpt>
      <trkpt lat="49.88482" lon="4.82407">
        <ele>168</ele>
        <time>2022-07-15T07:23:41.000Z</time>
      </trkpt>
      <trkpt lat="49.88482" lon="4.82407">
        <ele>168</ele>
        <time>2022-07-15T07:23:42.000Z</time>
      </trkpt>
      <trkpt lat="49.88482" lon="4.82407">
        <ele>168</ele>
        <time>2022-07-15T07:23:43.000Z</time>
      </trkpt>
      <trkpt lat="49.88482" lon="4.82406">
        <ele>168</ele>
        <time>2022-07-15T07:23:44.000Z</time>
      </trkpt>
      <trkpt lat="49.88483" lon="4.82406">
        <ele>168</ele>
        <time>2022-07-15T07:23:45.000Z</time>
      </trkpt>
      <trkpt lat="49.88484" lon="4.82406">
        <ele>168</ele>
        <time>2022-07-15T07:23:46.000Z</time>
      </trkpt>
      <trkpt lat="49.88484" lon="4.82406">
        <ele>168</ele>
        <time>2022-07-15T07:23:47.000Z</time>
      </trkpt>
      <trkpt lat="49.88484" lon="4.82405">
        <ele>168</ele>
        <time>2022-07-15T07:23:48.000Z</time>
      </trkpt>
      <trkpt lat="49.88485" lon="4.82405">
        <ele>168</ele>
        <time>2022-07-15T07:23:49.000Z</time>
      </trkpt>
      <trkpt lat="49.88485" lon="4.82406">
        <ele>168</ele>
        <time>2022-07-15T07:23:50.000Z</time>
      </trkpt>
      <trkpt lat="49.88485" lon="4.82406">
        <ele>168</ele>
        <time>2022-07-15T07:23:51.000Z</time>
      </trkpt>
      <trkpt lat="49.88485" lon="4.82406">
        <ele>168</ele>
        <time>2022-07-15T07:23:52.000Z</time>
      </trkpt>
      <trkpt lat="49.88486" lon="4.82406">
        <ele>168</ele>
        <time>2022-07-15T07:23:53.000Z</time>
      </trkpt>
      <trkpt lat="49.88486" lon="4.82406">
        <ele>168</ele>
        <time>2022-07-15T07:23:54.000Z</time>
      </trkpt>
      <trkpt lat="49.88486" lon="4.82406">
        <ele>168</ele>
        <time>2022-07-15T07:23:55.000Z</time>
      </trkpt>
      <trkpt lat="49.88487" lon="4.82406">
        <ele>168</ele>
        <time>2022-07-15T07:23:56.000Z</time>
      </trkpt>
      <trkpt lat="49.88487" lon="4.82406">
        <ele>168</ele>
        <time>2022-07-15T07:23:57.000Z</time>
      </trkpt>
      <trkpt lat="49.88488" lon="4.82406">
        <ele>168</ele>
        <time>2022-07-15T07:23:58.000Z</time>
      </trkpt>
      <trkpt lat="49.88488" lon="4.82407">
        <ele>168</ele>
        <time>2022-07-15T07:23:59.000Z</time>
      </trkpt>
      <trkpt lat="49.88489" lon="4.82409">
        <ele>168</ele>
        <time>2022-07-15T07:24:00.000Z</time>
      </trkpt>
      <trkpt lat="49.88489" lon="4.82411">
        <ele>168</ele>
        <time>2022-07-15T07:24:01.000Z</time>
      </trkpt>
      <trkpt lat="49.88489" lon="4.82412">
        <ele>168</ele>
        <time>2022-07-15T07:24:02.000Z</time>
      </trkpt>
      <trkpt lat="49.88489" lon="4.82413">
        <ele>168</ele>
        <time>2022-07-15T07:24:03.000Z</time>
      </trkpt>
      <trkpt lat="49.88489" lon="4.82413">
        <ele>168</ele>
        <time>2022-07-15T07:24:04.000Z</time>
      </trkpt>
      <trkpt lat="49.88489" lon="4.82413">
        <ele>168</ele>
        <time>2022-07-15T07:24:05.000Z</time>
      </trkpt>
      <trkpt lat="49.8849" lon="4.82413">
        <ele>168</ele>
        <time>2022-07-15T07:24:06.000Z</time>
      </trkpt>
      <trkpt lat="49.8849" lon="4.82413">
        <ele>168</ele>
        <time>2022-07-15T07:24:07.000Z</time>
      </trkpt>
      <trkpt lat="49.8849" lon="4.82413">
        <ele>168</ele>
        <time>2022-07-15T07:24:08.000Z</time>
      </trkpt>
      <trkpt lat="49.8849" lon="4.82413">
        <ele>168</ele>
        <time>2022-07-15T07:24:09.000Z</time>
      </trkpt>
      <trkpt lat="49.8849" lon="4.82412">
        <ele>168</ele>
        <time>2022-07-15T07:24:10.000Z</time>
      </trkpt>
      <trkpt lat="49.8849" lon="4.82412">
        <ele>168</ele>
        <time>2022-07-15T07:24:11.000Z</time>
      </trkpt>
      <trkpt lat="49.8849" lon="4.82412">
        <ele>168</ele>
        <time>2022-07-15T07:24:12.000Z</time>
      </trkpt>
      <trkpt lat="49.8849" lon="4.82412">
        <ele>168</ele>
        <time>2022-07-15T07:24:13.000Z</time>
      </trkpt>
      <trkpt lat="49.8849" lon="4.82412">
        <ele>168</ele>
        <time>2022-07-15T07:24:14.000Z</time>
      </trkpt>
      <trkpt lat="49.8849" lon="4.82412">
        <ele>168</ele>
        <time>2022-07-15T07:24:15.000Z</time>
      </trkpt>
      <trkpt lat="49.88491" lon="4.82412">
        <ele>168</ele>
        <time>2022-07-15T07:24:16.000Z</time>
      </trkpt>
      <trkpt lat="49.88491" lon="4.82412">
        <ele>168</ele>
        <time>2022-07-15T07:24:17.000Z</time>
      </trkpt>
      <trkpt lat="49.88491" lon="4.82412">
        <ele>168</ele>
        <time>2022-07-15T07:24:18.000Z</time>
      </trkpt>
      <trkpt lat="49.88491" lon="4.82412">
        <ele>168</ele>
        <time>2022-07-15T07:24:19.000Z</time>
      </trkpt>
      <trkpt lat="49.88491" lon="4.82412">
        <ele>168</ele>
        <time>2022-07-15T07:24:20.000Z</time>
      </trkpt>
      <trkpt lat="49.88491" lon="4.82412">
        <ele>168</ele>
        <time>2022-07-15T07:24:21.000Z</time>
      </trkpt>
      <trkpt lat="49.88491" lon="4.82412">
        <ele>168</ele>
        <time>2022-07-15T07:24:22.000Z</time>
      </trkpt>
      <trkpt lat="49.88491" lon="4.82412">
        <ele>168</ele>
        <time>2022-07-15T07:24:23.000Z</time>
      </trkpt>
      <trkpt lat="49.88491" lon="4.82412">
        <ele>168</ele>
        <time>2022-07-15T07:24:24.000Z</time>
      </trkpt>
      <trkpt lat="49.88491" lon="4.82409">
        <ele>168</ele>
        <time>2022-07-15T07:24:25.000Z</time>
      </trkpt>
      <trkpt lat="49.88491" lon="4.82408">
        <ele>168</ele>
        <time>2022-07-15T07:24:26.000Z</time>
      </trkpt>
      <trkpt lat="49.8849" lon="4.82406">
        <ele>168</ele>
        <time>2022-07-15T07:24:27.000Z</time>
      </trkpt>
      <trkpt lat="49.88489" lon="4.82405">
        <ele>168</ele>
        <time>2022-07-15T07:24:28.000Z</time>
      </trkpt>
      <trkpt lat="49.88489" lon="4.82405">
        <ele>168</ele>
        <time>2022-07-15T07:24:29.000Z</time>
      </trkpt>
      <trkpt lat="49.88489" lon="4.82405">
        <ele>168</ele>
        <time>2022-07-15T07:24:30.000Z</time>
      </trkpt>
      <trkpt lat="49.88489" lon="4.82405">
        <ele>168</ele>
        <time>2022-07-15T07:24:31.000Z</time>
      </trkpt>
      <trkpt lat="49.88489" lon="4.82405">
        <ele>168</ele>
        <time>2022-07-15T07:24:32.000Z</time>
      </trkpt>
      <trkpt lat="49.88489" lon="4.82405">
        <ele>168</ele>
        <time>2022-07-15T07:24:33.000Z</time>
      </trkpt>
      <trkpt lat="49.88489" lon="4.82405">
        <ele>168</ele>
        <time>2022-07-15T07:24:34.000Z</time>
      </trkpt>
      <trkpt lat="49.88489" lon="4.82405">
        <ele>168</ele>
        <time>2022-07-15T07:24:35.000Z</time>
      </trkpt>
      <trkpt lat="49.88489" lon="4.82405">
        <ele>168</ele>
        <time>2022-07-15T07:24:36.000Z</time>
      </trkpt>
      <trkpt lat="49.88489" lon="4.82405">
        <ele>168</ele>
        <time>2022-07-15T07:24:37.000Z</time>
      </trkpt>
      <trkpt lat="49.88489" lon="4.82405">
        <ele>168</ele>
        <time>2022-07-15T07:24:38.000Z</time>
      </trkpt>
      <trkpt lat="49.88489" lon="4.82405">
        <ele>168</ele>
        <time>2022-07-15T07:24:39.000Z</time>
      </trkpt>
      <trkpt lat="49.88489" lon="4.82405">
        <ele>168</ele>
        <time>2022-07-15T07:24:40.000Z</time>
      </trkpt>
      <trkpt lat="49.88489" lon="4.82405">
        <ele>168</ele>
        <time>2022-07-15T07:24:41.000Z</time>
      </trkpt>
      <trkpt lat="49.88489" lon="4.82405">
        <ele>168</ele>
        <time>2022-07-15T07:24:42.000Z</time>
      </trkpt>
      <trkpt lat="49.88489" lon="4.82405">
        <ele>168</ele>
        <time>2022-07-15T07:24:43.000Z</time>
      </trkpt>
      <trkpt lat="49.88489" lon="4.82405">
        <ele>168</ele>
        <time>2022-07-15T07:24:44.000Z</time>
      </trkpt>
      <trkpt lat="49.88489" lon="4.82405">
        <ele>168</ele>
        <time>2022-07-15T07:24:45.000Z</time>
      </trkpt>
      <trkpt lat="49.88489" lon="4.82405">
        <ele>168</ele>
        <time>2022-07-15T07:24:46.000Z</time>
      </trkpt>
      <trkpt lat="49.88489" lon="4.82404">
        <ele>168</ele>
        <time>2022-07-15T07:24:47.000Z</time>
      </trkpt>
      <trkpt lat="49.88489" lon="4.82404">
        <ele>168</ele>
        <time>2022-07-15T07:24:48.000Z</time>
      </trkpt>
      <trkpt lat="49.88489" lon="4.82404">
        <ele>168</ele>
        <time>2022-07-15T07:24:49.000Z</time>
      </trkpt>
      <trkpt lat="49.88488" lon="4.82404">
        <ele>168</ele>
        <time>2022-07-15T07:24:50.000Z</time>
      </trkpt>
      <trkpt lat="49.88488" lon="4.82404">
        <ele>168</ele>
        <time>2022-07-15T07:24:51.000Z</time>
      </trkpt>
      <trkpt lat="49.88488" lon="4.82403">
        <ele>168</ele>
        <time>2022-07-15T07:24:52.000Z</time>
      </trkpt>
      <trkpt lat="49.88488" lon="4.82403">
        <ele>168</ele>
        <time>2022-07-15T07:24:53.000Z</time>
      </trkpt>
      <trkpt lat="49.88488" lon="4.82402">
        <ele>168</ele>
        <time>2022-07-15T07:24:54.000Z</time>
      </trkpt>
      <trkpt lat="49.88488" lon="4.82402">
        <ele>168</ele>
        <time>2022-07-15T07:24:55.000Z</time>
      </trkpt>
      <trkpt lat="49.88488" lon="4.82402">
        <ele>168</ele>
        <time>2022-07-15T07:24:56.000Z</time>
      </trkpt>
      <trkpt lat="49.88488" lon="4.82403">
        <ele>169</ele>
        <time>2022-07-15T07:24:57.000Z</time>
      </trkpt>
      <trkpt lat="49.88487" lon="4.82404">
        <ele>169</ele>
        <time>2022-07-15T07:24:58.000Z</time>
      </trkpt>
      <trkpt lat="49.88487" lon="4.82404">
        <ele>169</ele>
        <time>2022-07-15T07:24:59.000Z</time>
      </trkpt>
      <trkpt lat="49.88487" lon="4.82405">
        <ele>169</ele>
        <time>2022-07-15T07:25:00.000Z</time>
      </trkpt>
      <trkpt lat="49.88487" lon="4.82405">
        <ele>169</ele>
        <time>2022-07-15T07:25:01.000Z</time>
      </trkpt>
      <trkpt lat="49.88487" lon="4.82405">
        <ele>169</ele>
        <time>2022-07-15T07:25:02.000Z</time>
      </trkpt>
      <trkpt lat="49.88487" lon="4.82404">
        <ele>169</ele>
        <time>2022-07-15T07:25:03.000Z</time>
      </trkpt>
      <trkpt lat="49.88487" lon="4.82404">
        <ele>169</ele>
        <time>2022-07-15T07:25:04.000Z</time>
      </trkpt>
      <trkpt lat="49.88487" lon="4.82404">
        <ele>169</ele>
        <time>2022-07-15T07:25:05.000Z</time>
      </trkpt>
      <trkpt lat="49.88487" lon="4.82404">
        <ele>169</ele>
        <time>2022-07-15T07:25:06.000Z</time>
      </trkpt>
      <trkpt lat="49.88487" lon="4.82404">
        <ele>169</ele>
        <time>2022-07-15T07:25:07.000Z</time>
      </trkpt>
      <trkpt lat="49.88487" lon="4.82404">
        <ele>169</ele>
        <time>2022-07-15T07:25:08.000Z</time>
      </trkpt>
      <trkpt lat="49.88487" lon="4.82404">
        <ele>169</ele>
        <time>2022-07-15T07:25:09.000Z</time>
      </trkpt>
      <trkpt lat="49.88487" lon="4.82404">
        <ele>169</ele>
        <time>2022-07-15T07:25:10.000Z</time>
      </trkpt>
      <trkpt lat="49.88487" lon="4.82404">
        <ele>169</ele>
        <time>2022-07-15T07:25:11.000Z</time>
      </trkpt>
      <trkpt lat="49.88487" lon="4.82404">
        <ele>169</ele>
        <time>2022-07-15T07:25:12.000Z</time>
      </trkpt>
      <trkpt lat="49.88487" lon="4.82404">
        <ele>169</ele>
        <time>2022-07-15T07:25:13.000Z</time>
      </trkpt>
      <trkpt lat="49.88487" lon="4.82404">
        <ele>169</ele>
        <time>2022-07-15T07:25:14.000Z</time>
      </trkpt>
      <trkpt lat="49.88487" lon="4.82404">
        <ele>169</ele>
        <time>2022-07-15T07:25:15.000Z</time>
      </trkpt>
      <trkpt lat="49.88487" lon="4.82404">
        <ele>169</ele>
        <time>2022-07-15T07:25:16.000Z</time>
      </trkpt>
      <trkpt lat="49.88487" lon="4.82404">
        <ele>169</ele>
        <time>2022-07-15T07:25:17.000Z</time>
      </trkpt>
      <trkpt lat="49.88487" lon="4.82404">
        <ele>169</ele>
        <time>2022-07-15T07:25:18.000Z</time>
      </trkpt>
      <trkpt lat="49.88487" lon="4.82404">
        <ele>169</ele>
        <time>2022-07-15T07:25:19.000Z</time>
      </trkpt>
      <trkpt lat="49.88487" lon="4.82404">
        <ele>169</ele>
        <time>2022-07-15T07:25:20.000Z</time>
      </trkpt>
      <trkpt lat="49.88487" lon="4.82404">
        <ele>169</ele>
        <time>2022-07-15T07:25:21.000Z</time>
      </trkpt>
      <trkpt lat="49.88487" lon="4.82404">
        <ele>169</ele>
        <time>2022-07-15T07:25:22.000Z</time>
      </trkpt>
      <trkpt lat="49.88487" lon="4.82404">
        <ele>169</ele>
        <time>2022-07-15T07:25:23.000Z</time>
      </trkpt>
      <trkpt lat="49.88487" lon="4.82404">
        <ele>169</ele>
        <time>2022-07-15T07:25:24.000Z</time>
      </trkpt>
      <trkpt lat="49.88487" lon="4.82404">
        <ele>169</ele>
        <time>2022-07-15T07:25:25.000Z</time>
      </trkpt>
      <trkpt lat="49.88487" lon="4.82404">
        <ele>169</ele>
        <time>2022-07-15T07:25:26.000Z</time>
      </trkpt>
      <trkpt lat="49.88487" lon="4.82404">
        <ele>169</ele>
        <time>2022-07-15T07:25:27.000Z</time>
      </trkpt>
      <trkpt lat="49.88487" lon="4.82404">
        <ele>169</ele>
        <time>2022-07-15T07:25:28.000Z</time>
      </trkpt>
      <trkpt lat="49.88487" lon="4.82404">
        <ele>169</ele>
        <time>2022-07-15T07:25:29.000Z</time>
      </trkpt>
      <trkpt lat="49.88487" lon="4.82404">
        <ele>169</ele>
        <time>2022-07-15T07:25:30.000Z</time>
      </trkpt>
      <trkpt lat="49.88487" lon="4.82404">
        <ele>169</ele>
        <time>2022-07-15T07:25:31.000Z</time>
      </trkpt>
      <trkpt lat="49.88487" lon="4.82404">
        <ele>169</ele>
        <time>2022-07-15T07:25:32.000Z</time>
      </trkpt>
      <trkpt lat="49.88487" lon="4.82404">
        <ele>169</ele>
        <time>2022-07-15T07:25:33.000Z</time>
      </trkpt>
      <trkpt lat="49.88487" lon="4.82404">
        <ele>169</ele>
        <time>2022-07-15T07:25:34.000Z</time>
      </trkpt>
      <trkpt lat="49.88487" lon="4.82403">
        <ele>169</ele>
        <time>2022-07-15T07:25:35.000Z</time>
      </trkpt>
      <trkpt lat="49.88487" lon="4.82404">
        <ele>169</ele>
        <time>2022-07-15T07:25:36.000Z</time>
      </trkpt>
      <trkpt lat="49.88487" lon="4.82404">
        <ele>169</ele>
        <time>2022-07-15T07:25:37.000Z</time>
      </trkpt>
      <trkpt lat="49.88488" lon="4.82403">
        <ele>169</ele>
        <time>2022-07-15T07:25:38.000Z</time>
      </trkpt>
      <trkpt lat="49.88489" lon="4.82403">
        <ele>169</ele>
        <time>2022-07-15T07:25:39.000Z</time>
      </trkpt>
      <trkpt lat="49.8849" lon="4.82402">
        <ele>169</ele>
        <time>2022-07-15T07:25:40.000Z</time>
      </trkpt>
      <trkpt lat="49.8849" lon="4.82402">
        <ele>169</ele>
        <time>2022-07-15T07:25:41.000Z</time>
      </trkpt>
      <trkpt lat="49.88491" lon="4.82402">
        <ele>169</ele>
        <time>2022-07-15T07:25:42.000Z</time>
      </trkpt>
      <trkpt lat="49.88491" lon="4.82402">
        <ele>169</ele>
        <time>2022-07-15T07:25:43.000Z</time>
      </trkpt>
      <trkpt lat="49.88491" lon="4.82402">
        <ele>169</ele>
        <time>2022-07-15T07:25:44.000Z</time>
      </trkpt>
      <trkpt lat="49.88491" lon="4.82402">
        <ele>169</ele>
        <time>2022-07-15T07:25:45.000Z</time>
      </trkpt>
      <trkpt lat="49.88491" lon="4.82402">
        <ele>169</ele>
        <time>2022-07-15T07:25:46.000Z</time>
      </trkpt>
      <trkpt lat="49.88491" lon="4.82402">
        <ele>169</ele>
        <time>2022-07-15T07:25:47.000Z</time>
      </trkpt>
      <trkpt lat="49.88491" lon="4.82402">
        <ele>169</ele>
        <time>2022-07-15T07:25:48.000Z</time>
      </trkpt>
      <trkpt lat="49.88491" lon="4.82402">
        <ele>169</ele>
        <time>2022-07-15T07:25:49.000Z</time>
      </trkpt>
      <trkpt lat="49.88491" lon="4.82402">
        <ele>169</ele>
        <time>2022-07-15T07:25:50.000Z</time>
      </trkpt>
      <trkpt lat="49.88491" lon="4.82402">
        <ele>169</ele>
        <time>2022-07-15T07:25:51.000Z</time>
      </trkpt>
      <trkpt lat="49.88491" lon="4.82402">
        <ele>169</ele>
        <time>2022-07-15T07:25:52.000Z</time>
      </trkpt>
      <trkpt lat="49.88491" lon="4.82402">
        <ele>169</ele>
        <time>2022-07-15T07:25:53.000Z</time>
      </trkpt>
      <trkpt lat="49.88491" lon="4.82402">
        <ele>169</ele>
        <time>2022-07-15T07:25:54.000Z</time>
      </trkpt>
      <trkpt lat="49.88491" lon="4.82402">
        <ele>169</ele>
        <time>2022-07-15T07:25:55.000Z</time>
      </trkpt>
      <trkpt lat="49.88491" lon="4.82401">
        <ele>169</ele>
        <time>2022-07-15T07:25:56.000Z</time>
      </trkpt>
      <trkpt lat="49.8849" lon="4.82401">
        <ele>169</ele>
        <time>2022-07-15T07:25:57.000Z</time>
      </trkpt>
      <trkpt lat="49.8849" lon="4.82402">
        <ele>169</ele>
        <time>2022-07-15T07:25:58.000Z</time>
      </trkpt>
      <trkpt lat="49.8849" lon="4.82402">
        <ele>169</ele>
        <time>2022-07-15T07:25:59.000Z</time>
      </trkpt>
      <trkpt lat="49.8849" lon="4.82402">
        <ele>169</ele>
        <time>2022-07-15T07:26:00.000Z</time>
      </trkpt>
      <trkpt lat="49.8849" lon="4.82402">
        <ele>169</ele>
        <time>2022-07-15T07:26:01.000Z</time>
      </trkpt>
      <trkpt lat="49.8849" lon="4.82402">
        <ele>169</ele>
        <time>2022-07-15T07:26:02.000Z</time>
      </trkpt>
      <trkpt lat="49.8849" lon="4.82402">
        <ele>169</ele>
        <time>2022-07-15T07:26:03.000Z</time>
      </trkpt>
      <trkpt lat="49.8849" lon="4.82401">
        <ele>169</ele>
        <time>2022-07-15T07:26:04.000Z</time>
      </trkpt>
      <trkpt lat="49.8849" lon="4.82401">
        <ele>169</ele>
        <time>2022-07-15T07:26:05.000Z</time>
      </trkpt>
      <trkpt lat="49.8849" lon="4.82401">
        <ele>169</ele>
        <time>2022-07-15T07:26:06.000Z</time>
      </trkpt>
      <trkpt lat="49.88491" lon="4.824">
        <ele>169</ele>
        <time>2022-07-15T07:26:07.000Z</time>
      </trkpt>
      <trkpt lat="49.88493" lon="4.82399">
        <ele>169</ele>
        <time>2022-07-15T07:26:08.000Z</time>
      </trkpt>
      <trkpt lat="49.88494" lon="4.82398">
        <ele>169</ele>
        <time>2022-07-15T07:26:09.000Z</time>
      </trkpt>
      <trkpt lat="49.88496" lon="4.82397">
        <ele>170</ele>
        <time>2022-07-15T07:26:10.000Z</time>
      </trkpt>
      <trkpt lat="49.88498" lon="4.82395">
        <ele>170</ele>
        <time>2022-07-15T07:26:11.000Z</time>
      </trkpt>
      <trkpt lat="49.88501" lon="4.82394">
        <ele>170</ele>
        <time>2022-07-15T07:26:12.000Z</time>
      </trkpt>
      <trkpt lat="49.88504" lon="4.82392">
        <ele>170</ele>
        <time>2022-07-15T07:26:13.000Z</time>
      </trkpt>
      <trkpt lat="49.88507" lon="4.82391">
        <ele>170</ele>
        <time>2022-07-15T07:26:14.000Z</time>
      </trkpt>
      <trkpt lat="49.88511" lon="4.82391">
        <ele>170</ele>
        <time>2022-07-15T07:26:15.000Z</time>
      </trkpt>
      <trkpt lat="49.88515" lon="4.8239">
        <ele>170</ele>
        <time>2022-07-15T07:26:16.000Z</time>
      </trkpt>
      <trkpt lat="49.88519" lon="4.82389">
        <ele>170</ele>
        <time>2022-07-15T07:26:17.000Z</time>
      </trkpt>
      <trkpt lat="49.88522" lon="4.82388">
        <ele>171</ele>
        <time>2022-07-15T07:26:18.000Z</time>
      </trkpt>
      <trkpt lat="49.88525" lon="4.82388">
        <ele>171</ele>
        <time>2022-07-15T07:26:19.000Z</time>
      </trkpt>
      <trkpt lat="49.88528" lon="4.82387">
        <ele>171</ele>
        <time>2022-07-15T07:26:20.000Z</time>
      </trkpt>
      <trkpt lat="49.88531" lon="4.82387">
        <ele>171</ele>
        <time>2022-07-15T07:26:21.000Z</time>
      </trkpt>
      <trkpt lat="49.88534" lon="4.82386">
        <ele>172</ele>
        <time>2022-07-15T07:26:22.000Z</time>
      </trkpt>
      <trkpt lat="49.88537" lon="4.82386">
        <ele>172</ele>
        <time>2022-07-15T07:26:23.000Z</time>
      </trkpt>
      <trkpt lat="49.88541" lon="4.82386">
        <ele>172</ele>
        <time>2022-07-15T07:26:24.000Z</time>
      </trkpt>
      <trkpt lat="49.88544" lon="4.82385">
        <ele>172</ele>
        <time>2022-07-15T07:26:25.000Z</time>
      </trkpt>
      <trkpt lat="49.88548" lon="4.82384">
        <ele>172</ele>
        <time>2022-07-15T07:26:26.000Z</time>
      </trkpt>
      <trkpt lat="49.88552" lon="4.82382">
        <ele>172</ele>
        <time>2022-07-15T07:26:27.000Z</time>
      </trkpt>
      <trkpt lat="49.88555" lon="4.8238">
        <ele>172</ele>
        <time>2022-07-15T07:26:28.000Z</time>
      </trkpt>
      <trkpt lat="49.88558" lon="4.82377">
        <ele>172</ele>
        <time>2022-07-15T07:26:29.000Z</time>
      </trkpt>
      <trkpt lat="49.88561" lon="4.82374">
        <ele>172</ele>
        <time>2022-07-15T07:26:30.000Z</time>
      </trkpt>
      <trkpt lat="49.88563" lon="4.82371">
        <ele>172</ele>
        <time>2022-07-15T07:26:31.000Z</time>
      </trkpt>
      <trkpt lat="49.88564" lon="4.82367">
        <ele>172</ele>
        <time>2022-07-15T07:26:32.000Z</time>
      </trkpt>
      <trkpt lat="49.88566" lon="4.82364">
        <ele>172</ele>
        <time>2022-07-15T07:26:33.000Z</time>
      </trkpt>
      <trkpt lat="49.88567" lon="4.82361">
        <ele>171</ele>
        <time>2022-07-15T07:26:34.000Z</time>
      </trkpt>
      <trkpt lat="49.88569" lon="4.82356">
        <ele>171</ele>
        <time>2022-07-15T07:26:35.000Z</time>
      </trkpt>
      <trkpt lat="49.88571" lon="4.82352">
        <ele>171</ele>
        <time>2022-07-15T07:26:36.000Z</time>
      </trkpt>
      <trkpt lat="49.88574" lon="4.82347">
        <ele>171</ele>
        <time>2022-07-15T07:26:37.000Z</time>
      </trkpt>
      <trkpt lat="49.88578" lon="4.82345">
        <ele>171</ele>
        <time>2022-07-15T07:26:38.000Z</time>
      </trkpt>
      <trkpt lat="49.88581" lon="4.82344">
        <ele>171</ele>
        <time>2022-07-15T07:26:39.000Z</time>
      </trkpt>
      <trkpt lat="49.88585" lon="4.82344">
        <ele>171</ele>
        <time>2022-07-15T07:26:40.000Z</time>
      </trkpt>
      <trkpt lat="49.88588" lon="4.82343">
        <ele>171</ele>
        <time>2022-07-15T07:26:41.000Z</time>
      </trkpt>
      <trkpt lat="49.88591" lon="4.82343">
        <ele>170</ele>
        <time>2022-07-15T07:26:42.000Z</time>
      </trkpt>
      <trkpt lat="49.88594" lon="4.82342">
        <ele>170</ele>
        <time>2022-07-15T07:26:43.000Z</time>
      </trkpt>
      <trkpt lat="49.88597" lon="4.82341">
        <ele>170</ele>
        <time>2022-07-15T07:26:44.000Z</time>
      </trkpt>
      <trkpt lat="49.886" lon="4.82341">
        <ele>170</ele>
        <time>2022-07-15T07:26:45.000Z</time>
      </trkpt>
      <trkpt lat="49.88604" lon="4.82341">
        <ele>171</ele>
        <time>2022-07-15T07:26:46.000Z</time>
      </trkpt>
      <trkpt lat="49.88607" lon="4.82341">
        <ele>171</ele>
        <time>2022-07-15T07:26:47.000Z</time>
      </trkpt>
      <trkpt lat="49.8861" lon="4.8234">
        <ele>171</ele>
        <time>2022-07-15T07:26:48.000Z</time>
      </trkpt>
      <trkpt lat="49.88613" lon="4.82339">
        <ele>171</ele>
        <time>2022-07-15T07:26:49.000Z</time>
      </trkpt>
      <trkpt lat="49.88615" lon="4.82338">
        <ele>171</ele>
        <time>2022-07-15T07:26:50.000Z</time>
      </trkpt>
      <trkpt lat="49.88619" lon="4.82337">
        <ele>171</ele>
        <time>2022-07-15T07:26:51.000Z</time>
      </trkpt>
      <trkpt lat="49.88622" lon="4.82337">
        <ele>172</ele>
        <time>2022-07-15T07:26:52.000Z</time>
      </trkpt>
      <trkpt lat="49.88625" lon="4.82337">
        <ele>172</ele>
        <time>2022-07-15T07:26:53.000Z</time>
      </trkpt>
      <trkpt lat="49.88628" lon="4.82337">
        <ele>172</ele>
        <time>2022-07-15T07:26:54.000Z</time>
      </trkpt>
      <trkpt lat="49.88631" lon="4.82337">
        <ele>172</ele>
        <time>2022-07-15T07:26:55.000Z</time>
      </trkpt>
      <trkpt lat="49.88634" lon="4.82338">
        <ele>172</ele>
        <time>2022-07-15T07:26:56.000Z</time>
      </trkpt>
      <trkpt lat="49.88637" lon="4.82339">
        <ele>172</ele>
        <time>2022-07-15T07:26:57.000Z</time>
      </trkpt>
      <trkpt lat="49.8864" lon="4.8234">
        <ele>173</ele>
        <time>2022-07-15T07:26:58.000Z</time>
      </trkpt>
      <trkpt lat="49.88642" lon="4.82342">
        <ele>173</ele>
        <time>2022-07-15T07:26:59.000Z</time>
      </trkpt>
      <trkpt lat="49.88645" lon="4.82344">
        <ele>173</ele>
        <time>2022-07-15T07:27:00.000Z</time>
      </trkpt>
      <trkpt lat="49.88647" lon="4.82346">
        <ele>173</ele>
        <time>2022-07-15T07:27:01.000Z</time>
      </trkpt>
      <trkpt lat="49.8865" lon="4.82348">
        <ele>173</ele>
        <time>2022-07-15T07:27:02.000Z</time>
      </trkpt>
      <trkpt lat="49.88652" lon="4.82351">
        <ele>173</ele>
        <time>2022-07-15T07:27:03.000Z</time>
      </trkpt>
      <trkpt lat="49.88655" lon="4.82353">
        <ele>173</ele>
        <time>2022-07-15T07:27:04.000Z</time>
      </trkpt>
      <trkpt lat="49.88657" lon="4.82356">
        <ele>173</ele>
        <time>2022-07-15T07:27:05.000Z</time>
      </trkpt>
      <trkpt lat="49.88659" lon="4.82359">
        <ele>173</ele>
        <time>2022-07-15T07:27:06.000Z</time>
      </trkpt>
      <trkpt lat="49.88661" lon="4.82361">
        <ele>173</ele>
        <time>2022-07-15T07:27:07.000Z</time>
      </trkpt>
      <trkpt lat="49.88662" lon="4.82363">
        <ele>174</ele>
        <time>2022-07-15T07:27:08.000Z</time>
      </trkpt>
      <trkpt lat="49.88665" lon="4.82365">
        <ele>174</ele>
        <time>2022-07-15T07:27:09.000Z</time>
      </trkpt>
      <trkpt lat="49.88667" lon="4.82368">
        <ele>174</ele>
        <time>2022-07-15T07:27:10.000Z</time>
      </trkpt>
      <trkpt lat="49.88669" lon="4.8237">
        <ele>174</ele>
        <time>2022-07-15T07:27:11.000Z</time>
      </trkpt>
      <trkpt lat="49.88671" lon="4.82371">
        <ele>174</ele>
        <time>2022-07-15T07:27:12.000Z</time>
      </trkpt>
      <trkpt lat="49.88673" lon="4.82372">
        <ele>175</ele>
        <time>2022-07-15T07:27:13.000Z</time>
      </trkpt>
      <trkpt lat="49.88674" lon="4.82372">
        <ele>175</ele>
        <time>2022-07-15T07:27:14.000Z</time>
      </trkpt>
      <trkpt lat="49.88676" lon="4.82373">
        <ele>175</ele>
        <time>2022-07-15T07:27:15.000Z</time>
      </trkpt>
      <trkpt lat="49.88678" lon="4.82373">
        <ele>175</ele>
        <time>2022-07-15T07:27:16.000Z</time>
      </trkpt>
      <trkpt lat="49.88681" lon="4.82374">
        <ele>176</ele>
        <time>2022-07-15T07:27:17.000Z</time>
      </trkpt>
      <trkpt lat="49.88683" lon="4.82375">
        <ele>176</ele>
        <time>2022-07-15T07:27:18.000Z</time>
      </trkpt>
      <trkpt lat="49.88685" lon="4.82376">
        <ele>176</ele>
        <time>2022-07-15T07:27:19.000Z</time>
      </trkpt>
      <trkpt lat="49.88688" lon="4.82377">
        <ele>176</ele>
        <time>2022-07-15T07:27:20.000Z</time>
      </trkpt>
      <trkpt lat="49.8869" lon="4.82377">
        <ele>177</ele>
        <time>2022-07-15T07:27:21.000Z</time>
      </trkpt>
      <trkpt lat="49.88692" lon="4.82378">
        <ele>177</ele>
        <time>2022-07-15T07:27:22.000Z</time>
      </trkpt>
      <trkpt lat="49.88695" lon="4.82378">
        <ele>177</ele>
        <time>2022-07-15T07:27:23.000Z</time>
      </trkpt>
      <trkpt lat="49.88697" lon="4.82379">
        <ele>177</ele>
        <time>2022-07-15T07:27:24.000Z</time>
      </trkpt>
      <trkpt lat="49.88699" lon="4.8238">
        <ele>178</ele>
        <time>2022-07-15T07:27:25.000Z</time>
      </trkpt>
      <trkpt lat="49.88701" lon="4.8238">
        <ele>178</ele>
        <time>2022-07-15T07:27:26.000Z</time>
      </trkpt>
      <trkpt lat="49.88703" lon="4.82381">
        <ele>178</ele>
        <time>2022-07-15T07:27:27.000Z</time>
      </trkpt>
      <trkpt lat="49.88706" lon="4.82382">
        <ele>178</ele>
        <time>2022-07-15T07:27:28.000Z</time>
      </trkpt>
      <trkpt lat="49.88708" lon="4.82383">
        <ele>179</ele>
        <time>2022-07-15T07:27:29.000Z</time>
      </trkpt>
      <trkpt lat="49.8871" lon="4.82383">
        <ele>179</ele>
        <time>2022-07-15T07:27:30.000Z</time>
      </trkpt>
      <trkpt lat="49.88711" lon="4.82384">
        <ele>179</ele>
        <time>2022-07-15T07:27:31.000Z</time>
      </trkpt>
      <trkpt lat="49.88713" lon="4.82384">
        <ele>179</ele>
        <time>2022-07-15T07:27:32.000Z</time>
      </trkpt>
      <trkpt lat="49.88715" lon="4.82385">
        <ele>180</ele>
        <time>2022-07-15T07:27:33.000Z</time>
      </trkpt>
      <trkpt lat="49.88716" lon="4.82386">
        <ele>180</ele>
        <time>2022-07-15T07:27:34.000Z</time>
      </trkpt>
      <trkpt lat="49.88718" lon="4.82386">
        <ele>180</ele>
        <time>2022-07-15T07:27:35.000Z</time>
      </trkpt>
      <trkpt lat="49.8872" lon="4.82387">
        <ele>181</ele>
        <time>2022-07-15T07:27:36.000Z</time>
      </trkpt>
      <trkpt lat="49.88721" lon="4.82387">
        <ele>181</ele>
        <time>2022-07-15T07:27:37.000Z</time>
      </trkpt>
      <trkpt lat="49.88723" lon="4.82388">
        <ele>182</ele>
        <time>2022-07-15T07:27:38.000Z</time>
      </trkpt>
      <trkpt lat="49.88726" lon="4.82388">
        <ele>182</ele>
        <time>2022-07-15T07:27:39.000Z</time>
      </trkpt>
      <trkpt lat="49.88727" lon="4.82389">
        <ele>182</ele>
        <time>2022-07-15T07:27:40.000Z</time>
      </trkpt>
      <trkpt lat="49.88728" lon="4.8239">
        <ele>183</ele>
        <time>2022-07-15T07:27:41.000Z</time>
      </trkpt>
      <trkpt lat="49.8873" lon="4.82391">
        <ele>183</ele>
        <time>2022-07-15T07:27:42.000Z</time>
      </trkpt>
      <trkpt lat="49.88732" lon="4.82392">
        <ele>183</ele>
        <time>2022-07-15T07:27:43.000Z</time>
      </trkpt>
      <trkpt lat="49.88733" lon="4.82393">
        <ele>183</ele>
        <time>2022-07-15T07:27:44.000Z</time>
      </trkpt>
      <trkpt lat="49.88735" lon="4.82394">
        <ele>184</ele>
        <time>2022-07-15T07:27:45.000Z</time>
      </trkpt>
      <trkpt lat="49.88737" lon="4.82394">
        <ele>184</ele>
        <time>2022-07-15T07:27:46.000Z</time>
      </trkpt>
      <trkpt lat="49.8874" lon="4.82394">
        <ele>184</ele>
        <time>2022-07-15T07:27:47.000Z</time>
      </trkpt>
      <trkpt lat="49.88742" lon="4.82395">
        <ele>185</ele>
        <time>2022-07-15T07:27:48.000Z</time>
      </trkpt>
      <trkpt lat="49.88744" lon="4.82395">
        <ele>185</ele>
        <time>2022-07-15T07:27:49.000Z</time>
      </trkpt>
      <trkpt lat="49.88745" lon="4.82395">
        <ele>186</ele>
        <time>2022-07-15T07:27:50.000Z</time>
      </trkpt>
      <trkpt lat="49.88747" lon="4.82395">
        <ele>186</ele>
        <time>2022-07-15T07:27:51.000Z</time>
      </trkpt>
      <trkpt lat="49.88749" lon="4.82395">
        <ele>186</ele>
        <time>2022-07-15T07:27:52.000Z</time>
      </trkpt>
      <trkpt lat="49.8875" lon="4.82395">
        <ele>187</ele>
        <time>2022-07-15T07:27:53.000Z</time>
      </trkpt>
      <trkpt lat="49.88752" lon="4.82396">
        <ele>187</ele>
        <time>2022-07-15T07:27:54.000Z</time>
      </trkpt>
      <trkpt lat="49.88755" lon="4.82397">
        <ele>188</ele>
        <time>2022-07-15T07:27:55.000Z</time>
      </trkpt>
      <trkpt lat="49.88758" lon="4.82397">
        <ele>188</ele>
        <time>2022-07-15T07:27:56.000Z</time>
      </trkpt>
      <trkpt lat="49.8876" lon="4.82397">
        <ele>189</ele>
        <time>2022-07-15T07:27:57.000Z</time>
      </trkpt>
      <trkpt lat="49.88762" lon="4.82398">
        <ele>189</ele>
        <time>2022-07-15T07:27:58.000Z</time>
      </trkpt>
      <trkpt lat="49.88764" lon="4.82398">
        <ele>190</ele>
        <time>2022-07-15T07:27:59.000Z</time>
      </trkpt>
      <trkpt lat="49.88766" lon="4.82399">
        <ele>190</ele>
        <time>2022-07-15T07:28:00.000Z</time>
      </trkpt>
      <trkpt lat="49.88768" lon="4.824">
        <ele>191</ele>
        <time>2022-07-15T07:28:01.000Z</time>
      </trkpt>
      <trkpt lat="49.88771" lon="4.824">
        <ele>191</ele>
        <time>2022-07-15T07:28:02.000Z</time>
      </trkpt>
      <trkpt lat="49.88773" lon="4.824">
        <ele>191</ele>
        <time>2022-07-15T07:28:03.000Z</time>
      </trkpt>
      <trkpt lat="49.88775" lon="4.824">
        <ele>192</ele>
        <time>2022-07-15T07:28:04.000Z</time>
      </trkpt>
      <trkpt lat="49.88777" lon="4.82401">
        <ele>192</ele>
        <time>2022-07-15T07:28:05.000Z</time>
      </trkpt>
      <trkpt lat="49.88779" lon="4.82401">
        <ele>193</ele>
        <time>2022-07-15T07:28:06.000Z</time>
      </trkpt>
      <trkpt lat="49.88782" lon="4.82402">
        <ele>193</ele>
        <time>2022-07-15T07:28:07.000Z</time>
      </trkpt>
      <trkpt lat="49.88784" lon="4.82402">
        <ele>194</ele>
        <time>2022-07-15T07:28:08.000Z</time>
      </trkpt>
      <trkpt lat="49.88786" lon="4.82402">
        <ele>194</ele>
        <time>2022-07-15T07:28:09.000Z</time>
      </trkpt>
      <trkpt lat="49.88788" lon="4.82402">
        <ele>195</ele>
        <time>2022-07-15T07:28:10.000Z</time>
      </trkpt>
      <trkpt lat="49.8879" lon="4.82401">
        <ele>195</ele>
        <time>2022-07-15T07:28:11.000Z</time>
      </trkpt>
      <trkpt lat="49.88792" lon="4.82401">
        <ele>196</ele>
        <time>2022-07-15T07:28:12.000Z</time>
      </trkpt>
      <trkpt lat="49.88794" lon="4.82401">
        <ele>196</ele>
        <time>2022-07-15T07:28:13.000Z</time>
      </trkpt>
      <trkpt lat="49.88797" lon="4.82401">
        <ele>197</ele>
        <time>2022-07-15T07:28:14.000Z</time>
      </trkpt>
      <trkpt lat="49.88799" lon="4.82401">
        <ele>197</ele>
        <time>2022-07-15T07:28:15.000Z</time>
      </trkpt>
      <trkpt lat="49.88801" lon="4.82402">
        <ele>198</ele>
        <time>2022-07-15T07:28:16.000Z</time>
      </trkpt>
      <trkpt lat="49.88804" lon="4.82402">
        <ele>198</ele>
        <time>2022-07-15T07:28:17.000Z</time>
      </trkpt>
      <trkpt lat="49.88806" lon="4.82402">
        <ele>199</ele>
        <time>2022-07-15T07:28:18.000Z</time>
      </trkpt>
      <trkpt lat="49.88809" lon="4.82402">
        <ele>199</ele>
        <time>2022-07-15T07:28:19.000Z</time>
      </trkpt>
      <trkpt lat="49.88812" lon="4.82402">
        <ele>200</ele>
        <time>2022-07-15T07:28:20.000Z</time>
      </trkpt>
      <trkpt lat="49.88814" lon="4.82402">
        <ele>200</ele>
        <time>2022-07-15T07:28:21.000Z</time>
      </trkpt>
      <trkpt lat="49.88816" lon="4.82403">
        <ele>200</ele>
        <time>2022-07-15T07:28:22.000Z</time>
      </trkpt>
      <trkpt lat="49.88819" lon="4.82403">
        <ele>201</ele>
        <time>2022-07-15T07:28:23.000Z</time>
      </trkpt>
      <trkpt lat="49.88821" lon="4.82403">
        <ele>201</ele>
        <time>2022-07-15T07:28:24.000Z</time>
      </trkpt>
      <trkpt lat="49.88824" lon="4.82402">
        <ele>202</ele>
        <time>2022-07-15T07:28:25.000Z</time>
      </trkpt>
      <trkpt lat="49.88826" lon="4.82402">
        <ele>202</ele>
        <time>2022-07-15T07:28:26.000Z</time>
      </trkpt>
      <trkpt lat="49.88829" lon="4.82402">
        <ele>202</ele>
        <time>2022-07-15T07:28:27.000Z</time>
      </trkpt>
      <trkpt lat="49.88832" lon="4.82402">
        <ele>203</ele>
        <time>2022-07-15T07:28:28.000Z</time>
      </trkpt>
      <trkpt lat="49.88835" lon="4.82402">
        <ele>203</ele>
        <time>2022-07-15T07:28:29.000Z</time>
      </trkpt>
      <trkpt lat="49.88837" lon="4.82402">
        <ele>204</ele>
        <time>2022-07-15T07:28:30.000Z</time>
      </trkpt>
      <trkpt lat="49.8884" lon="4.82402">
        <ele>204</ele>
        <time>2022-07-15T07:28:31.000Z</time>
      </trkpt>
      <trkpt lat="49.88842" lon="4.82401">
        <ele>204</ele>
        <time>2022-07-15T07:28:32.000Z</time>
      </trkpt>
      <trkpt lat="49.88845" lon="4.824">
        <ele>205</ele>
        <time>2022-07-15T07:28:33.000Z</time>
      </trkpt>
      <trkpt lat="49.88847" lon="4.824">
        <ele>205</ele>
        <time>2022-07-15T07:28:34.000Z</time>
      </trkpt>
      <trkpt lat="49.8885" lon="4.824">
        <ele>205</ele>
        <time>2022-07-15T07:28:35.000Z</time>
      </trkpt>
      <trkpt lat="49.88852" lon="4.82399">
        <ele>206</ele>
        <time>2022-07-15T07:28:36.000Z</time>
      </trkpt>
      <trkpt lat="49.88855" lon="4.82399">
        <ele>206</ele>
        <time>2022-07-15T07:28:37.000Z</time>
      </trkpt>
      <trkpt lat="49.88858" lon="4.82399">
        <ele>206</ele>
        <time>2022-07-15T07:28:38.000Z</time>
      </trkpt>
      <trkpt lat="49.88861" lon="4.82399">
        <ele>207</ele>
        <time>2022-07-15T07:28:39.000Z</time>
      </trkpt>
      <trkpt lat="49.88864" lon="4.82399">
        <ele>207</ele>
        <time>2022-07-15T07:28:40.000Z</time>
      </trkpt>
      <trkpt lat="49.88867" lon="4.82399">
        <ele>207</ele>
        <time>2022-07-15T07:28:41.000Z</time>
      </trkpt>
      <trkpt lat="49.88869" lon="4.82399">
        <ele>208</ele>
        <time>2022-07-15T07:28:42.000Z</time>
      </trkpt>
      <trkpt lat="49.88871" lon="4.82399">
        <ele>208</ele>
        <time>2022-07-15T07:28:43.000Z</time>
      </trkpt>
      <trkpt lat="49.88874" lon="4.82399">
        <ele>208</ele>
        <time>2022-07-15T07:28:44.000Z</time>
      </trkpt>
      <trkpt lat="49.88876" lon="4.82399">
        <ele>209</ele>
        <time>2022-07-15T07:28:45.000Z</time>
      </trkpt>
      <trkpt lat="49.88878" lon="4.824">
        <ele>209</ele>
        <time>2022-07-15T07:28:46.000Z</time>
      </trkpt>
      <trkpt lat="49.8888" lon="4.824">
        <ele>209</ele>
        <time>2022-07-15T07:28:47.000Z</time>
      </trkpt>
      <trkpt lat="49.88882" lon="4.824">
        <ele>210</ele>
        <time>2022-07-15T07:28:48.000Z</time>
      </trkpt>
      <trkpt lat="49.88884" lon="4.824">
        <ele>210</ele>
        <time>2022-07-15T07:28:49.000Z</time>
      </trkpt>
      <trkpt lat="49.88886" lon="4.824">
        <ele>210</ele>
        <time>2022-07-15T07:28:50.000Z</time>
      </trkpt>
      <trkpt lat="49.88887" lon="4.824">
        <ele>210</ele>
        <time>2022-07-15T07:28:51.000Z</time>
      </trkpt>
      <trkpt lat="49.88889" lon="4.824">
        <ele>210</ele>
        <time>2022-07-15T07:28:52.000Z</time>
      </trkpt>
      <trkpt lat="49.8889" lon="4.824">
        <ele>211</ele>
        <time>2022-07-15T07:28:53.000Z</time>
      </trkpt>
      <trkpt lat="49.88892" lon="4.82401">
        <ele>211</ele>
        <time>2022-07-15T07:28:54.000Z</time>
      </trkpt>
      <trkpt lat="49.88894" lon="4.82401">
        <ele>211</ele>
        <time>2022-07-15T07:28:55.000Z</time>
      </trkpt>
      <trkpt lat="49.88896" lon="4.82401">
        <ele>211</ele>
        <time>2022-07-15T07:28:56.000Z</time>
      </trkpt>
      <trkpt lat="49.88898" lon="4.82402">
        <ele>211</ele>
        <time>2022-07-15T07:28:57.000Z</time>
      </trkpt>
      <trkpt lat="49.88899" lon="4.82402">
        <ele>211</ele>
        <time>2022-07-15T07:28:58.000Z</time>
      </trkpt>
      <trkpt lat="49.88902" lon="4.82403">
        <ele>212</ele>
        <time>2022-07-15T07:28:59.000Z</time>
      </trkpt>
      <trkpt lat="49.88904" lon="4.82403">
        <ele>212</ele>
        <time>2022-07-15T07:29:00.000Z</time>
      </trkpt>
      <trkpt lat="49.88905" lon="4.82403">
        <ele>212</ele>
        <time>2022-07-15T07:29:01.000Z</time>
      </trkpt>
      <trkpt lat="49.88907" lon="4.82402">
        <ele>212</ele>
        <time>2022-07-15T07:29:02.000Z</time>
      </trkpt>
      <trkpt lat="49.88909" lon="4.82402">
        <ele>212</ele>
        <time>2022-07-15T07:29:03.000Z</time>
      </trkpt>
      <trkpt lat="49.88912" lon="4.82402">
        <ele>213</ele>
        <time>2022-07-15T07:29:04.000Z</time>
      </trkpt>
      <trkpt lat="49.88914" lon="4.82401">
        <ele>213</ele>
        <time>2022-07-15T07:29:05.000Z</time>
      </trkpt>
      <trkpt lat="49.88916" lon="4.82401">
        <ele>213</ele>
        <time>2022-07-15T07:29:06.000Z</time>
      </trkpt>
      <trkpt lat="49.88918" lon="4.82401">
        <ele>214</ele>
        <time>2022-07-15T07:29:07.000Z</time>
      </trkpt>
      <trkpt lat="49.8892" lon="4.824">
        <ele>214</ele>
        <time>2022-07-15T07:29:08.000Z</time>
      </trkpt>
      <trkpt lat="49.88922" lon="4.824">
        <ele>214</ele>
        <time>2022-07-15T07:29:09.000Z</time>
      </trkpt>
      <trkpt lat="49.88925" lon="4.82399">
        <ele>214</ele>
        <time>2022-07-15T07:29:10.000Z</time>
      </trkpt>
      <trkpt lat="49.88927" lon="4.82399">
        <ele>215</ele>
        <time>2022-07-15T07:29:11.000Z</time>
      </trkpt>
      <trkpt lat="49.88929" lon="4.82399">
        <ele>215</ele>
        <time>2022-07-15T07:29:12.000Z</time>
      </trkpt>
      <trkpt lat="49.88931" lon="4.82399">
        <ele>215</ele>
        <time>2022-07-15T07:29:13.000Z</time>
      </trkpt>
      <trkpt lat="49.88932" lon="4.82399">
        <ele>215</ele>
        <time>2022-07-15T07:29:14.000Z</time>
      </trkpt>
      <trkpt lat="49.88934" lon="4.82399">
        <ele>215</ele>
        <time>2022-07-15T07:29:15.000Z</time>
      </trkpt>
      <trkpt lat="49.88937" lon="4.82398">
        <ele>216</ele>
        <time>2022-07-15T07:29:16.000Z</time>
      </trkpt>
      <trkpt lat="49.88939" lon="4.82398">
        <ele>216</ele>
        <time>2022-07-15T07:29:17.000Z</time>
      </trkpt>
      <trkpt lat="49.88942" lon="4.82397">
        <ele>216</ele>
        <time>2022-07-15T07:29:18.000Z</time>
      </trkpt>
      <trkpt lat="49.88945" lon="4.82397">
        <ele>216</ele>
        <time>2022-07-15T07:29:19.000Z</time>
      </trkpt>
      <trkpt lat="49.88948" lon="4.82397">
        <ele>216</ele>
        <time>2022-07-15T07:29:20.000Z</time>
      </trkpt>
      <trkpt lat="49.8895" lon="4.82397">
        <ele>216</ele>
        <time>2022-07-15T07:29:21.000Z</time>
      </trkpt>
      <trkpt lat="49.88953" lon="4.82396">
        <ele>216</ele>
        <time>2022-07-15T07:29:22.000Z</time>
      </trkpt>
      <trkpt lat="49.88956" lon="4.82396">
        <ele>216</ele>
        <time>2022-07-15T07:29:23.000Z</time>
      </trkpt>
      <trkpt lat="49.88958" lon="4.82396">
        <ele>216</ele>
        <time>2022-07-15T07:29:24.000Z</time>
      </trkpt>
      <trkpt lat="49.8896" lon="4.82396">
        <ele>216</ele>
        <time>2022-07-15T07:29:25.000Z</time>
      </trkpt>
      <trkpt lat="49.88963" lon="4.82396">
        <ele>216</ele>
        <time>2022-07-15T07:29:26.000Z</time>
      </trkpt>
      <trkpt lat="49.88966" lon="4.82395">
        <ele>216</ele>
        <time>2022-07-15T07:29:27.000Z</time>
      </trkpt>
      <trkpt lat="49.88968" lon="4.82395">
        <ele>217</ele>
        <time>2022-07-15T07:29:28.000Z</time>
      </trkpt>
      <trkpt lat="49.88971" lon="4.82395">
        <ele>217</ele>
        <time>2022-07-15T07:29:29.000Z</time>
      </trkpt>
      <trkpt lat="49.88974" lon="4.82395">
        <ele>217</ele>
        <time>2022-07-15T07:29:30.000Z</time>
      </trkpt>
      <trkpt lat="49.88977" lon="4.82395">
        <ele>217</ele>
        <time>2022-07-15T07:29:31.000Z</time>
      </trkpt>
      <trkpt lat="49.8898" lon="4.82394">
        <ele>217</ele>
        <time>2022-07-15T07:29:32.000Z</time>
      </trkpt>
      <trkpt lat="49.88982" lon="4.82394">
        <ele>218</ele>
        <time>2022-07-15T07:29:33.000Z</time>
      </trkpt>
      <trkpt lat="49.88985" lon="4.82393">
        <ele>218</ele>
        <time>2022-07-15T07:29:34.000Z</time>
      </trkpt>
      <trkpt lat="49.88987" lon="4.82392">
        <ele>218</ele>
        <time>2022-07-15T07:29:35.000Z</time>
      </trkpt>
      <trkpt lat="49.8899" lon="4.82392">
        <ele>218</ele>
        <time>2022-07-15T07:29:36.000Z</time>
      </trkpt>
      <trkpt lat="49.88992" lon="4.82392">
        <ele>218</ele>
        <time>2022-07-15T07:29:37.000Z</time>
      </trkpt>
      <trkpt lat="49.88994" lon="4.82392">
        <ele>218</ele>
        <time>2022-07-15T07:29:38.000Z</time>
      </trkpt>
      <trkpt lat="49.88997" lon="4.82392">
        <ele>218</ele>
        <time>2022-07-15T07:29:39.000Z</time>
      </trkpt>
      <trkpt lat="49.88998" lon="4.82391">
        <ele>218</ele>
        <time>2022-07-15T07:29:40.000Z</time>
      </trkpt>
      <trkpt lat="49.89001" lon="4.82391">
        <ele>219</ele>
        <time>2022-07-15T07:29:41.000Z</time>
      </trkpt>
      <trkpt lat="49.89003" lon="4.82391">
        <ele>219</ele>
        <time>2022-07-15T07:29:42.000Z</time>
      </trkpt>
      <trkpt lat="49.89006" lon="4.8239">
        <ele>219</ele>
        <time>2022-07-15T07:29:43.000Z</time>
      </trkpt>
      <trkpt lat="49.89008" lon="4.8239">
        <ele>219</ele>
        <time>2022-07-15T07:29:44.000Z</time>
      </trkpt>
      <trkpt lat="49.89011" lon="4.8239">
        <ele>219</ele>
        <time>2022-07-15T07:29:45.000Z</time>
      </trkpt>
      <trkpt lat="49.89013" lon="4.82391">
        <ele>219</ele>
        <time>2022-07-15T07:29:46.000Z</time>
      </trkpt>
      <trkpt lat="49.89016" lon="4.8239">
        <ele>219</ele>
        <time>2022-07-15T07:29:47.000Z</time>
      </trkpt>
      <trkpt lat="49.89019" lon="4.82389">
        <ele>219</ele>
        <time>2022-07-15T07:29:48.000Z</time>
      </trkpt>
      <trkpt lat="49.89021" lon="4.82389">
        <ele>220</ele>
        <time>2022-07-15T07:29:49.000Z</time>
      </trkpt>
      <trkpt lat="49.89024" lon="4.82388">
        <ele>220</ele>
        <time>2022-07-15T07:29:50.000Z</time>
      </trkpt>
      <trkpt lat="49.89026" lon="4.82387">
        <ele>220</ele>
        <time>2022-07-15T07:29:51.000Z</time>
      </trkpt>
      <trkpt lat="49.89028" lon="4.82386">
        <ele>221</ele>
        <time>2022-07-15T07:29:52.000Z</time>
      </trkpt>
      <trkpt lat="49.8903" lon="4.82386">
        <ele>221</ele>
        <time>2022-07-15T07:29:53.000Z</time>
      </trkpt>
      <trkpt lat="49.89033" lon="4.82385">
        <ele>221</ele>
        <time>2022-07-15T07:29:54.000Z</time>
      </trkpt>
      <trkpt lat="49.89036" lon="4.82384">
        <ele>221</ele>
        <time>2022-07-15T07:29:55.000Z</time>
      </trkpt>
      <trkpt lat="49.89038" lon="4.82383">
        <ele>221</ele>
        <time>2022-07-15T07:29:56.000Z</time>
      </trkpt>
      <trkpt lat="49.89041" lon="4.82382">
        <ele>222</ele>
        <time>2022-07-15T07:29:57.000Z</time>
      </trkpt>
      <trkpt lat="49.89043" lon="4.82381">
        <ele>222</ele>
        <time>2022-07-15T07:29:58.000Z</time>
      </trkpt>
      <trkpt lat="49.89046" lon="4.8238">
        <ele>222</ele>
        <time>2022-07-15T07:29:59.000Z</time>
      </trkpt>
      <trkpt lat="49.89049" lon="4.82379">
        <ele>222</ele>
        <time>2022-07-15T07:30:00.000Z</time>
      </trkpt>
      <trkpt lat="49.89051" lon="4.82378">
        <ele>222</ele>
        <time>2022-07-15T07:30:01.000Z</time>
      </trkpt>
      <trkpt lat="49.89054" lon="4.82377">
        <ele>223</ele>
        <time>2022-07-15T07:30:02.000Z</time>
      </trkpt>
      <trkpt lat="49.89056" lon="4.82376">
        <ele>223</ele>
        <time>2022-07-15T07:30:03.000Z</time>
      </trkpt>
      <trkpt lat="49.89059" lon="4.82375">
        <ele>223</ele>
        <time>2022-07-15T07:30:04.000Z</time>
      </trkpt>
      <trkpt lat="49.89061" lon="4.82374">
        <ele>223</ele>
        <time>2022-07-15T07:30:05.000Z</time>
      </trkpt>
      <trkpt lat="49.89064" lon="4.82373">
        <ele>223</ele>
        <time>2022-07-15T07:30:06.000Z</time>
      </trkpt>
      <trkpt lat="49.89066" lon="4.82373">
        <ele>223</ele>
        <time>2022-07-15T07:30:07.000Z</time>
      </trkpt>
      <trkpt lat="49.89069" lon="4.82372">
        <ele>224</ele>
        <time>2022-07-15T07:30:08.000Z</time>
      </trkpt>
      <trkpt lat="49.89071" lon="4.82371">
        <ele>224</ele>
        <time>2022-07-15T07:30:09.000Z</time>
      </trkpt>
      <trkpt lat="49.89074" lon="4.8237">
        <ele>224</ele>
        <time>2022-07-15T07:30:10.000Z</time>
      </trkpt>
      <trkpt lat="49.89076" lon="4.8237">
        <ele>224</ele>
        <time>2022-07-15T07:30:11.000Z</time>
      </trkpt>
      <trkpt lat="49.89078" lon="4.82369">
        <ele>224</ele>
        <time>2022-07-15T07:30:12.000Z</time>
      </trkpt>
      <trkpt lat="49.89081" lon="4.82368">
        <ele>224</ele>
        <time>2022-07-15T07:30:13.000Z</time>
      </trkpt>
      <trkpt lat="49.89083" lon="4.82368">
        <ele>224</ele>
        <time>2022-07-15T07:30:14.000Z</time>
      </trkpt>
      <trkpt lat="49.89086" lon="4.82367">
        <ele>224</ele>
        <time>2022-07-15T07:30:15.000Z</time>
      </trkpt>
      <trkpt lat="49.89088" lon="4.82366">
        <ele>224</ele>
        <time>2022-07-15T07:30:16.000Z</time>
      </trkpt>
      <trkpt lat="49.89091" lon="4.82365">
        <ele>224</ele>
        <time>2022-07-15T07:30:17.000Z</time>
      </trkpt>
      <trkpt lat="49.89094" lon="4.82364">
        <ele>224</ele>
        <time>2022-07-15T07:30:18.000Z</time>
      </trkpt>
      <trkpt lat="49.89096" lon="4.82364">
        <ele>224</ele>
        <time>2022-07-15T07:30:19.000Z</time>
      </trkpt>
      <trkpt lat="49.89099" lon="4.82362">
        <ele>224</ele>
        <time>2022-07-15T07:30:20.000Z</time>
      </trkpt>
      <trkpt lat="49.89101" lon="4.82362">
        <ele>224</ele>
        <time>2022-07-15T07:30:21.000Z</time>
      </trkpt>
      <trkpt lat="49.89104" lon="4.82361">
        <ele>224</ele>
        <time>2022-07-15T07:30:22.000Z</time>
      </trkpt>
      <trkpt lat="49.89106" lon="4.8236">
        <ele>224</ele>
        <time>2022-07-15T07:30:23.000Z</time>
      </trkpt>
      <trkpt lat="49.89109" lon="4.8236">
        <ele>224</ele>
        <time>2022-07-15T07:30:24.000Z</time>
      </trkpt>
      <trkpt lat="49.89111" lon="4.82359">
        <ele>224</ele>
        <time>2022-07-15T07:30:25.000Z</time>
      </trkpt>
      <trkpt lat="49.89114" lon="4.82359">
        <ele>224</ele>
        <time>2022-07-15T07:30:26.000Z</time>
      </trkpt>
      <trkpt lat="49.89116" lon="4.82359">
        <ele>225</ele>
        <time>2022-07-15T07:30:27.000Z</time>
      </trkpt>
      <trkpt lat="49.89119" lon="4.82359">
        <ele>225</ele>
        <time>2022-07-15T07:30:28.000Z</time>
      </trkpt>
      <trkpt lat="49.89121" lon="4.82359">
        <ele>225</ele>
        <time>2022-07-15T07:30:29.000Z</time>
      </trkpt>
      <trkpt lat="49.89124" lon="4.82359">
        <ele>225</ele>
        <time>2022-07-15T07:30:30.000Z</time>
      </trkpt>
      <trkpt lat="49.89127" lon="4.82359">
        <ele>225</ele>
        <time>2022-07-15T07:30:31.000Z</time>
      </trkpt>
      <trkpt lat="49.8913" lon="4.82359">
        <ele>226</ele>
        <time>2022-07-15T07:30:32.000Z</time>
      </trkpt>
      <trkpt lat="49.89133" lon="4.82358">
        <ele>226</ele>
        <time>2022-07-15T07:30:33.000Z</time>
      </trkpt>
      <trkpt lat="49.89135" lon="4.82357">
        <ele>226</ele>
        <time>2022-07-15T07:30:34.000Z</time>
      </trkpt>
      <trkpt lat="49.89138" lon="4.82356">
        <ele>227</ele>
        <time>2022-07-15T07:30:35.000Z</time>
      </trkpt>
      <trkpt lat="49.89141" lon="4.82355">
        <ele>227</ele>
        <time>2022-07-15T07:30:36.000Z</time>
      </trkpt>
      <trkpt lat="49.89144" lon="4.82354">
        <ele>227</ele>
        <time>2022-07-15T07:30:37.000Z</time>
      </trkpt>
      <trkpt lat="49.89146" lon="4.82354">
        <ele>227</ele>
        <time>2022-07-15T07:30:38.000Z</time>
      </trkpt>
      <trkpt lat="49.89148" lon="4.82354">
        <ele>228</ele>
        <time>2022-07-15T07:30:39.000Z</time>
      </trkpt>
      <trkpt lat="49.89151" lon="4.82354">
        <ele>228</ele>
        <time>2022-07-15T07:30:40.000Z</time>
      </trkpt>
      <trkpt lat="49.89153" lon="4.82353">
        <ele>228</ele>
        <time>2022-07-15T07:30:41.000Z</time>
      </trkpt>
      <trkpt lat="49.89155" lon="4.82353">
        <ele>229</ele>
        <time>2022-07-15T07:30:42.000Z</time>
      </trkpt>
      <trkpt lat="49.89158" lon="4.82353">
        <ele>229</ele>
        <time>2022-07-15T07:30:43.000Z</time>
      </trkpt>
      <trkpt lat="49.8916" lon="4.82352">
        <ele>229</ele>
        <time>2022-07-15T07:30:44.000Z</time>
      </trkpt>
      <trkpt lat="49.89162" lon="4.82352">
        <ele>229</ele>
        <time>2022-07-15T07:30:45.000Z</time>
      </trkpt>
      <trkpt lat="49.89164" lon="4.82352">
        <ele>230</ele>
        <time>2022-07-15T07:30:46.000Z</time>
      </trkpt>
      <trkpt lat="49.89166" lon="4.82352">
        <ele>230</ele>
        <time>2022-07-15T07:30:47.000Z</time>
      </trkpt>
      <trkpt lat="49.89168" lon="4.82351">
        <ele>230</ele>
        <time>2022-07-15T07:30:48.000Z</time>
      </trkpt>
      <trkpt lat="49.89171" lon="4.82351">
        <ele>230</ele>
        <time>2022-07-15T07:30:49.000Z</time>
      </trkpt>
      <trkpt lat="49.89173" lon="4.82352">
        <ele>231</ele>
        <time>2022-07-15T07:30:50.000Z</time>
      </trkpt>
      <trkpt lat="49.89175" lon="4.82352">
        <ele>231</ele>
        <time>2022-07-15T07:30:51.000Z</time>
      </trkpt>
      <trkpt lat="49.89177" lon="4.82353">
        <ele>231</ele>
        <time>2022-07-15T07:30:52.000Z</time>
      </trkpt>
      <trkpt lat="49.89179" lon="4.82354">
        <ele>231</ele>
        <time>2022-07-15T07:30:53.000Z</time>
      </trkpt>
      <trkpt lat="49.89181" lon="4.82354">
        <ele>232</ele>
        <time>2022-07-15T07:30:54.000Z</time>
      </trkpt>
      <trkpt lat="49.89183" lon="4.82356">
        <ele>232</ele>
        <time>2022-07-15T07:30:55.000Z</time>
      </trkpt>
      <trkpt lat="49.89186" lon="4.82357">
        <ele>233</ele>
        <time>2022-07-15T07:30:56.000Z</time>
      </trkpt>
      <trkpt lat="49.89188" lon="4.82358">
        <ele>233</ele>
        <time>2022-07-15T07:30:57.000Z</time>
      </trkpt>
      <trkpt lat="49.8919" lon="4.82359">
        <ele>234</ele>
        <time>2022-07-15T07:30:58.000Z</time>
      </trkpt>
      <trkpt lat="49.89192" lon="4.82361">
        <ele>234</ele>
        <time>2022-07-15T07:30:59.000Z</time>
      </trkpt>
      <trkpt lat="49.89194" lon="4.82362">
        <ele>234</ele>
        <time>2022-07-15T07:31:00.000Z</time>
      </trkpt>
      <trkpt lat="49.89196" lon="4.82364">
        <ele>235</ele>
        <time>2022-07-15T07:31:01.000Z</time>
      </trkpt>
      <trkpt lat="49.89198" lon="4.82365">
        <ele>235</ele>
        <time>2022-07-15T07:31:02.000Z</time>
      </trkpt>
      <trkpt lat="49.892" lon="4.82366">
        <ele>236</ele>
        <time>2022-07-15T07:31:03.000Z</time>
      </trkpt>
      <trkpt lat="49.89202" lon="4.82367">
        <ele>236</ele>
        <time>2022-07-15T07:31:04.000Z</time>
      </trkpt>
      <trkpt lat="49.89204" lon="4.82368">
        <ele>236</ele>
        <time>2022-07-15T07:31:05.000Z</time>
      </trkpt>
      <trkpt lat="49.89206" lon="4.82369">
        <ele>237</ele>
        <time>2022-07-15T07:31:06.000Z</time>
      </trkpt>
      <trkpt lat="49.89208" lon="4.8237">
        <ele>237</ele>
        <time>2022-07-15T07:31:07.000Z</time>
      </trkpt>
      <trkpt lat="49.8921" lon="4.8237">
        <ele>237</ele>
        <time>2022-07-15T07:31:08.000Z</time>
      </trkpt>
      <trkpt lat="49.89212" lon="4.82371">
        <ele>238</ele>
        <time>2022-07-15T07:31:09.000Z</time>
      </trkpt>
      <trkpt lat="49.89215" lon="4.82372">
        <ele>238</ele>
        <time>2022-07-15T07:31:10.000Z</time>
      </trkpt>
      <trkpt lat="49.89217" lon="4.82373">
        <ele>238</ele>
        <time>2022-07-15T07:31:11.000Z</time>
      </trkpt>
      <trkpt lat="49.89219" lon="4.82374">
        <ele>238</ele>
        <time>2022-07-15T07:31:12.000Z</time>
      </trkpt>
      <trkpt lat="49.89221" lon="4.82375">
        <ele>238</ele>
        <time>2022-07-15T07:31:13.000Z</time>
      </trkpt>
      <trkpt lat="49.89223" lon="4.82377">
        <ele>238</ele>
        <time>2022-07-15T07:31:14.000Z</time>
      </trkpt>
      <trkpt lat="49.89226" lon="4.82378">
        <ele>239</ele>
        <time>2022-07-15T07:31:15.000Z</time>
      </trkpt>
      <trkpt lat="49.89228" lon="4.82379">
        <ele>239</ele>
        <time>2022-07-15T07:31:16.000Z</time>
      </trkpt>
      <trkpt lat="49.8923" lon="4.8238">
        <ele>239</ele>
        <time>2022-07-15T07:31:17.000Z</time>
      </trkpt>
      <trkpt lat="49.89231" lon="4.82381">
        <ele>239</ele>
        <time>2022-07-15T07:31:18.000Z</time>
      </trkpt>
      <trkpt lat="49.89233" lon="4.82382">
        <ele>239</ele>
        <time>2022-07-15T07:31:19.000Z</time>
      </trkpt>
      <trkpt lat="49.89235" lon="4.82383">
        <ele>240</ele>
        <time>2022-07-15T07:31:20.000Z</time>
      </trkpt>
      <trkpt lat="49.89236" lon="4.82384">
        <ele>240</ele>
        <time>2022-07-15T07:31:21.000Z</time>
      </trkpt>
      <trkpt lat="49.89238" lon="4.82385">
        <ele>240</ele>
        <time>2022-07-15T07:31:22.000Z</time>
      </trkpt>
      <trkpt lat="49.8924" lon="4.82385">
        <ele>241</ele>
        <time>2022-07-15T07:31:23.000Z</time>
      </trkpt>
      <trkpt lat="49.89241" lon="4.82386">
        <ele>241</ele>
        <time>2022-07-15T07:31:24.000Z</time>
      </trkpt>
      <trkpt lat="49.89243" lon="4.82387">
        <ele>241</ele>
        <time>2022-07-15T07:31:25.000Z</time>
      </trkpt>
      <trkpt lat="49.89244" lon="4.82387">
        <ele>242</ele>
        <time>2022-07-15T07:31:26.000Z</time>
      </trkpt>
      <trkpt lat="49.89247" lon="4.82388">
        <ele>242</ele>
        <time>2022-07-15T07:31:27.000Z</time>
      </trkpt>
      <trkpt lat="49.89249" lon="4.82388">
        <ele>242</ele>
        <time>2022-07-15T07:31:28.000Z</time>
      </trkpt>
      <trkpt lat="49.89252" lon="4.82389">
        <ele>243</ele>
        <time>2022-07-15T07:31:29.000Z</time>
      </trkpt>
      <trkpt lat="49.89254" lon="4.82389">
        <ele>243</ele>
        <time>2022-07-15T07:31:30.000Z</time>
      </trkpt>
      <trkpt lat="49.89256" lon="4.8239">
        <ele>244</ele>
        <time>2022-07-15T07:31:31.000Z</time>
      </trkpt>
      <trkpt lat="49.89258" lon="4.8239">
        <ele>244</ele>
        <time>2022-07-15T07:31:32.000Z</time>
      </trkpt>
      <trkpt lat="49.89261" lon="4.8239">
        <ele>245</ele>
        <time>2022-07-15T07:31:33.000Z</time>
      </trkpt>
      <trkpt lat="49.89263" lon="4.8239">
        <ele>245</ele>
        <time>2022-07-15T07:31:34.000Z</time>
      </trkpt>
      <trkpt lat="49.89265" lon="4.8239">
        <ele>246</ele>
        <time>2022-07-15T07:31:35.000Z</time>
      </trkpt>
      <trkpt lat="49.89268" lon="4.82391">
        <ele>246</ele>
        <time>2022-07-15T07:31:36.000Z</time>
      </trkpt>
      <trkpt lat="49.8927" lon="4.82391">
        <ele>247</ele>
        <time>2022-07-15T07:31:37.000Z</time>
      </trkpt>
      <trkpt lat="49.89272" lon="4.82391">
        <ele>247</ele>
        <time>2022-07-15T07:31:38.000Z</time>
      </trkpt>
      <trkpt lat="49.89275" lon="4.82391">
        <ele>248</ele>
        <time>2022-07-15T07:31:39.000Z</time>
      </trkpt>
      <trkpt lat="49.89277" lon="4.82391">
        <ele>248</ele>
        <time>2022-07-15T07:31:40.000Z</time>
      </trkpt>
      <trkpt lat="49.8928" lon="4.82391">
        <ele>249</ele>
        <time>2022-07-15T07:31:41.000Z</time>
      </trkpt>
      <trkpt lat="49.89282" lon="4.82391">
        <ele>249</ele>
        <time>2022-07-15T07:31:42.000Z</time>
      </trkpt>
      <trkpt lat="49.89284" lon="4.8239">
        <ele>250</ele>
        <time>2022-07-15T07:31:43.000Z</time>
      </trkpt>
      <trkpt lat="49.89287" lon="4.8239">
        <ele>251</ele>
        <time>2022-07-15T07:31:44.000Z</time>
      </trkpt>
      <trkpt lat="49.89289" lon="4.8239">
        <ele>251</ele>
        <time>2022-07-15T07:31:45.000Z</time>
      </trkpt>
      <trkpt lat="49.8929" lon="4.8239">
        <ele>251</ele>
        <time>2022-07-15T07:31:46.000Z</time>
      </trkpt>
      <trkpt lat="49.89292" lon="4.82389">
        <ele>252</ele>
        <time>2022-07-15T07:31:47.000Z</time>
      </trkpt>
      <trkpt lat="49.89294" lon="4.82388">
        <ele>252</ele>
        <time>2022-07-15T07:31:48.000Z</time>
      </trkpt>
      <trkpt lat="49.89296" lon="4.82387">
        <ele>253</ele>
        <time>2022-07-15T07:31:49.000Z</time>
      </trkpt>
      <trkpt lat="49.89298" lon="4.82386">
        <ele>253</ele>
        <time>2022-07-15T07:31:50.000Z</time>
      </trkpt>
      <trkpt lat="49.89299" lon="4.82385">
        <ele>254</ele>
        <time>2022-07-15T07:31:51.000Z</time>
      </trkpt>
      <trkpt lat="49.89301" lon="4.82384">
        <ele>254</ele>
        <time>2022-07-15T07:31:52.000Z</time>
      </trkpt>
      <trkpt lat="49.89302" lon="4.82382">
        <ele>255</ele>
        <time>2022-07-15T07:31:53.000Z</time>
      </trkpt>
      <trkpt lat="49.89304" lon="4.82381">
        <ele>256</ele>
        <time>2022-07-15T07:31:54.000Z</time>
      </trkpt>
      <trkpt lat="49.89306" lon="4.82379">
        <ele>256</ele>
        <time>2022-07-15T07:31:55.000Z</time>
      </trkpt>
      <trkpt lat="49.89308" lon="4.82378">
        <ele>257</ele>
        <time>2022-07-15T07:31:56.000Z</time>
      </trkpt>
      <trkpt lat="49.8931" lon="4.82376">
        <ele>257</ele>
        <time>2022-07-15T07:31:57.000Z</time>
      </trkpt>
      <trkpt lat="49.89312" lon="4.82374">
        <ele>257</ele>
        <time>2022-07-15T07:31:58.000Z</time>
      </trkpt>
      <trkpt lat="49.89313" lon="4.82372">
        <ele>258</ele>
        <time>2022-07-15T07:31:59.000Z</time>
      </trkpt>
      <trkpt lat="49.89315" lon="4.8237">
        <ele>258</ele>
        <time>2022-07-15T07:32:00.000Z</time>
      </trkpt>
      <trkpt lat="49.89317" lon="4.82368">
        <ele>258</ele>
        <time>2022-07-15T07:32:01.000Z</time>
      </trkpt>
      <trkpt lat="49.89318" lon="4.82365">
        <ele>259</ele>
        <time>2022-07-15T07:32:02.000Z</time>
      </trkpt>
      <trkpt lat="49.8932" lon="4.82362">
        <ele>259</ele>
        <time>2022-07-15T07:32:03.000Z</time>
      </trkpt>
      <trkpt lat="49.89322" lon="4.8236">
        <ele>259</ele>
        <time>2022-07-15T07:32:04.000Z</time>
      </trkpt>
      <trkpt lat="49.89323" lon="4.82357">
        <ele>260</ele>
        <time>2022-07-15T07:32:05.000Z</time>
      </trkpt>
      <trkpt lat="49.89324" lon="4.82354">
        <ele>260</ele>
        <time>2022-07-15T07:32:06.000Z</time>
      </trkpt>
      <trkpt lat="49.89325" lon="4.82351">
        <ele>260</ele>
        <time>2022-07-15T07:32:07.000Z</time>
      </trkpt>
      <trkpt lat="49.89327" lon="4.82348">
        <ele>260</ele>
        <time>2022-07-15T07:32:08.000Z</time>
      </trkpt>
      <trkpt lat="49.89328" lon="4.82345">
        <ele>260</ele>
        <time>2022-07-15T07:32:09.000Z</time>
      </trkpt>
      <trkpt lat="49.89329" lon="4.82342">
        <ele>260</ele>
        <time>2022-07-15T07:32:10.000Z</time>
      </trkpt>
      <trkpt lat="49.8933" lon="4.82339">
        <ele>261</ele>
        <time>2022-07-15T07:32:11.000Z</time>
      </trkpt>
      <trkpt lat="49.89331" lon="4.82337">
        <ele>261</ele>
        <time>2022-07-15T07:32:12.000Z</time>
      </trkpt>
      <trkpt lat="49.89333" lon="4.82335">
        <ele>260</ele>
        <time>2022-07-15T07:32:13.000Z</time>
      </trkpt>
      <trkpt lat="49.89334" lon="4.82333">
        <ele>260</ele>
        <time>2022-07-15T07:32:14.000Z</time>
      </trkpt>
      <trkpt lat="49.89335" lon="4.82331">
        <ele>260</ele>
        <time>2022-07-15T07:32:15.000Z</time>
      </trkpt>
      <trkpt lat="49.89335" lon="4.8233">
        <ele>260</ele>
        <time>2022-07-15T07:32:16.000Z</time>
      </trkpt>
      <trkpt lat="49.89337" lon="4.82328">
        <ele>260</ele>
        <time>2022-07-15T07:32:17.000Z</time>
      </trkpt>
      <trkpt lat="49.89338" lon="4.82325">
        <ele>260</ele>
        <time>2022-07-15T07:32:18.000Z</time>
      </trkpt>
      <trkpt lat="49.89339" lon="4.82324">
        <ele>260</ele>
        <time>2022-07-15T07:32:19.000Z</time>
      </trkpt>
      <trkpt lat="49.8934" lon="4.82322">
        <ele>260</ele>
        <time>2022-07-15T07:32:20.000Z</time>
      </trkpt>
      <trkpt lat="49.89341" lon="4.82321">
        <ele>259</ele>
        <time>2022-07-15T07:32:21.000Z</time>
      </trkpt>
      <trkpt lat="49.89342" lon="4.82319">
        <ele>259</ele>
        <time>2022-07-15T07:32:22.000Z</time>
      </trkpt>
      <trkpt lat="49.89344" lon="4.82317">
        <ele>259</ele>
        <time>2022-07-15T07:32:23.000Z</time>
      </trkpt>
      <trkpt lat="49.89346" lon="4.82315">
        <ele>259</ele>
        <time>2022-07-15T07:32:24.000Z</time>
      </trkpt>
      <trkpt lat="49.89348" lon="4.82313">
        <ele>259</ele>
        <time>2022-07-15T07:32:25.000Z</time>
      </trkpt>
      <trkpt lat="49.89351" lon="4.82311">
        <ele>259</ele>
        <time>2022-07-15T07:32:26.000Z</time>
      </trkpt>
      <trkpt lat="49.89353" lon="4.82309">
        <ele>259</ele>
        <time>2022-07-15T07:32:27.000Z</time>
      </trkpt>
      <trkpt lat="49.89356" lon="4.82307">
        <ele>259</ele>
        <time>2022-07-15T07:32:28.000Z</time>
      </trkpt>
      <trkpt lat="49.89358" lon="4.82305">
        <ele>259</ele>
        <time>2022-07-15T07:32:29.000Z</time>
      </trkpt>
      <trkpt lat="49.8936" lon="4.82303">
        <ele>258</ele>
        <time>2022-07-15T07:32:30.000Z</time>
      </trkpt>
      <trkpt lat="49.89363" lon="4.82301">
        <ele>258</ele>
        <time>2022-07-15T07:32:31.000Z</time>
      </trkpt>
      <trkpt lat="49.89365" lon="4.823">
        <ele>258</ele>
        <time>2022-07-15T07:32:32.000Z</time>
      </trkpt>
      <trkpt lat="49.89368" lon="4.82299">
        <ele>258</ele>
        <time>2022-07-15T07:32:33.000Z</time>
      </trkpt>
      <trkpt lat="49.8937" lon="4.82298">
        <ele>258</ele>
        <time>2022-07-15T07:32:34.000Z</time>
      </trkpt>
      <trkpt lat="49.89373" lon="4.82297">
        <ele>258</ele>
        <time>2022-07-15T07:32:35.000Z</time>
      </trkpt>
      <trkpt lat="49.89375" lon="4.82297">
        <ele>259</ele>
        <time>2022-07-15T07:32:36.000Z</time>
      </trkpt>
      <trkpt lat="49.89378" lon="4.82297">
        <ele>259</ele>
        <time>2022-07-15T07:32:37.000Z</time>
      </trkpt>
      <trkpt lat="49.8938" lon="4.82297">
        <ele>259</ele>
        <time>2022-07-15T07:32:38.000Z</time>
      </trkpt>
      <trkpt lat="49.89383" lon="4.82298">
        <ele>259</ele>
        <time>2022-07-15T07:32:39.000Z</time>
      </trkpt>
      <trkpt lat="49.89385" lon="4.82298">
        <ele>259</ele>
        <time>2022-07-15T07:32:40.000Z</time>
      </trkpt>
      <trkpt lat="49.89388" lon="4.82299">
        <ele>259</ele>
        <time>2022-07-15T07:32:41.000Z</time>
      </trkpt>
      <trkpt lat="49.89391" lon="4.82299">
        <ele>259</ele>
        <time>2022-07-15T07:32:42.000Z</time>
      </trkpt>
      <trkpt lat="49.89393" lon="4.823">
        <ele>259</ele>
        <time>2022-07-15T07:32:43.000Z</time>
      </trkpt>
      <trkpt lat="49.89396" lon="4.82301">
        <ele>259</ele>
        <time>2022-07-15T07:32:44.000Z</time>
      </trkpt>
      <trkpt lat="49.89399" lon="4.82301">
        <ele>259</ele>
        <time>2022-07-15T07:32:45.000Z</time>
      </trkpt>
      <trkpt lat="49.89401" lon="4.82301">
        <ele>259</ele>
        <time>2022-07-15T07:32:46.000Z</time>
      </trkpt>
      <trkpt lat="49.89404" lon="4.82302">
        <ele>259</ele>
        <time>2022-07-15T07:32:47.000Z</time>
      </trkpt>
      <trkpt lat="49.89407" lon="4.82302">
        <ele>259</ele>
        <time>2022-07-15T07:32:48.000Z</time>
      </trkpt>
      <trkpt lat="49.8941" lon="4.82303">
        <ele>259</ele>
        <time>2022-07-15T07:32:49.000Z</time>
      </trkpt>
      <trkpt lat="49.89412" lon="4.82304">
        <ele>259</ele>
        <time>2022-07-15T07:32:50.000Z</time>
      </trkpt>
      <trkpt lat="49.89415" lon="4.82305">
        <ele>259</ele>
        <time>2022-07-15T07:32:51.000Z</time>
      </trkpt>
      <trkpt lat="49.89418" lon="4.82306">
        <ele>259</ele>
        <time>2022-07-15T07:32:52.000Z</time>
      </trkpt>
      <trkpt lat="49.89421" lon="4.82307">
        <ele>259</ele>
        <time>2022-07-15T07:32:53.000Z</time>
      </trkpt>
      <trkpt lat="49.89424" lon="4.82308">
        <ele>259</ele>
        <time>2022-07-15T07:32:54.000Z</time>
      </trkpt>
      <trkpt lat="49.89426" lon="4.8231">
        <ele>259</ele>
        <time>2022-07-15T07:32:55.000Z</time>
      </trkpt>
      <trkpt lat="49.89428" lon="4.8231">
        <ele>259</ele>
        <time>2022-07-15T07:32:56.000Z</time>
      </trkpt>
      <trkpt lat="49.8943" lon="4.82312">
        <ele>259</ele>
        <time>2022-07-15T07:32:57.000Z</time>
      </trkpt>
      <trkpt lat="49.89432" lon="4.82312">
        <ele>259</ele>
        <time>2022-07-15T07:32:58.000Z</time>
      </trkpt>
      <trkpt lat="49.89433" lon="4.82313">
        <ele>259</ele>
        <time>2022-07-15T07:32:59.000Z</time>
      </trkpt>
      <trkpt lat="49.89435" lon="4.82314">
        <ele>259</ele>
        <time>2022-07-15T07:33:00.000Z</time>
      </trkpt>
      <trkpt lat="49.89436" lon="4.82315">
        <ele>260</ele>
        <time>2022-07-15T07:33:01.000Z</time>
      </trkpt>
      <trkpt lat="49.89438" lon="4.82316">
        <ele>260</ele>
        <time>2022-07-15T07:33:02.000Z</time>
      </trkpt>
      <trkpt lat="49.8944" lon="4.82316">
        <ele>260</ele>
        <time>2022-07-15T07:33:03.000Z</time>
      </trkpt>
      <trkpt lat="49.89442" lon="4.82317">
        <ele>260</ele>
        <time>2022-07-15T07:33:04.000Z</time>
      </trkpt>
      <trkpt lat="49.89444" lon="4.82317">
        <ele>260</ele>
        <time>2022-07-15T07:33:05.000Z</time>
      </trkpt>
      <trkpt lat="49.89446" lon="4.82318">
        <ele>260</ele>
        <time>2022-07-15T07:33:06.000Z</time>
      </trkpt>
      <trkpt lat="49.89448" lon="4.82319">
        <ele>260</ele>
        <time>2022-07-15T07:33:07.000Z</time>
      </trkpt>
      <trkpt lat="49.8945" lon="4.82319">
        <ele>260</ele>
        <time>2022-07-15T07:33:08.000Z</time>
      </trkpt>
      <trkpt lat="49.89452" lon="4.82318">
        <ele>260</ele>
        <time>2022-07-15T07:33:09.000Z</time>
      </trkpt>
      <trkpt lat="49.89454" lon="4.82318">
        <ele>261</ele>
        <time>2022-07-15T07:33:10.000Z</time>
      </trkpt>
      <trkpt lat="49.89457" lon="4.82318">
        <ele>261</ele>
        <time>2022-07-15T07:33:11.000Z</time>
      </trkpt>
      <trkpt lat="49.89458" lon="4.82319">
        <ele>261</ele>
        <time>2022-07-15T07:33:12.000Z</time>
      </trkpt>
      <trkpt lat="49.8946" lon="4.82318">
        <ele>261</ele>
        <time>2022-07-15T07:33:13.000Z</time>
      </trkpt>
      <trkpt lat="49.89462" lon="4.82318">
        <ele>261</ele>
        <time>2022-07-15T07:33:14.000Z</time>
      </trkpt>
      <trkpt lat="49.89463" lon="4.82317">
        <ele>262</ele>
        <time>2022-07-15T07:33:15.000Z</time>
      </trkpt>
      <trkpt lat="49.89465" lon="4.82318">
        <ele>262</ele>
        <time>2022-07-15T07:33:16.000Z</time>
      </trkpt>
      <trkpt lat="49.89467" lon="4.82318">
        <ele>262</ele>
        <time>2022-07-15T07:33:17.000Z</time>
      </trkpt>
      <trkpt lat="49.89469" lon="4.82318">
        <ele>262</ele>
        <time>2022-07-15T07:33:18.000Z</time>
      </trkpt>
      <trkpt lat="49.89471" lon="4.82318">
        <ele>263</ele>
        <time>2022-07-15T07:33:19.000Z</time>
      </trkpt>
      <trkpt lat="49.89473" lon="4.82318">
        <ele>263</ele>
        <time>2022-07-15T07:33:20.000Z</time>
      </trkpt>
      <trkpt lat="49.89475" lon="4.82318">
        <ele>263</ele>
        <time>2022-07-15T07:33:21.000Z</time>
      </trkpt>
      <trkpt lat="49.89477" lon="4.82318">
        <ele>263</ele>
        <time>2022-07-15T07:33:22.000Z</time>
      </trkpt>
      <trkpt lat="49.89479" lon="4.82317">
        <ele>263</ele>
        <time>2022-07-15T07:33:23.000Z</time>
      </trkpt>
      <trkpt lat="49.89481" lon="4.82317">
        <ele>263</ele>
        <time>2022-07-15T07:33:24.000Z</time>
      </trkpt>
      <trkpt lat="49.89484" lon="4.82317">
        <ele>264</ele>
        <time>2022-07-15T07:33:25.000Z</time>
      </trkpt>
      <trkpt lat="49.89486" lon="4.82317">
        <ele>264</ele>
        <time>2022-07-15T07:33:26.000Z</time>
      </trkpt>
      <trkpt lat="49.89489" lon="4.82317">
        <ele>264</ele>
        <time>2022-07-15T07:33:27.000Z</time>
      </trkpt>
      <trkpt lat="49.89491" lon="4.82317">
        <ele>264</ele>
        <time>2022-07-15T07:33:28.000Z</time>
      </trkpt>
      <trkpt lat="49.89494" lon="4.82316">
        <ele>265</ele>
        <time>2022-07-15T07:33:29.000Z</time>
      </trkpt>
      <trkpt lat="49.89497" lon="4.82315">
        <ele>265</ele>
        <time>2022-07-15T07:33:30.000Z</time>
      </trkpt>
      <trkpt lat="49.89499" lon="4.82314">
        <ele>265</ele>
        <time>2022-07-15T07:33:31.000Z</time>
      </trkpt>
      <trkpt lat="49.89501" lon="4.82313">
        <ele>266</ele>
        <time>2022-07-15T07:33:32.000Z</time>
      </trkpt>
      <trkpt lat="49.89503" lon="4.82312">
        <ele>266</ele>
        <time>2022-07-15T07:33:33.000Z</time>
      </trkpt>
      <trkpt lat="49.89505" lon="4.82311">
        <ele>266</ele>
        <time>2022-07-15T07:33:34.000Z</time>
      </trkpt>
      <trkpt lat="49.89508" lon="4.82311">
        <ele>266</ele>
        <time>2022-07-15T07:33:35.000Z</time>
      </trkpt>
      <trkpt lat="49.8951" lon="4.82311">
        <ele>267</ele>
        <time>2022-07-15T07:33:36.000Z</time>
      </trkpt>
      <trkpt lat="49.89512" lon="4.82311">
        <ele>267</ele>
        <time>2022-07-15T07:33:37.000Z</time>
      </trkpt>
      <trkpt lat="49.89514" lon="4.82311">
        <ele>267</ele>
        <time>2022-07-15T07:33:38.000Z</time>
      </trkpt>
      <trkpt lat="49.89516" lon="4.82311">
        <ele>268</ele>
        <time>2022-07-15T07:33:39.000Z</time>
      </trkpt>
      <trkpt lat="49.89519" lon="4.82311">
        <ele>268</ele>
        <time>2022-07-15T07:33:40.000Z</time>
      </trkpt>
      <trkpt lat="49.8952" lon="4.8231">
        <ele>268</ele>
        <time>2022-07-15T07:33:41.000Z</time>
      </trkpt>
      <trkpt lat="49.89523" lon="4.8231">
        <ele>269</ele>
        <time>2022-07-15T07:33:42.000Z</time>
      </trkpt>
      <trkpt lat="49.89524" lon="4.8231">
        <ele>269</ele>
        <time>2022-07-15T07:33:43.000Z</time>
      </trkpt>
      <trkpt lat="49.89525" lon="4.8231">
        <ele>269</ele>
        <time>2022-07-15T07:33:44.000Z</time>
      </trkpt>
      <trkpt lat="49.89527" lon="4.8231">
        <ele>270</ele>
        <time>2022-07-15T07:33:45.000Z</time>
      </trkpt>
      <trkpt lat="49.89528" lon="4.82309">
        <ele>270</ele>
        <time>2022-07-15T07:33:46.000Z</time>
      </trkpt>
      <trkpt lat="49.8953" lon="4.82309">
        <ele>271</ele>
        <time>2022-07-15T07:33:47.000Z</time>
      </trkpt>
      <trkpt lat="49.89531" lon="4.82308">
        <ele>271</ele>
        <time>2022-07-15T07:33:48.000Z</time>
      </trkpt>
      <trkpt lat="49.89534" lon="4.82308">
        <ele>271</ele>
        <time>2022-07-15T07:33:49.000Z</time>
      </trkpt>
      <trkpt lat="49.89536" lon="4.82308">
        <ele>272</ele>
        <time>2022-07-15T07:33:50.000Z</time>
      </trkpt>
      <trkpt lat="49.89539" lon="4.82309">
        <ele>272</ele>
        <time>2022-07-15T07:33:51.000Z</time>
      </trkpt>
      <trkpt lat="49.89541" lon="4.82309">
        <ele>272</ele>
        <time>2022-07-15T07:33:52.000Z</time>
      </trkpt>
      <trkpt lat="49.89544" lon="4.82309">
        <ele>273</ele>
        <time>2022-07-15T07:33:53.000Z</time>
      </trkpt>
      <trkpt lat="49.89546" lon="4.82309">
        <ele>273</ele>
        <time>2022-07-15T07:33:54.000Z</time>
      </trkpt>
      <trkpt lat="49.89549" lon="4.8231">
        <ele>274</ele>
        <time>2022-07-15T07:33:55.000Z</time>
      </trkpt>
      <trkpt lat="49.8955" lon="4.82309">
        <ele>274</ele>
        <time>2022-07-15T07:33:56.000Z</time>
      </trkpt>
      <trkpt lat="49.89552" lon="4.82309">
        <ele>274</ele>
        <time>2022-07-15T07:33:57.000Z</time>
      </trkpt>
      <trkpt lat="49.89555" lon="4.82309">
        <ele>275</ele>
        <time>2022-07-15T07:33:58.000Z</time>
      </trkpt>
      <trkpt lat="49.89559" lon="4.8231">
        <ele>275</ele>
        <time>2022-07-15T07:33:59.000Z</time>
      </trkpt>
      <trkpt lat="49.89562" lon="4.82309">
        <ele>276</ele>
        <time>2022-07-15T07:34:00.000Z</time>
      </trkpt>
      <trkpt lat="49.89565" lon="4.82309">
        <ele>276</ele>
        <time>2022-07-15T07:34:01.000Z</time>
      </trkpt>
      <trkpt lat="49.89568" lon="4.82308">
        <ele>276</ele>
        <time>2022-07-15T07:34:02.000Z</time>
      </trkpt>
      <trkpt lat="49.8957" lon="4.82307">
        <ele>277</ele>
        <time>2022-07-15T07:34:03.000Z</time>
      </trkpt>
      <trkpt lat="49.89573" lon="4.82306">
        <ele>277</ele>
        <time>2022-07-15T07:34:04.000Z</time>
      </trkpt>
      <trkpt lat="49.89575" lon="4.82305">
        <ele>277</ele>
        <time>2022-07-15T07:34:05.000Z</time>
      </trkpt>
      <trkpt lat="49.89577" lon="4.82304">
        <ele>278</ele>
        <time>2022-07-15T07:34:06.000Z</time>
      </trkpt>
      <trkpt lat="49.89579" lon="4.82302">
        <ele>278</ele>
        <time>2022-07-15T07:34:07.000Z</time>
      </trkpt>
      <trkpt lat="49.89581" lon="4.823">
        <ele>279</ele>
        <time>2022-07-15T07:34:08.000Z</time>
      </trkpt>
      <trkpt lat="49.89583" lon="4.82299">
        <ele>279</ele>
        <time>2022-07-15T07:34:09.000Z</time>
      </trkpt>
      <trkpt lat="49.89584" lon="4.82297">
        <ele>280</ele>
        <time>2022-07-15T07:34:10.000Z</time>
      </trkpt>
      <trkpt lat="49.89586" lon="4.82296">
        <ele>280</ele>
        <time>2022-07-15T07:34:11.000Z</time>
      </trkpt>
      <trkpt lat="49.89587" lon="4.82293">
        <ele>281</ele>
        <time>2022-07-15T07:34:12.000Z</time>
      </trkpt>
      <trkpt lat="49.89588" lon="4.8229">
        <ele>281</ele>
        <time>2022-07-15T07:34:13.000Z</time>
      </trkpt>
      <trkpt lat="49.89588" lon="4.82287">
        <ele>282</ele>
        <time>2022-07-15T07:34:14.000Z</time>
      </trkpt>
      <trkpt lat="49.89589" lon="4.82284">
        <ele>282</ele>
        <time>2022-07-15T07:34:15.000Z</time>
      </trkpt>
      <trkpt lat="49.89589" lon="4.8228">
        <ele>283</ele>
        <time>2022-07-15T07:34:16.000Z</time>
      </trkpt>
      <trkpt lat="49.8959" lon="4.82277">
        <ele>283</ele>
        <time>2022-07-15T07:34:17.000Z</time>
      </trkpt>
      <trkpt lat="49.8959" lon="4.82273">
        <ele>283</ele>
        <time>2022-07-15T07:34:18.000Z</time>
      </trkpt>
      <trkpt lat="49.8959" lon="4.8227">
        <ele>284</ele>
        <time>2022-07-15T07:34:19.000Z</time>
      </trkpt>
      <trkpt lat="49.89591" lon="4.82267">
        <ele>284</ele>
        <time>2022-07-15T07:34:20.000Z</time>
      </trkpt>
      <trkpt lat="49.89592" lon="4.82264">
        <ele>284</ele>
        <time>2022-07-15T07:34:21.000Z</time>
      </trkpt>
      <trkpt lat="49.89592" lon="4.8226">
        <ele>284</ele>
        <time>2022-07-15T07:34:22.000Z</time>
      </trkpt>
      <trkpt lat="49.89593" lon="4.82257">
        <ele>284</ele>
        <time>2022-07-15T07:34:23.000Z</time>
      </trkpt>
      <trkpt lat="49.89593" lon="4.82253">
        <ele>284</ele>
        <time>2022-07-15T07:34:24.000Z</time>
      </trkpt>
      <trkpt lat="49.89593" lon="4.8225">
        <ele>284</ele>
        <time>2022-07-15T07:34:25.000Z</time>
      </trkpt>
      <trkpt lat="49.89593" lon="4.82246">
        <ele>284</ele>
        <time>2022-07-15T07:34:26.000Z</time>
      </trkpt>
      <trkpt lat="49.89593" lon="4.82243">
        <ele>284</ele>
        <time>2022-07-15T07:34:27.000Z</time>
      </trkpt>
      <trkpt lat="49.89593" lon="4.8224">
        <ele>284</ele>
        <time>2022-07-15T07:34:28.000Z</time>
      </trkpt>
      <trkpt lat="49.89593" lon="4.82236">
        <ele>284</ele>
        <time>2022-07-15T07:34:29.000Z</time>
      </trkpt>
      <trkpt lat="49.89593" lon="4.82233">
        <ele>284</ele>
        <time>2022-07-15T07:34:30.000Z</time>
      </trkpt>
      <trkpt lat="49.89592" lon="4.82229">
        <ele>284</ele>
        <time>2022-07-15T07:34:31.000Z</time>
      </trkpt>
      <trkpt lat="49.89592" lon="4.82226">
        <ele>284</ele>
        <time>2022-07-15T07:34:32.000Z</time>
      </trkpt>
      <trkpt lat="49.89592" lon="4.82223">
        <ele>284</ele>
        <time>2022-07-15T07:34:33.000Z</time>
      </trkpt>
      <trkpt lat="49.89591" lon="4.82219">
        <ele>284</ele>
        <time>2022-07-15T07:34:34.000Z</time>
      </trkpt>
      <trkpt lat="49.89591" lon="4.82215">
        <ele>284</ele>
        <time>2022-07-15T07:34:35.000Z</time>
      </trkpt>
      <trkpt lat="49.89591" lon="4.82212">
        <ele>284</ele>
        <time>2022-07-15T07:34:36.000Z</time>
      </trkpt>
      <trkpt lat="49.8959" lon="4.82209">
        <ele>284</ele>
        <time>2022-07-15T07:34:37.000Z</time>
      </trkpt>
      <trkpt lat="49.8959" lon="4.82205">
        <ele>284</ele>
        <time>2022-07-15T07:34:38.000Z</time>
      </trkpt>
      <trkpt lat="49.8959" lon="4.82202">
        <ele>284</ele>
        <time>2022-07-15T07:34:39.000Z</time>
      </trkpt>
      <trkpt lat="49.89589" lon="4.82199">
        <ele>284</ele>
        <time>2022-07-15T07:34:40.000Z</time>
      </trkpt>
      <trkpt lat="49.89589" lon="4.82195">
        <ele>284</ele>
        <time>2022-07-15T07:34:41.000Z</time>
      </trkpt>
      <trkpt lat="49.89589" lon="4.82192">
        <ele>284</ele>
        <time>2022-07-15T07:34:42.000Z</time>
      </trkpt>
      <trkpt lat="49.89588" lon="4.82189">
        <ele>284</ele>
        <time>2022-07-15T07:34:43.000Z</time>
      </trkpt>
      <trkpt lat="49.89588" lon="4.82185">
        <ele>284</ele>
        <time>2022-07-15T07:34:44.000Z</time>
      </trkpt>
      <trkpt lat="49.89588" lon="4.82182">
        <ele>284</ele>
        <time>2022-07-15T07:34:45.000Z</time>
      </trkpt>
      <trkpt lat="49.89587" lon="4.82179">
        <ele>284</ele>
        <time>2022-07-15T07:34:46.000Z</time>
      </trkpt>
      <trkpt lat="49.89587" lon="4.82175">
        <ele>285</ele>
        <time>2022-07-15T07:34:47.000Z</time>
      </trkpt>
      <trkpt lat="49.89587" lon="4.82172">
        <ele>285</ele>
        <time>2022-07-15T07:34:48.000Z</time>
      </trkpt>
      <trkpt lat="49.89586" lon="4.82168">
        <ele>285</ele>
        <time>2022-07-15T07:34:49.000Z</time>
      </trkpt>
      <trkpt lat="49.89586" lon="4.82165">
        <ele>285</ele>
        <time>2022-07-15T07:34:50.000Z</time>
      </trkpt>
      <trkpt lat="49.89586" lon="4.82161">
        <ele>285</ele>
        <time>2022-07-15T07:34:51.000Z</time>
      </trkpt>
      <trkpt lat="49.89585" lon="4.82158">
        <ele>285</ele>
        <time>2022-07-15T07:34:52.000Z</time>
      </trkpt>
      <trkpt lat="49.89585" lon="4.82155">
        <ele>285</ele>
        <time>2022-07-15T07:34:53.000Z</time>
      </trkpt>
      <trkpt lat="49.89585" lon="4.82151">
        <ele>285</ele>
        <time>2022-07-15T07:34:54.000Z</time>
      </trkpt>
      <trkpt lat="49.89584" lon="4.82148">
        <ele>285</ele>
        <time>2022-07-15T07:34:55.000Z</time>
      </trkpt>
      <trkpt lat="49.89584" lon="4.82144">
        <ele>285</ele>
        <time>2022-07-15T07:34:56.000Z</time>
      </trkpt>
      <trkpt lat="49.89584" lon="4.82141">
        <ele>285</ele>
        <time>2022-07-15T07:34:57.000Z</time>
      </trkpt>
      <trkpt lat="49.89584" lon="4.82137">
        <ele>285</ele>
        <time>2022-07-15T07:34:58.000Z</time>
      </trkpt>
      <trkpt lat="49.89583" lon="4.82134">
        <ele>285</ele>
        <time>2022-07-15T07:34:59.000Z</time>
      </trkpt>
      <trkpt lat="49.89584" lon="4.8213">
        <ele>285</ele>
        <time>2022-07-15T07:35:00.000Z</time>
      </trkpt>
      <trkpt lat="49.89584" lon="4.82127">
        <ele>285</ele>
        <time>2022-07-15T07:35:01.000Z</time>
      </trkpt>
      <trkpt lat="49.89584" lon="4.82123">
        <ele>286</ele>
        <time>2022-07-15T07:35:02.000Z</time>
      </trkpt>
      <trkpt lat="49.89584" lon="4.82119">
        <ele>286</ele>
        <time>2022-07-15T07:35:03.000Z</time>
      </trkpt>
      <trkpt lat="49.89585" lon="4.82116">
        <ele>286</ele>
        <time>2022-07-15T07:35:04.000Z</time>
      </trkpt>
      <trkpt lat="49.89585" lon="4.82112">
        <ele>286</ele>
        <time>2022-07-15T07:35:05.000Z</time>
      </trkpt>
      <trkpt lat="49.89586" lon="4.82109">
        <ele>286</ele>
        <time>2022-07-15T07:35:06.000Z</time>
      </trkpt>
      <trkpt lat="49.89586" lon="4.82105">
        <ele>286</ele>
        <time>2022-07-15T07:35:07.000Z</time>
      </trkpt>
      <trkpt lat="49.89587" lon="4.82102">
        <ele>286</ele>
        <time>2022-07-15T07:35:08.000Z</time>
      </trkpt>
      <trkpt lat="49.89588" lon="4.82098">
        <ele>286</ele>
        <time>2022-07-15T07:35:09.000Z</time>
      </trkpt>
      <trkpt lat="49.89588" lon="4.82095">
        <ele>286</ele>
        <time>2022-07-15T07:35:10.000Z</time>
      </trkpt>
      <trkpt lat="49.89589" lon="4.82092">
        <ele>286</ele>
        <time>2022-07-15T07:35:11.000Z</time>
      </trkpt>
      <trkpt lat="49.89591" lon="4.82089">
        <ele>286</ele>
        <time>2022-07-15T07:35:12.000Z</time>
      </trkpt>
      <trkpt lat="49.89592" lon="4.82086">
        <ele>287</ele>
        <time>2022-07-15T07:35:13.000Z</time>
      </trkpt>
      <trkpt lat="49.89593" lon="4.82083">
        <ele>287</ele>
        <time>2022-07-15T07:35:14.000Z</time>
      </trkpt>
      <trkpt lat="49.89595" lon="4.8208">
        <ele>287</ele>
        <time>2022-07-15T07:35:15.000Z</time>
      </trkpt>
      <trkpt lat="49.89596" lon="4.82077">
        <ele>287</ele>
        <time>2022-07-15T07:35:16.000Z</time>
      </trkpt>
      <trkpt lat="49.89597" lon="4.82073">
        <ele>287</ele>
        <time>2022-07-15T07:35:17.000Z</time>
      </trkpt>
      <trkpt lat="49.89599" lon="4.8207">
        <ele>288</ele>
        <time>2022-07-15T07:35:18.000Z</time>
      </trkpt>
      <trkpt lat="49.896" lon="4.82067">
        <ele>288</ele>
        <time>2022-07-15T07:35:19.000Z</time>
      </trkpt>
      <trkpt lat="49.89602" lon="4.82064">
        <ele>288</ele>
        <time>2022-07-15T07:35:20.000Z</time>
      </trkpt>
      <trkpt lat="49.89604" lon="4.82061">
        <ele>288</ele>
        <time>2022-07-15T07:35:21.000Z</time>
      </trkpt>
      <trkpt lat="49.89606" lon="4.82059">
        <ele>289</ele>
        <time>2022-07-15T07:35:22.000Z</time>
      </trkpt>
      <trkpt lat="49.89608" lon="4.82056">
        <ele>289</ele>
        <time>2022-07-15T07:35:23.000Z</time>
      </trkpt>
      <trkpt lat="49.89609" lon="4.82054">
        <ele>289</ele>
        <time>2022-07-15T07:35:24.000Z</time>
      </trkpt>
      <trkpt lat="49.89611" lon="4.82051">
        <ele>290</ele>
        <time>2022-07-15T07:35:25.000Z</time>
      </trkpt>
      <trkpt lat="49.89612" lon="4.82049">
        <ele>290</ele>
        <time>2022-07-15T07:35:26.000Z</time>
      </trkpt>
      <trkpt lat="49.89614" lon="4.82046">
        <ele>290</ele>
        <time>2022-07-15T07:35:27.000Z</time>
      </trkpt>
      <trkpt lat="49.89615" lon="4.82043">
        <ele>291</ele>
        <time>2022-07-15T07:35:28.000Z</time>
      </trkpt>
      <trkpt lat="49.89616" lon="4.8204">
        <ele>291</ele>
        <time>2022-07-15T07:35:29.000Z</time>
      </trkpt>
      <trkpt lat="49.89618" lon="4.82038">
        <ele>292</ele>
        <time>2022-07-15T07:35:30.000Z</time>
      </trkpt>
      <trkpt lat="49.89619" lon="4.82035">
        <ele>292</ele>
        <time>2022-07-15T07:35:31.000Z</time>
      </trkpt>
      <trkpt lat="49.89621" lon="4.82033">
        <ele>292</ele>
        <time>2022-07-15T07:35:32.000Z</time>
      </trkpt>
      <trkpt lat="49.89622" lon="4.82031">
        <ele>292</ele>
        <time>2022-07-15T07:35:33.000Z</time>
      </trkpt>
      <trkpt lat="49.89624" lon="4.82028">
        <ele>293</ele>
        <time>2022-07-15T07:35:34.000Z</time>
      </trkpt>
      <trkpt lat="49.89626" lon="4.82026">
        <ele>293</ele>
        <time>2022-07-15T07:35:35.000Z</time>
      </trkpt>
      <trkpt lat="49.89628" lon="4.82025">
        <ele>293</ele>
        <time>2022-07-15T07:35:36.000Z</time>
      </trkpt>
      <trkpt lat="49.8963" lon="4.82023">
        <ele>294</ele>
        <time>2022-07-15T07:35:37.000Z</time>
      </trkpt>
      <trkpt lat="49.89632" lon="4.82022">
        <ele>294</ele>
        <time>2022-07-15T07:35:38.000Z</time>
      </trkpt>
      <trkpt lat="49.89634" lon="4.8202">
        <ele>294</ele>
        <time>2022-07-15T07:35:39.000Z</time>
      </trkpt>
      <trkpt lat="49.89636" lon="4.82019">
        <ele>294</ele>
        <time>2022-07-15T07:35:40.000Z</time>
      </trkpt>
      <trkpt lat="49.89639" lon="4.82018">
        <ele>295</ele>
        <time>2022-07-15T07:35:41.000Z</time>
      </trkpt>
      <trkpt lat="49.89641" lon="4.82018">
        <ele>295</ele>
        <time>2022-07-15T07:35:42.000Z</time>
      </trkpt>
      <trkpt lat="49.89642" lon="4.82017">
        <ele>295</ele>
        <time>2022-07-15T07:35:43.000Z</time>
      </trkpt>
      <trkpt lat="49.89645" lon="4.82016">
        <ele>295</ele>
        <time>2022-07-15T07:35:44.000Z</time>
      </trkpt>
      <trkpt lat="49.89647" lon="4.82015">
        <ele>296</ele>
        <time>2022-07-15T07:35:45.000Z</time>
      </trkpt>
      <trkpt lat="49.89649" lon="4.82013">
        <ele>296</ele>
        <time>2022-07-15T07:35:46.000Z</time>
      </trkpt>
      <trkpt lat="49.89651" lon="4.82012">
        <ele>296</ele>
        <time>2022-07-15T07:35:47.000Z</time>
      </trkpt>
      <trkpt lat="49.89654" lon="4.82011">
        <ele>297</ele>
        <time>2022-07-15T07:35:48.000Z</time>
      </trkpt>
      <trkpt lat="49.89656" lon="4.8201">
        <ele>297</ele>
        <time>2022-07-15T07:35:49.000Z</time>
      </trkpt>
      <trkpt lat="49.89658" lon="4.82008">
        <ele>297</ele>
        <time>2022-07-15T07:35:50.000Z</time>
      </trkpt>
      <trkpt lat="49.89659" lon="4.82007">
        <ele>298</ele>
        <time>2022-07-15T07:35:51.000Z</time>
      </trkpt>
      <trkpt lat="49.89661" lon="4.82006">
        <ele>298</ele>
        <time>2022-07-15T07:35:52.000Z</time>
      </trkpt>
      <trkpt lat="49.89662" lon="4.82005">
        <ele>298</ele>
        <time>2022-07-15T07:35:53.000Z</time>
      </trkpt>
      <trkpt lat="49.89664" lon="4.82003">
        <ele>298</ele>
        <time>2022-07-15T07:35:54.000Z</time>
      </trkpt>
      <trkpt lat="49.89665" lon="4.82002">
        <ele>298</ele>
        <time>2022-07-15T07:35:55.000Z</time>
      </trkpt>
      <trkpt lat="49.89667" lon="4.82001">
        <ele>299</ele>
        <time>2022-07-15T07:35:56.000Z</time>
      </trkpt>
      <trkpt lat="49.89669" lon="4.82">
        <ele>299</ele>
        <time>2022-07-15T07:35:57.000Z</time>
      </trkpt>
      <trkpt lat="49.89671" lon="4.81998">
        <ele>299</ele>
        <time>2022-07-15T07:35:58.000Z</time>
      </trkpt>
      <trkpt lat="49.89673" lon="4.81997">
        <ele>299</ele>
        <time>2022-07-15T07:35:59.000Z</time>
      </trkpt>
      <trkpt lat="49.89676" lon="4.81996">
        <ele>300</ele>
        <time>2022-07-15T07:36:00.000Z</time>
      </trkpt>
      <trkpt lat="49.89678" lon="4.81996">
        <ele>300</ele>
        <time>2022-07-15T07:36:01.000Z</time>
      </trkpt>
      <trkpt lat="49.89681" lon="4.81995">
        <ele>300</ele>
        <time>2022-07-15T07:36:02.000Z</time>
      </trkpt>
      <trkpt lat="49.89683" lon="4.81994">
        <ele>300</ele>
        <time>2022-07-15T07:36:03.000Z</time>
      </trkpt>
      <trkpt lat="49.89686" lon="4.81993">
        <ele>301</ele>
        <time>2022-07-15T07:36:04.000Z</time>
      </trkpt>
      <trkpt lat="49.89688" lon="4.81992">
        <ele>301</ele>
        <time>2022-07-15T07:36:05.000Z</time>
      </trkpt>
      <trkpt lat="49.89691" lon="4.81992">
        <ele>302</ele>
        <time>2022-07-15T07:36:06.000Z</time>
      </trkpt>
      <trkpt lat="49.89693" lon="4.81991">
        <ele>302</ele>
        <time>2022-07-15T07:36:07.000Z</time>
      </trkpt>
      <trkpt lat="49.89696" lon="4.8199">
        <ele>302</ele>
        <time>2022-07-15T07:36:08.000Z</time>
      </trkpt>
      <trkpt lat="49.89698" lon="4.81989">
        <ele>303</ele>
        <time>2022-07-15T07:36:09.000Z</time>
      </trkpt>
      <trkpt lat="49.89701" lon="4.81988">
        <ele>303</ele>
        <time>2022-07-15T07:36:10.000Z</time>
      </trkpt>
      <trkpt lat="49.89703" lon="4.81987">
        <ele>303</ele>
        <time>2022-07-15T07:36:11.000Z</time>
      </trkpt>
      <trkpt lat="49.89705" lon="4.81986">
        <ele>304</ele>
        <time>2022-07-15T07:36:12.000Z</time>
      </trkpt>
      <trkpt lat="49.89707" lon="4.81985">
        <ele>304</ele>
        <time>2022-07-15T07:36:13.000Z</time>
      </trkpt>
      <trkpt lat="49.89709" lon="4.81984">
        <ele>304</ele>
        <time>2022-07-15T07:36:14.000Z</time>
      </trkpt>
      <trkpt lat="49.89711" lon="4.81983">
        <ele>304</ele>
        <time>2022-07-15T07:36:15.000Z</time>
      </trkpt>
      <trkpt lat="49.89713" lon="4.81983">
        <ele>305</ele>
        <time>2022-07-15T07:36:16.000Z</time>
      </trkpt>
      <trkpt lat="49.89716" lon="4.81982">
        <ele>305</ele>
        <time>2022-07-15T07:36:17.000Z</time>
      </trkpt>
      <trkpt lat="49.89718" lon="4.8198">
        <ele>305</ele>
        <time>2022-07-15T07:36:18.000Z</time>
      </trkpt>
      <trkpt lat="49.89719" lon="4.81979">
        <ele>306</ele>
        <time>2022-07-15T07:36:19.000Z</time>
      </trkpt>
      <trkpt lat="49.89722" lon="4.81978">
        <ele>306</ele>
        <time>2022-07-15T07:36:20.000Z</time>
      </trkpt>
      <trkpt lat="49.89723" lon="4.81977">
        <ele>306</ele>
        <time>2022-07-15T07:36:21.000Z</time>
      </trkpt>
      <trkpt lat="49.89725" lon="4.81976">
        <ele>306</ele>
        <time>2022-07-15T07:36:22.000Z</time>
      </trkpt>
      <trkpt lat="49.89726" lon="4.81975">
        <ele>307</ele>
        <time>2022-07-15T07:36:23.000Z</time>
      </trkpt>
      <trkpt lat="49.89729" lon="4.81974">
        <ele>307</ele>
        <time>2022-07-15T07:36:24.000Z</time>
      </trkpt>
      <trkpt lat="49.89731" lon="4.81974">
        <ele>307</ele>
        <time>2022-07-15T07:36:25.000Z</time>
      </trkpt>
      <trkpt lat="49.89733" lon="4.81973">
        <ele>308</ele>
        <time>2022-07-15T07:36:26.000Z</time>
      </trkpt>
      <trkpt lat="49.89735" lon="4.81973">
        <ele>308</ele>
        <time>2022-07-15T07:36:27.000Z</time>
      </trkpt>
      <trkpt lat="49.89737" lon="4.81973">
        <ele>308</ele>
        <time>2022-07-15T07:36:28.000Z</time>
      </trkpt>
      <trkpt lat="49.8974" lon="4.81973">
        <ele>308</ele>
        <time>2022-07-15T07:36:29.000Z</time>
      </trkpt>
      <trkpt lat="49.89742" lon="4.81974">
        <ele>309</ele>
        <time>2022-07-15T07:36:30.000Z</time>
      </trkpt>
      <trkpt lat="49.89745" lon="4.81974">
        <ele>309</ele>
        <time>2022-07-15T07:36:31.000Z</time>
      </trkpt>
      <trkpt lat="49.89747" lon="4.81974">
        <ele>309</ele>
        <time>2022-07-15T07:36:32.000Z</time>
      </trkpt>
      <trkpt lat="49.89749" lon="4.81975">
        <ele>309</ele>
        <time>2022-07-15T07:36:33.000Z</time>
      </trkpt>
      <trkpt lat="49.89751" lon="4.81975">
        <ele>310</ele>
        <time>2022-07-15T07:36:34.000Z</time>
      </trkpt>
      <trkpt lat="49.89754" lon="4.81975">
        <ele>310</ele>
        <time>2022-07-15T07:36:35.000Z</time>
      </trkpt>
      <trkpt lat="49.89756" lon="4.81976">
        <ele>310</ele>
        <time>2022-07-15T07:36:36.000Z</time>
      </trkpt>
      <trkpt lat="49.89758" lon="4.81977">
        <ele>310</ele>
        <time>2022-07-15T07:36:37.000Z</time>
      </trkpt>
      <trkpt lat="49.89761" lon="4.81978">
        <ele>310</ele>
        <time>2022-07-15T07:36:38.000Z</time>
      </trkpt>
      <trkpt lat="49.89763" lon="4.81979">
        <ele>310</ele>
        <time>2022-07-15T07:36:39.000Z</time>
      </trkpt>
      <trkpt lat="49.89765" lon="4.8198">
        <ele>310</ele>
        <time>2022-07-15T07:36:40.000Z</time>
      </trkpt>
      <trkpt lat="49.89767" lon="4.81981">
        <ele>310</ele>
        <time>2022-07-15T07:36:41.000Z</time>
      </trkpt>
      <trkpt lat="49.8977" lon="4.81981">
        <ele>310</ele>
        <time>2022-07-15T07:36:42.000Z</time>
      </trkpt>
      <trkpt lat="49.89771" lon="4.81982">
        <ele>311</ele>
        <time>2022-07-15T07:36:43.000Z</time>
      </trkpt>
      <trkpt lat="49.89773" lon="4.81982">
        <ele>311</ele>
        <time>2022-07-15T07:36:44.000Z</time>
      </trkpt>
      <trkpt lat="49.89775" lon="4.81983">
        <ele>311</ele>
        <time>2022-07-15T07:36:45.000Z</time>
      </trkpt>
      <trkpt lat="49.89778" lon="4.81983">
        <ele>312</ele>
        <time>2022-07-15T07:36:46.000Z</time>
      </trkpt>
      <trkpt lat="49.8978" lon="4.81983">
        <ele>312</ele>
        <time>2022-07-15T07:36:47.000Z</time>
      </trkpt>
      <trkpt lat="49.89782" lon="4.81983">
        <ele>312</ele>
        <time>2022-07-15T07:36:48.000Z</time>
      </trkpt>
      <trkpt lat="49.89784" lon="4.81984">
        <ele>313</ele>
        <time>2022-07-15T07:36:49.000Z</time>
      </trkpt>
      <trkpt lat="49.89786" lon="4.81984">
        <ele>313</ele>
        <time>2022-07-15T07:36:50.000Z</time>
      </trkpt>
      <trkpt lat="49.89788" lon="4.81984">
        <ele>313</ele>
        <time>2022-07-15T07:36:51.000Z</time>
      </trkpt>
      <trkpt lat="49.89791" lon="4.81984">
        <ele>313</ele>
        <time>2022-07-15T07:36:52.000Z</time>
      </trkpt>
      <trkpt lat="49.89793" lon="4.81984">
        <ele>314</ele>
        <time>2022-07-15T07:36:53.000Z</time>
      </trkpt>
      <trkpt lat="49.89796" lon="4.81983">
        <ele>314</ele>
        <time>2022-07-15T07:36:54.000Z</time>
      </trkpt>
      <trkpt lat="49.89798" lon="4.81982">
        <ele>314</ele>
        <time>2022-07-15T07:36:55.000Z</time>
      </trkpt>
      <trkpt lat="49.898" lon="4.81981">
        <ele>315</ele>
        <time>2022-07-15T07:36:56.000Z</time>
      </trkpt>
      <trkpt lat="49.89802" lon="4.8198">
        <ele>315</ele>
        <time>2022-07-15T07:36:57.000Z</time>
      </trkpt>
      <trkpt lat="49.89805" lon="4.81978">
        <ele>315</ele>
        <time>2022-07-15T07:36:58.000Z</time>
      </trkpt>
      <trkpt lat="49.89806" lon="4.81977">
        <ele>315</ele>
        <time>2022-07-15T07:36:59.000Z</time>
      </trkpt>
      <trkpt lat="49.89808" lon="4.81975">
        <ele>316</ele>
        <time>2022-07-15T07:37:00.000Z</time>
      </trkpt>
      <trkpt lat="49.8981" lon="4.81973">
        <ele>316</ele>
        <time>2022-07-15T07:37:01.000Z</time>
      </trkpt>
      <trkpt lat="49.89811" lon="4.8197">
        <ele>317</ele>
        <time>2022-07-15T07:37:02.000Z</time>
      </trkpt>
      <trkpt lat="49.89813" lon="4.81968">
        <ele>317</ele>
        <time>2022-07-15T07:37:03.000Z</time>
      </trkpt>
      <trkpt lat="49.89814" lon="4.81966">
        <ele>317</ele>
        <time>2022-07-15T07:37:04.000Z</time>
      </trkpt>
      <trkpt lat="49.89815" lon="4.81964">
        <ele>318</ele>
        <time>2022-07-15T07:37:05.000Z</time>
      </trkpt>
      <trkpt lat="49.89816" lon="4.81961">
        <ele>318</ele>
        <time>2022-07-15T07:37:06.000Z</time>
      </trkpt>
      <trkpt lat="49.89818" lon="4.81959">
        <ele>319</ele>
        <time>2022-07-15T07:37:07.000Z</time>
      </trkpt>
      <trkpt lat="49.89819" lon="4.81956">
        <ele>319</ele>
        <time>2022-07-15T07:37:08.000Z</time>
      </trkpt>
      <trkpt lat="49.89821" lon="4.81954">
        <ele>319</ele>
        <time>2022-07-15T07:37:09.000Z</time>
      </trkpt>
      <trkpt lat="49.89823" lon="4.81951">
        <ele>320</ele>
        <time>2022-07-15T07:37:10.000Z</time>
      </trkpt>
      <trkpt lat="49.89824" lon="4.81949">
        <ele>320</ele>
        <time>2022-07-15T07:37:11.000Z</time>
      </trkpt>
      <trkpt lat="49.89825" lon="4.81946">
        <ele>321</ele>
        <time>2022-07-15T07:37:12.000Z</time>
      </trkpt>
      <trkpt lat="49.89826" lon="4.81944">
        <ele>321</ele>
        <time>2022-07-15T07:37:13.000Z</time>
      </trkpt>
      <trkpt lat="49.89828" lon="4.81942">
        <ele>321</ele>
        <time>2022-07-15T07:37:14.000Z</time>
      </trkpt>
      <trkpt lat="49.89829" lon="4.8194">
        <ele>322</ele>
        <time>2022-07-15T07:37:15.000Z</time>
      </trkpt>
      <trkpt lat="49.8983" lon="4.81939">
        <ele>322</ele>
        <time>2022-07-15T07:37:16.000Z</time>
      </trkpt>
      <trkpt lat="49.89832" lon="4.81938">
        <ele>322</ele>
        <time>2022-07-15T07:37:17.000Z</time>
      </trkpt>
      <trkpt lat="49.89833" lon="4.81937">
        <ele>323</ele>
        <time>2022-07-15T07:37:18.000Z</time>
      </trkpt>
      <trkpt lat="49.89835" lon="4.81936">
        <ele>323</ele>
        <time>2022-07-15T07:37:19.000Z</time>
      </trkpt>
      <trkpt lat="49.89837" lon="4.81936">
        <ele>323</ele>
        <time>2022-07-15T07:37:20.000Z</time>
      </trkpt>
      <trkpt lat="49.89839" lon="4.81936">
        <ele>324</ele>
        <time>2022-07-15T07:37:21.000Z</time>
      </trkpt>
      <trkpt lat="49.89842" lon="4.81937">
        <ele>324</ele>
        <time>2022-07-15T07:37:22.000Z</time>
      </trkpt>
      <trkpt lat="49.89844" lon="4.81939">
        <ele>324</ele>
        <time>2022-07-15T07:37:23.000Z</time>
      </trkpt>
      <trkpt lat="49.89846" lon="4.81941">
        <ele>324</ele>
        <time>2022-07-15T07:37:24.000Z</time>
      </trkpt>
      <trkpt lat="49.89848" lon="4.81942">
        <ele>325</ele>
        <time>2022-07-15T07:37:25.000Z</time>
      </trkpt>
      <trkpt lat="49.8985" lon="4.81944">
        <ele>325</ele>
        <time>2022-07-15T07:37:26.000Z</time>
      </trkpt>
      <trkpt lat="49.89852" lon="4.81946">
        <ele>325</ele>
        <time>2022-07-15T07:37:27.000Z</time>
      </trkpt>
      <trkpt lat="49.89854" lon="4.81948">
        <ele>326</ele>
        <time>2022-07-15T07:37:28.000Z</time>
      </trkpt>
      <trkpt lat="49.89856" lon="4.81951">
        <ele>326</ele>
        <time>2022-07-15T07:37:29.000Z</time>
      </trkpt>
      <trkpt lat="49.89858" lon="4.81954">
        <ele>326</ele>
        <time>2022-07-15T07:37:30.000Z</time>
      </trkpt>
      <trkpt lat="49.89859" lon="4.81956">
        <ele>326</ele>
        <time>2022-07-15T07:37:31.000Z</time>
      </trkpt>
      <trkpt lat="49.89862" lon="4.81959">
        <ele>327</ele>
        <time>2022-07-15T07:37:32.000Z</time>
      </trkpt>
      <trkpt lat="49.89864" lon="4.81961">
        <ele>327</ele>
        <time>2022-07-15T07:37:33.000Z</time>
      </trkpt>
      <trkpt lat="49.89865" lon="4.81963">
        <ele>327</ele>
        <time>2022-07-15T07:37:34.000Z</time>
      </trkpt>
      <trkpt lat="49.89867" lon="4.81965">
        <ele>327</ele>
        <time>2022-07-15T07:37:35.000Z</time>
      </trkpt>
      <trkpt lat="49.89868" lon="4.81968">
        <ele>328</ele>
        <time>2022-07-15T07:37:36.000Z</time>
      </trkpt>
      <trkpt lat="49.89869" lon="4.81971">
        <ele>328</ele>
        <time>2022-07-15T07:37:37.000Z</time>
      </trkpt>
      <trkpt lat="49.8987" lon="4.81974">
        <ele>328</ele>
        <time>2022-07-15T07:37:38.000Z</time>
      </trkpt>
      <trkpt lat="49.89871" lon="4.81977">
        <ele>328</ele>
        <time>2022-07-15T07:37:39.000Z</time>
      </trkpt>
      <trkpt lat="49.89873" lon="4.8198">
        <ele>328</ele>
        <time>2022-07-15T07:37:40.000Z</time>
      </trkpt>
      <trkpt lat="49.89874" lon="4.81983">
        <ele>329</ele>
        <time>2022-07-15T07:37:41.000Z</time>
      </trkpt>
      <trkpt lat="49.89875" lon="4.81986">
        <ele>329</ele>
        <time>2022-07-15T07:37:42.000Z</time>
      </trkpt>
      <trkpt lat="49.89876" lon="4.81989">
        <ele>329</ele>
        <time>2022-07-15T07:37:43.000Z</time>
      </trkpt>
      <trkpt lat="49.89877" lon="4.81992">
        <ele>329</ele>
        <time>2022-07-15T07:37:44.000Z</time>
      </trkpt>
      <trkpt lat="49.89878" lon="4.81995">
        <ele>330</ele>
        <time>2022-07-15T07:37:45.000Z</time>
      </trkpt>
      <trkpt lat="49.8988" lon="4.81997">
        <ele>330</ele>
        <time>2022-07-15T07:37:46.000Z</time>
      </trkpt>
      <trkpt lat="49.89881" lon="4.82">
        <ele>330</ele>
        <time>2022-07-15T07:37:47.000Z</time>
      </trkpt>
      <trkpt lat="49.89883" lon="4.82003">
        <ele>330</ele>
        <time>2022-07-15T07:37:48.000Z</time>
      </trkpt>
      <trkpt lat="49.89884" lon="4.82006">
        <ele>330</ele>
        <time>2022-07-15T07:37:49.000Z</time>
      </trkpt>
      <trkpt lat="49.89886" lon="4.82009">
        <ele>331</ele>
        <time>2022-07-15T07:37:50.000Z</time>
      </trkpt>
      <trkpt lat="49.89887" lon="4.82013">
        <ele>331</ele>
        <time>2022-07-15T07:37:51.000Z</time>
      </trkpt>
      <trkpt lat="49.89889" lon="4.82016">
        <ele>331</ele>
        <time>2022-07-15T07:37:52.000Z</time>
      </trkpt>
      <trkpt lat="49.8989" lon="4.82019">
        <ele>331</ele>
        <time>2022-07-15T07:37:53.000Z</time>
      </trkpt>
      <trkpt lat="49.89892" lon="4.82023">
        <ele>331</ele>
        <time>2022-07-15T07:37:54.000Z</time>
      </trkpt>
      <trkpt lat="49.89893" lon="4.82026">
        <ele>332</ele>
        <time>2022-07-15T07:37:55.000Z</time>
      </trkpt>
      <trkpt lat="49.89895" lon="4.82029">
        <ele>332</ele>
        <time>2022-07-15T07:37:56.000Z</time>
      </trkpt>
      <trkpt lat="49.89896" lon="4.82033">
        <ele>333</ele>
        <time>2022-07-15T07:37:57.000Z</time>
      </trkpt>
      <trkpt lat="49.89898" lon="4.82036">
        <ele>333</ele>
        <time>2022-07-15T07:37:58.000Z</time>
      </trkpt>
      <trkpt lat="49.89899" lon="4.8204">
        <ele>333</ele>
        <time>2022-07-15T07:37:59.000Z</time>
      </trkpt>
      <trkpt lat="49.89901" lon="4.82043">
        <ele>333</ele>
        <time>2022-07-15T07:38:00.000Z</time>
      </trkpt>
      <trkpt lat="49.89902" lon="4.82046">
        <ele>334</ele>
        <time>2022-07-15T07:38:01.000Z</time>
      </trkpt>
      <trkpt lat="49.89904" lon="4.82049">
        <ele>334</ele>
        <time>2022-07-15T07:38:02.000Z</time>
      </trkpt>
      <trkpt lat="49.89905" lon="4.82052">
        <ele>334</ele>
        <time>2022-07-15T07:38:03.000Z</time>
      </trkpt>
      <trkpt lat="49.89907" lon="4.82055">
        <ele>334</ele>
        <time>2022-07-15T07:38:04.000Z</time>
      </trkpt>
      <trkpt lat="49.89908" lon="4.82058">
        <ele>334</ele>
        <time>2022-07-15T07:38:05.000Z</time>
      </trkpt>
      <trkpt lat="49.8991" lon="4.82061">
        <ele>334</ele>
        <time>2022-07-15T07:38:06.000Z</time>
      </trkpt>
      <trkpt lat="49.89912" lon="4.82064">
        <ele>334</ele>
        <time>2022-07-15T07:38:07.000Z</time>
      </trkpt>
      <trkpt lat="49.89913" lon="4.82067">
        <ele>334</ele>
        <time>2022-07-15T07:38:08.000Z</time>
      </trkpt>
      <trkpt lat="49.89915" lon="4.8207">
        <ele>334</ele>
        <time>2022-07-15T07:38:09.000Z</time>
      </trkpt>
      <trkpt lat="49.89917" lon="4.82073">
        <ele>335</ele>
        <time>2022-07-15T07:38:10.000Z</time>
      </trkpt>
      <trkpt lat="49.89918" lon="4.82075">
        <ele>335</ele>
        <time>2022-07-15T07:38:11.000Z</time>
      </trkpt>
      <trkpt lat="49.8992" lon="4.82078">
        <ele>335</ele>
        <time>2022-07-15T07:38:12.000Z</time>
      </trkpt>
      <trkpt lat="49.89922" lon="4.82081">
        <ele>335</ele>
        <time>2022-07-15T07:38:13.000Z</time>
      </trkpt>
      <trkpt lat="49.89923" lon="4.82084">
        <ele>335</ele>
        <time>2022-07-15T07:38:14.000Z</time>
      </trkpt>
      <trkpt lat="49.89925" lon="4.82086">
        <ele>335</ele>
        <time>2022-07-15T07:38:15.000Z</time>
      </trkpt>
      <trkpt lat="49.89927" lon="4.82089">
        <ele>336</ele>
        <time>2022-07-15T07:38:16.000Z</time>
      </trkpt>
      <trkpt lat="49.89929" lon="4.82091">
        <ele>336</ele>
        <time>2022-07-15T07:38:17.000Z</time>
      </trkpt>
      <trkpt lat="49.89931" lon="4.82093">
        <ele>336</ele>
        <time>2022-07-15T07:38:18.000Z</time>
      </trkpt>
      <trkpt lat="49.89933" lon="4.82096">
        <ele>337</ele>
        <time>2022-07-15T07:38:19.000Z</time>
      </trkpt>
      <trkpt lat="49.89934" lon="4.82099">
        <ele>337</ele>
        <time>2022-07-15T07:38:20.000Z</time>
      </trkpt>
      <trkpt lat="49.89936" lon="4.82101">
        <ele>338</ele>
        <time>2022-07-15T07:38:21.000Z</time>
      </trkpt>
      <trkpt lat="49.89938" lon="4.82103">
        <ele>338</ele>
        <time>2022-07-15T07:38:22.000Z</time>
      </trkpt>
      <trkpt lat="49.8994" lon="4.82105">
        <ele>338</ele>
        <time>2022-07-15T07:38:23.000Z</time>
      </trkpt>
      <trkpt lat="49.89942" lon="4.82108">
        <ele>339</ele>
        <time>2022-07-15T07:38:24.000Z</time>
      </trkpt>
      <trkpt lat="49.89944" lon="4.8211">
        <ele>339</ele>
        <time>2022-07-15T07:38:25.000Z</time>
      </trkpt>
      <trkpt lat="49.89945" lon="4.82112">
        <ele>340</ele>
        <time>2022-07-15T07:38:26.000Z</time>
      </trkpt>
      <trkpt lat="49.89947" lon="4.82114">
        <ele>340</ele>
        <time>2022-07-15T07:38:27.000Z</time>
      </trkpt>
      <trkpt lat="49.8995" lon="4.82116">
        <ele>340</ele>
        <time>2022-07-15T07:38:28.000Z</time>
      </trkpt>
      <trkpt lat="49.89952" lon="4.82117">
        <ele>341</ele>
        <time>2022-07-15T07:38:29.000Z</time>
      </trkpt>
      <trkpt lat="49.89954" lon="4.82119">
        <ele>341</ele>
        <time>2022-07-15T07:38:30.000Z</time>
      </trkpt>
      <trkpt lat="49.89956" lon="4.82121">
        <ele>341</ele>
        <time>2022-07-15T07:38:31.000Z</time>
      </trkpt>
      <trkpt lat="49.89958" lon="4.82123">
        <ele>342</ele>
        <time>2022-07-15T07:38:32.000Z</time>
      </trkpt>
      <trkpt lat="49.8996" lon="4.82124">
        <ele>342</ele>
        <time>2022-07-15T07:38:33.000Z</time>
      </trkpt>
      <trkpt lat="49.89961" lon="4.82125">
        <ele>342</ele>
        <time>2022-07-15T07:38:34.000Z</time>
      </trkpt>
      <trkpt lat="49.89963" lon="4.82126">
        <ele>343</ele>
        <time>2022-07-15T07:38:35.000Z</time>
      </trkpt>
      <trkpt lat="49.89966" lon="4.82128">
        <ele>343</ele>
        <time>2022-07-15T07:38:36.000Z</time>
      </trkpt>
      <trkpt lat="49.89967" lon="4.82129">
        <ele>343</ele>
        <time>2022-07-15T07:38:37.000Z</time>
      </trkpt>
      <trkpt lat="49.8997" lon="4.8213">
        <ele>344</ele>
        <time>2022-07-15T07:38:38.000Z</time>
      </trkpt>
      <trkpt lat="49.89972" lon="4.8213">
        <ele>344</ele>
        <time>2022-07-15T07:38:39.000Z</time>
      </trkpt>
      <trkpt lat="49.89975" lon="4.82131">
        <ele>344</ele>
        <time>2022-07-15T07:38:40.000Z</time>
      </trkpt>
      <trkpt lat="49.89977" lon="4.82132">
        <ele>344</ele>
        <time>2022-07-15T07:38:41.000Z</time>
      </trkpt>
      <trkpt lat="49.8998" lon="4.82133">
        <ele>345</ele>
        <time>2022-07-15T07:38:42.000Z</time>
      </trkpt>
      <trkpt lat="49.89982" lon="4.82133">
        <ele>345</ele>
        <time>2022-07-15T07:38:43.000Z</time>
      </trkpt>
      <trkpt lat="49.89985" lon="4.82134">
        <ele>345</ele>
        <time>2022-07-15T07:38:44.000Z</time>
      </trkpt>
      <trkpt lat="49.89987" lon="4.82135">
        <ele>346</ele>
        <time>2022-07-15T07:38:45.000Z</time>
      </trkpt>
      <trkpt lat="49.89989" lon="4.82136">
        <ele>346</ele>
        <time>2022-07-15T07:38:46.000Z</time>
      </trkpt>
      <trkpt lat="49.89992" lon="4.82136">
        <ele>346</ele>
        <time>2022-07-15T07:38:47.000Z</time>
      </trkpt>
      <trkpt lat="49.89994" lon="4.82137">
        <ele>346</ele>
        <time>2022-07-15T07:38:48.000Z</time>
      </trkpt>
      <trkpt lat="49.89996" lon="4.82138">
        <ele>346</ele>
        <time>2022-07-15T07:38:49.000Z</time>
      </trkpt>
      <trkpt lat="49.89998" lon="4.82139">
        <ele>346</ele>
        <time>2022-07-15T07:38:50.000Z</time>
      </trkpt>
      <trkpt lat="49.9" lon="4.82139">
        <ele>346</ele>
        <time>2022-07-15T07:38:51.000Z</time>
      </trkpt>
      <trkpt lat="49.90002" lon="4.8214">
        <ele>346</ele>
        <time>2022-07-15T07:38:52.000Z</time>
      </trkpt>
      <trkpt lat="49.90004" lon="4.8214">
        <ele>346</ele>
        <time>2022-07-15T07:38:53.000Z</time>
      </trkpt>
      <trkpt lat="49.90007" lon="4.8214">
        <ele>346</ele>
        <time>2022-07-15T07:38:54.000Z</time>
      </trkpt>
      <trkpt lat="49.90009" lon="4.82141">
        <ele>346</ele>
        <time>2022-07-15T07:38:55.000Z</time>
      </trkpt>
      <trkpt lat="49.90011" lon="4.82141">
        <ele>346</ele>
        <time>2022-07-15T07:38:56.000Z</time>
      </trkpt>
      <trkpt lat="49.90013" lon="4.82142">
        <ele>346</ele>
        <time>2022-07-15T07:38:57.000Z</time>
      </trkpt>
      <trkpt lat="49.90016" lon="4.82143">
        <ele>346</ele>
        <time>2022-07-15T07:38:58.000Z</time>
      </trkpt>
      <trkpt lat="49.90018" lon="4.82144">
        <ele>346</ele>
        <time>2022-07-15T07:38:59.000Z</time>
      </trkpt>
      <trkpt lat="49.9002" lon="4.82145">
        <ele>346</ele>
        <time>2022-07-15T07:39:00.000Z</time>
      </trkpt>
      <trkpt lat="49.90022" lon="4.82146">
        <ele>346</ele>
        <time>2022-07-15T07:39:01.000Z</time>
      </trkpt>
      <trkpt lat="49.90024" lon="4.82147">
        <ele>346</ele>
        <time>2022-07-15T07:39:02.000Z</time>
      </trkpt>
      <trkpt lat="49.90026" lon="4.82148">
        <ele>346</ele>
        <time>2022-07-15T07:39:03.000Z</time>
      </trkpt>
      <trkpt lat="49.90028" lon="4.82149">
        <ele>347</ele>
        <time>2022-07-15T07:39:04.000Z</time>
      </trkpt>
      <trkpt lat="49.9003" lon="4.82151">
        <ele>347</ele>
        <time>2022-07-15T07:39:05.000Z</time>
      </trkpt>
      <trkpt lat="49.90033" lon="4.82153">
        <ele>347</ele>
        <time>2022-07-15T07:39:06.000Z</time>
      </trkpt>
      <trkpt lat="49.90035" lon="4.82154">
        <ele>346</ele>
        <time>2022-07-15T07:39:07.000Z</time>
      </trkpt>
      <trkpt lat="49.90037" lon="4.82156">
        <ele>346</ele>
        <time>2022-07-15T07:39:08.000Z</time>
      </trkpt>
      <trkpt lat="49.9004" lon="4.82157">
        <ele>346</ele>
        <time>2022-07-15T07:39:09.000Z</time>
      </trkpt>
      <trkpt lat="49.90042" lon="4.82159">
        <ele>346</ele>
        <time>2022-07-15T07:39:10.000Z</time>
      </trkpt>
      <trkpt lat="49.90045" lon="4.8216">
        <ele>346</ele>
        <time>2022-07-15T07:39:11.000Z</time>
      </trkpt>
      <trkpt lat="49.90047" lon="4.82162">
        <ele>346</ele>
        <time>2022-07-15T07:39:12.000Z</time>
      </trkpt>
      <trkpt lat="49.9005" lon="4.82163">
        <ele>346</ele>
        <time>2022-07-15T07:39:13.000Z</time>
      </trkpt>
      <trkpt lat="49.90052" lon="4.82166">
        <ele>346</ele>
        <time>2022-07-15T07:39:14.000Z</time>
      </trkpt>
      <trkpt lat="49.90055" lon="4.82168">
        <ele>346</ele>
        <time>2022-07-15T07:39:15.000Z</time>
      </trkpt>
      <trkpt lat="49.90057" lon="4.8217">
        <ele>347</ele>
        <time>2022-07-15T07:39:16.000Z</time>
      </trkpt>
      <trkpt lat="49.9006" lon="4.82173">
        <ele>347</ele>
        <time>2022-07-15T07:39:17.000Z</time>
      </trkpt>
      <trkpt lat="49.90062" lon="4.82175">
        <ele>347</ele>
        <time>2022-07-15T07:39:18.000Z</time>
      </trkpt>
      <trkpt lat="49.90064" lon="4.82178">
        <ele>347</ele>
        <time>2022-07-15T07:39:19.000Z</time>
      </trkpt>
      <trkpt lat="49.90066" lon="4.82181">
        <ele>347</ele>
        <time>2022-07-15T07:39:20.000Z</time>
      </trkpt>
      <trkpt lat="49.90069" lon="4.82184">
        <ele>347</ele>
        <time>2022-07-15T07:39:21.000Z</time>
      </trkpt>
      <trkpt lat="49.90071" lon="4.82187">
        <ele>348</ele>
        <time>2022-07-15T07:39:22.000Z</time>
      </trkpt>
      <trkpt lat="49.90073" lon="4.8219">
        <ele>348</ele>
        <time>2022-07-15T07:39:23.000Z</time>
      </trkpt>
      <trkpt lat="49.90075" lon="4.82194">
        <ele>348</ele>
        <time>2022-07-15T07:39:24.000Z</time>
      </trkpt>
      <trkpt lat="49.90077" lon="4.82196">
        <ele>348</ele>
        <time>2022-07-15T07:39:25.000Z</time>
      </trkpt>
      <trkpt lat="49.90079" lon="4.82198">
        <ele>348</ele>
        <time>2022-07-15T07:39:26.000Z</time>
      </trkpt>
      <trkpt lat="49.90081" lon="4.82201">
        <ele>348</ele>
        <time>2022-07-15T07:39:27.000Z</time>
      </trkpt>
      <trkpt lat="49.90082" lon="4.82204">
        <ele>348</ele>
        <time>2022-07-15T07:39:28.000Z</time>
      </trkpt>
      <trkpt lat="49.90083" lon="4.82205">
        <ele>349</ele>
        <time>2022-07-15T07:39:29.000Z</time>
      </trkpt>
      <trkpt lat="49.90083" lon="4.82205">
        <ele>349</ele>
        <time>2022-07-15T07:39:30.000Z</time>
      </trkpt>
      <trkpt lat="49.90084" lon="4.82205">
        <ele>349</ele>
        <time>2022-07-15T07:39:31.000Z</time>
      </trkpt>
      <trkpt lat="49.90084" lon="4.82205">
        <ele>349</ele>
        <time>2022-07-15T07:39:32.000Z</time>
      </trkpt>
      <trkpt lat="49.90084" lon="4.82205">
        <ele>350</ele>
        <time>2022-07-15T07:39:33.000Z</time>
      </trkpt>
      <trkpt lat="49.90085" lon="4.82205">
        <ele>350</ele>
        <time>2022-07-15T07:39:34.000Z</time>
      </trkpt>
      <trkpt lat="49.90085" lon="4.82205">
        <ele>350</ele>
        <time>2022-07-15T07:39:35.000Z</time>
      </trkpt>
      <trkpt lat="49.90085" lon="4.82205">
        <ele>350</ele>
        <time>2022-07-15T07:39:36.000Z</time>
      </trkpt>
      <trkpt lat="49.90086" lon="4.82205">
        <ele>350</ele>
        <time>2022-07-15T07:39:37.000Z</time>
      </trkpt>
      <trkpt lat="49.90086" lon="4.82205">
        <ele>350</ele>
        <time>2022-07-15T07:39:38.000Z</time>
      </trkpt>
      <trkpt lat="49.90086" lon="4.82205">
        <ele>350</ele>
        <time>2022-07-15T07:39:39.000Z</time>
      </trkpt>
      <trkpt lat="49.90086" lon="4.82205">
        <ele>350</ele>
        <time>2022-07-15T07:39:40.000Z</time>
      </trkpt>
      <trkpt lat="49.90087" lon="4.82205">
        <ele>350</ele>
        <time>2022-07-15T07:39:41.000Z</time>
      </trkpt>
      <trkpt lat="49.90088" lon="4.82206">
        <ele>350</ele>
        <time>2022-07-15T07:39:42.000Z</time>
      </trkpt>
      <trkpt lat="49.90089" lon="4.82208">
        <ele>351</ele>
        <time>2022-07-15T07:39:43.000Z</time>
      </trkpt>
      <trkpt lat="49.90092" lon="4.8221">
        <ele>351</ele>
        <time>2022-07-15T07:39:44.000Z</time>
      </trkpt>
      <trkpt lat="49.90094" lon="4.82213">
        <ele>351</ele>
        <time>2022-07-15T07:39:45.000Z</time>
      </trkpt>
      <trkpt lat="49.90096" lon="4.82215">
        <ele>351</ele>
        <time>2022-07-15T07:39:46.000Z</time>
      </trkpt>
      <trkpt lat="49.90098" lon="4.82217">
        <ele>351</ele>
        <time>2022-07-15T07:39:47.000Z</time>
      </trkpt>
      <trkpt lat="49.901" lon="4.82219">
        <ele>352</ele>
        <time>2022-07-15T07:39:48.000Z</time>
      </trkpt>
      <trkpt lat="49.90102" lon="4.8222">
        <ele>352</ele>
        <time>2022-07-15T07:39:49.000Z</time>
      </trkpt>
      <trkpt lat="49.90104" lon="4.8222">
        <ele>352</ele>
        <time>2022-07-15T07:39:50.000Z</time>
      </trkpt>
      <trkpt lat="49.90106" lon="4.8222">
        <ele>352</ele>
        <time>2022-07-15T07:39:51.000Z</time>
      </trkpt>
      <trkpt lat="49.90108" lon="4.82219">
        <ele>352</ele>
        <time>2022-07-15T07:39:52.000Z</time>
      </trkpt>
      <trkpt lat="49.9011" lon="4.82217">
        <ele>352</ele>
        <time>2022-07-15T07:39:53.000Z</time>
      </trkpt>
      <trkpt lat="49.90112" lon="4.82214">
        <ele>352</ele>
        <time>2022-07-15T07:39:54.000Z</time>
      </trkpt>
      <trkpt lat="49.90114" lon="4.82211">
        <ele>353</ele>
        <time>2022-07-15T07:39:55.000Z</time>
      </trkpt>
      <trkpt lat="49.90116" lon="4.82208">
        <ele>353</ele>
        <time>2022-07-15T07:39:56.000Z</time>
      </trkpt>
      <trkpt lat="49.90118" lon="4.82205">
        <ele>353</ele>
        <time>2022-07-15T07:39:57.000Z</time>
      </trkpt>
      <trkpt lat="49.90119" lon="4.82201">
        <ele>353</ele>
        <time>2022-07-15T07:39:58.000Z</time>
      </trkpt>
      <trkpt lat="49.90121" lon="4.82198">
        <ele>353</ele>
        <time>2022-07-15T07:39:59.000Z</time>
      </trkpt>
      <trkpt lat="49.90123" lon="4.82195">
        <ele>353</ele>
        <time>2022-07-15T07:40:00.000Z</time>
      </trkpt>
      <trkpt lat="49.90125" lon="4.82192">
        <ele>354</ele>
        <time>2022-07-15T07:40:01.000Z</time>
      </trkpt>
      <trkpt lat="49.90127" lon="4.82188">
        <ele>354</ele>
        <time>2022-07-15T07:40:02.000Z</time>
      </trkpt>
      <trkpt lat="49.90128" lon="4.82184">
        <ele>354</ele>
        <time>2022-07-15T07:40:03.000Z</time>
      </trkpt>
      <trkpt lat="49.9013" lon="4.8218">
        <ele>354</ele>
        <time>2022-07-15T07:40:04.000Z</time>
      </trkpt>
      <trkpt lat="49.90132" lon="4.82176">
        <ele>354</ele>
        <time>2022-07-15T07:40:05.000Z</time>
      </trkpt>
      <trkpt lat="49.90133" lon="4.82172">
        <ele>354</ele>
        <time>2022-07-15T07:40:06.000Z</time>
      </trkpt>
      <trkpt lat="49.90135" lon="4.82168">
        <ele>354</ele>
        <time>2022-07-15T07:40:07.000Z</time>
      </trkpt>
      <trkpt lat="49.90136" lon="4.82164">
        <ele>354</ele>
        <time>2022-07-15T07:40:08.000Z</time>
      </trkpt>
      <trkpt lat="49.90138" lon="4.8216">
        <ele>354</ele>
        <time>2022-07-15T07:40:09.000Z</time>
      </trkpt>
      <trkpt lat="49.9014" lon="4.82156">
        <ele>354</ele>
        <time>2022-07-15T07:40:10.000Z</time>
      </trkpt>
      <trkpt lat="49.90141" lon="4.82153">
        <ele>354</ele>
        <time>2022-07-15T07:40:11.000Z</time>
      </trkpt>
      <trkpt lat="49.90142" lon="4.8215">
        <ele>354</ele>
        <time>2022-07-15T07:40:12.000Z</time>
      </trkpt>
      <trkpt lat="49.90144" lon="4.82148">
        <ele>354</ele>
        <time>2022-07-15T07:40:13.000Z</time>
      </trkpt>
      <trkpt lat="49.90145" lon="4.82146">
        <ele>355</ele>
        <time>2022-07-15T07:40:14.000Z</time>
      </trkpt>
      <trkpt lat="49.90146" lon="4.82144">
        <ele>355</ele>
        <time>2022-07-15T07:40:15.000Z</time>
      </trkpt>
      <trkpt lat="49.90147" lon="4.82141">
        <ele>354</ele>
        <time>2022-07-15T07:40:16.000Z</time>
      </trkpt>
      <trkpt lat="49.90147" lon="4.82138">
        <ele>354</ele>
        <time>2022-07-15T07:40:17.000Z</time>
      </trkpt>
      <trkpt lat="49.90148" lon="4.82135">
        <ele>354</ele>
        <time>2022-07-15T07:40:18.000Z</time>
      </trkpt>
      <trkpt lat="49.90149" lon="4.82132">
        <ele>354</ele>
        <time>2022-07-15T07:40:19.000Z</time>
      </trkpt>
      <trkpt lat="49.9015" lon="4.82128">
        <ele>354</ele>
        <time>2022-07-15T07:40:20.000Z</time>
      </trkpt>
      <trkpt lat="49.90151" lon="4.82124">
        <ele>354</ele>
        <time>2022-07-15T07:40:21.000Z</time>
      </trkpt>
      <trkpt lat="49.90151" lon="4.82122">
        <ele>354</ele>
        <time>2022-07-15T07:40:22.000Z</time>
      </trkpt>
      <trkpt lat="49.90151" lon="4.82118">
        <ele>354</ele>
        <time>2022-07-15T07:40:23.000Z</time>
      </trkpt>
      <trkpt lat="49.90152" lon="4.82114">
        <ele>354</ele>
        <time>2022-07-15T07:40:24.000Z</time>
      </trkpt>
      <trkpt lat="49.90152" lon="4.82108">
        <ele>354</ele>
        <time>2022-07-15T07:40:25.000Z</time>
      </trkpt>
      <trkpt lat="49.90152" lon="4.82104">
        <ele>354</ele>
        <time>2022-07-15T07:40:26.000Z</time>
      </trkpt>
      <trkpt lat="49.90152" lon="4.821">
        <ele>354</ele>
        <time>2022-07-15T07:40:27.000Z</time>
      </trkpt>
      <trkpt lat="49.90153" lon="4.82096">
        <ele>354</ele>
        <time>2022-07-15T07:40:28.000Z</time>
      </trkpt>
      <trkpt lat="49.90153" lon="4.82092">
        <ele>355</ele>
        <time>2022-07-15T07:40:29.000Z</time>
      </trkpt>
      <trkpt lat="49.90152" lon="4.82088">
        <ele>355</ele>
        <time>2022-07-15T07:40:30.000Z</time>
      </trkpt>
      <trkpt lat="49.90152" lon="4.82084">
        <ele>355</ele>
        <time>2022-07-15T07:40:31.000Z</time>
      </trkpt>
      <trkpt lat="49.90151" lon="4.8208">
        <ele>355</ele>
        <time>2022-07-15T07:40:32.000Z</time>
      </trkpt>
      <trkpt lat="49.9015" lon="4.82076">
        <ele>355</ele>
        <time>2022-07-15T07:40:33.000Z</time>
      </trkpt>
      <trkpt lat="49.9015" lon="4.82073">
        <ele>355</ele>
        <time>2022-07-15T07:40:34.000Z</time>
      </trkpt>
      <trkpt lat="49.90151" lon="4.8207">
        <ele>355</ele>
        <time>2022-07-15T07:40:35.000Z</time>
      </trkpt>
      <trkpt lat="49.90152" lon="4.82071">
        <ele>355</ele>
        <time>2022-07-15T07:40:36.000Z</time>
      </trkpt>
      <trkpt lat="49.90152" lon="4.82074">
        <ele>356</ele>
        <time>2022-07-15T07:40:37.000Z</time>
      </trkpt>
      <trkpt lat="49.90152" lon="4.82078">
        <ele>356</ele>
        <time>2022-07-15T07:40:38.000Z</time>
      </trkpt>
      <trkpt lat="49.90152" lon="4.82083">
        <ele>356</ele>
        <time>2022-07-15T07:40:39.000Z</time>
      </trkpt>
      <trkpt lat="49.90152" lon="4.82089">
        <ele>356</ele>
        <time>2022-07-15T07:40:40.000Z</time>
      </trkpt>
      <trkpt lat="49.90151" lon="4.82094">
        <ele>356</ele>
        <time>2022-07-15T07:40:41.000Z</time>
      </trkpt>
      <trkpt lat="49.9015" lon="4.82101">
        <ele>356</ele>
        <time>2022-07-15T07:40:42.000Z</time>
      </trkpt>
      <trkpt lat="49.9015" lon="4.82107">
        <ele>356</ele>
        <time>2022-07-15T07:40:43.000Z</time>
      </trkpt>
      <trkpt lat="49.90149" lon="4.82114">
        <ele>356</ele>
        <time>2022-07-15T07:40:44.000Z</time>
      </trkpt>
      <trkpt lat="49.90148" lon="4.8212">
        <ele>356</ele>
        <time>2022-07-15T07:40:45.000Z</time>
      </trkpt>
      <trkpt lat="49.90146" lon="4.82127">
        <ele>355</ele>
        <time>2022-07-15T07:40:46.000Z</time>
      </trkpt>
      <trkpt lat="49.90144" lon="4.82133">
        <ele>355</ele>
        <time>2022-07-15T07:40:47.000Z</time>
      </trkpt>
      <trkpt lat="49.90142" lon="4.82138">
        <ele>355</ele>
        <time>2022-07-15T07:40:48.000Z</time>
      </trkpt>
      <trkpt lat="49.9014" lon="4.82141">
        <ele>355</ele>
        <time>2022-07-15T07:40:49.000Z</time>
      </trkpt>
      <trkpt lat="49.90139" lon="4.82145">
        <ele>355</ele>
        <time>2022-07-15T07:40:50.000Z</time>
      </trkpt>
      <trkpt lat="49.90138" lon="4.82148">
        <ele>356</ele>
        <time>2022-07-15T07:40:51.000Z</time>
      </trkpt>
      <trkpt lat="49.90136" lon="4.82152">
        <ele>356</ele>
        <time>2022-07-15T07:40:52.000Z</time>
      </trkpt>
      <trkpt lat="49.90134" lon="4.82156">
        <ele>356</ele>
        <time>2022-07-15T07:40:53.000Z</time>
      </trkpt>
      <trkpt lat="49.90132" lon="4.82161">
        <ele>356</ele>
        <time>2022-07-15T07:40:54.000Z</time>
      </trkpt>
      <trkpt lat="49.9013" lon="4.82167">
        <ele>356</ele>
        <time>2022-07-15T07:40:55.000Z</time>
      </trkpt>
      <trkpt lat="49.90128" lon="4.82173">
        <ele>356</ele>
        <time>2022-07-15T07:40:56.000Z</time>
      </trkpt>
      <trkpt lat="49.90127" lon="4.82179">
        <ele>356</ele>
        <time>2022-07-15T07:40:57.000Z</time>
      </trkpt>
      <trkpt lat="49.90128" lon="4.82186">
        <ele>356</ele>
        <time>2022-07-15T07:40:58.000Z</time>
      </trkpt>
      <trkpt lat="49.90128" lon="4.82191">
        <ele>356</ele>
        <time>2022-07-15T07:40:59.000Z</time>
      </trkpt>
      <trkpt lat="49.9013" lon="4.82196">
        <ele>356</ele>
        <time>2022-07-15T07:41:00.000Z</time>
      </trkpt>
      <trkpt lat="49.90131" lon="4.822">
        <ele>356</ele>
        <time>2022-07-15T07:41:01.000Z</time>
      </trkpt>
      <trkpt lat="49.90133" lon="4.82203">
        <ele>356</ele>
        <time>2022-07-15T07:41:02.000Z</time>
      </trkpt>
      <trkpt lat="49.90136" lon="4.82206">
        <ele>356</ele>
        <time>2022-07-15T07:41:03.000Z</time>
      </trkpt>
      <trkpt lat="49.90138" lon="4.82209">
        <ele>356</ele>
        <time>2022-07-15T07:41:04.000Z</time>
      </trkpt>
      <trkpt lat="49.90141" lon="4.82211">
        <ele>356</ele>
        <time>2022-07-15T07:41:05.000Z</time>
      </trkpt>
      <trkpt lat="49.90144" lon="4.82212">
        <ele>356</ele>
        <time>2022-07-15T07:41:06.000Z</time>
      </trkpt>
      <trkpt lat="49.90147" lon="4.82213">
        <ele>356</ele>
        <time>2022-07-15T07:41:07.000Z</time>
      </trkpt>
      <trkpt lat="49.9015" lon="4.82213">
        <ele>355</ele>
        <time>2022-07-15T07:41:08.000Z</time>
      </trkpt>
      <trkpt lat="49.90153" lon="4.82212">
        <ele>355</ele>
        <time>2022-07-15T07:41:09.000Z</time>
      </trkpt>
      <trkpt lat="49.90156" lon="4.8221">
        <ele>355</ele>
        <time>2022-07-15T07:41:10.000Z</time>
      </trkpt>
      <trkpt lat="49.90159" lon="4.82208">
        <ele>355</ele>
        <time>2022-07-15T07:41:11.000Z</time>
      </trkpt>
      <trkpt lat="49.9016" lon="4.82206">
        <ele>355</ele>
        <time>2022-07-15T07:41:12.000Z</time>
      </trkpt>
      <trkpt lat="49.90161" lon="4.82205">
        <ele>355</ele>
        <time>2022-07-15T07:41:13.000Z</time>
      </trkpt>
      <trkpt lat="49.90162" lon="4.82205">
        <ele>355</ele>
        <time>2022-07-15T07:41:14.000Z</time>
      </trkpt>
      <trkpt lat="49.90163" lon="4.82205">
        <ele>355</ele>
        <time>2022-07-15T07:41:15.000Z</time>
      </trkpt>
      <trkpt lat="49.90163" lon="4.82206">
        <ele>355</ele>
        <time>2022-07-15T07:41:16.000Z</time>
      </trkpt>
      <trkpt lat="49.90164" lon="4.82206">
        <ele>355</ele>
        <time>2022-07-15T07:41:17.000Z</time>
      </trkpt>
      <trkpt lat="49.90165" lon="4.82206">
        <ele>355</ele>
        <time>2022-07-15T07:41:18.000Z</time>
      </trkpt>
      <trkpt lat="49.90166" lon="4.82205">
        <ele>355</ele>
        <time>2022-07-15T07:41:19.000Z</time>
      </trkpt>
      <trkpt lat="49.90168" lon="4.82205">
        <ele>355</ele>
        <time>2022-07-15T07:41:20.000Z</time>
      </trkpt>
      <trkpt lat="49.90171" lon="4.82204">
        <ele>355</ele>
        <time>2022-07-15T07:41:21.000Z</time>
      </trkpt>
      <trkpt lat="49.90174" lon="4.82203">
        <ele>355</ele>
        <time>2022-07-15T07:41:22.000Z</time>
      </trkpt>
      <trkpt lat="49.90176" lon="4.82202">
        <ele>355</ele>
        <time>2022-07-15T07:41:23.000Z</time>
      </trkpt>
      <trkpt lat="49.90178" lon="4.82201">
        <ele>355</ele>
        <time>2022-07-15T07:41:24.000Z</time>
      </trkpt>
      <trkpt lat="49.90181" lon="4.822">
        <ele>355</ele>
        <time>2022-07-15T07:41:25.000Z</time>
      </trkpt>
      <trkpt lat="49.90184" lon="4.82199">
        <ele>355</ele>
        <time>2022-07-15T07:41:26.000Z</time>
      </trkpt>
      <trkpt lat="49.90186" lon="4.82198">
        <ele>355</ele>
        <time>2022-07-15T07:41:27.000Z</time>
      </trkpt>
      <trkpt lat="49.90189" lon="4.82197">
        <ele>355</ele>
        <time>2022-07-15T07:41:28.000Z</time>
      </trkpt>
      <trkpt lat="49.90191" lon="4.82195">
        <ele>355</ele>
        <time>2022-07-15T07:41:29.000Z</time>
      </trkpt>
      <trkpt lat="49.90194" lon="4.82195">
        <ele>355</ele>
        <time>2022-07-15T07:41:30.000Z</time>
      </trkpt>
      <trkpt lat="49.90197" lon="4.82194">
        <ele>356</ele>
        <time>2022-07-15T07:41:31.000Z</time>
      </trkpt>
      <trkpt lat="49.90199" lon="4.82193">
        <ele>356</ele>
        <time>2022-07-15T07:41:32.000Z</time>
      </trkpt>
      <trkpt lat="49.90202" lon="4.82192">
        <ele>356</ele>
        <time>2022-07-15T07:41:33.000Z</time>
      </trkpt>
      <trkpt lat="49.90205" lon="4.82191">
        <ele>356</ele>
        <time>2022-07-15T07:41:34.000Z</time>
      </trkpt>
      <trkpt lat="49.90208" lon="4.8219">
        <ele>356</ele>
        <time>2022-07-15T07:41:35.000Z</time>
      </trkpt>
      <trkpt lat="49.9021" lon="4.82189">
        <ele>356</ele>
        <time>2022-07-15T07:41:36.000Z</time>
      </trkpt>
      <trkpt lat="49.90212" lon="4.82187">
        <ele>356</ele>
        <time>2022-07-15T07:41:37.000Z</time>
      </trkpt>
      <trkpt lat="49.90215" lon="4.82187">
        <ele>356</ele>
        <time>2022-07-15T07:41:38.000Z</time>
      </trkpt>
      <trkpt lat="49.90217" lon="4.82186">
        <ele>356</ele>
        <time>2022-07-15T07:41:39.000Z</time>
      </trkpt>
      <trkpt lat="49.90219" lon="4.82185">
        <ele>357</ele>
        <time>2022-07-15T07:41:40.000Z</time>
      </trkpt>
      <trkpt lat="49.90221" lon="4.82185">
        <ele>357</ele>
        <time>2022-07-15T07:41:41.000Z</time>
      </trkpt>
      <trkpt lat="49.90222" lon="4.82184">
        <ele>357</ele>
        <time>2022-07-15T07:41:42.000Z</time>
      </trkpt>
      <trkpt lat="49.90224" lon="4.82183">
        <ele>358</ele>
        <time>2022-07-15T07:41:43.000Z</time>
      </trkpt>
      <trkpt lat="49.90225" lon="4.82182">
        <ele>358</ele>
        <time>2022-07-15T07:41:44.000Z</time>
      </trkpt>
      <trkpt lat="49.90227" lon="4.82181">
        <ele>358</ele>
        <time>2022-07-15T07:41:45.000Z</time>
      </trkpt>
      <trkpt lat="49.9023" lon="4.8218">
        <ele>358</ele>
        <time>2022-07-15T07:41:46.000Z</time>
      </trkpt>
      <trkpt lat="49.90233" lon="4.82179">
        <ele>358</ele>
        <time>2022-07-15T07:41:47.000Z</time>
      </trkpt>
      <trkpt lat="49.90236" lon="4.82178">
        <ele>359</ele>
        <time>2022-07-15T07:41:48.000Z</time>
      </trkpt>
      <trkpt lat="49.90238" lon="4.82178">
        <ele>359</ele>
        <time>2022-07-15T07:41:49.000Z</time>
      </trkpt>
      <trkpt lat="49.9024" lon="4.82177">
        <ele>359</ele>
        <time>2022-07-15T07:41:50.000Z</time>
      </trkpt>
      <trkpt lat="49.90242" lon="4.82176">
        <ele>359</ele>
        <time>2022-07-15T07:41:51.000Z</time>
      </trkpt>
      <trkpt lat="49.90243" lon="4.82175">
        <ele>359</ele>
        <time>2022-07-15T07:41:52.000Z</time>
      </trkpt>
      <trkpt lat="49.90245" lon="4.82174">
        <ele>359</ele>
        <time>2022-07-15T07:41:53.000Z</time>
      </trkpt>
      <trkpt lat="49.90246" lon="4.82172">
        <ele>360</ele>
        <time>2022-07-15T07:41:54.000Z</time>
      </trkpt>
      <trkpt lat="49.90248" lon="4.82171">
        <ele>360</ele>
        <time>2022-07-15T07:41:55.000Z</time>
      </trkpt>
      <trkpt lat="49.90251" lon="4.82171">
        <ele>360</ele>
        <time>2022-07-15T07:41:56.000Z</time>
      </trkpt>
      <trkpt lat="49.90254" lon="4.8217">
        <ele>360</ele>
        <time>2022-07-15T07:41:57.000Z</time>
      </trkpt>
      <trkpt lat="49.90257" lon="4.82169">
        <ele>360</ele>
        <time>2022-07-15T07:41:58.000Z</time>
      </trkpt>
      <trkpt lat="49.90259" lon="4.82169">
        <ele>361</ele>
        <time>2022-07-15T07:41:59.000Z</time>
      </trkpt>
      <trkpt lat="49.90261" lon="4.82167">
        <ele>361</ele>
        <time>2022-07-15T07:42:00.000Z</time>
      </trkpt>
      <trkpt lat="49.90263" lon="4.82165">
        <ele>361</ele>
        <time>2022-07-15T07:42:01.000Z</time>
      </trkpt>
      <trkpt lat="49.90265" lon="4.82163">
        <ele>362</ele>
        <time>2022-07-15T07:42:02.000Z</time>
      </trkpt>
      <trkpt lat="49.90266" lon="4.82161">
        <ele>362</ele>
        <time>2022-07-15T07:42:03.000Z</time>
      </trkpt>
      <trkpt lat="49.90268" lon="4.8216">
        <ele>362</ele>
        <time>2022-07-15T07:42:04.000Z</time>
      </trkpt>
      <trkpt lat="49.9027" lon="4.82158">
        <ele>363</ele>
        <time>2022-07-15T07:42:05.000Z</time>
      </trkpt>
      <trkpt lat="49.90272" lon="4.82156">
        <ele>363</ele>
        <time>2022-07-15T07:42:06.000Z</time>
      </trkpt>
      <trkpt lat="49.90274" lon="4.82154">
        <ele>363</ele>
        <time>2022-07-15T07:42:07.000Z</time>
      </trkpt>
      <trkpt lat="49.90276" lon="4.82152">
        <ele>363</ele>
        <time>2022-07-15T07:42:08.000Z</time>
      </trkpt>
      <trkpt lat="49.90278" lon="4.8215">
        <ele>364</ele>
        <time>2022-07-15T07:42:09.000Z</time>
      </trkpt>
      <trkpt lat="49.9028" lon="4.82149">
        <ele>364</ele>
        <time>2022-07-15T07:42:10.000Z</time>
      </trkpt>
      <trkpt lat="49.90283" lon="4.82147">
        <ele>364</ele>
        <time>2022-07-15T07:42:11.000Z</time>
      </trkpt>
      <trkpt lat="49.90285" lon="4.82145">
        <ele>364</ele>
        <time>2022-07-15T07:42:12.000Z</time>
      </trkpt>
      <trkpt lat="49.90288" lon="4.82144">
        <ele>364</ele>
        <time>2022-07-15T07:42:13.000Z</time>
      </trkpt>
      <trkpt lat="49.9029" lon="4.82142">
        <ele>365</ele>
        <time>2022-07-15T07:42:14.000Z</time>
      </trkpt>
      <trkpt lat="49.90292" lon="4.82141">
        <ele>365</ele>
        <time>2022-07-15T07:42:15.000Z</time>
      </trkpt>
      <trkpt lat="49.90295" lon="4.82139">
        <ele>365</ele>
        <time>2022-07-15T07:42:16.000Z</time>
      </trkpt>
      <trkpt lat="49.90298" lon="4.82137">
        <ele>365</ele>
        <time>2022-07-15T07:42:17.000Z</time>
      </trkpt>
      <trkpt lat="49.903" lon="4.82135">
        <ele>365</ele>
        <time>2022-07-15T07:42:18.000Z</time>
      </trkpt>
      <trkpt lat="49.90303" lon="4.82133">
        <ele>366</ele>
        <time>2022-07-15T07:42:19.000Z</time>
      </trkpt>
      <trkpt lat="49.90305" lon="4.82131">
        <ele>366</ele>
        <time>2022-07-15T07:42:20.000Z</time>
      </trkpt>
      <trkpt lat="49.90307" lon="4.8213">
        <ele>366</ele>
        <time>2022-07-15T07:42:21.000Z</time>
      </trkpt>
      <trkpt lat="49.90309" lon="4.82127">
        <ele>366</ele>
        <time>2022-07-15T07:42:22.000Z</time>
      </trkpt>
      <trkpt lat="49.90311" lon="4.82125">
        <ele>366</ele>
        <time>2022-07-15T07:42:23.000Z</time>
      </trkpt>
      <trkpt lat="49.90314" lon="4.82123">
        <ele>366</ele>
        <time>2022-07-15T07:42:24.000Z</time>
      </trkpt>
      <trkpt lat="49.90316" lon="4.8212">
        <ele>367</ele>
        <time>2022-07-15T07:42:25.000Z</time>
      </trkpt>
      <trkpt lat="49.90318" lon="4.82117">
        <ele>367</ele>
        <time>2022-07-15T07:42:26.000Z</time>
      </trkpt>
      <trkpt lat="49.90321" lon="4.82114">
        <ele>367</ele>
        <time>2022-07-15T07:42:27.000Z</time>
      </trkpt>
      <trkpt lat="49.90323" lon="4.82111">
        <ele>367</ele>
        <time>2022-07-15T07:42:28.000Z</time>
      </trkpt>
      <trkpt lat="49.90326" lon="4.82107">
        <ele>367</ele>
        <time>2022-07-15T07:42:29.000Z</time>
      </trkpt>
      <trkpt lat="49.90329" lon="4.82104">
        <ele>368</ele>
        <time>2022-07-15T07:42:30.000Z</time>
      </trkpt>
      <trkpt lat="49.90331" lon="4.82101">
        <ele>368</ele>
        <time>2022-07-15T07:42:31.000Z</time>
      </trkpt>
      <trkpt lat="49.90333" lon="4.82099">
        <ele>368</ele>
        <time>2022-07-15T07:42:32.000Z</time>
      </trkpt>
      <trkpt lat="49.90335" lon="4.82096">
        <ele>369</ele>
        <time>2022-07-15T07:42:33.000Z</time>
      </trkpt>
      <trkpt lat="49.90338" lon="4.82093">
        <ele>369</ele>
        <time>2022-07-15T07:42:34.000Z</time>
      </trkpt>
      <trkpt lat="49.90341" lon="4.82089">
        <ele>369</ele>
        <time>2022-07-15T07:42:35.000Z</time>
      </trkpt>
      <trkpt lat="49.90344" lon="4.82086">
        <ele>369</ele>
        <time>2022-07-15T07:42:36.000Z</time>
      </trkpt>
      <trkpt lat="49.90348" lon="4.82083">
        <ele>369</ele>
        <time>2022-07-15T07:42:37.000Z</time>
      </trkpt>
      <trkpt lat="49.90351" lon="4.82079">
        <ele>370</ele>
        <time>2022-07-15T07:42:38.000Z</time>
      </trkpt>
      <trkpt lat="49.90353" lon="4.82075">
        <ele>370</ele>
        <time>2022-07-15T07:42:39.000Z</time>
      </trkpt>
      <trkpt lat="49.90356" lon="4.82072">
        <ele>370</ele>
        <time>2022-07-15T07:42:40.000Z</time>
      </trkpt>
      <trkpt lat="49.9036" lon="4.82068">
        <ele>370</ele>
        <time>2022-07-15T07:42:41.000Z</time>
      </trkpt>
      <trkpt lat="49.90363" lon="4.82065">
        <ele>370</ele>
        <time>2022-07-15T07:42:42.000Z</time>
      </trkpt>
      <trkpt lat="49.90366" lon="4.82062">
        <ele>371</ele>
        <time>2022-07-15T07:42:43.000Z</time>
      </trkpt>
      <trkpt lat="49.90369" lon="4.82058">
        <ele>371</ele>
        <time>2022-07-15T07:42:44.000Z</time>
      </trkpt>
      <trkpt lat="49.90373" lon="4.82054">
        <ele>371</ele>
        <time>2022-07-15T07:42:45.000Z</time>
      </trkpt>
      <trkpt lat="49.90377" lon="4.82051">
        <ele>371</ele>
        <time>2022-07-15T07:42:46.000Z</time>
      </trkpt>
      <trkpt lat="49.90379" lon="4.82047">
        <ele>371</ele>
        <time>2022-07-15T07:42:47.000Z</time>
      </trkpt>
      <trkpt lat="49.90381" lon="4.82043">
        <ele>371</ele>
        <time>2022-07-15T07:42:48.000Z</time>
      </trkpt>
      <trkpt lat="49.90384" lon="4.82039">
        <ele>371</ele>
        <time>2022-07-15T07:42:49.000Z</time>
      </trkpt>
      <trkpt lat="49.90387" lon="4.82036">
        <ele>371</ele>
        <time>2022-07-15T07:42:50.000Z</time>
      </trkpt>
      <trkpt lat="49.9039" lon="4.82032">
        <ele>371</ele>
        <time>2022-07-15T07:42:51.000Z</time>
      </trkpt>
      <trkpt lat="49.90393" lon="4.82028">
        <ele>371</ele>
        <time>2022-07-15T07:42:52.000Z</time>
      </trkpt>
      <trkpt lat="49.90396" lon="4.82025">
        <ele>371</ele>
        <time>2022-07-15T07:42:53.000Z</time>
      </trkpt>
      <trkpt lat="49.90398" lon="4.82021">
        <ele>371</ele>
        <time>2022-07-15T07:42:54.000Z</time>
      </trkpt>
      <trkpt lat="49.90401" lon="4.82017">
        <ele>372</ele>
        <time>2022-07-15T07:42:55.000Z</time>
      </trkpt>
      <trkpt lat="49.90403" lon="4.82012">
        <ele>372</ele>
        <time>2022-07-15T07:42:56.000Z</time>
      </trkpt>
      <trkpt lat="49.90406" lon="4.82008">
        <ele>372</ele>
        <time>2022-07-15T07:42:57.000Z</time>
      </trkpt>
      <trkpt lat="49.90408" lon="4.82004">
        <ele>372</ele>
        <time>2022-07-15T07:42:58.000Z</time>
      </trkpt>
      <trkpt lat="49.90411" lon="4.82">
        <ele>372</ele>
        <time>2022-07-15T07:42:59.000Z</time>
      </trkpt>
      <trkpt lat="49.90414" lon="4.81996">
        <ele>372</ele>
        <time>2022-07-15T07:43:00.000Z</time>
      </trkpt>
      <trkpt lat="49.90417" lon="4.81992">
        <ele>372</ele>
        <time>2022-07-15T07:43:01.000Z</time>
      </trkpt>
      <trkpt lat="49.90421" lon="4.81987">
        <ele>372</ele>
        <time>2022-07-15T07:43:02.000Z</time>
      </trkpt>
      <trkpt lat="49.90425" lon="4.81984">
        <ele>373</ele>
        <time>2022-07-15T07:43:03.000Z</time>
      </trkpt>
      <trkpt lat="49.90428" lon="4.81981">
        <ele>373</ele>
        <time>2022-07-15T07:43:04.000Z</time>
      </trkpt>
      <trkpt lat="49.90432" lon="4.81978">
        <ele>373</ele>
        <time>2022-07-15T07:43:05.000Z</time>
      </trkpt>
      <trkpt lat="49.90435" lon="4.81975">
        <ele>373</ele>
        <time>2022-07-15T07:43:06.000Z</time>
      </trkpt>
      <trkpt lat="49.90437" lon="4.81972">
        <ele>373</ele>
        <time>2022-07-15T07:43:07.000Z</time>
      </trkpt>
      <trkpt lat="49.90441" lon="4.81969">
        <ele>374</ele>
        <time>2022-07-15T07:43:08.000Z</time>
      </trkpt>
      <trkpt lat="49.90444" lon="4.81966">
        <ele>374</ele>
        <time>2022-07-15T07:43:09.000Z</time>
      </trkpt>
      <trkpt lat="49.90448" lon="4.81963">
        <ele>374</ele>
        <time>2022-07-15T07:43:10.000Z</time>
      </trkpt>
      <trkpt lat="49.90453" lon="4.81961">
        <ele>374</ele>
        <time>2022-07-15T07:43:11.000Z</time>
      </trkpt>
      <trkpt lat="49.90456" lon="4.81959">
        <ele>374</ele>
        <time>2022-07-15T07:43:12.000Z</time>
      </trkpt>
      <trkpt lat="49.90459" lon="4.81956">
        <ele>374</ele>
        <time>2022-07-15T07:43:13.000Z</time>
      </trkpt>
      <trkpt lat="49.9046" lon="4.81955">
        <ele>374</ele>
        <time>2022-07-15T07:43:14.000Z</time>
      </trkpt>
      <trkpt lat="49.90461" lon="4.81954">
        <ele>375</ele>
        <time>2022-07-15T07:43:15.000Z</time>
      </trkpt>
      <trkpt lat="49.90462" lon="4.81953">
        <ele>375</ele>
        <time>2022-07-15T07:43:16.000Z</time>
      </trkpt>
      <trkpt lat="49.90462" lon="4.81952">
        <ele>375</ele>
        <time>2022-07-15T07:43:17.000Z</time>
      </trkpt>
      <trkpt lat="49.90463" lon="4.81951">
        <ele>375</ele>
        <time>2022-07-15T07:43:18.000Z</time>
      </trkpt>
      <trkpt lat="49.90465" lon="4.81948">
        <ele>375</ele>
        <time>2022-07-15T07:43:19.000Z</time>
      </trkpt>
      <trkpt lat="49.90466" lon="4.81947">
        <ele>376</ele>
        <time>2022-07-15T07:43:20.000Z</time>
      </trkpt>
      <trkpt lat="49.90468" lon="4.81945">
        <ele>376</ele>
        <time>2022-07-15T07:43:21.000Z</time>
      </trkpt>
      <trkpt lat="49.90469" lon="4.81943">
        <ele>376</ele>
        <time>2022-07-15T07:43:22.000Z</time>
      </trkpt>
      <trkpt lat="49.90471" lon="4.8194">
        <ele>376</ele>
        <time>2022-07-15T07:43:23.000Z</time>
      </trkpt>
      <trkpt lat="49.90473" lon="4.81937">
        <ele>376</ele>
        <time>2022-07-15T07:43:24.000Z</time>
      </trkpt>
      <trkpt lat="49.90475" lon="4.81935">
        <ele>376</ele>
        <time>2022-07-15T07:43:25.000Z</time>
      </trkpt>
      <trkpt lat="49.90477" lon="4.81933">
        <ele>376</ele>
        <time>2022-07-15T07:43:26.000Z</time>
      </trkpt>
      <trkpt lat="49.90479" lon="4.8193">
        <ele>376</ele>
        <time>2022-07-15T07:43:27.000Z</time>
      </trkpt>
      <trkpt lat="49.90481" lon="4.81927">
        <ele>376</ele>
        <time>2022-07-15T07:43:28.000Z</time>
      </trkpt>
      <trkpt lat="49.90483" lon="4.81924">
        <ele>376</ele>
        <time>2022-07-15T07:43:29.000Z</time>
      </trkpt>
      <trkpt lat="49.90485" lon="4.81922">
        <ele>376</ele>
        <time>2022-07-15T07:43:30.000Z</time>
      </trkpt>
      <trkpt lat="49.90487" lon="4.81919">
        <ele>376</ele>
        <time>2022-07-15T07:43:31.000Z</time>
      </trkpt>
      <trkpt lat="49.90489" lon="4.81916">
        <ele>376</ele>
        <time>2022-07-15T07:43:32.000Z</time>
      </trkpt>
      <trkpt lat="49.90492" lon="4.81913">
        <ele>376</ele>
        <time>2022-07-15T07:43:33.000Z</time>
      </trkpt>
      <trkpt lat="49.90493" lon="4.8191">
        <ele>377</ele>
        <time>2022-07-15T07:43:34.000Z</time>
      </trkpt>
      <trkpt lat="49.90496" lon="4.81907">
        <ele>377</ele>
        <time>2022-07-15T07:43:35.000Z</time>
      </trkpt>
      <trkpt lat="49.90498" lon="4.81903">
        <ele>377</ele>
        <time>2022-07-15T07:43:36.000Z</time>
      </trkpt>
      <trkpt lat="49.90501" lon="4.81899">
        <ele>377</ele>
        <time>2022-07-15T07:43:37.000Z</time>
      </trkpt>
      <trkpt lat="49.90504" lon="4.81895">
        <ele>377</ele>
        <time>2022-07-15T07:43:38.000Z</time>
      </trkpt>
      <trkpt lat="49.90507" lon="4.81891">
        <ele>377</ele>
        <time>2022-07-15T07:43:39.000Z</time>
      </trkpt>
      <trkpt lat="49.9051" lon="4.81887">
        <ele>377</ele>
        <time>2022-07-15T07:43:40.000Z</time>
      </trkpt>
      <trkpt lat="49.90513" lon="4.81884">
        <ele>377</ele>
        <time>2022-07-15T07:43:41.000Z</time>
      </trkpt>
      <trkpt lat="49.90517" lon="4.81881">
        <ele>378</ele>
        <time>2022-07-15T07:43:42.000Z</time>
      </trkpt>
      <trkpt lat="49.90519" lon="4.81877">
        <ele>378</ele>
        <time>2022-07-15T07:43:43.000Z</time>
      </trkpt>
      <trkpt lat="49.90521" lon="4.81874">
        <ele>378</ele>
        <time>2022-07-15T07:43:44.000Z</time>
      </trkpt>
      <trkpt lat="49.90523" lon="4.8187">
        <ele>378</ele>
        <time>2022-07-15T07:43:45.000Z</time>
      </trkpt>
      <trkpt lat="49.90524" lon="4.81867">
        <ele>378</ele>
        <time>2022-07-15T07:43:46.000Z</time>
      </trkpt>
      <trkpt lat="49.90525" lon="4.81864">
        <ele>378</ele>
        <time>2022-07-15T07:43:47.000Z</time>
      </trkpt>
      <trkpt lat="49.90526" lon="4.81861">
        <ele>378</ele>
        <time>2022-07-15T07:43:48.000Z</time>
      </trkpt>
      <trkpt lat="49.90527" lon="4.81858">
        <ele>379</ele>
        <time>2022-07-15T07:43:49.000Z</time>
      </trkpt>
      <trkpt lat="49.90528" lon="4.81855">
        <ele>379</ele>
        <time>2022-07-15T07:43:50.000Z</time>
      </trkpt>
      <trkpt lat="49.90529" lon="4.81852">
        <ele>379</ele>
        <time>2022-07-15T07:43:51.000Z</time>
      </trkpt>
      <trkpt lat="49.90529" lon="4.8185">
        <ele>379</ele>
        <time>2022-07-15T07:43:52.000Z</time>
      </trkpt>
      <trkpt lat="49.90529" lon="4.81846">
        <ele>379</ele>
        <time>2022-07-15T07:43:53.000Z</time>
      </trkpt>
      <trkpt lat="49.90529" lon="4.81842">
        <ele>379</ele>
        <time>2022-07-15T07:43:54.000Z</time>
      </trkpt>
      <trkpt lat="49.90529" lon="4.81837">
        <ele>379</ele>
        <time>2022-07-15T07:43:55.000Z</time>
      </trkpt>
      <trkpt lat="49.90528" lon="4.81833">
        <ele>379</ele>
        <time>2022-07-15T07:43:56.000Z</time>
      </trkpt>
      <trkpt lat="49.90528" lon="4.81828">
        <ele>380</ele>
        <time>2022-07-15T07:43:57.000Z</time>
      </trkpt>
      <trkpt lat="49.90527" lon="4.81822">
        <ele>380</ele>
        <time>2022-07-15T07:43:58.000Z</time>
      </trkpt>
      <trkpt lat="49.90527" lon="4.81816">
        <ele>380</ele>
        <time>2022-07-15T07:43:59.000Z</time>
      </trkpt>
      <trkpt lat="49.90526" lon="4.81809">
        <ele>380</ele>
        <time>2022-07-15T07:44:00.000Z</time>
      </trkpt>
      <trkpt lat="49.90525" lon="4.81804">
        <ele>380</ele>
        <time>2022-07-15T07:44:01.000Z</time>
      </trkpt>
      <trkpt lat="49.90524" lon="4.81798">
        <ele>381</ele>
        <time>2022-07-15T07:44:02.000Z</time>
      </trkpt>
      <trkpt lat="49.90523" lon="4.81792">
        <ele>381</ele>
        <time>2022-07-15T07:44:03.000Z</time>
      </trkpt>
      <trkpt lat="49.90522" lon="4.81785">
        <ele>381</ele>
        <time>2022-07-15T07:44:04.000Z</time>
      </trkpt>
      <trkpt lat="49.90521" lon="4.81778">
        <ele>381</ele>
        <time>2022-07-15T07:44:05.000Z</time>
      </trkpt>
      <trkpt lat="49.9052" lon="4.81772">
        <ele>381</ele>
        <time>2022-07-15T07:44:06.000Z</time>
      </trkpt>
      <trkpt lat="49.90519" lon="4.81765">
        <ele>381</ele>
        <time>2022-07-15T07:44:07.000Z</time>
      </trkpt>
      <trkpt lat="49.90519" lon="4.81758">
        <ele>381</ele>
        <time>2022-07-15T07:44:08.000Z</time>
      </trkpt>
      <trkpt lat="49.90519" lon="4.81751">
        <ele>381</ele>
        <time>2022-07-15T07:44:09.000Z</time>
      </trkpt>
      <trkpt lat="49.90518" lon="4.81745">
        <ele>381</ele>
        <time>2022-07-15T07:44:10.000Z</time>
      </trkpt>
      <trkpt lat="49.90518" lon="4.81738">
        <ele>381</ele>
        <time>2022-07-15T07:44:11.000Z</time>
      </trkpt>
      <trkpt lat="49.90517" lon="4.81731">
        <ele>381</ele>
        <time>2022-07-15T07:44:12.000Z</time>
      </trkpt>
      <trkpt lat="49.90517" lon="4.81724">
        <ele>381</ele>
        <time>2022-07-15T07:44:13.000Z</time>
      </trkpt>
      <trkpt lat="49.90516" lon="4.81716">
        <ele>381</ele>
        <time>2022-07-15T07:44:14.000Z</time>
      </trkpt>
      <trkpt lat="49.90516" lon="4.81709">
        <ele>381</ele>
        <time>2022-07-15T07:44:15.000Z</time>
      </trkpt>
      <trkpt lat="49.90516" lon="4.81701">
        <ele>381</ele>
        <time>2022-07-15T07:44:16.000Z</time>
      </trkpt>
      <trkpt lat="49.90517" lon="4.81695">
        <ele>381</ele>
        <time>2022-07-15T07:44:17.000Z</time>
      </trkpt>
      <trkpt lat="49.90517" lon="4.81689">
        <ele>380</ele>
        <time>2022-07-15T07:44:18.000Z</time>
      </trkpt>
      <trkpt lat="49.90517" lon="4.81683">
        <ele>380</ele>
        <time>2022-07-15T07:44:19.000Z</time>
      </trkpt>
      <trkpt lat="49.90516" lon="4.81677">
        <ele>380</ele>
        <time>2022-07-15T07:44:20.000Z</time>
      </trkpt>
      <trkpt lat="49.90517" lon="4.81671">
        <ele>380</ele>
        <time>2022-07-15T07:44:21.000Z</time>
      </trkpt>
      <trkpt lat="49.90517" lon="4.81665">
        <ele>380</ele>
        <time>2022-07-15T07:44:22.000Z</time>
      </trkpt>
      <trkpt lat="49.90518" lon="4.81658">
        <ele>380</ele>
        <time>2022-07-15T07:44:23.000Z</time>
      </trkpt>
      <trkpt lat="49.90518" lon="4.81651">
        <ele>380</ele>
        <time>2022-07-15T07:44:24.000Z</time>
      </trkpt>
      <trkpt lat="49.90518" lon="4.81644">
        <ele>380</ele>
        <time>2022-07-15T07:44:25.000Z</time>
      </trkpt>
      <trkpt lat="49.90518" lon="4.81637">
        <ele>380</ele>
        <time>2022-07-15T07:44:26.000Z</time>
      </trkpt>
      <trkpt lat="49.90519" lon="4.81631">
        <ele>380</ele>
        <time>2022-07-15T07:44:27.000Z</time>
      </trkpt>
      <trkpt lat="49.90519" lon="4.81624">
        <ele>380</ele>
        <time>2022-07-15T07:44:28.000Z</time>
      </trkpt>
      <trkpt lat="49.9052" lon="4.81617">
        <ele>380</ele>
        <time>2022-07-15T07:44:29.000Z</time>
      </trkpt>
      <trkpt lat="49.90521" lon="4.8161">
        <ele>379</ele>
        <time>2022-07-15T07:44:30.000Z</time>
      </trkpt>
      <trkpt lat="49.90521" lon="4.81604">
        <ele>379</ele>
        <time>2022-07-15T07:44:31.000Z</time>
      </trkpt>
      <trkpt lat="49.90522" lon="4.81597">
        <ele>379</ele>
        <time>2022-07-15T07:44:32.000Z</time>
      </trkpt>
      <trkpt lat="49.90523" lon="4.8159">
        <ele>379</ele>
        <time>2022-07-15T07:44:33.000Z</time>
      </trkpt>
      <trkpt lat="49.90524" lon="4.81584">
        <ele>379</ele>
        <time>2022-07-15T07:44:34.000Z</time>
      </trkpt>
      <trkpt lat="49.90526" lon="4.81578">
        <ele>379</ele>
        <time>2022-07-15T07:44:35.000Z</time>
      </trkpt>
      <trkpt lat="49.90527" lon="4.81572">
        <ele>379</ele>
        <time>2022-07-15T07:44:36.000Z</time>
      </trkpt>
      <trkpt lat="49.90527" lon="4.81566">
        <ele>380</ele>
        <time>2022-07-15T07:44:37.000Z</time>
      </trkpt>
      <trkpt lat="49.90527" lon="4.81561">
        <ele>380</ele>
        <time>2022-07-15T07:44:38.000Z</time>
      </trkpt>
      <trkpt lat="49.90527" lon="4.81556">
        <ele>380</ele>
        <time>2022-07-15T07:44:39.000Z</time>
      </trkpt>
      <trkpt lat="49.90527" lon="4.81552">
        <ele>380</ele>
        <time>2022-07-15T07:44:40.000Z</time>
      </trkpt>
      <trkpt lat="49.90527" lon="4.81548">
        <ele>380</ele>
        <time>2022-07-15T07:44:41.000Z</time>
      </trkpt>
      <trkpt lat="49.90527" lon="4.81544">
        <ele>380</ele>
        <time>2022-07-15T07:44:42.000Z</time>
      </trkpt>
      <trkpt lat="49.90527" lon="4.81541">
        <ele>380</ele>
        <time>2022-07-15T07:44:43.000Z</time>
      </trkpt>
      <trkpt lat="49.90528" lon="4.81536">
        <ele>380</ele>
        <time>2022-07-15T07:44:44.000Z</time>
      </trkpt>
      <trkpt lat="49.90528" lon="4.81531">
        <ele>380</ele>
        <time>2022-07-15T07:44:45.000Z</time>
      </trkpt>
      <trkpt lat="49.9053" lon="4.81528">
        <ele>380</ele>
        <time>2022-07-15T07:44:46.000Z</time>
      </trkpt>
      <trkpt lat="49.90531" lon="4.81523">
        <ele>380</ele>
        <time>2022-07-15T07:44:47.000Z</time>
      </trkpt>
      <trkpt lat="49.90532" lon="4.81518">
        <ele>380</ele>
        <time>2022-07-15T07:44:48.000Z</time>
      </trkpt>
      <trkpt lat="49.90533" lon="4.81514">
        <ele>380</ele>
        <time>2022-07-15T07:44:49.000Z</time>
      </trkpt>
      <trkpt lat="49.90535" lon="4.8151">
        <ele>380</ele>
        <time>2022-07-15T07:44:50.000Z</time>
      </trkpt>
      <trkpt lat="49.90536" lon="4.81505">
        <ele>380</ele>
        <time>2022-07-15T07:44:51.000Z</time>
      </trkpt>
      <trkpt lat="49.90538" lon="4.815">
        <ele>380</ele>
        <time>2022-07-15T07:44:52.000Z</time>
      </trkpt>
      <trkpt lat="49.90539" lon="4.81493">
        <ele>380</ele>
        <time>2022-07-15T07:44:53.000Z</time>
      </trkpt>
      <trkpt lat="49.9054" lon="4.81488">
        <ele>380</ele>
        <time>2022-07-15T07:44:54.000Z</time>
      </trkpt>
      <trkpt lat="49.90541" lon="4.81483">
        <ele>380</ele>
        <time>2022-07-15T07:44:55.000Z</time>
      </trkpt>
      <trkpt lat="49.90542" lon="4.81477">
        <ele>380</ele>
        <time>2022-07-15T07:44:56.000Z</time>
      </trkpt>
      <trkpt lat="49.90543" lon="4.81472">
        <ele>380</ele>
        <time>2022-07-15T07:44:57.000Z</time>
      </trkpt>
      <trkpt lat="49.90545" lon="4.81467">
        <ele>380</ele>
        <time>2022-07-15T07:44:58.000Z</time>
      </trkpt>
      <trkpt lat="49.90547" lon="4.81461">
        <ele>380</ele>
        <time>2022-07-15T07:44:59.000Z</time>
      </trkpt>
      <trkpt lat="49.90548" lon="4.81455">
        <ele>380</ele>
        <time>2022-07-15T07:45:00.000Z</time>
      </trkpt>
      <trkpt lat="49.90549" lon="4.81448">
        <ele>380</ele>
        <time>2022-07-15T07:45:01.000Z</time>
      </trkpt>
      <trkpt lat="49.9055" lon="4.81441">
        <ele>380</ele>
        <time>2022-07-15T07:45:02.000Z</time>
      </trkpt>
      <trkpt lat="49.9055" lon="4.81434">
        <ele>380</ele>
        <time>2022-07-15T07:45:03.000Z</time>
      </trkpt>
      <trkpt lat="49.90551" lon="4.81427">
        <ele>380</ele>
        <time>2022-07-15T07:45:04.000Z</time>
      </trkpt>
      <trkpt lat="49.90551" lon="4.81421">
        <ele>380</ele>
        <time>2022-07-15T07:45:05.000Z</time>
      </trkpt>
      <trkpt lat="49.90551" lon="4.81414">
        <ele>380</ele>
        <time>2022-07-15T07:45:06.000Z</time>
      </trkpt>
      <trkpt lat="49.90551" lon="4.81408">
        <ele>380</ele>
        <time>2022-07-15T07:45:07.000Z</time>
      </trkpt>
      <trkpt lat="49.90552" lon="4.81402">
        <ele>380</ele>
        <time>2022-07-15T07:45:08.000Z</time>
      </trkpt>
      <trkpt lat="49.90552" lon="4.81395">
        <ele>380</ele>
        <time>2022-07-15T07:45:09.000Z</time>
      </trkpt>
      <trkpt lat="49.90553" lon="4.81388">
        <ele>380</ele>
        <time>2022-07-15T07:45:10.000Z</time>
      </trkpt>
      <trkpt lat="49.90553" lon="4.81382">
        <ele>380</ele>
        <time>2022-07-15T07:45:11.000Z</time>
      </trkpt>
      <trkpt lat="49.90553" lon="4.81376">
        <ele>381</ele>
        <time>2022-07-15T07:45:12.000Z</time>
      </trkpt>
      <trkpt lat="49.90554" lon="4.8137">
        <ele>381</ele>
        <time>2022-07-15T07:45:13.000Z</time>
      </trkpt>
      <trkpt lat="49.90554" lon="4.81364">
        <ele>381</ele>
        <time>2022-07-15T07:45:14.000Z</time>
      </trkpt>
      <trkpt lat="49.90554" lon="4.81358">
        <ele>381</ele>
        <time>2022-07-15T07:45:15.000Z</time>
      </trkpt>
      <trkpt lat="49.90554" lon="4.81354">
        <ele>381</ele>
        <time>2022-07-15T07:45:16.000Z</time>
      </trkpt>
      <trkpt lat="49.90554" lon="4.8135">
        <ele>381</ele>
        <time>2022-07-15T07:45:17.000Z</time>
      </trkpt>
      <trkpt lat="49.90555" lon="4.81347">
        <ele>381</ele>
        <time>2022-07-15T07:45:18.000Z</time>
      </trkpt>
      <trkpt lat="49.90555" lon="4.81344">
        <ele>381</ele>
        <time>2022-07-15T07:45:19.000Z</time>
      </trkpt>
      <trkpt lat="49.90555" lon="4.81341">
        <ele>381</ele>
        <time>2022-07-15T07:45:20.000Z</time>
      </trkpt>
      <trkpt lat="49.90556" lon="4.81337">
        <ele>381</ele>
        <time>2022-07-15T07:45:21.000Z</time>
      </trkpt>
      <trkpt lat="49.90556" lon="4.81334">
        <ele>381</ele>
        <time>2022-07-15T07:45:22.000Z</time>
      </trkpt>
      <trkpt lat="49.90556" lon="4.81331">
        <ele>381</ele>
        <time>2022-07-15T07:45:23.000Z</time>
      </trkpt>
      <trkpt lat="49.90557" lon="4.81328">
        <ele>381</ele>
        <time>2022-07-15T07:45:24.000Z</time>
      </trkpt>
      <trkpt lat="49.90558" lon="4.81325">
        <ele>381</ele>
        <time>2022-07-15T07:45:25.000Z</time>
      </trkpt>
      <trkpt lat="49.90558" lon="4.81322">
        <ele>381</ele>
        <time>2022-07-15T07:45:26.000Z</time>
      </trkpt>
      <trkpt lat="49.90558" lon="4.81318">
        <ele>381</ele>
        <time>2022-07-15T07:45:27.000Z</time>
      </trkpt>
      <trkpt lat="49.90558" lon="4.81315">
        <ele>382</ele>
        <time>2022-07-15T07:45:28.000Z</time>
      </trkpt>
      <trkpt lat="49.90558" lon="4.81311">
        <ele>382</ele>
        <time>2022-07-15T07:45:29.000Z</time>
      </trkpt>
      <trkpt lat="49.90558" lon="4.81307">
        <ele>382</ele>
        <time>2022-07-15T07:45:30.000Z</time>
      </trkpt>
      <trkpt lat="49.90559" lon="4.81302">
        <ele>382</ele>
        <time>2022-07-15T07:45:31.000Z</time>
      </trkpt>
      <trkpt lat="49.90559" lon="4.81299">
        <ele>382</ele>
        <time>2022-07-15T07:45:32.000Z</time>
      </trkpt>
      <trkpt lat="49.90559" lon="4.81295">
        <ele>383</ele>
        <time>2022-07-15T07:45:33.000Z</time>
      </trkpt>
      <trkpt lat="49.9056" lon="4.81291">
        <ele>383</ele>
        <time>2022-07-15T07:45:34.000Z</time>
      </trkpt>
      <trkpt lat="49.9056" lon="4.81286">
        <ele>383</ele>
        <time>2022-07-15T07:45:35.000Z</time>
      </trkpt>
      <trkpt lat="49.9056" lon="4.81283">
        <ele>383</ele>
        <time>2022-07-15T07:45:36.000Z</time>
      </trkpt>
      <trkpt lat="49.9056" lon="4.81279">
        <ele>383</ele>
        <time>2022-07-15T07:45:37.000Z</time>
      </trkpt>
      <trkpt lat="49.9056" lon="4.81276">
        <ele>383</ele>
        <time>2022-07-15T07:45:38.000Z</time>
      </trkpt>
      <trkpt lat="49.9056" lon="4.81272">
        <ele>383</ele>
        <time>2022-07-15T07:45:39.000Z</time>
      </trkpt>
      <trkpt lat="49.9056" lon="4.81269">
        <ele>383</ele>
        <time>2022-07-15T07:45:40.000Z</time>
      </trkpt>
      <trkpt lat="49.9056" lon="4.81265">
        <ele>384</ele>
        <time>2022-07-15T07:45:41.000Z</time>
      </trkpt>
      <trkpt lat="49.90559" lon="4.81262">
        <ele>384</ele>
        <time>2022-07-15T07:45:42.000Z</time>
      </trkpt>
      <trkpt lat="49.90559" lon="4.81258">
        <ele>384</ele>
        <time>2022-07-15T07:45:43.000Z</time>
      </trkpt>
      <trkpt lat="49.90559" lon="4.81254">
        <ele>384</ele>
        <time>2022-07-15T07:45:44.000Z</time>
      </trkpt>
      <trkpt lat="49.90558" lon="4.8125">
        <ele>384</ele>
        <time>2022-07-15T07:45:45.000Z</time>
      </trkpt>
      <trkpt lat="49.90558" lon="4.81246">
        <ele>384</ele>
        <time>2022-07-15T07:45:46.000Z</time>
      </trkpt>
      <trkpt lat="49.90558" lon="4.81243">
        <ele>385</ele>
        <time>2022-07-15T07:45:47.000Z</time>
      </trkpt>
      <trkpt lat="49.90558" lon="4.81239">
        <ele>385</ele>
        <time>2022-07-15T07:45:48.000Z</time>
      </trkpt>
      <trkpt lat="49.90557" lon="4.81235">
        <ele>385</ele>
        <time>2022-07-15T07:45:49.000Z</time>
      </trkpt>
      <trkpt lat="49.90558" lon="4.81232">
        <ele>385</ele>
        <time>2022-07-15T07:45:50.000Z</time>
      </trkpt>
      <trkpt lat="49.90557" lon="4.81229">
        <ele>386</ele>
        <time>2022-07-15T07:45:51.000Z</time>
      </trkpt>
      <trkpt lat="49.90557" lon="4.81225">
        <ele>386</ele>
        <time>2022-07-15T07:45:52.000Z</time>
      </trkpt>
      <trkpt lat="49.90557" lon="4.81222">
        <ele>386</ele>
        <time>2022-07-15T07:45:53.000Z</time>
      </trkpt>
      <trkpt lat="49.90556" lon="4.81218">
        <ele>386</ele>
        <time>2022-07-15T07:45:54.000Z</time>
      </trkpt>
      <trkpt lat="49.90556" lon="4.81215">
        <ele>386</ele>
        <time>2022-07-15T07:45:55.000Z</time>
      </trkpt>
      <trkpt lat="49.90556" lon="4.81211">
        <ele>386</ele>
        <time>2022-07-15T07:45:56.000Z</time>
      </trkpt>
      <trkpt lat="49.90555" lon="4.81208">
        <ele>386</ele>
        <time>2022-07-15T07:45:57.000Z</time>
      </trkpt>
      <trkpt lat="49.90554" lon="4.81204">
        <ele>386</ele>
        <time>2022-07-15T07:45:58.000Z</time>
      </trkpt>
      <trkpt lat="49.90554" lon="4.81201">
        <ele>387</ele>
        <time>2022-07-15T07:45:59.000Z</time>
      </trkpt>
      <trkpt lat="49.90553" lon="4.81198">
        <ele>387</ele>
        <time>2022-07-15T07:46:00.000Z</time>
      </trkpt>
      <trkpt lat="49.90553" lon="4.81195">
        <ele>387</ele>
        <time>2022-07-15T07:46:01.000Z</time>
      </trkpt>
      <trkpt lat="49.90552" lon="4.8119">
        <ele>387</ele>
        <time>2022-07-15T07:46:02.000Z</time>
      </trkpt>
      <trkpt lat="49.90551" lon="4.81186">
        <ele>387</ele>
        <time>2022-07-15T07:46:03.000Z</time>
      </trkpt>
      <trkpt lat="49.90551" lon="4.81181">
        <ele>388</ele>
        <time>2022-07-15T07:46:04.000Z</time>
      </trkpt>
      <trkpt lat="49.9055" lon="4.81177">
        <ele>388</ele>
        <time>2022-07-15T07:46:05.000Z</time>
      </trkpt>
      <trkpt lat="49.90549" lon="4.81171">
        <ele>388</ele>
        <time>2022-07-15T07:46:06.000Z</time>
      </trkpt>
      <trkpt lat="49.90549" lon="4.81166">
        <ele>388</ele>
        <time>2022-07-15T07:46:07.000Z</time>
      </trkpt>
      <trkpt lat="49.90548" lon="4.81162">
        <ele>389</ele>
        <time>2022-07-15T07:46:08.000Z</time>
      </trkpt>
      <trkpt lat="49.90548" lon="4.81157">
        <ele>389</ele>
        <time>2022-07-15T07:46:09.000Z</time>
      </trkpt>
      <trkpt lat="49.90547" lon="4.81152">
        <ele>389</ele>
        <time>2022-07-15T07:46:10.000Z</time>
      </trkpt>
      <trkpt lat="49.90547" lon="4.81147">
        <ele>389</ele>
        <time>2022-07-15T07:46:11.000Z</time>
      </trkpt>
      <trkpt lat="49.90547" lon="4.81141">
        <ele>390</ele>
        <time>2022-07-15T07:46:12.000Z</time>
      </trkpt>
      <trkpt lat="49.90547" lon="4.81136">
        <ele>390</ele>
        <time>2022-07-15T07:46:13.000Z</time>
      </trkpt>
      <trkpt lat="49.90547" lon="4.81131">
        <ele>390</ele>
        <time>2022-07-15T07:46:14.000Z</time>
      </trkpt>
      <trkpt lat="49.90547" lon="4.81125">
        <ele>390</ele>
        <time>2022-07-15T07:46:15.000Z</time>
      </trkpt>
      <trkpt lat="49.90547" lon="4.8112">
        <ele>390</ele>
        <time>2022-07-15T07:46:16.000Z</time>
      </trkpt>
      <trkpt lat="49.90547" lon="4.81115">
        <ele>391</ele>
        <time>2022-07-15T07:46:17.000Z</time>
      </trkpt>
      <trkpt lat="49.90546" lon="4.81109">
        <ele>391</ele>
        <time>2022-07-15T07:46:18.000Z</time>
      </trkpt>
      <trkpt lat="49.90546" lon="4.81104">
        <ele>391</ele>
        <time>2022-07-15T07:46:19.000Z</time>
      </trkpt>
      <trkpt lat="49.90546" lon="4.81099">
        <ele>391</ele>
        <time>2022-07-15T07:46:20.000Z</time>
      </trkpt>
      <trkpt lat="49.90546" lon="4.81094">
        <ele>391</ele>
        <time>2022-07-15T07:46:21.000Z</time>
      </trkpt>
      <trkpt lat="49.90546" lon="4.81088">
        <ele>391</ele>
        <time>2022-07-15T07:46:22.000Z</time>
      </trkpt>
      <trkpt lat="49.90546" lon="4.81082">
        <ele>391</ele>
        <time>2022-07-15T07:46:23.000Z</time>
      </trkpt>
      <trkpt lat="49.90546" lon="4.81077">
        <ele>392</ele>
        <time>2022-07-15T07:46:24.000Z</time>
      </trkpt>
      <trkpt lat="49.90546" lon="4.81071">
        <ele>392</ele>
        <time>2022-07-15T07:46:25.000Z</time>
      </trkpt>
      <trkpt lat="49.90546" lon="4.81065">
        <ele>392</ele>
        <time>2022-07-15T07:46:26.000Z</time>
      </trkpt>
      <trkpt lat="49.90545" lon="4.8106">
        <ele>392</ele>
        <time>2022-07-15T07:46:27.000Z</time>
      </trkpt>
      <trkpt lat="49.90545" lon="4.81054">
        <ele>392</ele>
        <time>2022-07-15T07:46:28.000Z</time>
      </trkpt>
      <trkpt lat="49.90544" lon="4.81048">
        <ele>393</ele>
        <time>2022-07-15T07:46:29.000Z</time>
      </trkpt>
      <trkpt lat="49.90544" lon="4.81041">
        <ele>393</ele>
        <time>2022-07-15T07:46:30.000Z</time>
      </trkpt>
      <trkpt lat="49.90543" lon="4.81034">
        <ele>393</ele>
        <time>2022-07-15T07:46:31.000Z</time>
      </trkpt>
      <trkpt lat="49.90542" lon="4.81026">
        <ele>393</ele>
        <time>2022-07-15T07:46:32.000Z</time>
      </trkpt>
      <trkpt lat="49.90541" lon="4.81019">
        <ele>393</ele>
        <time>2022-07-15T07:46:33.000Z</time>
      </trkpt>
      <trkpt lat="49.9054" lon="4.81011">
        <ele>393</ele>
        <time>2022-07-15T07:46:34.000Z</time>
      </trkpt>
      <trkpt lat="49.9054" lon="4.81003">
        <ele>393</ele>
        <time>2022-07-15T07:46:35.000Z</time>
      </trkpt>
      <trkpt lat="49.90539" lon="4.80994">
        <ele>393</ele>
        <time>2022-07-15T07:46:36.000Z</time>
      </trkpt>
      <trkpt lat="49.9054" lon="4.80987">
        <ele>393</ele>
        <time>2022-07-15T07:46:37.000Z</time>
      </trkpt>
      <trkpt lat="49.90541" lon="4.8098">
        <ele>393</ele>
        <time>2022-07-15T07:46:38.000Z</time>
      </trkpt>
      <trkpt lat="49.90542" lon="4.80973">
        <ele>393</ele>
        <time>2022-07-15T07:46:39.000Z</time>
      </trkpt>
      <trkpt lat="49.90543" lon="4.80967">
        <ele>394</ele>
        <time>2022-07-15T07:46:40.000Z</time>
      </trkpt>
      <trkpt lat="49.90544" lon="4.80961">
        <ele>394</ele>
        <time>2022-07-15T07:46:41.000Z</time>
      </trkpt>
      <trkpt lat="49.90545" lon="4.80954">
        <ele>394</ele>
        <time>2022-07-15T07:46:42.000Z</time>
      </trkpt>
      <trkpt lat="49.90545" lon="4.80949">
        <ele>394</ele>
        <time>2022-07-15T07:46:43.000Z</time>
      </trkpt>
      <trkpt lat="49.90546" lon="4.80944">
        <ele>394</ele>
        <time>2022-07-15T07:46:44.000Z</time>
      </trkpt>
      <trkpt lat="49.90547" lon="4.80939">
        <ele>394</ele>
        <time>2022-07-15T07:46:45.000Z</time>
      </trkpt>
      <trkpt lat="49.90547" lon="4.80933">
        <ele>394</ele>
        <time>2022-07-15T07:46:46.000Z</time>
      </trkpt>
      <trkpt lat="49.90548" lon="4.80927">
        <ele>394</ele>
        <time>2022-07-15T07:46:47.000Z</time>
      </trkpt>
      <trkpt lat="49.90549" lon="4.80921">
        <ele>395</ele>
        <time>2022-07-15T07:46:48.000Z</time>
      </trkpt>
      <trkpt lat="49.9055" lon="4.80915">
        <ele>395</ele>
        <time>2022-07-15T07:46:49.000Z</time>
      </trkpt>
      <trkpt lat="49.90551" lon="4.80908">
        <ele>395</ele>
        <time>2022-07-15T07:46:50.000Z</time>
      </trkpt>
      <trkpt lat="49.90553" lon="4.80902">
        <ele>395</ele>
        <time>2022-07-15T07:46:51.000Z</time>
      </trkpt>
      <trkpt lat="49.90555" lon="4.80896">
        <ele>395</ele>
        <time>2022-07-15T07:46:52.000Z</time>
      </trkpt>
      <trkpt lat="49.90556" lon="4.80891">
        <ele>395</ele>
        <time>2022-07-15T07:46:53.000Z</time>
      </trkpt>
      <trkpt lat="49.90557" lon="4.80886">
        <ele>395</ele>
        <time>2022-07-15T07:46:54.000Z</time>
      </trkpt>
      <trkpt lat="49.90558" lon="4.80881">
        <ele>395</ele>
        <time>2022-07-15T07:46:55.000Z</time>
      </trkpt>
      <trkpt lat="49.9056" lon="4.80875">
        <ele>395</ele>
        <time>2022-07-15T07:46:56.000Z</time>
      </trkpt>
      <trkpt lat="49.90562" lon="4.80869">
        <ele>395</ele>
        <time>2022-07-15T07:46:57.000Z</time>
      </trkpt>
      <trkpt lat="49.90564" lon="4.80863">
        <ele>395</ele>
        <time>2022-07-15T07:46:58.000Z</time>
      </trkpt>
      <trkpt lat="49.90566" lon="4.80857">
        <ele>395</ele>
        <time>2022-07-15T07:46:59.000Z</time>
      </trkpt>
      <trkpt lat="49.90567" lon="4.80851">
        <ele>395</ele>
        <time>2022-07-15T07:47:00.000Z</time>
      </trkpt>
      <trkpt lat="49.90568" lon="4.80845">
        <ele>395</ele>
        <time>2022-07-15T07:47:01.000Z</time>
      </trkpt>
      <trkpt lat="49.90569" lon="4.8084">
        <ele>395</ele>
        <time>2022-07-15T07:47:02.000Z</time>
      </trkpt>
      <trkpt lat="49.9057" lon="4.80835">
        <ele>395</ele>
        <time>2022-07-15T07:47:03.000Z</time>
      </trkpt>
      <trkpt lat="49.90571" lon="4.80833">
        <ele>395</ele>
        <time>2022-07-15T07:47:04.000Z</time>
      </trkpt>
      <trkpt lat="49.90571" lon="4.80832">
        <ele>395</ele>
        <time>2022-07-15T07:47:05.000Z</time>
      </trkpt>
      <trkpt lat="49.90571" lon="4.80832">
        <ele>395</ele>
        <time>2022-07-15T07:47:06.000Z</time>
      </trkpt>
      <trkpt lat="49.90571" lon="4.80832">
        <ele>395</ele>
        <time>2022-07-15T07:47:07.000Z</time>
      </trkpt>
      <trkpt lat="49.90571" lon="4.80832">
        <ele>395</ele>
        <time>2022-07-15T07:47:08.000Z</time>
      </trkpt>
      <trkpt lat="49.90571" lon="4.80831">
        <ele>396</ele>
        <time>2022-07-15T07:47:09.000Z</time>
      </trkpt>
      <trkpt lat="49.90571" lon="4.80831">
        <ele>396</ele>
        <time>2022-07-15T07:47:10.000Z</time>
      </trkpt>
      <trkpt lat="49.90571" lon="4.8083">
        <ele>396</ele>
        <time>2022-07-15T07:47:11.000Z</time>
      </trkpt>
      <trkpt lat="49.9057" lon="4.80829">
        <ele>396</ele>
        <time>2022-07-15T07:47:12.000Z</time>
      </trkpt>
      <trkpt lat="49.90569" lon="4.80826">
        <ele>396</ele>
        <time>2022-07-15T07:47:13.000Z</time>
      </trkpt>
      <trkpt lat="49.90568" lon="4.80823">
        <ele>396</ele>
        <time>2022-07-15T07:47:14.000Z</time>
      </trkpt>
      <trkpt lat="49.90566" lon="4.8082">
        <ele>396</ele>
        <time>2022-07-15T07:47:15.000Z</time>
      </trkpt>
      <trkpt lat="49.90565" lon="4.80815">
        <ele>395</ele>
        <time>2022-07-15T07:47:16.000Z</time>
      </trkpt>
      <trkpt lat="49.90563" lon="4.80811">
        <ele>395</ele>
        <time>2022-07-15T07:47:17.000Z</time>
      </trkpt>
      <trkpt lat="49.90562" lon="4.80807">
        <ele>395</ele>
        <time>2022-07-15T07:47:18.000Z</time>
      </trkpt>
      <trkpt lat="49.9056" lon="4.80802">
        <ele>395</ele>
        <time>2022-07-15T07:47:19.000Z</time>
      </trkpt>
      <trkpt lat="49.90559" lon="4.80797">
        <ele>395</ele>
        <time>2022-07-15T07:47:20.000Z</time>
      </trkpt>
      <trkpt lat="49.90559" lon="4.80792">
        <ele>395</ele>
        <time>2022-07-15T07:47:21.000Z</time>
      </trkpt>
      <trkpt lat="49.90558" lon="4.80788">
        <ele>395</ele>
        <time>2022-07-15T07:47:22.000Z</time>
      </trkpt>
      <trkpt lat="49.90557" lon="4.80783">
        <ele>395</ele>
        <time>2022-07-15T07:47:23.000Z</time>
      </trkpt>
      <trkpt lat="49.90557" lon="4.80778">
        <ele>395</ele>
        <time>2022-07-15T07:47:24.000Z</time>
      </trkpt>
      <trkpt lat="49.90557" lon="4.80772">
        <ele>394</ele>
        <time>2022-07-15T07:47:25.000Z</time>
      </trkpt>
      <trkpt lat="49.90558" lon="4.80767">
        <ele>394</ele>
        <time>2022-07-15T07:47:26.000Z</time>
      </trkpt>
      <trkpt lat="49.90558" lon="4.80761">
        <ele>394</ele>
        <time>2022-07-15T07:47:27.000Z</time>
      </trkpt>
      <trkpt lat="49.90557" lon="4.80756">
        <ele>394</ele>
        <time>2022-07-15T07:47:28.000Z</time>
      </trkpt>
      <trkpt lat="49.90556" lon="4.80751">
        <ele>394</ele>
        <time>2022-07-15T07:47:29.000Z</time>
      </trkpt>
      <trkpt lat="49.90555" lon="4.80747">
        <ele>393</ele>
        <time>2022-07-15T07:47:30.000Z</time>
      </trkpt>
      <trkpt lat="49.90555" lon="4.80742">
        <ele>393</ele>
        <time>2022-07-15T07:47:31.000Z</time>
      </trkpt>
      <trkpt lat="49.90553" lon="4.80737">
        <ele>393</ele>
        <time>2022-07-15T07:47:32.000Z</time>
      </trkpt>
      <trkpt lat="49.90552" lon="4.80731">
        <ele>393</ele>
        <time>2022-07-15T07:47:33.000Z</time>
      </trkpt>
      <trkpt lat="49.90552" lon="4.80726">
        <ele>393</ele>
        <time>2022-07-15T07:47:34.000Z</time>
      </trkpt>
      <trkpt lat="49.90551" lon="4.80721">
        <ele>393</ele>
        <time>2022-07-15T07:47:35.000Z</time>
      </trkpt>
      <trkpt lat="49.9055" lon="4.80717">
        <ele>393</ele>
        <time>2022-07-15T07:47:36.000Z</time>
      </trkpt>
      <trkpt lat="49.90549" lon="4.80713">
        <ele>393</ele>
        <time>2022-07-15T07:47:37.000Z</time>
      </trkpt>
      <trkpt lat="49.90548" lon="4.8071">
        <ele>393</ele>
        <time>2022-07-15T07:47:38.000Z</time>
      </trkpt>
      <trkpt lat="49.90547" lon="4.80707">
        <ele>394</ele>
        <time>2022-07-15T07:47:39.000Z</time>
      </trkpt>
      <trkpt lat="49.90547" lon="4.80703">
        <ele>394</ele>
        <time>2022-07-15T07:47:40.000Z</time>
      </trkpt>
      <trkpt lat="49.90545" lon="4.807">
        <ele>394</ele>
        <time>2022-07-15T07:47:41.000Z</time>
      </trkpt>
      <trkpt lat="49.90544" lon="4.80696">
        <ele>394</ele>
        <time>2022-07-15T07:47:42.000Z</time>
      </trkpt>
      <trkpt lat="49.90543" lon="4.80692">
        <ele>394</ele>
        <time>2022-07-15T07:47:43.000Z</time>
      </trkpt>
      <trkpt lat="49.90542" lon="4.80689">
        <ele>394</ele>
        <time>2022-07-15T07:47:44.000Z</time>
      </trkpt>
      <trkpt lat="49.90541" lon="4.80685">
        <ele>394</ele>
        <time>2022-07-15T07:47:45.000Z</time>
      </trkpt>
      <trkpt lat="49.9054" lon="4.80682">
        <ele>394</ele>
        <time>2022-07-15T07:47:46.000Z</time>
      </trkpt>
      <trkpt lat="49.9054" lon="4.80679">
        <ele>395</ele>
        <time>2022-07-15T07:47:47.000Z</time>
      </trkpt>
      <trkpt lat="49.90539" lon="4.80676">
        <ele>395</ele>
        <time>2022-07-15T07:47:48.000Z</time>
      </trkpt>
      <trkpt lat="49.90538" lon="4.80673">
        <ele>395</ele>
        <time>2022-07-15T07:47:49.000Z</time>
      </trkpt>
      <trkpt lat="49.90536" lon="4.80669">
        <ele>395</ele>
        <time>2022-07-15T07:47:50.000Z</time>
      </trkpt>
      <trkpt lat="49.90535" lon="4.80666">
        <ele>395</ele>
        <time>2022-07-15T07:47:51.000Z</time>
      </trkpt>
      <trkpt lat="49.90534" lon="4.80662">
        <ele>395</ele>
        <time>2022-07-15T07:47:52.000Z</time>
      </trkpt>
      <trkpt lat="49.90533" lon="4.80658">
        <ele>396</ele>
        <time>2022-07-15T07:47:53.000Z</time>
      </trkpt>
      <trkpt lat="49.90532" lon="4.80655">
        <ele>396</ele>
        <time>2022-07-15T07:47:54.000Z</time>
      </trkpt>
      <trkpt lat="49.90531" lon="4.80651">
        <ele>396</ele>
        <time>2022-07-15T07:47:55.000Z</time>
      </trkpt>
      <trkpt lat="49.90529" lon="4.80647">
        <ele>396</ele>
        <time>2022-07-15T07:47:56.000Z</time>
      </trkpt>
      <trkpt lat="49.90528" lon="4.80644">
        <ele>397</ele>
        <time>2022-07-15T07:47:57.000Z</time>
      </trkpt>
      <trkpt lat="49.90527" lon="4.8064">
        <ele>397</ele>
        <time>2022-07-15T07:47:58.000Z</time>
      </trkpt>
      <trkpt lat="49.90526" lon="4.80637">
        <ele>397</ele>
        <time>2022-07-15T07:47:59.000Z</time>
      </trkpt>
      <trkpt lat="49.90525" lon="4.80634">
        <ele>397</ele>
        <time>2022-07-15T07:48:00.000Z</time>
      </trkpt>
      <trkpt lat="49.90524" lon="4.80631">
        <ele>397</ele>
        <time>2022-07-15T07:48:01.000Z</time>
      </trkpt>
      <trkpt lat="49.90523" lon="4.80627">
        <ele>397</ele>
        <time>2022-07-15T07:48:02.000Z</time>
      </trkpt>
      <trkpt lat="49.90521" lon="4.80624">
        <ele>398</ele>
        <time>2022-07-15T07:48:03.000Z</time>
      </trkpt>
      <trkpt lat="49.9052" lon="4.80621">
        <ele>398</ele>
        <time>2022-07-15T07:48:04.000Z</time>
      </trkpt>
      <trkpt lat="49.90519" lon="4.80617">
        <ele>398</ele>
        <time>2022-07-15T07:48:05.000Z</time>
      </trkpt>
      <trkpt lat="49.90517" lon="4.80613">
        <ele>399</ele>
        <time>2022-07-15T07:48:06.000Z</time>
      </trkpt>
      <trkpt lat="49.90516" lon="4.8061">
        <ele>399</ele>
        <time>2022-07-15T07:48:07.000Z</time>
      </trkpt>
      <trkpt lat="49.90515" lon="4.80607">
        <ele>399</ele>
        <time>2022-07-15T07:48:08.000Z</time>
      </trkpt>
      <trkpt lat="49.90514" lon="4.80604">
        <ele>399</ele>
        <time>2022-07-15T07:48:09.000Z</time>
      </trkpt>
      <trkpt lat="49.90512" lon="4.80601">
        <ele>400</ele>
        <time>2022-07-15T07:48:10.000Z</time>
      </trkpt>
      <trkpt lat="49.90511" lon="4.80597">
        <ele>400</ele>
        <time>2022-07-15T07:48:11.000Z</time>
      </trkpt>
      <trkpt lat="49.90509" lon="4.80594">
        <ele>400</ele>
        <time>2022-07-15T07:48:12.000Z</time>
      </trkpt>
      <trkpt lat="49.90508" lon="4.80591">
        <ele>400</ele>
        <time>2022-07-15T07:48:13.000Z</time>
      </trkpt>
      <trkpt lat="49.90507" lon="4.80588">
        <ele>401</ele>
        <time>2022-07-15T07:48:14.000Z</time>
      </trkpt>
      <trkpt lat="49.90505" lon="4.80585">
        <ele>401</ele>
        <time>2022-07-15T07:48:15.000Z</time>
      </trkpt>
      <trkpt lat="49.90504" lon="4.80582">
        <ele>401</ele>
        <time>2022-07-15T07:48:16.000Z</time>
      </trkpt>
      <trkpt lat="49.90502" lon="4.80579">
        <ele>402</ele>
        <time>2022-07-15T07:48:17.000Z</time>
      </trkpt>
      <trkpt lat="49.90501" lon="4.80575">
        <ele>402</ele>
        <time>2022-07-15T07:48:18.000Z</time>
      </trkpt>
      <trkpt lat="49.905" lon="4.80572">
        <ele>402</ele>
        <time>2022-07-15T07:48:19.000Z</time>
      </trkpt>
      <trkpt lat="49.90498" lon="4.80569">
        <ele>402</ele>
        <time>2022-07-15T07:48:20.000Z</time>
      </trkpt>
      <trkpt lat="49.90496" lon="4.80566">
        <ele>402</ele>
        <time>2022-07-15T07:48:21.000Z</time>
      </trkpt>
      <trkpt lat="49.90495" lon="4.80563">
        <ele>403</ele>
        <time>2022-07-15T07:48:22.000Z</time>
      </trkpt>
      <trkpt lat="49.90493" lon="4.8056">
        <ele>403</ele>
        <time>2022-07-15T07:48:23.000Z</time>
      </trkpt>
      <trkpt lat="49.90492" lon="4.80556">
        <ele>403</ele>
        <time>2022-07-15T07:48:24.000Z</time>
      </trkpt>
      <trkpt lat="49.90491" lon="4.80553">
        <ele>403</ele>
        <time>2022-07-15T07:48:25.000Z</time>
      </trkpt>
      <trkpt lat="49.9049" lon="4.8055">
        <ele>404</ele>
        <time>2022-07-15T07:48:26.000Z</time>
      </trkpt>
      <trkpt lat="49.90489" lon="4.80546">
        <ele>404</ele>
        <time>2022-07-15T07:48:27.000Z</time>
      </trkpt>
      <trkpt lat="49.90487" lon="4.80543">
        <ele>404</ele>
        <time>2022-07-15T07:48:28.000Z</time>
      </trkpt>
      <trkpt lat="49.90486" lon="4.8054">
        <ele>404</ele>
        <time>2022-07-15T07:48:29.000Z</time>
      </trkpt>
      <trkpt lat="49.90485" lon="4.80536">
        <ele>405</ele>
        <time>2022-07-15T07:48:30.000Z</time>
      </trkpt>
      <trkpt lat="49.90483" lon="4.80532">
        <ele>405</ele>
        <time>2022-07-15T07:48:31.000Z</time>
      </trkpt>
      <trkpt lat="49.90481" lon="4.80528">
        <ele>405</ele>
        <time>2022-07-15T07:48:32.000Z</time>
      </trkpt>
      <trkpt lat="49.9048" lon="4.80525">
        <ele>405</ele>
        <time>2022-07-15T07:48:33.000Z</time>
      </trkpt>
      <trkpt lat="49.90479" lon="4.80522">
        <ele>406</ele>
        <time>2022-07-15T07:48:34.000Z</time>
      </trkpt>
      <trkpt lat="49.90478" lon="4.80519">
        <ele>406</ele>
        <time>2022-07-15T07:48:35.000Z</time>
      </trkpt>
      <trkpt lat="49.90477" lon="4.80516">
        <ele>406</ele>
        <time>2022-07-15T07:48:36.000Z</time>
      </trkpt>
      <trkpt lat="49.90475" lon="4.80513">
        <ele>406</ele>
        <time>2022-07-15T07:48:37.000Z</time>
      </trkpt>
      <trkpt lat="49.90474" lon="4.8051">
        <ele>406</ele>
        <time>2022-07-15T07:48:38.000Z</time>
      </trkpt>
      <trkpt lat="49.90472" lon="4.80507">
        <ele>407</ele>
        <time>2022-07-15T07:48:39.000Z</time>
      </trkpt>
      <trkpt lat="49.90471" lon="4.80504">
        <ele>407</ele>
        <time>2022-07-15T07:48:40.000Z</time>
      </trkpt>
      <trkpt lat="49.90471" lon="4.80501">
        <ele>407</ele>
        <time>2022-07-15T07:48:41.000Z</time>
      </trkpt>
      <trkpt lat="49.90471" lon="4.80498">
        <ele>407</ele>
        <time>2022-07-15T07:48:42.000Z</time>
      </trkpt>
      <trkpt lat="49.9047" lon="4.80494">
        <ele>407</ele>
        <time>2022-07-15T07:48:43.000Z</time>
      </trkpt>
      <trkpt lat="49.90469" lon="4.80492">
        <ele>407</ele>
        <time>2022-07-15T07:48:44.000Z</time>
      </trkpt>
      <trkpt lat="49.90468" lon="4.80488">
        <ele>407</ele>
        <time>2022-07-15T07:48:45.000Z</time>
      </trkpt>
      <trkpt lat="49.90467" lon="4.80484">
        <ele>407</ele>
        <time>2022-07-15T07:48:46.000Z</time>
      </trkpt>
      <trkpt lat="49.90466" lon="4.8048">
        <ele>407</ele>
        <time>2022-07-15T07:48:47.000Z</time>
      </trkpt>
      <trkpt lat="49.90465" lon="4.80476">
        <ele>407</ele>
        <time>2022-07-15T07:48:48.000Z</time>
      </trkpt>
      <trkpt lat="49.90464" lon="4.80472">
        <ele>407</ele>
        <time>2022-07-15T07:48:49.000Z</time>
      </trkpt>
      <trkpt lat="49.90463" lon="4.80468">
        <ele>407</ele>
        <time>2022-07-15T07:48:50.000Z</time>
      </trkpt>
      <trkpt lat="49.90462" lon="4.80465">
        <ele>407</ele>
        <time>2022-07-15T07:48:51.000Z</time>
      </trkpt>
      <trkpt lat="49.90462" lon="4.80461">
        <ele>407</ele>
        <time>2022-07-15T07:48:52.000Z</time>
      </trkpt>
      <trkpt lat="49.90461" lon="4.80457">
        <ele>407</ele>
        <time>2022-07-15T07:48:53.000Z</time>
      </trkpt>
      <trkpt lat="49.90459" lon="4.80453">
        <ele>407</ele>
        <time>2022-07-15T07:48:54.000Z</time>
      </trkpt>
      <trkpt lat="49.90458" lon="4.80448">
        <ele>407</ele>
        <time>2022-07-15T07:48:55.000Z</time>
      </trkpt>
      <trkpt lat="49.90457" lon="4.80443">
        <ele>408</ele>
        <time>2022-07-15T07:48:56.000Z</time>
      </trkpt>
      <trkpt lat="49.90456" lon="4.80438">
        <ele>408</ele>
        <time>2022-07-15T07:48:57.000Z</time>
      </trkpt>
      <trkpt lat="49.90456" lon="4.80433">
        <ele>408</ele>
        <time>2022-07-15T07:48:58.000Z</time>
      </trkpt>
      <trkpt lat="49.90454" lon="4.80429">
        <ele>408</ele>
        <time>2022-07-15T07:48:59.000Z</time>
      </trkpt>
      <trkpt lat="49.90453" lon="4.80424">
        <ele>408</ele>
        <time>2022-07-15T07:49:00.000Z</time>
      </trkpt>
      <trkpt lat="49.90452" lon="4.80419">
        <ele>408</ele>
        <time>2022-07-15T07:49:01.000Z</time>
      </trkpt>
      <trkpt lat="49.90451" lon="4.80414">
        <ele>408</ele>
        <time>2022-07-15T07:49:02.000Z</time>
      </trkpt>
      <trkpt lat="49.90449" lon="4.80409">
        <ele>408</ele>
        <time>2022-07-15T07:49:03.000Z</time>
      </trkpt>
      <trkpt lat="49.90448" lon="4.80404">
        <ele>409</ele>
        <time>2022-07-15T07:49:04.000Z</time>
      </trkpt>
      <trkpt lat="49.90446" lon="4.804">
        <ele>409</ele>
        <time>2022-07-15T07:49:05.000Z</time>
      </trkpt>
      <trkpt lat="49.90445" lon="4.80396">
        <ele>409</ele>
        <time>2022-07-15T07:49:06.000Z</time>
      </trkpt>
      <trkpt lat="49.90444" lon="4.80392">
        <ele>409</ele>
        <time>2022-07-15T07:49:07.000Z</time>
      </trkpt>
      <trkpt lat="49.90443" lon="4.80388">
        <ele>409</ele>
        <time>2022-07-15T07:49:08.000Z</time>
      </trkpt>
      <trkpt lat="49.90441" lon="4.80384">
        <ele>409</ele>
        <time>2022-07-15T07:49:09.000Z</time>
      </trkpt>
      <trkpt lat="49.9044" lon="4.80379">
        <ele>409</ele>
        <time>2022-07-15T07:49:10.000Z</time>
      </trkpt>
      <trkpt lat="49.90438" lon="4.80376">
        <ele>409</ele>
        <time>2022-07-15T07:49:11.000Z</time>
      </trkpt>
      <trkpt lat="49.90438" lon="4.80372">
        <ele>409</ele>
        <time>2022-07-15T07:49:12.000Z</time>
      </trkpt>
      <trkpt lat="49.90437" lon="4.8037">
        <ele>409</ele>
        <time>2022-07-15T07:49:13.000Z</time>
      </trkpt>
      <trkpt lat="49.90436" lon="4.80367">
        <ele>410</ele>
        <time>2022-07-15T07:49:14.000Z</time>
      </trkpt>
      <trkpt lat="49.90435" lon="4.80363">
        <ele>410</ele>
        <time>2022-07-15T07:49:15.000Z</time>
      </trkpt>
      <trkpt lat="49.90434" lon="4.8036">
        <ele>410</ele>
        <time>2022-07-15T07:49:16.000Z</time>
      </trkpt>
      <trkpt lat="49.90433" lon="4.80356">
        <ele>410</ele>
        <time>2022-07-15T07:49:17.000Z</time>
      </trkpt>
      <trkpt lat="49.90431" lon="4.80353">
        <ele>410</ele>
        <time>2022-07-15T07:49:18.000Z</time>
      </trkpt>
      <trkpt lat="49.9043" lon="4.80349">
        <ele>410</ele>
        <time>2022-07-15T07:49:19.000Z</time>
      </trkpt>
      <trkpt lat="49.90429" lon="4.80346">
        <ele>411</ele>
        <time>2022-07-15T07:49:20.000Z</time>
      </trkpt>
      <trkpt lat="49.90428" lon="4.80343">
        <ele>411</ele>
        <time>2022-07-15T07:49:21.000Z</time>
      </trkpt>
      <trkpt lat="49.90427" lon="4.8034">
        <ele>411</ele>
        <time>2022-07-15T07:49:22.000Z</time>
      </trkpt>
      <trkpt lat="49.90425" lon="4.80337">
        <ele>411</ele>
        <time>2022-07-15T07:49:23.000Z</time>
      </trkpt>
      <trkpt lat="49.90423" lon="4.80333">
        <ele>411</ele>
        <time>2022-07-15T07:49:24.000Z</time>
      </trkpt>
      <trkpt lat="49.90422" lon="4.8033">
        <ele>411</ele>
        <time>2022-07-15T07:49:25.000Z</time>
      </trkpt>
      <trkpt lat="49.90421" lon="4.80327">
        <ele>411</ele>
        <time>2022-07-15T07:49:26.000Z</time>
      </trkpt>
      <trkpt lat="49.9042" lon="4.80325">
        <ele>412</ele>
        <time>2022-07-15T07:49:27.000Z</time>
      </trkpt>
      <trkpt lat="49.90418" lon="4.80322">
        <ele>412</ele>
        <time>2022-07-15T07:49:28.000Z</time>
      </trkpt>
      <trkpt lat="49.90417" lon="4.80319">
        <ele>412</ele>
        <time>2022-07-15T07:49:29.000Z</time>
      </trkpt>
      <trkpt lat="49.90416" lon="4.80316">
        <ele>412</ele>
        <time>2022-07-15T07:49:30.000Z</time>
      </trkpt>
      <trkpt lat="49.90414" lon="4.80312">
        <ele>413</ele>
        <time>2022-07-15T07:49:31.000Z</time>
      </trkpt>
      <trkpt lat="49.90413" lon="4.80309">
        <ele>413</ele>
        <time>2022-07-15T07:49:32.000Z</time>
      </trkpt>
      <trkpt lat="49.90412" lon="4.80306">
        <ele>413</ele>
        <time>2022-07-15T07:49:33.000Z</time>
      </trkpt>
      <trkpt lat="49.9041" lon="4.80302">
        <ele>413</ele>
        <time>2022-07-15T07:49:34.000Z</time>
      </trkpt>
      <trkpt lat="49.90408" lon="4.80298">
        <ele>413</ele>
        <time>2022-07-15T07:49:35.000Z</time>
      </trkpt>
      <trkpt lat="49.90407" lon="4.80294">
        <ele>413</ele>
        <time>2022-07-15T07:49:36.000Z</time>
      </trkpt>
      <trkpt lat="49.90405" lon="4.8029">
        <ele>413</ele>
        <time>2022-07-15T07:49:37.000Z</time>
      </trkpt>
      <trkpt lat="49.90403" lon="4.80287">
        <ele>414</ele>
        <time>2022-07-15T07:49:38.000Z</time>
      </trkpt>
      <trkpt lat="49.90401" lon="4.80282">
        <ele>414</ele>
        <time>2022-07-15T07:49:39.000Z</time>
      </trkpt>
      <trkpt lat="49.904" lon="4.80278">
        <ele>414</ele>
        <time>2022-07-15T07:49:40.000Z</time>
      </trkpt>
      <trkpt lat="49.90398" lon="4.80274">
        <ele>414</ele>
        <time>2022-07-15T07:49:41.000Z</time>
      </trkpt>
      <trkpt lat="49.90397" lon="4.8027">
        <ele>415</ele>
        <time>2022-07-15T07:49:42.000Z</time>
      </trkpt>
      <trkpt lat="49.90395" lon="4.80266">
        <ele>415</ele>
        <time>2022-07-15T07:49:43.000Z</time>
      </trkpt>
      <trkpt lat="49.90393" lon="4.80262">
        <ele>415</ele>
        <time>2022-07-15T07:49:44.000Z</time>
      </trkpt>
      <trkpt lat="49.90391" lon="4.80259">
        <ele>415</ele>
        <time>2022-07-15T07:49:45.000Z</time>
      </trkpt>
      <trkpt lat="49.9039" lon="4.80256">
        <ele>416</ele>
        <time>2022-07-15T07:49:46.000Z</time>
      </trkpt>
      <trkpt lat="49.90388" lon="4.80253">
        <ele>416</ele>
        <time>2022-07-15T07:49:47.000Z</time>
      </trkpt>
      <trkpt lat="49.90387" lon="4.8025">
        <ele>416</ele>
        <time>2022-07-15T07:49:48.000Z</time>
      </trkpt>
      <trkpt lat="49.90386" lon="4.80247">
        <ele>416</ele>
        <time>2022-07-15T07:49:49.000Z</time>
      </trkpt>
      <trkpt lat="49.90384" lon="4.80244">
        <ele>416</ele>
        <time>2022-07-15T07:49:50.000Z</time>
      </trkpt>
      <trkpt lat="49.90384" lon="4.80241">
        <ele>416</ele>
        <time>2022-07-15T07:49:51.000Z</time>
      </trkpt>
      <trkpt lat="49.90383" lon="4.80237">
        <ele>416</ele>
        <time>2022-07-15T07:49:52.000Z</time>
      </trkpt>
      <trkpt lat="49.90382" lon="4.80233">
        <ele>417</ele>
        <time>2022-07-15T07:49:53.000Z</time>
      </trkpt>
      <trkpt lat="49.90381" lon="4.8023">
        <ele>417</ele>
        <time>2022-07-15T07:49:54.000Z</time>
      </trkpt>
      <trkpt lat="49.9038" lon="4.80227">
        <ele>417</ele>
        <time>2022-07-15T07:49:55.000Z</time>
      </trkpt>
      <trkpt lat="49.90378" lon="4.80224">
        <ele>417</ele>
        <time>2022-07-15T07:49:56.000Z</time>
      </trkpt>
      <trkpt lat="49.90377" lon="4.80221">
        <ele>417</ele>
        <time>2022-07-15T07:49:57.000Z</time>
      </trkpt>
      <trkpt lat="49.90376" lon="4.80217">
        <ele>417</ele>
        <time>2022-07-15T07:49:58.000Z</time>
      </trkpt>
      <trkpt lat="49.90374" lon="4.80213">
        <ele>417</ele>
        <time>2022-07-15T07:49:59.000Z</time>
      </trkpt>
      <trkpt lat="49.90373" lon="4.80209">
        <ele>418</ele>
        <time>2022-07-15T07:50:00.000Z</time>
      </trkpt>
      <trkpt lat="49.90372" lon="4.80206">
        <ele>418</ele>
        <time>2022-07-15T07:50:01.000Z</time>
      </trkpt>
      <trkpt lat="49.90371" lon="4.80202">
        <ele>418</ele>
        <time>2022-07-15T07:50:02.000Z</time>
      </trkpt>
      <trkpt lat="49.9037" lon="4.80197">
        <ele>418</ele>
        <time>2022-07-15T07:50:03.000Z</time>
      </trkpt>
      <trkpt lat="49.90369" lon="4.80194">
        <ele>418</ele>
        <time>2022-07-15T07:50:04.000Z</time>
      </trkpt>
      <trkpt lat="49.90369" lon="4.80191">
        <ele>418</ele>
        <time>2022-07-15T07:50:05.000Z</time>
      </trkpt>
      <trkpt lat="49.90368" lon="4.80187">
        <ele>418</ele>
        <time>2022-07-15T07:50:06.000Z</time>
      </trkpt>
      <trkpt lat="49.90367" lon="4.80183">
        <ele>418</ele>
        <time>2022-07-15T07:50:07.000Z</time>
      </trkpt>
      <trkpt lat="49.90366" lon="4.80179">
        <ele>419</ele>
        <time>2022-07-15T07:50:08.000Z</time>
      </trkpt>
      <trkpt lat="49.90366" lon="4.80176">
        <ele>419</ele>
        <time>2022-07-15T07:50:09.000Z</time>
      </trkpt>
      <trkpt lat="49.90365" lon="4.80172">
        <ele>419</ele>
        <time>2022-07-15T07:50:10.000Z</time>
      </trkpt>
      <trkpt lat="49.90364" lon="4.80167">
        <ele>419</ele>
        <time>2022-07-15T07:50:11.000Z</time>
      </trkpt>
      <trkpt lat="49.90362" lon="4.80164">
        <ele>419</ele>
        <time>2022-07-15T07:50:12.000Z</time>
      </trkpt>
      <trkpt lat="49.90361" lon="4.8016">
        <ele>419</ele>
        <time>2022-07-15T07:50:13.000Z</time>
      </trkpt>
      <trkpt lat="49.9036" lon="4.80155">
        <ele>419</ele>
        <time>2022-07-15T07:50:14.000Z</time>
      </trkpt>
      <trkpt lat="49.90359" lon="4.80151">
        <ele>419</ele>
        <time>2022-07-15T07:50:15.000Z</time>
      </trkpt>
      <trkpt lat="49.90358" lon="4.80147">
        <ele>420</ele>
        <time>2022-07-15T07:50:16.000Z</time>
      </trkpt>
      <trkpt lat="49.90357" lon="4.80144">
        <ele>420</ele>
        <time>2022-07-15T07:50:17.000Z</time>
      </trkpt>
      <trkpt lat="49.90356" lon="4.8014">
        <ele>420</ele>
        <time>2022-07-15T07:50:18.000Z</time>
      </trkpt>
      <trkpt lat="49.90355" lon="4.80136">
        <ele>420</ele>
        <time>2022-07-15T07:50:19.000Z</time>
      </trkpt>
      <trkpt lat="49.90354" lon="4.80132">
        <ele>420</ele>
        <time>2022-07-15T07:50:20.000Z</time>
      </trkpt>
      <trkpt lat="49.90353" lon="4.80128">
        <ele>420</ele>
        <time>2022-07-15T07:50:21.000Z</time>
      </trkpt>
      <trkpt lat="49.90351" lon="4.80124">
        <ele>420</ele>
        <time>2022-07-15T07:50:22.000Z</time>
      </trkpt>
      <trkpt lat="49.9035" lon="4.8012">
        <ele>420</ele>
        <time>2022-07-15T07:50:23.000Z</time>
      </trkpt>
      <trkpt lat="49.90349" lon="4.80117">
        <ele>420</ele>
        <time>2022-07-15T07:50:24.000Z</time>
      </trkpt>
      <trkpt lat="49.90348" lon="4.80113">
        <ele>420</ele>
        <time>2022-07-15T07:50:25.000Z</time>
      </trkpt>
      <trkpt lat="49.90347" lon="4.80109">
        <ele>420</ele>
        <time>2022-07-15T07:50:26.000Z</time>
      </trkpt>
      <trkpt lat="49.90346" lon="4.80104">
        <ele>419</ele>
        <time>2022-07-15T07:50:27.000Z</time>
      </trkpt>
      <trkpt lat="49.90345" lon="4.801">
        <ele>419</ele>
        <time>2022-07-15T07:50:28.000Z</time>
      </trkpt>
      <trkpt lat="49.90343" lon="4.80096">
        <ele>419</ele>
        <time>2022-07-15T07:50:29.000Z</time>
      </trkpt>
      <trkpt lat="49.90342" lon="4.80093">
        <ele>419</ele>
        <time>2022-07-15T07:50:30.000Z</time>
      </trkpt>
      <trkpt lat="49.9034" lon="4.80089">
        <ele>419</ele>
        <time>2022-07-15T07:50:31.000Z</time>
      </trkpt>
      <trkpt lat="49.90338" lon="4.80084">
        <ele>420</ele>
        <time>2022-07-15T07:50:32.000Z</time>
      </trkpt>
      <trkpt lat="49.90337" lon="4.80081">
        <ele>420</ele>
        <time>2022-07-15T07:50:33.000Z</time>
      </trkpt>
      <trkpt lat="49.90335" lon="4.80076">
        <ele>420</ele>
        <time>2022-07-15T07:50:34.000Z</time>
      </trkpt>
      <trkpt lat="49.90334" lon="4.80073">
        <ele>420</ele>
        <time>2022-07-15T07:50:35.000Z</time>
      </trkpt>
      <trkpt lat="49.90332" lon="4.80069">
        <ele>420</ele>
        <time>2022-07-15T07:50:36.000Z</time>
      </trkpt>
      <trkpt lat="49.9033" lon="4.80065">
        <ele>420</ele>
        <time>2022-07-15T07:50:37.000Z</time>
      </trkpt>
      <trkpt lat="49.90328" lon="4.8006">
        <ele>420</ele>
        <time>2022-07-15T07:50:38.000Z</time>
      </trkpt>
      <trkpt lat="49.90327" lon="4.80056">
        <ele>420</ele>
        <time>2022-07-15T07:50:39.000Z</time>
      </trkpt>
      <trkpt lat="49.90325" lon="4.80052">
        <ele>420</ele>
        <time>2022-07-15T07:50:40.000Z</time>
      </trkpt>
      <trkpt lat="49.90323" lon="4.80048">
        <ele>420</ele>
        <time>2022-07-15T07:50:41.000Z</time>
      </trkpt>
      <trkpt lat="49.90321" lon="4.80043">
        <ele>421</ele>
        <time>2022-07-15T07:50:42.000Z</time>
      </trkpt>
      <trkpt lat="49.90319" lon="4.80039">
        <ele>421</ele>
        <time>2022-07-15T07:50:43.000Z</time>
      </trkpt>
      <trkpt lat="49.90318" lon="4.80034">
        <ele>421</ele>
        <time>2022-07-15T07:50:44.000Z</time>
      </trkpt>
      <trkpt lat="49.90317" lon="4.80029">
        <ele>421</ele>
        <time>2022-07-15T07:50:45.000Z</time>
      </trkpt>
      <trkpt lat="49.90316" lon="4.80024">
        <ele>421</ele>
        <time>2022-07-15T07:50:46.000Z</time>
      </trkpt>
      <trkpt lat="49.90314" lon="4.80019">
        <ele>421</ele>
        <time>2022-07-15T07:50:47.000Z</time>
      </trkpt>
      <trkpt lat="49.90313" lon="4.80015">
        <ele>421</ele>
        <time>2022-07-15T07:50:48.000Z</time>
      </trkpt>
      <trkpt lat="49.90311" lon="4.8001">
        <ele>421</ele>
        <time>2022-07-15T07:50:49.000Z</time>
      </trkpt>
      <trkpt lat="49.9031" lon="4.80005">
        <ele>421</ele>
        <time>2022-07-15T07:50:50.000Z</time>
      </trkpt>
      <trkpt lat="49.90309" lon="4.8">
        <ele>421</ele>
        <time>2022-07-15T07:50:51.000Z</time>
      </trkpt>
      <trkpt lat="49.90308" lon="4.79995">
        <ele>421</ele>
        <time>2022-07-15T07:50:52.000Z</time>
      </trkpt>
      <trkpt lat="49.90306" lon="4.7999">
        <ele>421</ele>
        <time>2022-07-15T07:50:53.000Z</time>
      </trkpt>
      <trkpt lat="49.90304" lon="4.79986">
        <ele>421</ele>
        <time>2022-07-15T07:50:54.000Z</time>
      </trkpt>
      <trkpt lat="49.90303" lon="4.79982">
        <ele>421</ele>
        <time>2022-07-15T07:50:55.000Z</time>
      </trkpt>
      <trkpt lat="49.90301" lon="4.79978">
        <ele>421</ele>
        <time>2022-07-15T07:50:56.000Z</time>
      </trkpt>
      <trkpt lat="49.903" lon="4.79974">
        <ele>421</ele>
        <time>2022-07-15T07:50:57.000Z</time>
      </trkpt>
      <trkpt lat="49.90299" lon="4.79971">
        <ele>421</ele>
        <time>2022-07-15T07:50:58.000Z</time>
      </trkpt>
      <trkpt lat="49.90298" lon="4.79969">
        <ele>421</ele>
        <time>2022-07-15T07:50:59.000Z</time>
      </trkpt>
      <trkpt lat="49.90297" lon="4.79966">
        <ele>421</ele>
        <time>2022-07-15T07:51:00.000Z</time>
      </trkpt>
      <trkpt lat="49.90297" lon="4.79963">
        <ele>421</ele>
        <time>2022-07-15T07:51:01.000Z</time>
      </trkpt>
      <trkpt lat="49.90296" lon="4.7996">
        <ele>421</ele>
        <time>2022-07-15T07:51:02.000Z</time>
      </trkpt>
      <trkpt lat="49.90295" lon="4.79955">
        <ele>421</ele>
        <time>2022-07-15T07:51:03.000Z</time>
      </trkpt>
      <trkpt lat="49.90294" lon="4.7995">
        <ele>421</ele>
        <time>2022-07-15T07:51:04.000Z</time>
      </trkpt>
      <trkpt lat="49.90293" lon="4.79945">
        <ele>421</ele>
        <time>2022-07-15T07:51:05.000Z</time>
      </trkpt>
      <trkpt lat="49.90291" lon="4.7994">
        <ele>422</ele>
        <time>2022-07-15T07:51:06.000Z</time>
      </trkpt>
      <trkpt lat="49.9029" lon="4.79934">
        <ele>422</ele>
        <time>2022-07-15T07:51:07.000Z</time>
      </trkpt>
      <trkpt lat="49.90288" lon="4.79929">
        <ele>422</ele>
        <time>2022-07-15T07:51:08.000Z</time>
      </trkpt>
      <trkpt lat="49.90287" lon="4.79924">
        <ele>422</ele>
        <time>2022-07-15T07:51:09.000Z</time>
      </trkpt>
      <trkpt lat="49.90286" lon="4.79919">
        <ele>422</ele>
        <time>2022-07-15T07:51:10.000Z</time>
      </trkpt>
      <trkpt lat="49.90284" lon="4.79914">
        <ele>422</ele>
        <time>2022-07-15T07:51:11.000Z</time>
      </trkpt>
      <trkpt lat="49.90282" lon="4.79909">
        <ele>422</ele>
        <time>2022-07-15T07:51:12.000Z</time>
      </trkpt>
      <trkpt lat="49.90281" lon="4.79904">
        <ele>422</ele>
        <time>2022-07-15T07:51:13.000Z</time>
      </trkpt>
      <trkpt lat="49.9028" lon="4.79898">
        <ele>422</ele>
        <time>2022-07-15T07:51:14.000Z</time>
      </trkpt>
      <trkpt lat="49.90279" lon="4.79893">
        <ele>422</ele>
        <time>2022-07-15T07:51:15.000Z</time>
      </trkpt>
      <trkpt lat="49.90278" lon="4.79888">
        <ele>422</ele>
        <time>2022-07-15T07:51:16.000Z</time>
      </trkpt>
      <trkpt lat="49.90277" lon="4.79883">
        <ele>422</ele>
        <time>2022-07-15T07:51:17.000Z</time>
      </trkpt>
      <trkpt lat="49.90276" lon="4.79877">
        <ele>422</ele>
        <time>2022-07-15T07:51:18.000Z</time>
      </trkpt>
      <trkpt lat="49.90275" lon="4.79872">
        <ele>422</ele>
        <time>2022-07-15T07:51:19.000Z</time>
      </trkpt>
      <trkpt lat="49.90275" lon="4.79866">
        <ele>422</ele>
        <time>2022-07-15T07:51:20.000Z</time>
      </trkpt>
      <trkpt lat="49.90275" lon="4.7986">
        <ele>422</ele>
        <time>2022-07-15T07:51:21.000Z</time>
      </trkpt>
      <trkpt lat="49.90275" lon="4.79854">
        <ele>422</ele>
        <time>2022-07-15T07:51:22.000Z</time>
      </trkpt>
      <trkpt lat="49.90275" lon="4.79848">
        <ele>422</ele>
        <time>2022-07-15T07:51:23.000Z</time>
      </trkpt>
      <trkpt lat="49.90274" lon="4.79841">
        <ele>422</ele>
        <time>2022-07-15T07:51:24.000Z</time>
      </trkpt>
      <trkpt lat="49.90274" lon="4.79835">
        <ele>422</ele>
        <time>2022-07-15T07:51:25.000Z</time>
      </trkpt>
      <trkpt lat="49.90274" lon="4.79829">
        <ele>422</ele>
        <time>2022-07-15T07:51:26.000Z</time>
      </trkpt>
      <trkpt lat="49.90274" lon="4.79823">
        <ele>422</ele>
        <time>2022-07-15T07:51:27.000Z</time>
      </trkpt>
      <trkpt lat="49.90273" lon="4.79818">
        <ele>422</ele>
        <time>2022-07-15T07:51:28.000Z</time>
      </trkpt>
      <trkpt lat="49.90272" lon="4.79811">
        <ele>422</ele>
        <time>2022-07-15T07:51:29.000Z</time>
      </trkpt>
      <trkpt lat="49.90272" lon="4.79805">
        <ele>422</ele>
        <time>2022-07-15T07:51:30.000Z</time>
      </trkpt>
      <trkpt lat="49.90273" lon="4.79799">
        <ele>422</ele>
        <time>2022-07-15T07:51:31.000Z</time>
      </trkpt>
      <trkpt lat="49.90273" lon="4.79794">
        <ele>422</ele>
        <time>2022-07-15T07:51:32.000Z</time>
      </trkpt>
      <trkpt lat="49.90273" lon="4.79788">
        <ele>422</ele>
        <time>2022-07-15T07:51:33.000Z</time>
      </trkpt>
      <trkpt lat="49.90273" lon="4.79781">
        <ele>422</ele>
        <time>2022-07-15T07:51:34.000Z</time>
      </trkpt>
      <trkpt lat="49.90273" lon="4.79775">
        <ele>422</ele>
        <time>2022-07-15T07:51:35.000Z</time>
      </trkpt>
      <trkpt lat="49.90273" lon="4.79769">
        <ele>422</ele>
        <time>2022-07-15T07:51:36.000Z</time>
      </trkpt>
      <trkpt lat="49.90273" lon="4.79763">
        <ele>422</ele>
        <time>2022-07-15T07:51:37.000Z</time>
      </trkpt>
      <trkpt lat="49.90272" lon="4.79756">
        <ele>422</ele>
        <time>2022-07-15T07:51:38.000Z</time>
      </trkpt>
      <trkpt lat="49.90272" lon="4.7975">
        <ele>422</ele>
        <time>2022-07-15T07:51:39.000Z</time>
      </trkpt>
      <trkpt lat="49.90272" lon="4.79743">
        <ele>422</ele>
        <time>2022-07-15T07:51:40.000Z</time>
      </trkpt>
      <trkpt lat="49.90272" lon="4.79736">
        <ele>422</ele>
        <time>2022-07-15T07:51:41.000Z</time>
      </trkpt>
      <trkpt lat="49.90272" lon="4.79729">
        <ele>422</ele>
        <time>2022-07-15T07:51:42.000Z</time>
      </trkpt>
      <trkpt lat="49.90273" lon="4.79721">
        <ele>422</ele>
        <time>2022-07-15T07:51:43.000Z</time>
      </trkpt>
      <trkpt lat="49.90273" lon="4.79714">
        <ele>422</ele>
        <time>2022-07-15T07:51:44.000Z</time>
      </trkpt>
      <trkpt lat="49.90272" lon="4.79706">
        <ele>422</ele>
        <time>2022-07-15T07:51:45.000Z</time>
      </trkpt>
      <trkpt lat="49.90272" lon="4.79697">
        <ele>422</ele>
        <time>2022-07-15T07:51:46.000Z</time>
      </trkpt>
      <trkpt lat="49.90272" lon="4.7969">
        <ele>422</ele>
        <time>2022-07-15T07:51:47.000Z</time>
      </trkpt>
      <trkpt lat="49.90272" lon="4.79682">
        <ele>422</ele>
        <time>2022-07-15T07:51:48.000Z</time>
      </trkpt>
      <trkpt lat="49.90272" lon="4.79674">
        <ele>422</ele>
        <time>2022-07-15T07:51:49.000Z</time>
      </trkpt>
      <trkpt lat="49.90272" lon="4.79666">
        <ele>422</ele>
        <time>2022-07-15T07:51:50.000Z</time>
      </trkpt>
      <trkpt lat="49.90272" lon="4.79657">
        <ele>422</ele>
        <time>2022-07-15T07:51:51.000Z</time>
      </trkpt>
      <trkpt lat="49.90271" lon="4.79649">
        <ele>422</ele>
        <time>2022-07-15T07:51:52.000Z</time>
      </trkpt>
      <trkpt lat="49.90271" lon="4.79641">
        <ele>421</ele>
        <time>2022-07-15T07:51:53.000Z</time>
      </trkpt>
      <trkpt lat="49.90271" lon="4.79633">
        <ele>421</ele>
        <time>2022-07-15T07:51:54.000Z</time>
      </trkpt>
      <trkpt lat="49.9027" lon="4.79625">
        <ele>421</ele>
        <time>2022-07-15T07:51:55.000Z</time>
      </trkpt>
      <trkpt lat="49.9027" lon="4.79617">
        <ele>421</ele>
        <time>2022-07-15T07:51:56.000Z</time>
      </trkpt>
      <trkpt lat="49.9027" lon="4.79609">
        <ele>421</ele>
        <time>2022-07-15T07:51:57.000Z</time>
      </trkpt>
      <trkpt lat="49.9027" lon="4.79602">
        <ele>421</ele>
        <time>2022-07-15T07:51:58.000Z</time>
      </trkpt>
      <trkpt lat="49.9027" lon="4.79596">
        <ele>421</ele>
        <time>2022-07-15T07:51:59.000Z</time>
      </trkpt>
      <trkpt lat="49.9027" lon="4.79592">
        <ele>421</ele>
        <time>2022-07-15T07:52:00.000Z</time>
      </trkpt>
      <trkpt lat="49.9027" lon="4.79588">
        <ele>420</ele>
        <time>2022-07-15T07:52:01.000Z</time>
      </trkpt>
      <trkpt lat="49.9027" lon="4.79584">
        <ele>420</ele>
        <time>2022-07-15T07:52:02.000Z</time>
      </trkpt>
      <trkpt lat="49.9027" lon="4.79581">
        <ele>420</ele>
        <time>2022-07-15T07:52:03.000Z</time>
      </trkpt>
      <trkpt lat="49.90269" lon="4.79577">
        <ele>420</ele>
        <time>2022-07-15T07:52:04.000Z</time>
      </trkpt>
      <trkpt lat="49.90269" lon="4.79573">
        <ele>420</ele>
        <time>2022-07-15T07:52:05.000Z</time>
      </trkpt>
      <trkpt lat="49.90269" lon="4.79569">
        <ele>419</ele>
        <time>2022-07-15T07:52:06.000Z</time>
      </trkpt>
      <trkpt lat="49.90269" lon="4.79566">
        <ele>419</ele>
        <time>2022-07-15T07:52:07.000Z</time>
      </trkpt>
      <trkpt lat="49.90269" lon="4.79562">
        <ele>419</ele>
        <time>2022-07-15T07:52:08.000Z</time>
      </trkpt>
      <trkpt lat="49.90269" lon="4.79559">
        <ele>419</ele>
        <time>2022-07-15T07:52:09.000Z</time>
      </trkpt>
      <trkpt lat="49.90269" lon="4.79556">
        <ele>419</ele>
        <time>2022-07-15T07:52:10.000Z</time>
      </trkpt>
      <trkpt lat="49.90269" lon="4.79552">
        <ele>419</ele>
        <time>2022-07-15T07:52:11.000Z</time>
      </trkpt>
      <trkpt lat="49.90268" lon="4.79548">
        <ele>419</ele>
        <time>2022-07-15T07:52:12.000Z</time>
      </trkpt>
      <trkpt lat="49.90268" lon="4.79543">
        <ele>418</ele>
        <time>2022-07-15T07:52:13.000Z</time>
      </trkpt>
      <trkpt lat="49.90267" lon="4.79539">
        <ele>418</ele>
        <time>2022-07-15T07:52:14.000Z</time>
      </trkpt>
      <trkpt lat="49.90266" lon="4.79534">
        <ele>418</ele>
        <time>2022-07-15T07:52:15.000Z</time>
      </trkpt>
      <trkpt lat="49.90266" lon="4.7953">
        <ele>418</ele>
        <time>2022-07-15T07:52:16.000Z</time>
      </trkpt>
      <trkpt lat="49.90266" lon="4.79525">
        <ele>418</ele>
        <time>2022-07-15T07:52:17.000Z</time>
      </trkpt>
      <trkpt lat="49.90265" lon="4.7952">
        <ele>417</ele>
        <time>2022-07-15T07:52:18.000Z</time>
      </trkpt>
      <trkpt lat="49.90265" lon="4.79515">
        <ele>417</ele>
        <time>2022-07-15T07:52:19.000Z</time>
      </trkpt>
      <trkpt lat="49.90265" lon="4.79511">
        <ele>417</ele>
        <time>2022-07-15T07:52:20.000Z</time>
      </trkpt>
      <trkpt lat="49.90264" lon="4.79506">
        <ele>416</ele>
        <time>2022-07-15T07:52:21.000Z</time>
      </trkpt>
      <trkpt lat="49.90264" lon="4.79502">
        <ele>416</ele>
        <time>2022-07-15T07:52:22.000Z</time>
      </trkpt>
      <trkpt lat="49.90264" lon="4.79497">
        <ele>416</ele>
        <time>2022-07-15T07:52:23.000Z</time>
      </trkpt>
      <trkpt lat="49.90264" lon="4.79492">
        <ele>415</ele>
        <time>2022-07-15T07:52:24.000Z</time>
      </trkpt>
      <trkpt lat="49.90264" lon="4.79488">
        <ele>415</ele>
        <time>2022-07-15T07:52:25.000Z</time>
      </trkpt>
      <trkpt lat="49.90263" lon="4.79484">
        <ele>415</ele>
        <time>2022-07-15T07:52:26.000Z</time>
      </trkpt>
      <trkpt lat="49.90263" lon="4.79479">
        <ele>415</ele>
        <time>2022-07-15T07:52:27.000Z</time>
      </trkpt>
      <trkpt lat="49.90263" lon="4.79474">
        <ele>414</ele>
        <time>2022-07-15T07:52:28.000Z</time>
      </trkpt>
      <trkpt lat="49.90263" lon="4.79468">
        <ele>414</ele>
        <time>2022-07-15T07:52:29.000Z</time>
      </trkpt>
      <trkpt lat="49.90263" lon="4.79463">
        <ele>414</ele>
        <time>2022-07-15T07:52:30.000Z</time>
      </trkpt>
      <trkpt lat="49.90263" lon="4.79458">
        <ele>414</ele>
        <time>2022-07-15T07:52:31.000Z</time>
      </trkpt>
      <trkpt lat="49.90262" lon="4.79453">
        <ele>413</ele>
        <time>2022-07-15T07:52:32.000Z</time>
      </trkpt>
      <trkpt lat="49.90262" lon="4.79448">
        <ele>413</ele>
        <time>2022-07-15T07:52:33.000Z</time>
      </trkpt>
      <trkpt lat="49.90261" lon="4.79443">
        <ele>413</ele>
        <time>2022-07-15T07:52:34.000Z</time>
      </trkpt>
      <trkpt lat="49.90261" lon="4.79437">
        <ele>412</ele>
        <time>2022-07-15T07:52:35.000Z</time>
      </trkpt>
      <trkpt lat="49.9026" lon="4.79431">
        <ele>412</ele>
        <time>2022-07-15T07:52:36.000Z</time>
      </trkpt>
      <trkpt lat="49.90259" lon="4.79425">
        <ele>412</ele>
        <time>2022-07-15T07:52:37.000Z</time>
      </trkpt>
      <trkpt lat="49.90258" lon="4.79419">
        <ele>412</ele>
        <time>2022-07-15T07:52:38.000Z</time>
      </trkpt>
      <trkpt lat="49.90258" lon="4.79413">
        <ele>411</ele>
        <time>2022-07-15T07:52:39.000Z</time>
      </trkpt>
      <trkpt lat="49.90257" lon="4.79407">
        <ele>411</ele>
        <time>2022-07-15T07:52:40.000Z</time>
      </trkpt>
      <trkpt lat="49.90256" lon="4.79401">
        <ele>411</ele>
        <time>2022-07-15T07:52:41.000Z</time>
      </trkpt>
      <trkpt lat="49.90255" lon="4.79396">
        <ele>410</ele>
        <time>2022-07-15T07:52:42.000Z</time>
      </trkpt>
      <trkpt lat="49.90254" lon="4.79391">
        <ele>410</ele>
        <time>2022-07-15T07:52:43.000Z</time>
      </trkpt>
      <trkpt lat="49.90253" lon="4.79387">
        <ele>410</ele>
        <time>2022-07-15T07:52:44.000Z</time>
      </trkpt>
      <trkpt lat="49.90252" lon="4.79382">
        <ele>409</ele>
        <time>2022-07-15T07:52:45.000Z</time>
      </trkpt>
      <trkpt lat="49.90251" lon="4.79378">
        <ele>409</ele>
        <time>2022-07-15T07:52:46.000Z</time>
      </trkpt>
      <trkpt lat="49.90251" lon="4.79374">
        <ele>409</ele>
        <time>2022-07-15T07:52:47.000Z</time>
      </trkpt>
      <trkpt lat="49.9025" lon="4.7937">
        <ele>409</ele>
        <time>2022-07-15T07:52:48.000Z</time>
      </trkpt>
      <trkpt lat="49.90249" lon="4.79365">
        <ele>408</ele>
        <time>2022-07-15T07:52:49.000Z</time>
      </trkpt>
      <trkpt lat="49.90248" lon="4.79361">
        <ele>408</ele>
        <time>2022-07-15T07:52:50.000Z</time>
      </trkpt>
      <trkpt lat="49.90246" lon="4.79356">
        <ele>408</ele>
        <time>2022-07-15T07:52:51.000Z</time>
      </trkpt>
      <trkpt lat="49.90244" lon="4.79351">
        <ele>408</ele>
        <time>2022-07-15T07:52:52.000Z</time>
      </trkpt>
      <trkpt lat="49.90243" lon="4.79346">
        <ele>408</ele>
        <time>2022-07-15T07:52:53.000Z</time>
      </trkpt>
      <trkpt lat="49.90241" lon="4.7934">
        <ele>408</ele>
        <time>2022-07-15T07:52:54.000Z</time>
      </trkpt>
      <trkpt lat="49.9024" lon="4.79336">
        <ele>408</ele>
        <time>2022-07-15T07:52:55.000Z</time>
      </trkpt>
      <trkpt lat="49.90238" lon="4.79331">
        <ele>408</ele>
        <time>2022-07-15T07:52:56.000Z</time>
      </trkpt>
      <trkpt lat="49.90236" lon="4.79327">
        <ele>407</ele>
        <time>2022-07-15T07:52:57.000Z</time>
      </trkpt>
      <trkpt lat="49.90234" lon="4.79323">
        <ele>407</ele>
        <time>2022-07-15T07:52:58.000Z</time>
      </trkpt>
      <trkpt lat="49.90232" lon="4.79319">
        <ele>407</ele>
        <time>2022-07-15T07:52:59.000Z</time>
      </trkpt>
      <trkpt lat="49.9023" lon="4.79315">
        <ele>407</ele>
        <time>2022-07-15T07:53:00.000Z</time>
      </trkpt>
      <trkpt lat="49.90229" lon="4.79311">
        <ele>407</ele>
        <time>2022-07-15T07:53:01.000Z</time>
      </trkpt>
      <trkpt lat="49.90228" lon="4.79308">
        <ele>407</ele>
        <time>2022-07-15T07:53:02.000Z</time>
      </trkpt>
      <trkpt lat="49.90227" lon="4.79304">
        <ele>406</ele>
        <time>2022-07-15T07:53:03.000Z</time>
      </trkpt>
      <trkpt lat="49.90226" lon="4.79302">
        <ele>406</ele>
        <time>2022-07-15T07:53:04.000Z</time>
      </trkpt>
      <trkpt lat="49.90225" lon="4.79299">
        <ele>406</ele>
        <time>2022-07-15T07:53:05.000Z</time>
      </trkpt>
      <trkpt lat="49.90224" lon="4.79296">
        <ele>406</ele>
        <time>2022-07-15T07:53:06.000Z</time>
      </trkpt>
      <trkpt lat="49.90224" lon="4.79294">
        <ele>405</ele>
        <time>2022-07-15T07:53:07.000Z</time>
      </trkpt>
      <trkpt lat="49.90223" lon="4.79291">
        <ele>405</ele>
        <time>2022-07-15T07:53:08.000Z</time>
      </trkpt>
      <trkpt lat="49.90223" lon="4.79287">
        <ele>405</ele>
        <time>2022-07-15T07:53:09.000Z</time>
      </trkpt>
      <trkpt lat="49.90222" lon="4.79282">
        <ele>405</ele>
        <time>2022-07-15T07:53:10.000Z</time>
      </trkpt>
      <trkpt lat="49.90221" lon="4.79277">
        <ele>404</ele>
        <time>2022-07-15T07:53:11.000Z</time>
      </trkpt>
      <trkpt lat="49.90219" lon="4.79272">
        <ele>404</ele>
        <time>2022-07-15T07:53:12.000Z</time>
      </trkpt>
      <trkpt lat="49.90218" lon="4.79267">
        <ele>404</ele>
        <time>2022-07-15T07:53:13.000Z</time>
      </trkpt>
      <trkpt lat="49.90216" lon="4.79261">
        <ele>404</ele>
        <time>2022-07-15T07:53:14.000Z</time>
      </trkpt>
      <trkpt lat="49.90215" lon="4.79256">
        <ele>403</ele>
        <time>2022-07-15T07:53:15.000Z</time>
      </trkpt>
      <trkpt lat="49.90213" lon="4.7925">
        <ele>403</ele>
        <time>2022-07-15T07:53:16.000Z</time>
      </trkpt>
      <trkpt lat="49.90212" lon="4.79243">
        <ele>403</ele>
        <time>2022-07-15T07:53:17.000Z</time>
      </trkpt>
      <trkpt lat="49.90211" lon="4.79237">
        <ele>403</ele>
        <time>2022-07-15T07:53:18.000Z</time>
      </trkpt>
      <trkpt lat="49.9021" lon="4.7923">
        <ele>403</ele>
        <time>2022-07-15T07:53:19.000Z</time>
      </trkpt>
      <trkpt lat="49.90209" lon="4.79223">
        <ele>402</ele>
        <time>2022-07-15T07:53:20.000Z</time>
      </trkpt>
      <trkpt lat="49.90208" lon="4.79217">
        <ele>402</ele>
        <time>2022-07-15T07:53:21.000Z</time>
      </trkpt>
      <trkpt lat="49.90206" lon="4.79212">
        <ele>402</ele>
        <time>2022-07-15T07:53:22.000Z</time>
      </trkpt>
      <trkpt lat="49.90204" lon="4.79207">
        <ele>401</ele>
        <time>2022-07-15T07:53:23.000Z</time>
      </trkpt>
      <trkpt lat="49.90201" lon="4.79201">
        <ele>401</ele>
        <time>2022-07-15T07:53:24.000Z</time>
      </trkpt>
      <trkpt lat="49.902" lon="4.79195">
        <ele>401</ele>
        <time>2022-07-15T07:53:25.000Z</time>
      </trkpt>
      <trkpt lat="49.90198" lon="4.79189">
        <ele>401</ele>
        <time>2022-07-15T07:53:26.000Z</time>
      </trkpt>
      <trkpt lat="49.90198" lon="4.79184">
        <ele>401</ele>
        <time>2022-07-15T07:53:27.000Z</time>
      </trkpt>
      <trkpt lat="49.90198" lon="4.79179">
        <ele>400</ele>
        <time>2022-07-15T07:53:28.000Z</time>
      </trkpt>
      <trkpt lat="49.90197" lon="4.79174">
        <ele>400</ele>
        <time>2022-07-15T07:53:29.000Z</time>
      </trkpt>
      <trkpt lat="49.90196" lon="4.79169">
        <ele>400</ele>
        <time>2022-07-15T07:53:30.000Z</time>
      </trkpt>
      <trkpt lat="49.90194" lon="4.79166">
        <ele>400</ele>
        <time>2022-07-15T07:53:31.000Z</time>
      </trkpt>
      <trkpt lat="49.90193" lon="4.79162">
        <ele>400</ele>
        <time>2022-07-15T07:53:32.000Z</time>
      </trkpt>
      <trkpt lat="49.90192" lon="4.7916">
        <ele>399</ele>
        <time>2022-07-15T07:53:33.000Z</time>
      </trkpt>
      <trkpt lat="49.90191" lon="4.79157">
        <ele>399</ele>
        <time>2022-07-15T07:53:34.000Z</time>
      </trkpt>
      <trkpt lat="49.90189" lon="4.79153">
        <ele>399</ele>
        <time>2022-07-15T07:53:35.000Z</time>
      </trkpt>
      <trkpt lat="49.90188" lon="4.79149">
        <ele>399</ele>
        <time>2022-07-15T07:53:36.000Z</time>
      </trkpt>
      <trkpt lat="49.90187" lon="4.79146">
        <ele>399</ele>
        <time>2022-07-15T07:53:37.000Z</time>
      </trkpt>
      <trkpt lat="49.90186" lon="4.79143">
        <ele>399</ele>
        <time>2022-07-15T07:53:38.000Z</time>
      </trkpt>
      <trkpt lat="49.90185" lon="4.7914">
        <ele>399</ele>
        <time>2022-07-15T07:53:39.000Z</time>
      </trkpt>
      <trkpt lat="49.90184" lon="4.79138">
        <ele>399</ele>
        <time>2022-07-15T07:53:40.000Z</time>
      </trkpt>
      <trkpt lat="49.90182" lon="4.79135">
        <ele>399</ele>
        <time>2022-07-15T07:53:41.000Z</time>
      </trkpt>
      <trkpt lat="49.9018" lon="4.79133">
        <ele>399</ele>
        <time>2022-07-15T07:53:42.000Z</time>
      </trkpt>
      <trkpt lat="49.90178" lon="4.79131">
        <ele>399</ele>
        <time>2022-07-15T07:53:43.000Z</time>
      </trkpt>
      <trkpt lat="49.90177" lon="4.79129">
        <ele>398</ele>
        <time>2022-07-15T07:53:44.000Z</time>
      </trkpt>
      <trkpt lat="49.90175" lon="4.79126">
        <ele>398</ele>
        <time>2022-07-15T07:53:45.000Z</time>
      </trkpt>
      <trkpt lat="49.90174" lon="4.79124">
        <ele>398</ele>
        <time>2022-07-15T07:53:46.000Z</time>
      </trkpt>
      <trkpt lat="49.90173" lon="4.79122">
        <ele>398</ele>
        <time>2022-07-15T07:53:47.000Z</time>
      </trkpt>
      <trkpt lat="49.90172" lon="4.7912">
        <ele>398</ele>
        <time>2022-07-15T07:53:48.000Z</time>
      </trkpt>
      <trkpt lat="49.90171" lon="4.79117">
        <ele>398</ele>
        <time>2022-07-15T07:53:49.000Z</time>
      </trkpt>
      <trkpt lat="49.9017" lon="4.79115">
        <ele>398</ele>
        <time>2022-07-15T07:53:50.000Z</time>
      </trkpt>
      <trkpt lat="49.90168" lon="4.79112">
        <ele>398</ele>
        <time>2022-07-15T07:53:51.000Z</time>
      </trkpt>
      <trkpt lat="49.90167" lon="4.79109">
        <ele>398</ele>
        <time>2022-07-15T07:53:52.000Z</time>
      </trkpt>
      <trkpt lat="49.90165" lon="4.79107">
        <ele>398</ele>
        <time>2022-07-15T07:53:53.000Z</time>
      </trkpt>
      <trkpt lat="49.90164" lon="4.79104">
        <ele>398</ele>
        <time>2022-07-15T07:53:54.000Z</time>
      </trkpt>
      <trkpt lat="49.90163" lon="4.79101">
        <ele>398</ele>
        <time>2022-07-15T07:53:55.000Z</time>
      </trkpt>
      <trkpt lat="49.90162" lon="4.79098">
        <ele>398</ele>
        <time>2022-07-15T07:53:56.000Z</time>
      </trkpt>
      <trkpt lat="49.90161" lon="4.79096">
        <ele>399</ele>
        <time>2022-07-15T07:53:57.000Z</time>
      </trkpt>
      <trkpt lat="49.9016" lon="4.79093">
        <ele>399</ele>
        <time>2022-07-15T07:53:58.000Z</time>
      </trkpt>
      <trkpt lat="49.90158" lon="4.79091">
        <ele>399</ele>
        <time>2022-07-15T07:53:59.000Z</time>
      </trkpt>
      <trkpt lat="49.90157" lon="4.79089">
        <ele>399</ele>
        <time>2022-07-15T07:54:00.000Z</time>
      </trkpt>
      <trkpt lat="49.90156" lon="4.79086">
        <ele>399</ele>
        <time>2022-07-15T07:54:01.000Z</time>
      </trkpt>
      <trkpt lat="49.90155" lon="4.79084">
        <ele>399</ele>
        <time>2022-07-15T07:54:02.000Z</time>
      </trkpt>
      <trkpt lat="49.90154" lon="4.79081">
        <ele>399</ele>
        <time>2022-07-15T07:54:03.000Z</time>
      </trkpt>
      <trkpt lat="49.90153" lon="4.79079">
        <ele>399</ele>
        <time>2022-07-15T07:54:04.000Z</time>
      </trkpt>
      <trkpt lat="49.90152" lon="4.79077">
        <ele>399</ele>
        <time>2022-07-15T07:54:05.000Z</time>
      </trkpt>
      <trkpt lat="49.90152" lon="4.79074">
        <ele>399</ele>
        <time>2022-07-15T07:54:06.000Z</time>
      </trkpt>
      <trkpt lat="49.90152" lon="4.79072">
        <ele>399</ele>
        <time>2022-07-15T07:54:07.000Z</time>
      </trkpt>
      <trkpt lat="49.90152" lon="4.7907">
        <ele>399</ele>
        <time>2022-07-15T07:54:08.000Z</time>
      </trkpt>
      <trkpt lat="49.90151" lon="4.79069">
        <ele>399</ele>
        <time>2022-07-15T07:54:09.000Z</time>
      </trkpt>
      <trkpt lat="49.9015" lon="4.79068">
        <ele>400</ele>
        <time>2022-07-15T07:54:10.000Z</time>
      </trkpt>
      <trkpt lat="49.90149" lon="4.79066">
        <ele>400</ele>
        <time>2022-07-15T07:54:11.000Z</time>
      </trkpt>
      <trkpt lat="49.90148" lon="4.79064">
        <ele>400</ele>
        <time>2022-07-15T07:54:12.000Z</time>
      </trkpt>
      <trkpt lat="49.90147" lon="4.79063">
        <ele>400</ele>
        <time>2022-07-15T07:54:13.000Z</time>
      </trkpt>
      <trkpt lat="49.90145" lon="4.79061">
        <ele>401</ele>
        <time>2022-07-15T07:54:14.000Z</time>
      </trkpt>
      <trkpt lat="49.90144" lon="4.79059">
        <ele>401</ele>
        <time>2022-07-15T07:54:15.000Z</time>
      </trkpt>
      <trkpt lat="49.90143" lon="4.79057">
        <ele>401</ele>
        <time>2022-07-15T07:54:16.000Z</time>
      </trkpt>
      <trkpt lat="49.90142" lon="4.79056">
        <ele>401</ele>
        <time>2022-07-15T07:54:17.000Z</time>
      </trkpt>
      <trkpt lat="49.90141" lon="4.79055">
        <ele>401</ele>
        <time>2022-07-15T07:54:18.000Z</time>
      </trkpt>
      <trkpt lat="49.9014" lon="4.79053">
        <ele>401</ele>
        <time>2022-07-15T07:54:19.000Z</time>
      </trkpt>
      <trkpt lat="49.90139" lon="4.79052">
        <ele>402</ele>
        <time>2022-07-15T07:54:20.000Z</time>
      </trkpt>
      <trkpt lat="49.90138" lon="4.7905">
        <ele>402</ele>
        <time>2022-07-15T07:54:21.000Z</time>
      </trkpt>
      <trkpt lat="49.90137" lon="4.79048">
        <ele>402</ele>
        <time>2022-07-15T07:54:22.000Z</time>
      </trkpt>
      <trkpt lat="49.90136" lon="4.79047">
        <ele>402</ele>
        <time>2022-07-15T07:54:23.000Z</time>
      </trkpt>
      <trkpt lat="49.90135" lon="4.79045">
        <ele>402</ele>
        <time>2022-07-15T07:54:24.000Z</time>
      </trkpt>
      <trkpt lat="49.90133" lon="4.79043">
        <ele>402</ele>
        <time>2022-07-15T07:54:25.000Z</time>
      </trkpt>
      <trkpt lat="49.90132" lon="4.79041">
        <ele>402</ele>
        <time>2022-07-15T07:54:26.000Z</time>
      </trkpt>
      <trkpt lat="49.90131" lon="4.79038">
        <ele>402</ele>
        <time>2022-07-15T07:54:27.000Z</time>
      </trkpt>
      <trkpt lat="49.9013" lon="4.79036">
        <ele>403</ele>
        <time>2022-07-15T07:54:28.000Z</time>
      </trkpt>
      <trkpt lat="49.90129" lon="4.79034">
        <ele>403</ele>
        <time>2022-07-15T07:54:29.000Z</time>
      </trkpt>
      <trkpt lat="49.90128" lon="4.79032">
        <ele>403</ele>
        <time>2022-07-15T07:54:30.000Z</time>
      </trkpt>
      <trkpt lat="49.90126" lon="4.7903">
        <ele>404</ele>
        <time>2022-07-15T07:54:31.000Z</time>
      </trkpt>
      <trkpt lat="49.90125" lon="4.79028">
        <ele>404</ele>
        <time>2022-07-15T07:54:32.000Z</time>
      </trkpt>
      <trkpt lat="49.90123" lon="4.79025">
        <ele>404</ele>
        <time>2022-07-15T07:54:33.000Z</time>
      </trkpt>
      <trkpt lat="49.90122" lon="4.79024">
        <ele>404</ele>
        <time>2022-07-15T07:54:34.000Z</time>
      </trkpt>
      <trkpt lat="49.90121" lon="4.79022">
        <ele>404</ele>
        <time>2022-07-15T07:54:35.000Z</time>
      </trkpt>
      <trkpt lat="49.9012" lon="4.7902">
        <ele>405</ele>
        <time>2022-07-15T07:54:36.000Z</time>
      </trkpt>
      <trkpt lat="49.90119" lon="4.79018">
        <ele>405</ele>
        <time>2022-07-15T07:54:37.000Z</time>
      </trkpt>
      <trkpt lat="49.90118" lon="4.79016">
        <ele>405</ele>
        <time>2022-07-15T07:54:38.000Z</time>
      </trkpt>
      <trkpt lat="49.90117" lon="4.79014">
        <ele>405</ele>
        <time>2022-07-15T07:54:39.000Z</time>
      </trkpt>
      <trkpt lat="49.90116" lon="4.79012">
        <ele>405</ele>
        <time>2022-07-15T07:54:40.000Z</time>
      </trkpt>
      <trkpt lat="49.90115" lon="4.7901">
        <ele>406</ele>
        <time>2022-07-15T07:54:41.000Z</time>
      </trkpt>
      <trkpt lat="49.90114" lon="4.79008">
        <ele>406</ele>
        <time>2022-07-15T07:54:42.000Z</time>
      </trkpt>
      <trkpt lat="49.90113" lon="4.79005">
        <ele>406</ele>
        <time>2022-07-15T07:54:43.000Z</time>
      </trkpt>
      <trkpt lat="49.90112" lon="4.79004">
        <ele>406</ele>
        <time>2022-07-15T07:54:44.000Z</time>
      </trkpt>
      <trkpt lat="49.90111" lon="4.79001">
        <ele>406</ele>
        <time>2022-07-15T07:54:45.000Z</time>
      </trkpt>
      <trkpt lat="49.9011" lon="4.79">
        <ele>406</ele>
        <time>2022-07-15T07:54:46.000Z</time>
      </trkpt>
      <trkpt lat="49.90109" lon="4.78998">
        <ele>407</ele>
        <time>2022-07-15T07:54:47.000Z</time>
      </trkpt>
      <trkpt lat="49.90108" lon="4.78996">
        <ele>407</ele>
        <time>2022-07-15T07:54:48.000Z</time>
      </trkpt>
      <trkpt lat="49.90107" lon="4.78994">
        <ele>407</ele>
        <time>2022-07-15T07:54:49.000Z</time>
      </trkpt>
      <trkpt lat="49.90106" lon="4.78992">
        <ele>407</ele>
        <time>2022-07-15T07:54:50.000Z</time>
      </trkpt>
      <trkpt lat="49.90105" lon="4.7899">
        <ele>407</ele>
        <time>2022-07-15T07:54:51.000Z</time>
      </trkpt>
      <trkpt lat="49.90104" lon="4.78988">
        <ele>407</ele>
        <time>2022-07-15T07:54:52.000Z</time>
      </trkpt>
      <trkpt lat="49.90102" lon="4.78986">
        <ele>408</ele>
        <time>2022-07-15T07:54:53.000Z</time>
      </trkpt>
      <trkpt lat="49.90101" lon="4.78984">
        <ele>408</ele>
        <time>2022-07-15T07:54:54.000Z</time>
      </trkpt>
      <trkpt lat="49.901" lon="4.78982">
        <ele>408</ele>
        <time>2022-07-15T07:54:55.000Z</time>
      </trkpt>
      <trkpt lat="49.90099" lon="4.78981">
        <ele>408</ele>
        <time>2022-07-15T07:54:56.000Z</time>
      </trkpt>
      <trkpt lat="49.90098" lon="4.78979">
        <ele>408</ele>
        <time>2022-07-15T07:54:57.000Z</time>
      </trkpt>
      <trkpt lat="49.90097" lon="4.78977">
        <ele>409</ele>
        <time>2022-07-15T07:54:58.000Z</time>
      </trkpt>
      <trkpt lat="49.90096" lon="4.78975">
        <ele>409</ele>
        <time>2022-07-15T07:54:59.000Z</time>
      </trkpt>
      <trkpt lat="49.90095" lon="4.78973">
        <ele>409</ele>
        <time>2022-07-15T07:55:00.000Z</time>
      </trkpt>
      <trkpt lat="49.90093" lon="4.78971">
        <ele>410</ele>
        <time>2022-07-15T07:55:01.000Z</time>
      </trkpt>
      <trkpt lat="49.90092" lon="4.7897">
        <ele>410</ele>
        <time>2022-07-15T07:55:02.000Z</time>
      </trkpt>
      <trkpt lat="49.90091" lon="4.78969">
        <ele>410</ele>
        <time>2022-07-15T07:55:03.000Z</time>
      </trkpt>
      <trkpt lat="49.90089" lon="4.78967">
        <ele>411</ele>
        <time>2022-07-15T07:55:04.000Z</time>
      </trkpt>
      <trkpt lat="49.90088" lon="4.78965">
        <ele>411</ele>
        <time>2022-07-15T07:55:05.000Z</time>
      </trkpt>
      <trkpt lat="49.90087" lon="4.78964">
        <ele>412</ele>
        <time>2022-07-15T07:55:06.000Z</time>
      </trkpt>
      <trkpt lat="49.90086" lon="4.78962">
        <ele>412</ele>
        <time>2022-07-15T07:55:07.000Z</time>
      </trkpt>
      <trkpt lat="49.90085" lon="4.78959">
        <ele>412</ele>
        <time>2022-07-15T07:55:08.000Z</time>
      </trkpt>
      <trkpt lat="49.90084" lon="4.78957">
        <ele>413</ele>
        <time>2022-07-15T07:55:09.000Z</time>
      </trkpt>
      <trkpt lat="49.90082" lon="4.78955">
        <ele>413</ele>
        <time>2022-07-15T07:55:10.000Z</time>
      </trkpt>
      <trkpt lat="49.90081" lon="4.78953">
        <ele>413</ele>
        <time>2022-07-15T07:55:11.000Z</time>
      </trkpt>
      <trkpt lat="49.9008" lon="4.7895">
        <ele>414</ele>
        <time>2022-07-15T07:55:12.000Z</time>
      </trkpt>
      <trkpt lat="49.90079" lon="4.78948">
        <ele>414</ele>
        <time>2022-07-15T07:55:13.000Z</time>
      </trkpt>
      <trkpt lat="49.90078" lon="4.78946">
        <ele>414</ele>
        <time>2022-07-15T07:55:14.000Z</time>
      </trkpt>
      <trkpt lat="49.90077" lon="4.78944">
        <ele>414</ele>
        <time>2022-07-15T07:55:15.000Z</time>
      </trkpt>
      <trkpt lat="49.90076" lon="4.78942">
        <ele>415</ele>
        <time>2022-07-15T07:55:16.000Z</time>
      </trkpt>
      <trkpt lat="49.90074" lon="4.78941">
        <ele>415</ele>
        <time>2022-07-15T07:55:17.000Z</time>
      </trkpt>
      <trkpt lat="49.90073" lon="4.7894">
        <ele>415</ele>
        <time>2022-07-15T07:55:18.000Z</time>
      </trkpt>
      <trkpt lat="49.90071" lon="4.78938">
        <ele>415</ele>
        <time>2022-07-15T07:55:19.000Z</time>
      </trkpt>
      <trkpt lat="49.90069" lon="4.78935">
        <ele>416</ele>
        <time>2022-07-15T07:55:20.000Z</time>
      </trkpt>
      <trkpt lat="49.90067" lon="4.78933">
        <ele>416</ele>
        <time>2022-07-15T07:55:21.000Z</time>
      </trkpt>
      <trkpt lat="49.90066" lon="4.78932">
        <ele>416</ele>
        <time>2022-07-15T07:55:22.000Z</time>
      </trkpt>
      <trkpt lat="49.90064" lon="4.7893">
        <ele>416</ele>
        <time>2022-07-15T07:55:23.000Z</time>
      </trkpt>
      <trkpt lat="49.90062" lon="4.78928">
        <ele>417</ele>
        <time>2022-07-15T07:55:24.000Z</time>
      </trkpt>
      <trkpt lat="49.9006" lon="4.78926">
        <ele>417</ele>
        <time>2022-07-15T07:55:25.000Z</time>
      </trkpt>
      <trkpt lat="49.90058" lon="4.78924">
        <ele>417</ele>
        <time>2022-07-15T07:55:26.000Z</time>
      </trkpt>
      <trkpt lat="49.90056" lon="4.78922">
        <ele>417</ele>
        <time>2022-07-15T07:55:27.000Z</time>
      </trkpt>
      <trkpt lat="49.90055" lon="4.7892">
        <ele>418</ele>
        <time>2022-07-15T07:55:28.000Z</time>
      </trkpt>
      <trkpt lat="49.90053" lon="4.78918">
        <ele>418</ele>
        <time>2022-07-15T07:55:29.000Z</time>
      </trkpt>
      <trkpt lat="49.90051" lon="4.78916">
        <ele>418</ele>
        <time>2022-07-15T07:55:30.000Z</time>
      </trkpt>
      <trkpt lat="49.90049" lon="4.78915">
        <ele>418</ele>
        <time>2022-07-15T07:55:31.000Z</time>
      </trkpt>
      <trkpt lat="49.90047" lon="4.78913">
        <ele>419</ele>
        <time>2022-07-15T07:55:32.000Z</time>
      </trkpt>
      <trkpt lat="49.90046" lon="4.78911">
        <ele>419</ele>
        <time>2022-07-15T07:55:33.000Z</time>
      </trkpt>
      <trkpt lat="49.90044" lon="4.7891">
        <ele>419</ele>
        <time>2022-07-15T07:55:34.000Z</time>
      </trkpt>
      <trkpt lat="49.90042" lon="4.78908">
        <ele>419</ele>
        <time>2022-07-15T07:55:35.000Z</time>
      </trkpt>
      <trkpt lat="49.9004" lon="4.78907">
        <ele>419</ele>
        <time>2022-07-15T07:55:36.000Z</time>
      </trkpt>
      <trkpt lat="49.90039" lon="4.78905">
        <ele>420</ele>
        <time>2022-07-15T07:55:37.000Z</time>
      </trkpt>
      <trkpt lat="49.90036" lon="4.78903">
        <ele>420</ele>
        <time>2022-07-15T07:55:38.000Z</time>
      </trkpt>
      <trkpt lat="49.90034" lon="4.78901">
        <ele>420</ele>
        <time>2022-07-15T07:55:39.000Z</time>
      </trkpt>
      <trkpt lat="49.90032" lon="4.78899">
        <ele>420</ele>
        <time>2022-07-15T07:55:40.000Z</time>
      </trkpt>
      <trkpt lat="49.9003" lon="4.78897">
        <ele>421</ele>
        <time>2022-07-15T07:55:41.000Z</time>
      </trkpt>
      <trkpt lat="49.90028" lon="4.78895">
        <ele>421</ele>
        <time>2022-07-15T07:55:42.000Z</time>
      </trkpt>
      <trkpt lat="49.90025" lon="4.78893">
        <ele>421</ele>
        <time>2022-07-15T07:55:43.000Z</time>
      </trkpt>
      <trkpt lat="49.90023" lon="4.7889">
        <ele>421</ele>
        <time>2022-07-15T07:55:44.000Z</time>
      </trkpt>
      <trkpt lat="49.90021" lon="4.78888">
        <ele>421</ele>
        <time>2022-07-15T07:55:45.000Z</time>
      </trkpt>
      <trkpt lat="49.90019" lon="4.78886">
        <ele>421</ele>
        <time>2022-07-15T07:55:46.000Z</time>
      </trkpt>
      <trkpt lat="49.90017" lon="4.78884">
        <ele>422</ele>
        <time>2022-07-15T07:55:47.000Z</time>
      </trkpt>
      <trkpt lat="49.90014" lon="4.78882">
        <ele>422</ele>
        <time>2022-07-15T07:55:48.000Z</time>
      </trkpt>
      <trkpt lat="49.90012" lon="4.78879">
        <ele>422</ele>
        <time>2022-07-15T07:55:49.000Z</time>
      </trkpt>
      <trkpt lat="49.9001" lon="4.78877">
        <ele>422</ele>
        <time>2022-07-15T07:55:50.000Z</time>
      </trkpt>
      <trkpt lat="49.90008" lon="4.78874">
        <ele>422</ele>
        <time>2022-07-15T07:55:51.000Z</time>
      </trkpt>
      <trkpt lat="49.90005" lon="4.78871">
        <ele>422</ele>
        <time>2022-07-15T07:55:52.000Z</time>
      </trkpt>
      <trkpt lat="49.90003" lon="4.78867">
        <ele>422</ele>
        <time>2022-07-15T07:55:53.000Z</time>
      </trkpt>
      <trkpt lat="49.90001" lon="4.78865">
        <ele>422</ele>
        <time>2022-07-15T07:55:54.000Z</time>
      </trkpt>
      <trkpt lat="49.9" lon="4.78862">
        <ele>422</ele>
        <time>2022-07-15T07:55:55.000Z</time>
      </trkpt>
      <trkpt lat="49.89998" lon="4.78859">
        <ele>423</ele>
        <time>2022-07-15T07:55:56.000Z</time>
      </trkpt>
      <trkpt lat="49.89996" lon="4.78855">
        <ele>423</ele>
        <time>2022-07-15T07:55:57.000Z</time>
      </trkpt>
      <trkpt lat="49.89993" lon="4.78851">
        <ele>423</ele>
        <time>2022-07-15T07:55:58.000Z</time>
      </trkpt>
      <trkpt lat="49.89991" lon="4.78847">
        <ele>423</ele>
        <time>2022-07-15T07:55:59.000Z</time>
      </trkpt>
      <trkpt lat="49.89989" lon="4.78843">
        <ele>423</ele>
        <time>2022-07-15T07:56:00.000Z</time>
      </trkpt>
      <trkpt lat="49.89986" lon="4.78839">
        <ele>423</ele>
        <time>2022-07-15T07:56:01.000Z</time>
      </trkpt>
      <trkpt lat="49.89984" lon="4.78834">
        <ele>423</ele>
        <time>2022-07-15T07:56:02.000Z</time>
      </trkpt>
      <trkpt lat="49.89981" lon="4.78829">
        <ele>423</ele>
        <time>2022-07-15T07:56:03.000Z</time>
      </trkpt>
      <trkpt lat="49.89978" lon="4.78823">
        <ele>423</ele>
        <time>2022-07-15T07:56:04.000Z</time>
      </trkpt>
      <trkpt lat="49.89975" lon="4.78818">
        <ele>423</ele>
        <time>2022-07-15T07:56:05.000Z</time>
      </trkpt>
      <trkpt lat="49.89971" lon="4.78812">
        <ele>423</ele>
        <time>2022-07-15T07:56:06.000Z</time>
      </trkpt>
      <trkpt lat="49.89968" lon="4.78807">
        <ele>423</ele>
        <time>2022-07-15T07:56:07.000Z</time>
      </trkpt>
      <trkpt lat="49.89966" lon="4.78802">
        <ele>423</ele>
        <time>2022-07-15T07:56:08.000Z</time>
      </trkpt>
      <trkpt lat="49.89963" lon="4.78798">
        <ele>423</ele>
        <time>2022-07-15T07:56:09.000Z</time>
      </trkpt>
      <trkpt lat="49.8996" lon="4.78793">
        <ele>423</ele>
        <time>2022-07-15T07:56:10.000Z</time>
      </trkpt>
      <trkpt lat="49.89956" lon="4.78788">
        <ele>423</ele>
        <time>2022-07-15T07:56:11.000Z</time>
      </trkpt>
      <trkpt lat="49.89952" lon="4.78783">
        <ele>423</ele>
        <time>2022-07-15T07:56:12.000Z</time>
      </trkpt>
      <trkpt lat="49.89948" lon="4.78778">
        <ele>423</ele>
        <time>2022-07-15T07:56:13.000Z</time>
      </trkpt>
      <trkpt lat="49.89944" lon="4.78773">
        <ele>423</ele>
        <time>2022-07-15T07:56:14.000Z</time>
      </trkpt>
      <trkpt lat="49.8994" lon="4.78769">
        <ele>423</ele>
        <time>2022-07-15T07:56:15.000Z</time>
      </trkpt>
      <trkpt lat="49.89936" lon="4.78765">
        <ele>423</ele>
        <time>2022-07-15T07:56:16.000Z</time>
      </trkpt>
      <trkpt lat="49.89932" lon="4.78761">
        <ele>423</ele>
        <time>2022-07-15T07:56:17.000Z</time>
      </trkpt>
      <trkpt lat="49.89927" lon="4.78758">
        <ele>423</ele>
        <time>2022-07-15T07:56:18.000Z</time>
      </trkpt>
      <trkpt lat="49.89923" lon="4.78754">
        <ele>423</ele>
        <time>2022-07-15T07:56:19.000Z</time>
      </trkpt>
      <trkpt lat="49.89918" lon="4.78751">
        <ele>423</ele>
        <time>2022-07-15T07:56:20.000Z</time>
      </trkpt>
      <trkpt lat="49.89914" lon="4.78746">
        <ele>423</ele>
        <time>2022-07-15T07:56:21.000Z</time>
      </trkpt>
      <trkpt lat="49.89909" lon="4.78742">
        <ele>423</ele>
        <time>2022-07-15T07:56:22.000Z</time>
      </trkpt>
      <trkpt lat="49.89905" lon="4.78737">
        <ele>423</ele>
        <time>2022-07-15T07:56:23.000Z</time>
      </trkpt>
      <trkpt lat="49.89901" lon="4.78732">
        <ele>423</ele>
        <time>2022-07-15T07:56:24.000Z</time>
      </trkpt>
      <trkpt lat="49.89896" lon="4.78728">
        <ele>423</ele>
        <time>2022-07-15T07:56:25.000Z</time>
      </trkpt>
      <trkpt lat="49.89891" lon="4.78725">
        <ele>423</ele>
        <time>2022-07-15T07:56:26.000Z</time>
      </trkpt>
      <trkpt lat="49.89885" lon="4.78721">
        <ele>423</ele>
        <time>2022-07-15T07:56:27.000Z</time>
      </trkpt>
      <trkpt lat="49.8988" lon="4.78717">
        <ele>423</ele>
        <time>2022-07-15T07:56:28.000Z</time>
      </trkpt>
      <trkpt lat="49.89876" lon="4.78711">
        <ele>423</ele>
        <time>2022-07-15T07:56:29.000Z</time>
      </trkpt>
      <trkpt lat="49.89873" lon="4.78704">
        <ele>423</ele>
        <time>2022-07-15T07:56:30.000Z</time>
      </trkpt>
      <trkpt lat="49.89869" lon="4.78699">
        <ele>423</ele>
        <time>2022-07-15T07:56:31.000Z</time>
      </trkpt>
      <trkpt lat="49.89865" lon="4.78693">
        <ele>423</ele>
        <time>2022-07-15T07:56:32.000Z</time>
      </trkpt>
      <trkpt lat="49.89862" lon="4.78688">
        <ele>423</ele>
        <time>2022-07-15T07:56:33.000Z</time>
      </trkpt>
      <trkpt lat="49.89859" lon="4.78683">
        <ele>423</ele>
        <time>2022-07-15T07:56:34.000Z</time>
      </trkpt>
      <trkpt lat="49.89856" lon="4.78679">
        <ele>423</ele>
        <time>2022-07-15T07:56:35.000Z</time>
      </trkpt>
      <trkpt lat="49.89853" lon="4.78676">
        <ele>423</ele>
        <time>2022-07-15T07:56:36.000Z</time>
      </trkpt>
      <trkpt lat="49.89849" lon="4.78673">
        <ele>423</ele>
        <time>2022-07-15T07:56:37.000Z</time>
      </trkpt>
      <trkpt lat="49.89846" lon="4.7867">
        <ele>423</ele>
        <time>2022-07-15T07:56:38.000Z</time>
      </trkpt>
      <trkpt lat="49.89843" lon="4.78666">
        <ele>423</ele>
        <time>2022-07-15T07:56:39.000Z</time>
      </trkpt>
      <trkpt lat="49.89839" lon="4.78662">
        <ele>423</ele>
        <time>2022-07-15T07:56:40.000Z</time>
      </trkpt>
      <trkpt lat="49.89835" lon="4.78658">
        <ele>423</ele>
        <time>2022-07-15T07:56:41.000Z</time>
      </trkpt>
      <trkpt lat="49.89831" lon="4.78654">
        <ele>423</ele>
        <time>2022-07-15T07:56:42.000Z</time>
      </trkpt>
      <trkpt lat="49.89827" lon="4.7865">
        <ele>423</ele>
        <time>2022-07-15T07:56:43.000Z</time>
      </trkpt>
      <trkpt lat="49.89823" lon="4.78646">
        <ele>423</ele>
        <time>2022-07-15T07:56:44.000Z</time>
      </trkpt>
      <trkpt lat="49.89818" lon="4.78642">
        <ele>423</ele>
        <time>2022-07-15T07:56:45.000Z</time>
      </trkpt>
      <trkpt lat="49.89813" lon="4.78639">
        <ele>423</ele>
        <time>2022-07-15T07:56:46.000Z</time>
      </trkpt>
      <trkpt lat="49.89808" lon="4.78635">
        <ele>423</ele>
        <time>2022-07-15T07:56:47.000Z</time>
      </trkpt>
      <trkpt lat="49.89804" lon="4.78632">
        <ele>422</ele>
        <time>2022-07-15T07:56:48.000Z</time>
      </trkpt>
      <trkpt lat="49.89799" lon="4.78628">
        <ele>422</ele>
        <time>2022-07-15T07:56:49.000Z</time>
      </trkpt>
      <trkpt lat="49.89795" lon="4.78625">
        <ele>422</ele>
        <time>2022-07-15T07:56:50.000Z</time>
      </trkpt>
      <trkpt lat="49.89791" lon="4.7862">
        <ele>422</ele>
        <time>2022-07-15T07:56:51.000Z</time>
      </trkpt>
      <trkpt lat="49.89786" lon="4.78616">
        <ele>422</ele>
        <time>2022-07-15T07:56:52.000Z</time>
      </trkpt>
      <trkpt lat="49.89781" lon="4.78612">
        <ele>422</ele>
        <time>2022-07-15T07:56:53.000Z</time>
      </trkpt>
      <trkpt lat="49.89776" lon="4.78608">
        <ele>422</ele>
        <time>2022-07-15T07:56:54.000Z</time>
      </trkpt>
      <trkpt lat="49.89772" lon="4.78604">
        <ele>422</ele>
        <time>2022-07-15T07:56:55.000Z</time>
      </trkpt>
      <trkpt lat="49.89766" lon="4.786">
        <ele>422</ele>
        <time>2022-07-15T07:56:56.000Z</time>
      </trkpt>
      <trkpt lat="49.89761" lon="4.78597">
        <ele>422</ele>
        <time>2022-07-15T07:56:57.000Z</time>
      </trkpt>
      <trkpt lat="49.89755" lon="4.78595">
        <ele>421</ele>
        <time>2022-07-15T07:56:58.000Z</time>
      </trkpt>
      <trkpt lat="49.8975" lon="4.78591">
        <ele>421</ele>
        <time>2022-07-15T07:56:59.000Z</time>
      </trkpt>
      <trkpt lat="49.89745" lon="4.78589">
        <ele>421</ele>
        <time>2022-07-15T07:57:00.000Z</time>
      </trkpt>
      <trkpt lat="49.8974" lon="4.78586">
        <ele>421</ele>
        <time>2022-07-15T07:57:01.000Z</time>
      </trkpt>
      <trkpt lat="49.89736" lon="4.78583">
        <ele>421</ele>
        <time>2022-07-15T07:57:02.000Z</time>
      </trkpt>
      <trkpt lat="49.89731" lon="4.7858">
        <ele>421</ele>
        <time>2022-07-15T07:57:03.000Z</time>
      </trkpt>
      <trkpt lat="49.89726" lon="4.78577">
        <ele>421</ele>
        <time>2022-07-15T07:57:04.000Z</time>
      </trkpt>
      <trkpt lat="49.89721" lon="4.78573">
        <ele>420</ele>
        <time>2022-07-15T07:57:05.000Z</time>
      </trkpt>
      <trkpt lat="49.89716" lon="4.7857">
        <ele>420</ele>
        <time>2022-07-15T07:57:06.000Z</time>
      </trkpt>
      <trkpt lat="49.89711" lon="4.78565">
        <ele>420</ele>
        <time>2022-07-15T07:57:07.000Z</time>
      </trkpt>
      <trkpt lat="49.89707" lon="4.7856">
        <ele>420</ele>
        <time>2022-07-15T07:57:08.000Z</time>
      </trkpt>
      <trkpt lat="49.89702" lon="4.78555">
        <ele>419</ele>
        <time>2022-07-15T07:57:09.000Z</time>
      </trkpt>
      <trkpt lat="49.89698" lon="4.78551">
        <ele>419</ele>
        <time>2022-07-15T07:57:10.000Z</time>
      </trkpt>
      <trkpt lat="49.89693" lon="4.78546">
        <ele>419</ele>
        <time>2022-07-15T07:57:11.000Z</time>
      </trkpt>
      <trkpt lat="49.89688" lon="4.78542">
        <ele>418</ele>
        <time>2022-07-15T07:57:12.000Z</time>
      </trkpt>
      <trkpt lat="49.89684" lon="4.78538">
        <ele>418</ele>
        <time>2022-07-15T07:57:13.000Z</time>
      </trkpt>
      <trkpt lat="49.89679" lon="4.78533">
        <ele>418</ele>
        <time>2022-07-15T07:57:14.000Z</time>
      </trkpt>
      <trkpt lat="49.89675" lon="4.78529">
        <ele>417</ele>
        <time>2022-07-15T07:57:15.000Z</time>
      </trkpt>
      <trkpt lat="49.8967" lon="4.78524">
        <ele>417</ele>
        <time>2022-07-15T07:57:16.000Z</time>
      </trkpt>
      <trkpt lat="49.89666" lon="4.7852">
        <ele>417</ele>
        <time>2022-07-15T07:57:17.000Z</time>
      </trkpt>
      <trkpt lat="49.89662" lon="4.78515">
        <ele>416</ele>
        <time>2022-07-15T07:57:18.000Z</time>
      </trkpt>
      <trkpt lat="49.89658" lon="4.78511">
        <ele>416</ele>
        <time>2022-07-15T07:57:19.000Z</time>
      </trkpt>
      <trkpt lat="49.89654" lon="4.78508">
        <ele>416</ele>
        <time>2022-07-15T07:57:20.000Z</time>
      </trkpt>
      <trkpt lat="49.8965" lon="4.78504">
        <ele>415</ele>
        <time>2022-07-15T07:57:21.000Z</time>
      </trkpt>
      <trkpt lat="49.89646" lon="4.78501">
        <ele>415</ele>
        <time>2022-07-15T07:57:22.000Z</time>
      </trkpt>
      <trkpt lat="49.89643" lon="4.78496">
        <ele>415</ele>
        <time>2022-07-15T07:57:23.000Z</time>
      </trkpt>
      <trkpt lat="49.8964" lon="4.78492">
        <ele>415</ele>
        <time>2022-07-15T07:57:24.000Z</time>
      </trkpt>
      <trkpt lat="49.89639" lon="4.78487">
        <ele>415</ele>
        <time>2022-07-15T07:57:25.000Z</time>
      </trkpt>
      <trkpt lat="49.89637" lon="4.78482">
        <ele>415</ele>
        <time>2022-07-15T07:57:26.000Z</time>
      </trkpt>
      <trkpt lat="49.89636" lon="4.78477">
        <ele>415</ele>
        <time>2022-07-15T07:57:27.000Z</time>
      </trkpt>
      <trkpt lat="49.89635" lon="4.78472">
        <ele>415</ele>
        <time>2022-07-15T07:57:28.000Z</time>
      </trkpt>
      <trkpt lat="49.89635" lon="4.78467">
        <ele>414</ele>
        <time>2022-07-15T07:57:29.000Z</time>
      </trkpt>
      <trkpt lat="49.89634" lon="4.78462">
        <ele>414</ele>
        <time>2022-07-15T07:57:30.000Z</time>
      </trkpt>
      <trkpt lat="49.89634" lon="4.78457">
        <ele>414</ele>
        <time>2022-07-15T07:57:31.000Z</time>
      </trkpt>
      <trkpt lat="49.89633" lon="4.78453">
        <ele>414</ele>
        <time>2022-07-15T07:57:32.000Z</time>
      </trkpt>
      <trkpt lat="49.89631" lon="4.78451">
        <ele>414</ele>
        <time>2022-07-15T07:57:33.000Z</time>
      </trkpt>
      <trkpt lat="49.89628" lon="4.78449">
        <ele>414</ele>
        <time>2022-07-15T07:57:34.000Z</time>
      </trkpt>
      <trkpt lat="49.89625" lon="4.78447">
        <ele>414</ele>
        <time>2022-07-15T07:57:35.000Z</time>
      </trkpt>
      <trkpt lat="49.89622" lon="4.78445">
        <ele>414</ele>
        <time>2022-07-15T07:57:36.000Z</time>
      </trkpt>
      <trkpt lat="49.89619" lon="4.78443">
        <ele>414</ele>
        <time>2022-07-15T07:57:37.000Z</time>
      </trkpt>
      <trkpt lat="49.89616" lon="4.78441">
        <ele>414</ele>
        <time>2022-07-15T07:57:38.000Z</time>
      </trkpt>
      <trkpt lat="49.89612" lon="4.78438">
        <ele>414</ele>
        <time>2022-07-15T07:57:39.000Z</time>
      </trkpt>
      <trkpt lat="49.89609" lon="4.78435">
        <ele>414</ele>
        <time>2022-07-15T07:57:40.000Z</time>
      </trkpt>
      <trkpt lat="49.89606" lon="4.78432">
        <ele>415</ele>
        <time>2022-07-15T07:57:41.000Z</time>
      </trkpt>
      <trkpt lat="49.89603" lon="4.78428">
        <ele>415</ele>
        <time>2022-07-15T07:57:42.000Z</time>
      </trkpt>
      <trkpt lat="49.896" lon="4.78424">
        <ele>415</ele>
        <time>2022-07-15T07:57:43.000Z</time>
      </trkpt>
      <trkpt lat="49.89597" lon="4.78421">
        <ele>415</ele>
        <time>2022-07-15T07:57:44.000Z</time>
      </trkpt>
      <trkpt lat="49.89594" lon="4.78417">
        <ele>415</ele>
        <time>2022-07-15T07:57:45.000Z</time>
      </trkpt>
      <trkpt lat="49.89592" lon="4.78413">
        <ele>416</ele>
        <time>2022-07-15T07:57:46.000Z</time>
      </trkpt>
      <trkpt lat="49.8959" lon="4.7841">
        <ele>416</ele>
        <time>2022-07-15T07:57:47.000Z</time>
      </trkpt>
      <trkpt lat="49.89588" lon="4.78407">
        <ele>416</ele>
        <time>2022-07-15T07:57:48.000Z</time>
      </trkpt>
      <trkpt lat="49.89586" lon="4.78404">
        <ele>416</ele>
        <time>2022-07-15T07:57:49.000Z</time>
      </trkpt>
      <trkpt lat="49.89584" lon="4.784">
        <ele>416</ele>
        <time>2022-07-15T07:57:50.000Z</time>
      </trkpt>
      <trkpt lat="49.89582" lon="4.78397">
        <ele>416</ele>
        <time>2022-07-15T07:57:51.000Z</time>
      </trkpt>
      <trkpt lat="49.8958" lon="4.78394">
        <ele>416</ele>
        <time>2022-07-15T07:57:52.000Z</time>
      </trkpt>
      <trkpt lat="49.89578" lon="4.7839">
        <ele>416</ele>
        <time>2022-07-15T07:57:53.000Z</time>
      </trkpt>
      <trkpt lat="49.89576" lon="4.78387">
        <ele>416</ele>
        <time>2022-07-15T07:57:54.000Z</time>
      </trkpt>
      <trkpt lat="49.89575" lon="4.78384">
        <ele>416</ele>
        <time>2022-07-15T07:57:55.000Z</time>
      </trkpt>
      <trkpt lat="49.89573" lon="4.78381">
        <ele>417</ele>
        <time>2022-07-15T07:57:56.000Z</time>
      </trkpt>
      <trkpt lat="49.89572" lon="4.78379">
        <ele>417</ele>
        <time>2022-07-15T07:57:57.000Z</time>
      </trkpt>
      <trkpt lat="49.89571" lon="4.78376">
        <ele>417</ele>
        <time>2022-07-15T07:57:58.000Z</time>
      </trkpt>
      <trkpt lat="49.8957" lon="4.78372">
        <ele>417</ele>
        <time>2022-07-15T07:57:59.000Z</time>
      </trkpt>
      <trkpt lat="49.89568" lon="4.7837">
        <ele>417</ele>
        <time>2022-07-15T07:58:00.000Z</time>
      </trkpt>
      <trkpt lat="49.89567" lon="4.78366">
        <ele>417</ele>
        <time>2022-07-15T07:58:01.000Z</time>
      </trkpt>
      <trkpt lat="49.89565" lon="4.78363">
        <ele>417</ele>
        <time>2022-07-15T07:58:02.000Z</time>
      </trkpt>
      <trkpt lat="49.89564" lon="4.78359">
        <ele>417</ele>
        <time>2022-07-15T07:58:03.000Z</time>
      </trkpt>
      <trkpt lat="49.89563" lon="4.78356">
        <ele>418</ele>
        <time>2022-07-15T07:58:04.000Z</time>
      </trkpt>
      <trkpt lat="49.89563" lon="4.78354">
        <ele>418</ele>
        <time>2022-07-15T07:58:05.000Z</time>
      </trkpt>
      <trkpt lat="49.89561" lon="4.78351">
        <ele>418</ele>
        <time>2022-07-15T07:58:06.000Z</time>
      </trkpt>
      <trkpt lat="49.8956" lon="4.78347">
        <ele>418</ele>
        <time>2022-07-15T07:58:07.000Z</time>
      </trkpt>
      <trkpt lat="49.8956" lon="4.78345">
        <ele>418</ele>
        <time>2022-07-15T07:58:08.000Z</time>
      </trkpt>
      <trkpt lat="49.89559" lon="4.78341">
        <ele>418</ele>
        <time>2022-07-15T07:58:09.000Z</time>
      </trkpt>
      <trkpt lat="49.89558" lon="4.78338">
        <ele>419</ele>
        <time>2022-07-15T07:58:10.000Z</time>
      </trkpt>
      <trkpt lat="49.89557" lon="4.78335">
        <ele>419</ele>
        <time>2022-07-15T07:58:11.000Z</time>
      </trkpt>
      <trkpt lat="49.89555" lon="4.78332">
        <ele>419</ele>
        <time>2022-07-15T07:58:12.000Z</time>
      </trkpt>
      <trkpt lat="49.89554" lon="4.78328">
        <ele>419</ele>
        <time>2022-07-15T07:58:13.000Z</time>
      </trkpt>
      <trkpt lat="49.89553" lon="4.78324">
        <ele>420</ele>
        <time>2022-07-15T07:58:14.000Z</time>
      </trkpt>
      <trkpt lat="49.89552" lon="4.7832">
        <ele>420</ele>
        <time>2022-07-15T07:58:15.000Z</time>
      </trkpt>
      <trkpt lat="49.89551" lon="4.78316">
        <ele>420</ele>
        <time>2022-07-15T07:58:16.000Z</time>
      </trkpt>
      <trkpt lat="49.8955" lon="4.78313">
        <ele>420</ele>
        <time>2022-07-15T07:58:17.000Z</time>
      </trkpt>
      <trkpt lat="49.89549" lon="4.78309">
        <ele>421</ele>
        <time>2022-07-15T07:58:18.000Z</time>
      </trkpt>
      <trkpt lat="49.89548" lon="4.78304">
        <ele>421</ele>
        <time>2022-07-15T07:58:19.000Z</time>
      </trkpt>
      <trkpt lat="49.89547" lon="4.783">
        <ele>421</ele>
        <time>2022-07-15T07:58:20.000Z</time>
      </trkpt>
      <trkpt lat="49.89546" lon="4.78296">
        <ele>421</ele>
        <time>2022-07-15T07:58:21.000Z</time>
      </trkpt>
      <trkpt lat="49.89545" lon="4.78292">
        <ele>421</ele>
        <time>2022-07-15T07:58:22.000Z</time>
      </trkpt>
      <trkpt lat="49.89545" lon="4.78288">
        <ele>421</ele>
        <time>2022-07-15T07:58:23.000Z</time>
      </trkpt>
      <trkpt lat="49.89544" lon="4.78285">
        <ele>421</ele>
        <time>2022-07-15T07:58:24.000Z</time>
      </trkpt>
      <trkpt lat="49.89542" lon="4.78282">
        <ele>421</ele>
        <time>2022-07-15T07:58:25.000Z</time>
      </trkpt>
      <trkpt lat="49.89541" lon="4.78279">
        <ele>422</ele>
        <time>2022-07-15T07:58:26.000Z</time>
      </trkpt>
      <trkpt lat="49.89541" lon="4.78277">
        <ele>422</ele>
        <time>2022-07-15T07:58:27.000Z</time>
      </trkpt>
      <trkpt lat="49.8954" lon="4.78273">
        <ele>422</ele>
        <time>2022-07-15T07:58:28.000Z</time>
      </trkpt>
      <trkpt lat="49.89541" lon="4.7827">
        <ele>422</ele>
        <time>2022-07-15T07:58:29.000Z</time>
      </trkpt>
      <trkpt lat="49.89541" lon="4.78267">
        <ele>422</ele>
        <time>2022-07-15T07:58:30.000Z</time>
      </trkpt>
      <trkpt lat="49.89541" lon="4.78263">
        <ele>422</ele>
        <time>2022-07-15T07:58:31.000Z</time>
      </trkpt>
      <trkpt lat="49.89541" lon="4.78259">
        <ele>422</ele>
        <time>2022-07-15T07:58:32.000Z</time>
      </trkpt>
      <trkpt lat="49.8954" lon="4.78256">
        <ele>423</ele>
        <time>2022-07-15T07:58:33.000Z</time>
      </trkpt>
      <trkpt lat="49.89539" lon="4.78253">
        <ele>423</ele>
        <time>2022-07-15T07:58:34.000Z</time>
      </trkpt>
      <trkpt lat="49.89537" lon="4.78249">
        <ele>423</ele>
        <time>2022-07-15T07:58:35.000Z</time>
      </trkpt>
      <trkpt lat="49.89535" lon="4.78244">
        <ele>423</ele>
        <time>2022-07-15T07:58:36.000Z</time>
      </trkpt>
      <trkpt lat="49.89534" lon="4.7824">
        <ele>423</ele>
        <time>2022-07-15T07:58:37.000Z</time>
      </trkpt>
      <trkpt lat="49.89532" lon="4.78237">
        <ele>423</ele>
        <time>2022-07-15T07:58:38.000Z</time>
      </trkpt>
      <trkpt lat="49.89531" lon="4.78232">
        <ele>423</ele>
        <time>2022-07-15T07:58:39.000Z</time>
      </trkpt>
      <trkpt lat="49.89529" lon="4.78228">
        <ele>423</ele>
        <time>2022-07-15T07:58:40.000Z</time>
      </trkpt>
      <trkpt lat="49.89528" lon="4.78223">
        <ele>423</ele>
        <time>2022-07-15T07:58:41.000Z</time>
      </trkpt>
      <trkpt lat="49.89527" lon="4.78218">
        <ele>423</ele>
        <time>2022-07-15T07:58:42.000Z</time>
      </trkpt>
      <trkpt lat="49.89525" lon="4.78214">
        <ele>423</ele>
        <time>2022-07-15T07:58:43.000Z</time>
      </trkpt>
      <trkpt lat="49.89523" lon="4.7821">
        <ele>423</ele>
        <time>2022-07-15T07:58:44.000Z</time>
      </trkpt>
      <trkpt lat="49.89521" lon="4.78205">
        <ele>423</ele>
        <time>2022-07-15T07:58:45.000Z</time>
      </trkpt>
      <trkpt lat="49.89519" lon="4.78201">
        <ele>423</ele>
        <time>2022-07-15T07:58:46.000Z</time>
      </trkpt>
      <trkpt lat="49.89518" lon="4.78197">
        <ele>423</ele>
        <time>2022-07-15T07:58:47.000Z</time>
      </trkpt>
      <trkpt lat="49.89516" lon="4.78195">
        <ele>423</ele>
        <time>2022-07-15T07:58:48.000Z</time>
      </trkpt>
      <trkpt lat="49.89515" lon="4.78193">
        <ele>424</ele>
        <time>2022-07-15T07:58:49.000Z</time>
      </trkpt>
      <trkpt lat="49.89513" lon="4.7819">
        <ele>424</ele>
        <time>2022-07-15T07:58:50.000Z</time>
      </trkpt>
      <trkpt lat="49.89512" lon="4.78187">
        <ele>424</ele>
        <time>2022-07-15T07:58:51.000Z</time>
      </trkpt>
      <trkpt lat="49.89511" lon="4.78183">
        <ele>424</ele>
        <time>2022-07-15T07:58:52.000Z</time>
      </trkpt>
      <trkpt lat="49.8951" lon="4.78179">
        <ele>424</ele>
        <time>2022-07-15T07:58:53.000Z</time>
      </trkpt>
      <trkpt lat="49.89509" lon="4.78173">
        <ele>424</ele>
        <time>2022-07-15T07:58:54.000Z</time>
      </trkpt>
      <trkpt lat="49.89507" lon="4.78167">
        <ele>424</ele>
        <time>2022-07-15T07:58:55.000Z</time>
      </trkpt>
      <trkpt lat="49.89506" lon="4.78161">
        <ele>424</ele>
        <time>2022-07-15T07:58:56.000Z</time>
      </trkpt>
      <trkpt lat="49.89504" lon="4.78155">
        <ele>424</ele>
        <time>2022-07-15T07:58:57.000Z</time>
      </trkpt>
      <trkpt lat="49.89503" lon="4.78148">
        <ele>424</ele>
        <time>2022-07-15T07:58:58.000Z</time>
      </trkpt>
      <trkpt lat="49.89502" lon="4.78143">
        <ele>424</ele>
        <time>2022-07-15T07:58:59.000Z</time>
      </trkpt>
      <trkpt lat="49.895" lon="4.78138">
        <ele>424</ele>
        <time>2022-07-15T07:59:00.000Z</time>
      </trkpt>
      <trkpt lat="49.89498" lon="4.78132">
        <ele>424</ele>
        <time>2022-07-15T07:59:01.000Z</time>
      </trkpt>
      <trkpt lat="49.89496" lon="4.78124">
        <ele>424</ele>
        <time>2022-07-15T07:59:02.000Z</time>
      </trkpt>
      <trkpt lat="49.89494" lon="4.78116">
        <ele>424</ele>
        <time>2022-07-15T07:59:03.000Z</time>
      </trkpt>
      <trkpt lat="49.89492" lon="4.78108">
        <ele>424</ele>
        <time>2022-07-15T07:59:04.000Z</time>
      </trkpt>
      <trkpt lat="49.8949" lon="4.78101">
        <ele>424</ele>
        <time>2022-07-15T07:59:05.000Z</time>
      </trkpt>
      <trkpt lat="49.89488" lon="4.78094">
        <ele>424</ele>
        <time>2022-07-15T07:59:06.000Z</time>
      </trkpt>
      <trkpt lat="49.89485" lon="4.78087">
        <ele>424</ele>
        <time>2022-07-15T07:59:07.000Z</time>
      </trkpt>
      <trkpt lat="49.89482" lon="4.7808">
        <ele>424</ele>
        <time>2022-07-15T07:59:08.000Z</time>
      </trkpt>
      <trkpt lat="49.8948" lon="4.78073">
        <ele>424</ele>
        <time>2022-07-15T07:59:09.000Z</time>
      </trkpt>
      <trkpt lat="49.89478" lon="4.78066">
        <ele>424</ele>
        <time>2022-07-15T07:59:10.000Z</time>
      </trkpt>
      <trkpt lat="49.89476" lon="4.78059">
        <ele>424</ele>
        <time>2022-07-15T07:59:11.000Z</time>
      </trkpt>
      <trkpt lat="49.89475" lon="4.78053">
        <ele>424</ele>
        <time>2022-07-15T07:59:12.000Z</time>
      </trkpt>
      <trkpt lat="49.89473" lon="4.78045">
        <ele>424</ele>
        <time>2022-07-15T07:59:13.000Z</time>
      </trkpt>
      <trkpt lat="49.89472" lon="4.78038">
        <ele>423</ele>
        <time>2022-07-15T07:59:14.000Z</time>
      </trkpt>
      <trkpt lat="49.8947" lon="4.78032">
        <ele>423</ele>
        <time>2022-07-15T07:59:15.000Z</time>
      </trkpt>
      <trkpt lat="49.89468" lon="4.78026">
        <ele>423</ele>
        <time>2022-07-15T07:59:16.000Z</time>
      </trkpt>
      <trkpt lat="49.89466" lon="4.7802">
        <ele>423</ele>
        <time>2022-07-15T07:59:17.000Z</time>
      </trkpt>
      <trkpt lat="49.89464" lon="4.78014">
        <ele>423</ele>
        <time>2022-07-15T07:59:18.000Z</time>
      </trkpt>
      <trkpt lat="49.89462" lon="4.78007">
        <ele>423</ele>
        <time>2022-07-15T07:59:19.000Z</time>
      </trkpt>
      <trkpt lat="49.89461" lon="4.78001">
        <ele>422</ele>
        <time>2022-07-15T07:59:20.000Z</time>
      </trkpt>
      <trkpt lat="49.8946" lon="4.77995">
        <ele>422</ele>
        <time>2022-07-15T07:59:21.000Z</time>
      </trkpt>
      <trkpt lat="49.89458" lon="4.77988">
        <ele>422</ele>
        <time>2022-07-15T07:59:22.000Z</time>
      </trkpt>
      <trkpt lat="49.89456" lon="4.77981">
        <ele>422</ele>
        <time>2022-07-15T07:59:23.000Z</time>
      </trkpt>
      <trkpt lat="49.89455" lon="4.77973">
        <ele>421</ele>
        <time>2022-07-15T07:59:24.000Z</time>
      </trkpt>
      <trkpt lat="49.89454" lon="4.77967">
        <ele>421</ele>
        <time>2022-07-15T07:59:25.000Z</time>
      </trkpt>
      <trkpt lat="49.89454" lon="4.7796">
        <ele>421</ele>
        <time>2022-07-15T07:59:26.000Z</time>
      </trkpt>
      <trkpt lat="49.89453" lon="4.77952">
        <ele>421</ele>
        <time>2022-07-15T07:59:27.000Z</time>
      </trkpt>
      <trkpt lat="49.89453" lon="4.77944">
        <ele>420</ele>
        <time>2022-07-15T07:59:28.000Z</time>
      </trkpt>
      <trkpt lat="49.89453" lon="4.77937">
        <ele>420</ele>
        <time>2022-07-15T07:59:29.000Z</time>
      </trkpt>
      <trkpt lat="49.89452" lon="4.77928">
        <ele>419</ele>
        <time>2022-07-15T07:59:30.000Z</time>
      </trkpt>
      <trkpt lat="49.8945" lon="4.77921">
        <ele>419</ele>
        <time>2022-07-15T07:59:31.000Z</time>
      </trkpt>
      <trkpt lat="49.89448" lon="4.77912">
        <ele>419</ele>
        <time>2022-07-15T07:59:32.000Z</time>
      </trkpt>
      <trkpt lat="49.89446" lon="4.77903">
        <ele>418</ele>
        <time>2022-07-15T07:59:33.000Z</time>
      </trkpt>
      <trkpt lat="49.89443" lon="4.77895">
        <ele>418</ele>
        <time>2022-07-15T07:59:34.000Z</time>
      </trkpt>
      <trkpt lat="49.89441" lon="4.77888">
        <ele>418</ele>
        <time>2022-07-15T07:59:35.000Z</time>
      </trkpt>
      <trkpt lat="49.89438" lon="4.77883">
        <ele>417</ele>
        <time>2022-07-15T07:59:36.000Z</time>
      </trkpt>
      <trkpt lat="49.89436" lon="4.77878">
        <ele>417</ele>
        <time>2022-07-15T07:59:37.000Z</time>
      </trkpt>
      <trkpt lat="49.89434" lon="4.77872">
        <ele>417</ele>
        <time>2022-07-15T07:59:38.000Z</time>
      </trkpt>
      <trkpt lat="49.89433" lon="4.77866">
        <ele>416</ele>
        <time>2022-07-15T07:59:39.000Z</time>
      </trkpt>
      <trkpt lat="49.89432" lon="4.77859">
        <ele>416</ele>
        <time>2022-07-15T07:59:40.000Z</time>
      </trkpt>
      <trkpt lat="49.89432" lon="4.77854">
        <ele>415</ele>
        <time>2022-07-15T07:59:41.000Z</time>
      </trkpt>
      <trkpt lat="49.89431" lon="4.77848">
        <ele>415</ele>
        <time>2022-07-15T07:59:42.000Z</time>
      </trkpt>
      <trkpt lat="49.8943" lon="4.77842">
        <ele>415</ele>
        <time>2022-07-15T07:59:43.000Z</time>
      </trkpt>
      <trkpt lat="49.89429" lon="4.77835">
        <ele>414</ele>
        <time>2022-07-15T07:59:44.000Z</time>
      </trkpt>
      <trkpt lat="49.89428" lon="4.77829">
        <ele>414</ele>
        <time>2022-07-15T07:59:45.000Z</time>
      </trkpt>
      <trkpt lat="49.89427" lon="4.77823">
        <ele>413</ele>
        <time>2022-07-15T07:59:46.000Z</time>
      </trkpt>
      <trkpt lat="49.89426" lon="4.77817">
        <ele>413</ele>
        <time>2022-07-15T07:59:47.000Z</time>
      </trkpt>
      <trkpt lat="49.89424" lon="4.7781">
        <ele>412</ele>
        <time>2022-07-15T07:59:48.000Z</time>
      </trkpt>
      <trkpt lat="49.89422" lon="4.77804">
        <ele>412</ele>
        <time>2022-07-15T07:59:49.000Z</time>
      </trkpt>
      <trkpt lat="49.89421" lon="4.77798">
        <ele>412</ele>
        <time>2022-07-15T07:59:50.000Z</time>
      </trkpt>
      <trkpt lat="49.8942" lon="4.77793">
        <ele>411</ele>
        <time>2022-07-15T07:59:51.000Z</time>
      </trkpt>
      <trkpt lat="49.8942" lon="4.77789">
        <ele>411</ele>
        <time>2022-07-15T07:59:52.000Z</time>
      </trkpt>
      <trkpt lat="49.8942" lon="4.77787">
        <ele>410</ele>
        <time>2022-07-15T07:59:53.000Z</time>
      </trkpt>
      <trkpt lat="49.89421" lon="4.77784">
        <ele>410</ele>
        <time>2022-07-15T07:59:54.000Z</time>
      </trkpt>
      <trkpt lat="49.89422" lon="4.77782">
        <ele>409</ele>
        <time>2022-07-15T07:59:55.000Z</time>
      </trkpt>
      <trkpt lat="49.89423" lon="4.77778">
        <ele>409</ele>
        <time>2022-07-15T07:59:56.000Z</time>
      </trkpt>
      <trkpt lat="49.89425" lon="4.77773">
        <ele>409</ele>
        <time>2022-07-15T07:59:57.000Z</time>
      </trkpt>
      <trkpt lat="49.89427" lon="4.77768">
        <ele>408</ele>
        <time>2022-07-15T07:59:58.000Z</time>
      </trkpt>
      <trkpt lat="49.89428" lon="4.77763">
        <ele>408</ele>
        <time>2022-07-15T07:59:59.000Z</time>
      </trkpt>
      <trkpt lat="49.89429" lon="4.7776">
        <ele>407</ele>
        <time>2022-07-15T08:00:00.000Z</time>
      </trkpt>
      <trkpt lat="49.8943" lon="4.77757">
        <ele>407</ele>
        <time>2022-07-15T08:00:01.000Z</time>
      </trkpt>
      <trkpt lat="49.8943" lon="4.77753">
        <ele>407</ele>
        <time>2022-07-15T08:00:02.000Z</time>
      </trkpt>
      <trkpt lat="49.89429" lon="4.77748">
        <ele>407</ele>
        <time>2022-07-15T08:00:03.000Z</time>
      </trkpt>
      <trkpt lat="49.89428" lon="4.77743">
        <ele>406</ele>
        <time>2022-07-15T08:00:04.000Z</time>
      </trkpt>
      <trkpt lat="49.89426" lon="4.77736">
        <ele>406</ele>
        <time>2022-07-15T08:00:05.000Z</time>
      </trkpt>
      <trkpt lat="49.89424" lon="4.77728">
        <ele>406</ele>
        <time>2022-07-15T08:00:06.000Z</time>
      </trkpt>
      <trkpt lat="49.89422" lon="4.77721">
        <ele>405</ele>
        <time>2022-07-15T08:00:07.000Z</time>
      </trkpt>
      <trkpt lat="49.89421" lon="4.77713">
        <ele>405</ele>
        <time>2022-07-15T08:00:08.000Z</time>
      </trkpt>
      <trkpt lat="49.89419" lon="4.77704">
        <ele>405</ele>
        <time>2022-07-15T08:00:09.000Z</time>
      </trkpt>
      <trkpt lat="49.89418" lon="4.77696">
        <ele>404</ele>
        <time>2022-07-15T08:00:10.000Z</time>
      </trkpt>
      <trkpt lat="49.89415" lon="4.77688">
        <ele>404</ele>
        <time>2022-07-15T08:00:11.000Z</time>
      </trkpt>
      <trkpt lat="49.89413" lon="4.77679">
        <ele>403</ele>
        <time>2022-07-15T08:00:12.000Z</time>
      </trkpt>
      <trkpt lat="49.8941" lon="4.77671">
        <ele>403</ele>
        <time>2022-07-15T08:00:13.000Z</time>
      </trkpt>
      <trkpt lat="49.89406" lon="4.77663">
        <ele>402</ele>
        <time>2022-07-15T08:00:14.000Z</time>
      </trkpt>
      <trkpt lat="49.89403" lon="4.77655">
        <ele>402</ele>
        <time>2022-07-15T08:00:15.000Z</time>
      </trkpt>
      <trkpt lat="49.894" lon="4.77648">
        <ele>401</ele>
        <time>2022-07-15T08:00:16.000Z</time>
      </trkpt>
      <trkpt lat="49.89397" lon="4.77642">
        <ele>401</ele>
        <time>2022-07-15T08:00:17.000Z</time>
      </trkpt>
      <trkpt lat="49.89394" lon="4.77637">
        <ele>400</ele>
        <time>2022-07-15T08:00:18.000Z</time>
      </trkpt>
      <trkpt lat="49.89391" lon="4.77632">
        <ele>399</ele>
        <time>2022-07-15T08:00:19.000Z</time>
      </trkpt>
      <trkpt lat="49.89387" lon="4.77626">
        <ele>399</ele>
        <time>2022-07-15T08:00:20.000Z</time>
      </trkpt>
      <trkpt lat="49.89384" lon="4.77621">
        <ele>398</ele>
        <time>2022-07-15T08:00:21.000Z</time>
      </trkpt>
      <trkpt lat="49.8938" lon="4.77617">
        <ele>398</ele>
        <time>2022-07-15T08:00:22.000Z</time>
      </trkpt>
      <trkpt lat="49.89376" lon="4.77611">
        <ele>397</ele>
        <time>2022-07-15T08:00:23.000Z</time>
      </trkpt>
      <trkpt lat="49.89373" lon="4.77605">
        <ele>397</ele>
        <time>2022-07-15T08:00:24.000Z</time>
      </trkpt>
      <trkpt lat="49.89369" lon="4.77598">
        <ele>396</ele>
        <time>2022-07-15T08:00:25.000Z</time>
      </trkpt>
      <trkpt lat="49.89365" lon="4.77592">
        <ele>396</ele>
        <time>2022-07-15T08:00:26.000Z</time>
      </trkpt>
      <trkpt lat="49.89361" lon="4.77586">
        <ele>395</ele>
        <time>2022-07-15T08:00:27.000Z</time>
      </trkpt>
      <trkpt lat="49.89357" lon="4.7758">
        <ele>395</ele>
        <time>2022-07-15T08:00:28.000Z</time>
      </trkpt>
      <trkpt lat="49.89353" lon="4.77575">
        <ele>394</ele>
        <time>2022-07-15T08:00:29.000Z</time>
      </trkpt>
      <trkpt lat="49.89348" lon="4.7757">
        <ele>394</ele>
        <time>2022-07-15T08:00:30.000Z</time>
      </trkpt>
      <trkpt lat="49.89345" lon="4.77564">
        <ele>393</ele>
        <time>2022-07-15T08:00:31.000Z</time>
      </trkpt>
      <trkpt lat="49.89342" lon="4.77558">
        <ele>393</ele>
        <time>2022-07-15T08:00:32.000Z</time>
      </trkpt>
      <trkpt lat="49.8934" lon="4.77553">
        <ele>392</ele>
        <time>2022-07-15T08:00:33.000Z</time>
      </trkpt>
      <trkpt lat="49.89337" lon="4.77547">
        <ele>392</ele>
        <time>2022-07-15T08:00:34.000Z</time>
      </trkpt>
      <trkpt lat="49.89334" lon="4.7754">
        <ele>391</ele>
        <time>2022-07-15T08:00:35.000Z</time>
      </trkpt>
      <trkpt lat="49.89331" lon="4.77533">
        <ele>391</ele>
        <time>2022-07-15T08:00:36.000Z</time>
      </trkpt>
      <trkpt lat="49.89328" lon="4.77525">
        <ele>390</ele>
        <time>2022-07-15T08:00:37.000Z</time>
      </trkpt>
      <trkpt lat="49.89325" lon="4.77518">
        <ele>390</ele>
        <time>2022-07-15T08:00:38.000Z</time>
      </trkpt>
      <trkpt lat="49.89322" lon="4.7751">
        <ele>389</ele>
        <time>2022-07-15T08:00:39.000Z</time>
      </trkpt>
      <trkpt lat="49.89319" lon="4.77504">
        <ele>389</ele>
        <time>2022-07-15T08:00:40.000Z</time>
      </trkpt>
      <trkpt lat="49.89316" lon="4.77497">
        <ele>388</ele>
        <time>2022-07-15T08:00:41.000Z</time>
      </trkpt>
      <trkpt lat="49.89312" lon="4.77491">
        <ele>388</ele>
        <time>2022-07-15T08:00:42.000Z</time>
      </trkpt>
      <trkpt lat="49.8931" lon="4.77484">
        <ele>387</ele>
        <time>2022-07-15T08:00:43.000Z</time>
      </trkpt>
      <trkpt lat="49.89306" lon="4.77477">
        <ele>387</ele>
        <time>2022-07-15T08:00:44.000Z</time>
      </trkpt>
      <trkpt lat="49.89304" lon="4.77471">
        <ele>386</ele>
        <time>2022-07-15T08:00:45.000Z</time>
      </trkpt>
      <trkpt lat="49.89302" lon="4.77466">
        <ele>386</ele>
        <time>2022-07-15T08:00:46.000Z</time>
      </trkpt>
      <trkpt lat="49.89301" lon="4.77465">
        <ele>386</ele>
        <time>2022-07-15T08:00:47.000Z</time>
      </trkpt>
      <trkpt lat="49.89301" lon="4.77464">
        <ele>385</ele>
        <time>2022-07-15T08:00:48.000Z</time>
      </trkpt>
      <trkpt lat="49.89301" lon="4.77463">
        <ele>385</ele>
        <time>2022-07-15T08:00:49.000Z</time>
      </trkpt>
      <trkpt lat="49.89301" lon="4.77462">
        <ele>384</ele>
        <time>2022-07-15T08:00:50.000Z</time>
      </trkpt>
      <trkpt lat="49.89301" lon="4.77461">
        <ele>384</ele>
        <time>2022-07-15T08:00:51.000Z</time>
      </trkpt>
      <trkpt lat="49.89301" lon="4.7746">
        <ele>383</ele>
        <time>2022-07-15T08:00:52.000Z</time>
      </trkpt>
      <trkpt lat="49.89301" lon="4.77459">
        <ele>383</ele>
        <time>2022-07-15T08:00:53.000Z</time>
      </trkpt>
      <trkpt lat="49.89302" lon="4.77457">
        <ele>383</ele>
        <time>2022-07-15T08:00:54.000Z</time>
      </trkpt>
      <trkpt lat="49.89304" lon="4.77454">
        <ele>382</ele>
        <time>2022-07-15T08:00:55.000Z</time>
      </trkpt>
      <trkpt lat="49.89305" lon="4.7745">
        <ele>382</ele>
        <time>2022-07-15T08:00:56.000Z</time>
      </trkpt>
      <trkpt lat="49.89307" lon="4.77448">
        <ele>381</ele>
        <time>2022-07-15T08:00:57.000Z</time>
      </trkpt>
      <trkpt lat="49.89308" lon="4.77446">
        <ele>381</ele>
        <time>2022-07-15T08:00:58.000Z</time>
      </trkpt>
      <trkpt lat="49.89309" lon="4.77445">
        <ele>380</ele>
        <time>2022-07-15T08:00:59.000Z</time>
      </trkpt>
      <trkpt lat="49.89311" lon="4.77444">
        <ele>380</ele>
        <time>2022-07-15T08:01:00.000Z</time>
      </trkpt>
      <trkpt lat="49.89313" lon="4.77442">
        <ele>379</ele>
        <time>2022-07-15T08:01:01.000Z</time>
      </trkpt>
      <trkpt lat="49.89316" lon="4.77441">
        <ele>379</ele>
        <time>2022-07-15T08:01:02.000Z</time>
      </trkpt>
      <trkpt lat="49.89319" lon="4.7744">
        <ele>379</ele>
        <time>2022-07-15T08:01:03.000Z</time>
      </trkpt>
      <trkpt lat="49.89323" lon="4.7744">
        <ele>378</ele>
        <time>2022-07-15T08:01:04.000Z</time>
      </trkpt>
      <trkpt lat="49.89327" lon="4.7744">
        <ele>378</ele>
        <time>2022-07-15T08:01:05.000Z</time>
      </trkpt>
      <trkpt lat="49.89332" lon="4.7744">
        <ele>378</ele>
        <time>2022-07-15T08:01:06.000Z</time>
      </trkpt>
      <trkpt lat="49.89337" lon="4.7744">
        <ele>378</ele>
        <time>2022-07-15T08:01:07.000Z</time>
      </trkpt>
      <trkpt lat="49.89342" lon="4.77441">
        <ele>378</ele>
        <time>2022-07-15T08:01:08.000Z</time>
      </trkpt>
      <trkpt lat="49.89346" lon="4.77442">
        <ele>378</ele>
        <time>2022-07-15T08:01:09.000Z</time>
      </trkpt>
      <trkpt lat="49.8935" lon="4.77443">
        <ele>378</ele>
        <time>2022-07-15T08:01:10.000Z</time>
      </trkpt>
      <trkpt lat="49.89354" lon="4.77443">
        <ele>378</ele>
        <time>2022-07-15T08:01:11.000Z</time>
      </trkpt>
      <trkpt lat="49.89358" lon="4.77443">
        <ele>378</ele>
        <time>2022-07-15T08:01:12.000Z</time>
      </trkpt>
      <trkpt lat="49.89362" lon="4.77443">
        <ele>378</ele>
        <time>2022-07-15T08:01:13.000Z</time>
      </trkpt>
      <trkpt lat="49.89367" lon="4.77443">
        <ele>378</ele>
        <time>2022-07-15T08:01:14.000Z</time>
      </trkpt>
      <trkpt lat="49.89371" lon="4.77443">
        <ele>378</ele>
        <time>2022-07-15T08:01:15.000Z</time>
      </trkpt>
      <trkpt lat="49.89376" lon="4.77444">
        <ele>378</ele>
        <time>2022-07-15T08:01:16.000Z</time>
      </trkpt>
      <trkpt lat="49.89382" lon="4.77445">
        <ele>378</ele>
        <time>2022-07-15T08:01:17.000Z</time>
      </trkpt>
      <trkpt lat="49.89387" lon="4.77446">
        <ele>378</ele>
        <time>2022-07-15T08:01:18.000Z</time>
      </trkpt>
      <trkpt lat="49.8939" lon="4.77447">
        <ele>378</ele>
        <time>2022-07-15T08:01:19.000Z</time>
      </trkpt>
      <trkpt lat="49.89393" lon="4.77447">
        <ele>378</ele>
        <time>2022-07-15T08:01:20.000Z</time>
      </trkpt>
      <trkpt lat="49.89395" lon="4.77448">
        <ele>378</ele>
        <time>2022-07-15T08:01:21.000Z</time>
      </trkpt>
      <trkpt lat="49.89397" lon="4.77448">
        <ele>378</ele>
        <time>2022-07-15T08:01:22.000Z</time>
      </trkpt>
      <trkpt lat="49.89399" lon="4.77448">
        <ele>378</ele>
        <time>2022-07-15T08:01:23.000Z</time>
      </trkpt>
      <trkpt lat="49.89402" lon="4.77447">
        <ele>378</ele>
        <time>2022-07-15T08:01:24.000Z</time>
      </trkpt>
      <trkpt lat="49.89404" lon="4.77446">
        <ele>378</ele>
        <time>2022-07-15T08:01:25.000Z</time>
      </trkpt>
      <trkpt lat="49.89407" lon="4.77442">
        <ele>378</ele>
        <time>2022-07-15T08:01:26.000Z</time>
      </trkpt>
      <trkpt lat="49.8941" lon="4.77438">
        <ele>378</ele>
        <time>2022-07-15T08:01:27.000Z</time>
      </trkpt>
      <trkpt lat="49.89413" lon="4.77435">
        <ele>377</ele>
        <time>2022-07-15T08:01:28.000Z</time>
      </trkpt>
      <trkpt lat="49.89415" lon="4.77431">
        <ele>377</ele>
        <time>2022-07-15T08:01:29.000Z</time>
      </trkpt>
      <trkpt lat="49.89417" lon="4.77426">
        <ele>377</ele>
        <time>2022-07-15T08:01:30.000Z</time>
      </trkpt>
      <trkpt lat="49.89418" lon="4.77421">
        <ele>377</ele>
        <time>2022-07-15T08:01:31.000Z</time>
      </trkpt>
      <trkpt lat="49.89419" lon="4.77417">
        <ele>377</ele>
        <time>2022-07-15T08:01:32.000Z</time>
      </trkpt>
      <trkpt lat="49.8942" lon="4.77413">
        <ele>376</ele>
        <time>2022-07-15T08:01:33.000Z</time>
      </trkpt>
      <trkpt lat="49.89422" lon="4.77409">
        <ele>376</ele>
        <time>2022-07-15T08:01:34.000Z</time>
      </trkpt>
      <trkpt lat="49.89422" lon="4.77404">
        <ele>376</ele>
        <time>2022-07-15T08:01:35.000Z</time>
      </trkpt>
      <trkpt lat="49.89422" lon="4.77399">
        <ele>375</ele>
        <time>2022-07-15T08:01:36.000Z</time>
      </trkpt>
      <trkpt lat="49.89422" lon="4.77396">
        <ele>375</ele>
        <time>2022-07-15T08:01:37.000Z</time>
      </trkpt>
      <trkpt lat="49.89422" lon="4.77393">
        <ele>375</ele>
        <time>2022-07-15T08:01:38.000Z</time>
      </trkpt>
      <trkpt lat="49.89421" lon="4.7739">
        <ele>374</ele>
        <time>2022-07-15T08:01:39.000Z</time>
      </trkpt>
      <trkpt lat="49.89421" lon="4.77388">
        <ele>374</ele>
        <time>2022-07-15T08:01:40.000Z</time>
      </trkpt>
      <trkpt lat="49.89421" lon="4.77385">
        <ele>374</ele>
        <time>2022-07-15T08:01:41.000Z</time>
      </trkpt>
      <trkpt lat="49.89419" lon="4.77381">
        <ele>374</ele>
        <time>2022-07-15T08:01:42.000Z</time>
      </trkpt>
      <trkpt lat="49.89419" lon="4.77377">
        <ele>374</ele>
        <time>2022-07-15T08:01:43.000Z</time>
      </trkpt>
      <trkpt lat="49.89418" lon="4.77373">
        <ele>373</ele>
        <time>2022-07-15T08:01:44.000Z</time>
      </trkpt>
      <trkpt lat="49.89417" lon="4.77368">
        <ele>373</ele>
        <time>2022-07-15T08:01:45.000Z</time>
      </trkpt>
      <trkpt lat="49.89417" lon="4.77363">
        <ele>373</ele>
        <time>2022-07-15T08:01:46.000Z</time>
      </trkpt>
      <trkpt lat="49.89418" lon="4.77358">
        <ele>372</ele>
        <time>2022-07-15T08:01:47.000Z</time>
      </trkpt>
      <trkpt lat="49.89419" lon="4.77355">
        <ele>372</ele>
        <time>2022-07-15T08:01:48.000Z</time>
      </trkpt>
      <trkpt lat="49.8942" lon="4.77351">
        <ele>372</ele>
        <time>2022-07-15T08:01:49.000Z</time>
      </trkpt>
      <trkpt lat="49.89421" lon="4.77345">
        <ele>372</ele>
        <time>2022-07-15T08:01:50.000Z</time>
      </trkpt>
      <trkpt lat="49.89422" lon="4.7734">
        <ele>371</ele>
        <time>2022-07-15T08:01:51.000Z</time>
      </trkpt>
      <trkpt lat="49.89422" lon="4.77334">
        <ele>371</ele>
        <time>2022-07-15T08:01:52.000Z</time>
      </trkpt>
      <trkpt lat="49.89423" lon="4.77329">
        <ele>370</ele>
        <time>2022-07-15T08:01:53.000Z</time>
      </trkpt>
      <trkpt lat="49.89424" lon="4.77324">
        <ele>370</ele>
        <time>2022-07-15T08:01:54.000Z</time>
      </trkpt>
      <trkpt lat="49.89426" lon="4.7732">
        <ele>370</ele>
        <time>2022-07-15T08:01:55.000Z</time>
      </trkpt>
      <trkpt lat="49.89429" lon="4.77316">
        <ele>369</ele>
        <time>2022-07-15T08:01:56.000Z</time>
      </trkpt>
      <trkpt lat="49.89433" lon="4.77312">
        <ele>369</ele>
        <time>2022-07-15T08:01:57.000Z</time>
      </trkpt>
      <trkpt lat="49.89436" lon="4.7731">
        <ele>369</ele>
        <time>2022-07-15T08:01:58.000Z</time>
      </trkpt>
      <trkpt lat="49.8944" lon="4.77308">
        <ele>368</ele>
        <time>2022-07-15T08:01:59.000Z</time>
      </trkpt>
      <trkpt lat="49.89445" lon="4.77307">
        <ele>368</ele>
        <time>2022-07-15T08:02:00.000Z</time>
      </trkpt>
      <trkpt lat="49.89449" lon="4.77306">
        <ele>368</ele>
        <time>2022-07-15T08:02:01.000Z</time>
      </trkpt>
      <trkpt lat="49.89453" lon="4.77305">
        <ele>367</ele>
        <time>2022-07-15T08:02:02.000Z</time>
      </trkpt>
      <trkpt lat="49.89457" lon="4.77303">
        <ele>367</ele>
        <time>2022-07-15T08:02:03.000Z</time>
      </trkpt>
      <trkpt lat="49.89461" lon="4.77301">
        <ele>367</ele>
        <time>2022-07-15T08:02:04.000Z</time>
      </trkpt>
      <trkpt lat="49.89464" lon="4.77299">
        <ele>366</ele>
        <time>2022-07-15T08:02:05.000Z</time>
      </trkpt>
      <trkpt lat="49.89468" lon="4.77298">
        <ele>366</ele>
        <time>2022-07-15T08:02:06.000Z</time>
      </trkpt>
      <trkpt lat="49.89473" lon="4.77296">
        <ele>366</ele>
        <time>2022-07-15T08:02:07.000Z</time>
      </trkpt>
      <trkpt lat="49.89477" lon="4.77295">
        <ele>365</ele>
        <time>2022-07-15T08:02:08.000Z</time>
      </trkpt>
      <trkpt lat="49.89481" lon="4.77291">
        <ele>365</ele>
        <time>2022-07-15T08:02:09.000Z</time>
      </trkpt>
      <trkpt lat="49.89486" lon="4.77288">
        <ele>365</ele>
        <time>2022-07-15T08:02:10.000Z</time>
      </trkpt>
      <trkpt lat="49.8949" lon="4.77284">
        <ele>365</ele>
        <time>2022-07-15T08:02:11.000Z</time>
      </trkpt>
      <trkpt lat="49.89495" lon="4.7728">
        <ele>364</ele>
        <time>2022-07-15T08:02:12.000Z</time>
      </trkpt>
      <trkpt lat="49.89498" lon="4.77277">
        <ele>364</ele>
        <time>2022-07-15T08:02:13.000Z</time>
      </trkpt>
      <trkpt lat="49.89502" lon="4.77274">
        <ele>364</ele>
        <time>2022-07-15T08:02:14.000Z</time>
      </trkpt>
      <trkpt lat="49.89505" lon="4.7727">
        <ele>364</ele>
        <time>2022-07-15T08:02:15.000Z</time>
      </trkpt>
      <trkpt lat="49.89509" lon="4.77267">
        <ele>363</ele>
        <time>2022-07-15T08:02:16.000Z</time>
      </trkpt>
      <trkpt lat="49.89512" lon="4.77264">
        <ele>363</ele>
        <time>2022-07-15T08:02:17.000Z</time>
      </trkpt>
      <trkpt lat="49.89514" lon="4.77261">
        <ele>363</ele>
        <time>2022-07-15T08:02:18.000Z</time>
      </trkpt>
      <trkpt lat="49.89517" lon="4.77259">
        <ele>363</ele>
        <time>2022-07-15T08:02:19.000Z</time>
      </trkpt>
      <trkpt lat="49.8952" lon="4.77255">
        <ele>362</ele>
        <time>2022-07-15T08:02:20.000Z</time>
      </trkpt>
      <trkpt lat="49.89523" lon="4.77251">
        <ele>362</ele>
        <time>2022-07-15T08:02:21.000Z</time>
      </trkpt>
      <trkpt lat="49.89526" lon="4.77246">
        <ele>361</ele>
        <time>2022-07-15T08:02:22.000Z</time>
      </trkpt>
      <trkpt lat="49.89529" lon="4.77242">
        <ele>361</ele>
        <time>2022-07-15T08:02:23.000Z</time>
      </trkpt>
      <trkpt lat="49.89531" lon="4.77238">
        <ele>360</ele>
        <time>2022-07-15T08:02:24.000Z</time>
      </trkpt>
      <trkpt lat="49.89532" lon="4.77234">
        <ele>360</ele>
        <time>2022-07-15T08:02:25.000Z</time>
      </trkpt>
      <trkpt lat="49.89532" lon="4.77231">
        <ele>359</ele>
        <time>2022-07-15T08:02:26.000Z</time>
      </trkpt>
      <trkpt lat="49.89532" lon="4.77226">
        <ele>359</ele>
        <time>2022-07-15T08:02:27.000Z</time>
      </trkpt>
      <trkpt lat="49.89532" lon="4.77222">
        <ele>358</ele>
        <time>2022-07-15T08:02:28.000Z</time>
      </trkpt>
      <trkpt lat="49.89532" lon="4.77219">
        <ele>358</ele>
        <time>2022-07-15T08:02:29.000Z</time>
      </trkpt>
      <trkpt lat="49.89532" lon="4.77215">
        <ele>357</ele>
        <time>2022-07-15T08:02:30.000Z</time>
      </trkpt>
      <trkpt lat="49.89531" lon="4.77211">
        <ele>357</ele>
        <time>2022-07-15T08:02:31.000Z</time>
      </trkpt>
      <trkpt lat="49.89531" lon="4.77207">
        <ele>356</ele>
        <time>2022-07-15T08:02:32.000Z</time>
      </trkpt>
      <trkpt lat="49.89532" lon="4.77203">
        <ele>356</ele>
        <time>2022-07-15T08:02:33.000Z</time>
      </trkpt>
      <trkpt lat="49.89532" lon="4.77201">
        <ele>356</ele>
        <time>2022-07-15T08:02:34.000Z</time>
      </trkpt>
      <trkpt lat="49.89533" lon="4.77197">
        <ele>355</ele>
        <time>2022-07-15T08:02:35.000Z</time>
      </trkpt>
      <trkpt lat="49.89534" lon="4.77193">
        <ele>355</ele>
        <time>2022-07-15T08:02:36.000Z</time>
      </trkpt>
      <trkpt lat="49.89536" lon="4.77189">
        <ele>354</ele>
        <time>2022-07-15T08:02:37.000Z</time>
      </trkpt>
      <trkpt lat="49.89536" lon="4.77184">
        <ele>353</ele>
        <time>2022-07-15T08:02:38.000Z</time>
      </trkpt>
      <trkpt lat="49.89536" lon="4.7718">
        <ele>353</ele>
        <time>2022-07-15T08:02:39.000Z</time>
      </trkpt>
      <trkpt lat="49.89536" lon="4.77175">
        <ele>352</ele>
        <time>2022-07-15T08:02:40.000Z</time>
      </trkpt>
      <trkpt lat="49.89535" lon="4.77169">
        <ele>351</ele>
        <time>2022-07-15T08:02:41.000Z</time>
      </trkpt>
      <trkpt lat="49.89535" lon="4.77163">
        <ele>350</ele>
        <time>2022-07-15T08:02:42.000Z</time>
      </trkpt>
      <trkpt lat="49.89535" lon="4.77156">
        <ele>350</ele>
        <time>2022-07-15T08:02:43.000Z</time>
      </trkpt>
      <trkpt lat="49.89534" lon="4.77152">
        <ele>349</ele>
        <time>2022-07-15T08:02:44.000Z</time>
      </trkpt>
      <trkpt lat="49.89532" lon="4.77149">
        <ele>348</ele>
        <time>2022-07-15T08:02:45.000Z</time>
      </trkpt>
      <trkpt lat="49.89532" lon="4.77146">
        <ele>348</ele>
        <time>2022-07-15T08:02:46.000Z</time>
      </trkpt>
      <trkpt lat="49.89531" lon="4.77143">
        <ele>347</ele>
        <time>2022-07-15T08:02:47.000Z</time>
      </trkpt>
      <trkpt lat="49.89531" lon="4.7714">
        <ele>346</ele>
        <time>2022-07-15T08:02:48.000Z</time>
      </trkpt>
      <trkpt lat="49.89531" lon="4.77138">
        <ele>346</ele>
        <time>2022-07-15T08:02:49.000Z</time>
      </trkpt>
      <trkpt lat="49.89531" lon="4.77137">
        <ele>345</ele>
        <time>2022-07-15T08:02:50.000Z</time>
      </trkpt>
      <trkpt lat="49.89531" lon="4.77135">
        <ele>345</ele>
        <time>2022-07-15T08:02:51.000Z</time>
      </trkpt>
      <trkpt lat="49.89531" lon="4.77133">
        <ele>344</ele>
        <time>2022-07-15T08:02:52.000Z</time>
      </trkpt>
      <trkpt lat="49.89532" lon="4.77131">
        <ele>344</ele>
        <time>2022-07-15T08:02:53.000Z</time>
      </trkpt>
      <trkpt lat="49.89532" lon="4.77129">
        <ele>344</ele>
        <time>2022-07-15T08:02:54.000Z</time>
      </trkpt>
      <trkpt lat="49.89531" lon="4.77126">
        <ele>343</ele>
        <time>2022-07-15T08:02:55.000Z</time>
      </trkpt>
      <trkpt lat="49.8953" lon="4.77123">
        <ele>343</ele>
        <time>2022-07-15T08:02:56.000Z</time>
      </trkpt>
      <trkpt lat="49.89529" lon="4.77121">
        <ele>343</ele>
        <time>2022-07-15T08:02:57.000Z</time>
      </trkpt>
      <trkpt lat="49.89528" lon="4.77118">
        <ele>343</ele>
        <time>2022-07-15T08:02:58.000Z</time>
      </trkpt>
      <trkpt lat="49.89527" lon="4.77116">
        <ele>342</ele>
        <time>2022-07-15T08:02:59.000Z</time>
      </trkpt>
      <trkpt lat="49.89528" lon="4.77115">
        <ele>342</ele>
        <time>2022-07-15T08:03:00.000Z</time>
      </trkpt>
      <trkpt lat="49.89528" lon="4.77115">
        <ele>342</ele>
        <time>2022-07-15T08:03:01.000Z</time>
      </trkpt>
      <trkpt lat="49.89528" lon="4.77114">
        <ele>341</ele>
        <time>2022-07-15T08:03:02.000Z</time>
      </trkpt>
      <trkpt lat="49.89528" lon="4.77113">
        <ele>341</ele>
        <time>2022-07-15T08:03:03.000Z</time>
      </trkpt>
      <trkpt lat="49.89528" lon="4.77113">
        <ele>341</ele>
        <time>2022-07-15T08:03:04.000Z</time>
      </trkpt>
      <trkpt lat="49.89528" lon="4.77112">
        <ele>341</ele>
        <time>2022-07-15T08:03:05.000Z</time>
      </trkpt>
      <trkpt lat="49.89528" lon="4.77112">
        <ele>341</ele>
        <time>2022-07-15T08:03:06.000Z</time>
      </trkpt>
      <trkpt lat="49.89528" lon="4.77111">
        <ele>340</ele>
        <time>2022-07-15T08:03:07.000Z</time>
      </trkpt>
      <trkpt lat="49.89529" lon="4.77111">
        <ele>340</ele>
        <time>2022-07-15T08:03:08.000Z</time>
      </trkpt>
      <trkpt lat="49.89529" lon="4.77111">
        <ele>340</ele>
        <time>2022-07-15T08:03:09.000Z</time>
      </trkpt>
      <trkpt lat="49.89529" lon="4.7711">
        <ele>340</ele>
        <time>2022-07-15T08:03:10.000Z</time>
      </trkpt>
      <trkpt lat="49.89529" lon="4.7711">
        <ele>340</ele>
        <time>2022-07-15T08:03:11.000Z</time>
      </trkpt>
      <trkpt lat="49.89529" lon="4.7711">
        <ele>340</ele>
        <time>2022-07-15T08:03:12.000Z</time>
      </trkpt>
      <trkpt lat="49.89529" lon="4.7711">
        <ele>340</ele>
        <time>2022-07-15T08:03:13.000Z</time>
      </trkpt>
      <trkpt lat="49.89529" lon="4.77109">
        <ele>339</ele>
        <time>2022-07-15T08:03:14.000Z</time>
      </trkpt>
      <trkpt lat="49.89529" lon="4.77109">
        <ele>339</ele>
        <time>2022-07-15T08:03:15.000Z</time>
      </trkpt>
      <trkpt lat="49.89529" lon="4.77109">
        <ele>339</ele>
        <time>2022-07-15T08:03:16.000Z</time>
      </trkpt>
      <trkpt lat="49.89529" lon="4.77109">
        <ele>339</ele>
        <time>2022-07-15T08:03:17.000Z</time>
      </trkpt>
      <trkpt lat="49.89529" lon="4.77109">
        <ele>339</ele>
        <time>2022-07-15T08:03:18.000Z</time>
      </trkpt>
      <trkpt lat="49.89529" lon="4.77108">
        <ele>339</ele>
        <time>2022-07-15T08:03:19.000Z</time>
      </trkpt>
      <trkpt lat="49.89529" lon="4.77108">
        <ele>339</ele>
        <time>2022-07-15T08:03:20.000Z</time>
      </trkpt>
      <trkpt lat="49.89529" lon="4.77108">
        <ele>339</ele>
        <time>2022-07-15T08:03:21.000Z</time>
      </trkpt>
      <trkpt lat="49.89529" lon="4.77108">
        <ele>339</ele>
        <time>2022-07-15T08:03:22.000Z</time>
      </trkpt>
      <trkpt lat="49.89529" lon="4.77108">
        <ele>339</ele>
        <time>2022-07-15T08:03:23.000Z</time>
      </trkpt>
      <trkpt lat="49.89529" lon="4.77108">
        <ele>339</ele>
        <time>2022-07-15T08:03:24.000Z</time>
      </trkpt>
      <trkpt lat="49.89529" lon="4.77108">
        <ele>339</ele>
        <time>2022-07-15T08:03:25.000Z</time>
      </trkpt>
      <trkpt lat="49.89529" lon="4.77107">
        <ele>339</ele>
        <time>2022-07-15T08:03:26.000Z</time>
      </trkpt>
      <trkpt lat="49.89528" lon="4.77106">
        <ele>339</ele>
        <time>2022-07-15T08:03:27.000Z</time>
      </trkpt>
      <trkpt lat="49.89527" lon="4.77105">
        <ele>338</ele>
        <time>2022-07-15T08:03:28.000Z</time>
      </trkpt>
      <trkpt lat="49.89526" lon="4.77104">
        <ele>338</ele>
        <time>2022-07-15T08:03:29.000Z</time>
      </trkpt>
      <trkpt lat="49.89525" lon="4.77104">
        <ele>338</ele>
        <time>2022-07-15T08:03:30.000Z</time>
      </trkpt>
      <trkpt lat="49.89523" lon="4.77104">
        <ele>338</ele>
        <time>2022-07-15T08:03:31.000Z</time>
      </trkpt>
      <trkpt lat="49.89521" lon="4.77106">
        <ele>338</ele>
        <time>2022-07-15T08:03:32.000Z</time>
      </trkpt>
      <trkpt lat="49.89519" lon="4.77108">
        <ele>338</ele>
        <time>2022-07-15T08:03:33.000Z</time>
      </trkpt>
      <trkpt lat="49.89518" lon="4.77111">
        <ele>337</ele>
        <time>2022-07-15T08:03:34.000Z</time>
      </trkpt>
      <trkpt lat="49.89517" lon="4.77114">
        <ele>337</ele>
        <time>2022-07-15T08:03:35.000Z</time>
      </trkpt>
      <trkpt lat="49.89516" lon="4.77118">
        <ele>337</ele>
        <time>2022-07-15T08:03:36.000Z</time>
      </trkpt>
      <trkpt lat="49.89515" lon="4.77122">
        <ele>337</ele>
        <time>2022-07-15T08:03:37.000Z</time>
      </trkpt>
      <trkpt lat="49.89514" lon="4.77125">
        <ele>336</ele>
        <time>2022-07-15T08:03:38.000Z</time>
      </trkpt>
      <trkpt lat="49.89513" lon="4.77129">
        <ele>336</ele>
        <time>2022-07-15T08:03:39.000Z</time>
      </trkpt>
      <trkpt lat="49.89512" lon="4.77132">
        <ele>336</ele>
        <time>2022-07-15T08:03:40.000Z</time>
      </trkpt>
      <trkpt lat="49.8951" lon="4.77135">
        <ele>336</ele>
        <time>2022-07-15T08:03:41.000Z</time>
      </trkpt>
      <trkpt lat="49.89509" lon="4.77138">
        <ele>335</ele>
        <time>2022-07-15T08:03:42.000Z</time>
      </trkpt>
      <trkpt lat="49.89508" lon="4.77141">
        <ele>335</ele>
        <time>2022-07-15T08:03:43.000Z</time>
      </trkpt>
      <trkpt lat="49.89507" lon="4.77144">
        <ele>335</ele>
        <time>2022-07-15T08:03:44.000Z</time>
      </trkpt>
      <trkpt lat="49.89505" lon="4.77147">
        <ele>335</ele>
        <time>2022-07-15T08:03:45.000Z</time>
      </trkpt>
      <trkpt lat="49.89504" lon="4.7715">
        <ele>335</ele>
        <time>2022-07-15T08:03:46.000Z</time>
      </trkpt>
      <trkpt lat="49.89502" lon="4.77152">
        <ele>334</ele>
        <time>2022-07-15T08:03:47.000Z</time>
      </trkpt>
      <trkpt lat="49.895" lon="4.77155">
        <ele>334</ele>
        <time>2022-07-15T08:03:48.000Z</time>
      </trkpt>
      <trkpt lat="49.89499" lon="4.77157">
        <ele>334</ele>
        <time>2022-07-15T08:03:49.000Z</time>
      </trkpt>
      <trkpt lat="49.89496" lon="4.77158">
        <ele>334</ele>
        <time>2022-07-15T08:03:50.000Z</time>
      </trkpt>
      <trkpt lat="49.89494" lon="4.7716">
        <ele>334</ele>
        <time>2022-07-15T08:03:51.000Z</time>
      </trkpt>
      <trkpt lat="49.89492" lon="4.77161">
        <ele>334</ele>
        <time>2022-07-15T08:03:52.000Z</time>
      </trkpt>
      <trkpt lat="49.8949" lon="4.77163">
        <ele>333</ele>
        <time>2022-07-15T08:03:53.000Z</time>
      </trkpt>
      <trkpt lat="49.89488" lon="4.77163">
        <ele>333</ele>
        <time>2022-07-15T08:03:54.000Z</time>
      </trkpt>
      <trkpt lat="49.89485" lon="4.77164">
        <ele>333</ele>
        <time>2022-07-15T08:03:55.000Z</time>
      </trkpt>
      <trkpt lat="49.89483" lon="4.77165">
        <ele>333</ele>
        <time>2022-07-15T08:03:56.000Z</time>
      </trkpt>
      <trkpt lat="49.89481" lon="4.77165">
        <ele>333</ele>
        <time>2022-07-15T08:03:57.000Z</time>
      </trkpt>
      <trkpt lat="49.89479" lon="4.77165">
        <ele>333</ele>
        <time>2022-07-15T08:03:58.000Z</time>
      </trkpt>
      <trkpt lat="49.89477" lon="4.77165">
        <ele>333</ele>
        <time>2022-07-15T08:03:59.000Z</time>
      </trkpt>
      <trkpt lat="49.89475" lon="4.77165">
        <ele>333</ele>
        <time>2022-07-15T08:04:00.000Z</time>
      </trkpt>
      <trkpt lat="49.89472" lon="4.77165">
        <ele>334</ele>
        <time>2022-07-15T08:04:01.000Z</time>
      </trkpt>
      <trkpt lat="49.8947" lon="4.77164">
        <ele>334</ele>
        <time>2022-07-15T08:04:02.000Z</time>
      </trkpt>
      <trkpt lat="49.89468" lon="4.77163">
        <ele>334</ele>
        <time>2022-07-15T08:04:03.000Z</time>
      </trkpt>
      <trkpt lat="49.89466" lon="4.77163">
        <ele>334</ele>
        <time>2022-07-15T08:04:04.000Z</time>
      </trkpt>
      <trkpt lat="49.89464" lon="4.77163">
        <ele>334</ele>
        <time>2022-07-15T08:04:05.000Z</time>
      </trkpt>
      <trkpt lat="49.89461" lon="4.77163">
        <ele>335</ele>
        <time>2022-07-15T08:04:06.000Z</time>
      </trkpt>
      <trkpt lat="49.89459" lon="4.77162">
        <ele>335</ele>
        <time>2022-07-15T08:04:07.000Z</time>
      </trkpt>
      <trkpt lat="49.89457" lon="4.77162">
        <ele>335</ele>
        <time>2022-07-15T08:04:08.000Z</time>
      </trkpt>
      <trkpt lat="49.89455" lon="4.77161">
        <ele>335</ele>
        <time>2022-07-15T08:04:09.000Z</time>
      </trkpt>
      <trkpt lat="49.89453" lon="4.7716">
        <ele>335</ele>
        <time>2022-07-15T08:04:10.000Z</time>
      </trkpt>
      <trkpt lat="49.8945" lon="4.7716">
        <ele>336</ele>
        <time>2022-07-15T08:04:11.000Z</time>
      </trkpt>
      <trkpt lat="49.89448" lon="4.77159">
        <ele>336</ele>
        <time>2022-07-15T08:04:12.000Z</time>
      </trkpt>
      <trkpt lat="49.89446" lon="4.77159">
        <ele>336</ele>
        <time>2022-07-15T08:04:13.000Z</time>
      </trkpt>
      <trkpt lat="49.89444" lon="4.77159">
        <ele>336</ele>
        <time>2022-07-15T08:04:14.000Z</time>
      </trkpt>
      <trkpt lat="49.89442" lon="4.77159">
        <ele>337</ele>
        <time>2022-07-15T08:04:15.000Z</time>
      </trkpt>
      <trkpt lat="49.8944" lon="4.77159">
        <ele>337</ele>
        <time>2022-07-15T08:04:16.000Z</time>
      </trkpt>
      <trkpt lat="49.89437" lon="4.77159">
        <ele>337</ele>
        <time>2022-07-15T08:04:17.000Z</time>
      </trkpt>
      <trkpt lat="49.89435" lon="4.77158">
        <ele>337</ele>
        <time>2022-07-15T08:04:18.000Z</time>
      </trkpt>
      <trkpt lat="49.89433" lon="4.77158">
        <ele>338</ele>
        <time>2022-07-15T08:04:19.000Z</time>
      </trkpt>
      <trkpt lat="49.89431" lon="4.77157">
        <ele>338</ele>
        <time>2022-07-15T08:04:20.000Z</time>
      </trkpt>
      <trkpt lat="49.89429" lon="4.77157">
        <ele>338</ele>
        <time>2022-07-15T08:04:21.000Z</time>
      </trkpt>
      <trkpt lat="49.89427" lon="4.77156">
        <ele>339</ele>
        <time>2022-07-15T08:04:22.000Z</time>
      </trkpt>
      <trkpt lat="49.89425" lon="4.77156">
        <ele>339</ele>
        <time>2022-07-15T08:04:23.000Z</time>
      </trkpt>
      <trkpt lat="49.89424" lon="4.77155">
        <ele>340</ele>
        <time>2022-07-15T08:04:24.000Z</time>
      </trkpt>
      <trkpt lat="49.89422" lon="4.77155">
        <ele>340</ele>
        <time>2022-07-15T08:04:25.000Z</time>
      </trkpt>
      <trkpt lat="49.8942" lon="4.77154">
        <ele>340</ele>
        <time>2022-07-15T08:04:26.000Z</time>
      </trkpt>
      <trkpt lat="49.89418" lon="4.77154">
        <ele>341</ele>
        <time>2022-07-15T08:04:27.000Z</time>
      </trkpt>
      <trkpt lat="49.89415" lon="4.77154">
        <ele>341</ele>
        <time>2022-07-15T08:04:28.000Z</time>
      </trkpt>
      <trkpt lat="49.89413" lon="4.77153">
        <ele>341</ele>
        <time>2022-07-15T08:04:29.000Z</time>
      </trkpt>
      <trkpt lat="49.89411" lon="4.77153">
        <ele>341</ele>
        <time>2022-07-15T08:04:30.000Z</time>
      </trkpt>
      <trkpt lat="49.89408" lon="4.77153">
        <ele>341</ele>
        <time>2022-07-15T08:04:31.000Z</time>
      </trkpt>
      <trkpt lat="49.89406" lon="4.77153">
        <ele>342</ele>
        <time>2022-07-15T08:04:32.000Z</time>
      </trkpt>
      <trkpt lat="49.89404" lon="4.77153">
        <ele>342</ele>
        <time>2022-07-15T08:04:33.000Z</time>
      </trkpt>
      <trkpt lat="49.89401" lon="4.77154">
        <ele>342</ele>
        <time>2022-07-15T08:04:34.000Z</time>
      </trkpt>
      <trkpt lat="49.89399" lon="4.77153">
        <ele>342</ele>
        <time>2022-07-15T08:04:35.000Z</time>
      </trkpt>
      <trkpt lat="49.89396" lon="4.77153">
        <ele>343</ele>
        <time>2022-07-15T08:04:36.000Z</time>
      </trkpt>
      <trkpt lat="49.89394" lon="4.77154">
        <ele>343</ele>
        <time>2022-07-15T08:04:37.000Z</time>
      </trkpt>
      <trkpt lat="49.89391" lon="4.77154">
        <ele>343</ele>
        <time>2022-07-15T08:04:38.000Z</time>
      </trkpt>
      <trkpt lat="49.89389" lon="4.77154">
        <ele>343</ele>
        <time>2022-07-15T08:04:39.000Z</time>
      </trkpt>
      <trkpt lat="49.89387" lon="4.77154">
        <ele>343</ele>
        <time>2022-07-15T08:04:40.000Z</time>
      </trkpt>
      <trkpt lat="49.89384" lon="4.77153">
        <ele>343</ele>
        <time>2022-07-15T08:04:41.000Z</time>
      </trkpt>
      <trkpt lat="49.89382" lon="4.77153">
        <ele>344</ele>
        <time>2022-07-15T08:04:42.000Z</time>
      </trkpt>
      <trkpt lat="49.8938" lon="4.77152">
        <ele>344</ele>
        <time>2022-07-15T08:04:43.000Z</time>
      </trkpt>
      <trkpt lat="49.89378" lon="4.77152">
        <ele>344</ele>
        <time>2022-07-15T08:04:44.000Z</time>
      </trkpt>
      <trkpt lat="49.89376" lon="4.77152">
        <ele>344</ele>
        <time>2022-07-15T08:04:45.000Z</time>
      </trkpt>
      <trkpt lat="49.89373" lon="4.77152">
        <ele>344</ele>
        <time>2022-07-15T08:04:46.000Z</time>
      </trkpt>
      <trkpt lat="49.89371" lon="4.77152">
        <ele>344</ele>
        <time>2022-07-15T08:04:47.000Z</time>
      </trkpt>
      <trkpt lat="49.89369" lon="4.77151">
        <ele>344</ele>
        <time>2022-07-15T08:04:48.000Z</time>
      </trkpt>
      <trkpt lat="49.89367" lon="4.77151">
        <ele>345</ele>
        <time>2022-07-15T08:04:49.000Z</time>
      </trkpt>
      <trkpt lat="49.89365" lon="4.77151">
        <ele>345</ele>
        <time>2022-07-15T08:04:50.000Z</time>
      </trkpt>
      <trkpt lat="49.89362" lon="4.77151">
        <ele>345</ele>
        <time>2022-07-15T08:04:51.000Z</time>
      </trkpt>
      <trkpt lat="49.8936" lon="4.7715">
        <ele>345</ele>
        <time>2022-07-15T08:04:52.000Z</time>
      </trkpt>
      <trkpt lat="49.89358" lon="4.7715">
        <ele>345</ele>
        <time>2022-07-15T08:04:53.000Z</time>
      </trkpt>
      <trkpt lat="49.89356" lon="4.77149">
        <ele>346</ele>
        <time>2022-07-15T08:04:54.000Z</time>
      </trkpt>
      <trkpt lat="49.89354" lon="4.77148">
        <ele>346</ele>
        <time>2022-07-15T08:04:55.000Z</time>
      </trkpt>
      <trkpt lat="49.89352" lon="4.77148">
        <ele>346</ele>
        <time>2022-07-15T08:04:56.000Z</time>
      </trkpt>
      <trkpt lat="49.8935" lon="4.77148">
        <ele>347</ele>
        <time>2022-07-15T08:04:57.000Z</time>
      </trkpt>
      <trkpt lat="49.89348" lon="4.77147">
        <ele>347</ele>
        <time>2022-07-15T08:04:58.000Z</time>
      </trkpt>
      <trkpt lat="49.89346" lon="4.77147">
        <ele>347</ele>
        <time>2022-07-15T08:04:59.000Z</time>
      </trkpt>
      <trkpt lat="49.89344" lon="4.77147">
        <ele>347</ele>
        <time>2022-07-15T08:05:00.000Z</time>
      </trkpt>
      <trkpt lat="49.89343" lon="4.77148">
        <ele>348</ele>
        <time>2022-07-15T08:05:01.000Z</time>
      </trkpt>
      <trkpt lat="49.89341" lon="4.77149">
        <ele>348</ele>
        <time>2022-07-15T08:05:02.000Z</time>
      </trkpt>
      <trkpt lat="49.89341" lon="4.77149">
        <ele>348</ele>
        <time>2022-07-15T08:05:03.000Z</time>
      </trkpt>
      <trkpt lat="49.8934" lon="4.77149">
        <ele>348</ele>
        <time>2022-07-15T08:05:04.000Z</time>
      </trkpt>
      <trkpt lat="49.89339" lon="4.7715">
        <ele>348</ele>
        <time>2022-07-15T08:05:05.000Z</time>
      </trkpt>
      <trkpt lat="49.89339" lon="4.7715">
        <ele>348</ele>
        <time>2022-07-15T08:05:06.000Z</time>
      </trkpt>
      <trkpt lat="49.89338" lon="4.77151">
        <ele>349</ele>
        <time>2022-07-15T08:05:07.000Z</time>
      </trkpt>
      <trkpt lat="49.89338" lon="4.77151">
        <ele>349</ele>
        <time>2022-07-15T08:05:08.000Z</time>
      </trkpt>
      <trkpt lat="49.89338" lon="4.77152">
        <ele>349</ele>
        <time>2022-07-15T08:05:09.000Z</time>
      </trkpt>
      <trkpt lat="49.89337" lon="4.77152">
        <ele>349</ele>
        <time>2022-07-15T08:05:10.000Z</time>
      </trkpt>
      <trkpt lat="49.89337" lon="4.77152">
        <ele>349</ele>
        <time>2022-07-15T08:05:11.000Z</time>
      </trkpt>
      <trkpt lat="49.89337" lon="4.77151">
        <ele>349</ele>
        <time>2022-07-15T08:05:12.000Z</time>
      </trkpt>
      <trkpt lat="49.89337" lon="4.77151">
        <ele>349</ele>
        <time>2022-07-15T08:05:13.000Z</time>
      </trkpt>
      <trkpt lat="49.89337" lon="4.7715">
        <ele>349</ele>
        <time>2022-07-15T08:05:14.000Z</time>
      </trkpt>
      <trkpt lat="49.89337" lon="4.7715">
        <ele>349</ele>
        <time>2022-07-15T08:05:15.000Z</time>
      </trkpt>
      <trkpt lat="49.89337" lon="4.77149">
        <ele>349</ele>
        <time>2022-07-15T08:05:16.000Z</time>
      </trkpt>
      <trkpt lat="49.89338" lon="4.77149">
        <ele>349</ele>
        <time>2022-07-15T08:05:17.000Z</time>
      </trkpt>
      <trkpt lat="49.89338" lon="4.77149">
        <ele>349</ele>
        <time>2022-07-15T08:05:18.000Z</time>
      </trkpt>
      <trkpt lat="49.89338" lon="4.77149">
        <ele>349</ele>
        <time>2022-07-15T08:05:19.000Z</time>
      </trkpt>
      <trkpt lat="49.89338" lon="4.77148">
        <ele>349</ele>
        <time>2022-07-15T08:05:20.000Z</time>
      </trkpt>
      <trkpt lat="49.89338" lon="4.77148">
        <ele>349</ele>
        <time>2022-07-15T08:05:21.000Z</time>
      </trkpt>
      <trkpt lat="49.89338" lon="4.77147">
        <ele>349</ele>
        <time>2022-07-15T08:05:22.000Z</time>
      </trkpt>
      <trkpt lat="49.89338" lon="4.77146">
        <ele>349</ele>
        <time>2022-07-15T08:05:23.000Z</time>
      </trkpt>
      <trkpt lat="49.89338" lon="4.77145">
        <ele>349</ele>
        <time>2022-07-15T08:05:24.000Z</time>
      </trkpt>
      <trkpt lat="49.89338" lon="4.77145">
        <ele>349</ele>
        <time>2022-07-15T08:05:25.000Z</time>
      </trkpt>
      <trkpt lat="49.89339" lon="4.77144">
        <ele>349</ele>
        <time>2022-07-15T08:05:26.000Z</time>
      </trkpt>
      <trkpt lat="49.8934" lon="4.77144">
        <ele>349</ele>
        <time>2022-07-15T08:05:27.000Z</time>
      </trkpt>
      <trkpt lat="49.89343" lon="4.77144">
        <ele>349</ele>
        <time>2022-07-15T08:05:28.000Z</time>
      </trkpt>
      <trkpt lat="49.89346" lon="4.77144">
        <ele>349</ele>
        <time>2022-07-15T08:05:29.000Z</time>
      </trkpt>
      <trkpt lat="49.8935" lon="4.77144">
        <ele>349</ele>
        <time>2022-07-15T08:05:30.000Z</time>
      </trkpt>
      <trkpt lat="49.89354" lon="4.77144">
        <ele>350</ele>
        <time>2022-07-15T08:05:31.000Z</time>
      </trkpt>
      <trkpt lat="49.89359" lon="4.77146">
        <ele>350</ele>
        <time>2022-07-15T08:05:32.000Z</time>
      </trkpt>
      <trkpt lat="49.89364" lon="4.77147">
        <ele>350</ele>
        <time>2022-07-15T08:05:33.000Z</time>
      </trkpt>
      <trkpt lat="49.8937" lon="4.77149">
        <ele>350</ele>
        <time>2022-07-15T08:05:34.000Z</time>
      </trkpt>
      <trkpt lat="49.89375" lon="4.77151">
        <ele>350</ele>
        <time>2022-07-15T08:05:35.000Z</time>
      </trkpt>
      <trkpt lat="49.89382" lon="4.77152">
        <ele>351</ele>
        <time>2022-07-15T08:05:36.000Z</time>
      </trkpt>
      <trkpt lat="49.89388" lon="4.77154">
        <ele>351</ele>
        <time>2022-07-15T08:05:37.000Z</time>
      </trkpt>
      <trkpt lat="49.89396" lon="4.77155">
        <ele>351</ele>
        <time>2022-07-15T08:05:38.000Z</time>
      </trkpt>
      <trkpt lat="49.89404" lon="4.77156">
        <ele>350</ele>
        <time>2022-07-15T08:05:39.000Z</time>
      </trkpt>
      <trkpt lat="49.89412" lon="4.77157">
        <ele>350</ele>
        <time>2022-07-15T08:05:40.000Z</time>
      </trkpt>
      <trkpt lat="49.8942" lon="4.77158">
        <ele>350</ele>
        <time>2022-07-15T08:05:41.000Z</time>
      </trkpt>
      <trkpt lat="49.89429" lon="4.77158">
        <ele>350</ele>
        <time>2022-07-15T08:05:42.000Z</time>
      </trkpt>
      <trkpt lat="49.89439" lon="4.77159">
        <ele>350</ele>
        <time>2022-07-15T08:05:43.000Z</time>
      </trkpt>
      <trkpt lat="49.89448" lon="4.7716">
        <ele>350</ele>
        <time>2022-07-15T08:05:44.000Z</time>
      </trkpt>
      <trkpt lat="49.89458" lon="4.77161">
        <ele>350</ele>
        <time>2022-07-15T08:05:45.000Z</time>
      </trkpt>
      <trkpt lat="49.89468" lon="4.77161">
        <ele>349</ele>
        <time>2022-07-15T08:05:46.000Z</time>
      </trkpt>
      <trkpt lat="49.89478" lon="4.77161">
        <ele>349</ele>
        <time>2022-07-15T08:05:47.000Z</time>
      </trkpt>
      <trkpt lat="49.89487" lon="4.7716">
        <ele>349</ele>
        <time>2022-07-15T08:05:48.000Z</time>
      </trkpt>
      <trkpt lat="49.89495" lon="4.77157">
        <ele>348</ele>
        <time>2022-07-15T08:05:49.000Z</time>
      </trkpt>
      <trkpt lat="49.89503" lon="4.77151">
        <ele>348</ele>
        <time>2022-07-15T08:05:50.000Z</time>
      </trkpt>
      <trkpt lat="49.89509" lon="4.77141">
        <ele>348</ele>
        <time>2022-07-15T08:05:51.000Z</time>
      </trkpt>
      <trkpt lat="49.89514" lon="4.77129">
        <ele>347</ele>
        <time>2022-07-15T08:05:52.000Z</time>
      </trkpt>
      <trkpt lat="49.89517" lon="4.77118">
        <ele>346</ele>
        <time>2022-07-15T08:05:53.000Z</time>
      </trkpt>
      <trkpt lat="49.8952" lon="4.77109">
        <ele>344</ele>
        <time>2022-07-15T08:05:54.000Z</time>
      </trkpt>
      <trkpt lat="49.89522" lon="4.77102">
        <ele>343</ele>
        <time>2022-07-15T08:05:55.000Z</time>
      </trkpt>
      <trkpt lat="49.89523" lon="4.77097">
        <ele>342</ele>
        <time>2022-07-15T08:05:56.000Z</time>
      </trkpt>
      <trkpt lat="49.89526" lon="4.77092">
        <ele>341</ele>
        <time>2022-07-15T08:05:57.000Z</time>
      </trkpt>
      <trkpt lat="49.89528" lon="4.77088">
        <ele>340</ele>
        <time>2022-07-15T08:05:58.000Z</time>
      </trkpt>
      <trkpt lat="49.8953" lon="4.77084">
        <ele>339</ele>
        <time>2022-07-15T08:05:59.000Z</time>
      </trkpt>
      <trkpt lat="49.89531" lon="4.77081">
        <ele>338</ele>
        <time>2022-07-15T08:06:00.000Z</time>
      </trkpt>
      <trkpt lat="49.8953" lon="4.77078">
        <ele>337</ele>
        <time>2022-07-15T08:06:01.000Z</time>
      </trkpt>
      <trkpt lat="49.8953" lon="4.77075">
        <ele>336</ele>
        <time>2022-07-15T08:06:02.000Z</time>
      </trkpt>
      <trkpt lat="49.8953" lon="4.77072">
        <ele>335</ele>
        <time>2022-07-15T08:06:03.000Z</time>
      </trkpt>
      <trkpt lat="49.89529" lon="4.77069">
        <ele>334</ele>
        <time>2022-07-15T08:06:04.000Z</time>
      </trkpt>
      <trkpt lat="49.89527" lon="4.77067">
        <ele>333</ele>
        <time>2022-07-15T08:06:05.000Z</time>
      </trkpt>
      <trkpt lat="49.89526" lon="4.77065">
        <ele>333</ele>
        <time>2022-07-15T08:06:06.000Z</time>
      </trkpt>
      <trkpt lat="49.89525" lon="4.77062">
        <ele>332</ele>
        <time>2022-07-15T08:06:07.000Z</time>
      </trkpt>
      <trkpt lat="49.89523" lon="4.7706">
        <ele>331</ele>
        <time>2022-07-15T08:06:08.000Z</time>
      </trkpt>
      <trkpt lat="49.89522" lon="4.77058">
        <ele>331</ele>
        <time>2022-07-15T08:06:09.000Z</time>
      </trkpt>
      <trkpt lat="49.89521" lon="4.77054">
        <ele>330</ele>
        <time>2022-07-15T08:06:10.000Z</time>
      </trkpt>
      <trkpt lat="49.8952" lon="4.7705">
        <ele>330</ele>
        <time>2022-07-15T08:06:11.000Z</time>
      </trkpt>
      <trkpt lat="49.89519" lon="4.77047">
        <ele>329</ele>
        <time>2022-07-15T08:06:12.000Z</time>
      </trkpt>
      <trkpt lat="49.89519" lon="4.77044">
        <ele>329</ele>
        <time>2022-07-15T08:06:13.000Z</time>
      </trkpt>
      <trkpt lat="49.89519" lon="4.77042">
        <ele>328</ele>
        <time>2022-07-15T08:06:14.000Z</time>
      </trkpt>
      <trkpt lat="49.8952" lon="4.7704">
        <ele>328</ele>
        <time>2022-07-15T08:06:15.000Z</time>
      </trkpt>
      <trkpt lat="49.8952" lon="4.77037">
        <ele>328</ele>
        <time>2022-07-15T08:06:16.000Z</time>
      </trkpt>
      <trkpt lat="49.8952" lon="4.77034">
        <ele>327</ele>
        <time>2022-07-15T08:06:17.000Z</time>
      </trkpt>
      <trkpt lat="49.89521" lon="4.77032">
        <ele>327</ele>
        <time>2022-07-15T08:06:18.000Z</time>
      </trkpt>
      <trkpt lat="49.89521" lon="4.77029">
        <ele>327</ele>
        <time>2022-07-15T08:06:19.000Z</time>
      </trkpt>
      <trkpt lat="49.8952" lon="4.77026">
        <ele>327</ele>
        <time>2022-07-15T08:06:20.000Z</time>
      </trkpt>
      <trkpt lat="49.8952" lon="4.77024">
        <ele>327</ele>
        <time>2022-07-15T08:06:21.000Z</time>
      </trkpt>
      <trkpt lat="49.8952" lon="4.77021">
        <ele>327</ele>
        <time>2022-07-15T08:06:22.000Z</time>
      </trkpt>
      <trkpt lat="49.89521" lon="4.77019">
        <ele>326</ele>
        <time>2022-07-15T08:06:23.000Z</time>
      </trkpt>
      <trkpt lat="49.89521" lon="4.77016">
        <ele>326</ele>
        <time>2022-07-15T08:06:24.000Z</time>
      </trkpt>
      <trkpt lat="49.8952" lon="4.77014">
        <ele>326</ele>
        <time>2022-07-15T08:06:25.000Z</time>
      </trkpt>
      <trkpt lat="49.8952" lon="4.77011">
        <ele>326</ele>
        <time>2022-07-15T08:06:26.000Z</time>
      </trkpt>
      <trkpt lat="49.89521" lon="4.77009">
        <ele>326</ele>
        <time>2022-07-15T08:06:27.000Z</time>
      </trkpt>
      <trkpt lat="49.89521" lon="4.77007">
        <ele>326</ele>
        <time>2022-07-15T08:06:28.000Z</time>
      </trkpt>
      <trkpt lat="49.89521" lon="4.77004">
        <ele>326</ele>
        <time>2022-07-15T08:06:29.000Z</time>
      </trkpt>
      <trkpt lat="49.89521" lon="4.77002">
        <ele>326</ele>
        <time>2022-07-15T08:06:30.000Z</time>
      </trkpt>
      <trkpt lat="49.89521" lon="4.77">
        <ele>326</ele>
        <time>2022-07-15T08:06:31.000Z</time>
      </trkpt>
      <trkpt lat="49.8952" lon="4.76998">
        <ele>326</ele>
        <time>2022-07-15T08:06:32.000Z</time>
      </trkpt>
      <trkpt lat="49.8952" lon="4.76995">
        <ele>326</ele>
        <time>2022-07-15T08:06:33.000Z</time>
      </trkpt>
      <trkpt lat="49.8952" lon="4.76993">
        <ele>326</ele>
        <time>2022-07-15T08:06:34.000Z</time>
      </trkpt>
      <trkpt lat="49.8952" lon="4.76991">
        <ele>326</ele>
        <time>2022-07-15T08:06:35.000Z</time>
      </trkpt>
      <trkpt lat="49.8952" lon="4.76988">
        <ele>326</ele>
        <time>2022-07-15T08:06:36.000Z</time>
      </trkpt>
      <trkpt lat="49.8952" lon="4.76986">
        <ele>326</ele>
        <time>2022-07-15T08:06:37.000Z</time>
      </trkpt>
      <trkpt lat="49.8952" lon="4.76984">
        <ele>326</ele>
        <time>2022-07-15T08:06:38.000Z</time>
      </trkpt>
      <trkpt lat="49.8952" lon="4.7698">
        <ele>326</ele>
        <time>2022-07-15T08:06:39.000Z</time>
      </trkpt>
      <trkpt lat="49.89519" lon="4.76976">
        <ele>326</ele>
        <time>2022-07-15T08:06:40.000Z</time>
      </trkpt>
      <trkpt lat="49.89519" lon="4.76971">
        <ele>326</ele>
        <time>2022-07-15T08:06:41.000Z</time>
      </trkpt>
      <trkpt lat="49.89518" lon="4.76967">
        <ele>326</ele>
        <time>2022-07-15T08:06:42.000Z</time>
      </trkpt>
      <trkpt lat="49.89518" lon="4.76963">
        <ele>326</ele>
        <time>2022-07-15T08:06:43.000Z</time>
      </trkpt>
      <trkpt lat="49.89517" lon="4.76959">
        <ele>326</ele>
        <time>2022-07-15T08:06:44.000Z</time>
      </trkpt>
      <trkpt lat="49.89517" lon="4.76955">
        <ele>326</ele>
        <time>2022-07-15T08:06:45.000Z</time>
      </trkpt>
      <trkpt lat="49.89517" lon="4.76951">
        <ele>326</ele>
        <time>2022-07-15T08:06:46.000Z</time>
      </trkpt>
      <trkpt lat="49.89517" lon="4.76947">
        <ele>326</ele>
        <time>2022-07-15T08:06:47.000Z</time>
      </trkpt>
      <trkpt lat="49.89516" lon="4.76943">
        <ele>326</ele>
        <time>2022-07-15T08:06:48.000Z</time>
      </trkpt>
      <trkpt lat="49.89516" lon="4.76939">
        <ele>326</ele>
        <time>2022-07-15T08:06:49.000Z</time>
      </trkpt>
      <trkpt lat="49.89516" lon="4.76934">
        <ele>325</ele>
        <time>2022-07-15T08:06:50.000Z</time>
      </trkpt>
      <trkpt lat="49.89515" lon="4.7693">
        <ele>325</ele>
        <time>2022-07-15T08:06:51.000Z</time>
      </trkpt>
      <trkpt lat="49.89515" lon="4.76926">
        <ele>325</ele>
        <time>2022-07-15T08:06:52.000Z</time>
      </trkpt>
      <trkpt lat="49.89514" lon="4.76923">
        <ele>325</ele>
        <time>2022-07-15T08:06:53.000Z</time>
      </trkpt>
      <trkpt lat="49.89512" lon="4.76919">
        <ele>325</ele>
        <time>2022-07-15T08:06:54.000Z</time>
      </trkpt>
      <trkpt lat="49.89511" lon="4.76916">
        <ele>325</ele>
        <time>2022-07-15T08:06:55.000Z</time>
      </trkpt>
      <trkpt lat="49.89509" lon="4.76914">
        <ele>325</ele>
        <time>2022-07-15T08:06:56.000Z</time>
      </trkpt>
      <trkpt lat="49.89508" lon="4.76912">
        <ele>325</ele>
        <time>2022-07-15T08:06:57.000Z</time>
      </trkpt>
      <trkpt lat="49.89506" lon="4.76908">
        <ele>325</ele>
        <time>2022-07-15T08:06:58.000Z</time>
      </trkpt>
      <trkpt lat="49.89504" lon="4.76903">
        <ele>325</ele>
        <time>2022-07-15T08:06:59.000Z</time>
      </trkpt>
      <trkpt lat="49.89502" lon="4.76898">
        <ele>324</ele>
        <time>2022-07-15T08:07:00.000Z</time>
      </trkpt>
      <trkpt lat="49.89501" lon="4.76895">
        <ele>324</ele>
        <time>2022-07-15T08:07:01.000Z</time>
      </trkpt>
      <trkpt lat="49.89501" lon="4.76891">
        <ele>324</ele>
        <time>2022-07-15T08:07:02.000Z</time>
      </trkpt>
      <trkpt lat="49.895" lon="4.76887">
        <ele>324</ele>
        <time>2022-07-15T08:07:03.000Z</time>
      </trkpt>
      <trkpt lat="49.895" lon="4.76881">
        <ele>324</ele>
        <time>2022-07-15T08:07:04.000Z</time>
      </trkpt>
      <trkpt lat="49.895" lon="4.76876">
        <ele>324</ele>
        <time>2022-07-15T08:07:05.000Z</time>
      </trkpt>
      <trkpt lat="49.89499" lon="4.76868">
        <ele>323</ele>
        <time>2022-07-15T08:07:06.000Z</time>
      </trkpt>
      <trkpt lat="49.89499" lon="4.76862">
        <ele>323</ele>
        <time>2022-07-15T08:07:07.000Z</time>
      </trkpt>
      <trkpt lat="49.89498" lon="4.76858">
        <ele>323</ele>
        <time>2022-07-15T08:07:08.000Z</time>
      </trkpt>
      <trkpt lat="49.89498" lon="4.76855">
        <ele>323</ele>
        <time>2022-07-15T08:07:09.000Z</time>
      </trkpt>
      <trkpt lat="49.89496" lon="4.76851">
        <ele>323</ele>
        <time>2022-07-15T08:07:10.000Z</time>
      </trkpt>
      <trkpt lat="49.89496" lon="4.76848">
        <ele>323</ele>
        <time>2022-07-15T08:07:11.000Z</time>
      </trkpt>
      <trkpt lat="49.89495" lon="4.76845">
        <ele>322</ele>
        <time>2022-07-15T08:07:12.000Z</time>
      </trkpt>
      <trkpt lat="49.89494" lon="4.76841">
        <ele>322</ele>
        <time>2022-07-15T08:07:13.000Z</time>
      </trkpt>
      <trkpt lat="49.89494" lon="4.76838">
        <ele>322</ele>
        <time>2022-07-15T08:07:14.000Z</time>
      </trkpt>
      <trkpt lat="49.89494" lon="4.76835">
        <ele>322</ele>
        <time>2022-07-15T08:07:15.000Z</time>
      </trkpt>
      <trkpt lat="49.89493" lon="4.76831">
        <ele>322</ele>
        <time>2022-07-15T08:07:16.000Z</time>
      </trkpt>
      <trkpt lat="49.89492" lon="4.76828">
        <ele>322</ele>
        <time>2022-07-15T08:07:17.000Z</time>
      </trkpt>
      <trkpt lat="49.89491" lon="4.76822">
        <ele>322</ele>
        <time>2022-07-15T08:07:18.000Z</time>
      </trkpt>
      <trkpt lat="49.89489" lon="4.76816">
        <ele>322</ele>
        <time>2022-07-15T08:07:19.000Z</time>
      </trkpt>
      <trkpt lat="49.89488" lon="4.76811">
        <ele>322</ele>
        <time>2022-07-15T08:07:20.000Z</time>
      </trkpt>
      <trkpt lat="49.89487" lon="4.76806">
        <ele>321</ele>
        <time>2022-07-15T08:07:21.000Z</time>
      </trkpt>
      <trkpt lat="49.89486" lon="4.76803">
        <ele>321</ele>
        <time>2022-07-15T08:07:22.000Z</time>
      </trkpt>
      <trkpt lat="49.89485" lon="4.76799">
        <ele>321</ele>
        <time>2022-07-15T08:07:23.000Z</time>
      </trkpt>
      <trkpt lat="49.89484" lon="4.76796">
        <ele>321</ele>
        <time>2022-07-15T08:07:24.000Z</time>
      </trkpt>
      <trkpt lat="49.89484" lon="4.76793">
        <ele>321</ele>
        <time>2022-07-15T08:07:25.000Z</time>
      </trkpt>
      <trkpt lat="49.89483" lon="4.7679">
        <ele>321</ele>
        <time>2022-07-15T08:07:26.000Z</time>
      </trkpt>
      <trkpt lat="49.89483" lon="4.76787">
        <ele>321</ele>
        <time>2022-07-15T08:07:27.000Z</time>
      </trkpt>
      <trkpt lat="49.89483" lon="4.76785">
        <ele>321</ele>
        <time>2022-07-15T08:07:28.000Z</time>
      </trkpt>
      <trkpt lat="49.89483" lon="4.76782">
        <ele>321</ele>
        <time>2022-07-15T08:07:29.000Z</time>
      </trkpt>
      <trkpt lat="49.89482" lon="4.76779">
        <ele>321</ele>
        <time>2022-07-15T08:07:30.000Z</time>
      </trkpt>
      <trkpt lat="49.89481" lon="4.76775">
        <ele>321</ele>
        <time>2022-07-15T08:07:31.000Z</time>
      </trkpt>
      <trkpt lat="49.8948" lon="4.76771">
        <ele>321</ele>
        <time>2022-07-15T08:07:32.000Z</time>
      </trkpt>
      <trkpt lat="49.89479" lon="4.76767">
        <ele>321</ele>
        <time>2022-07-15T08:07:33.000Z</time>
      </trkpt>
      <trkpt lat="49.89479" lon="4.76765">
        <ele>321</ele>
        <time>2022-07-15T08:07:34.000Z</time>
      </trkpt>
      <trkpt lat="49.89479" lon="4.76761">
        <ele>321</ele>
        <time>2022-07-15T08:07:35.000Z</time>
      </trkpt>
      <trkpt lat="49.89479" lon="4.76757">
        <ele>320</ele>
        <time>2022-07-15T08:07:36.000Z</time>
      </trkpt>
      <trkpt lat="49.89479" lon="4.76754">
        <ele>320</ele>
        <time>2022-07-15T08:07:37.000Z</time>
      </trkpt>
      <trkpt lat="49.89478" lon="4.76751">
        <ele>320</ele>
        <time>2022-07-15T08:07:38.000Z</time>
      </trkpt>
      <trkpt lat="49.89477" lon="4.76748">
        <ele>320</ele>
        <time>2022-07-15T08:07:39.000Z</time>
      </trkpt>
      <trkpt lat="49.89477" lon="4.76744">
        <ele>320</ele>
        <time>2022-07-15T08:07:40.000Z</time>
      </trkpt>
      <trkpt lat="49.89475" lon="4.7674">
        <ele>320</ele>
        <time>2022-07-15T08:07:41.000Z</time>
      </trkpt>
      <trkpt lat="49.89474" lon="4.76735">
        <ele>319</ele>
        <time>2022-07-15T08:07:42.000Z</time>
      </trkpt>
      <trkpt lat="49.89473" lon="4.76731">
        <ele>319</ele>
        <time>2022-07-15T08:07:43.000Z</time>
      </trkpt>
      <trkpt lat="49.89472" lon="4.76728">
        <ele>319</ele>
        <time>2022-07-15T08:07:44.000Z</time>
      </trkpt>
      <trkpt lat="49.89472" lon="4.76726">
        <ele>319</ele>
        <time>2022-07-15T08:07:45.000Z</time>
      </trkpt>
      <trkpt lat="49.8947" lon="4.76725">
        <ele>319</ele>
        <time>2022-07-15T08:07:46.000Z</time>
      </trkpt>
      <trkpt lat="49.89468" lon="4.76723">
        <ele>319</ele>
        <time>2022-07-15T08:07:47.000Z</time>
      </trkpt>
      <trkpt lat="49.89465" lon="4.76721">
        <ele>318</ele>
        <time>2022-07-15T08:07:48.000Z</time>
      </trkpt>
      <trkpt lat="49.89462" lon="4.76718">
        <ele>318</ele>
        <time>2022-07-15T08:07:49.000Z</time>
      </trkpt>
      <trkpt lat="49.89459" lon="4.76715">
        <ele>318</ele>
        <time>2022-07-15T08:07:50.000Z</time>
      </trkpt>
      <trkpt lat="49.89457" lon="4.76711">
        <ele>318</ele>
        <time>2022-07-15T08:07:51.000Z</time>
      </trkpt>
      <trkpt lat="49.89455" lon="4.76707">
        <ele>317</ele>
        <time>2022-07-15T08:07:52.000Z</time>
      </trkpt>
      <trkpt lat="49.89453" lon="4.76702">
        <ele>317</ele>
        <time>2022-07-15T08:07:53.000Z</time>
      </trkpt>
      <trkpt lat="49.89451" lon="4.76696">
        <ele>317</ele>
        <time>2022-07-15T08:07:54.000Z</time>
      </trkpt>
      <trkpt lat="49.89451" lon="4.76692">
        <ele>317</ele>
        <time>2022-07-15T08:07:55.000Z</time>
      </trkpt>
      <trkpt lat="49.8945" lon="4.76688">
        <ele>317</ele>
        <time>2022-07-15T08:07:56.000Z</time>
      </trkpt>
      <trkpt lat="49.89448" lon="4.76684">
        <ele>317</ele>
        <time>2022-07-15T08:07:57.000Z</time>
      </trkpt>
      <trkpt lat="49.89446" lon="4.76681">
        <ele>316</ele>
        <time>2022-07-15T08:07:58.000Z</time>
      </trkpt>
      <trkpt lat="49.89444" lon="4.76677">
        <ele>316</ele>
        <time>2022-07-15T08:07:59.000Z</time>
      </trkpt>
      <trkpt lat="49.89442" lon="4.76673">
        <ele>316</ele>
        <time>2022-07-15T08:08:00.000Z</time>
      </trkpt>
      <trkpt lat="49.8944" lon="4.7667">
        <ele>316</ele>
        <time>2022-07-15T08:08:01.000Z</time>
      </trkpt>
      <trkpt lat="49.89438" lon="4.76666">
        <ele>316</ele>
        <time>2022-07-15T08:08:02.000Z</time>
      </trkpt>
      <trkpt lat="49.89436" lon="4.76662">
        <ele>316</ele>
        <time>2022-07-15T08:08:03.000Z</time>
      </trkpt>
      <trkpt lat="49.89434" lon="4.76659">
        <ele>316</ele>
        <time>2022-07-15T08:08:04.000Z</time>
      </trkpt>
      <trkpt lat="49.89433" lon="4.76655">
        <ele>315</ele>
        <time>2022-07-15T08:08:05.000Z</time>
      </trkpt>
      <trkpt lat="49.89431" lon="4.76651">
        <ele>315</ele>
        <time>2022-07-15T08:08:06.000Z</time>
      </trkpt>
      <trkpt lat="49.89429" lon="4.76646">
        <ele>315</ele>
        <time>2022-07-15T08:08:07.000Z</time>
      </trkpt>
      <trkpt lat="49.89427" lon="4.76642">
        <ele>314</ele>
        <time>2022-07-15T08:08:08.000Z</time>
      </trkpt>
      <trkpt lat="49.89426" lon="4.76637">
        <ele>314</ele>
        <time>2022-07-15T08:08:09.000Z</time>
      </trkpt>
      <trkpt lat="49.89425" lon="4.76633">
        <ele>314</ele>
        <time>2022-07-15T08:08:10.000Z</time>
      </trkpt>
      <trkpt lat="49.89424" lon="4.76629">
        <ele>314</ele>
        <time>2022-07-15T08:08:11.000Z</time>
      </trkpt>
      <trkpt lat="49.89423" lon="4.76624">
        <ele>313</ele>
        <time>2022-07-15T08:08:12.000Z</time>
      </trkpt>
      <trkpt lat="49.89422" lon="4.76622">
        <ele>313</ele>
        <time>2022-07-15T08:08:13.000Z</time>
      </trkpt>
      <trkpt lat="49.8942" lon="4.76619">
        <ele>313</ele>
        <time>2022-07-15T08:08:14.000Z</time>
      </trkpt>
      <trkpt lat="49.89418" lon="4.76616">
        <ele>313</ele>
        <time>2022-07-15T08:08:15.000Z</time>
      </trkpt>
      <trkpt lat="49.89417" lon="4.76611">
        <ele>313</ele>
        <time>2022-07-15T08:08:16.000Z</time>
      </trkpt>
      <trkpt lat="49.89416" lon="4.76607">
        <ele>312</ele>
        <time>2022-07-15T08:08:17.000Z</time>
      </trkpt>
      <trkpt lat="49.89416" lon="4.76604">
        <ele>312</ele>
        <time>2022-07-15T08:08:18.000Z</time>
      </trkpt>
      <trkpt lat="49.89416" lon="4.766">
        <ele>312</ele>
        <time>2022-07-15T08:08:19.000Z</time>
      </trkpt>
      <trkpt lat="49.89416" lon="4.76596">
        <ele>312</ele>
        <time>2022-07-15T08:08:20.000Z</time>
      </trkpt>
      <trkpt lat="49.89416" lon="4.76593">
        <ele>312</ele>
        <time>2022-07-15T08:08:21.000Z</time>
      </trkpt>
      <trkpt lat="49.89415" lon="4.76589">
        <ele>311</ele>
        <time>2022-07-15T08:08:22.000Z</time>
      </trkpt>
      <trkpt lat="49.89415" lon="4.76585">
        <ele>311</ele>
        <time>2022-07-15T08:08:23.000Z</time>
      </trkpt>
      <trkpt lat="49.89415" lon="4.76581">
        <ele>311</ele>
        <time>2022-07-15T08:08:24.000Z</time>
      </trkpt>
      <trkpt lat="49.89415" lon="4.76577">
        <ele>311</ele>
        <time>2022-07-15T08:08:25.000Z</time>
      </trkpt>
      <trkpt lat="49.89415" lon="4.76573">
        <ele>310</ele>
        <time>2022-07-15T08:08:26.000Z</time>
      </trkpt>
      <trkpt lat="49.89415" lon="4.76569">
        <ele>310</ele>
        <time>2022-07-15T08:08:27.000Z</time>
      </trkpt>
      <trkpt lat="49.89414" lon="4.76564">
        <ele>310</ele>
        <time>2022-07-15T08:08:28.000Z</time>
      </trkpt>
      <trkpt lat="49.89414" lon="4.7656">
        <ele>309</ele>
        <time>2022-07-15T08:08:29.000Z</time>
      </trkpt>
      <trkpt lat="49.89414" lon="4.76556">
        <ele>309</ele>
        <time>2022-07-15T08:08:30.000Z</time>
      </trkpt>
      <trkpt lat="49.89413" lon="4.76552">
        <ele>309</ele>
        <time>2022-07-15T08:08:31.000Z</time>
      </trkpt>
      <trkpt lat="49.89413" lon="4.76547">
        <ele>309</ele>
        <time>2022-07-15T08:08:32.000Z</time>
      </trkpt>
      <trkpt lat="49.89412" lon="4.76543">
        <ele>309</ele>
        <time>2022-07-15T08:08:33.000Z</time>
      </trkpt>
      <trkpt lat="49.89412" lon="4.76539">
        <ele>308</ele>
        <time>2022-07-15T08:08:34.000Z</time>
      </trkpt>
      <trkpt lat="49.89412" lon="4.76534">
        <ele>308</ele>
        <time>2022-07-15T08:08:35.000Z</time>
      </trkpt>
      <trkpt lat="49.89412" lon="4.7653">
        <ele>308</ele>
        <time>2022-07-15T08:08:36.000Z</time>
      </trkpt>
      <trkpt lat="49.89412" lon="4.76526">
        <ele>308</ele>
        <time>2022-07-15T08:08:37.000Z</time>
      </trkpt>
      <trkpt lat="49.89412" lon="4.76522">
        <ele>308</ele>
        <time>2022-07-15T08:08:38.000Z</time>
      </trkpt>
      <trkpt lat="49.89411" lon="4.76519">
        <ele>307</ele>
        <time>2022-07-15T08:08:39.000Z</time>
      </trkpt>
      <trkpt lat="49.89411" lon="4.76514">
        <ele>307</ele>
        <time>2022-07-15T08:08:40.000Z</time>
      </trkpt>
      <trkpt lat="49.89411" lon="4.7651">
        <ele>307</ele>
        <time>2022-07-15T08:08:41.000Z</time>
      </trkpt>
      <trkpt lat="49.89411" lon="4.76507">
        <ele>307</ele>
        <time>2022-07-15T08:08:42.000Z</time>
      </trkpt>
      <trkpt lat="49.89411" lon="4.76503">
        <ele>307</ele>
        <time>2022-07-15T08:08:43.000Z</time>
      </trkpt>
      <trkpt lat="49.8941" lon="4.76499">
        <ele>307</ele>
        <time>2022-07-15T08:08:44.000Z</time>
      </trkpt>
      <trkpt lat="49.8941" lon="4.76495">
        <ele>307</ele>
        <time>2022-07-15T08:08:45.000Z</time>
      </trkpt>
      <trkpt lat="49.89409" lon="4.76491">
        <ele>307</ele>
        <time>2022-07-15T08:08:46.000Z</time>
      </trkpt>
      <trkpt lat="49.89409" lon="4.76487">
        <ele>307</ele>
        <time>2022-07-15T08:08:47.000Z</time>
      </trkpt>
      <trkpt lat="49.89409" lon="4.76483">
        <ele>306</ele>
        <time>2022-07-15T08:08:48.000Z</time>
      </trkpt>
      <trkpt lat="49.89408" lon="4.76479">
        <ele>306</ele>
        <time>2022-07-15T08:08:49.000Z</time>
      </trkpt>
      <trkpt lat="49.89408" lon="4.76475">
        <ele>306</ele>
        <time>2022-07-15T08:08:50.000Z</time>
      </trkpt>
      <trkpt lat="49.89408" lon="4.76471">
        <ele>306</ele>
        <time>2022-07-15T08:08:51.000Z</time>
      </trkpt>
      <trkpt lat="49.89408" lon="4.76467">
        <ele>306</ele>
        <time>2022-07-15T08:08:52.000Z</time>
      </trkpt>
      <trkpt lat="49.89407" lon="4.76463">
        <ele>306</ele>
        <time>2022-07-15T08:08:53.000Z</time>
      </trkpt>
      <trkpt lat="49.89407" lon="4.76459">
        <ele>306</ele>
        <time>2022-07-15T08:08:54.000Z</time>
      </trkpt>
      <trkpt lat="49.89407" lon="4.76455">
        <ele>306</ele>
        <time>2022-07-15T08:08:55.000Z</time>
      </trkpt>
      <trkpt lat="49.89407" lon="4.7645">
        <ele>306</ele>
        <time>2022-07-15T08:08:56.000Z</time>
      </trkpt>
      <trkpt lat="49.89406" lon="4.76446">
        <ele>306</ele>
        <time>2022-07-15T08:08:57.000Z</time>
      </trkpt>
      <trkpt lat="49.89406" lon="4.76442">
        <ele>305</ele>
        <time>2022-07-15T08:08:58.000Z</time>
      </trkpt>
      <trkpt lat="49.89406" lon="4.76438">
        <ele>305</ele>
        <time>2022-07-15T08:08:59.000Z</time>
      </trkpt>
      <trkpt lat="49.89406" lon="4.76434">
        <ele>305</ele>
        <time>2022-07-15T08:09:00.000Z</time>
      </trkpt>
      <trkpt lat="49.89406" lon="4.7643">
        <ele>305</ele>
        <time>2022-07-15T08:09:01.000Z</time>
      </trkpt>
      <trkpt lat="49.89406" lon="4.76426">
        <ele>305</ele>
        <time>2022-07-15T08:09:02.000Z</time>
      </trkpt>
      <trkpt lat="49.89406" lon="4.76422">
        <ele>305</ele>
        <time>2022-07-15T08:09:03.000Z</time>
      </trkpt>
      <trkpt lat="49.89406" lon="4.76418">
        <ele>305</ele>
        <time>2022-07-15T08:09:04.000Z</time>
      </trkpt>
      <trkpt lat="49.89406" lon="4.76415">
        <ele>306</ele>
        <time>2022-07-15T08:09:05.000Z</time>
      </trkpt>
      <trkpt lat="49.89406" lon="4.76412">
        <ele>306</ele>
        <time>2022-07-15T08:09:06.000Z</time>
      </trkpt>
      <trkpt lat="49.89405" lon="4.76409">
        <ele>306</ele>
        <time>2022-07-15T08:09:07.000Z</time>
      </trkpt>
      <trkpt lat="49.89405" lon="4.76405">
        <ele>305</ele>
        <time>2022-07-15T08:09:08.000Z</time>
      </trkpt>
      <trkpt lat="49.89405" lon="4.76402">
        <ele>305</ele>
        <time>2022-07-15T08:09:09.000Z</time>
      </trkpt>
      <trkpt lat="49.89405" lon="4.76399">
        <ele>305</ele>
        <time>2022-07-15T08:09:10.000Z</time>
      </trkpt>
      <trkpt lat="49.89405" lon="4.76396">
        <ele>305</ele>
        <time>2022-07-15T08:09:11.000Z</time>
      </trkpt>
      <trkpt lat="49.89405" lon="4.76392">
        <ele>305</ele>
        <time>2022-07-15T08:09:12.000Z</time>
      </trkpt>
      <trkpt lat="49.89405" lon="4.76388">
        <ele>305</ele>
        <time>2022-07-15T08:09:13.000Z</time>
      </trkpt>
      <trkpt lat="49.89405" lon="4.76384">
        <ele>305</ele>
        <time>2022-07-15T08:09:14.000Z</time>
      </trkpt>
      <trkpt lat="49.89405" lon="4.76381">
        <ele>305</ele>
        <time>2022-07-15T08:09:15.000Z</time>
      </trkpt>
      <trkpt lat="49.89405" lon="4.76378">
        <ele>305</ele>
        <time>2022-07-15T08:09:16.000Z</time>
      </trkpt>
      <trkpt lat="49.89404" lon="4.76374">
        <ele>305</ele>
        <time>2022-07-15T08:09:17.000Z</time>
      </trkpt>
      <trkpt lat="49.89404" lon="4.7637">
        <ele>305</ele>
        <time>2022-07-15T08:09:18.000Z</time>
      </trkpt>
      <trkpt lat="49.89404" lon="4.76367">
        <ele>305</ele>
        <time>2022-07-15T08:09:19.000Z</time>
      </trkpt>
      <trkpt lat="49.89404" lon="4.76363">
        <ele>305</ele>
        <time>2022-07-15T08:09:20.000Z</time>
      </trkpt>
      <trkpt lat="49.89404" lon="4.7636">
        <ele>305</ele>
        <time>2022-07-15T08:09:21.000Z</time>
      </trkpt>
      <trkpt lat="49.89404" lon="4.76356">
        <ele>305</ele>
        <time>2022-07-15T08:09:22.000Z</time>
      </trkpt>
      <trkpt lat="49.89403" lon="4.76352">
        <ele>305</ele>
        <time>2022-07-15T08:09:23.000Z</time>
      </trkpt>
      <trkpt lat="49.89403" lon="4.76348">
        <ele>305</ele>
        <time>2022-07-15T08:09:24.000Z</time>
      </trkpt>
      <trkpt lat="49.89403" lon="4.76345">
        <ele>305</ele>
        <time>2022-07-15T08:09:25.000Z</time>
      </trkpt>
      <trkpt lat="49.89403" lon="4.76341">
        <ele>305</ele>
        <time>2022-07-15T08:09:26.000Z</time>
      </trkpt>
      <trkpt lat="49.89403" lon="4.76338">
        <ele>305</ele>
        <time>2022-07-15T08:09:27.000Z</time>
      </trkpt>
      <trkpt lat="49.89403" lon="4.76335">
        <ele>305</ele>
        <time>2022-07-15T08:09:28.000Z</time>
      </trkpt>
      <trkpt lat="49.89403" lon="4.76332">
        <ele>305</ele>
        <time>2022-07-15T08:09:29.000Z</time>
      </trkpt>
      <trkpt lat="49.89403" lon="4.76328">
        <ele>305</ele>
        <time>2022-07-15T08:09:30.000Z</time>
      </trkpt>
      <trkpt lat="49.89404" lon="4.76325">
        <ele>305</ele>
        <time>2022-07-15T08:09:31.000Z</time>
      </trkpt>
      <trkpt lat="49.89404" lon="4.76322">
        <ele>305</ele>
        <time>2022-07-15T08:09:32.000Z</time>
      </trkpt>
      <trkpt lat="49.89404" lon="4.76319">
        <ele>305</ele>
        <time>2022-07-15T08:09:33.000Z</time>
      </trkpt>
      <trkpt lat="49.89404" lon="4.76315">
        <ele>306</ele>
        <time>2022-07-15T08:09:34.000Z</time>
      </trkpt>
      <trkpt lat="49.89405" lon="4.76312">
        <ele>306</ele>
        <time>2022-07-15T08:09:35.000Z</time>
      </trkpt>
      <trkpt lat="49.89405" lon="4.76308">
        <ele>306</ele>
        <time>2022-07-15T08:09:36.000Z</time>
      </trkpt>
      <trkpt lat="49.89405" lon="4.76305">
        <ele>306</ele>
        <time>2022-07-15T08:09:37.000Z</time>
      </trkpt>
      <trkpt lat="49.89405" lon="4.76301">
        <ele>306</ele>
        <time>2022-07-15T08:09:38.000Z</time>
      </trkpt>
      <trkpt lat="49.89405" lon="4.76297">
        <ele>306</ele>
        <time>2022-07-15T08:09:39.000Z</time>
      </trkpt>
      <trkpt lat="49.89405" lon="4.76293">
        <ele>306</ele>
        <time>2022-07-15T08:09:40.000Z</time>
      </trkpt>
      <trkpt lat="49.89404" lon="4.76289">
        <ele>306</ele>
        <time>2022-07-15T08:09:41.000Z</time>
      </trkpt>
      <trkpt lat="49.89405" lon="4.76286">
        <ele>307</ele>
        <time>2022-07-15T08:09:42.000Z</time>
      </trkpt>
      <trkpt lat="49.89405" lon="4.76283">
        <ele>307</ele>
        <time>2022-07-15T08:09:43.000Z</time>
      </trkpt>
      <trkpt lat="49.89405" lon="4.76279">
        <ele>307</ele>
        <time>2022-07-15T08:09:44.000Z</time>
      </trkpt>
      <trkpt lat="49.89405" lon="4.76276">
        <ele>307</ele>
        <time>2022-07-15T08:09:45.000Z</time>
      </trkpt>
      <trkpt lat="49.89405" lon="4.76274">
        <ele>307</ele>
        <time>2022-07-15T08:09:46.000Z</time>
      </trkpt>
      <trkpt lat="49.89404" lon="4.76271">
        <ele>307</ele>
        <time>2022-07-15T08:09:47.000Z</time>
      </trkpt>
      <trkpt lat="49.89404" lon="4.76267">
        <ele>307</ele>
        <time>2022-07-15T08:09:48.000Z</time>
      </trkpt>
      <trkpt lat="49.89404" lon="4.76264">
        <ele>308</ele>
        <time>2022-07-15T08:09:49.000Z</time>
      </trkpt>
      <trkpt lat="49.89404" lon="4.7626">
        <ele>308</ele>
        <time>2022-07-15T08:09:50.000Z</time>
      </trkpt>
      <trkpt lat="49.89404" lon="4.76257">
        <ele>308</ele>
        <time>2022-07-15T08:09:51.000Z</time>
      </trkpt>
      <trkpt lat="49.89404" lon="4.76254">
        <ele>308</ele>
        <time>2022-07-15T08:09:52.000Z</time>
      </trkpt>
      <trkpt lat="49.89404" lon="4.7625">
        <ele>309</ele>
        <time>2022-07-15T08:09:53.000Z</time>
      </trkpt>
      <trkpt lat="49.89404" lon="4.76247">
        <ele>309</ele>
        <time>2022-07-15T08:09:54.000Z</time>
      </trkpt>
      <trkpt lat="49.89404" lon="4.76243">
        <ele>309</ele>
        <time>2022-07-15T08:09:55.000Z</time>
      </trkpt>
      <trkpt lat="49.89404" lon="4.7624">
        <ele>309</ele>
        <time>2022-07-15T08:09:56.000Z</time>
      </trkpt>
      <trkpt lat="49.89404" lon="4.76236">
        <ele>309</ele>
        <time>2022-07-15T08:09:57.000Z</time>
      </trkpt>
      <trkpt lat="49.89405" lon="4.76233">
        <ele>310</ele>
        <time>2022-07-15T08:09:58.000Z</time>
      </trkpt>
      <trkpt lat="49.89405" lon="4.7623">
        <ele>310</ele>
        <time>2022-07-15T08:09:59.000Z</time>
      </trkpt>
      <trkpt lat="49.89406" lon="4.76227">
        <ele>310</ele>
        <time>2022-07-15T08:10:00.000Z</time>
      </trkpt>
      <trkpt lat="49.89406" lon="4.76225">
        <ele>310</ele>
        <time>2022-07-15T08:10:01.000Z</time>
      </trkpt>
      <trkpt lat="49.89406" lon="4.76222">
        <ele>310</ele>
        <time>2022-07-15T08:10:02.000Z</time>
      </trkpt>
      <trkpt lat="49.89406" lon="4.7622">
        <ele>310</ele>
        <time>2022-07-15T08:10:03.000Z</time>
      </trkpt>
      <trkpt lat="49.89406" lon="4.76217">
        <ele>310</ele>
        <time>2022-07-15T08:10:04.000Z</time>
      </trkpt>
      <trkpt lat="49.89405" lon="4.76213">
        <ele>310</ele>
        <time>2022-07-15T08:10:05.000Z</time>
      </trkpt>
      <trkpt lat="49.89405" lon="4.7621">
        <ele>311</ele>
        <time>2022-07-15T08:10:06.000Z</time>
      </trkpt>
      <trkpt lat="49.89404" lon="4.76207">
        <ele>311</ele>
        <time>2022-07-15T08:10:07.000Z</time>
      </trkpt>
      <trkpt lat="49.89404" lon="4.76205">
        <ele>311</ele>
        <time>2022-07-15T08:10:08.000Z</time>
      </trkpt>
      <trkpt lat="49.89404" lon="4.76202">
        <ele>311</ele>
        <time>2022-07-15T08:10:09.000Z</time>
      </trkpt>
      <trkpt lat="49.89403" lon="4.76199">
        <ele>312</ele>
        <time>2022-07-15T08:10:10.000Z</time>
      </trkpt>
      <trkpt lat="49.89403" lon="4.76196">
        <ele>312</ele>
        <time>2022-07-15T08:10:11.000Z</time>
      </trkpt>
      <trkpt lat="49.89402" lon="4.76193">
        <ele>312</ele>
        <time>2022-07-15T08:10:12.000Z</time>
      </trkpt>
      <trkpt lat="49.89402" lon="4.7619">
        <ele>312</ele>
        <time>2022-07-15T08:10:13.000Z</time>
      </trkpt>
      <trkpt lat="49.89402" lon="4.76187">
        <ele>313</ele>
        <time>2022-07-15T08:10:14.000Z</time>
      </trkpt>
      <trkpt lat="49.89401" lon="4.76184">
        <ele>313</ele>
        <time>2022-07-15T08:10:15.000Z</time>
      </trkpt>
      <trkpt lat="49.894" lon="4.76181">
        <ele>313</ele>
        <time>2022-07-15T08:10:16.000Z</time>
      </trkpt>
      <trkpt lat="49.894" lon="4.76178">
        <ele>313</ele>
        <time>2022-07-15T08:10:17.000Z</time>
      </trkpt>
      <trkpt lat="49.894" lon="4.76176">
        <ele>313</ele>
        <time>2022-07-15T08:10:18.000Z</time>
      </trkpt>
      <trkpt lat="49.894" lon="4.76173">
        <ele>314</ele>
        <time>2022-07-15T08:10:19.000Z</time>
      </trkpt>
      <trkpt lat="49.894" lon="4.76171">
        <ele>314</ele>
        <time>2022-07-15T08:10:20.000Z</time>
      </trkpt>
      <trkpt lat="49.894" lon="4.76168">
        <ele>314</ele>
        <time>2022-07-15T08:10:21.000Z</time>
      </trkpt>
      <trkpt lat="49.89399" lon="4.76165">
        <ele>314</ele>
        <time>2022-07-15T08:10:22.000Z</time>
      </trkpt>
      <trkpt lat="49.89399" lon="4.76162">
        <ele>314</ele>
        <time>2022-07-15T08:10:23.000Z</time>
      </trkpt>
      <trkpt lat="49.89399" lon="4.76159">
        <ele>315</ele>
        <time>2022-07-15T08:10:24.000Z</time>
      </trkpt>
      <trkpt lat="49.89399" lon="4.76156">
        <ele>315</ele>
        <time>2022-07-15T08:10:25.000Z</time>
      </trkpt>
      <trkpt lat="49.89399" lon="4.76153">
        <ele>315</ele>
        <time>2022-07-15T08:10:26.000Z</time>
      </trkpt>
      <trkpt lat="49.89398" lon="4.7615">
        <ele>316</ele>
        <time>2022-07-15T08:10:27.000Z</time>
      </trkpt>
      <trkpt lat="49.89398" lon="4.76148">
        <ele>316</ele>
        <time>2022-07-15T08:10:28.000Z</time>
      </trkpt>
      <trkpt lat="49.89397" lon="4.76145">
        <ele>316</ele>
        <time>2022-07-15T08:10:29.000Z</time>
      </trkpt>
      <trkpt lat="49.89396" lon="4.76142">
        <ele>316</ele>
        <time>2022-07-15T08:10:30.000Z</time>
      </trkpt>
      <trkpt lat="49.89396" lon="4.7614">
        <ele>316</ele>
        <time>2022-07-15T08:10:31.000Z</time>
      </trkpt>
      <trkpt lat="49.89395" lon="4.76138">
        <ele>316</ele>
        <time>2022-07-15T08:10:32.000Z</time>
      </trkpt>
      <trkpt lat="49.89395" lon="4.76135">
        <ele>317</ele>
        <time>2022-07-15T08:10:33.000Z</time>
      </trkpt>
      <trkpt lat="49.89395" lon="4.76133">
        <ele>317</ele>
        <time>2022-07-15T08:10:34.000Z</time>
      </trkpt>
      <trkpt lat="49.89395" lon="4.7613">
        <ele>317</ele>
        <time>2022-07-15T08:10:35.000Z</time>
      </trkpt>
      <trkpt lat="49.89395" lon="4.76127">
        <ele>317</ele>
        <time>2022-07-15T08:10:36.000Z</time>
      </trkpt>
      <trkpt lat="49.89395" lon="4.76124">
        <ele>318</ele>
        <time>2022-07-15T08:10:37.000Z</time>
      </trkpt>
      <trkpt lat="49.89394" lon="4.76121">
        <ele>318</ele>
        <time>2022-07-15T08:10:38.000Z</time>
      </trkpt>
      <trkpt lat="49.89394" lon="4.76118">
        <ele>318</ele>
        <time>2022-07-15T08:10:39.000Z</time>
      </trkpt>
      <trkpt lat="49.89394" lon="4.76115">
        <ele>318</ele>
        <time>2022-07-15T08:10:40.000Z</time>
      </trkpt>
      <trkpt lat="49.89394" lon="4.76112">
        <ele>319</ele>
        <time>2022-07-15T08:10:41.000Z</time>
      </trkpt>
      <trkpt lat="49.89393" lon="4.76109">
        <ele>319</ele>
        <time>2022-07-15T08:10:42.000Z</time>
      </trkpt>
      <trkpt lat="49.89393" lon="4.76106">
        <ele>319</ele>
        <time>2022-07-15T08:10:43.000Z</time>
      </trkpt>
      <trkpt lat="49.89393" lon="4.76104">
        <ele>320</ele>
        <time>2022-07-15T08:10:44.000Z</time>
      </trkpt>
      <trkpt lat="49.89392" lon="4.76101">
        <ele>320</ele>
        <time>2022-07-15T08:10:45.000Z</time>
      </trkpt>
      <trkpt lat="49.89392" lon="4.76099">
        <ele>320</ele>
        <time>2022-07-15T08:10:46.000Z</time>
      </trkpt>
      <trkpt lat="49.89391" lon="4.76096">
        <ele>321</ele>
        <time>2022-07-15T08:10:47.000Z</time>
      </trkpt>
      <trkpt lat="49.89391" lon="4.76093">
        <ele>321</ele>
        <time>2022-07-15T08:10:48.000Z</time>
      </trkpt>
      <trkpt lat="49.89391" lon="4.7609">
        <ele>321</ele>
        <time>2022-07-15T08:10:49.000Z</time>
      </trkpt>
      <trkpt lat="49.89391" lon="4.76088">
        <ele>321</ele>
        <time>2022-07-15T08:10:50.000Z</time>
      </trkpt>
      <trkpt lat="49.8939" lon="4.76086">
        <ele>322</ele>
        <time>2022-07-15T08:10:51.000Z</time>
      </trkpt>
      <trkpt lat="49.8939" lon="4.76083">
        <ele>322</ele>
        <time>2022-07-15T08:10:52.000Z</time>
      </trkpt>
      <trkpt lat="49.89389" lon="4.76079">
        <ele>322</ele>
        <time>2022-07-15T08:10:53.000Z</time>
      </trkpt>
      <trkpt lat="49.89389" lon="4.76076">
        <ele>323</ele>
        <time>2022-07-15T08:10:54.000Z</time>
      </trkpt>
      <trkpt lat="49.89389" lon="4.76073">
        <ele>323</ele>
        <time>2022-07-15T08:10:55.000Z</time>
      </trkpt>
      <trkpt lat="49.89388" lon="4.7607">
        <ele>323</ele>
        <time>2022-07-15T08:10:56.000Z</time>
      </trkpt>
      <trkpt lat="49.89388" lon="4.76066">
        <ele>323</ele>
        <time>2022-07-15T08:10:57.000Z</time>
      </trkpt>
      <trkpt lat="49.89387" lon="4.76063">
        <ele>323</ele>
        <time>2022-07-15T08:10:58.000Z</time>
      </trkpt>
      <trkpt lat="49.89387" lon="4.76059">
        <ele>324</ele>
        <time>2022-07-15T08:10:59.000Z</time>
      </trkpt>
      <trkpt lat="49.89387" lon="4.76056">
        <ele>324</ele>
        <time>2022-07-15T08:11:00.000Z</time>
      </trkpt>
      <trkpt lat="49.89387" lon="4.76052">
        <ele>324</ele>
        <time>2022-07-15T08:11:01.000Z</time>
      </trkpt>
      <trkpt lat="49.89387" lon="4.76049">
        <ele>324</ele>
        <time>2022-07-15T08:11:02.000Z</time>
      </trkpt>
      <trkpt lat="49.89387" lon="4.76045">
        <ele>324</ele>
        <time>2022-07-15T08:11:03.000Z</time>
      </trkpt>
      <trkpt lat="49.89387" lon="4.76042">
        <ele>324</ele>
        <time>2022-07-15T08:11:04.000Z</time>
      </trkpt>
      <trkpt lat="49.89387" lon="4.76038">
        <ele>324</ele>
        <time>2022-07-15T08:11:05.000Z</time>
      </trkpt>
      <trkpt lat="49.89387" lon="4.76035">
        <ele>324</ele>
        <time>2022-07-15T08:11:06.000Z</time>
      </trkpt>
      <trkpt lat="49.89387" lon="4.76031">
        <ele>324</ele>
        <time>2022-07-15T08:11:07.000Z</time>
      </trkpt>
      <trkpt lat="49.89387" lon="4.76028">
        <ele>324</ele>
        <time>2022-07-15T08:11:08.000Z</time>
      </trkpt>
      <trkpt lat="49.89388" lon="4.76025">
        <ele>324</ele>
        <time>2022-07-15T08:11:09.000Z</time>
      </trkpt>
      <trkpt lat="49.89388" lon="4.76022">
        <ele>324</ele>
        <time>2022-07-15T08:11:10.000Z</time>
      </trkpt>
      <trkpt lat="49.89388" lon="4.76018">
        <ele>325</ele>
        <time>2022-07-15T08:11:11.000Z</time>
      </trkpt>
      <trkpt lat="49.89387" lon="4.76015">
        <ele>325</ele>
        <time>2022-07-15T08:11:12.000Z</time>
      </trkpt>
      <trkpt lat="49.89387" lon="4.76012">
        <ele>325</ele>
        <time>2022-07-15T08:11:13.000Z</time>
      </trkpt>
      <trkpt lat="49.89387" lon="4.76009">
        <ele>325</ele>
        <time>2022-07-15T08:11:14.000Z</time>
      </trkpt>
      <trkpt lat="49.89387" lon="4.76006">
        <ele>325</ele>
        <time>2022-07-15T08:11:15.000Z</time>
      </trkpt>
      <trkpt lat="49.89386" lon="4.76003">
        <ele>325</ele>
        <time>2022-07-15T08:11:16.000Z</time>
      </trkpt>
      <trkpt lat="49.89386" lon="4.76">
        <ele>325</ele>
        <time>2022-07-15T08:11:17.000Z</time>
      </trkpt>
      <trkpt lat="49.89386" lon="4.75997">
        <ele>325</ele>
        <time>2022-07-15T08:11:18.000Z</time>
      </trkpt>
      <trkpt lat="49.89385" lon="4.75994">
        <ele>325</ele>
        <time>2022-07-15T08:11:19.000Z</time>
      </trkpt>
      <trkpt lat="49.89385" lon="4.75991">
        <ele>325</ele>
        <time>2022-07-15T08:11:20.000Z</time>
      </trkpt>
      <trkpt lat="49.89384" lon="4.75988">
        <ele>325</ele>
        <time>2022-07-15T08:11:21.000Z</time>
      </trkpt>
      <trkpt lat="49.89383" lon="4.75985">
        <ele>325</ele>
        <time>2022-07-15T08:11:22.000Z</time>
      </trkpt>
      <trkpt lat="49.89381" lon="4.75982">
        <ele>325</ele>
        <time>2022-07-15T08:11:23.000Z</time>
      </trkpt>
      <trkpt lat="49.89381" lon="4.75979">
        <ele>325</ele>
        <time>2022-07-15T08:11:24.000Z</time>
      </trkpt>
      <trkpt lat="49.8938" lon="4.75976">
        <ele>326</ele>
        <time>2022-07-15T08:11:25.000Z</time>
      </trkpt>
      <trkpt lat="49.89379" lon="4.75973">
        <ele>326</ele>
        <time>2022-07-15T08:11:26.000Z</time>
      </trkpt>
      <trkpt lat="49.89379" lon="4.7597">
        <ele>326</ele>
        <time>2022-07-15T08:11:27.000Z</time>
      </trkpt>
      <trkpt lat="49.89379" lon="4.75967">
        <ele>326</ele>
        <time>2022-07-15T08:11:28.000Z</time>
      </trkpt>
      <trkpt lat="49.8938" lon="4.75964">
        <ele>326</ele>
        <time>2022-07-15T08:11:29.000Z</time>
      </trkpt>
      <trkpt lat="49.89381" lon="4.75962">
        <ele>326</ele>
        <time>2022-07-15T08:11:30.000Z</time>
      </trkpt>
      <trkpt lat="49.89383" lon="4.7596">
        <ele>326</ele>
        <time>2022-07-15T08:11:31.000Z</time>
      </trkpt>
      <trkpt lat="49.89385" lon="4.7596">
        <ele>327</ele>
        <time>2022-07-15T08:11:32.000Z</time>
      </trkpt>
      <trkpt lat="49.89386" lon="4.7596">
        <ele>327</ele>
        <time>2022-07-15T08:11:33.000Z</time>
      </trkpt>
      <trkpt lat="49.89388" lon="4.75961">
        <ele>327</ele>
        <time>2022-07-15T08:11:34.000Z</time>
      </trkpt>
      <trkpt lat="49.89389" lon="4.75962">
        <ele>327</ele>
        <time>2022-07-15T08:11:35.000Z</time>
      </trkpt>
      <trkpt lat="49.8939" lon="4.75962">
        <ele>328</ele>
        <time>2022-07-15T08:11:36.000Z</time>
      </trkpt>
      <trkpt lat="49.89391" lon="4.75963">
        <ele>328</ele>
        <time>2022-07-15T08:11:37.000Z</time>
      </trkpt>
      <trkpt lat="49.89392" lon="4.75964">
        <ele>328</ele>
        <time>2022-07-15T08:11:38.000Z</time>
      </trkpt>
      <trkpt lat="49.89393" lon="4.75966">
        <ele>328</ele>
        <time>2022-07-15T08:11:39.000Z</time>
      </trkpt>
      <trkpt lat="49.89394" lon="4.75967">
        <ele>329</ele>
        <time>2022-07-15T08:11:40.000Z</time>
      </trkpt>
      <trkpt lat="49.89395" lon="4.75968">
        <ele>329</ele>
        <time>2022-07-15T08:11:41.000Z</time>
      </trkpt>
      <trkpt lat="49.89396" lon="4.7597">
        <ele>329</ele>
        <time>2022-07-15T08:11:42.000Z</time>
      </trkpt>
      <trkpt lat="49.89398" lon="4.75972">
        <ele>330</ele>
        <time>2022-07-15T08:11:43.000Z</time>
      </trkpt>
      <trkpt lat="49.89399" lon="4.75973">
        <ele>330</ele>
        <time>2022-07-15T08:11:44.000Z</time>
      </trkpt>
      <trkpt lat="49.894" lon="4.75975">
        <ele>331</ele>
        <time>2022-07-15T08:11:45.000Z</time>
      </trkpt>
      <trkpt lat="49.89401" lon="4.75977">
        <ele>331</ele>
        <time>2022-07-15T08:11:46.000Z</time>
      </trkpt>
      <trkpt lat="49.89403" lon="4.75979">
        <ele>331</ele>
        <time>2022-07-15T08:11:47.000Z</time>
      </trkpt>
      <trkpt lat="49.89404" lon="4.75981">
        <ele>331</ele>
        <time>2022-07-15T08:11:48.000Z</time>
      </trkpt>
      <trkpt lat="49.89406" lon="4.75982">
        <ele>332</ele>
        <time>2022-07-15T08:11:49.000Z</time>
      </trkpt>
      <trkpt lat="49.89407" lon="4.75984">
        <ele>332</ele>
        <time>2022-07-15T08:11:50.000Z</time>
      </trkpt>
      <trkpt lat="49.89408" lon="4.75986">
        <ele>332</ele>
        <time>2022-07-15T08:11:51.000Z</time>
      </trkpt>
      <trkpt lat="49.89409" lon="4.75987">
        <ele>332</ele>
        <time>2022-07-15T08:11:52.000Z</time>
      </trkpt>
      <trkpt lat="49.89411" lon="4.75988">
        <ele>333</ele>
        <time>2022-07-15T08:11:53.000Z</time>
      </trkpt>
      <trkpt lat="49.89412" lon="4.7599">
        <ele>333</ele>
        <time>2022-07-15T08:11:54.000Z</time>
      </trkpt>
      <trkpt lat="49.89414" lon="4.75991">
        <ele>333</ele>
        <time>2022-07-15T08:11:55.000Z</time>
      </trkpt>
      <trkpt lat="49.89416" lon="4.75993">
        <ele>333</ele>
        <time>2022-07-15T08:11:56.000Z</time>
      </trkpt>
      <trkpt lat="49.89418" lon="4.75994">
        <ele>333</ele>
        <time>2022-07-15T08:11:57.000Z</time>
      </trkpt>
      <trkpt lat="49.8942" lon="4.75996">
        <ele>334</ele>
        <time>2022-07-15T08:11:58.000Z</time>
      </trkpt>
      <trkpt lat="49.89421" lon="4.75997">
        <ele>334</ele>
        <time>2022-07-15T08:11:59.000Z</time>
      </trkpt>
      <trkpt lat="49.89423" lon="4.75998">
        <ele>334</ele>
        <time>2022-07-15T08:12:00.000Z</time>
      </trkpt>
      <trkpt lat="49.89424" lon="4.75998">
        <ele>335</ele>
        <time>2022-07-15T08:12:01.000Z</time>
      </trkpt>
      <trkpt lat="49.89425" lon="4.75999">
        <ele>335</ele>
        <time>2022-07-15T08:12:02.000Z</time>
      </trkpt>
      <trkpt lat="49.89427" lon="4.76001">
        <ele>335</ele>
        <time>2022-07-15T08:12:03.000Z</time>
      </trkpt>
      <trkpt lat="49.89428" lon="4.76002">
        <ele>336</ele>
        <time>2022-07-15T08:12:04.000Z</time>
      </trkpt>
      <trkpt lat="49.89431" lon="4.76003">
        <ele>336</ele>
        <time>2022-07-15T08:12:05.000Z</time>
      </trkpt>
      <trkpt lat="49.89433" lon="4.76005">
        <ele>337</ele>
        <time>2022-07-15T08:12:06.000Z</time>
      </trkpt>
      <trkpt lat="49.89435" lon="4.76007">
        <ele>337</ele>
        <time>2022-07-15T08:12:07.000Z</time>
      </trkpt>
      <trkpt lat="49.89436" lon="4.76009">
        <ele>337</ele>
        <time>2022-07-15T08:12:08.000Z</time>
      </trkpt>
      <trkpt lat="49.89438" lon="4.76012">
        <ele>338</ele>
        <time>2022-07-15T08:12:09.000Z</time>
      </trkpt>
      <trkpt lat="49.8944" lon="4.76015">
        <ele>338</ele>
        <time>2022-07-15T08:12:10.000Z</time>
      </trkpt>
      <trkpt lat="49.89442" lon="4.76017">
        <ele>338</ele>
        <time>2022-07-15T08:12:11.000Z</time>
      </trkpt>
      <trkpt lat="49.89443" lon="4.7602">
        <ele>338</ele>
        <time>2022-07-15T08:12:12.000Z</time>
      </trkpt>
      <trkpt lat="49.89445" lon="4.76023">
        <ele>339</ele>
        <time>2022-07-15T08:12:13.000Z</time>
      </trkpt>
      <trkpt lat="49.89446" lon="4.76026">
        <ele>339</ele>
        <time>2022-07-15T08:12:14.000Z</time>
      </trkpt>
      <trkpt lat="49.89448" lon="4.76029">
        <ele>339</ele>
        <time>2022-07-15T08:12:15.000Z</time>
      </trkpt>
      <trkpt lat="49.89449" lon="4.76031">
        <ele>339</ele>
        <time>2022-07-15T08:12:16.000Z</time>
      </trkpt>
      <trkpt lat="49.8945" lon="4.76034">
        <ele>340</ele>
        <time>2022-07-15T08:12:17.000Z</time>
      </trkpt>
      <trkpt lat="49.89451" lon="4.76036">
        <ele>340</ele>
        <time>2022-07-15T08:12:18.000Z</time>
      </trkpt>
      <trkpt lat="49.89452" lon="4.76038">
        <ele>340</ele>
        <time>2022-07-15T08:12:19.000Z</time>
      </trkpt>
      <trkpt lat="49.89454" lon="4.76041">
        <ele>340</ele>
        <time>2022-07-15T08:12:20.000Z</time>
      </trkpt>
      <trkpt lat="49.89455" lon="4.76044">
        <ele>340</ele>
        <time>2022-07-15T08:12:21.000Z</time>
      </trkpt>
      <trkpt lat="49.89456" lon="4.76047">
        <ele>341</ele>
        <time>2022-07-15T08:12:22.000Z</time>
      </trkpt>
      <trkpt lat="49.89457" lon="4.76049">
        <ele>341</ele>
        <time>2022-07-15T08:12:23.000Z</time>
      </trkpt>
      <trkpt lat="49.89459" lon="4.76052">
        <ele>341</ele>
        <time>2022-07-15T08:12:24.000Z</time>
      </trkpt>
      <trkpt lat="49.89462" lon="4.76053">
        <ele>341</ele>
        <time>2022-07-15T08:12:25.000Z</time>
      </trkpt>
      <trkpt lat="49.89463" lon="4.76055">
        <ele>341</ele>
        <time>2022-07-15T08:12:26.000Z</time>
      </trkpt>
      <trkpt lat="49.89465" lon="4.76055">
        <ele>342</ele>
        <time>2022-07-15T08:12:27.000Z</time>
      </trkpt>
      <trkpt lat="49.89466" lon="4.76055">
        <ele>342</ele>
        <time>2022-07-15T08:12:28.000Z</time>
      </trkpt>
      <trkpt lat="49.89468" lon="4.76053">
        <ele>342</ele>
        <time>2022-07-15T08:12:29.000Z</time>
      </trkpt>
      <trkpt lat="49.89469" lon="4.76051">
        <ele>342</ele>
        <time>2022-07-15T08:12:30.000Z</time>
      </trkpt>
      <trkpt lat="49.8947" lon="4.76049">
        <ele>342</ele>
        <time>2022-07-15T08:12:31.000Z</time>
      </trkpt>
      <trkpt lat="49.89471" lon="4.76048">
        <ele>342</ele>
        <time>2022-07-15T08:12:32.000Z</time>
      </trkpt>
      <trkpt lat="49.89471" lon="4.76046">
        <ele>342</ele>
        <time>2022-07-15T08:12:33.000Z</time>
      </trkpt>
      <trkpt lat="49.89471" lon="4.76043">
        <ele>342</ele>
        <time>2022-07-15T08:12:34.000Z</time>
      </trkpt>
      <trkpt lat="49.89471" lon="4.7604">
        <ele>343</ele>
        <time>2022-07-15T08:12:35.000Z</time>
      </trkpt>
      <trkpt lat="49.8947" lon="4.76037">
        <ele>343</ele>
        <time>2022-07-15T08:12:36.000Z</time>
      </trkpt>
      <trkpt lat="49.8947" lon="4.76035">
        <ele>343</ele>
        <time>2022-07-15T08:12:37.000Z</time>
      </trkpt>
      <trkpt lat="49.8947" lon="4.76033">
        <ele>343</ele>
        <time>2022-07-15T08:12:38.000Z</time>
      </trkpt>
      <trkpt lat="49.89469" lon="4.7603">
        <ele>344</ele>
        <time>2022-07-15T08:12:39.000Z</time>
      </trkpt>
      <trkpt lat="49.89468" lon="4.76027">
        <ele>344</ele>
        <time>2022-07-15T08:12:40.000Z</time>
      </trkpt>
      <trkpt lat="49.89467" lon="4.76024">
        <ele>344</ele>
        <time>2022-07-15T08:12:41.000Z</time>
      </trkpt>
      <trkpt lat="49.89465" lon="4.76021">
        <ele>344</ele>
        <time>2022-07-15T08:12:42.000Z</time>
      </trkpt>
      <trkpt lat="49.89464" lon="4.76018">
        <ele>345</ele>
        <time>2022-07-15T08:12:43.000Z</time>
      </trkpt>
      <trkpt lat="49.89463" lon="4.76015">
        <ele>345</ele>
        <time>2022-07-15T08:12:44.000Z</time>
      </trkpt>
      <trkpt lat="49.89461" lon="4.76013">
        <ele>345</ele>
        <time>2022-07-15T08:12:45.000Z</time>
      </trkpt>
      <trkpt lat="49.8946" lon="4.7601">
        <ele>345</ele>
        <time>2022-07-15T08:12:46.000Z</time>
      </trkpt>
      <trkpt lat="49.89458" lon="4.76008">
        <ele>346</ele>
        <time>2022-07-15T08:12:47.000Z</time>
      </trkpt>
      <trkpt lat="49.89456" lon="4.76006">
        <ele>346</ele>
        <time>2022-07-15T08:12:48.000Z</time>
      </trkpt>
      <trkpt lat="49.89455" lon="4.76003">
        <ele>346</ele>
        <time>2022-07-15T08:12:49.000Z</time>
      </trkpt>
      <trkpt lat="49.89453" lon="4.76001">
        <ele>346</ele>
        <time>2022-07-15T08:12:50.000Z</time>
      </trkpt>
      <trkpt lat="49.89452" lon="4.75998">
        <ele>347</ele>
        <time>2022-07-15T08:12:51.000Z</time>
      </trkpt>
      <trkpt lat="49.8945" lon="4.75996">
        <ele>347</ele>
        <time>2022-07-15T08:12:52.000Z</time>
      </trkpt>
      <trkpt lat="49.89449" lon="4.75993">
        <ele>347</ele>
        <time>2022-07-15T08:12:53.000Z</time>
      </trkpt>
      <trkpt lat="49.89448" lon="4.7599">
        <ele>347</ele>
        <time>2022-07-15T08:12:54.000Z</time>
      </trkpt>
      <trkpt lat="49.89446" lon="4.75987">
        <ele>347</ele>
        <time>2022-07-15T08:12:55.000Z</time>
      </trkpt>
      <trkpt lat="49.89445" lon="4.75985">
        <ele>347</ele>
        <time>2022-07-15T08:12:56.000Z</time>
      </trkpt>
      <trkpt lat="49.89444" lon="4.75982">
        <ele>348</ele>
        <time>2022-07-15T08:12:57.000Z</time>
      </trkpt>
      <trkpt lat="49.89443" lon="4.75979">
        <ele>348</ele>
        <time>2022-07-15T08:12:58.000Z</time>
      </trkpt>
      <trkpt lat="49.89442" lon="4.75977">
        <ele>348</ele>
        <time>2022-07-15T08:12:59.000Z</time>
      </trkpt>
      <trkpt lat="49.89441" lon="4.75974">
        <ele>348</ele>
        <time>2022-07-15T08:13:00.000Z</time>
      </trkpt>
      <trkpt lat="49.8944" lon="4.75971">
        <ele>348</ele>
        <time>2022-07-15T08:13:01.000Z</time>
      </trkpt>
      <trkpt lat="49.89439" lon="4.75969">
        <ele>349</ele>
        <time>2022-07-15T08:13:02.000Z</time>
      </trkpt>
      <trkpt lat="49.89438" lon="4.75966">
        <ele>349</ele>
        <time>2022-07-15T08:13:03.000Z</time>
      </trkpt>
      <trkpt lat="49.89437" lon="4.75963">
        <ele>349</ele>
        <time>2022-07-15T08:13:04.000Z</time>
      </trkpt>
      <trkpt lat="49.89436" lon="4.75961">
        <ele>349</ele>
        <time>2022-07-15T08:13:05.000Z</time>
      </trkpt>
      <trkpt lat="49.89435" lon="4.75958">
        <ele>349</ele>
        <time>2022-07-15T08:13:06.000Z</time>
      </trkpt>
      <trkpt lat="49.89434" lon="4.75955">
        <ele>349</ele>
        <time>2022-07-15T08:13:07.000Z</time>
      </trkpt>
      <trkpt lat="49.89434" lon="4.75952">
        <ele>349</ele>
        <time>2022-07-15T08:13:08.000Z</time>
      </trkpt>
      <trkpt lat="49.89433" lon="4.7595">
        <ele>349</ele>
        <time>2022-07-15T08:13:09.000Z</time>
      </trkpt>
      <trkpt lat="49.89432" lon="4.75947">
        <ele>349</ele>
        <time>2022-07-15T08:13:10.000Z</time>
      </trkpt>
      <trkpt lat="49.89431" lon="4.75945">
        <ele>350</ele>
        <time>2022-07-15T08:13:11.000Z</time>
      </trkpt>
      <trkpt lat="49.89431" lon="4.75943">
        <ele>350</ele>
        <time>2022-07-15T08:13:12.000Z</time>
      </trkpt>
      <trkpt lat="49.89429" lon="4.7594">
        <ele>350</ele>
        <time>2022-07-15T08:13:13.000Z</time>
      </trkpt>
      <trkpt lat="49.89428" lon="4.75937">
        <ele>350</ele>
        <time>2022-07-15T08:13:14.000Z</time>
      </trkpt>
      <trkpt lat="49.89427" lon="4.75935">
        <ele>350</ele>
        <time>2022-07-15T08:13:15.000Z</time>
      </trkpt>
      <trkpt lat="49.89427" lon="4.75932">
        <ele>350</ele>
        <time>2022-07-15T08:13:16.000Z</time>
      </trkpt>
      <trkpt lat="49.89426" lon="4.7593">
        <ele>351</ele>
        <time>2022-07-15T08:13:17.000Z</time>
      </trkpt>
      <trkpt lat="49.89425" lon="4.75928">
        <ele>351</ele>
        <time>2022-07-15T08:13:18.000Z</time>
      </trkpt>
      <trkpt lat="49.89425" lon="4.75926">
        <ele>351</ele>
        <time>2022-07-15T08:13:19.000Z</time>
      </trkpt>
      <trkpt lat="49.89424" lon="4.75924">
        <ele>351</ele>
        <time>2022-07-15T08:13:20.000Z</time>
      </trkpt>
      <trkpt lat="49.89423" lon="4.75922">
        <ele>351</ele>
        <time>2022-07-15T08:13:21.000Z</time>
      </trkpt>
      <trkpt lat="49.89422" lon="4.7592">
        <ele>352</ele>
        <time>2022-07-15T08:13:22.000Z</time>
      </trkpt>
      <trkpt lat="49.89422" lon="4.75918">
        <ele>352</ele>
        <time>2022-07-15T08:13:23.000Z</time>
      </trkpt>
      <trkpt lat="49.89421" lon="4.75916">
        <ele>352</ele>
        <time>2022-07-15T08:13:24.000Z</time>
      </trkpt>
      <trkpt lat="49.89421" lon="4.75913">
        <ele>352</ele>
        <time>2022-07-15T08:13:25.000Z</time>
      </trkpt>
      <trkpt lat="49.8942" lon="4.75911">
        <ele>352</ele>
        <time>2022-07-15T08:13:26.000Z</time>
      </trkpt>
      <trkpt lat="49.89419" lon="4.75908">
        <ele>352</ele>
        <time>2022-07-15T08:13:27.000Z</time>
      </trkpt>
      <trkpt lat="49.89418" lon="4.75906">
        <ele>352</ele>
        <time>2022-07-15T08:13:28.000Z</time>
      </trkpt>
      <trkpt lat="49.89417" lon="4.75904">
        <ele>352</ele>
        <time>2022-07-15T08:13:29.000Z</time>
      </trkpt>
      <trkpt lat="49.89416" lon="4.75902">
        <ele>352</ele>
        <time>2022-07-15T08:13:30.000Z</time>
      </trkpt>
      <trkpt lat="49.89415" lon="4.75899">
        <ele>352</ele>
        <time>2022-07-15T08:13:31.000Z</time>
      </trkpt>
      <trkpt lat="49.89414" lon="4.75897">
        <ele>352</ele>
        <time>2022-07-15T08:13:32.000Z</time>
      </trkpt>
      <trkpt lat="49.89413" lon="4.75895">
        <ele>352</ele>
        <time>2022-07-15T08:13:33.000Z</time>
      </trkpt>
      <trkpt lat="49.89412" lon="4.75892">
        <ele>353</ele>
        <time>2022-07-15T08:13:34.000Z</time>
      </trkpt>
      <trkpt lat="49.89411" lon="4.7589">
        <ele>353</ele>
        <time>2022-07-15T08:13:35.000Z</time>
      </trkpt>
      <trkpt lat="49.8941" lon="4.75887">
        <ele>353</ele>
        <time>2022-07-15T08:13:36.000Z</time>
      </trkpt>
      <trkpt lat="49.89409" lon="4.75885">
        <ele>353</ele>
        <time>2022-07-15T08:13:37.000Z</time>
      </trkpt>
      <trkpt lat="49.89408" lon="4.75883">
        <ele>353</ele>
        <time>2022-07-15T08:13:38.000Z</time>
      </trkpt>
      <trkpt lat="49.89407" lon="4.75881">
        <ele>353</ele>
        <time>2022-07-15T08:13:39.000Z</time>
      </trkpt>
      <trkpt lat="49.89406" lon="4.75879">
        <ele>353</ele>
        <time>2022-07-15T08:13:40.000Z</time>
      </trkpt>
      <trkpt lat="49.89405" lon="4.75877">
        <ele>353</ele>
        <time>2022-07-15T08:13:41.000Z</time>
      </trkpt>
      <trkpt lat="49.89403" lon="4.75875">
        <ele>353</ele>
        <time>2022-07-15T08:13:42.000Z</time>
      </trkpt>
      <trkpt lat="49.89402" lon="4.75873">
        <ele>353</ele>
        <time>2022-07-15T08:13:43.000Z</time>
      </trkpt>
      <trkpt lat="49.894" lon="4.75871">
        <ele>353</ele>
        <time>2022-07-15T08:13:44.000Z</time>
      </trkpt>
      <trkpt lat="49.89398" lon="4.7587">
        <ele>353</ele>
        <time>2022-07-15T08:13:45.000Z</time>
      </trkpt>
      <trkpt lat="49.89395" lon="4.75869">
        <ele>353</ele>
        <time>2022-07-15T08:13:46.000Z</time>
      </trkpt>
      <trkpt lat="49.89392" lon="4.75868">
        <ele>353</ele>
        <time>2022-07-15T08:13:47.000Z</time>
      </trkpt>
      <trkpt lat="49.89389" lon="4.75866">
        <ele>353</ele>
        <time>2022-07-15T08:13:48.000Z</time>
      </trkpt>
      <trkpt lat="49.89386" lon="4.75863">
        <ele>353</ele>
        <time>2022-07-15T08:13:49.000Z</time>
      </trkpt>
      <trkpt lat="49.89383" lon="4.7586">
        <ele>353</ele>
        <time>2022-07-15T08:13:50.000Z</time>
      </trkpt>
      <trkpt lat="49.89381" lon="4.75855">
        <ele>353</ele>
        <time>2022-07-15T08:13:51.000Z</time>
      </trkpt>
      <trkpt lat="49.89378" lon="4.7585">
        <ele>353</ele>
        <time>2022-07-15T08:13:52.000Z</time>
      </trkpt>
      <trkpt lat="49.89376" lon="4.75845">
        <ele>353</ele>
        <time>2022-07-15T08:13:53.000Z</time>
      </trkpt>
      <trkpt lat="49.89374" lon="4.7584">
        <ele>353</ele>
        <time>2022-07-15T08:13:54.000Z</time>
      </trkpt>
      <trkpt lat="49.89372" lon="4.75836">
        <ele>353</ele>
        <time>2022-07-15T08:13:55.000Z</time>
      </trkpt>
      <trkpt lat="49.8937" lon="4.75832">
        <ele>353</ele>
        <time>2022-07-15T08:13:56.000Z</time>
      </trkpt>
      <trkpt lat="49.89368" lon="4.75827">
        <ele>353</ele>
        <time>2022-07-15T08:13:57.000Z</time>
      </trkpt>
      <trkpt lat="49.89367" lon="4.75822">
        <ele>353</ele>
        <time>2022-07-15T08:13:58.000Z</time>
      </trkpt>
      <trkpt lat="49.89365" lon="4.75818">
        <ele>353</ele>
        <time>2022-07-15T08:13:59.000Z</time>
      </trkpt>
      <trkpt lat="49.89364" lon="4.75813">
        <ele>353</ele>
        <time>2022-07-15T08:14:00.000Z</time>
      </trkpt>
      <trkpt lat="49.89364" lon="4.75809">
        <ele>353</ele>
        <time>2022-07-15T08:14:01.000Z</time>
      </trkpt>
      <trkpt lat="49.89364" lon="4.75805">
        <ele>353</ele>
        <time>2022-07-15T08:14:02.000Z</time>
      </trkpt>
      <trkpt lat="49.89363" lon="4.75801">
        <ele>352</ele>
        <time>2022-07-15T08:14:03.000Z</time>
      </trkpt>
      <trkpt lat="49.89362" lon="4.75797">
        <ele>352</ele>
        <time>2022-07-15T08:14:04.000Z</time>
      </trkpt>
      <trkpt lat="49.89362" lon="4.75792">
        <ele>352</ele>
        <time>2022-07-15T08:14:05.000Z</time>
      </trkpt>
      <trkpt lat="49.8936" lon="4.75788">
        <ele>352</ele>
        <time>2022-07-15T08:14:06.000Z</time>
      </trkpt>
      <trkpt lat="49.89359" lon="4.75783">
        <ele>352</ele>
        <time>2022-07-15T08:14:07.000Z</time>
      </trkpt>
      <trkpt lat="49.89358" lon="4.75778">
        <ele>352</ele>
        <time>2022-07-15T08:14:08.000Z</time>
      </trkpt>
      <trkpt lat="49.89357" lon="4.75772">
        <ele>352</ele>
        <time>2022-07-15T08:14:09.000Z</time>
      </trkpt>
      <trkpt lat="49.89357" lon="4.75766">
        <ele>351</ele>
        <time>2022-07-15T08:14:10.000Z</time>
      </trkpt>
      <trkpt lat="49.89356" lon="4.7576">
        <ele>351</ele>
        <time>2022-07-15T08:14:11.000Z</time>
      </trkpt>
      <trkpt lat="49.89356" lon="4.75755">
        <ele>351</ele>
        <time>2022-07-15T08:14:12.000Z</time>
      </trkpt>
      <trkpt lat="49.89355" lon="4.7575">
        <ele>351</ele>
        <time>2022-07-15T08:14:13.000Z</time>
      </trkpt>
      <trkpt lat="49.89354" lon="4.75744">
        <ele>351</ele>
        <time>2022-07-15T08:14:14.000Z</time>
      </trkpt>
      <trkpt lat="49.89353" lon="4.75738">
        <ele>350</ele>
        <time>2022-07-15T08:14:15.000Z</time>
      </trkpt>
      <trkpt lat="49.89352" lon="4.75732">
        <ele>350</ele>
        <time>2022-07-15T08:14:16.000Z</time>
      </trkpt>
      <trkpt lat="49.89351" lon="4.75726">
        <ele>350</ele>
        <time>2022-07-15T08:14:17.000Z</time>
      </trkpt>
      <trkpt lat="49.8935" lon="4.7572">
        <ele>350</ele>
        <time>2022-07-15T08:14:18.000Z</time>
      </trkpt>
      <trkpt lat="49.8935" lon="4.75715">
        <ele>350</ele>
        <time>2022-07-15T08:14:19.000Z</time>
      </trkpt>
      <trkpt lat="49.89349" lon="4.75708">
        <ele>350</ele>
        <time>2022-07-15T08:14:20.000Z</time>
      </trkpt>
      <trkpt lat="49.89349" lon="4.75702">
        <ele>349</ele>
        <time>2022-07-15T08:14:21.000Z</time>
      </trkpt>
      <trkpt lat="49.89349" lon="4.75697">
        <ele>349</ele>
        <time>2022-07-15T08:14:22.000Z</time>
      </trkpt>
      <trkpt lat="49.8935" lon="4.75693">
        <ele>349</ele>
        <time>2022-07-15T08:14:23.000Z</time>
      </trkpt>
      <trkpt lat="49.8935" lon="4.75692">
        <ele>348</ele>
        <time>2022-07-15T08:14:24.000Z</time>
      </trkpt>
      <trkpt lat="49.89348" lon="4.7569">
        <ele>348</ele>
        <time>2022-07-15T08:14:25.000Z</time>
      </trkpt>
      <trkpt lat="49.89347" lon="4.75689">
        <ele>348</ele>
        <time>2022-07-15T08:14:26.000Z</time>
      </trkpt>
      <trkpt lat="49.89346" lon="4.75688">
        <ele>348</ele>
        <time>2022-07-15T08:14:27.000Z</time>
      </trkpt>
      <trkpt lat="49.89346" lon="4.75688">
        <ele>348</ele>
        <time>2022-07-15T08:14:28.000Z</time>
      </trkpt>
      <trkpt lat="49.89346" lon="4.75687">
        <ele>348</ele>
        <time>2022-07-15T08:14:29.000Z</time>
      </trkpt>
      <trkpt lat="49.89346" lon="4.75687">
        <ele>348</ele>
        <time>2022-07-15T08:14:30.000Z</time>
      </trkpt>
      <trkpt lat="49.89346" lon="4.75687">
        <ele>348</ele>
        <time>2022-07-15T08:14:31.000Z</time>
      </trkpt>
      <trkpt lat="49.89346" lon="4.75687">
        <ele>348</ele>
        <time>2022-07-15T08:14:32.000Z</time>
      </trkpt>
      <trkpt lat="49.89346" lon="4.75688">
        <ele>348</ele>
        <time>2022-07-15T08:14:33.000Z</time>
      </trkpt>
      <trkpt lat="49.89346" lon="4.75688">
        <ele>348</ele>
        <time>2022-07-15T08:14:34.000Z</time>
      </trkpt>
      <trkpt lat="49.89346" lon="4.75689">
        <ele>348</ele>
        <time>2022-07-15T08:14:35.000Z</time>
      </trkpt>
      <trkpt lat="49.89346" lon="4.75691">
        <ele>348</ele>
        <time>2022-07-15T08:14:36.000Z</time>
      </trkpt>
      <trkpt lat="49.89347" lon="4.75692">
        <ele>348</ele>
        <time>2022-07-15T08:14:37.000Z</time>
      </trkpt>
      <trkpt lat="49.89347" lon="4.75692">
        <ele>348</ele>
        <time>2022-07-15T08:14:38.000Z</time>
      </trkpt>
      <trkpt lat="49.89348" lon="4.75691">
        <ele>348</ele>
        <time>2022-07-15T08:14:39.000Z</time>
      </trkpt>
      <trkpt lat="49.89349" lon="4.7569">
        <ele>348</ele>
        <time>2022-07-15T08:14:40.000Z</time>
      </trkpt>
      <trkpt lat="49.89349" lon="4.75687">
        <ele>349</ele>
        <time>2022-07-15T08:14:41.000Z</time>
      </trkpt>
      <trkpt lat="49.89349" lon="4.75685">
        <ele>349</ele>
        <time>2022-07-15T08:14:42.000Z</time>
      </trkpt>
      <trkpt lat="49.8935" lon="4.75682">
        <ele>349</ele>
        <time>2022-07-15T08:14:43.000Z</time>
      </trkpt>
      <trkpt lat="49.8935" lon="4.75679">
        <ele>349</ele>
        <time>2022-07-15T08:14:44.000Z</time>
      </trkpt>
      <trkpt lat="49.8935" lon="4.75676">
        <ele>349</ele>
        <time>2022-07-15T08:14:45.000Z</time>
      </trkpt>
      <trkpt lat="49.89351" lon="4.75673">
        <ele>349</ele>
        <time>2022-07-15T08:14:46.000Z</time>
      </trkpt>
      <trkpt lat="49.89351" lon="4.75671">
        <ele>348</ele>
        <time>2022-07-15T08:14:47.000Z</time>
      </trkpt>
      <trkpt lat="49.89352" lon="4.75669">
        <ele>348</ele>
        <time>2022-07-15T08:14:48.000Z</time>
      </trkpt>
      <trkpt lat="49.89352" lon="4.75667">
        <ele>348</ele>
        <time>2022-07-15T08:14:49.000Z</time>
      </trkpt>
      <trkpt lat="49.89352" lon="4.75664">
        <ele>348</ele>
        <time>2022-07-15T08:14:50.000Z</time>
      </trkpt>
      <trkpt lat="49.89352" lon="4.75661">
        <ele>348</ele>
        <time>2022-07-15T08:14:51.000Z</time>
      </trkpt>
      <trkpt lat="49.89352" lon="4.75658">
        <ele>347</ele>
        <time>2022-07-15T08:14:52.000Z</time>
      </trkpt>
      <trkpt lat="49.89353" lon="4.75654">
        <ele>347</ele>
        <time>2022-07-15T08:14:53.000Z</time>
      </trkpt>
      <trkpt lat="49.89354" lon="4.75651">
        <ele>347</ele>
        <time>2022-07-15T08:14:54.000Z</time>
      </trkpt>
      <trkpt lat="49.89354" lon="4.75647">
        <ele>347</ele>
        <time>2022-07-15T08:14:55.000Z</time>
      </trkpt>
      <trkpt lat="49.89355" lon="4.75643">
        <ele>347</ele>
        <time>2022-07-15T08:14:56.000Z</time>
      </trkpt>
      <trkpt lat="49.89355" lon="4.75639">
        <ele>346</ele>
        <time>2022-07-15T08:14:57.000Z</time>
      </trkpt>
      <trkpt lat="49.89355" lon="4.75636">
        <ele>346</ele>
        <time>2022-07-15T08:14:58.000Z</time>
      </trkpt>
      <trkpt lat="49.89356" lon="4.75633">
        <ele>346</ele>
        <time>2022-07-15T08:14:59.000Z</time>
      </trkpt>
      <trkpt lat="49.89356" lon="4.75629">
        <ele>346</ele>
        <time>2022-07-15T08:15:00.000Z</time>
      </trkpt>
      <trkpt lat="49.89356" lon="4.75626">
        <ele>346</ele>
        <time>2022-07-15T08:15:01.000Z</time>
      </trkpt>
      <trkpt lat="49.89356" lon="4.75622">
        <ele>346</ele>
        <time>2022-07-15T08:15:02.000Z</time>
      </trkpt>
      <trkpt lat="49.89356" lon="4.75619">
        <ele>346</ele>
        <time>2022-07-15T08:15:03.000Z</time>
      </trkpt>
      <trkpt lat="49.89356" lon="4.75616">
        <ele>346</ele>
        <time>2022-07-15T08:15:04.000Z</time>
      </trkpt>
      <trkpt lat="49.89356" lon="4.75613">
        <ele>346</ele>
        <time>2022-07-15T08:15:05.000Z</time>
      </trkpt>
      <trkpt lat="49.89356" lon="4.7561">
        <ele>346</ele>
        <time>2022-07-15T08:15:06.000Z</time>
      </trkpt>
      <trkpt lat="49.89356" lon="4.75607">
        <ele>346</ele>
        <time>2022-07-15T08:15:07.000Z</time>
      </trkpt>
      <trkpt lat="49.89356" lon="4.75604">
        <ele>346</ele>
        <time>2022-07-15T08:15:08.000Z</time>
      </trkpt>
      <trkpt lat="49.89356" lon="4.75602">
        <ele>346</ele>
        <time>2022-07-15T08:15:09.000Z</time>
      </trkpt>
      <trkpt lat="49.89356" lon="4.75598">
        <ele>346</ele>
        <time>2022-07-15T08:15:10.000Z</time>
      </trkpt>
      <trkpt lat="49.89356" lon="4.75596">
        <ele>346</ele>
        <time>2022-07-15T08:15:11.000Z</time>
      </trkpt>
      <trkpt lat="49.89356" lon="4.75593">
        <ele>346</ele>
        <time>2022-07-15T08:15:12.000Z</time>
      </trkpt>
      <trkpt lat="49.89355" lon="4.7559">
        <ele>346</ele>
        <time>2022-07-15T08:15:13.000Z</time>
      </trkpt>
      <trkpt lat="49.89356" lon="4.75586">
        <ele>346</ele>
        <time>2022-07-15T08:15:14.000Z</time>
      </trkpt>
      <trkpt lat="49.89356" lon="4.75584">
        <ele>346</ele>
        <time>2022-07-15T08:15:15.000Z</time>
      </trkpt>
      <trkpt lat="49.89356" lon="4.75581">
        <ele>346</ele>
        <time>2022-07-15T08:15:16.000Z</time>
      </trkpt>
      <trkpt lat="49.89356" lon="4.75578">
        <ele>346</ele>
        <time>2022-07-15T08:15:17.000Z</time>
      </trkpt>
      <trkpt lat="49.89356" lon="4.75574">
        <ele>346</ele>
        <time>2022-07-15T08:15:18.000Z</time>
      </trkpt>
      <trkpt lat="49.89357" lon="4.75572">
        <ele>346</ele>
        <time>2022-07-15T08:15:19.000Z</time>
      </trkpt>
      <trkpt lat="49.89357" lon="4.75568">
        <ele>346</ele>
        <time>2022-07-15T08:15:20.000Z</time>
      </trkpt>
      <trkpt lat="49.89357" lon="4.75565">
        <ele>346</ele>
        <time>2022-07-15T08:15:21.000Z</time>
      </trkpt>
      <trkpt lat="49.89357" lon="4.75563">
        <ele>346</ele>
        <time>2022-07-15T08:15:22.000Z</time>
      </trkpt>
      <trkpt lat="49.89357" lon="4.75561">
        <ele>347</ele>
        <time>2022-07-15T08:15:23.000Z</time>
      </trkpt>
      <trkpt lat="49.89357" lon="4.75558">
        <ele>347</ele>
        <time>2022-07-15T08:15:24.000Z</time>
      </trkpt>
      <trkpt lat="49.89358" lon="4.75555">
        <ele>347</ele>
        <time>2022-07-15T08:15:25.000Z</time>
      </trkpt>
      <trkpt lat="49.89358" lon="4.75553">
        <ele>347</ele>
        <time>2022-07-15T08:15:26.000Z</time>
      </trkpt>
      <trkpt lat="49.89359" lon="4.75551">
        <ele>347</ele>
        <time>2022-07-15T08:15:27.000Z</time>
      </trkpt>
      <trkpt lat="49.89359" lon="4.75547">
        <ele>347</ele>
        <time>2022-07-15T08:15:28.000Z</time>
      </trkpt>
      <trkpt lat="49.8936" lon="4.75544">
        <ele>347</ele>
        <time>2022-07-15T08:15:29.000Z</time>
      </trkpt>
      <trkpt lat="49.8936" lon="4.75541">
        <ele>347</ele>
        <time>2022-07-15T08:15:30.000Z</time>
      </trkpt>
      <trkpt lat="49.89361" lon="4.75538">
        <ele>347</ele>
        <time>2022-07-15T08:15:31.000Z</time>
      </trkpt>
      <trkpt lat="49.89362" lon="4.75535">
        <ele>346</ele>
        <time>2022-07-15T08:15:32.000Z</time>
      </trkpt>
      <trkpt lat="49.89362" lon="4.75532">
        <ele>346</ele>
        <time>2022-07-15T08:15:33.000Z</time>
      </trkpt>
      <trkpt lat="49.89362" lon="4.75529">
        <ele>346</ele>
        <time>2022-07-15T08:15:34.000Z</time>
      </trkpt>
      <trkpt lat="49.89363" lon="4.75526">
        <ele>346</ele>
        <time>2022-07-15T08:15:35.000Z</time>
      </trkpt>
      <trkpt lat="49.89363" lon="4.75523">
        <ele>346</ele>
        <time>2022-07-15T08:15:36.000Z</time>
      </trkpt>
      <trkpt lat="49.89363" lon="4.7552">
        <ele>346</ele>
        <time>2022-07-15T08:15:37.000Z</time>
      </trkpt>
      <trkpt lat="49.89363" lon="4.75516">
        <ele>346</ele>
        <time>2022-07-15T08:15:38.000Z</time>
      </trkpt>
      <trkpt lat="49.89363" lon="4.75512">
        <ele>346</ele>
        <time>2022-07-15T08:15:39.000Z</time>
      </trkpt>
      <trkpt lat="49.89363" lon="4.75508">
        <ele>346</ele>
        <time>2022-07-15T08:15:40.000Z</time>
      </trkpt>
      <trkpt lat="49.89363" lon="4.75505">
        <ele>346</ele>
        <time>2022-07-15T08:15:41.000Z</time>
      </trkpt>
      <trkpt lat="49.89363" lon="4.75502">
        <ele>346</ele>
        <time>2022-07-15T08:15:42.000Z</time>
      </trkpt>
      <trkpt lat="49.89364" lon="4.75499">
        <ele>346</ele>
        <time>2022-07-15T08:15:43.000Z</time>
      </trkpt>
      <trkpt lat="49.89364" lon="4.75496">
        <ele>346</ele>
        <time>2022-07-15T08:15:44.000Z</time>
      </trkpt>
      <trkpt lat="49.89364" lon="4.75493">
        <ele>346</ele>
        <time>2022-07-15T08:15:45.000Z</time>
      </trkpt>
      <trkpt lat="49.89365" lon="4.75489">
        <ele>346</ele>
        <time>2022-07-15T08:15:46.000Z</time>
      </trkpt>
      <trkpt lat="49.89365" lon="4.75486">
        <ele>346</ele>
        <time>2022-07-15T08:15:47.000Z</time>
      </trkpt>
      <trkpt lat="49.89365" lon="4.75482">
        <ele>346</ele>
        <time>2022-07-15T08:15:48.000Z</time>
      </trkpt>
      <trkpt lat="49.89366" lon="4.75478">
        <ele>346</ele>
        <time>2022-07-15T08:15:49.000Z</time>
      </trkpt>
      <trkpt lat="49.89366" lon="4.75474">
        <ele>346</ele>
        <time>2022-07-15T08:15:50.000Z</time>
      </trkpt>
      <trkpt lat="49.89366" lon="4.7547">
        <ele>347</ele>
        <time>2022-07-15T08:15:51.000Z</time>
      </trkpt>
      <trkpt lat="49.89366" lon="4.75466">
        <ele>347</ele>
        <time>2022-07-15T08:15:52.000Z</time>
      </trkpt>
      <trkpt lat="49.89367" lon="4.75463">
        <ele>347</ele>
        <time>2022-07-15T08:15:53.000Z</time>
      </trkpt>
      <trkpt lat="49.89367" lon="4.75459">
        <ele>347</ele>
        <time>2022-07-15T08:15:54.000Z</time>
      </trkpt>
      <trkpt lat="49.89368" lon="4.75456">
        <ele>347</ele>
        <time>2022-07-15T08:15:55.000Z</time>
      </trkpt>
      <trkpt lat="49.89368" lon="4.75453">
        <ele>347</ele>
        <time>2022-07-15T08:15:56.000Z</time>
      </trkpt>
      <trkpt lat="49.89369" lon="4.7545">
        <ele>347</ele>
        <time>2022-07-15T08:15:57.000Z</time>
      </trkpt>
      <trkpt lat="49.89369" lon="4.75447">
        <ele>347</ele>
        <time>2022-07-15T08:15:58.000Z</time>
      </trkpt>
      <trkpt lat="49.8937" lon="4.75444">
        <ele>347</ele>
        <time>2022-07-15T08:15:59.000Z</time>
      </trkpt>
      <trkpt lat="49.8937" lon="4.75442">
        <ele>347</ele>
        <time>2022-07-15T08:16:00.000Z</time>
      </trkpt>
      <trkpt lat="49.89371" lon="4.75439">
        <ele>347</ele>
        <time>2022-07-15T08:16:01.000Z</time>
      </trkpt>
      <trkpt lat="49.89372" lon="4.75435">
        <ele>347</ele>
        <time>2022-07-15T08:16:02.000Z</time>
      </trkpt>
      <trkpt lat="49.89372" lon="4.75432">
        <ele>347</ele>
        <time>2022-07-15T08:16:03.000Z</time>
      </trkpt>
      <trkpt lat="49.89373" lon="4.75429">
        <ele>347</ele>
        <time>2022-07-15T08:16:04.000Z</time>
      </trkpt>
      <trkpt lat="49.89373" lon="4.75426">
        <ele>348</ele>
        <time>2022-07-15T08:16:05.000Z</time>
      </trkpt>
      <trkpt lat="49.89374" lon="4.75423">
        <ele>348</ele>
        <time>2022-07-15T08:16:06.000Z</time>
      </trkpt>
      <trkpt lat="49.89374" lon="4.7542">
        <ele>348</ele>
        <time>2022-07-15T08:16:07.000Z</time>
      </trkpt>
      <trkpt lat="49.89375" lon="4.75417">
        <ele>348</ele>
        <time>2022-07-15T08:16:08.000Z</time>
      </trkpt>
      <trkpt lat="49.89376" lon="4.75414">
        <ele>348</ele>
        <time>2022-07-15T08:16:09.000Z</time>
      </trkpt>
      <trkpt lat="49.89376" lon="4.75411">
        <ele>348</ele>
        <time>2022-07-15T08:16:10.000Z</time>
      </trkpt>
      <trkpt lat="49.89377" lon="4.75408">
        <ele>348</ele>
        <time>2022-07-15T08:16:11.000Z</time>
      </trkpt>
      <trkpt lat="49.89378" lon="4.75406">
        <ele>348</ele>
        <time>2022-07-15T08:16:12.000Z</time>
      </trkpt>
      <trkpt lat="49.89379" lon="4.75403">
        <ele>349</ele>
        <time>2022-07-15T08:16:13.000Z</time>
      </trkpt>
      <trkpt lat="49.8938" lon="4.754">
        <ele>349</ele>
        <time>2022-07-15T08:16:14.000Z</time>
      </trkpt>
      <trkpt lat="49.89381" lon="4.75398">
        <ele>349</ele>
        <time>2022-07-15T08:16:15.000Z</time>
      </trkpt>
      <trkpt lat="49.89383" lon="4.75396">
        <ele>349</ele>
        <time>2022-07-15T08:16:16.000Z</time>
      </trkpt>
      <trkpt lat="49.89384" lon="4.75394">
        <ele>349</ele>
        <time>2022-07-15T08:16:17.000Z</time>
      </trkpt>
      <trkpt lat="49.89385" lon="4.75391">
        <ele>349</ele>
        <time>2022-07-15T08:16:18.000Z</time>
      </trkpt>
      <trkpt lat="49.89386" lon="4.75389">
        <ele>350</ele>
        <time>2022-07-15T08:16:19.000Z</time>
      </trkpt>
      <trkpt lat="49.89387" lon="4.75387">
        <ele>350</ele>
        <time>2022-07-15T08:16:20.000Z</time>
      </trkpt>
      <trkpt lat="49.89389" lon="4.75385">
        <ele>350</ele>
        <time>2022-07-15T08:16:21.000Z</time>
      </trkpt>
      <trkpt lat="49.8939" lon="4.75384">
        <ele>350</ele>
        <time>2022-07-15T08:16:22.000Z</time>
      </trkpt>
      <trkpt lat="49.89392" lon="4.75384">
        <ele>350</ele>
        <time>2022-07-15T08:16:23.000Z</time>
      </trkpt>
      <trkpt lat="49.89394" lon="4.75384">
        <ele>350</ele>
        <time>2022-07-15T08:16:24.000Z</time>
      </trkpt>
      <trkpt lat="49.89396" lon="4.75384">
        <ele>350</ele>
        <time>2022-07-15T08:16:25.000Z</time>
      </trkpt>
      <trkpt lat="49.89398" lon="4.75384">
        <ele>350</ele>
        <time>2022-07-15T08:16:26.000Z</time>
      </trkpt>
      <trkpt lat="49.89401" lon="4.75385">
        <ele>350</ele>
        <time>2022-07-15T08:16:27.000Z</time>
      </trkpt>
      <trkpt lat="49.89404" lon="4.75386">
        <ele>350</ele>
        <time>2022-07-15T08:16:28.000Z</time>
      </trkpt>
      <trkpt lat="49.89407" lon="4.75388">
        <ele>350</ele>
        <time>2022-07-15T08:16:29.000Z</time>
      </trkpt>
      <trkpt lat="49.89411" lon="4.75389">
        <ele>351</ele>
        <time>2022-07-15T08:16:30.000Z</time>
      </trkpt>
      <trkpt lat="49.89414" lon="4.75389">
        <ele>351</ele>
        <time>2022-07-15T08:16:31.000Z</time>
      </trkpt>
      <trkpt lat="49.89417" lon="4.7539">
        <ele>351</ele>
        <time>2022-07-15T08:16:32.000Z</time>
      </trkpt>
      <trkpt lat="49.8942" lon="4.75391">
        <ele>351</ele>
        <time>2022-07-15T08:16:33.000Z</time>
      </trkpt>
      <trkpt lat="49.89423" lon="4.75391">
        <ele>351</ele>
        <time>2022-07-15T08:16:34.000Z</time>
      </trkpt>
      <trkpt lat="49.89426" lon="4.75391">
        <ele>351</ele>
        <time>2022-07-15T08:16:35.000Z</time>
      </trkpt>
      <trkpt lat="49.89429" lon="4.75392">
        <ele>352</ele>
        <time>2022-07-15T08:16:36.000Z</time>
      </trkpt>
      <trkpt lat="49.89432" lon="4.75392">
        <ele>352</ele>
        <time>2022-07-15T08:16:37.000Z</time>
      </trkpt>
      <trkpt lat="49.89434" lon="4.75393">
        <ele>352</ele>
        <time>2022-07-15T08:16:38.000Z</time>
      </trkpt>
      <trkpt lat="49.89436" lon="4.75393">
        <ele>352</ele>
        <time>2022-07-15T08:16:39.000Z</time>
      </trkpt>
      <trkpt lat="49.89438" lon="4.75393">
        <ele>353</ele>
        <time>2022-07-15T08:16:40.000Z</time>
      </trkpt>
      <trkpt lat="49.8944" lon="4.75393">
        <ele>353</ele>
        <time>2022-07-15T08:16:41.000Z</time>
      </trkpt>
      <trkpt lat="49.89442" lon="4.75393">
        <ele>354</ele>
        <time>2022-07-15T08:16:42.000Z</time>
      </trkpt>
      <trkpt lat="49.89445" lon="4.75392">
        <ele>354</ele>
        <time>2022-07-15T08:16:43.000Z</time>
      </trkpt>
      <trkpt lat="49.89448" lon="4.75391">
        <ele>354</ele>
        <time>2022-07-15T08:16:44.000Z</time>
      </trkpt>
      <trkpt lat="49.89451" lon="4.75389">
        <ele>355</ele>
        <time>2022-07-15T08:16:45.000Z</time>
      </trkpt>
      <trkpt lat="49.89453" lon="4.75387">
        <ele>355</ele>
        <time>2022-07-15T08:16:46.000Z</time>
      </trkpt>
      <trkpt lat="49.89455" lon="4.75386">
        <ele>356</ele>
        <time>2022-07-15T08:16:47.000Z</time>
      </trkpt>
      <trkpt lat="49.89458" lon="4.75384">
        <ele>356</ele>
        <time>2022-07-15T08:16:48.000Z</time>
      </trkpt>
      <trkpt lat="49.8946" lon="4.75381">
        <ele>356</ele>
        <time>2022-07-15T08:16:49.000Z</time>
      </trkpt>
      <trkpt lat="49.89462" lon="4.75379">
        <ele>357</ele>
        <time>2022-07-15T08:16:50.000Z</time>
      </trkpt>
      <trkpt lat="49.89464" lon="4.75377">
        <ele>357</ele>
        <time>2022-07-15T08:16:51.000Z</time>
      </trkpt>
      <trkpt lat="49.89466" lon="4.75374">
        <ele>357</ele>
        <time>2022-07-15T08:16:52.000Z</time>
      </trkpt>
      <trkpt lat="49.89467" lon="4.75371">
        <ele>357</ele>
        <time>2022-07-15T08:16:53.000Z</time>
      </trkpt>
      <trkpt lat="49.89469" lon="4.75369">
        <ele>357</ele>
        <time>2022-07-15T08:16:54.000Z</time>
      </trkpt>
      <trkpt lat="49.8947" lon="4.75366">
        <ele>357</ele>
        <time>2022-07-15T08:16:55.000Z</time>
      </trkpt>
      <trkpt lat="49.89472" lon="4.75363">
        <ele>357</ele>
        <time>2022-07-15T08:16:56.000Z</time>
      </trkpt>
      <trkpt lat="49.89474" lon="4.7536">
        <ele>357</ele>
        <time>2022-07-15T08:16:57.000Z</time>
      </trkpt>
      <trkpt lat="49.89476" lon="4.75358">
        <ele>357</ele>
        <time>2022-07-15T08:16:58.000Z</time>
      </trkpt>
      <trkpt lat="49.89478" lon="4.75355">
        <ele>357</ele>
        <time>2022-07-15T08:16:59.000Z</time>
      </trkpt>
      <trkpt lat="49.8948" lon="4.75352">
        <ele>357</ele>
        <time>2022-07-15T08:17:00.000Z</time>
      </trkpt>
      <trkpt lat="49.89481" lon="4.75349">
        <ele>357</ele>
        <time>2022-07-15T08:17:01.000Z</time>
      </trkpt>
      <trkpt lat="49.89482" lon="4.75346">
        <ele>357</ele>
        <time>2022-07-15T08:17:02.000Z</time>
      </trkpt>
      <trkpt lat="49.89484" lon="4.75343">
        <ele>357</ele>
        <time>2022-07-15T08:17:03.000Z</time>
      </trkpt>
      <trkpt lat="49.89486" lon="4.7534">
        <ele>357</ele>
        <time>2022-07-15T08:17:04.000Z</time>
      </trkpt>
      <trkpt lat="49.89488" lon="4.75337">
        <ele>357</ele>
        <time>2022-07-15T08:17:05.000Z</time>
      </trkpt>
      <trkpt lat="49.89491" lon="4.75334">
        <ele>357</ele>
        <time>2022-07-15T08:17:06.000Z</time>
      </trkpt>
      <trkpt lat="49.89493" lon="4.75331">
        <ele>357</ele>
        <time>2022-07-15T08:17:07.000Z</time>
      </trkpt>
      <trkpt lat="49.89495" lon="4.75328">
        <ele>357</ele>
        <time>2022-07-15T08:17:08.000Z</time>
      </trkpt>
      <trkpt lat="49.89498" lon="4.75326">
        <ele>357</ele>
        <time>2022-07-15T08:17:09.000Z</time>
      </trkpt>
      <trkpt lat="49.895" lon="4.75323">
        <ele>357</ele>
        <time>2022-07-15T08:17:10.000Z</time>
      </trkpt>
      <trkpt lat="49.89502" lon="4.7532">
        <ele>356</ele>
        <time>2022-07-15T08:17:11.000Z</time>
      </trkpt>
      <trkpt lat="49.89505" lon="4.75317">
        <ele>356</ele>
        <time>2022-07-15T08:17:12.000Z</time>
      </trkpt>
      <trkpt lat="49.89507" lon="4.75315">
        <ele>356</ele>
        <time>2022-07-15T08:17:13.000Z</time>
      </trkpt>
      <trkpt lat="49.8951" lon="4.75313">
        <ele>357</ele>
        <time>2022-07-15T08:17:14.000Z</time>
      </trkpt>
      <trkpt lat="49.89512" lon="4.75311">
        <ele>357</ele>
        <time>2022-07-15T08:17:15.000Z</time>
      </trkpt>
      <trkpt lat="49.89514" lon="4.75308">
        <ele>357</ele>
        <time>2022-07-15T08:17:16.000Z</time>
      </trkpt>
      <trkpt lat="49.89516" lon="4.75306">
        <ele>357</ele>
        <time>2022-07-15T08:17:17.000Z</time>
      </trkpt>
      <trkpt lat="49.89518" lon="4.75303">
        <ele>356</ele>
        <time>2022-07-15T08:17:18.000Z</time>
      </trkpt>
      <trkpt lat="49.8952" lon="4.75301">
        <ele>356</ele>
        <time>2022-07-15T08:17:19.000Z</time>
      </trkpt>
      <trkpt lat="49.89522" lon="4.75298">
        <ele>356</ele>
        <time>2022-07-15T08:17:20.000Z</time>
      </trkpt>
      <trkpt lat="49.89523" lon="4.75295">
        <ele>356</ele>
        <time>2022-07-15T08:17:21.000Z</time>
      </trkpt>
      <trkpt lat="49.89525" lon="4.75293">
        <ele>356</ele>
        <time>2022-07-15T08:17:22.000Z</time>
      </trkpt>
      <trkpt lat="49.89527" lon="4.7529">
        <ele>356</ele>
        <time>2022-07-15T08:17:23.000Z</time>
      </trkpt>
      <trkpt lat="49.8953" lon="4.75288">
        <ele>356</ele>
        <time>2022-07-15T08:17:24.000Z</time>
      </trkpt>
      <trkpt lat="49.89532" lon="4.75286">
        <ele>355</ele>
        <time>2022-07-15T08:17:25.000Z</time>
      </trkpt>
      <trkpt lat="49.89534" lon="4.75285">
        <ele>355</ele>
        <time>2022-07-15T08:17:26.000Z</time>
      </trkpt>
      <trkpt lat="49.89535" lon="4.75284">
        <ele>355</ele>
        <time>2022-07-15T08:17:27.000Z</time>
      </trkpt>
      <trkpt lat="49.89536" lon="4.75284">
        <ele>355</ele>
        <time>2022-07-15T08:17:28.000Z</time>
      </trkpt>
      <trkpt lat="49.89536" lon="4.75283">
        <ele>355</ele>
        <time>2022-07-15T08:17:29.000Z</time>
      </trkpt>
      <trkpt lat="49.89536" lon="4.75283">
        <ele>355</ele>
        <time>2022-07-15T08:17:30.000Z</time>
      </trkpt>
      <trkpt lat="49.89536" lon="4.75282">
        <ele>354</ele>
        <time>2022-07-15T08:17:31.000Z</time>
      </trkpt>
      <trkpt lat="49.89537" lon="4.75282">
        <ele>354</ele>
        <time>2022-07-15T08:17:32.000Z</time>
      </trkpt>
      <trkpt lat="49.89537" lon="4.75283">
        <ele>354</ele>
        <time>2022-07-15T08:17:33.000Z</time>
      </trkpt>
      <trkpt lat="49.89537" lon="4.75283">
        <ele>354</ele>
        <time>2022-07-15T08:17:34.000Z</time>
      </trkpt>
      <trkpt lat="49.89538" lon="4.75284">
        <ele>354</ele>
        <time>2022-07-15T08:17:35.000Z</time>
      </trkpt>
      <trkpt lat="49.89538" lon="4.75284">
        <ele>354</ele>
        <time>2022-07-15T08:17:36.000Z</time>
      </trkpt>
      <trkpt lat="49.89538" lon="4.75284">
        <ele>354</ele>
        <time>2022-07-15T08:17:37.000Z</time>
      </trkpt>
      <trkpt lat="49.89539" lon="4.75284">
        <ele>354</ele>
        <time>2022-07-15T08:17:38.000Z</time>
      </trkpt>
      <trkpt lat="49.89539" lon="4.75284">
        <ele>354</ele>
        <time>2022-07-15T08:17:39.000Z</time>
      </trkpt>
      <trkpt lat="49.89539" lon="4.75285">
        <ele>354</ele>
        <time>2022-07-15T08:17:40.000Z</time>
      </trkpt>
      <trkpt lat="49.8954" lon="4.75286">
        <ele>354</ele>
        <time>2022-07-15T08:17:41.000Z</time>
      </trkpt>
      <trkpt lat="49.89541" lon="4.75287">
        <ele>354</ele>
        <time>2022-07-15T08:17:42.000Z</time>
      </trkpt>
      <trkpt lat="49.89541" lon="4.75288">
        <ele>354</ele>
        <time>2022-07-15T08:17:43.000Z</time>
      </trkpt>
      <trkpt lat="49.89542" lon="4.75288">
        <ele>354</ele>
        <time>2022-07-15T08:17:44.000Z</time>
      </trkpt>
      <trkpt lat="49.89542" lon="4.75289">
        <ele>354</ele>
        <time>2022-07-15T08:17:45.000Z</time>
      </trkpt>
      <trkpt lat="49.89543" lon="4.75289">
        <ele>354</ele>
        <time>2022-07-15T08:17:46.000Z</time>
      </trkpt>
      <trkpt lat="49.89545" lon="4.7529">
        <ele>354</ele>
        <time>2022-07-15T08:17:47.000Z</time>
      </trkpt>
      <trkpt lat="49.89546" lon="4.75291">
        <ele>354</ele>
        <time>2022-07-15T08:17:48.000Z</time>
      </trkpt>
      <trkpt lat="49.89546" lon="4.75292">
        <ele>354</ele>
        <time>2022-07-15T08:17:49.000Z</time>
      </trkpt>
      <trkpt lat="49.89547" lon="4.75293">
        <ele>354</ele>
        <time>2022-07-15T08:17:50.000Z</time>
      </trkpt>
      <trkpt lat="49.89548" lon="4.75294">
        <ele>354</ele>
        <time>2022-07-15T08:17:51.000Z</time>
      </trkpt>
      <trkpt lat="49.89549" lon="4.75295">
        <ele>354</ele>
        <time>2022-07-15T08:17:52.000Z</time>
      </trkpt>
      <trkpt lat="49.8955" lon="4.75296">
        <ele>354</ele>
        <time>2022-07-15T08:17:53.000Z</time>
      </trkpt>
      <trkpt lat="49.8955" lon="4.75297">
        <ele>354</ele>
        <time>2022-07-15T08:17:54.000Z</time>
      </trkpt>
      <trkpt lat="49.89551" lon="4.75299">
        <ele>354</ele>
        <time>2022-07-15T08:17:55.000Z</time>
      </trkpt>
      <trkpt lat="49.89552" lon="4.753">
        <ele>355</ele>
        <time>2022-07-15T08:17:56.000Z</time>
      </trkpt>
      <trkpt lat="49.89553" lon="4.753">
        <ele>355</ele>
        <time>2022-07-15T08:17:57.000Z</time>
      </trkpt>
      <trkpt lat="49.89553" lon="4.75301">
        <ele>355</ele>
        <time>2022-07-15T08:17:58.000Z</time>
      </trkpt>
      <trkpt lat="49.89554" lon="4.75303">
        <ele>355</ele>
        <time>2022-07-15T08:17:59.000Z</time>
      </trkpt>
      <trkpt lat="49.89555" lon="4.75304">
        <ele>355</ele>
        <time>2022-07-15T08:18:00.000Z</time>
      </trkpt>
      <trkpt lat="49.89556" lon="4.75305">
        <ele>356</ele>
        <time>2022-07-15T08:18:01.000Z</time>
      </trkpt>
      <trkpt lat="49.89557" lon="4.75306">
        <ele>356</ele>
        <time>2022-07-15T08:18:02.000Z</time>
      </trkpt>
      <trkpt lat="49.89558" lon="4.75307">
        <ele>356</ele>
        <time>2022-07-15T08:18:03.000Z</time>
      </trkpt>
      <trkpt lat="49.89559" lon="4.75308">
        <ele>356</ele>
        <time>2022-07-15T08:18:04.000Z</time>
      </trkpt>
      <trkpt lat="49.8956" lon="4.75309">
        <ele>356</ele>
        <time>2022-07-15T08:18:05.000Z</time>
      </trkpt>
      <trkpt lat="49.89561" lon="4.75309">
        <ele>356</ele>
        <time>2022-07-15T08:18:06.000Z</time>
      </trkpt>
      <trkpt lat="49.89562" lon="4.7531">
        <ele>356</ele>
        <time>2022-07-15T08:18:07.000Z</time>
      </trkpt>
      <trkpt lat="49.89562" lon="4.7531">
        <ele>356</ele>
        <time>2022-07-15T08:18:08.000Z</time>
      </trkpt>
      <trkpt lat="49.89563" lon="4.75311">
        <ele>357</ele>
        <time>2022-07-15T08:18:09.000Z</time>
      </trkpt>
      <trkpt lat="49.89563" lon="4.75312">
        <ele>357</ele>
        <time>2022-07-15T08:18:10.000Z</time>
      </trkpt>
      <trkpt lat="49.89564" lon="4.75313">
        <ele>357</ele>
        <time>2022-07-15T08:18:11.000Z</time>
      </trkpt>
      <trkpt lat="49.89564" lon="4.75314">
        <ele>357</ele>
        <time>2022-07-15T08:18:12.000Z</time>
      </trkpt>
      <trkpt lat="49.89564" lon="4.75315">
        <ele>357</ele>
        <time>2022-07-15T08:18:13.000Z</time>
      </trkpt>
      <trkpt lat="49.89564" lon="4.75316">
        <ele>357</ele>
        <time>2022-07-15T08:18:14.000Z</time>
      </trkpt>
      <trkpt lat="49.89565" lon="4.75317">
        <ele>357</ele>
        <time>2022-07-15T08:18:15.000Z</time>
      </trkpt>
      <trkpt lat="49.89566" lon="4.75317">
        <ele>358</ele>
        <time>2022-07-15T08:18:16.000Z</time>
      </trkpt>
      <trkpt lat="49.89566" lon="4.75318">
        <ele>358</ele>
        <time>2022-07-15T08:18:17.000Z</time>
      </trkpt>
      <trkpt lat="49.89567" lon="4.75319">
        <ele>358</ele>
        <time>2022-07-15T08:18:18.000Z</time>
      </trkpt>
      <trkpt lat="49.89568" lon="4.7532">
        <ele>358</ele>
        <time>2022-07-15T08:18:19.000Z</time>
      </trkpt>
      <trkpt lat="49.89568" lon="4.7532">
        <ele>358</ele>
        <time>2022-07-15T08:18:20.000Z</time>
      </trkpt>
      <trkpt lat="49.89567" lon="4.75321">
        <ele>358</ele>
        <time>2022-07-15T08:18:21.000Z</time>
      </trkpt>
      <trkpt lat="49.89567" lon="4.75321">
        <ele>358</ele>
        <time>2022-07-15T08:18:22.000Z</time>
      </trkpt>
      <trkpt lat="49.89568" lon="4.75322">
        <ele>359</ele>
        <time>2022-07-15T08:18:23.000Z</time>
      </trkpt>
      <trkpt lat="49.89568" lon="4.75322">
        <ele>359</ele>
        <time>2022-07-15T08:18:24.000Z</time>
      </trkpt>
      <trkpt lat="49.89569" lon="4.75323">
        <ele>359</ele>
        <time>2022-07-15T08:18:25.000Z</time>
      </trkpt>
      <trkpt lat="49.89569" lon="4.75323">
        <ele>359</ele>
        <time>2022-07-15T08:18:26.000Z</time>
      </trkpt>
      <trkpt lat="49.89569" lon="4.75324">
        <ele>359</ele>
        <time>2022-07-15T08:18:27.000Z</time>
      </trkpt>
      <trkpt lat="49.8957" lon="4.75325">
        <ele>359</ele>
        <time>2022-07-15T08:18:28.000Z</time>
      </trkpt>
      <trkpt lat="49.8957" lon="4.75326">
        <ele>359</ele>
        <time>2022-07-15T08:18:29.000Z</time>
      </trkpt>
      <trkpt lat="49.89571" lon="4.75327">
        <ele>360</ele>
        <time>2022-07-15T08:18:30.000Z</time>
      </trkpt>
      <trkpt lat="49.89571" lon="4.75328">
        <ele>360</ele>
        <time>2022-07-15T08:18:31.000Z</time>
      </trkpt>
      <trkpt lat="49.89572" lon="4.75329">
        <ele>360</ele>
        <time>2022-07-15T08:18:32.000Z</time>
      </trkpt>
      <trkpt lat="49.89573" lon="4.7533">
        <ele>360</ele>
        <time>2022-07-15T08:18:33.000Z</time>
      </trkpt>
      <trkpt lat="49.89574" lon="4.75331">
        <ele>360</ele>
        <time>2022-07-15T08:18:34.000Z</time>
      </trkpt>
      <trkpt lat="49.89574" lon="4.75332">
        <ele>361</ele>
        <time>2022-07-15T08:18:35.000Z</time>
      </trkpt>
      <trkpt lat="49.89575" lon="4.75333">
        <ele>361</ele>
        <time>2022-07-15T08:18:36.000Z</time>
      </trkpt>
      <trkpt lat="49.89575" lon="4.75333">
        <ele>361</ele>
        <time>2022-07-15T08:18:37.000Z</time>
      </trkpt>
      <trkpt lat="49.89576" lon="4.75334">
        <ele>361</ele>
        <time>2022-07-15T08:18:38.000Z</time>
      </trkpt>
      <trkpt lat="49.89576" lon="4.75335">
        <ele>362</ele>
        <time>2022-07-15T08:18:39.000Z</time>
      </trkpt>
      <trkpt lat="49.89577" lon="4.75336">
        <ele>362</ele>
        <time>2022-07-15T08:18:40.000Z</time>
      </trkpt>
      <trkpt lat="49.89577" lon="4.75337">
        <ele>362</ele>
        <time>2022-07-15T08:18:41.000Z</time>
      </trkpt>
      <trkpt lat="49.89578" lon="4.75338">
        <ele>362</ele>
        <time>2022-07-15T08:18:42.000Z</time>
      </trkpt>
      <trkpt lat="49.89579" lon="4.75339">
        <ele>363</ele>
        <time>2022-07-15T08:18:43.000Z</time>
      </trkpt>
      <trkpt lat="49.89579" lon="4.7534">
        <ele>363</ele>
        <time>2022-07-15T08:18:44.000Z</time>
      </trkpt>
      <trkpt lat="49.89579" lon="4.75341">
        <ele>363</ele>
        <time>2022-07-15T08:18:45.000Z</time>
      </trkpt>
      <trkpt lat="49.8958" lon="4.75342">
        <ele>364</ele>
        <time>2022-07-15T08:18:46.000Z</time>
      </trkpt>
      <trkpt lat="49.89581" lon="4.75343">
        <ele>364</ele>
        <time>2022-07-15T08:18:47.000Z</time>
      </trkpt>
      <trkpt lat="49.89581" lon="4.75343">
        <ele>364</ele>
        <time>2022-07-15T08:18:48.000Z</time>
      </trkpt>
      <trkpt lat="49.89581" lon="4.75344">
        <ele>365</ele>
        <time>2022-07-15T08:18:49.000Z</time>
      </trkpt>
      <trkpt lat="49.89582" lon="4.75345">
        <ele>365</ele>
        <time>2022-07-15T08:18:50.000Z</time>
      </trkpt>
      <trkpt lat="49.89582" lon="4.75346">
        <ele>366</ele>
        <time>2022-07-15T08:18:51.000Z</time>
      </trkpt>
      <trkpt lat="49.89583" lon="4.75347">
        <ele>366</ele>
        <time>2022-07-15T08:18:52.000Z</time>
      </trkpt>
      <trkpt lat="49.89584" lon="4.75348">
        <ele>366</ele>
        <time>2022-07-15T08:18:53.000Z</time>
      </trkpt>
      <trkpt lat="49.89585" lon="4.7535">
        <ele>367</ele>
        <time>2022-07-15T08:18:54.000Z</time>
      </trkpt>
      <trkpt lat="49.89585" lon="4.75351">
        <ele>367</ele>
        <time>2022-07-15T08:18:55.000Z</time>
      </trkpt>
      <trkpt lat="49.89586" lon="4.75351">
        <ele>367</ele>
        <time>2022-07-15T08:18:56.000Z</time>
      </trkpt>
      <trkpt lat="49.89586" lon="4.75352">
        <ele>368</ele>
        <time>2022-07-15T08:18:57.000Z</time>
      </trkpt>
      <trkpt lat="49.89587" lon="4.75353">
        <ele>368</ele>
        <time>2022-07-15T08:18:58.000Z</time>
      </trkpt>
      <trkpt lat="49.89588" lon="4.75354">
        <ele>368</ele>
        <time>2022-07-15T08:18:59.000Z</time>
      </trkpt>
      <trkpt lat="49.89589" lon="4.75356">
        <ele>369</ele>
        <time>2022-07-15T08:19:00.000Z</time>
      </trkpt>
      <trkpt lat="49.8959" lon="4.75357">
        <ele>369</ele>
        <time>2022-07-15T08:19:01.000Z</time>
      </trkpt>
      <trkpt lat="49.8959" lon="4.75357">
        <ele>369</ele>
        <time>2022-07-15T08:19:02.000Z</time>
      </trkpt>
      <trkpt lat="49.89591" lon="4.75358">
        <ele>369</ele>
        <time>2022-07-15T08:19:03.000Z</time>
      </trkpt>
      <trkpt lat="49.89591" lon="4.75358">
        <ele>370</ele>
        <time>2022-07-15T08:19:04.000Z</time>
      </trkpt>
      <trkpt lat="49.89591" lon="4.75359">
        <ele>370</ele>
        <time>2022-07-15T08:19:05.000Z</time>
      </trkpt>
      <trkpt lat="49.89592" lon="4.7536">
        <ele>370</ele>
        <time>2022-07-15T08:19:06.000Z</time>
      </trkpt>
      <trkpt lat="49.89592" lon="4.75361">
        <ele>370</ele>
        <time>2022-07-15T08:19:07.000Z</time>
      </trkpt>
      <trkpt lat="49.89593" lon="4.75362">
        <ele>371</ele>
        <time>2022-07-15T08:19:08.000Z</time>
      </trkpt>
      <trkpt lat="49.89594" lon="4.75362">
        <ele>371</ele>
        <time>2022-07-15T08:19:09.000Z</time>
      </trkpt>
      <trkpt lat="49.89595" lon="4.75364">
        <ele>371</ele>
        <time>2022-07-15T08:19:10.000Z</time>
      </trkpt>
      <trkpt lat="49.89596" lon="4.75365">
        <ele>371</ele>
        <time>2022-07-15T08:19:11.000Z</time>
      </trkpt>
      <trkpt lat="49.89597" lon="4.75366">
        <ele>372</ele>
        <time>2022-07-15T08:19:12.000Z</time>
      </trkpt>
      <trkpt lat="49.89598" lon="4.75367">
        <ele>372</ele>
        <time>2022-07-15T08:19:13.000Z</time>
      </trkpt>
      <trkpt lat="49.89599" lon="4.75369">
        <ele>372</ele>
        <time>2022-07-15T08:19:14.000Z</time>
      </trkpt>
      <trkpt lat="49.896" lon="4.7537">
        <ele>372</ele>
        <time>2022-07-15T08:19:15.000Z</time>
      </trkpt>
      <trkpt lat="49.89601" lon="4.75372">
        <ele>373</ele>
        <time>2022-07-15T08:19:16.000Z</time>
      </trkpt>
      <trkpt lat="49.89602" lon="4.75373">
        <ele>373</ele>
        <time>2022-07-15T08:19:17.000Z</time>
      </trkpt>
      <trkpt lat="49.89603" lon="4.75374">
        <ele>373</ele>
        <time>2022-07-15T08:19:18.000Z</time>
      </trkpt>
      <trkpt lat="49.89603" lon="4.75376">
        <ele>374</ele>
        <time>2022-07-15T08:19:19.000Z</time>
      </trkpt>
      <trkpt lat="49.89604" lon="4.75376">
        <ele>374</ele>
        <time>2022-07-15T08:19:20.000Z</time>
      </trkpt>
      <trkpt lat="49.89605" lon="4.75378">
        <ele>374</ele>
        <time>2022-07-15T08:19:21.000Z</time>
      </trkpt>
      <trkpt lat="49.89605" lon="4.75379">
        <ele>375</ele>
        <time>2022-07-15T08:19:22.000Z</time>
      </trkpt>
      <trkpt lat="49.89606" lon="4.7538">
        <ele>375</ele>
        <time>2022-07-15T08:19:23.000Z</time>
      </trkpt>
      <trkpt lat="49.89607" lon="4.75382">
        <ele>375</ele>
        <time>2022-07-15T08:19:24.000Z</time>
      </trkpt>
      <trkpt lat="49.89607" lon="4.75383">
        <ele>375</ele>
        <time>2022-07-15T08:19:25.000Z</time>
      </trkpt>
      <trkpt lat="49.89608" lon="4.75384">
        <ele>376</ele>
        <time>2022-07-15T08:19:26.000Z</time>
      </trkpt>
      <trkpt lat="49.89609" lon="4.75386">
        <ele>376</ele>
        <time>2022-07-15T08:19:27.000Z</time>
      </trkpt>
      <trkpt lat="49.8961" lon="4.75387">
        <ele>376</ele>
        <time>2022-07-15T08:19:28.000Z</time>
      </trkpt>
      <trkpt lat="49.89611" lon="4.75388">
        <ele>376</ele>
        <time>2022-07-15T08:19:29.000Z</time>
      </trkpt>
      <trkpt lat="49.89612" lon="4.75389">
        <ele>377</ele>
        <time>2022-07-15T08:19:30.000Z</time>
      </trkpt>
      <trkpt lat="49.89612" lon="4.7539">
        <ele>377</ele>
        <time>2022-07-15T08:19:31.000Z</time>
      </trkpt>
      <trkpt lat="49.89613" lon="4.75391">
        <ele>377</ele>
        <time>2022-07-15T08:19:32.000Z</time>
      </trkpt>
      <trkpt lat="49.89613" lon="4.75391">
        <ele>377</ele>
        <time>2022-07-15T08:19:33.000Z</time>
      </trkpt>
      <trkpt lat="49.89614" lon="4.75391">
        <ele>377</ele>
        <time>2022-07-15T08:19:34.000Z</time>
      </trkpt>
      <trkpt lat="49.89614" lon="4.75391">
        <ele>377</ele>
        <time>2022-07-15T08:19:35.000Z</time>
      </trkpt>
      <trkpt lat="49.89614" lon="4.75392">
        <ele>377</ele>
        <time>2022-07-15T08:19:36.000Z</time>
      </trkpt>
      <trkpt lat="49.89615" lon="4.75392">
        <ele>378</ele>
        <time>2022-07-15T08:19:37.000Z</time>
      </trkpt>
      <trkpt lat="49.89616" lon="4.75393">
        <ele>378</ele>
        <time>2022-07-15T08:19:38.000Z</time>
      </trkpt>
      <trkpt lat="49.89617" lon="4.75394">
        <ele>378</ele>
        <time>2022-07-15T08:19:39.000Z</time>
      </trkpt>
      <trkpt lat="49.89618" lon="4.75395">
        <ele>378</ele>
        <time>2022-07-15T08:19:40.000Z</time>
      </trkpt>
      <trkpt lat="49.89618" lon="4.75396">
        <ele>378</ele>
        <time>2022-07-15T08:19:41.000Z</time>
      </trkpt>
      <trkpt lat="49.89619" lon="4.75397">
        <ele>378</ele>
        <time>2022-07-15T08:19:42.000Z</time>
      </trkpt>
      <trkpt lat="49.8962" lon="4.75398">
        <ele>379</ele>
        <time>2022-07-15T08:19:43.000Z</time>
      </trkpt>
      <trkpt lat="49.89621" lon="4.754">
        <ele>379</ele>
        <time>2022-07-15T08:19:44.000Z</time>
      </trkpt>
      <trkpt lat="49.89621" lon="4.75401">
        <ele>379</ele>
        <time>2022-07-15T08:19:45.000Z</time>
      </trkpt>
      <trkpt lat="49.89622" lon="4.75402">
        <ele>379</ele>
        <time>2022-07-15T08:19:46.000Z</time>
      </trkpt>
      <trkpt lat="49.89623" lon="4.75403">
        <ele>379</ele>
        <time>2022-07-15T08:19:47.000Z</time>
      </trkpt>
      <trkpt lat="49.89624" lon="4.75404">
        <ele>380</ele>
        <time>2022-07-15T08:19:48.000Z</time>
      </trkpt>
      <trkpt lat="49.89625" lon="4.75406">
        <ele>380</ele>
        <time>2022-07-15T08:19:49.000Z</time>
      </trkpt>
      <trkpt lat="49.89626" lon="4.75407">
        <ele>380</ele>
        <time>2022-07-15T08:19:50.000Z</time>
      </trkpt>
      <trkpt lat="49.89626" lon="4.75409">
        <ele>380</ele>
        <time>2022-07-15T08:19:51.000Z</time>
      </trkpt>
      <trkpt lat="49.89627" lon="4.7541">
        <ele>380</ele>
        <time>2022-07-15T08:19:52.000Z</time>
      </trkpt>
      <trkpt lat="49.89628" lon="4.75411">
        <ele>381</ele>
        <time>2022-07-15T08:19:53.000Z</time>
      </trkpt>
      <trkpt lat="49.89629" lon="4.75412">
        <ele>381</ele>
        <time>2022-07-15T08:19:54.000Z</time>
      </trkpt>
      <trkpt lat="49.8963" lon="4.75413">
        <ele>381</ele>
        <time>2022-07-15T08:19:55.000Z</time>
      </trkpt>
      <trkpt lat="49.8963" lon="4.75414">
        <ele>381</ele>
        <time>2022-07-15T08:19:56.000Z</time>
      </trkpt>
      <trkpt lat="49.89631" lon="4.75416">
        <ele>381</ele>
        <time>2022-07-15T08:19:57.000Z</time>
      </trkpt>
      <trkpt lat="49.89632" lon="4.75417">
        <ele>382</ele>
        <time>2022-07-15T08:19:58.000Z</time>
      </trkpt>
      <trkpt lat="49.89632" lon="4.75419">
        <ele>382</ele>
        <time>2022-07-15T08:19:59.000Z</time>
      </trkpt>
      <trkpt lat="49.89633" lon="4.7542">
        <ele>382</ele>
        <time>2022-07-15T08:20:00.000Z</time>
      </trkpt>
      <trkpt lat="49.89633" lon="4.7542">
        <ele>382</ele>
        <time>2022-07-15T08:20:01.000Z</time>
      </trkpt>
      <trkpt lat="49.89634" lon="4.75421">
        <ele>382</ele>
        <time>2022-07-15T08:20:02.000Z</time>
      </trkpt>
      <trkpt lat="49.89635" lon="4.75423">
        <ele>382</ele>
        <time>2022-07-15T08:20:03.000Z</time>
      </trkpt>
      <trkpt lat="49.89636" lon="4.75424">
        <ele>382</ele>
        <time>2022-07-15T08:20:04.000Z</time>
      </trkpt>
      <trkpt lat="49.89636" lon="4.75425">
        <ele>382</ele>
        <time>2022-07-15T08:20:05.000Z</time>
      </trkpt>
      <trkpt lat="49.89637" lon="4.75427">
        <ele>382</ele>
        <time>2022-07-15T08:20:06.000Z</time>
      </trkpt>
      <trkpt lat="49.89638" lon="4.75428">
        <ele>383</ele>
        <time>2022-07-15T08:20:07.000Z</time>
      </trkpt>
      <trkpt lat="49.89639" lon="4.75429">
        <ele>383</ele>
        <time>2022-07-15T08:20:08.000Z</time>
      </trkpt>
      <trkpt lat="49.89639" lon="4.75431">
        <ele>383</ele>
        <time>2022-07-15T08:20:09.000Z</time>
      </trkpt>
      <trkpt lat="49.8964" lon="4.75432">
        <ele>383</ele>
        <time>2022-07-15T08:20:10.000Z</time>
      </trkpt>
      <trkpt lat="49.89641" lon="4.75433">
        <ele>383</ele>
        <time>2022-07-15T08:20:11.000Z</time>
      </trkpt>
      <trkpt lat="49.89642" lon="4.75435">
        <ele>384</ele>
        <time>2022-07-15T08:20:12.000Z</time>
      </trkpt>
      <trkpt lat="49.89643" lon="4.75436">
        <ele>384</ele>
        <time>2022-07-15T08:20:13.000Z</time>
      </trkpt>
      <trkpt lat="49.89644" lon="4.75437">
        <ele>384</ele>
        <time>2022-07-15T08:20:14.000Z</time>
      </trkpt>
      <trkpt lat="49.89645" lon="4.75438">
        <ele>384</ele>
        <time>2022-07-15T08:20:15.000Z</time>
      </trkpt>
      <trkpt lat="49.89646" lon="4.75439">
        <ele>384</ele>
        <time>2022-07-15T08:20:16.000Z</time>
      </trkpt>
      <trkpt lat="49.89646" lon="4.75439">
        <ele>385</ele>
        <time>2022-07-15T08:20:17.000Z</time>
      </trkpt>
      <trkpt lat="49.89647" lon="4.75439">
        <ele>385</ele>
        <time>2022-07-15T08:20:18.000Z</time>
      </trkpt>
      <trkpt lat="49.89648" lon="4.7544">
        <ele>385</ele>
        <time>2022-07-15T08:20:19.000Z</time>
      </trkpt>
      <trkpt lat="49.89649" lon="4.75441">
        <ele>385</ele>
        <time>2022-07-15T08:20:20.000Z</time>
      </trkpt>
      <trkpt lat="49.89649" lon="4.75442">
        <ele>385</ele>
        <time>2022-07-15T08:20:21.000Z</time>
      </trkpt>
      <trkpt lat="49.8965" lon="4.75443">
        <ele>385</ele>
        <time>2022-07-15T08:20:22.000Z</time>
      </trkpt>
      <trkpt lat="49.89651" lon="4.75444">
        <ele>386</ele>
        <time>2022-07-15T08:20:23.000Z</time>
      </trkpt>
      <trkpt lat="49.89652" lon="4.75444">
        <ele>386</ele>
        <time>2022-07-15T08:20:24.000Z</time>
      </trkpt>
      <trkpt lat="49.89652" lon="4.75445">
        <ele>386</ele>
        <time>2022-07-15T08:20:25.000Z</time>
      </trkpt>
      <trkpt lat="49.89653" lon="4.75445">
        <ele>386</ele>
        <time>2022-07-15T08:20:26.000Z</time>
      </trkpt>
      <trkpt lat="49.89654" lon="4.75447">
        <ele>386</ele>
        <time>2022-07-15T08:20:27.000Z</time>
      </trkpt>
      <trkpt lat="49.89654" lon="4.75447">
        <ele>386</ele>
        <time>2022-07-15T08:20:28.000Z</time>
      </trkpt>
      <trkpt lat="49.89655" lon="4.75448">
        <ele>386</ele>
        <time>2022-07-15T08:20:29.000Z</time>
      </trkpt>
      <trkpt lat="49.89656" lon="4.75449">
        <ele>386</ele>
        <time>2022-07-15T08:20:30.000Z</time>
      </trkpt>
      <trkpt lat="49.89657" lon="4.7545">
        <ele>387</ele>
        <time>2022-07-15T08:20:31.000Z</time>
      </trkpt>
      <trkpt lat="49.89658" lon="4.75451">
        <ele>387</ele>
        <time>2022-07-15T08:20:32.000Z</time>
      </trkpt>
      <trkpt lat="49.89659" lon="4.75452">
        <ele>387</ele>
        <time>2022-07-15T08:20:33.000Z</time>
      </trkpt>
      <trkpt lat="49.8966" lon="4.75453">
        <ele>387</ele>
        <time>2022-07-15T08:20:34.000Z</time>
      </trkpt>
      <trkpt lat="49.89661" lon="4.75454">
        <ele>387</ele>
        <time>2022-07-15T08:20:35.000Z</time>
      </trkpt>
      <trkpt lat="49.89662" lon="4.75455">
        <ele>388</ele>
        <time>2022-07-15T08:20:36.000Z</time>
      </trkpt>
      <trkpt lat="49.89662" lon="4.75456">
        <ele>388</ele>
        <time>2022-07-15T08:20:37.000Z</time>
      </trkpt>
      <trkpt lat="49.89663" lon="4.75458">
        <ele>388</ele>
        <time>2022-07-15T08:20:38.000Z</time>
      </trkpt>
      <trkpt lat="49.89664" lon="4.75459">
        <ele>389</ele>
        <time>2022-07-15T08:20:39.000Z</time>
      </trkpt>
      <trkpt lat="49.89665" lon="4.75459">
        <ele>389</ele>
        <time>2022-07-15T08:20:40.000Z</time>
      </trkpt>
      <trkpt lat="49.89666" lon="4.75461">
        <ele>389</ele>
        <time>2022-07-15T08:20:41.000Z</time>
      </trkpt>
      <trkpt lat="49.89667" lon="4.75462">
        <ele>390</ele>
        <time>2022-07-15T08:20:42.000Z</time>
      </trkpt>
      <trkpt lat="49.89668" lon="4.75463">
        <ele>390</ele>
        <time>2022-07-15T08:20:43.000Z</time>
      </trkpt>
      <trkpt lat="49.89669" lon="4.75464">
        <ele>390</ele>
        <time>2022-07-15T08:20:44.000Z</time>
      </trkpt>
      <trkpt lat="49.8967" lon="4.75465">
        <ele>391</ele>
        <time>2022-07-15T08:20:45.000Z</time>
      </trkpt>
      <trkpt lat="49.89671" lon="4.75466">
        <ele>391</ele>
        <time>2022-07-15T08:20:46.000Z</time>
      </trkpt>
      <trkpt lat="49.89671" lon="4.75467">
        <ele>391</ele>
        <time>2022-07-15T08:20:47.000Z</time>
      </trkpt>
      <trkpt lat="49.89672" lon="4.75468">
        <ele>391</ele>
        <time>2022-07-15T08:20:48.000Z</time>
      </trkpt>
      <trkpt lat="49.89673" lon="4.75469">
        <ele>391</ele>
        <time>2022-07-15T08:20:49.000Z</time>
      </trkpt>
      <trkpt lat="49.89673" lon="4.7547">
        <ele>392</ele>
        <time>2022-07-15T08:20:50.000Z</time>
      </trkpt>
      <trkpt lat="49.89674" lon="4.75471">
        <ele>392</ele>
        <time>2022-07-15T08:20:51.000Z</time>
      </trkpt>
      <trkpt lat="49.89675" lon="4.75471">
        <ele>392</ele>
        <time>2022-07-15T08:20:52.000Z</time>
      </trkpt>
      <trkpt lat="49.89675" lon="4.75472">
        <ele>392</ele>
        <time>2022-07-15T08:20:53.000Z</time>
      </trkpt>
      <trkpt lat="49.89676" lon="4.75472">
        <ele>392</ele>
        <time>2022-07-15T08:20:54.000Z</time>
      </trkpt>
      <trkpt lat="49.89676" lon="4.75473">
        <ele>393</ele>
        <time>2022-07-15T08:20:55.000Z</time>
      </trkpt>
      <trkpt lat="49.89677" lon="4.75473">
        <ele>393</ele>
        <time>2022-07-15T08:20:56.000Z</time>
      </trkpt>
      <trkpt lat="49.89678" lon="4.75475">
        <ele>393</ele>
        <time>2022-07-15T08:20:57.000Z</time>
      </trkpt>
      <trkpt lat="49.89679" lon="4.75475">
        <ele>393</ele>
        <time>2022-07-15T08:20:58.000Z</time>
      </trkpt>
      <trkpt lat="49.8968" lon="4.75477">
        <ele>393</ele>
        <time>2022-07-15T08:20:59.000Z</time>
      </trkpt>
      <trkpt lat="49.89681" lon="4.75478">
        <ele>393</ele>
        <time>2022-07-15T08:21:00.000Z</time>
      </trkpt>
      <trkpt lat="49.89682" lon="4.75479">
        <ele>394</ele>
        <time>2022-07-15T08:21:01.000Z</time>
      </trkpt>
      <trkpt lat="49.89683" lon="4.75481">
        <ele>394</ele>
        <time>2022-07-15T08:21:02.000Z</time>
      </trkpt>
      <trkpt lat="49.89684" lon="4.75481">
        <ele>394</ele>
        <time>2022-07-15T08:21:03.000Z</time>
      </trkpt>
      <trkpt lat="49.89685" lon="4.75482">
        <ele>394</ele>
        <time>2022-07-15T08:21:04.000Z</time>
      </trkpt>
      <trkpt lat="49.89686" lon="4.75483">
        <ele>394</ele>
        <time>2022-07-15T08:21:05.000Z</time>
      </trkpt>
      <trkpt lat="49.89687" lon="4.75484">
        <ele>394</ele>
        <time>2022-07-15T08:21:06.000Z</time>
      </trkpt>
      <trkpt lat="49.89688" lon="4.75484">
        <ele>395</ele>
        <time>2022-07-15T08:21:07.000Z</time>
      </trkpt>
      <trkpt lat="49.89689" lon="4.75485">
        <ele>395</ele>
        <time>2022-07-15T08:21:08.000Z</time>
      </trkpt>
      <trkpt lat="49.8969" lon="4.75486">
        <ele>395</ele>
        <time>2022-07-15T08:21:09.000Z</time>
      </trkpt>
      <trkpt lat="49.89691" lon="4.75487">
        <ele>395</ele>
        <time>2022-07-15T08:21:10.000Z</time>
      </trkpt>
      <trkpt lat="49.89692" lon="4.75489">
        <ele>395</ele>
        <time>2022-07-15T08:21:11.000Z</time>
      </trkpt>
      <trkpt lat="49.89693" lon="4.75489">
        <ele>395</ele>
        <time>2022-07-15T08:21:12.000Z</time>
      </trkpt>
      <trkpt lat="49.89693" lon="4.75489">
        <ele>395</ele>
        <time>2022-07-15T08:21:13.000Z</time>
      </trkpt>
      <trkpt lat="49.89693" lon="4.75491">
        <ele>395</ele>
        <time>2022-07-15T08:21:14.000Z</time>
      </trkpt>
      <trkpt lat="49.89694" lon="4.75491">
        <ele>395</ele>
        <time>2022-07-15T08:21:15.000Z</time>
      </trkpt>
      <trkpt lat="49.89695" lon="4.75493">
        <ele>395</ele>
        <time>2022-07-15T08:21:16.000Z</time>
      </trkpt>
      <trkpt lat="49.89696" lon="4.75494">
        <ele>395</ele>
        <time>2022-07-15T08:21:17.000Z</time>
      </trkpt>
      <trkpt lat="49.89698" lon="4.75496">
        <ele>395</ele>
        <time>2022-07-15T08:21:18.000Z</time>
      </trkpt>
      <trkpt lat="49.897" lon="4.75498">
        <ele>395</ele>
        <time>2022-07-15T08:21:19.000Z</time>
      </trkpt>
      <trkpt lat="49.89701" lon="4.75499">
        <ele>395</ele>
        <time>2022-07-15T08:21:20.000Z</time>
      </trkpt>
      <trkpt lat="49.89703" lon="4.755">
        <ele>396</ele>
        <time>2022-07-15T08:21:21.000Z</time>
      </trkpt>
      <trkpt lat="49.89705" lon="4.75502">
        <ele>396</ele>
        <time>2022-07-15T08:21:22.000Z</time>
      </trkpt>
      <trkpt lat="49.89707" lon="4.75504">
        <ele>396</ele>
        <time>2022-07-15T08:21:23.000Z</time>
      </trkpt>
      <trkpt lat="49.89708" lon="4.75506">
        <ele>396</ele>
        <time>2022-07-15T08:21:24.000Z</time>
      </trkpt>
      <trkpt lat="49.8971" lon="4.75508">
        <ele>396</ele>
        <time>2022-07-15T08:21:25.000Z</time>
      </trkpt>
      <trkpt lat="49.89712" lon="4.7551">
        <ele>396</ele>
        <time>2022-07-15T08:21:26.000Z</time>
      </trkpt>
      <trkpt lat="49.89713" lon="4.75512">
        <ele>396</ele>
        <time>2022-07-15T08:21:27.000Z</time>
      </trkpt>
      <trkpt lat="49.89715" lon="4.75514">
        <ele>396</ele>
        <time>2022-07-15T08:21:28.000Z</time>
      </trkpt>
      <trkpt lat="49.89716" lon="4.75516">
        <ele>396</ele>
        <time>2022-07-15T08:21:29.000Z</time>
      </trkpt>
      <trkpt lat="49.89718" lon="4.75518">
        <ele>397</ele>
        <time>2022-07-15T08:21:30.000Z</time>
      </trkpt>
      <trkpt lat="49.89719" lon="4.7552">
        <ele>397</ele>
        <time>2022-07-15T08:21:31.000Z</time>
      </trkpt>
      <trkpt lat="49.89721" lon="4.75522">
        <ele>397</ele>
        <time>2022-07-15T08:21:32.000Z</time>
      </trkpt>
      <trkpt lat="49.89722" lon="4.75524">
        <ele>397</ele>
        <time>2022-07-15T08:21:33.000Z</time>
      </trkpt>
      <trkpt lat="49.89724" lon="4.75526">
        <ele>397</ele>
        <time>2022-07-15T08:21:34.000Z</time>
      </trkpt>
      <trkpt lat="49.89726" lon="4.75528">
        <ele>397</ele>
        <time>2022-07-15T08:21:35.000Z</time>
      </trkpt>
      <trkpt lat="49.89727" lon="4.75531">
        <ele>397</ele>
        <time>2022-07-15T08:21:36.000Z</time>
      </trkpt>
      <trkpt lat="49.89729" lon="4.75533">
        <ele>398</ele>
        <time>2022-07-15T08:21:37.000Z</time>
      </trkpt>
      <trkpt lat="49.89731" lon="4.75536">
        <ele>398</ele>
        <time>2022-07-15T08:21:38.000Z</time>
      </trkpt>
      <trkpt lat="49.89733" lon="4.75538">
        <ele>398</ele>
        <time>2022-07-15T08:21:39.000Z</time>
      </trkpt>
      <trkpt lat="49.89735" lon="4.7554">
        <ele>398</ele>
        <time>2022-07-15T08:21:40.000Z</time>
      </trkpt>
      <trkpt lat="49.89737" lon="4.75543">
        <ele>398</ele>
        <time>2022-07-15T08:21:41.000Z</time>
      </trkpt>
      <trkpt lat="49.89738" lon="4.75546">
        <ele>398</ele>
        <time>2022-07-15T08:21:42.000Z</time>
      </trkpt>
      <trkpt lat="49.8974" lon="4.75549">
        <ele>399</ele>
        <time>2022-07-15T08:21:43.000Z</time>
      </trkpt>
      <trkpt lat="49.89742" lon="4.75552">
        <ele>399</ele>
        <time>2022-07-15T08:21:44.000Z</time>
      </trkpt>
      <trkpt lat="49.89744" lon="4.75555">
        <ele>399</ele>
        <time>2022-07-15T08:21:45.000Z</time>
      </trkpt>
      <trkpt lat="49.89746" lon="4.75557">
        <ele>399</ele>
        <time>2022-07-15T08:21:46.000Z</time>
      </trkpt>
      <trkpt lat="49.89748" lon="4.7556">
        <ele>400</ele>
        <time>2022-07-15T08:21:47.000Z</time>
      </trkpt>
      <trkpt lat="49.8975" lon="4.75563">
        <ele>400</ele>
        <time>2022-07-15T08:21:48.000Z</time>
      </trkpt>
      <trkpt lat="49.89752" lon="4.75566">
        <ele>400</ele>
        <time>2022-07-15T08:21:49.000Z</time>
      </trkpt>
      <trkpt lat="49.89754" lon="4.75568">
        <ele>401</ele>
        <time>2022-07-15T08:21:50.000Z</time>
      </trkpt>
      <trkpt lat="49.89756" lon="4.75571">
        <ele>401</ele>
        <time>2022-07-15T08:21:51.000Z</time>
      </trkpt>
      <trkpt lat="49.89757" lon="4.75574">
        <ele>401</ele>
        <time>2022-07-15T08:21:52.000Z</time>
      </trkpt>
      <trkpt lat="49.89759" lon="4.75576">
        <ele>401</ele>
        <time>2022-07-15T08:21:53.000Z</time>
      </trkpt>
      <trkpt lat="49.89761" lon="4.75578">
        <ele>402</ele>
        <time>2022-07-15T08:21:54.000Z</time>
      </trkpt>
      <trkpt lat="49.89763" lon="4.75581">
        <ele>402</ele>
        <time>2022-07-15T08:21:55.000Z</time>
      </trkpt>
      <trkpt lat="49.89764" lon="4.75584">
        <ele>402</ele>
        <time>2022-07-15T08:21:56.000Z</time>
      </trkpt>
      <trkpt lat="49.89766" lon="4.75586">
        <ele>403</ele>
        <time>2022-07-15T08:21:57.000Z</time>
      </trkpt>
      <trkpt lat="49.89768" lon="4.75589">
        <ele>403</ele>
        <time>2022-07-15T08:21:58.000Z</time>
      </trkpt>
      <trkpt lat="49.8977" lon="4.75592">
        <ele>403</ele>
        <time>2022-07-15T08:21:59.000Z</time>
      </trkpt>
      <trkpt lat="49.89773" lon="4.75595">
        <ele>404</ele>
        <time>2022-07-15T08:22:00.000Z</time>
      </trkpt>
      <trkpt lat="49.89775" lon="4.75598">
        <ele>404</ele>
        <time>2022-07-15T08:22:01.000Z</time>
      </trkpt>
      <trkpt lat="49.89777" lon="4.75601">
        <ele>404</ele>
        <time>2022-07-15T08:22:02.000Z</time>
      </trkpt>
      <trkpt lat="49.89779" lon="4.75604">
        <ele>405</ele>
        <time>2022-07-15T08:22:03.000Z</time>
      </trkpt>
      <trkpt lat="49.89781" lon="4.75607">
        <ele>405</ele>
        <time>2022-07-15T08:22:04.000Z</time>
      </trkpt>
      <trkpt lat="49.89783" lon="4.7561">
        <ele>405</ele>
        <time>2022-07-15T08:22:05.000Z</time>
      </trkpt>
      <trkpt lat="49.89785" lon="4.75613">
        <ele>406</ele>
        <time>2022-07-15T08:22:06.000Z</time>
      </trkpt>
      <trkpt lat="49.89787" lon="4.75616">
        <ele>406</ele>
        <time>2022-07-15T08:22:07.000Z</time>
      </trkpt>
      <trkpt lat="49.89789" lon="4.75619">
        <ele>406</ele>
        <time>2022-07-15T08:22:08.000Z</time>
      </trkpt>
      <trkpt lat="49.89791" lon="4.75622">
        <ele>407</ele>
        <time>2022-07-15T08:22:09.000Z</time>
      </trkpt>
      <trkpt lat="49.89793" lon="4.75625">
        <ele>407</ele>
        <time>2022-07-15T08:22:10.000Z</time>
      </trkpt>
      <trkpt lat="49.89795" lon="4.75628">
        <ele>408</ele>
        <time>2022-07-15T08:22:11.000Z</time>
      </trkpt>
      <trkpt lat="49.89798" lon="4.75631">
        <ele>408</ele>
        <time>2022-07-15T08:22:12.000Z</time>
      </trkpt>
      <trkpt lat="49.898" lon="4.75635">
        <ele>409</ele>
        <time>2022-07-15T08:22:13.000Z</time>
      </trkpt>
      <trkpt lat="49.89802" lon="4.75638">
        <ele>409</ele>
        <time>2022-07-15T08:22:14.000Z</time>
      </trkpt>
      <trkpt lat="49.89804" lon="4.75641">
        <ele>410</ele>
        <time>2022-07-15T08:22:15.000Z</time>
      </trkpt>
      <trkpt lat="49.89806" lon="4.75644">
        <ele>410</ele>
        <time>2022-07-15T08:22:16.000Z</time>
      </trkpt>
      <trkpt lat="49.89808" lon="4.75647">
        <ele>411</ele>
        <time>2022-07-15T08:22:17.000Z</time>
      </trkpt>
      <trkpt lat="49.8981" lon="4.7565">
        <ele>411</ele>
        <time>2022-07-15T08:22:18.000Z</time>
      </trkpt>
      <trkpt lat="49.89811" lon="4.75653">
        <ele>411</ele>
        <time>2022-07-15T08:22:19.000Z</time>
      </trkpt>
      <trkpt lat="49.89814" lon="4.75655">
        <ele>412</ele>
        <time>2022-07-15T08:22:20.000Z</time>
      </trkpt>
      <trkpt lat="49.89816" lon="4.75658">
        <ele>412</ele>
        <time>2022-07-15T08:22:21.000Z</time>
      </trkpt>
      <trkpt lat="49.89818" lon="4.75661">
        <ele>412</ele>
        <time>2022-07-15T08:22:22.000Z</time>
      </trkpt>
      <trkpt lat="49.8982" lon="4.75663">
        <ele>412</ele>
        <time>2022-07-15T08:22:23.000Z</time>
      </trkpt>
      <trkpt lat="49.89821" lon="4.75666">
        <ele>412</ele>
        <time>2022-07-15T08:22:24.000Z</time>
      </trkpt>
      <trkpt lat="49.89823" lon="4.75669">
        <ele>413</ele>
        <time>2022-07-15T08:22:25.000Z</time>
      </trkpt>
      <trkpt lat="49.89825" lon="4.75672">
        <ele>413</ele>
        <time>2022-07-15T08:22:26.000Z</time>
      </trkpt>
      <trkpt lat="49.89827" lon="4.75675">
        <ele>413</ele>
        <time>2022-07-15T08:22:27.000Z</time>
      </trkpt>
      <trkpt lat="49.89829" lon="4.75678">
        <ele>413</ele>
        <time>2022-07-15T08:22:28.000Z</time>
      </trkpt>
      <trkpt lat="49.89831" lon="4.75681">
        <ele>414</ele>
        <time>2022-07-15T08:22:29.000Z</time>
      </trkpt>
      <trkpt lat="49.89833" lon="4.75684">
        <ele>414</ele>
        <time>2022-07-15T08:22:30.000Z</time>
      </trkpt>
      <trkpt lat="49.89836" lon="4.75688">
        <ele>414</ele>
        <time>2022-07-15T08:22:31.000Z</time>
      </trkpt>
      <trkpt lat="49.89838" lon="4.75691">
        <ele>414</ele>
        <time>2022-07-15T08:22:32.000Z</time>
      </trkpt>
      <trkpt lat="49.8984" lon="4.75694">
        <ele>414</ele>
        <time>2022-07-15T08:22:33.000Z</time>
      </trkpt>
      <trkpt lat="49.89842" lon="4.75696">
        <ele>415</ele>
        <time>2022-07-15T08:22:34.000Z</time>
      </trkpt>
      <trkpt lat="49.89844" lon="4.757">
        <ele>415</ele>
        <time>2022-07-15T08:22:35.000Z</time>
      </trkpt>
      <trkpt lat="49.89847" lon="4.75703">
        <ele>415</ele>
        <time>2022-07-15T08:22:36.000Z</time>
      </trkpt>
      <trkpt lat="49.89849" lon="4.75706">
        <ele>415</ele>
        <time>2022-07-15T08:22:37.000Z</time>
      </trkpt>
      <trkpt lat="49.89851" lon="4.75709">
        <ele>415</ele>
        <time>2022-07-15T08:22:38.000Z</time>
      </trkpt>
      <trkpt lat="49.89854" lon="4.75712">
        <ele>416</ele>
        <time>2022-07-15T08:22:39.000Z</time>
      </trkpt>
      <trkpt lat="49.89856" lon="4.75716">
        <ele>416</ele>
        <time>2022-07-15T08:22:40.000Z</time>
      </trkpt>
      <trkpt lat="49.89858" lon="4.75719">
        <ele>416</ele>
        <time>2022-07-15T08:22:41.000Z</time>
      </trkpt>
      <trkpt lat="49.8986" lon="4.75721">
        <ele>416</ele>
        <time>2022-07-15T08:22:42.000Z</time>
      </trkpt>
      <trkpt lat="49.89862" lon="4.75724">
        <ele>416</ele>
        <time>2022-07-15T08:22:43.000Z</time>
      </trkpt>
      <trkpt lat="49.89865" lon="4.75726">
        <ele>417</ele>
        <time>2022-07-15T08:22:44.000Z</time>
      </trkpt>
      <trkpt lat="49.89867" lon="4.75729">
        <ele>417</ele>
        <time>2022-07-15T08:22:45.000Z</time>
      </trkpt>
      <trkpt lat="49.8987" lon="4.75731">
        <ele>417</ele>
        <time>2022-07-15T08:22:46.000Z</time>
      </trkpt>
      <trkpt lat="49.89872" lon="4.75733">
        <ele>417</ele>
        <time>2022-07-15T08:22:47.000Z</time>
      </trkpt>
      <trkpt lat="49.89875" lon="4.75736">
        <ele>417</ele>
        <time>2022-07-15T08:22:48.000Z</time>
      </trkpt>
      <trkpt lat="49.89877" lon="4.75739">
        <ele>417</ele>
        <time>2022-07-15T08:22:49.000Z</time>
      </trkpt>
      <trkpt lat="49.89879" lon="4.75742">
        <ele>417</ele>
        <time>2022-07-15T08:22:50.000Z</time>
      </trkpt>
      <trkpt lat="49.89881" lon="4.75746">
        <ele>417</ele>
        <time>2022-07-15T08:22:51.000Z</time>
      </trkpt>
      <trkpt lat="49.89884" lon="4.75749">
        <ele>418</ele>
        <time>2022-07-15T08:22:52.000Z</time>
      </trkpt>
      <trkpt lat="49.89886" lon="4.75752">
        <ele>418</ele>
        <time>2022-07-15T08:22:53.000Z</time>
      </trkpt>
      <trkpt lat="49.89888" lon="4.75756">
        <ele>418</ele>
        <time>2022-07-15T08:22:54.000Z</time>
      </trkpt>
      <trkpt lat="49.89891" lon="4.75759">
        <ele>418</ele>
        <time>2022-07-15T08:22:55.000Z</time>
      </trkpt>
      <trkpt lat="49.89894" lon="4.75762">
        <ele>418</ele>
        <time>2022-07-15T08:22:56.000Z</time>
      </trkpt>
      <trkpt lat="49.89896" lon="4.75766">
        <ele>418</ele>
        <time>2022-07-15T08:22:57.000Z</time>
      </trkpt>
      <trkpt lat="49.89899" lon="4.7577">
        <ele>418</ele>
        <time>2022-07-15T08:22:58.000Z</time>
      </trkpt>
      <trkpt lat="49.89902" lon="4.75774">
        <ele>418</ele>
        <time>2022-07-15T08:22:59.000Z</time>
      </trkpt>
      <trkpt lat="49.89904" lon="4.75778">
        <ele>418</ele>
        <time>2022-07-15T08:23:00.000Z</time>
      </trkpt>
      <trkpt lat="49.89907" lon="4.75781">
        <ele>418</ele>
        <time>2022-07-15T08:23:01.000Z</time>
      </trkpt>
      <trkpt lat="49.8991" lon="4.75784">
        <ele>418</ele>
        <time>2022-07-15T08:23:02.000Z</time>
      </trkpt>
      <trkpt lat="49.89913" lon="4.75788">
        <ele>418</ele>
        <time>2022-07-15T08:23:03.000Z</time>
      </trkpt>
      <trkpt lat="49.89915" lon="4.75791">
        <ele>418</ele>
        <time>2022-07-15T08:23:04.000Z</time>
      </trkpt>
      <trkpt lat="49.89918" lon="4.75795">
        <ele>418</ele>
        <time>2022-07-15T08:23:05.000Z</time>
      </trkpt>
      <trkpt lat="49.89921" lon="4.75799">
        <ele>418</ele>
        <time>2022-07-15T08:23:06.000Z</time>
      </trkpt>
      <trkpt lat="49.89923" lon="4.75802">
        <ele>418</ele>
        <time>2022-07-15T08:23:07.000Z</time>
      </trkpt>
      <trkpt lat="49.89926" lon="4.75807">
        <ele>418</ele>
        <time>2022-07-15T08:23:08.000Z</time>
      </trkpt>
      <trkpt lat="49.89928" lon="4.75811">
        <ele>418</ele>
        <time>2022-07-15T08:23:09.000Z</time>
      </trkpt>
      <trkpt lat="49.89931" lon="4.75816">
        <ele>419</ele>
        <time>2022-07-15T08:23:10.000Z</time>
      </trkpt>
      <trkpt lat="49.89934" lon="4.7582">
        <ele>419</ele>
        <time>2022-07-15T08:23:11.000Z</time>
      </trkpt>
      <trkpt lat="49.89937" lon="4.75825">
        <ele>419</ele>
        <time>2022-07-15T08:23:12.000Z</time>
      </trkpt>
      <trkpt lat="49.89939" lon="4.75829">
        <ele>419</ele>
        <time>2022-07-15T08:23:13.000Z</time>
      </trkpt>
      <trkpt lat="49.89942" lon="4.75833">
        <ele>419</ele>
        <time>2022-07-15T08:23:14.000Z</time>
      </trkpt>
      <trkpt lat="49.89945" lon="4.75838">
        <ele>419</ele>
        <time>2022-07-15T08:23:15.000Z</time>
      </trkpt>
      <trkpt lat="49.89948" lon="4.75842">
        <ele>419</ele>
        <time>2022-07-15T08:23:16.000Z</time>
      </trkpt>
      <trkpt lat="49.89951" lon="4.75846">
        <ele>420</ele>
        <time>2022-07-15T08:23:17.000Z</time>
      </trkpt>
      <trkpt lat="49.89954" lon="4.75851">
        <ele>420</ele>
        <time>2022-07-15T08:23:18.000Z</time>
      </trkpt>
      <trkpt lat="49.89957" lon="4.75854">
        <ele>420</ele>
        <time>2022-07-15T08:23:19.000Z</time>
      </trkpt>
      <trkpt lat="49.8996" lon="4.75859">
        <ele>421</ele>
        <time>2022-07-15T08:23:20.000Z</time>
      </trkpt>
      <trkpt lat="49.89963" lon="4.75863">
        <ele>421</ele>
        <time>2022-07-15T08:23:21.000Z</time>
      </trkpt>
      <trkpt lat="49.89965" lon="4.75868">
        <ele>422</ele>
        <time>2022-07-15T08:23:22.000Z</time>
      </trkpt>
      <trkpt lat="49.89968" lon="4.75872">
        <ele>422</ele>
        <time>2022-07-15T08:23:23.000Z</time>
      </trkpt>
      <trkpt lat="49.89971" lon="4.75877">
        <ele>422</ele>
        <time>2022-07-15T08:23:24.000Z</time>
      </trkpt>
      <trkpt lat="49.89974" lon="4.75881">
        <ele>423</ele>
        <time>2022-07-15T08:23:25.000Z</time>
      </trkpt>
      <trkpt lat="49.89977" lon="4.75885">
        <ele>423</ele>
        <time>2022-07-15T08:23:26.000Z</time>
      </trkpt>
      <trkpt lat="49.8998" lon="4.75889">
        <ele>423</ele>
        <time>2022-07-15T08:23:27.000Z</time>
      </trkpt>
      <trkpt lat="49.89983" lon="4.75894">
        <ele>423</ele>
        <time>2022-07-15T08:23:28.000Z</time>
      </trkpt>
      <trkpt lat="49.89986" lon="4.75899">
        <ele>424</ele>
        <time>2022-07-15T08:23:29.000Z</time>
      </trkpt>
      <trkpt lat="49.89989" lon="4.75903">
        <ele>424</ele>
        <time>2022-07-15T08:23:30.000Z</time>
      </trkpt>
      <trkpt lat="49.89992" lon="4.75907">
        <ele>424</ele>
        <time>2022-07-15T08:23:31.000Z</time>
      </trkpt>
      <trkpt lat="49.89995" lon="4.75912">
        <ele>424</ele>
        <time>2022-07-15T08:23:32.000Z</time>
      </trkpt>
      <trkpt lat="49.89998" lon="4.75916">
        <ele>424</ele>
        <time>2022-07-15T08:23:33.000Z</time>
      </trkpt>
      <trkpt lat="49.90001" lon="4.7592">
        <ele>424</ele>
        <time>2022-07-15T08:23:34.000Z</time>
      </trkpt>
      <trkpt lat="49.90004" lon="4.75924">
        <ele>424</ele>
        <time>2022-07-15T08:23:35.000Z</time>
      </trkpt>
      <trkpt lat="49.90007" lon="4.75929">
        <ele>424</ele>
        <time>2022-07-15T08:23:36.000Z</time>
      </trkpt>
      <trkpt lat="49.9001" lon="4.75933">
        <ele>424</ele>
        <time>2022-07-15T08:23:37.000Z</time>
      </trkpt>
      <trkpt lat="49.90013" lon="4.75937">
        <ele>424</ele>
        <time>2022-07-15T08:23:38.000Z</time>
      </trkpt>
      <trkpt lat="49.90016" lon="4.75941">
        <ele>424</ele>
        <time>2022-07-15T08:23:39.000Z</time>
      </trkpt>
      <trkpt lat="49.90019" lon="4.75945">
        <ele>424</ele>
        <time>2022-07-15T08:23:40.000Z</time>
      </trkpt>
      <trkpt lat="49.90022" lon="4.75949">
        <ele>424</ele>
        <time>2022-07-15T08:23:41.000Z</time>
      </trkpt>
      <trkpt lat="49.90024" lon="4.75954">
        <ele>424</ele>
        <time>2022-07-15T08:23:42.000Z</time>
      </trkpt>
      <trkpt lat="49.90027" lon="4.75957">
        <ele>424</ele>
        <time>2022-07-15T08:23:43.000Z</time>
      </trkpt>
      <trkpt lat="49.9003" lon="4.75961">
        <ele>424</ele>
        <time>2022-07-15T08:23:44.000Z</time>
      </trkpt>
      <trkpt lat="49.90033" lon="4.75965">
        <ele>423</ele>
        <time>2022-07-15T08:23:45.000Z</time>
      </trkpt>
      <trkpt lat="49.90035" lon="4.75969">
        <ele>423</ele>
        <time>2022-07-15T08:23:46.000Z</time>
      </trkpt>
      <trkpt lat="49.90038" lon="4.75973">
        <ele>423</ele>
        <time>2022-07-15T08:23:47.000Z</time>
      </trkpt>
      <trkpt lat="49.90041" lon="4.75976">
        <ele>423</ele>
        <time>2022-07-15T08:23:48.000Z</time>
      </trkpt>
      <trkpt lat="49.90044" lon="4.7598">
        <ele>423</ele>
        <time>2022-07-15T08:23:49.000Z</time>
      </trkpt>
      <trkpt lat="49.90047" lon="4.75985">
        <ele>423</ele>
        <time>2022-07-15T08:23:50.000Z</time>
      </trkpt>
      <trkpt lat="49.90049" lon="4.75989">
        <ele>423</ele>
        <time>2022-07-15T08:23:51.000Z</time>
      </trkpt>
      <trkpt lat="49.90052" lon="4.75994">
        <ele>423</ele>
        <time>2022-07-15T08:23:52.000Z</time>
      </trkpt>
      <trkpt lat="49.90055" lon="4.75998">
        <ele>423</ele>
        <time>2022-07-15T08:23:53.000Z</time>
      </trkpt>
      <trkpt lat="49.90058" lon="4.76003">
        <ele>423</ele>
        <time>2022-07-15T08:23:54.000Z</time>
      </trkpt>
      <trkpt lat="49.90062" lon="4.76007">
        <ele>423</ele>
        <time>2022-07-15T08:23:55.000Z</time>
      </trkpt>
      <trkpt lat="49.90065" lon="4.76012">
        <ele>423</ele>
        <time>2022-07-15T08:23:56.000Z</time>
      </trkpt>
      <trkpt lat="49.90069" lon="4.76017">
        <ele>423</ele>
        <time>2022-07-15T08:23:57.000Z</time>
      </trkpt>
      <trkpt lat="49.90072" lon="4.76022">
        <ele>423</ele>
        <time>2022-07-15T08:23:58.000Z</time>
      </trkpt>
      <trkpt lat="49.90076" lon="4.76028">
        <ele>423</ele>
        <time>2022-07-15T08:23:59.000Z</time>
      </trkpt>
      <trkpt lat="49.9008" lon="4.76034">
        <ele>423</ele>
        <time>2022-07-15T08:24:00.000Z</time>
      </trkpt>
      <trkpt lat="49.90085" lon="4.76041">
        <ele>423</ele>
        <time>2022-07-15T08:24:01.000Z</time>
      </trkpt>
      <trkpt lat="49.90089" lon="4.76047">
        <ele>423</ele>
        <time>2022-07-15T08:24:02.000Z</time>
      </trkpt>
      <trkpt lat="49.90094" lon="4.76054">
        <ele>423</ele>
        <time>2022-07-15T08:24:03.000Z</time>
      </trkpt>
      <trkpt lat="49.90099" lon="4.76061">
        <ele>423</ele>
        <time>2022-07-15T08:24:04.000Z</time>
      </trkpt>
      <trkpt lat="49.90103" lon="4.76068">
        <ele>423</ele>
        <time>2022-07-15T08:24:05.000Z</time>
      </trkpt>
      <trkpt lat="49.90108" lon="4.76076">
        <ele>423</ele>
        <time>2022-07-15T08:24:06.000Z</time>
      </trkpt>
      <trkpt lat="49.90113" lon="4.76083">
        <ele>423</ele>
        <time>2022-07-15T08:24:07.000Z</time>
      </trkpt>
      <trkpt lat="49.90119" lon="4.76091">
        <ele>423</ele>
        <time>2022-07-15T08:24:08.000Z</time>
      </trkpt>
      <trkpt lat="49.90124" lon="4.76099">
        <ele>422</ele>
        <time>2022-07-15T08:24:09.000Z</time>
      </trkpt>
      <trkpt lat="49.9013" lon="4.76107">
        <ele>422</ele>
        <time>2022-07-15T08:24:10.000Z</time>
      </trkpt>
      <trkpt lat="49.90136" lon="4.76116">
        <ele>422</ele>
        <time>2022-07-15T08:24:11.000Z</time>
      </trkpt>
      <trkpt lat="49.90142" lon="4.76124">
        <ele>422</ele>
        <time>2022-07-15T08:24:12.000Z</time>
      </trkpt>
      <trkpt lat="49.90148" lon="4.76133">
        <ele>422</ele>
        <time>2022-07-15T08:24:13.000Z</time>
      </trkpt>
      <trkpt lat="49.90154" lon="4.76142">
        <ele>421</ele>
        <time>2022-07-15T08:24:14.000Z</time>
      </trkpt>
      <trkpt lat="49.9016" lon="4.7615">
        <ele>421</ele>
        <time>2022-07-15T08:24:15.000Z</time>
      </trkpt>
      <trkpt lat="49.90166" lon="4.76159">
        <ele>421</ele>
        <time>2022-07-15T08:24:16.000Z</time>
      </trkpt>
      <trkpt lat="49.90172" lon="4.76168">
        <ele>421</ele>
        <time>2022-07-15T08:24:17.000Z</time>
      </trkpt>
      <trkpt lat="49.90178" lon="4.76177">
        <ele>420</ele>
        <time>2022-07-15T08:24:18.000Z</time>
      </trkpt>
      <trkpt lat="49.90185" lon="4.76186">
        <ele>420</ele>
        <time>2022-07-15T08:24:19.000Z</time>
      </trkpt>
      <trkpt lat="49.9019" lon="4.76194">
        <ele>420</ele>
        <time>2022-07-15T08:24:20.000Z</time>
      </trkpt>
      <trkpt lat="49.90197" lon="4.76203">
        <ele>420</ele>
        <time>2022-07-15T08:24:21.000Z</time>
      </trkpt>
      <trkpt lat="49.90202" lon="4.76211">
        <ele>420</ele>
        <time>2022-07-15T08:24:22.000Z</time>
      </trkpt>
      <trkpt lat="49.90208" lon="4.76219">
        <ele>420</ele>
        <time>2022-07-15T08:24:23.000Z</time>
      </trkpt>
      <trkpt lat="49.90214" lon="4.76227">
        <ele>420</ele>
        <time>2022-07-15T08:24:24.000Z</time>
      </trkpt>
      <trkpt lat="49.9022" lon="4.76235">
        <ele>419</ele>
        <time>2022-07-15T08:24:25.000Z</time>
      </trkpt>
      <trkpt lat="49.90226" lon="4.76244">
        <ele>419</ele>
        <time>2022-07-15T08:24:26.000Z</time>
      </trkpt>
      <trkpt lat="49.90233" lon="4.76251">
        <ele>419</ele>
        <time>2022-07-15T08:24:27.000Z</time>
      </trkpt>
      <trkpt lat="49.90239" lon="4.76259">
        <ele>419</ele>
        <time>2022-07-15T08:24:28.000Z</time>
      </trkpt>
      <trkpt lat="49.90245" lon="4.76267">
        <ele>419</ele>
        <time>2022-07-15T08:24:29.000Z</time>
      </trkpt>
      <trkpt lat="49.90251" lon="4.76275">
        <ele>419</ele>
        <time>2022-07-15T08:24:30.000Z</time>
      </trkpt>
      <trkpt lat="49.90257" lon="4.76282">
        <ele>418</ele>
        <time>2022-07-15T08:24:31.000Z</time>
      </trkpt>
      <trkpt lat="49.90263" lon="4.76289">
        <ele>418</ele>
        <time>2022-07-15T08:24:32.000Z</time>
      </trkpt>
      <trkpt lat="49.90269" lon="4.76297">
        <ele>418</ele>
        <time>2022-07-15T08:24:33.000Z</time>
      </trkpt>
      <trkpt lat="49.90274" lon="4.76304">
        <ele>418</ele>
        <time>2022-07-15T08:24:34.000Z</time>
      </trkpt>
      <trkpt lat="49.90279" lon="4.76311">
        <ele>418</ele>
        <time>2022-07-15T08:24:35.000Z</time>
      </trkpt>
      <trkpt lat="49.90284" lon="4.76318">
        <ele>418</ele>
        <time>2022-07-15T08:24:36.000Z</time>
      </trkpt>
      <trkpt lat="49.90288" lon="4.76324">
        <ele>418</ele>
        <time>2022-07-15T08:24:37.000Z</time>
      </trkpt>
      <trkpt lat="49.90293" lon="4.7633">
        <ele>417</ele>
        <time>2022-07-15T08:24:38.000Z</time>
      </trkpt>
      <trkpt lat="49.90297" lon="4.76336">
        <ele>417</ele>
        <time>2022-07-15T08:24:39.000Z</time>
      </trkpt>
      <trkpt lat="49.90301" lon="4.76341">
        <ele>417</ele>
        <time>2022-07-15T08:24:40.000Z</time>
      </trkpt>
      <trkpt lat="49.90304" lon="4.76346">
        <ele>417</ele>
        <time>2022-07-15T08:24:41.000Z</time>
      </trkpt>
      <trkpt lat="49.90308" lon="4.76351">
        <ele>417</ele>
        <time>2022-07-15T08:24:42.000Z</time>
      </trkpt>
      <trkpt lat="49.90311" lon="4.76356">
        <ele>417</ele>
        <time>2022-07-15T08:24:43.000Z</time>
      </trkpt>
      <trkpt lat="49.90313" lon="4.7636">
        <ele>417</ele>
        <time>2022-07-15T08:24:44.000Z</time>
      </trkpt>
      <trkpt lat="49.90315" lon="4.76365">
        <ele>417</ele>
        <time>2022-07-15T08:24:45.000Z</time>
      </trkpt>
      <trkpt lat="49.90316" lon="4.76371">
        <ele>417</ele>
        <time>2022-07-15T08:24:46.000Z</time>
      </trkpt>
      <trkpt lat="49.90317" lon="4.76376">
        <ele>417</ele>
        <time>2022-07-15T08:24:47.000Z</time>
      </trkpt>
      <trkpt lat="49.90318" lon="4.76383">
        <ele>417</ele>
        <time>2022-07-15T08:24:48.000Z</time>
      </trkpt>
      <trkpt lat="49.90318" lon="4.76389">
        <ele>417</ele>
        <time>2022-07-15T08:24:49.000Z</time>
      </trkpt>
      <trkpt lat="49.90319" lon="4.76396">
        <ele>417</ele>
        <time>2022-07-15T08:24:50.000Z</time>
      </trkpt>
      <trkpt lat="49.9032" lon="4.76403">
        <ele>417</ele>
        <time>2022-07-15T08:24:51.000Z</time>
      </trkpt>
      <trkpt lat="49.90321" lon="4.7641">
        <ele>416</ele>
        <time>2022-07-15T08:24:52.000Z</time>
      </trkpt>
      <trkpt lat="49.90322" lon="4.76416">
        <ele>416</ele>
        <time>2022-07-15T08:24:53.000Z</time>
      </trkpt>
      <trkpt lat="49.90323" lon="4.76423">
        <ele>416</ele>
        <time>2022-07-15T08:24:54.000Z</time>
      </trkpt>
      <trkpt lat="49.90324" lon="4.76429">
        <ele>416</ele>
        <time>2022-07-15T08:24:55.000Z</time>
      </trkpt>
      <trkpt lat="49.90325" lon="4.76435">
        <ele>416</ele>
        <time>2022-07-15T08:24:56.000Z</time>
      </trkpt>
      <trkpt lat="49.90327" lon="4.76441">
        <ele>416</ele>
        <time>2022-07-15T08:24:57.000Z</time>
      </trkpt>
      <trkpt lat="49.90329" lon="4.76446">
        <ele>416</ele>
        <time>2022-07-15T08:24:58.000Z</time>
      </trkpt>
      <trkpt lat="49.9033" lon="4.76453">
        <ele>415</ele>
        <time>2022-07-15T08:24:59.000Z</time>
      </trkpt>
      <trkpt lat="49.90332" lon="4.76459">
        <ele>415</ele>
        <time>2022-07-15T08:25:00.000Z</time>
      </trkpt>
      <trkpt lat="49.90334" lon="4.76467">
        <ele>415</ele>
        <time>2022-07-15T08:25:01.000Z</time>
      </trkpt>
      <trkpt lat="49.90335" lon="4.76474">
        <ele>415</ele>
        <time>2022-07-15T08:25:02.000Z</time>
      </trkpt>
      <trkpt lat="49.90336" lon="4.76481">
        <ele>415</ele>
        <time>2022-07-15T08:25:03.000Z</time>
      </trkpt>
      <trkpt lat="49.90338" lon="4.76489">
        <ele>415</ele>
        <time>2022-07-15T08:25:04.000Z</time>
      </trkpt>
      <trkpt lat="49.90339" lon="4.76496">
        <ele>415</ele>
        <time>2022-07-15T08:25:05.000Z</time>
      </trkpt>
      <trkpt lat="49.90341" lon="4.76503">
        <ele>414</ele>
        <time>2022-07-15T08:25:06.000Z</time>
      </trkpt>
      <trkpt lat="49.90342" lon="4.7651">
        <ele>414</ele>
        <time>2022-07-15T08:25:07.000Z</time>
      </trkpt>
      <trkpt lat="49.90343" lon="4.76518">
        <ele>414</ele>
        <time>2022-07-15T08:25:08.000Z</time>
      </trkpt>
      <trkpt lat="49.90344" lon="4.76526">
        <ele>414</ele>
        <time>2022-07-15T08:25:09.000Z</time>
      </trkpt>
      <trkpt lat="49.90345" lon="4.76533">
        <ele>414</ele>
        <time>2022-07-15T08:25:10.000Z</time>
      </trkpt>
      <trkpt lat="49.90347" lon="4.76541">
        <ele>414</ele>
        <time>2022-07-15T08:25:11.000Z</time>
      </trkpt>
      <trkpt lat="49.90348" lon="4.76549">
        <ele>414</ele>
        <time>2022-07-15T08:25:12.000Z</time>
      </trkpt>
      <trkpt lat="49.90349" lon="4.76556">
        <ele>413</ele>
        <time>2022-07-15T08:25:13.000Z</time>
      </trkpt>
      <trkpt lat="49.9035" lon="4.76564">
        <ele>413</ele>
        <time>2022-07-15T08:25:14.000Z</time>
      </trkpt>
      <trkpt lat="49.90351" lon="4.76572">
        <ele>413</ele>
        <time>2022-07-15T08:25:15.000Z</time>
      </trkpt>
      <trkpt lat="49.90352" lon="4.7658">
        <ele>413</ele>
        <time>2022-07-15T08:25:16.000Z</time>
      </trkpt>
      <trkpt lat="49.90353" lon="4.76588">
        <ele>413</ele>
        <time>2022-07-15T08:25:17.000Z</time>
      </trkpt>
      <trkpt lat="49.90353" lon="4.76597">
        <ele>413</ele>
        <time>2022-07-15T08:25:18.000Z</time>
      </trkpt>
      <trkpt lat="49.90354" lon="4.76605">
        <ele>413</ele>
        <time>2022-07-15T08:25:19.000Z</time>
      </trkpt>
      <trkpt lat="49.90355" lon="4.76614">
        <ele>413</ele>
        <time>2022-07-15T08:25:20.000Z</time>
      </trkpt>
      <trkpt lat="49.90356" lon="4.76622">
        <ele>413</ele>
        <time>2022-07-15T08:25:21.000Z</time>
      </trkpt>
      <trkpt lat="49.90356" lon="4.76631">
        <ele>413</ele>
        <time>2022-07-15T08:25:22.000Z</time>
      </trkpt>
      <trkpt lat="49.90357" lon="4.76639">
        <ele>413</ele>
        <time>2022-07-15T08:25:23.000Z</time>
      </trkpt>
      <trkpt lat="49.90358" lon="4.76647">
        <ele>413</ele>
        <time>2022-07-15T08:25:24.000Z</time>
      </trkpt>
      <trkpt lat="49.90359" lon="4.76656">
        <ele>413</ele>
        <time>2022-07-15T08:25:25.000Z</time>
      </trkpt>
      <trkpt lat="49.90359" lon="4.76664">
        <ele>413</ele>
        <time>2022-07-15T08:25:26.000Z</time>
      </trkpt>
      <trkpt lat="49.9036" lon="4.76673">
        <ele>413</ele>
        <time>2022-07-15T08:25:27.000Z</time>
      </trkpt>
      <trkpt lat="49.9036" lon="4.76681">
        <ele>413</ele>
        <time>2022-07-15T08:25:28.000Z</time>
      </trkpt>
      <trkpt lat="49.90361" lon="4.7669">
        <ele>413</ele>
        <time>2022-07-15T08:25:29.000Z</time>
      </trkpt>
      <trkpt lat="49.90363" lon="4.76698">
        <ele>413</ele>
        <time>2022-07-15T08:25:30.000Z</time>
      </trkpt>
      <trkpt lat="49.90364" lon="4.76707">
        <ele>413</ele>
        <time>2022-07-15T08:25:31.000Z</time>
      </trkpt>
      <trkpt lat="49.90365" lon="4.76715">
        <ele>413</ele>
        <time>2022-07-15T08:25:32.000Z</time>
      </trkpt>
      <trkpt lat="49.90365" lon="4.76724">
        <ele>413</ele>
        <time>2022-07-15T08:25:33.000Z</time>
      </trkpt>
      <trkpt lat="49.90366" lon="4.76732">
        <ele>412</ele>
        <time>2022-07-15T08:25:34.000Z</time>
      </trkpt>
      <trkpt lat="49.90367" lon="4.76741">
        <ele>412</ele>
        <time>2022-07-15T08:25:35.000Z</time>
      </trkpt>
      <trkpt lat="49.90367" lon="4.76749">
        <ele>412</ele>
        <time>2022-07-15T08:25:36.000Z</time>
      </trkpt>
      <trkpt lat="49.90368" lon="4.76758">
        <ele>412</ele>
        <time>2022-07-15T08:25:37.000Z</time>
      </trkpt>
      <trkpt lat="49.90369" lon="4.76766">
        <ele>412</ele>
        <time>2022-07-15T08:25:38.000Z</time>
      </trkpt>
      <trkpt lat="49.90369" lon="4.76775">
        <ele>412</ele>
        <time>2022-07-15T08:25:39.000Z</time>
      </trkpt>
      <trkpt lat="49.90369" lon="4.76784">
        <ele>411</ele>
        <time>2022-07-15T08:25:40.000Z</time>
      </trkpt>
      <trkpt lat="49.90368" lon="4.76793">
        <ele>411</ele>
        <time>2022-07-15T08:25:41.000Z</time>
      </trkpt>
      <trkpt lat="49.90368" lon="4.76802">
        <ele>411</ele>
        <time>2022-07-15T08:25:42.000Z</time>
      </trkpt>
      <trkpt lat="49.90367" lon="4.7681">
        <ele>411</ele>
        <time>2022-07-15T08:25:43.000Z</time>
      </trkpt>
      <trkpt lat="49.90367" lon="4.76818">
        <ele>411</ele>
        <time>2022-07-15T08:25:44.000Z</time>
      </trkpt>
      <trkpt lat="49.90366" lon="4.76827">
        <ele>411</ele>
        <time>2022-07-15T08:25:45.000Z</time>
      </trkpt>
      <trkpt lat="49.90366" lon="4.76835">
        <ele>410</ele>
        <time>2022-07-15T08:25:46.000Z</time>
      </trkpt>
      <trkpt lat="49.90366" lon="4.76844">
        <ele>410</ele>
        <time>2022-07-15T08:25:47.000Z</time>
      </trkpt>
      <trkpt lat="49.90366" lon="4.76853">
        <ele>410</ele>
        <time>2022-07-15T08:25:48.000Z</time>
      </trkpt>
      <trkpt lat="49.90366" lon="4.76861">
        <ele>410</ele>
        <time>2022-07-15T08:25:49.000Z</time>
      </trkpt>
      <trkpt lat="49.90366" lon="4.7687">
        <ele>410</ele>
        <time>2022-07-15T08:25:50.000Z</time>
      </trkpt>
      <trkpt lat="49.90365" lon="4.76878">
        <ele>410</ele>
        <time>2022-07-15T08:25:51.000Z</time>
      </trkpt>
      <trkpt lat="49.90365" lon="4.76887">
        <ele>409</ele>
        <time>2022-07-15T08:25:52.000Z</time>
      </trkpt>
      <trkpt lat="49.90365" lon="4.76895">
        <ele>409</ele>
        <time>2022-07-15T08:25:53.000Z</time>
      </trkpt>
      <trkpt lat="49.90364" lon="4.76904">
        <ele>409</ele>
        <time>2022-07-15T08:25:54.000Z</time>
      </trkpt>
      <trkpt lat="49.90364" lon="4.76914">
        <ele>409</ele>
        <time>2022-07-15T08:25:55.000Z</time>
      </trkpt>
      <trkpt lat="49.90363" lon="4.76923">
        <ele>409</ele>
        <time>2022-07-15T08:25:56.000Z</time>
      </trkpt>
      <trkpt lat="49.90363" lon="4.76932">
        <ele>409</ele>
        <time>2022-07-15T08:25:57.000Z</time>
      </trkpt>
      <trkpt lat="49.90362" lon="4.76941">
        <ele>409</ele>
        <time>2022-07-15T08:25:58.000Z</time>
      </trkpt>
      <trkpt lat="49.90362" lon="4.76949">
        <ele>409</ele>
        <time>2022-07-15T08:25:59.000Z</time>
      </trkpt>
      <trkpt lat="49.90362" lon="4.76958">
        <ele>409</ele>
        <time>2022-07-15T08:26:00.000Z</time>
      </trkpt>
      <trkpt lat="49.90361" lon="4.76966">
        <ele>409</ele>
        <time>2022-07-15T08:26:01.000Z</time>
      </trkpt>
      <trkpt lat="49.9036" lon="4.76974">
        <ele>409</ele>
        <time>2022-07-15T08:26:02.000Z</time>
      </trkpt>
      <trkpt lat="49.9036" lon="4.76983">
        <ele>409</ele>
        <time>2022-07-15T08:26:03.000Z</time>
      </trkpt>
      <trkpt lat="49.90359" lon="4.76991">
        <ele>409</ele>
        <time>2022-07-15T08:26:04.000Z</time>
      </trkpt>
      <trkpt lat="49.90359" lon="4.77">
        <ele>409</ele>
        <time>2022-07-15T08:26:05.000Z</time>
      </trkpt>
      <trkpt lat="49.90358" lon="4.77008">
        <ele>409</ele>
        <time>2022-07-15T08:26:06.000Z</time>
      </trkpt>
      <trkpt lat="49.90358" lon="4.77017">
        <ele>409</ele>
        <time>2022-07-15T08:26:07.000Z</time>
      </trkpt>
      <trkpt lat="49.90358" lon="4.77026">
        <ele>409</ele>
        <time>2022-07-15T08:26:08.000Z</time>
      </trkpt>
      <trkpt lat="49.90357" lon="4.77035">
        <ele>409</ele>
        <time>2022-07-15T08:26:09.000Z</time>
      </trkpt>
      <trkpt lat="49.90357" lon="4.77044">
        <ele>409</ele>
        <time>2022-07-15T08:26:10.000Z</time>
      </trkpt>
      <trkpt lat="49.90356" lon="4.77054">
        <ele>408</ele>
        <time>2022-07-15T08:26:11.000Z</time>
      </trkpt>
      <trkpt lat="49.90355" lon="4.77064">
        <ele>408</ele>
        <time>2022-07-15T08:26:12.000Z</time>
      </trkpt>
      <trkpt lat="49.90354" lon="4.77074">
        <ele>408</ele>
        <time>2022-07-15T08:26:13.000Z</time>
      </trkpt>
      <trkpt lat="49.90353" lon="4.77085">
        <ele>408</ele>
        <time>2022-07-15T08:26:14.000Z</time>
      </trkpt>
      <trkpt lat="49.90352" lon="4.77095">
        <ele>408</ele>
        <time>2022-07-15T08:26:15.000Z</time>
      </trkpt>
      <trkpt lat="49.90351" lon="4.77105">
        <ele>408</ele>
        <time>2022-07-15T08:26:16.000Z</time>
      </trkpt>
      <trkpt lat="49.9035" lon="4.77115">
        <ele>408</ele>
        <time>2022-07-15T08:26:17.000Z</time>
      </trkpt>
      <trkpt lat="49.90348" lon="4.77125">
        <ele>408</ele>
        <time>2022-07-15T08:26:18.000Z</time>
      </trkpt>
      <trkpt lat="49.90347" lon="4.77133">
        <ele>408</ele>
        <time>2022-07-15T08:26:19.000Z</time>
      </trkpt>
      <trkpt lat="49.90345" lon="4.77142">
        <ele>408</ele>
        <time>2022-07-15T08:26:20.000Z</time>
      </trkpt>
      <trkpt lat="49.90344" lon="4.77151">
        <ele>408</ele>
        <time>2022-07-15T08:26:21.000Z</time>
      </trkpt>
      <trkpt lat="49.90343" lon="4.7716">
        <ele>408</ele>
        <time>2022-07-15T08:26:22.000Z</time>
      </trkpt>
      <trkpt lat="49.90341" lon="4.77169">
        <ele>408</ele>
        <time>2022-07-15T08:26:23.000Z</time>
      </trkpt>
      <trkpt lat="49.9034" lon="4.77178">
        <ele>408</ele>
        <time>2022-07-15T08:26:24.000Z</time>
      </trkpt>
      <trkpt lat="49.90339" lon="4.77187">
        <ele>408</ele>
        <time>2022-07-15T08:26:25.000Z</time>
      </trkpt>
      <trkpt lat="49.90337" lon="4.77196">
        <ele>408</ele>
        <time>2022-07-15T08:26:26.000Z</time>
      </trkpt>
      <trkpt lat="49.90335" lon="4.77204">
        <ele>408</ele>
        <time>2022-07-15T08:26:27.000Z</time>
      </trkpt>
      <trkpt lat="49.90334" lon="4.77213">
        <ele>408</ele>
        <time>2022-07-15T08:26:28.000Z</time>
      </trkpt>
      <trkpt lat="49.90333" lon="4.77221">
        <ele>407</ele>
        <time>2022-07-15T08:26:29.000Z</time>
      </trkpt>
      <trkpt lat="49.90331" lon="4.7723">
        <ele>407</ele>
        <time>2022-07-15T08:26:30.000Z</time>
      </trkpt>
      <trkpt lat="49.9033" lon="4.77239">
        <ele>407</ele>
        <time>2022-07-15T08:26:31.000Z</time>
      </trkpt>
      <trkpt lat="49.90328" lon="4.77247">
        <ele>407</ele>
        <time>2022-07-15T08:26:32.000Z</time>
      </trkpt>
      <trkpt lat="49.90327" lon="4.77256">
        <ele>407</ele>
        <time>2022-07-15T08:26:33.000Z</time>
      </trkpt>
      <trkpt lat="49.90325" lon="4.77265">
        <ele>407</ele>
        <time>2022-07-15T08:26:34.000Z</time>
      </trkpt>
      <trkpt lat="49.90324" lon="4.77274">
        <ele>407</ele>
        <time>2022-07-15T08:26:35.000Z</time>
      </trkpt>
      <trkpt lat="49.90322" lon="4.77282">
        <ele>406</ele>
        <time>2022-07-15T08:26:36.000Z</time>
      </trkpt>
      <trkpt lat="49.90319" lon="4.77291">
        <ele>406</ele>
        <time>2022-07-15T08:26:37.000Z</time>
      </trkpt>
      <trkpt lat="49.90317" lon="4.77299">
        <ele>406</ele>
        <time>2022-07-15T08:26:38.000Z</time>
      </trkpt>
      <trkpt lat="49.90314" lon="4.77307">
        <ele>406</ele>
        <time>2022-07-15T08:26:39.000Z</time>
      </trkpt>
      <trkpt lat="49.90311" lon="4.77315">
        <ele>406</ele>
        <time>2022-07-15T08:26:40.000Z</time>
      </trkpt>
      <trkpt lat="49.90308" lon="4.77322">
        <ele>406</ele>
        <time>2022-07-15T08:26:41.000Z</time>
      </trkpt>
      <trkpt lat="49.90306" lon="4.7733">
        <ele>406</ele>
        <time>2022-07-15T08:26:42.000Z</time>
      </trkpt>
      <trkpt lat="49.90303" lon="4.77336">
        <ele>406</ele>
        <time>2022-07-15T08:26:43.000Z</time>
      </trkpt>
      <trkpt lat="49.903" lon="4.77343">
        <ele>406</ele>
        <time>2022-07-15T08:26:44.000Z</time>
      </trkpt>
      <trkpt lat="49.90297" lon="4.77351">
        <ele>406</ele>
        <time>2022-07-15T08:26:45.000Z</time>
      </trkpt>
      <trkpt lat="49.90294" lon="4.77358">
        <ele>406</ele>
        <time>2022-07-15T08:26:46.000Z</time>
      </trkpt>
      <trkpt lat="49.90291" lon="4.77365">
        <ele>406</ele>
        <time>2022-07-15T08:26:47.000Z</time>
      </trkpt>
      <trkpt lat="49.90288" lon="4.77373">
        <ele>406</ele>
        <time>2022-07-15T08:26:48.000Z</time>
      </trkpt>
      <trkpt lat="49.90285" lon="4.77381">
        <ele>406</ele>
        <time>2022-07-15T08:26:49.000Z</time>
      </trkpt>
      <trkpt lat="49.90282" lon="4.77388">
        <ele>406</ele>
        <time>2022-07-15T08:26:50.000Z</time>
      </trkpt>
      <trkpt lat="49.90279" lon="4.77395">
        <ele>406</ele>
        <time>2022-07-15T08:26:51.000Z</time>
      </trkpt>
      <trkpt lat="49.90275" lon="4.77403">
        <ele>406</ele>
        <time>2022-07-15T08:26:52.000Z</time>
      </trkpt>
      <trkpt lat="49.90272" lon="4.7741">
        <ele>406</ele>
        <time>2022-07-15T08:26:53.000Z</time>
      </trkpt>
      <trkpt lat="49.90268" lon="4.77416">
        <ele>406</ele>
        <time>2022-07-15T08:26:54.000Z</time>
      </trkpt>
      <trkpt lat="49.90265" lon="4.77423">
        <ele>406</ele>
        <time>2022-07-15T08:26:55.000Z</time>
      </trkpt>
      <trkpt lat="49.90263" lon="4.77429">
        <ele>406</ele>
        <time>2022-07-15T08:26:56.000Z</time>
      </trkpt>
      <trkpt lat="49.9026" lon="4.77435">
        <ele>405</ele>
        <time>2022-07-15T08:26:57.000Z</time>
      </trkpt>
      <trkpt lat="49.90258" lon="4.7744">
        <ele>405</ele>
        <time>2022-07-15T08:26:58.000Z</time>
      </trkpt>
      <trkpt lat="49.90256" lon="4.77445">
        <ele>405</ele>
        <time>2022-07-15T08:26:59.000Z</time>
      </trkpt>
      <trkpt lat="49.90254" lon="4.7745">
        <ele>405</ele>
        <time>2022-07-15T08:27:00.000Z</time>
      </trkpt>
      <trkpt lat="49.90252" lon="4.77455">
        <ele>405</ele>
        <time>2022-07-15T08:27:01.000Z</time>
      </trkpt>
      <trkpt lat="49.9025" lon="4.7746">
        <ele>405</ele>
        <time>2022-07-15T08:27:02.000Z</time>
      </trkpt>
      <trkpt lat="49.90248" lon="4.77464">
        <ele>405</ele>
        <time>2022-07-15T08:27:03.000Z</time>
      </trkpt>
      <trkpt lat="49.90246" lon="4.77469">
        <ele>405</ele>
        <time>2022-07-15T08:27:04.000Z</time>
      </trkpt>
      <trkpt lat="49.90245" lon="4.77473">
        <ele>406</ele>
        <time>2022-07-15T08:27:05.000Z</time>
      </trkpt>
      <trkpt lat="49.90243" lon="4.77478">
        <ele>406</ele>
        <time>2022-07-15T08:27:06.000Z</time>
      </trkpt>
      <trkpt lat="49.90241" lon="4.77482">
        <ele>406</ele>
        <time>2022-07-15T08:27:07.000Z</time>
      </trkpt>
      <trkpt lat="49.90239" lon="4.77486">
        <ele>406</ele>
        <time>2022-07-15T08:27:08.000Z</time>
      </trkpt>
      <trkpt lat="49.90237" lon="4.77491">
        <ele>406</ele>
        <time>2022-07-15T08:27:09.000Z</time>
      </trkpt>
      <trkpt lat="49.90236" lon="4.77495">
        <ele>406</ele>
        <time>2022-07-15T08:27:10.000Z</time>
      </trkpt>
      <trkpt lat="49.90234" lon="4.77499">
        <ele>406</ele>
        <time>2022-07-15T08:27:11.000Z</time>
      </trkpt>
      <trkpt lat="49.90232" lon="4.77504">
        <ele>406</ele>
        <time>2022-07-15T08:27:12.000Z</time>
      </trkpt>
      <trkpt lat="49.9023" lon="4.77508">
        <ele>406</ele>
        <time>2022-07-15T08:27:13.000Z</time>
      </trkpt>
      <trkpt lat="49.90228" lon="4.77513">
        <ele>407</ele>
        <time>2022-07-15T08:27:14.000Z</time>
      </trkpt>
      <trkpt lat="49.90226" lon="4.77517">
        <ele>407</ele>
        <time>2022-07-15T08:27:15.000Z</time>
      </trkpt>
      <trkpt lat="49.90225" lon="4.77521">
        <ele>407</ele>
        <time>2022-07-15T08:27:16.000Z</time>
      </trkpt>
      <trkpt lat="49.90223" lon="4.77526">
        <ele>408</ele>
        <time>2022-07-15T08:27:17.000Z</time>
      </trkpt>
      <trkpt lat="49.90221" lon="4.7753">
        <ele>408</ele>
        <time>2022-07-15T08:27:18.000Z</time>
      </trkpt>
      <trkpt lat="49.90219" lon="4.77535">
        <ele>408</ele>
        <time>2022-07-15T08:27:19.000Z</time>
      </trkpt>
      <trkpt lat="49.90217" lon="4.77539">
        <ele>408</ele>
        <time>2022-07-15T08:27:20.000Z</time>
      </trkpt>
      <trkpt lat="49.90215" lon="4.77543">
        <ele>409</ele>
        <time>2022-07-15T08:27:21.000Z</time>
      </trkpt>
      <trkpt lat="49.90213" lon="4.77547">
        <ele>409</ele>
        <time>2022-07-15T08:27:22.000Z</time>
      </trkpt>
      <trkpt lat="49.90212" lon="4.77552">
        <ele>409</ele>
        <time>2022-07-15T08:27:23.000Z</time>
      </trkpt>
      <trkpt lat="49.9021" lon="4.77556">
        <ele>409</ele>
        <time>2022-07-15T08:27:24.000Z</time>
      </trkpt>
      <trkpt lat="49.90208" lon="4.7756">
        <ele>410</ele>
        <time>2022-07-15T08:27:25.000Z</time>
      </trkpt>
      <trkpt lat="49.90206" lon="4.77564">
        <ele>410</ele>
        <time>2022-07-15T08:27:26.000Z</time>
      </trkpt>
      <trkpt lat="49.90204" lon="4.77568">
        <ele>410</ele>
        <time>2022-07-15T08:27:27.000Z</time>
      </trkpt>
      <trkpt lat="49.90203" lon="4.77572">
        <ele>411</ele>
        <time>2022-07-15T08:27:28.000Z</time>
      </trkpt>
      <trkpt lat="49.90201" lon="4.77577">
        <ele>411</ele>
        <time>2022-07-15T08:27:29.000Z</time>
      </trkpt>
      <trkpt lat="49.90199" lon="4.77581">
        <ele>411</ele>
        <time>2022-07-15T08:27:30.000Z</time>
      </trkpt>
      <trkpt lat="49.90197" lon="4.77586">
        <ele>411</ele>
        <time>2022-07-15T08:27:31.000Z</time>
      </trkpt>
      <trkpt lat="49.90196" lon="4.7759">
        <ele>412</ele>
        <time>2022-07-15T08:27:32.000Z</time>
      </trkpt>
      <trkpt lat="49.90193" lon="4.77595">
        <ele>412</ele>
        <time>2022-07-15T08:27:33.000Z</time>
      </trkpt>
      <trkpt lat="49.90191" lon="4.776">
        <ele>412</ele>
        <time>2022-07-15T08:27:34.000Z</time>
      </trkpt>
      <trkpt lat="49.90189" lon="4.77605">
        <ele>412</ele>
        <time>2022-07-15T08:27:35.000Z</time>
      </trkpt>
      <trkpt lat="49.90188" lon="4.7761">
        <ele>412</ele>
        <time>2022-07-15T08:27:36.000Z</time>
      </trkpt>
      <trkpt lat="49.90185" lon="4.77615">
        <ele>413</ele>
        <time>2022-07-15T08:27:37.000Z</time>
      </trkpt>
      <trkpt lat="49.90183" lon="4.7762">
        <ele>413</ele>
        <time>2022-07-15T08:27:38.000Z</time>
      </trkpt>
      <trkpt lat="49.90181" lon="4.77626">
        <ele>413</ele>
        <time>2022-07-15T08:27:39.000Z</time>
      </trkpt>
      <trkpt lat="49.90179" lon="4.77631">
        <ele>413</ele>
        <time>2022-07-15T08:27:40.000Z</time>
      </trkpt>
      <trkpt lat="49.90177" lon="4.77636">
        <ele>414</ele>
        <time>2022-07-15T08:27:41.000Z</time>
      </trkpt>
      <trkpt lat="49.90175" lon="4.77641">
        <ele>414</ele>
        <time>2022-07-15T08:27:42.000Z</time>
      </trkpt>
      <trkpt lat="49.90173" lon="4.77646">
        <ele>414</ele>
        <time>2022-07-15T08:27:43.000Z</time>
      </trkpt>
      <trkpt lat="49.90171" lon="4.77651">
        <ele>414</ele>
        <time>2022-07-15T08:27:44.000Z</time>
      </trkpt>
      <trkpt lat="49.90169" lon="4.77656">
        <ele>414</ele>
        <time>2022-07-15T08:27:45.000Z</time>
      </trkpt>
      <trkpt lat="49.90167" lon="4.77661">
        <ele>415</ele>
        <time>2022-07-15T08:27:46.000Z</time>
      </trkpt>
      <trkpt lat="49.90165" lon="4.77666">
        <ele>415</ele>
        <time>2022-07-15T08:27:47.000Z</time>
      </trkpt>
      <trkpt lat="49.90163" lon="4.77672">
        <ele>415</ele>
        <time>2022-07-15T08:27:48.000Z</time>
      </trkpt>
      <trkpt lat="49.90161" lon="4.77676">
        <ele>415</ele>
        <time>2022-07-15T08:27:49.000Z</time>
      </trkpt>
      <trkpt lat="49.90158" lon="4.77681">
        <ele>415</ele>
        <time>2022-07-15T08:27:50.000Z</time>
      </trkpt>
      <trkpt lat="49.90157" lon="4.77686">
        <ele>415</ele>
        <time>2022-07-15T08:27:51.000Z</time>
      </trkpt>
      <trkpt lat="49.90154" lon="4.77691">
        <ele>416</ele>
        <time>2022-07-15T08:27:52.000Z</time>
      </trkpt>
      <trkpt lat="49.90152" lon="4.77697">
        <ele>416</ele>
        <time>2022-07-15T08:27:53.000Z</time>
      </trkpt>
      <trkpt lat="49.9015" lon="4.77702">
        <ele>416</ele>
        <time>2022-07-15T08:27:54.000Z</time>
      </trkpt>
      <trkpt lat="49.90148" lon="4.77707">
        <ele>416</ele>
        <time>2022-07-15T08:27:55.000Z</time>
      </trkpt>
      <trkpt lat="49.90146" lon="4.77712">
        <ele>416</ele>
        <time>2022-07-15T08:27:56.000Z</time>
      </trkpt>
      <trkpt lat="49.90144" lon="4.77717">
        <ele>416</ele>
        <time>2022-07-15T08:27:57.000Z</time>
      </trkpt>
      <trkpt lat="49.90142" lon="4.77722">
        <ele>416</ele>
        <time>2022-07-15T08:27:58.000Z</time>
      </trkpt>
      <trkpt lat="49.9014" lon="4.77727">
        <ele>416</ele>
        <time>2022-07-15T08:27:59.000Z</time>
      </trkpt>
      <trkpt lat="49.90139" lon="4.77733">
        <ele>416</ele>
        <time>2022-07-15T08:28:00.000Z</time>
      </trkpt>
      <trkpt lat="49.90137" lon="4.77738">
        <ele>416</ele>
        <time>2022-07-15T08:28:01.000Z</time>
      </trkpt>
      <trkpt lat="49.90135" lon="4.77742">
        <ele>416</ele>
        <time>2022-07-15T08:28:02.000Z</time>
      </trkpt>
      <trkpt lat="49.90133" lon="4.77747">
        <ele>416</ele>
        <time>2022-07-15T08:28:03.000Z</time>
      </trkpt>
      <trkpt lat="49.90132" lon="4.77752">
        <ele>416</ele>
        <time>2022-07-15T08:28:04.000Z</time>
      </trkpt>
      <trkpt lat="49.9013" lon="4.77757">
        <ele>416</ele>
        <time>2022-07-15T08:28:05.000Z</time>
      </trkpt>
      <trkpt lat="49.90128" lon="4.77762">
        <ele>416</ele>
        <time>2022-07-15T08:28:06.000Z</time>
      </trkpt>
      <trkpt lat="49.90125" lon="4.77767">
        <ele>416</ele>
        <time>2022-07-15T08:28:07.000Z</time>
      </trkpt>
      <trkpt lat="49.90123" lon="4.77772">
        <ele>417</ele>
        <time>2022-07-15T08:28:08.000Z</time>
      </trkpt>
      <trkpt lat="49.90121" lon="4.77777">
        <ele>417</ele>
        <time>2022-07-15T08:28:09.000Z</time>
      </trkpt>
      <trkpt lat="49.90118" lon="4.77782">
        <ele>417</ele>
        <time>2022-07-15T08:28:10.000Z</time>
      </trkpt>
      <trkpt lat="49.90116" lon="4.77788">
        <ele>417</ele>
        <time>2022-07-15T08:28:11.000Z</time>
      </trkpt>
      <trkpt lat="49.90113" lon="4.77793">
        <ele>417</ele>
        <time>2022-07-15T08:28:12.000Z</time>
      </trkpt>
      <trkpt lat="49.9011" lon="4.77798">
        <ele>417</ele>
        <time>2022-07-15T08:28:13.000Z</time>
      </trkpt>
      <trkpt lat="49.90107" lon="4.77803">
        <ele>417</ele>
        <time>2022-07-15T08:28:14.000Z</time>
      </trkpt>
      <trkpt lat="49.90104" lon="4.77807">
        <ele>417</ele>
        <time>2022-07-15T08:28:15.000Z</time>
      </trkpt>
      <trkpt lat="49.901" lon="4.77811">
        <ele>417</ele>
        <time>2022-07-15T08:28:16.000Z</time>
      </trkpt>
      <trkpt lat="49.90096" lon="4.77815">
        <ele>417</ele>
        <time>2022-07-15T08:28:17.000Z</time>
      </trkpt>
      <trkpt lat="49.90093" lon="4.7782">
        <ele>417</ele>
        <time>2022-07-15T08:28:18.000Z</time>
      </trkpt>
      <trkpt lat="49.90088" lon="4.77823">
        <ele>417</ele>
        <time>2022-07-15T08:28:19.000Z</time>
      </trkpt>
      <trkpt lat="49.90084" lon="4.77827">
        <ele>417</ele>
        <time>2022-07-15T08:28:20.000Z</time>
      </trkpt>
      <trkpt lat="49.9008" lon="4.77831">
        <ele>417</ele>
        <time>2022-07-15T08:28:21.000Z</time>
      </trkpt>
      <trkpt lat="49.90075" lon="4.77835">
        <ele>417</ele>
        <time>2022-07-15T08:28:22.000Z</time>
      </trkpt>
      <trkpt lat="49.9007" lon="4.77838">
        <ele>417</ele>
        <time>2022-07-15T08:28:23.000Z</time>
      </trkpt>
      <trkpt lat="49.90066" lon="4.77843">
        <ele>417</ele>
        <time>2022-07-15T08:28:24.000Z</time>
      </trkpt>
      <trkpt lat="49.90061" lon="4.77847">
        <ele>417</ele>
        <time>2022-07-15T08:28:25.000Z</time>
      </trkpt>
      <trkpt lat="49.90056" lon="4.77851">
        <ele>417</ele>
        <time>2022-07-15T08:28:26.000Z</time>
      </trkpt>
      <trkpt lat="49.90051" lon="4.77855">
        <ele>417</ele>
        <time>2022-07-15T08:28:27.000Z</time>
      </trkpt>
      <trkpt lat="49.90046" lon="4.77859">
        <ele>417</ele>
        <time>2022-07-15T08:28:28.000Z</time>
      </trkpt>
      <trkpt lat="49.90041" lon="4.77863">
        <ele>417</ele>
        <time>2022-07-15T08:28:29.000Z</time>
      </trkpt>
      <trkpt lat="49.90036" lon="4.77867">
        <ele>416</ele>
        <time>2022-07-15T08:28:30.000Z</time>
      </trkpt>
      <trkpt lat="49.9003" lon="4.77871">
        <ele>416</ele>
        <time>2022-07-15T08:28:31.000Z</time>
      </trkpt>
      <trkpt lat="49.90025" lon="4.77876">
        <ele>416</ele>
        <time>2022-07-15T08:28:32.000Z</time>
      </trkpt>
      <trkpt lat="49.90019" lon="4.7788">
        <ele>416</ele>
        <time>2022-07-15T08:28:33.000Z</time>
      </trkpt>
      <trkpt lat="49.90013" lon="4.77884">
        <ele>416</ele>
        <time>2022-07-15T08:28:34.000Z</time>
      </trkpt>
      <trkpt lat="49.90008" lon="4.77888">
        <ele>416</ele>
        <time>2022-07-15T08:28:35.000Z</time>
      </trkpt>
      <trkpt lat="49.90003" lon="4.77892">
        <ele>416</ele>
        <time>2022-07-15T08:28:36.000Z</time>
      </trkpt>
      <trkpt lat="49.89999" lon="4.77896">
        <ele>416</ele>
        <time>2022-07-15T08:28:37.000Z</time>
      </trkpt>
      <trkpt lat="49.89994" lon="4.77899">
        <ele>416</ele>
        <time>2022-07-15T08:28:38.000Z</time>
      </trkpt>
      <trkpt lat="49.8999" lon="4.77903">
        <ele>416</ele>
        <time>2022-07-15T08:28:39.000Z</time>
      </trkpt>
      <trkpt lat="49.89986" lon="4.77906">
        <ele>416</ele>
        <time>2022-07-15T08:28:40.000Z</time>
      </trkpt>
      <trkpt lat="49.89981" lon="4.77909">
        <ele>415</ele>
        <time>2022-07-15T08:28:41.000Z</time>
      </trkpt>
      <trkpt lat="49.89977" lon="4.77912">
        <ele>415</ele>
        <time>2022-07-15T08:28:42.000Z</time>
      </trkpt>
      <trkpt lat="49.89972" lon="4.77915">
        <ele>415</ele>
        <time>2022-07-15T08:28:43.000Z</time>
      </trkpt>
      <trkpt lat="49.89967" lon="4.77919">
        <ele>415</ele>
        <time>2022-07-15T08:28:44.000Z</time>
      </trkpt>
      <trkpt lat="49.89963" lon="4.77922">
        <ele>415</ele>
        <time>2022-07-15T08:28:45.000Z</time>
      </trkpt>
      <trkpt lat="49.89958" lon="4.77925">
        <ele>415</ele>
        <time>2022-07-15T08:28:46.000Z</time>
      </trkpt>
      <trkpt lat="49.89953" lon="4.77928">
        <ele>415</ele>
        <time>2022-07-15T08:28:47.000Z</time>
      </trkpt>
      <trkpt lat="49.89948" lon="4.7793">
        <ele>415</ele>
        <time>2022-07-15T08:28:48.000Z</time>
      </trkpt>
      <trkpt lat="49.89942" lon="4.77933">
        <ele>415</ele>
        <time>2022-07-15T08:28:49.000Z</time>
      </trkpt>
      <trkpt lat="49.89938" lon="4.77936">
        <ele>414</ele>
        <time>2022-07-15T08:28:50.000Z</time>
      </trkpt>
      <trkpt lat="49.89933" lon="4.77939">
        <ele>414</ele>
        <time>2022-07-15T08:28:51.000Z</time>
      </trkpt>
      <trkpt lat="49.89928" lon="4.77942">
        <ele>414</ele>
        <time>2022-07-15T08:28:52.000Z</time>
      </trkpt>
      <trkpt lat="49.89923" lon="4.77946">
        <ele>414</ele>
        <time>2022-07-15T08:28:53.000Z</time>
      </trkpt>
      <trkpt lat="49.89919" lon="4.77949">
        <ele>414</ele>
        <time>2022-07-15T08:28:54.000Z</time>
      </trkpt>
      <trkpt lat="49.89915" lon="4.77953">
        <ele>415</ele>
        <time>2022-07-15T08:28:55.000Z</time>
      </trkpt>
      <trkpt lat="49.89911" lon="4.77957">
        <ele>415</ele>
        <time>2022-07-15T08:28:56.000Z</time>
      </trkpt>
      <trkpt lat="49.89906" lon="4.7796">
        <ele>415</ele>
        <time>2022-07-15T08:28:57.000Z</time>
      </trkpt>
      <trkpt lat="49.89902" lon="4.77964">
        <ele>415</ele>
        <time>2022-07-15T08:28:58.000Z</time>
      </trkpt>
      <trkpt lat="49.89898" lon="4.77968">
        <ele>415</ele>
        <time>2022-07-15T08:28:59.000Z</time>
      </trkpt>
      <trkpt lat="49.89894" lon="4.77971">
        <ele>415</ele>
        <time>2022-07-15T08:29:00.000Z</time>
      </trkpt>
      <trkpt lat="49.89889" lon="4.77974">
        <ele>414</ele>
        <time>2022-07-15T08:29:01.000Z</time>
      </trkpt>
      <trkpt lat="49.89885" lon="4.77977">
        <ele>414</ele>
        <time>2022-07-15T08:29:02.000Z</time>
      </trkpt>
      <trkpt lat="49.89881" lon="4.7798">
        <ele>414</ele>
        <time>2022-07-15T08:29:03.000Z</time>
      </trkpt>
      <trkpt lat="49.89876" lon="4.77983">
        <ele>414</ele>
        <time>2022-07-15T08:29:04.000Z</time>
      </trkpt>
      <trkpt lat="49.89872" lon="4.77987">
        <ele>415</ele>
        <time>2022-07-15T08:29:05.000Z</time>
      </trkpt>
      <trkpt lat="49.89867" lon="4.7799">
        <ele>415</ele>
        <time>2022-07-15T08:29:06.000Z</time>
      </trkpt>
      <trkpt lat="49.89863" lon="4.77992">
        <ele>415</ele>
        <time>2022-07-15T08:29:07.000Z</time>
      </trkpt>
      <trkpt lat="49.89858" lon="4.77995">
        <ele>415</ele>
        <time>2022-07-15T08:29:08.000Z</time>
      </trkpt>
      <trkpt lat="49.89854" lon="4.77998">
        <ele>415</ele>
        <time>2022-07-15T08:29:09.000Z</time>
      </trkpt>
      <trkpt lat="49.8985" lon="4.78001">
        <ele>415</ele>
        <time>2022-07-15T08:29:10.000Z</time>
      </trkpt>
      <trkpt lat="49.89847" lon="4.78003">
        <ele>416</ele>
        <time>2022-07-15T08:29:11.000Z</time>
      </trkpt>
      <trkpt lat="49.89843" lon="4.78006">
        <ele>416</ele>
        <time>2022-07-15T08:29:12.000Z</time>
      </trkpt>
      <trkpt lat="49.8984" lon="4.78009">
        <ele>416</ele>
        <time>2022-07-15T08:29:13.000Z</time>
      </trkpt>
      <trkpt lat="49.89836" lon="4.78012">
        <ele>416</ele>
        <time>2022-07-15T08:29:14.000Z</time>
      </trkpt>
      <trkpt lat="49.89833" lon="4.78014">
        <ele>417</ele>
        <time>2022-07-15T08:29:15.000Z</time>
      </trkpt>
      <trkpt lat="49.89829" lon="4.78017">
        <ele>417</ele>
        <time>2022-07-15T08:29:16.000Z</time>
      </trkpt>
      <trkpt lat="49.89825" lon="4.78019">
        <ele>417</ele>
        <time>2022-07-15T08:29:17.000Z</time>
      </trkpt>
      <trkpt lat="49.89821" lon="4.78021">
        <ele>417</ele>
        <time>2022-07-15T08:29:18.000Z</time>
      </trkpt>
      <trkpt lat="49.89818" lon="4.78023">
        <ele>418</ele>
        <time>2022-07-15T08:29:19.000Z</time>
      </trkpt>
      <trkpt lat="49.89814" lon="4.78026">
        <ele>418</ele>
        <time>2022-07-15T08:29:20.000Z</time>
      </trkpt>
      <trkpt lat="49.89811" lon="4.78029">
        <ele>418</ele>
        <time>2022-07-15T08:29:21.000Z</time>
      </trkpt>
      <trkpt lat="49.89807" lon="4.78032">
        <ele>418</ele>
        <time>2022-07-15T08:29:22.000Z</time>
      </trkpt>
      <trkpt lat="49.89804" lon="4.78035">
        <ele>419</ele>
        <time>2022-07-15T08:29:23.000Z</time>
      </trkpt>
      <trkpt lat="49.898" lon="4.78039">
        <ele>419</ele>
        <time>2022-07-15T08:29:24.000Z</time>
      </trkpt>
      <trkpt lat="49.89797" lon="4.78042">
        <ele>420</ele>
        <time>2022-07-15T08:29:25.000Z</time>
      </trkpt>
      <trkpt lat="49.89793" lon="4.78045">
        <ele>420</ele>
        <time>2022-07-15T08:29:26.000Z</time>
      </trkpt>
      <trkpt lat="49.8979" lon="4.78048">
        <ele>420</ele>
        <time>2022-07-15T08:29:27.000Z</time>
      </trkpt>
      <trkpt lat="49.89786" lon="4.78052">
        <ele>421</ele>
        <time>2022-07-15T08:29:28.000Z</time>
      </trkpt>
      <trkpt lat="49.89783" lon="4.78055">
        <ele>421</ele>
        <time>2022-07-15T08:29:29.000Z</time>
      </trkpt>
      <trkpt lat="49.8978" lon="4.78058">
        <ele>421</ele>
        <time>2022-07-15T08:29:30.000Z</time>
      </trkpt>
      <trkpt lat="49.89776" lon="4.78062">
        <ele>422</ele>
        <time>2022-07-15T08:29:31.000Z</time>
      </trkpt>
      <trkpt lat="49.89773" lon="4.78065">
        <ele>422</ele>
        <time>2022-07-15T08:29:32.000Z</time>
      </trkpt>
      <trkpt lat="49.89769" lon="4.78068">
        <ele>422</ele>
        <time>2022-07-15T08:29:33.000Z</time>
      </trkpt>
      <trkpt lat="49.89765" lon="4.78072">
        <ele>422</ele>
        <time>2022-07-15T08:29:34.000Z</time>
      </trkpt>
      <trkpt lat="49.89762" lon="4.78075">
        <ele>423</ele>
        <time>2022-07-15T08:29:35.000Z</time>
      </trkpt>
      <trkpt lat="49.89759" lon="4.78078">
        <ele>423</ele>
        <time>2022-07-15T08:29:36.000Z</time>
      </trkpt>
      <trkpt lat="49.89755" lon="4.78081">
        <ele>423</ele>
        <time>2022-07-15T08:29:37.000Z</time>
      </trkpt>
      <trkpt lat="49.89751" lon="4.78085">
        <ele>423</ele>
        <time>2022-07-15T08:29:38.000Z</time>
      </trkpt>
      <trkpt lat="49.89747" lon="4.78088">
        <ele>423</ele>
        <time>2022-07-15T08:29:39.000Z</time>
      </trkpt>
      <trkpt lat="49.89744" lon="4.78091">
        <ele>423</ele>
        <time>2022-07-15T08:29:40.000Z</time>
      </trkpt>
      <trkpt lat="49.8974" lon="4.78094">
        <ele>423</ele>
        <time>2022-07-15T08:29:41.000Z</time>
      </trkpt>
      <trkpt lat="49.89736" lon="4.78097">
        <ele>423</ele>
        <time>2022-07-15T08:29:42.000Z</time>
      </trkpt>
      <trkpt lat="49.89732" lon="4.78101">
        <ele>423</ele>
        <time>2022-07-15T08:29:43.000Z</time>
      </trkpt>
      <trkpt lat="49.89728" lon="4.78104">
        <ele>424</ele>
        <time>2022-07-15T08:29:44.000Z</time>
      </trkpt>
      <trkpt lat="49.89724" lon="4.78107">
        <ele>424</ele>
        <time>2022-07-15T08:29:45.000Z</time>
      </trkpt>
      <trkpt lat="49.8972" lon="4.78111">
        <ele>424</ele>
        <time>2022-07-15T08:29:46.000Z</time>
      </trkpt>
      <trkpt lat="49.89716" lon="4.78114">
        <ele>424</ele>
        <time>2022-07-15T08:29:47.000Z</time>
      </trkpt>
      <trkpt lat="49.89711" lon="4.78118">
        <ele>424</ele>
        <time>2022-07-15T08:29:48.000Z</time>
      </trkpt>
      <trkpt lat="49.89707" lon="4.78121">
        <ele>424</ele>
        <time>2022-07-15T08:29:49.000Z</time>
      </trkpt>
      <trkpt lat="49.89703" lon="4.78125">
        <ele>424</ele>
        <time>2022-07-15T08:29:50.000Z</time>
      </trkpt>
      <trkpt lat="49.89698" lon="4.78128">
        <ele>424</ele>
        <time>2022-07-15T08:29:51.000Z</time>
      </trkpt>
      <trkpt lat="49.89694" lon="4.78132">
        <ele>424</ele>
        <time>2022-07-15T08:29:52.000Z</time>
      </trkpt>
      <trkpt lat="49.8969" lon="4.78135">
        <ele>424</ele>
        <time>2022-07-15T08:29:53.000Z</time>
      </trkpt>
      <trkpt lat="49.89686" lon="4.78139">
        <ele>423</ele>
        <time>2022-07-15T08:29:54.000Z</time>
      </trkpt>
      <trkpt lat="49.89681" lon="4.78142">
        <ele>423</ele>
        <time>2022-07-15T08:29:55.000Z</time>
      </trkpt>
      <trkpt lat="49.89677" lon="4.78146">
        <ele>423</ele>
        <time>2022-07-15T08:29:56.000Z</time>
      </trkpt>
      <trkpt lat="49.89673" lon="4.78149">
        <ele>423</ele>
        <time>2022-07-15T08:29:57.000Z</time>
      </trkpt>
      <trkpt lat="49.89669" lon="4.78153">
        <ele>423</ele>
        <time>2022-07-15T08:29:58.000Z</time>
      </trkpt>
      <trkpt lat="49.89665" lon="4.78156">
        <ele>423</ele>
        <time>2022-07-15T08:29:59.000Z</time>
      </trkpt>
      <trkpt lat="49.89661" lon="4.7816">
        <ele>423</ele>
        <time>2022-07-15T08:30:00.000Z</time>
      </trkpt>
      <trkpt lat="49.89656" lon="4.78164">
        <ele>423</ele>
        <time>2022-07-15T08:30:01.000Z</time>
      </trkpt>
      <trkpt lat="49.89652" lon="4.78168">
        <ele>423</ele>
        <time>2022-07-15T08:30:02.000Z</time>
      </trkpt>
      <trkpt lat="49.89647" lon="4.78171">
        <ele>423</ele>
        <time>2022-07-15T08:30:03.000Z</time>
      </trkpt>
      <trkpt lat="49.89644" lon="4.78174">
        <ele>423</ele>
        <time>2022-07-15T08:30:04.000Z</time>
      </trkpt>
      <trkpt lat="49.89642" lon="4.78175">
        <ele>423</ele>
        <time>2022-07-15T08:30:05.000Z</time>
      </trkpt>
      <trkpt lat="49.8964" lon="4.78176">
        <ele>423</ele>
        <time>2022-07-15T08:30:06.000Z</time>
      </trkpt>
      <trkpt lat="49.8964" lon="4.78178">
        <ele>423</ele>
        <time>2022-07-15T08:30:07.000Z</time>
      </trkpt>
      <trkpt lat="49.89641" lon="4.78179">
        <ele>423</ele>
        <time>2022-07-15T08:30:08.000Z</time>
      </trkpt>
      <trkpt lat="49.89643" lon="4.78178">
        <ele>423</ele>
        <time>2022-07-15T08:30:09.000Z</time>
      </trkpt>
      <trkpt lat="49.89645" lon="4.78177">
        <ele>424</ele>
        <time>2022-07-15T08:30:10.000Z</time>
      </trkpt>
      <trkpt lat="49.89647" lon="4.78177">
        <ele>424</ele>
        <time>2022-07-15T08:30:11.000Z</time>
      </trkpt>
      <trkpt lat="49.89649" lon="4.78176">
        <ele>424</ele>
        <time>2022-07-15T08:30:12.000Z</time>
      </trkpt>
      <trkpt lat="49.8965" lon="4.78175">
        <ele>424</ele>
        <time>2022-07-15T08:30:13.000Z</time>
      </trkpt>
      <trkpt lat="49.89652" lon="4.78174">
        <ele>424</ele>
        <time>2022-07-15T08:30:14.000Z</time>
      </trkpt>
      <trkpt lat="49.89654" lon="4.78173">
        <ele>424</ele>
        <time>2022-07-15T08:30:15.000Z</time>
      </trkpt>
      <trkpt lat="49.89655" lon="4.78172">
        <ele>424</ele>
        <time>2022-07-15T08:30:16.000Z</time>
      </trkpt>
      <trkpt lat="49.89654" lon="4.78171">
        <ele>424</ele>
        <time>2022-07-15T08:30:17.000Z</time>
      </trkpt>
      <trkpt lat="49.89653" lon="4.78171">
        <ele>424</ele>
        <time>2022-07-15T08:30:18.000Z</time>
      </trkpt>
      <trkpt lat="49.89652" lon="4.78172">
        <ele>424</ele>
        <time>2022-07-15T08:30:19.000Z</time>
      </trkpt>
      <trkpt lat="49.8965" lon="4.78173">
        <ele>424</ele>
        <time>2022-07-15T08:30:20.000Z</time>
      </trkpt>
      <trkpt lat="49.89648" lon="4.78173">
        <ele>424</ele>
        <time>2022-07-15T08:30:21.000Z</time>
      </trkpt>
      <trkpt lat="49.89647" lon="4.78171">
        <ele>424</ele>
        <time>2022-07-15T08:30:22.000Z</time>
      </trkpt>
      <trkpt lat="49.89646" lon="4.78169">
        <ele>424</ele>
        <time>2022-07-15T08:30:23.000Z</time>
      </trkpt>
      <trkpt lat="49.89645" lon="4.78167">
        <ele>424</ele>
        <time>2022-07-15T08:30:24.000Z</time>
      </trkpt>
      <trkpt lat="49.89643" lon="4.78165">
        <ele>424</ele>
        <time>2022-07-15T08:30:25.000Z</time>
      </trkpt>
      <trkpt lat="49.89641" lon="4.78165">
        <ele>424</ele>
        <time>2022-07-15T08:30:26.000Z</time>
      </trkpt>
      <trkpt lat="49.89638" lon="4.78165">
        <ele>424</ele>
        <time>2022-07-15T08:30:27.000Z</time>
      </trkpt>
      <trkpt lat="49.89634" lon="4.78166">
        <ele>424</ele>
        <time>2022-07-15T08:30:28.000Z</time>
      </trkpt>
      <trkpt lat="49.8963" lon="4.78167">
        <ele>424</ele>
        <time>2022-07-15T08:30:29.000Z</time>
      </trkpt>
      <trkpt lat="49.89627" lon="4.78166">
        <ele>424</ele>
        <time>2022-07-15T08:30:30.000Z</time>
      </trkpt>
      <trkpt lat="49.89623" lon="4.78166">
        <ele>424</ele>
        <time>2022-07-15T08:30:31.000Z</time>
      </trkpt>
      <trkpt lat="49.89619" lon="4.78166">
        <ele>424</ele>
        <time>2022-07-15T08:30:32.000Z</time>
      </trkpt>
      <trkpt lat="49.89615" lon="4.78165">
        <ele>424</ele>
        <time>2022-07-15T08:30:33.000Z</time>
      </trkpt>
      <trkpt lat="49.89611" lon="4.78165">
        <ele>424</ele>
        <time>2022-07-15T08:30:34.000Z</time>
      </trkpt>
      <trkpt lat="49.89607" lon="4.78166">
        <ele>424</ele>
        <time>2022-07-15T08:30:35.000Z</time>
      </trkpt>
      <trkpt lat="49.89603" lon="4.78167">
        <ele>424</ele>
        <time>2022-07-15T08:30:36.000Z</time>
      </trkpt>
      <trkpt lat="49.89599" lon="4.78169">
        <ele>425</ele>
        <time>2022-07-15T08:30:37.000Z</time>
      </trkpt>
      <trkpt lat="49.89595" lon="4.78171">
        <ele>425</ele>
        <time>2022-07-15T08:30:38.000Z</time>
      </trkpt>
      <trkpt lat="49.89591" lon="4.78172">
        <ele>425</ele>
        <time>2022-07-15T08:30:39.000Z</time>
      </trkpt>
      <trkpt lat="49.89588" lon="4.78174">
        <ele>425</ele>
        <time>2022-07-15T08:30:40.000Z</time>
      </trkpt>
      <trkpt lat="49.89584" lon="4.78176">
        <ele>425</ele>
        <time>2022-07-15T08:30:41.000Z</time>
      </trkpt>
      <trkpt lat="49.89581" lon="4.78178">
        <ele>425</ele>
        <time>2022-07-15T08:30:42.000Z</time>
      </trkpt>
      <trkpt lat="49.89577" lon="4.78179">
        <ele>425</ele>
        <time>2022-07-15T08:30:43.000Z</time>
      </trkpt>
      <trkpt lat="49.89573" lon="4.7818">
        <ele>425</ele>
        <time>2022-07-15T08:30:44.000Z</time>
      </trkpt>
      <trkpt lat="49.89569" lon="4.7818">
        <ele>425</ele>
        <time>2022-07-15T08:30:45.000Z</time>
      </trkpt>
      <trkpt lat="49.89565" lon="4.78181">
        <ele>426</ele>
        <time>2022-07-15T08:30:46.000Z</time>
      </trkpt>
      <trkpt lat="49.89561" lon="4.78181">
        <ele>426</ele>
        <time>2022-07-15T08:30:47.000Z</time>
      </trkpt>
      <trkpt lat="49.89556" lon="4.78181">
        <ele>426</ele>
        <time>2022-07-15T08:30:48.000Z</time>
      </trkpt>
      <trkpt lat="49.89552" lon="4.78182">
        <ele>426</ele>
        <time>2022-07-15T08:30:49.000Z</time>
      </trkpt>
      <trkpt lat="49.89547" lon="4.78182">
        <ele>426</ele>
        <time>2022-07-15T08:30:50.000Z</time>
      </trkpt>
      <trkpt lat="49.89542" lon="4.78182">
        <ele>426</ele>
        <time>2022-07-15T08:30:51.000Z</time>
      </trkpt>
      <trkpt lat="49.89538" lon="4.78182">
        <ele>426</ele>
        <time>2022-07-15T08:30:52.000Z</time>
      </trkpt>
      <trkpt lat="49.89533" lon="4.78182">
        <ele>427</ele>
        <time>2022-07-15T08:30:53.000Z</time>
      </trkpt>
      <trkpt lat="49.89529" lon="4.78184">
        <ele>427</ele>
        <time>2022-07-15T08:30:54.000Z</time>
      </trkpt>
      <trkpt lat="49.89524" lon="4.78185">
        <ele>427</ele>
        <time>2022-07-15T08:30:55.000Z</time>
      </trkpt>
      <trkpt lat="49.89519" lon="4.78187">
        <ele>427</ele>
        <time>2022-07-15T08:30:56.000Z</time>
      </trkpt>
      <trkpt lat="49.89514" lon="4.78187">
        <ele>427</ele>
        <time>2022-07-15T08:30:57.000Z</time>
      </trkpt>
      <trkpt lat="49.89509" lon="4.78187">
        <ele>427</ele>
        <time>2022-07-15T08:30:58.000Z</time>
      </trkpt>
      <trkpt lat="49.89505" lon="4.78187">
        <ele>427</ele>
        <time>2022-07-15T08:30:59.000Z</time>
      </trkpt>
      <trkpt lat="49.89502" lon="4.78188">
        <ele>427</ele>
        <time>2022-07-15T08:31:00.000Z</time>
      </trkpt>
      <trkpt lat="49.89497" lon="4.78189">
        <ele>427</ele>
        <time>2022-07-15T08:31:01.000Z</time>
      </trkpt>
      <trkpt lat="49.89494" lon="4.7819">
        <ele>427</ele>
        <time>2022-07-15T08:31:02.000Z</time>
      </trkpt>
      <trkpt lat="49.89489" lon="4.78191">
        <ele>427</ele>
        <time>2022-07-15T08:31:03.000Z</time>
      </trkpt>
      <trkpt lat="49.89485" lon="4.78192">
        <ele>427</ele>
        <time>2022-07-15T08:31:04.000Z</time>
      </trkpt>
      <trkpt lat="49.89481" lon="4.78192">
        <ele>427</ele>
        <time>2022-07-15T08:31:05.000Z</time>
      </trkpt>
      <trkpt lat="49.89477" lon="4.78194">
        <ele>427</ele>
        <time>2022-07-15T08:31:06.000Z</time>
      </trkpt>
      <trkpt lat="49.89472" lon="4.78195">
        <ele>427</ele>
        <time>2022-07-15T08:31:07.000Z</time>
      </trkpt>
      <trkpt lat="49.89468" lon="4.78196">
        <ele>427</ele>
        <time>2022-07-15T08:31:08.000Z</time>
      </trkpt>
      <trkpt lat="49.89465" lon="4.78197">
        <ele>427</ele>
        <time>2022-07-15T08:31:09.000Z</time>
      </trkpt>
      <trkpt lat="49.89461" lon="4.78198">
        <ele>427</ele>
        <time>2022-07-15T08:31:10.000Z</time>
      </trkpt>
      <trkpt lat="49.89457" lon="4.78199">
        <ele>427</ele>
        <time>2022-07-15T08:31:11.000Z</time>
      </trkpt>
      <trkpt lat="49.89454" lon="4.78199">
        <ele>427</ele>
        <time>2022-07-15T08:31:12.000Z</time>
      </trkpt>
      <trkpt lat="49.89451" lon="4.78198">
        <ele>427</ele>
        <time>2022-07-15T08:31:13.000Z</time>
      </trkpt>
      <trkpt lat="49.89448" lon="4.78199">
        <ele>427</ele>
        <time>2022-07-15T08:31:14.000Z</time>
      </trkpt>
      <trkpt lat="49.89444" lon="4.782">
        <ele>427</ele>
        <time>2022-07-15T08:31:15.000Z</time>
      </trkpt>
      <trkpt lat="49.8944" lon="4.78201">
        <ele>427</ele>
        <time>2022-07-15T08:31:16.000Z</time>
      </trkpt>
      <trkpt lat="49.89436" lon="4.78203">
        <ele>426</ele>
        <time>2022-07-15T08:31:17.000Z</time>
      </trkpt>
      <trkpt lat="49.89432" lon="4.78204">
        <ele>426</ele>
        <time>2022-07-15T08:31:18.000Z</time>
      </trkpt>
      <trkpt lat="49.89427" lon="4.78206">
        <ele>426</ele>
        <time>2022-07-15T08:31:19.000Z</time>
      </trkpt>
      <trkpt lat="49.89421" lon="4.78209">
        <ele>426</ele>
        <time>2022-07-15T08:31:20.000Z</time>
      </trkpt>
      <trkpt lat="49.89416" lon="4.78211">
        <ele>426</ele>
        <time>2022-07-15T08:31:21.000Z</time>
      </trkpt>
      <trkpt lat="49.8941" lon="4.78215">
        <ele>426</ele>
        <time>2022-07-15T08:31:22.000Z</time>
      </trkpt>
      <trkpt lat="49.89405" lon="4.78219">
        <ele>426</ele>
        <time>2022-07-15T08:31:23.000Z</time>
      </trkpt>
      <trkpt lat="49.894" lon="4.78223">
        <ele>426</ele>
        <time>2022-07-15T08:31:24.000Z</time>
      </trkpt>
      <trkpt lat="49.89395" lon="4.78227">
        <ele>426</ele>
        <time>2022-07-15T08:31:25.000Z</time>
      </trkpt>
      <trkpt lat="49.8939" lon="4.78231">
        <ele>426</ele>
        <time>2022-07-15T08:31:26.000Z</time>
      </trkpt>
      <trkpt lat="49.89385" lon="4.78235">
        <ele>426</ele>
        <time>2022-07-15T08:31:27.000Z</time>
      </trkpt>
      <trkpt lat="49.8938" lon="4.78239">
        <ele>425</ele>
        <time>2022-07-15T08:31:28.000Z</time>
      </trkpt>
      <trkpt lat="49.89376" lon="4.78244">
        <ele>425</ele>
        <time>2022-07-15T08:31:29.000Z</time>
      </trkpt>
      <trkpt lat="49.89371" lon="4.78248">
        <ele>425</ele>
        <time>2022-07-15T08:31:30.000Z</time>
      </trkpt>
      <trkpt lat="49.89366" lon="4.78251">
        <ele>425</ele>
        <time>2022-07-15T08:31:31.000Z</time>
      </trkpt>
      <trkpt lat="49.89361" lon="4.78255">
        <ele>425</ele>
        <time>2022-07-15T08:31:32.000Z</time>
      </trkpt>
      <trkpt lat="49.89356" lon="4.78258">
        <ele>425</ele>
        <time>2022-07-15T08:31:33.000Z</time>
      </trkpt>
      <trkpt lat="49.89351" lon="4.7826">
        <ele>425</ele>
        <time>2022-07-15T08:31:34.000Z</time>
      </trkpt>
      <trkpt lat="49.89347" lon="4.78263">
        <ele>425</ele>
        <time>2022-07-15T08:31:35.000Z</time>
      </trkpt>
      <trkpt lat="49.89342" lon="4.78266">
        <ele>425</ele>
        <time>2022-07-15T08:31:36.000Z</time>
      </trkpt>
      <trkpt lat="49.89337" lon="4.78268">
        <ele>425</ele>
        <time>2022-07-15T08:31:37.000Z</time>
      </trkpt>
      <trkpt lat="49.89333" lon="4.7827">
        <ele>425</ele>
        <time>2022-07-15T08:31:38.000Z</time>
      </trkpt>
      <trkpt lat="49.89329" lon="4.78272">
        <ele>425</ele>
        <time>2022-07-15T08:31:39.000Z</time>
      </trkpt>
      <trkpt lat="49.89324" lon="4.78274">
        <ele>424</ele>
        <time>2022-07-15T08:31:40.000Z</time>
      </trkpt>
      <trkpt lat="49.89319" lon="4.78278">
        <ele>424</ele>
        <time>2022-07-15T08:31:41.000Z</time>
      </trkpt>
      <trkpt lat="49.89315" lon="4.78281">
        <ele>424</ele>
        <time>2022-07-15T08:31:42.000Z</time>
      </trkpt>
      <trkpt lat="49.8931" lon="4.78284">
        <ele>424</ele>
        <time>2022-07-15T08:31:43.000Z</time>
      </trkpt>
      <trkpt lat="49.89305" lon="4.78287">
        <ele>424</ele>
        <time>2022-07-15T08:31:44.000Z</time>
      </trkpt>
      <trkpt lat="49.89299" lon="4.7829">
        <ele>424</ele>
        <time>2022-07-15T08:31:45.000Z</time>
      </trkpt>
      <trkpt lat="49.89295" lon="4.78292">
        <ele>424</ele>
        <time>2022-07-15T08:31:46.000Z</time>
      </trkpt>
      <trkpt lat="49.8929" lon="4.78294">
        <ele>424</ele>
        <time>2022-07-15T08:31:47.000Z</time>
      </trkpt>
      <trkpt lat="49.89286" lon="4.78294">
        <ele>424</ele>
        <time>2022-07-15T08:31:48.000Z</time>
      </trkpt>
      <trkpt lat="49.89283" lon="4.78292">
        <ele>424</ele>
        <time>2022-07-15T08:31:49.000Z</time>
      </trkpt>
      <trkpt lat="49.8928" lon="4.7829">
        <ele>424</ele>
        <time>2022-07-15T08:31:50.000Z</time>
      </trkpt>
      <trkpt lat="49.89277" lon="4.78288">
        <ele>423</ele>
        <time>2022-07-15T08:31:51.000Z</time>
      </trkpt>
      <trkpt lat="49.89274" lon="4.78288">
        <ele>423</ele>
        <time>2022-07-15T08:31:52.000Z</time>
      </trkpt>
      <trkpt lat="49.89271" lon="4.78287">
        <ele>423</ele>
        <time>2022-07-15T08:31:53.000Z</time>
      </trkpt>
      <trkpt lat="49.89268" lon="4.78287">
        <ele>423</ele>
        <time>2022-07-15T08:31:54.000Z</time>
      </trkpt>
      <trkpt lat="49.89265" lon="4.78288">
        <ele>423</ele>
        <time>2022-07-15T08:31:55.000Z</time>
      </trkpt>
      <trkpt lat="49.89263" lon="4.78288">
        <ele>423</ele>
        <time>2022-07-15T08:31:56.000Z</time>
      </trkpt>
      <trkpt lat="49.8926" lon="4.78288">
        <ele>423</ele>
        <time>2022-07-15T08:31:57.000Z</time>
      </trkpt>
      <trkpt lat="49.89257" lon="4.78288">
        <ele>422</ele>
        <time>2022-07-15T08:31:58.000Z</time>
      </trkpt>
      <trkpt lat="49.89253" lon="4.78288">
        <ele>422</ele>
        <time>2022-07-15T08:31:59.000Z</time>
      </trkpt>
      <trkpt lat="49.8925" lon="4.78287">
        <ele>422</ele>
        <time>2022-07-15T08:32:00.000Z</time>
      </trkpt>
      <trkpt lat="49.89247" lon="4.78286">
        <ele>422</ele>
        <time>2022-07-15T08:32:01.000Z</time>
      </trkpt>
      <trkpt lat="49.89244" lon="4.78284">
        <ele>422</ele>
        <time>2022-07-15T08:32:02.000Z</time>
      </trkpt>
      <trkpt lat="49.89242" lon="4.78281">
        <ele>422</ele>
        <time>2022-07-15T08:32:03.000Z</time>
      </trkpt>
      <trkpt lat="49.89239" lon="4.78279">
        <ele>422</ele>
        <time>2022-07-15T08:32:04.000Z</time>
      </trkpt>
      <trkpt lat="49.89236" lon="4.78278">
        <ele>422</ele>
        <time>2022-07-15T08:32:05.000Z</time>
      </trkpt>
      <trkpt lat="49.89233" lon="4.78277">
        <ele>422</ele>
        <time>2022-07-15T08:32:06.000Z</time>
      </trkpt>
      <trkpt lat="49.89231" lon="4.78276">
        <ele>422</ele>
        <time>2022-07-15T08:32:07.000Z</time>
      </trkpt>
      <trkpt lat="49.89229" lon="4.78276">
        <ele>422</ele>
        <time>2022-07-15T08:32:08.000Z</time>
      </trkpt>
      <trkpt lat="49.89227" lon="4.78275">
        <ele>422</ele>
        <time>2022-07-15T08:32:09.000Z</time>
      </trkpt>
      <trkpt lat="49.89225" lon="4.78273">
        <ele>422</ele>
        <time>2022-07-15T08:32:10.000Z</time>
      </trkpt>
      <trkpt lat="49.89223" lon="4.7827">
        <ele>422</ele>
        <time>2022-07-15T08:32:11.000Z</time>
      </trkpt>
      <trkpt lat="49.89222" lon="4.78266">
        <ele>422</ele>
        <time>2022-07-15T08:32:12.000Z</time>
      </trkpt>
      <trkpt lat="49.89221" lon="4.78264">
        <ele>422</ele>
        <time>2022-07-15T08:32:13.000Z</time>
      </trkpt>
      <trkpt lat="49.8922" lon="4.78261">
        <ele>422</ele>
        <time>2022-07-15T08:32:14.000Z</time>
      </trkpt>
      <trkpt lat="49.89218" lon="4.78258">
        <ele>422</ele>
        <time>2022-07-15T08:32:15.000Z</time>
      </trkpt>
      <trkpt lat="49.89216" lon="4.78255">
        <ele>422</ele>
        <time>2022-07-15T08:32:16.000Z</time>
      </trkpt>
      <trkpt lat="49.89213" lon="4.78251">
        <ele>422</ele>
        <time>2022-07-15T08:32:17.000Z</time>
      </trkpt>
      <trkpt lat="49.8921" lon="4.78247">
        <ele>422</ele>
        <time>2022-07-15T08:32:18.000Z</time>
      </trkpt>
      <trkpt lat="49.89207" lon="4.78244">
        <ele>422</ele>
        <time>2022-07-15T08:32:19.000Z</time>
      </trkpt>
      <trkpt lat="49.89204" lon="4.78241">
        <ele>422</ele>
        <time>2022-07-15T08:32:20.000Z</time>
      </trkpt>
      <trkpt lat="49.89201" lon="4.78237">
        <ele>422</ele>
        <time>2022-07-15T08:32:21.000Z</time>
      </trkpt>
      <trkpt lat="49.89197" lon="4.78234">
        <ele>422</ele>
        <time>2022-07-15T08:32:22.000Z</time>
      </trkpt>
      <trkpt lat="49.89194" lon="4.78231">
        <ele>422</ele>
        <time>2022-07-15T08:32:23.000Z</time>
      </trkpt>
      <trkpt lat="49.89191" lon="4.78227">
        <ele>422</ele>
        <time>2022-07-15T08:32:24.000Z</time>
      </trkpt>
      <trkpt lat="49.89188" lon="4.78223">
        <ele>422</ele>
        <time>2022-07-15T08:32:25.000Z</time>
      </trkpt>
      <trkpt lat="49.89186" lon="4.78219">
        <ele>422</ele>
        <time>2022-07-15T08:32:26.000Z</time>
      </trkpt>
      <trkpt lat="49.89184" lon="4.78215">
        <ele>422</ele>
        <time>2022-07-15T08:32:27.000Z</time>
      </trkpt>
      <trkpt lat="49.89183" lon="4.7821">
        <ele>422</ele>
        <time>2022-07-15T08:32:28.000Z</time>
      </trkpt>
      <trkpt lat="49.89183" lon="4.78206">
        <ele>422</ele>
        <time>2022-07-15T08:32:29.000Z</time>
      </trkpt>
      <trkpt lat="49.89183" lon="4.78202">
        <ele>422</ele>
        <time>2022-07-15T08:32:30.000Z</time>
      </trkpt>
      <trkpt lat="49.89183" lon="4.78196">
        <ele>422</ele>
        <time>2022-07-15T08:32:31.000Z</time>
      </trkpt>
      <trkpt lat="49.89183" lon="4.78191">
        <ele>422</ele>
        <time>2022-07-15T08:32:32.000Z</time>
      </trkpt>
      <trkpt lat="49.89184" lon="4.78184">
        <ele>422</ele>
        <time>2022-07-15T08:32:33.000Z</time>
      </trkpt>
      <trkpt lat="49.89185" lon="4.78177">
        <ele>421</ele>
        <time>2022-07-15T08:32:34.000Z</time>
      </trkpt>
      <trkpt lat="49.89187" lon="4.78171">
        <ele>421</ele>
        <time>2022-07-15T08:32:35.000Z</time>
      </trkpt>
      <trkpt lat="49.89188" lon="4.78163">
        <ele>421</ele>
        <time>2022-07-15T08:32:36.000Z</time>
      </trkpt>
      <trkpt lat="49.8919" lon="4.78156">
        <ele>421</ele>
        <time>2022-07-15T08:32:37.000Z</time>
      </trkpt>
      <trkpt lat="49.89193" lon="4.78147">
        <ele>421</ele>
        <time>2022-07-15T08:32:38.000Z</time>
      </trkpt>
      <trkpt lat="49.89197" lon="4.78139">
        <ele>420</ele>
        <time>2022-07-15T08:32:39.000Z</time>
      </trkpt>
      <trkpt lat="49.89199" lon="4.78132">
        <ele>420</ele>
        <time>2022-07-15T08:32:40.000Z</time>
      </trkpt>
      <trkpt lat="49.89201" lon="4.78126">
        <ele>420</ele>
        <time>2022-07-15T08:32:41.000Z</time>
      </trkpt>
      <trkpt lat="49.89202" lon="4.78121">
        <ele>420</ele>
        <time>2022-07-15T08:32:42.000Z</time>
      </trkpt>
      <trkpt lat="49.89201" lon="4.78116">
        <ele>420</ele>
        <time>2022-07-15T08:32:43.000Z</time>
      </trkpt>
      <trkpt lat="49.892" lon="4.7811">
        <ele>419</ele>
        <time>2022-07-15T08:32:44.000Z</time>
      </trkpt>
      <trkpt lat="49.89199" lon="4.78104">
        <ele>419</ele>
        <time>2022-07-15T08:32:45.000Z</time>
      </trkpt>
      <trkpt lat="49.89199" lon="4.78097">
        <ele>419</ele>
        <time>2022-07-15T08:32:46.000Z</time>
      </trkpt>
      <trkpt lat="49.89198" lon="4.78089">
        <ele>419</ele>
        <time>2022-07-15T08:32:47.000Z</time>
      </trkpt>
      <trkpt lat="49.89198" lon="4.78082">
        <ele>418</ele>
        <time>2022-07-15T08:32:48.000Z</time>
      </trkpt>
      <trkpt lat="49.89198" lon="4.78076">
        <ele>418</ele>
        <time>2022-07-15T08:32:49.000Z</time>
      </trkpt>
      <trkpt lat="49.89198" lon="4.78069">
        <ele>417</ele>
        <time>2022-07-15T08:32:50.000Z</time>
      </trkpt>
      <trkpt lat="49.89198" lon="4.78064">
        <ele>417</ele>
        <time>2022-07-15T08:32:51.000Z</time>
      </trkpt>
      <trkpt lat="49.89198" lon="4.78059">
        <ele>417</ele>
        <time>2022-07-15T08:32:52.000Z</time>
      </trkpt>
      <trkpt lat="49.89196" lon="4.78056">
        <ele>416</ele>
        <time>2022-07-15T08:32:53.000Z</time>
      </trkpt>
      <trkpt lat="49.89193" lon="4.78052">
        <ele>416</ele>
        <time>2022-07-15T08:32:54.000Z</time>
      </trkpt>
      <trkpt lat="49.89192" lon="4.78047">
        <ele>415</ele>
        <time>2022-07-15T08:32:55.000Z</time>
      </trkpt>
      <trkpt lat="49.89191" lon="4.78041">
        <ele>415</ele>
        <time>2022-07-15T08:32:56.000Z</time>
      </trkpt>
      <trkpt lat="49.8919" lon="4.78034">
        <ele>415</ele>
        <time>2022-07-15T08:32:57.000Z</time>
      </trkpt>
      <trkpt lat="49.8919" lon="4.78027">
        <ele>414</ele>
        <time>2022-07-15T08:32:58.000Z</time>
      </trkpt>
      <trkpt lat="49.89191" lon="4.78021">
        <ele>414</ele>
        <time>2022-07-15T08:32:59.000Z</time>
      </trkpt>
      <trkpt lat="49.8919" lon="4.78014">
        <ele>413</ele>
        <time>2022-07-15T08:33:00.000Z</time>
      </trkpt>
      <trkpt lat="49.8919" lon="4.78005">
        <ele>413</ele>
        <time>2022-07-15T08:33:01.000Z</time>
      </trkpt>
      <trkpt lat="49.8919" lon="4.77997">
        <ele>412</ele>
        <time>2022-07-15T08:33:02.000Z</time>
      </trkpt>
      <trkpt lat="49.89189" lon="4.77989">
        <ele>412</ele>
        <time>2022-07-15T08:33:03.000Z</time>
      </trkpt>
      <trkpt lat="49.89188" lon="4.77983">
        <ele>411</ele>
        <time>2022-07-15T08:33:04.000Z</time>
      </trkpt>
      <trkpt lat="49.89187" lon="4.77976">
        <ele>411</ele>
        <time>2022-07-15T08:33:05.000Z</time>
      </trkpt>
      <trkpt lat="49.89185" lon="4.7797">
        <ele>410</ele>
        <time>2022-07-15T08:33:06.000Z</time>
      </trkpt>
      <trkpt lat="49.89183" lon="4.77965">
        <ele>410</ele>
        <time>2022-07-15T08:33:07.000Z</time>
      </trkpt>
      <trkpt lat="49.8918" lon="4.77962">
        <ele>409</ele>
        <time>2022-07-15T08:33:08.000Z</time>
      </trkpt>
      <trkpt lat="49.89176" lon="4.77959">
        <ele>408</ele>
        <time>2022-07-15T08:33:09.000Z</time>
      </trkpt>
      <trkpt lat="49.89172" lon="4.77957">
        <ele>408</ele>
        <time>2022-07-15T08:33:10.000Z</time>
      </trkpt>
      <trkpt lat="49.89167" lon="4.77956">
        <ele>407</ele>
        <time>2022-07-15T08:33:11.000Z</time>
      </trkpt>
      <trkpt lat="49.89163" lon="4.77955">
        <ele>407</ele>
        <time>2022-07-15T08:33:12.000Z</time>
      </trkpt>
      <trkpt lat="49.89158" lon="4.77954">
        <ele>406</ele>
        <time>2022-07-15T08:33:13.000Z</time>
      </trkpt>
      <trkpt lat="49.89153" lon="4.77955">
        <ele>405</ele>
        <time>2022-07-15T08:33:14.000Z</time>
      </trkpt>
      <trkpt lat="49.89148" lon="4.77956">
        <ele>405</ele>
        <time>2022-07-15T08:33:15.000Z</time>
      </trkpt>
      <trkpt lat="49.89145" lon="4.77958">
        <ele>404</ele>
        <time>2022-07-15T08:33:16.000Z</time>
      </trkpt>
      <trkpt lat="49.8914" lon="4.77961">
        <ele>403</ele>
        <time>2022-07-15T08:33:17.000Z</time>
      </trkpt>
      <trkpt lat="49.89135" lon="4.77964">
        <ele>403</ele>
        <time>2022-07-15T08:33:18.000Z</time>
      </trkpt>
      <trkpt lat="49.89131" lon="4.77967">
        <ele>402</ele>
        <time>2022-07-15T08:33:19.000Z</time>
      </trkpt>
      <trkpt lat="49.89126" lon="4.77969">
        <ele>401</ele>
        <time>2022-07-15T08:33:20.000Z</time>
      </trkpt>
      <trkpt lat="49.89122" lon="4.77973">
        <ele>401</ele>
        <time>2022-07-15T08:33:21.000Z</time>
      </trkpt>
      <trkpt lat="49.89118" lon="4.77976">
        <ele>400</ele>
        <time>2022-07-15T08:33:22.000Z</time>
      </trkpt>
      <trkpt lat="49.89113" lon="4.77981">
        <ele>400</ele>
        <time>2022-07-15T08:33:23.000Z</time>
      </trkpt>
      <trkpt lat="49.8911" lon="4.77986">
        <ele>399</ele>
        <time>2022-07-15T08:33:24.000Z</time>
      </trkpt>
      <trkpt lat="49.89107" lon="4.7799">
        <ele>398</ele>
        <time>2022-07-15T08:33:25.000Z</time>
      </trkpt>
      <trkpt lat="49.89103" lon="4.77994">
        <ele>398</ele>
        <time>2022-07-15T08:33:26.000Z</time>
      </trkpt>
      <trkpt lat="49.891" lon="4.77997">
        <ele>397</ele>
        <time>2022-07-15T08:33:27.000Z</time>
      </trkpt>
      <trkpt lat="49.89097" lon="4.78">
        <ele>397</ele>
        <time>2022-07-15T08:33:28.000Z</time>
      </trkpt>
      <trkpt lat="49.89094" lon="4.78003">
        <ele>396</ele>
        <time>2022-07-15T08:33:29.000Z</time>
      </trkpt>
      <trkpt lat="49.8909" lon="4.78007">
        <ele>395</ele>
        <time>2022-07-15T08:33:30.000Z</time>
      </trkpt>
      <trkpt lat="49.89086" lon="4.7801">
        <ele>395</ele>
        <time>2022-07-15T08:33:31.000Z</time>
      </trkpt>
      <trkpt lat="49.89082" lon="4.78014">
        <ele>394</ele>
        <time>2022-07-15T08:33:32.000Z</time>
      </trkpt>
      <trkpt lat="49.89079" lon="4.7802">
        <ele>393</ele>
        <time>2022-07-15T08:33:33.000Z</time>
      </trkpt>
      <trkpt lat="49.89076" lon="4.78026">
        <ele>392</ele>
        <time>2022-07-15T08:33:34.000Z</time>
      </trkpt>
      <trkpt lat="49.89074" lon="4.78032">
        <ele>392</ele>
        <time>2022-07-15T08:33:35.000Z</time>
      </trkpt>
      <trkpt lat="49.89073" lon="4.78037">
        <ele>391</ele>
        <time>2022-07-15T08:33:36.000Z</time>
      </trkpt>
      <trkpt lat="49.89072" lon="4.78041">
        <ele>391</ele>
        <time>2022-07-15T08:33:37.000Z</time>
      </trkpt>
      <trkpt lat="49.89072" lon="4.78045">
        <ele>390</ele>
        <time>2022-07-15T08:33:38.000Z</time>
      </trkpt>
      <trkpt lat="49.89072" lon="4.78049">
        <ele>390</ele>
        <time>2022-07-15T08:33:39.000Z</time>
      </trkpt>
      <trkpt lat="49.89071" lon="4.78053">
        <ele>389</ele>
        <time>2022-07-15T08:33:40.000Z</time>
      </trkpt>
      <trkpt lat="49.89071" lon="4.78057">
        <ele>389</ele>
        <time>2022-07-15T08:33:41.000Z</time>
      </trkpt>
      <trkpt lat="49.89071" lon="4.78062">
        <ele>388</ele>
        <time>2022-07-15T08:33:42.000Z</time>
      </trkpt>
      <trkpt lat="49.89071" lon="4.78066">
        <ele>388</ele>
        <time>2022-07-15T08:33:43.000Z</time>
      </trkpt>
      <trkpt lat="49.8907" lon="4.7807">
        <ele>387</ele>
        <time>2022-07-15T08:33:44.000Z</time>
      </trkpt>
      <trkpt lat="49.89069" lon="4.78074">
        <ele>387</ele>
        <time>2022-07-15T08:33:45.000Z</time>
      </trkpt>
      <trkpt lat="49.89068" lon="4.78077">
        <ele>387</ele>
        <time>2022-07-15T08:33:46.000Z</time>
      </trkpt>
      <trkpt lat="49.89067" lon="4.7808">
        <ele>386</ele>
        <time>2022-07-15T08:33:47.000Z</time>
      </trkpt>
      <trkpt lat="49.89066" lon="4.78084">
        <ele>386</ele>
        <time>2022-07-15T08:33:48.000Z</time>
      </trkpt>
      <trkpt lat="49.89064" lon="4.78088">
        <ele>386</ele>
        <time>2022-07-15T08:33:49.000Z</time>
      </trkpt>
      <trkpt lat="49.89063" lon="4.78092">
        <ele>386</ele>
        <time>2022-07-15T08:33:50.000Z</time>
      </trkpt>
      <trkpt lat="49.89061" lon="4.78095">
        <ele>385</ele>
        <time>2022-07-15T08:33:51.000Z</time>
      </trkpt>
      <trkpt lat="49.89059" lon="4.78097">
        <ele>385</ele>
        <time>2022-07-15T08:33:52.000Z</time>
      </trkpt>
      <trkpt lat="49.89057" lon="4.781">
        <ele>385</ele>
        <time>2022-07-15T08:33:53.000Z</time>
      </trkpt>
      <trkpt lat="49.89054" lon="4.78103">
        <ele>385</ele>
        <time>2022-07-15T08:33:54.000Z</time>
      </trkpt>
      <trkpt lat="49.89052" lon="4.78106">
        <ele>385</ele>
        <time>2022-07-15T08:33:55.000Z</time>
      </trkpt>
      <trkpt lat="49.8905" lon="4.78109">
        <ele>384</ele>
        <time>2022-07-15T08:33:56.000Z</time>
      </trkpt>
      <trkpt lat="49.89048" lon="4.78112">
        <ele>384</ele>
        <time>2022-07-15T08:33:57.000Z</time>
      </trkpt>
      <trkpt lat="49.89046" lon="4.78115">
        <ele>384</ele>
        <time>2022-07-15T08:33:58.000Z</time>
      </trkpt>
      <trkpt lat="49.89044" lon="4.78118">
        <ele>384</ele>
        <time>2022-07-15T08:33:59.000Z</time>
      </trkpt>
      <trkpt lat="49.89041" lon="4.78121">
        <ele>384</ele>
        <time>2022-07-15T08:34:00.000Z</time>
      </trkpt>
      <trkpt lat="49.8904" lon="4.78124">
        <ele>384</ele>
        <time>2022-07-15T08:34:01.000Z</time>
      </trkpt>
      <trkpt lat="49.89038" lon="4.78128">
        <ele>383</ele>
        <time>2022-07-15T08:34:02.000Z</time>
      </trkpt>
      <trkpt lat="49.89037" lon="4.78131">
        <ele>383</ele>
        <time>2022-07-15T08:34:03.000Z</time>
      </trkpt>
      <trkpt lat="49.89036" lon="4.78134">
        <ele>383</ele>
        <time>2022-07-15T08:34:04.000Z</time>
      </trkpt>
      <trkpt lat="49.89035" lon="4.78137">
        <ele>383</ele>
        <time>2022-07-15T08:34:05.000Z</time>
      </trkpt>
      <trkpt lat="49.89035" lon="4.78139">
        <ele>383</ele>
        <time>2022-07-15T08:34:06.000Z</time>
      </trkpt>
      <trkpt lat="49.89034" lon="4.78142">
        <ele>383</ele>
        <time>2022-07-15T08:34:07.000Z</time>
      </trkpt>
      <trkpt lat="49.89034" lon="4.78145">
        <ele>383</ele>
        <time>2022-07-15T08:34:08.000Z</time>
      </trkpt>
      <trkpt lat="49.89034" lon="4.78149">
        <ele>383</ele>
        <time>2022-07-15T08:34:09.000Z</time>
      </trkpt>
      <trkpt lat="49.89034" lon="4.78152">
        <ele>383</ele>
        <time>2022-07-15T08:34:10.000Z</time>
      </trkpt>
      <trkpt lat="49.89034" lon="4.78155">
        <ele>382</ele>
        <time>2022-07-15T08:34:11.000Z</time>
      </trkpt>
      <trkpt lat="49.89033" lon="4.78159">
        <ele>382</ele>
        <time>2022-07-15T08:34:12.000Z</time>
      </trkpt>
      <trkpt lat="49.89033" lon="4.78162">
        <ele>382</ele>
        <time>2022-07-15T08:34:13.000Z</time>
      </trkpt>
      <trkpt lat="49.89032" lon="4.78165">
        <ele>382</ele>
        <time>2022-07-15T08:34:14.000Z</time>
      </trkpt>
      <trkpt lat="49.89032" lon="4.78168">
        <ele>382</ele>
        <time>2022-07-15T08:34:15.000Z</time>
      </trkpt>
      <trkpt lat="49.89032" lon="4.78171">
        <ele>382</ele>
        <time>2022-07-15T08:34:16.000Z</time>
      </trkpt>
      <trkpt lat="49.89032" lon="4.78175">
        <ele>382</ele>
        <time>2022-07-15T08:34:17.000Z</time>
      </trkpt>
      <trkpt lat="49.89032" lon="4.78178">
        <ele>381</ele>
        <time>2022-07-15T08:34:18.000Z</time>
      </trkpt>
      <trkpt lat="49.89032" lon="4.78181">
        <ele>381</ele>
        <time>2022-07-15T08:34:19.000Z</time>
      </trkpt>
      <trkpt lat="49.89032" lon="4.78184">
        <ele>381</ele>
        <time>2022-07-15T08:34:20.000Z</time>
      </trkpt>
      <trkpt lat="49.89032" lon="4.78187">
        <ele>381</ele>
        <time>2022-07-15T08:34:21.000Z</time>
      </trkpt>
      <trkpt lat="49.89032" lon="4.7819">
        <ele>381</ele>
        <time>2022-07-15T08:34:22.000Z</time>
      </trkpt>
      <trkpt lat="49.89032" lon="4.78194">
        <ele>381</ele>
        <time>2022-07-15T08:34:23.000Z</time>
      </trkpt>
      <trkpt lat="49.89031" lon="4.78198">
        <ele>382</ele>
        <time>2022-07-15T08:34:24.000Z</time>
      </trkpt>
      <trkpt lat="49.89031" lon="4.78202">
        <ele>382</ele>
        <time>2022-07-15T08:34:25.000Z</time>
      </trkpt>
      <trkpt lat="49.89032" lon="4.78206">
        <ele>382</ele>
        <time>2022-07-15T08:34:26.000Z</time>
      </trkpt>
      <trkpt lat="49.89031" lon="4.78208">
        <ele>382</ele>
        <time>2022-07-15T08:34:27.000Z</time>
      </trkpt>
      <trkpt lat="49.89031" lon="4.78211">
        <ele>382</ele>
        <time>2022-07-15T08:34:28.000Z</time>
      </trkpt>
      <trkpt lat="49.89031" lon="4.78214">
        <ele>382</ele>
        <time>2022-07-15T08:34:29.000Z</time>
      </trkpt>
      <trkpt lat="49.89031" lon="4.78216">
        <ele>382</ele>
        <time>2022-07-15T08:34:30.000Z</time>
      </trkpt>
      <trkpt lat="49.89032" lon="4.78218">
        <ele>382</ele>
        <time>2022-07-15T08:34:31.000Z</time>
      </trkpt>
      <trkpt lat="49.89032" lon="4.78221">
        <ele>383</ele>
        <time>2022-07-15T08:34:32.000Z</time>
      </trkpt>
      <trkpt lat="49.89032" lon="4.78224">
        <ele>383</ele>
        <time>2022-07-15T08:34:33.000Z</time>
      </trkpt>
      <trkpt lat="49.89033" lon="4.78228">
        <ele>383</ele>
        <time>2022-07-15T08:34:34.000Z</time>
      </trkpt>
      <trkpt lat="49.89033" lon="4.78231">
        <ele>383</ele>
        <time>2022-07-15T08:34:35.000Z</time>
      </trkpt>
      <trkpt lat="49.89033" lon="4.78234">
        <ele>383</ele>
        <time>2022-07-15T08:34:36.000Z</time>
      </trkpt>
      <trkpt lat="49.89033" lon="4.78238">
        <ele>383</ele>
        <time>2022-07-15T08:34:37.000Z</time>
      </trkpt>
      <trkpt lat="49.89033" lon="4.78242">
        <ele>383</ele>
        <time>2022-07-15T08:34:38.000Z</time>
      </trkpt>
      <trkpt lat="49.89032" lon="4.78245">
        <ele>383</ele>
        <time>2022-07-15T08:34:39.000Z</time>
      </trkpt>
      <trkpt lat="49.89032" lon="4.78249">
        <ele>383</ele>
        <time>2022-07-15T08:34:40.000Z</time>
      </trkpt>
      <trkpt lat="49.89032" lon="4.78253">
        <ele>383</ele>
        <time>2022-07-15T08:34:41.000Z</time>
      </trkpt>
      <trkpt lat="49.89033" lon="4.78256">
        <ele>384</ele>
        <time>2022-07-15T08:34:42.000Z</time>
      </trkpt>
      <trkpt lat="49.89033" lon="4.78259">
        <ele>384</ele>
        <time>2022-07-15T08:34:43.000Z</time>
      </trkpt>
      <trkpt lat="49.89032" lon="4.78262">
        <ele>384</ele>
        <time>2022-07-15T08:34:44.000Z</time>
      </trkpt>
      <trkpt lat="49.89031" lon="4.78265">
        <ele>384</ele>
        <time>2022-07-15T08:34:45.000Z</time>
      </trkpt>
      <trkpt lat="49.8903" lon="4.78267">
        <ele>384</ele>
        <time>2022-07-15T08:34:46.000Z</time>
      </trkpt>
      <trkpt lat="49.89028" lon="4.78269">
        <ele>384</ele>
        <time>2022-07-15T08:34:47.000Z</time>
      </trkpt>
      <trkpt lat="49.89027" lon="4.78271">
        <ele>385</ele>
        <time>2022-07-15T08:34:48.000Z</time>
      </trkpt>
      <trkpt lat="49.89026" lon="4.78272">
        <ele>385</ele>
        <time>2022-07-15T08:34:49.000Z</time>
      </trkpt>
      <trkpt lat="49.89025" lon="4.78274">
        <ele>385</ele>
        <time>2022-07-15T08:34:50.000Z</time>
      </trkpt>
      <trkpt lat="49.89023" lon="4.78276">
        <ele>385</ele>
        <time>2022-07-15T08:34:51.000Z</time>
      </trkpt>
      <trkpt lat="49.89021" lon="4.78278">
        <ele>385</ele>
        <time>2022-07-15T08:34:52.000Z</time>
      </trkpt>
      <trkpt lat="49.89019" lon="4.7828">
        <ele>385</ele>
        <time>2022-07-15T08:34:53.000Z</time>
      </trkpt>
      <trkpt lat="49.89018" lon="4.78282">
        <ele>386</ele>
        <time>2022-07-15T08:34:54.000Z</time>
      </trkpt>
      <trkpt lat="49.89017" lon="4.78284">
        <ele>386</ele>
        <time>2022-07-15T08:34:55.000Z</time>
      </trkpt>
      <trkpt lat="49.89016" lon="4.78284">
        <ele>386</ele>
        <time>2022-07-15T08:34:56.000Z</time>
      </trkpt>
      <trkpt lat="49.89016" lon="4.78285">
        <ele>386</ele>
        <time>2022-07-15T08:34:57.000Z</time>
      </trkpt>
      <trkpt lat="49.89015" lon="4.78285">
        <ele>387</ele>
        <time>2022-07-15T08:34:58.000Z</time>
      </trkpt>
      <trkpt lat="49.89013" lon="4.78286">
        <ele>387</ele>
        <time>2022-07-15T08:34:59.000Z</time>
      </trkpt>
      <trkpt lat="49.89012" lon="4.78288">
        <ele>387</ele>
        <time>2022-07-15T08:35:00.000Z</time>
      </trkpt>
      <trkpt lat="49.8901" lon="4.78289">
        <ele>388</ele>
        <time>2022-07-15T08:35:01.000Z</time>
      </trkpt>
      <trkpt lat="49.89007" lon="4.7829">
        <ele>388</ele>
        <time>2022-07-15T08:35:02.000Z</time>
      </trkpt>
      <trkpt lat="49.89005" lon="4.78291">
        <ele>388</ele>
        <time>2022-07-15T08:35:03.000Z</time>
      </trkpt>
      <trkpt lat="49.89004" lon="4.78292">
        <ele>388</ele>
        <time>2022-07-15T08:35:04.000Z</time>
      </trkpt>
      <trkpt lat="49.89002" lon="4.78293">
        <ele>389</ele>
        <time>2022-07-15T08:35:05.000Z</time>
      </trkpt>
      <trkpt lat="49.89" lon="4.78294">
        <ele>389</ele>
        <time>2022-07-15T08:35:06.000Z</time>
      </trkpt>
      <trkpt lat="49.88999" lon="4.78295">
        <ele>389</ele>
        <time>2022-07-15T08:35:07.000Z</time>
      </trkpt>
      <trkpt lat="49.88997" lon="4.78295">
        <ele>389</ele>
        <time>2022-07-15T08:35:08.000Z</time>
      </trkpt>
      <trkpt lat="49.88996" lon="4.78297">
        <ele>389</ele>
        <time>2022-07-15T08:35:09.000Z</time>
      </trkpt>
      <trkpt lat="49.88995" lon="4.78298">
        <ele>390</ele>
        <time>2022-07-15T08:35:10.000Z</time>
      </trkpt>
      <trkpt lat="49.88994" lon="4.783">
        <ele>390</ele>
        <time>2022-07-15T08:35:11.000Z</time>
      </trkpt>
      <trkpt lat="49.88993" lon="4.78302">
        <ele>390</ele>
        <time>2022-07-15T08:35:12.000Z</time>
      </trkpt>
      <trkpt lat="49.88991" lon="4.78303">
        <ele>390</ele>
        <time>2022-07-15T08:35:13.000Z</time>
      </trkpt>
      <trkpt lat="49.88989" lon="4.78303">
        <ele>390</ele>
        <time>2022-07-15T08:35:14.000Z</time>
      </trkpt>
      <trkpt lat="49.88989" lon="4.78304">
        <ele>390</ele>
        <time>2022-07-15T08:35:15.000Z</time>
      </trkpt>
      <trkpt lat="49.88988" lon="4.78306">
        <ele>390</ele>
        <time>2022-07-15T08:35:16.000Z</time>
      </trkpt>
      <trkpt lat="49.88989" lon="4.78307">
        <ele>391</ele>
        <time>2022-07-15T08:35:17.000Z</time>
      </trkpt>
      <trkpt lat="49.8899" lon="4.78308">
        <ele>391</ele>
        <time>2022-07-15T08:35:18.000Z</time>
      </trkpt>
      <trkpt lat="49.88991" lon="4.78309">
        <ele>391</ele>
        <time>2022-07-15T08:35:19.000Z</time>
      </trkpt>
      <trkpt lat="49.88991" lon="4.7831">
        <ele>391</ele>
        <time>2022-07-15T08:35:20.000Z</time>
      </trkpt>
      <trkpt lat="49.88991" lon="4.7831">
        <ele>391</ele>
        <time>2022-07-15T08:35:21.000Z</time>
      </trkpt>
      <trkpt lat="49.88991" lon="4.78311">
        <ele>391</ele>
        <time>2022-07-15T08:35:22.000Z</time>
      </trkpt>
      <trkpt lat="49.88991" lon="4.78311">
        <ele>391</ele>
        <time>2022-07-15T08:35:23.000Z</time>
      </trkpt>
      <trkpt lat="49.88991" lon="4.78311">
        <ele>391</ele>
        <time>2022-07-15T08:35:24.000Z</time>
      </trkpt>
      <trkpt lat="49.88991" lon="4.78312">
        <ele>391</ele>
        <time>2022-07-15T08:35:25.000Z</time>
      </trkpt>
      <trkpt lat="49.88991" lon="4.78312">
        <ele>391</ele>
        <time>2022-07-15T08:35:26.000Z</time>
      </trkpt>
      <trkpt lat="49.8899" lon="4.78312">
        <ele>391</ele>
        <time>2022-07-15T08:35:27.000Z</time>
      </trkpt>
      <trkpt lat="49.88989" lon="4.78311">
        <ele>391</ele>
        <time>2022-07-15T08:35:28.000Z</time>
      </trkpt>
      <trkpt lat="49.88988" lon="4.78311">
        <ele>391</ele>
        <time>2022-07-15T08:35:29.000Z</time>
      </trkpt>
      <trkpt lat="49.88986" lon="4.78311">
        <ele>391</ele>
        <time>2022-07-15T08:35:30.000Z</time>
      </trkpt>
      <trkpt lat="49.88984" lon="4.7831">
        <ele>391</ele>
        <time>2022-07-15T08:35:31.000Z</time>
      </trkpt>
      <trkpt lat="49.88983" lon="4.7831">
        <ele>391</ele>
        <time>2022-07-15T08:35:32.000Z</time>
      </trkpt>
      <trkpt lat="49.88982" lon="4.78308">
        <ele>391</ele>
        <time>2022-07-15T08:35:33.000Z</time>
      </trkpt>
      <trkpt lat="49.8898" lon="4.78307">
        <ele>391</ele>
        <time>2022-07-15T08:35:34.000Z</time>
      </trkpt>
      <trkpt lat="49.88979" lon="4.78306">
        <ele>391</ele>
        <time>2022-07-15T08:35:35.000Z</time>
      </trkpt>
      <trkpt lat="49.88977" lon="4.78305">
        <ele>391</ele>
        <time>2022-07-15T08:35:36.000Z</time>
      </trkpt>
      <trkpt lat="49.88975" lon="4.78303">
        <ele>391</ele>
        <time>2022-07-15T08:35:37.000Z</time>
      </trkpt>
      <trkpt lat="49.88972" lon="4.78302">
        <ele>391</ele>
        <time>2022-07-15T08:35:38.000Z</time>
      </trkpt>
      <trkpt lat="49.88969" lon="4.78299">
        <ele>392</ele>
        <time>2022-07-15T08:35:39.000Z</time>
      </trkpt>
      <trkpt lat="49.88966" lon="4.78297">
        <ele>392</ele>
        <time>2022-07-15T08:35:40.000Z</time>
      </trkpt>
      <trkpt lat="49.88963" lon="4.78293">
        <ele>392</ele>
        <time>2022-07-15T08:35:41.000Z</time>
      </trkpt>
      <trkpt lat="49.8896" lon="4.7829">
        <ele>392</ele>
        <time>2022-07-15T08:35:42.000Z</time>
      </trkpt>
      <trkpt lat="49.88957" lon="4.78287">
        <ele>392</ele>
        <time>2022-07-15T08:35:43.000Z</time>
      </trkpt>
      <trkpt lat="49.88954" lon="4.78285">
        <ele>392</ele>
        <time>2022-07-15T08:35:44.000Z</time>
      </trkpt>
      <trkpt lat="49.88952" lon="4.78283">
        <ele>392</ele>
        <time>2022-07-15T08:35:45.000Z</time>
      </trkpt>
      <trkpt lat="49.88948" lon="4.7828">
        <ele>392</ele>
        <time>2022-07-15T08:35:46.000Z</time>
      </trkpt>
      <trkpt lat="49.88944" lon="4.78278">
        <ele>392</ele>
        <time>2022-07-15T08:35:47.000Z</time>
      </trkpt>
      <trkpt lat="49.8894" lon="4.78276">
        <ele>391</ele>
        <time>2022-07-15T08:35:48.000Z</time>
      </trkpt>
      <trkpt lat="49.88937" lon="4.78275">
        <ele>391</ele>
        <time>2022-07-15T08:35:49.000Z</time>
      </trkpt>
      <trkpt lat="49.88934" lon="4.78275">
        <ele>391</ele>
        <time>2022-07-15T08:35:50.000Z</time>
      </trkpt>
      <trkpt lat="49.88932" lon="4.78275">
        <ele>391</ele>
        <time>2022-07-15T08:35:51.000Z</time>
      </trkpt>
      <trkpt lat="49.8893" lon="4.78276">
        <ele>391</ele>
        <time>2022-07-15T08:35:52.000Z</time>
      </trkpt>
      <trkpt lat="49.88929" lon="4.78275">
        <ele>391</ele>
        <time>2022-07-15T08:35:53.000Z</time>
      </trkpt>
      <trkpt lat="49.88929" lon="4.78275">
        <ele>391</ele>
        <time>2022-07-15T08:35:54.000Z</time>
      </trkpt>
      <trkpt lat="49.88928" lon="4.78275">
        <ele>391</ele>
        <time>2022-07-15T08:35:55.000Z</time>
      </trkpt>
      <trkpt lat="49.88928" lon="4.78274">
        <ele>391</ele>
        <time>2022-07-15T08:35:56.000Z</time>
      </trkpt>
      <trkpt lat="49.88927" lon="4.78274">
        <ele>391</ele>
        <time>2022-07-15T08:35:57.000Z</time>
      </trkpt>
      <trkpt lat="49.88927" lon="4.78273">
        <ele>391</ele>
        <time>2022-07-15T08:35:58.000Z</time>
      </trkpt>
      <trkpt lat="49.88925" lon="4.78272">
        <ele>391</ele>
        <time>2022-07-15T08:35:59.000Z</time>
      </trkpt>
      <trkpt lat="49.88924" lon="4.78269">
        <ele>390</ele>
        <time>2022-07-15T08:36:00.000Z</time>
      </trkpt>
      <trkpt lat="49.88924" lon="4.78265">
        <ele>390</ele>
        <time>2022-07-15T08:36:01.000Z</time>
      </trkpt>
      <trkpt lat="49.88923" lon="4.78261">
        <ele>390</ele>
        <time>2022-07-15T08:36:02.000Z</time>
      </trkpt>
      <trkpt lat="49.88924" lon="4.78256">
        <ele>390</ele>
        <time>2022-07-15T08:36:03.000Z</time>
      </trkpt>
      <trkpt lat="49.88924" lon="4.78253">
        <ele>390</ele>
        <time>2022-07-15T08:36:04.000Z</time>
      </trkpt>
      <trkpt lat="49.88924" lon="4.7825">
        <ele>390</ele>
        <time>2022-07-15T08:36:05.000Z</time>
      </trkpt>
      <trkpt lat="49.88925" lon="4.78247">
        <ele>389</ele>
        <time>2022-07-15T08:36:06.000Z</time>
      </trkpt>
      <trkpt lat="49.88926" lon="4.78243">
        <ele>389</ele>
        <time>2022-07-15T08:36:07.000Z</time>
      </trkpt>
      <trkpt lat="49.88927" lon="4.78239">
        <ele>389</ele>
        <time>2022-07-15T08:36:08.000Z</time>
      </trkpt>
      <trkpt lat="49.88928" lon="4.78236">
        <ele>389</ele>
        <time>2022-07-15T08:36:09.000Z</time>
      </trkpt>
      <trkpt lat="49.88929" lon="4.78232">
        <ele>389</ele>
        <time>2022-07-15T08:36:10.000Z</time>
      </trkpt>
      <trkpt lat="49.88931" lon="4.78228">
        <ele>388</ele>
        <time>2022-07-15T08:36:11.000Z</time>
      </trkpt>
      <trkpt lat="49.88933" lon="4.78225">
        <ele>388</ele>
        <time>2022-07-15T08:36:12.000Z</time>
      </trkpt>
      <trkpt lat="49.88934" lon="4.7822">
        <ele>388</ele>
        <time>2022-07-15T08:36:13.000Z</time>
      </trkpt>
      <trkpt lat="49.88935" lon="4.78217">
        <ele>388</ele>
        <time>2022-07-15T08:36:14.000Z</time>
      </trkpt>
      <trkpt lat="49.88935" lon="4.78214">
        <ele>387</ele>
        <time>2022-07-15T08:36:15.000Z</time>
      </trkpt>
      <trkpt lat="49.88936" lon="4.78211">
        <ele>387</ele>
        <time>2022-07-15T08:36:16.000Z</time>
      </trkpt>
      <trkpt lat="49.88937" lon="4.78208">
        <ele>387</ele>
        <time>2022-07-15T08:36:17.000Z</time>
      </trkpt>
      <trkpt lat="49.88937" lon="4.78204">
        <ele>387</ele>
        <time>2022-07-15T08:36:18.000Z</time>
      </trkpt>
      <trkpt lat="49.88937" lon="4.782">
        <ele>386</ele>
        <time>2022-07-15T08:36:19.000Z</time>
      </trkpt>
      <trkpt lat="49.88937" lon="4.78196">
        <ele>386</ele>
        <time>2022-07-15T08:36:20.000Z</time>
      </trkpt>
      <trkpt lat="49.88936" lon="4.78193">
        <ele>386</ele>
        <time>2022-07-15T08:36:21.000Z</time>
      </trkpt>
      <trkpt lat="49.88936" lon="4.78189">
        <ele>386</ele>
        <time>2022-07-15T08:36:22.000Z</time>
      </trkpt>
      <trkpt lat="49.88936" lon="4.78185">
        <ele>386</ele>
        <time>2022-07-15T08:36:23.000Z</time>
      </trkpt>
      <trkpt lat="49.88935" lon="4.78181">
        <ele>385</ele>
        <time>2022-07-15T08:36:24.000Z</time>
      </trkpt>
      <trkpt lat="49.88934" lon="4.78176">
        <ele>385</ele>
        <time>2022-07-15T08:36:25.000Z</time>
      </trkpt>
      <trkpt lat="49.88933" lon="4.7817">
        <ele>385</ele>
        <time>2022-07-15T08:36:26.000Z</time>
      </trkpt>
      <trkpt lat="49.88932" lon="4.78165">
        <ele>384</ele>
        <time>2022-07-15T08:36:27.000Z</time>
      </trkpt>
      <trkpt lat="49.88932" lon="4.78161">
        <ele>384</ele>
        <time>2022-07-15T08:36:28.000Z</time>
      </trkpt>
      <trkpt lat="49.88931" lon="4.78158">
        <ele>384</ele>
        <time>2022-07-15T08:36:29.000Z</time>
      </trkpt>
      <trkpt lat="49.8893" lon="4.78154">
        <ele>383</ele>
        <time>2022-07-15T08:36:30.000Z</time>
      </trkpt>
      <trkpt lat="49.88931" lon="4.78148">
        <ele>383</ele>
        <time>2022-07-15T08:36:31.000Z</time>
      </trkpt>
      <trkpt lat="49.88931" lon="4.78141">
        <ele>382</ele>
        <time>2022-07-15T08:36:32.000Z</time>
      </trkpt>
      <trkpt lat="49.8893" lon="4.78135">
        <ele>382</ele>
        <time>2022-07-15T08:36:33.000Z</time>
      </trkpt>
      <trkpt lat="49.88929" lon="4.7813">
        <ele>382</ele>
        <time>2022-07-15T08:36:34.000Z</time>
      </trkpt>
      <trkpt lat="49.88928" lon="4.78125">
        <ele>381</ele>
        <time>2022-07-15T08:36:35.000Z</time>
      </trkpt>
      <trkpt lat="49.88927" lon="4.78121">
        <ele>381</ele>
        <time>2022-07-15T08:36:36.000Z</time>
      </trkpt>
      <trkpt lat="49.88926" lon="4.78117">
        <ele>380</ele>
        <time>2022-07-15T08:36:37.000Z</time>
      </trkpt>
      <trkpt lat="49.88925" lon="4.78113">
        <ele>380</ele>
        <time>2022-07-15T08:36:38.000Z</time>
      </trkpt>
      <trkpt lat="49.88923" lon="4.78109">
        <ele>379</ele>
        <time>2022-07-15T08:36:39.000Z</time>
      </trkpt>
      <trkpt lat="49.88922" lon="4.78105">
        <ele>379</ele>
        <time>2022-07-15T08:36:40.000Z</time>
      </trkpt>
      <trkpt lat="49.8892" lon="4.781">
        <ele>378</ele>
        <time>2022-07-15T08:36:41.000Z</time>
      </trkpt>
      <trkpt lat="49.88918" lon="4.78096">
        <ele>378</ele>
        <time>2022-07-15T08:36:42.000Z</time>
      </trkpt>
      <trkpt lat="49.88917" lon="4.78092">
        <ele>377</ele>
        <time>2022-07-15T08:36:43.000Z</time>
      </trkpt>
      <trkpt lat="49.88915" lon="4.78086">
        <ele>377</ele>
        <time>2022-07-15T08:36:44.000Z</time>
      </trkpt>
      <trkpt lat="49.88914" lon="4.78082">
        <ele>376</ele>
        <time>2022-07-15T08:36:45.000Z</time>
      </trkpt>
      <trkpt lat="49.88913" lon="4.78077">
        <ele>375</ele>
        <time>2022-07-15T08:36:46.000Z</time>
      </trkpt>
      <trkpt lat="49.88912" lon="4.78073">
        <ele>375</ele>
        <time>2022-07-15T08:36:47.000Z</time>
      </trkpt>
      <trkpt lat="49.88911" lon="4.7807">
        <ele>374</ele>
        <time>2022-07-15T08:36:48.000Z</time>
      </trkpt>
      <trkpt lat="49.88909" lon="4.78067">
        <ele>374</ele>
        <time>2022-07-15T08:36:49.000Z</time>
      </trkpt>
      <trkpt lat="49.88909" lon="4.78063">
        <ele>373</ele>
        <time>2022-07-15T08:36:50.000Z</time>
      </trkpt>
      <trkpt lat="49.88907" lon="4.78059">
        <ele>372</ele>
        <time>2022-07-15T08:36:51.000Z</time>
      </trkpt>
      <trkpt lat="49.88906" lon="4.78054">
        <ele>372</ele>
        <time>2022-07-15T08:36:52.000Z</time>
      </trkpt>
      <trkpt lat="49.88905" lon="4.7805">
        <ele>371</ele>
        <time>2022-07-15T08:36:53.000Z</time>
      </trkpt>
      <trkpt lat="49.88903" lon="4.78045">
        <ele>371</ele>
        <time>2022-07-15T08:36:54.000Z</time>
      </trkpt>
      <trkpt lat="49.88901" lon="4.7804">
        <ele>370</ele>
        <time>2022-07-15T08:36:55.000Z</time>
      </trkpt>
      <trkpt lat="49.88899" lon="4.78035">
        <ele>370</ele>
        <time>2022-07-15T08:36:56.000Z</time>
      </trkpt>
      <trkpt lat="49.88897" lon="4.78031">
        <ele>369</ele>
        <time>2022-07-15T08:36:57.000Z</time>
      </trkpt>
      <trkpt lat="49.88896" lon="4.78026">
        <ele>369</ele>
        <time>2022-07-15T08:36:58.000Z</time>
      </trkpt>
      <trkpt lat="49.88894" lon="4.78022">
        <ele>368</ele>
        <time>2022-07-15T08:36:59.000Z</time>
      </trkpt>
      <trkpt lat="49.88893" lon="4.78017">
        <ele>368</ele>
        <time>2022-07-15T08:37:00.000Z</time>
      </trkpt>
      <trkpt lat="49.88891" lon="4.78013">
        <ele>367</ele>
        <time>2022-07-15T08:37:01.000Z</time>
      </trkpt>
      <trkpt lat="49.88891" lon="4.78011">
        <ele>367</ele>
        <time>2022-07-15T08:37:02.000Z</time>
      </trkpt>
      <trkpt lat="49.8889" lon="4.7801">
        <ele>366</ele>
        <time>2022-07-15T08:37:03.000Z</time>
      </trkpt>
      <trkpt lat="49.8889" lon="4.78009">
        <ele>366</ele>
        <time>2022-07-15T08:37:04.000Z</time>
      </trkpt>
      <trkpt lat="49.8889" lon="4.78008">
        <ele>366</ele>
        <time>2022-07-15T08:37:05.000Z</time>
      </trkpt>
      <trkpt lat="49.88889" lon="4.78007">
        <ele>365</ele>
        <time>2022-07-15T08:37:06.000Z</time>
      </trkpt>
      <trkpt lat="49.88888" lon="4.78007">
        <ele>365</ele>
        <time>2022-07-15T08:37:07.000Z</time>
      </trkpt>
      <trkpt lat="49.88887" lon="4.78008">
        <ele>364</ele>
        <time>2022-07-15T08:37:08.000Z</time>
      </trkpt>
      <trkpt lat="49.88885" lon="4.7801">
        <ele>364</ele>
        <time>2022-07-15T08:37:09.000Z</time>
      </trkpt>
      <trkpt lat="49.88883" lon="4.78012">
        <ele>363</ele>
        <time>2022-07-15T08:37:10.000Z</time>
      </trkpt>
      <trkpt lat="49.8888" lon="4.78014">
        <ele>363</ele>
        <time>2022-07-15T08:37:11.000Z</time>
      </trkpt>
      <trkpt lat="49.88878" lon="4.78015">
        <ele>363</ele>
        <time>2022-07-15T08:37:12.000Z</time>
      </trkpt>
      <trkpt lat="49.88876" lon="4.78016">
        <ele>362</ele>
        <time>2022-07-15T08:37:13.000Z</time>
      </trkpt>
      <trkpt lat="49.88874" lon="4.78018">
        <ele>362</ele>
        <time>2022-07-15T08:37:14.000Z</time>
      </trkpt>
      <trkpt lat="49.88871" lon="4.7802">
        <ele>361</ele>
        <time>2022-07-15T08:37:15.000Z</time>
      </trkpt>
      <trkpt lat="49.88869" lon="4.78023">
        <ele>361</ele>
        <time>2022-07-15T08:37:16.000Z</time>
      </trkpt>
      <trkpt lat="49.88866" lon="4.78026">
        <ele>360</ele>
        <time>2022-07-15T08:37:17.000Z</time>
      </trkpt>
      <trkpt lat="49.88863" lon="4.78028">
        <ele>360</ele>
        <time>2022-07-15T08:37:18.000Z</time>
      </trkpt>
      <trkpt lat="49.8886" lon="4.7803">
        <ele>359</ele>
        <time>2022-07-15T08:37:19.000Z</time>
      </trkpt>
      <trkpt lat="49.88857" lon="4.78032">
        <ele>359</ele>
        <time>2022-07-15T08:37:20.000Z</time>
      </trkpt>
      <trkpt lat="49.88854" lon="4.78035">
        <ele>359</ele>
        <time>2022-07-15T08:37:21.000Z</time>
      </trkpt>
      <trkpt lat="49.88851" lon="4.78037">
        <ele>358</ele>
        <time>2022-07-15T08:37:22.000Z</time>
      </trkpt>
      <trkpt lat="49.88848" lon="4.78038">
        <ele>358</ele>
        <time>2022-07-15T08:37:23.000Z</time>
      </trkpt>
      <trkpt lat="49.88844" lon="4.78041">
        <ele>357</ele>
        <time>2022-07-15T08:37:24.000Z</time>
      </trkpt>
      <trkpt lat="49.88841" lon="4.78043">
        <ele>357</ele>
        <time>2022-07-15T08:37:25.000Z</time>
      </trkpt>
      <trkpt lat="49.88837" lon="4.78046">
        <ele>356</ele>
        <time>2022-07-15T08:37:26.000Z</time>
      </trkpt>
      <trkpt lat="49.88834" lon="4.78049">
        <ele>356</ele>
        <time>2022-07-15T08:37:27.000Z</time>
      </trkpt>
      <trkpt lat="49.88831" lon="4.78053">
        <ele>356</ele>
        <time>2022-07-15T08:37:28.000Z</time>
      </trkpt>
      <trkpt lat="49.88827" lon="4.78057">
        <ele>355</ele>
        <time>2022-07-15T08:37:29.000Z</time>
      </trkpt>
      <trkpt lat="49.88823" lon="4.78061">
        <ele>355</ele>
        <time>2022-07-15T08:37:30.000Z</time>
      </trkpt>
      <trkpt lat="49.88818" lon="4.78065">
        <ele>354</ele>
        <time>2022-07-15T08:37:31.000Z</time>
      </trkpt>
      <trkpt lat="49.88814" lon="4.78069">
        <ele>354</ele>
        <time>2022-07-15T08:37:32.000Z</time>
      </trkpt>
      <trkpt lat="49.8881" lon="4.78073">
        <ele>354</ele>
        <time>2022-07-15T08:37:33.000Z</time>
      </trkpt>
      <trkpt lat="49.88807" lon="4.78077">
        <ele>353</ele>
        <time>2022-07-15T08:37:34.000Z</time>
      </trkpt>
      <trkpt lat="49.88803" lon="4.78081">
        <ele>353</ele>
        <time>2022-07-15T08:37:35.000Z</time>
      </trkpt>
      <trkpt lat="49.88799" lon="4.78085">
        <ele>352</ele>
        <time>2022-07-15T08:37:36.000Z</time>
      </trkpt>
      <trkpt lat="49.88795" lon="4.78089">
        <ele>352</ele>
        <time>2022-07-15T08:37:37.000Z</time>
      </trkpt>
      <trkpt lat="49.88792" lon="4.78092">
        <ele>352</ele>
        <time>2022-07-15T08:37:38.000Z</time>
      </trkpt>
      <trkpt lat="49.88789" lon="4.78095">
        <ele>351</ele>
        <time>2022-07-15T08:37:39.000Z</time>
      </trkpt>
      <trkpt lat="49.88785" lon="4.78098">
        <ele>351</ele>
        <time>2022-07-15T08:37:40.000Z</time>
      </trkpt>
      <trkpt lat="49.88782" lon="4.78101">
        <ele>350</ele>
        <time>2022-07-15T08:37:41.000Z</time>
      </trkpt>
      <trkpt lat="49.88779" lon="4.78105">
        <ele>350</ele>
        <time>2022-07-15T08:37:42.000Z</time>
      </trkpt>
      <trkpt lat="49.88776" lon="4.78109">
        <ele>350</ele>
        <time>2022-07-15T08:37:43.000Z</time>
      </trkpt>
      <trkpt lat="49.88772" lon="4.78112">
        <ele>349</ele>
        <time>2022-07-15T08:37:44.000Z</time>
      </trkpt>
      <trkpt lat="49.88769" lon="4.78114">
        <ele>349</ele>
        <time>2022-07-15T08:37:45.000Z</time>
      </trkpt>
      <trkpt lat="49.88766" lon="4.78117">
        <ele>349</ele>
        <time>2022-07-15T08:37:46.000Z</time>
      </trkpt>
      <trkpt lat="49.88763" lon="4.7812">
        <ele>348</ele>
        <time>2022-07-15T08:37:47.000Z</time>
      </trkpt>
      <trkpt lat="49.8876" lon="4.78122">
        <ele>348</ele>
        <time>2022-07-15T08:37:48.000Z</time>
      </trkpt>
      <trkpt lat="49.88757" lon="4.78125">
        <ele>348</ele>
        <time>2022-07-15T08:37:49.000Z</time>
      </trkpt>
      <trkpt lat="49.88754" lon="4.78127">
        <ele>347</ele>
        <time>2022-07-15T08:37:50.000Z</time>
      </trkpt>
      <trkpt lat="49.8875" lon="4.78129">
        <ele>347</ele>
        <time>2022-07-15T08:37:51.000Z</time>
      </trkpt>
      <trkpt lat="49.88746" lon="4.78132">
        <ele>347</ele>
        <time>2022-07-15T08:37:52.000Z</time>
      </trkpt>
      <trkpt lat="49.88742" lon="4.78134">
        <ele>347</ele>
        <time>2022-07-15T08:37:53.000Z</time>
      </trkpt>
      <trkpt lat="49.88737" lon="4.78136">
        <ele>347</ele>
        <time>2022-07-15T08:37:54.000Z</time>
      </trkpt>
      <trkpt lat="49.88732" lon="4.78138">
        <ele>347</ele>
        <time>2022-07-15T08:37:55.000Z</time>
      </trkpt>
      <trkpt lat="49.88728" lon="4.78141">
        <ele>346</ele>
        <time>2022-07-15T08:37:56.000Z</time>
      </trkpt>
      <trkpt lat="49.88724" lon="4.78144">
        <ele>346</ele>
        <time>2022-07-15T08:37:57.000Z</time>
      </trkpt>
      <trkpt lat="49.88719" lon="4.78146">
        <ele>346</ele>
        <time>2022-07-15T08:37:58.000Z</time>
      </trkpt>
      <trkpt lat="49.88714" lon="4.78148">
        <ele>346</ele>
        <time>2022-07-15T08:37:59.000Z</time>
      </trkpt>
      <trkpt lat="49.88709" lon="4.7815">
        <ele>346</ele>
        <time>2022-07-15T08:38:00.000Z</time>
      </trkpt>
      <trkpt lat="49.88704" lon="4.78152">
        <ele>346</ele>
        <time>2022-07-15T08:38:01.000Z</time>
      </trkpt>
      <trkpt lat="49.88699" lon="4.78154">
        <ele>346</ele>
        <time>2022-07-15T08:38:02.000Z</time>
      </trkpt>
      <trkpt lat="49.88695" lon="4.78157">
        <ele>346</ele>
        <time>2022-07-15T08:38:03.000Z</time>
      </trkpt>
      <trkpt lat="49.8869" lon="4.78159">
        <ele>346</ele>
        <time>2022-07-15T08:38:04.000Z</time>
      </trkpt>
      <trkpt lat="49.88686" lon="4.78161">
        <ele>346</ele>
        <time>2022-07-15T08:38:05.000Z</time>
      </trkpt>
      <trkpt lat="49.88682" lon="4.78165">
        <ele>346</ele>
        <time>2022-07-15T08:38:06.000Z</time>
      </trkpt>
      <trkpt lat="49.88678" lon="4.78169">
        <ele>346</ele>
        <time>2022-07-15T08:38:07.000Z</time>
      </trkpt>
      <trkpt lat="49.88674" lon="4.78172">
        <ele>346</ele>
        <time>2022-07-15T08:38:08.000Z</time>
      </trkpt>
      <trkpt lat="49.8867" lon="4.78175">
        <ele>346</ele>
        <time>2022-07-15T08:38:09.000Z</time>
      </trkpt>
      <trkpt lat="49.88666" lon="4.78177">
        <ele>345</ele>
        <time>2022-07-15T08:38:10.000Z</time>
      </trkpt>
      <trkpt lat="49.88662" lon="4.78179">
        <ele>345</ele>
        <time>2022-07-15T08:38:11.000Z</time>
      </trkpt>
      <trkpt lat="49.88658" lon="4.78181">
        <ele>345</ele>
        <time>2022-07-15T08:38:12.000Z</time>
      </trkpt>
      <trkpt lat="49.88654" lon="4.78184">
        <ele>345</ele>
        <time>2022-07-15T08:38:13.000Z</time>
      </trkpt>
      <trkpt lat="49.88649" lon="4.78186">
        <ele>345</ele>
        <time>2022-07-15T08:38:14.000Z</time>
      </trkpt>
      <trkpt lat="49.88644" lon="4.78188">
        <ele>345</ele>
        <time>2022-07-15T08:38:15.000Z</time>
      </trkpt>
      <trkpt lat="49.8864" lon="4.78191">
        <ele>345</ele>
        <time>2022-07-15T08:38:16.000Z</time>
      </trkpt>
      <trkpt lat="49.88637" lon="4.78193">
        <ele>345</ele>
        <time>2022-07-15T08:38:17.000Z</time>
      </trkpt>
      <trkpt lat="49.88633" lon="4.78196">
        <ele>345</ele>
        <time>2022-07-15T08:38:18.000Z</time>
      </trkpt>
      <trkpt lat="49.88629" lon="4.78199">
        <ele>345</ele>
        <time>2022-07-15T08:38:19.000Z</time>
      </trkpt>
      <trkpt lat="49.88624" lon="4.78202">
        <ele>345</ele>
        <time>2022-07-15T08:38:20.000Z</time>
      </trkpt>
      <trkpt lat="49.88621" lon="4.78204">
        <ele>345</ele>
        <time>2022-07-15T08:38:21.000Z</time>
      </trkpt>
      <trkpt lat="49.88617" lon="4.78208">
        <ele>345</ele>
        <time>2022-07-15T08:38:22.000Z</time>
      </trkpt>
      <trkpt lat="49.88612" lon="4.78211">
        <ele>345</ele>
        <time>2022-07-15T08:38:23.000Z</time>
      </trkpt>
      <trkpt lat="49.88607" lon="4.78214">
        <ele>345</ele>
        <time>2022-07-15T08:38:24.000Z</time>
      </trkpt>
      <trkpt lat="49.88603" lon="4.78217">
        <ele>345</ele>
        <time>2022-07-15T08:38:25.000Z</time>
      </trkpt>
      <trkpt lat="49.88599" lon="4.78221">
        <ele>345</ele>
        <time>2022-07-15T08:38:26.000Z</time>
      </trkpt>
      <trkpt lat="49.88595" lon="4.78224">
        <ele>345</ele>
        <time>2022-07-15T08:38:27.000Z</time>
      </trkpt>
      <trkpt lat="49.8859" lon="4.78227">
        <ele>344</ele>
        <time>2022-07-15T08:38:28.000Z</time>
      </trkpt>
      <trkpt lat="49.88586" lon="4.78229">
        <ele>344</ele>
        <time>2022-07-15T08:38:29.000Z</time>
      </trkpt>
      <trkpt lat="49.88582" lon="4.78232">
        <ele>344</ele>
        <time>2022-07-15T08:38:30.000Z</time>
      </trkpt>
      <trkpt lat="49.88578" lon="4.78234">
        <ele>344</ele>
        <time>2022-07-15T08:38:31.000Z</time>
      </trkpt>
      <trkpt lat="49.88576" lon="4.78237">
        <ele>344</ele>
        <time>2022-07-15T08:38:32.000Z</time>
      </trkpt>
      <trkpt lat="49.88574" lon="4.78238">
        <ele>344</ele>
        <time>2022-07-15T08:38:33.000Z</time>
      </trkpt>
      <trkpt lat="49.88574" lon="4.78239">
        <ele>344</ele>
        <time>2022-07-15T08:38:34.000Z</time>
      </trkpt>
      <trkpt lat="49.88573" lon="4.78239">
        <ele>344</ele>
        <time>2022-07-15T08:38:35.000Z</time>
      </trkpt>
      <trkpt lat="49.88573" lon="4.78239">
        <ele>344</ele>
        <time>2022-07-15T08:38:36.000Z</time>
      </trkpt>
      <trkpt lat="49.88573" lon="4.7824">
        <ele>343</ele>
        <time>2022-07-15T08:38:37.000Z</time>
      </trkpt>
      <trkpt lat="49.88573" lon="4.7824">
        <ele>343</ele>
        <time>2022-07-15T08:38:38.000Z</time>
      </trkpt>
      <trkpt lat="49.88573" lon="4.7824">
        <ele>343</ele>
        <time>2022-07-15T08:38:39.000Z</time>
      </trkpt>
      <trkpt lat="49.88572" lon="4.78241">
        <ele>343</ele>
        <time>2022-07-15T08:38:40.000Z</time>
      </trkpt>
      <trkpt lat="49.88572" lon="4.78241">
        <ele>343</ele>
        <time>2022-07-15T08:38:41.000Z</time>
      </trkpt>
      <trkpt lat="49.88572" lon="4.78241">
        <ele>343</ele>
        <time>2022-07-15T08:38:42.000Z</time>
      </trkpt>
      <trkpt lat="49.88573" lon="4.78242">
        <ele>343</ele>
        <time>2022-07-15T08:38:43.000Z</time>
      </trkpt>
      <trkpt lat="49.88574" lon="4.78243">
        <ele>343</ele>
        <time>2022-07-15T08:38:44.000Z</time>
      </trkpt>
      <trkpt lat="49.88575" lon="4.78244">
        <ele>343</ele>
        <time>2022-07-15T08:38:45.000Z</time>
      </trkpt>
      <trkpt lat="49.88575" lon="4.78244">
        <ele>342</ele>
        <time>2022-07-15T08:38:46.000Z</time>
      </trkpt>
      <trkpt lat="49.88576" lon="4.78245">
        <ele>342</ele>
        <time>2022-07-15T08:38:47.000Z</time>
      </trkpt>
      <trkpt lat="49.88577" lon="4.78245">
        <ele>342</ele>
        <time>2022-07-15T08:38:48.000Z</time>
      </trkpt>
      <trkpt lat="49.88578" lon="4.78246">
        <ele>343</ele>
        <time>2022-07-15T08:38:49.000Z</time>
      </trkpt>
      <trkpt lat="49.88579" lon="4.78246">
        <ele>343</ele>
        <time>2022-07-15T08:38:50.000Z</time>
      </trkpt>
      <trkpt lat="49.8858" lon="4.78247">
        <ele>343</ele>
        <time>2022-07-15T08:38:51.000Z</time>
      </trkpt>
      <trkpt lat="49.88581" lon="4.78248">
        <ele>343</ele>
        <time>2022-07-15T08:38:52.000Z</time>
      </trkpt>
      <trkpt lat="49.88582" lon="4.78249">
        <ele>343</ele>
        <time>2022-07-15T08:38:53.000Z</time>
      </trkpt>
      <trkpt lat="49.88583" lon="4.7825">
        <ele>343</ele>
        <time>2022-07-15T08:38:54.000Z</time>
      </trkpt>
      <trkpt lat="49.88584" lon="4.78251">
        <ele>343</ele>
        <time>2022-07-15T08:38:55.000Z</time>
      </trkpt>
      <trkpt lat="49.88585" lon="4.78251">
        <ele>344</ele>
        <time>2022-07-15T08:38:56.000Z</time>
      </trkpt>
      <trkpt lat="49.88586" lon="4.78252">
        <ele>344</ele>
        <time>2022-07-15T08:38:57.000Z</time>
      </trkpt>
      <trkpt lat="49.88587" lon="4.78252">
        <ele>344</ele>
        <time>2022-07-15T08:38:58.000Z</time>
      </trkpt>
      <trkpt lat="49.88588" lon="4.78252">
        <ele>344</ele>
        <time>2022-07-15T08:38:59.000Z</time>
      </trkpt>
      <trkpt lat="49.88588" lon="4.78252">
        <ele>344</ele>
        <time>2022-07-15T08:39:00.000Z</time>
      </trkpt>
      <trkpt lat="49.88589" lon="4.78252">
        <ele>344</ele>
        <time>2022-07-15T08:39:01.000Z</time>
      </trkpt>
      <trkpt lat="49.8859" lon="4.78253">
        <ele>345</ele>
        <time>2022-07-15T08:39:02.000Z</time>
      </trkpt>
      <trkpt lat="49.88591" lon="4.78253">
        <ele>345</ele>
        <time>2022-07-15T08:39:03.000Z</time>
      </trkpt>
      <trkpt lat="49.88591" lon="4.78253">
        <ele>345</ele>
        <time>2022-07-15T08:39:04.000Z</time>
      </trkpt>
      <trkpt lat="49.88592" lon="4.78253">
        <ele>345</ele>
        <time>2022-07-15T08:39:05.000Z</time>
      </trkpt>
      <trkpt lat="49.88592" lon="4.78254">
        <ele>346</ele>
        <time>2022-07-15T08:39:06.000Z</time>
      </trkpt>
      <trkpt lat="49.88593" lon="4.78255">
        <ele>346</ele>
        <time>2022-07-15T08:39:07.000Z</time>
      </trkpt>
      <trkpt lat="49.88594" lon="4.78255">
        <ele>346</ele>
        <time>2022-07-15T08:39:08.000Z</time>
      </trkpt>
      <trkpt lat="49.88595" lon="4.78256">
        <ele>346</ele>
        <time>2022-07-15T08:39:09.000Z</time>
      </trkpt>
      <trkpt lat="49.88596" lon="4.78256">
        <ele>347</ele>
        <time>2022-07-15T08:39:10.000Z</time>
      </trkpt>
      <trkpt lat="49.88598" lon="4.78257">
        <ele>347</ele>
        <time>2022-07-15T08:39:11.000Z</time>
      </trkpt>
      <trkpt lat="49.88599" lon="4.78258">
        <ele>347</ele>
        <time>2022-07-15T08:39:12.000Z</time>
      </trkpt>
      <trkpt lat="49.886" lon="4.78258">
        <ele>347</ele>
        <time>2022-07-15T08:39:13.000Z</time>
      </trkpt>
      <trkpt lat="49.88602" lon="4.78259">
        <ele>347</ele>
        <time>2022-07-15T08:39:14.000Z</time>
      </trkpt>
      <trkpt lat="49.88603" lon="4.7826">
        <ele>348</ele>
        <time>2022-07-15T08:39:15.000Z</time>
      </trkpt>
      <trkpt lat="49.88604" lon="4.78261">
        <ele>348</ele>
        <time>2022-07-15T08:39:16.000Z</time>
      </trkpt>
      <trkpt lat="49.88605" lon="4.78261">
        <ele>348</ele>
        <time>2022-07-15T08:39:17.000Z</time>
      </trkpt>
      <trkpt lat="49.88606" lon="4.78262">
        <ele>348</ele>
        <time>2022-07-15T08:39:18.000Z</time>
      </trkpt>
      <trkpt lat="49.88607" lon="4.78262">
        <ele>348</ele>
        <time>2022-07-15T08:39:19.000Z</time>
      </trkpt>
      <trkpt lat="49.88608" lon="4.78263">
        <ele>348</ele>
        <time>2022-07-15T08:39:20.000Z</time>
      </trkpt>
      <trkpt lat="49.8861" lon="4.78264">
        <ele>349</ele>
        <time>2022-07-15T08:39:21.000Z</time>
      </trkpt>
      <trkpt lat="49.88611" lon="4.78266">
        <ele>349</ele>
        <time>2022-07-15T08:39:22.000Z</time>
      </trkpt>
      <trkpt lat="49.88612" lon="4.78267">
        <ele>349</ele>
        <time>2022-07-15T08:39:23.000Z</time>
      </trkpt>
      <trkpt lat="49.88613" lon="4.78267">
        <ele>349</ele>
        <time>2022-07-15T08:39:24.000Z</time>
      </trkpt>
      <trkpt lat="49.88614" lon="4.78268">
        <ele>350</ele>
        <time>2022-07-15T08:39:25.000Z</time>
      </trkpt>
      <trkpt lat="49.88615" lon="4.78268">
        <ele>350</ele>
        <time>2022-07-15T08:39:26.000Z</time>
      </trkpt>
      <trkpt lat="49.88616" lon="4.78269">
        <ele>350</ele>
        <time>2022-07-15T08:39:27.000Z</time>
      </trkpt>
      <trkpt lat="49.88617" lon="4.7827">
        <ele>350</ele>
        <time>2022-07-15T08:39:28.000Z</time>
      </trkpt>
      <trkpt lat="49.88619" lon="4.7827">
        <ele>350</ele>
        <time>2022-07-15T08:39:29.000Z</time>
      </trkpt>
      <trkpt lat="49.8862" lon="4.78271">
        <ele>350</ele>
        <time>2022-07-15T08:39:30.000Z</time>
      </trkpt>
      <trkpt lat="49.88621" lon="4.78272">
        <ele>350</ele>
        <time>2022-07-15T08:39:31.000Z</time>
      </trkpt>
      <trkpt lat="49.88622" lon="4.78272">
        <ele>350</ele>
        <time>2022-07-15T08:39:32.000Z</time>
      </trkpt>
      <trkpt lat="49.88623" lon="4.78272">
        <ele>350</ele>
        <time>2022-07-15T08:39:33.000Z</time>
      </trkpt>
      <trkpt lat="49.88624" lon="4.78273">
        <ele>350</ele>
        <time>2022-07-15T08:39:34.000Z</time>
      </trkpt>
      <trkpt lat="49.88625" lon="4.78273">
        <ele>350</ele>
        <time>2022-07-15T08:39:35.000Z</time>
      </trkpt>
      <trkpt lat="49.88626" lon="4.78273">
        <ele>350</ele>
        <time>2022-07-15T08:39:36.000Z</time>
      </trkpt>
      <trkpt lat="49.88627" lon="4.78273">
        <ele>351</ele>
        <time>2022-07-15T08:39:37.000Z</time>
      </trkpt>
      <trkpt lat="49.88628" lon="4.78273">
        <ele>351</ele>
        <time>2022-07-15T08:39:38.000Z</time>
      </trkpt>
      <trkpt lat="49.88629" lon="4.78274">
        <ele>351</ele>
        <time>2022-07-15T08:39:39.000Z</time>
      </trkpt>
      <trkpt lat="49.8863" lon="4.78273">
        <ele>351</ele>
        <time>2022-07-15T08:39:40.000Z</time>
      </trkpt>
      <trkpt lat="49.88632" lon="4.78273">
        <ele>351</ele>
        <time>2022-07-15T08:39:41.000Z</time>
      </trkpt>
      <trkpt lat="49.88633" lon="4.78273">
        <ele>351</ele>
        <time>2022-07-15T08:39:42.000Z</time>
      </trkpt>
      <trkpt lat="49.88634" lon="4.78274">
        <ele>352</ele>
        <time>2022-07-15T08:39:43.000Z</time>
      </trkpt>
      <trkpt lat="49.88635" lon="4.78274">
        <ele>352</ele>
        <time>2022-07-15T08:39:44.000Z</time>
      </trkpt>
      <trkpt lat="49.88636" lon="4.78274">
        <ele>352</ele>
        <time>2022-07-15T08:39:45.000Z</time>
      </trkpt>
      <trkpt lat="49.88638" lon="4.78273">
        <ele>352</ele>
        <time>2022-07-15T08:39:46.000Z</time>
      </trkpt>
      <trkpt lat="49.88639" lon="4.78273">
        <ele>352</ele>
        <time>2022-07-15T08:39:47.000Z</time>
      </trkpt>
      <trkpt lat="49.8864" lon="4.78273">
        <ele>353</ele>
        <time>2022-07-15T08:39:48.000Z</time>
      </trkpt>
      <trkpt lat="49.88642" lon="4.78273">
        <ele>353</ele>
        <time>2022-07-15T08:39:49.000Z</time>
      </trkpt>
      <trkpt lat="49.88643" lon="4.78272">
        <ele>353</ele>
        <time>2022-07-15T08:39:50.000Z</time>
      </trkpt>
      <trkpt lat="49.88644" lon="4.78271">
        <ele>353</ele>
        <time>2022-07-15T08:39:51.000Z</time>
      </trkpt>
      <trkpt lat="49.88646" lon="4.7827">
        <ele>354</ele>
        <time>2022-07-15T08:39:52.000Z</time>
      </trkpt>
      <trkpt lat="49.88647" lon="4.7827">
        <ele>354</ele>
        <time>2022-07-15T08:39:53.000Z</time>
      </trkpt>
      <trkpt lat="49.88649" lon="4.78269">
        <ele>354</ele>
        <time>2022-07-15T08:39:54.000Z</time>
      </trkpt>
      <trkpt lat="49.8865" lon="4.78268">
        <ele>355</ele>
        <time>2022-07-15T08:39:55.000Z</time>
      </trkpt>
      <trkpt lat="49.88652" lon="4.78268">
        <ele>355</ele>
        <time>2022-07-15T08:39:56.000Z</time>
      </trkpt>
      <trkpt lat="49.88653" lon="4.78268">
        <ele>355</ele>
        <time>2022-07-15T08:39:57.000Z</time>
      </trkpt>
      <trkpt lat="49.88654" lon="4.78268">
        <ele>356</ele>
        <time>2022-07-15T08:39:58.000Z</time>
      </trkpt>
      <trkpt lat="49.88655" lon="4.78268">
        <ele>356</ele>
        <time>2022-07-15T08:39:59.000Z</time>
      </trkpt>
      <trkpt lat="49.88657" lon="4.78267">
        <ele>356</ele>
        <time>2022-07-15T08:40:00.000Z</time>
      </trkpt>
      <trkpt lat="49.88658" lon="4.78267">
        <ele>357</ele>
        <time>2022-07-15T08:40:01.000Z</time>
      </trkpt>
      <trkpt lat="49.88659" lon="4.78268">
        <ele>357</ele>
        <time>2022-07-15T08:40:02.000Z</time>
      </trkpt>
      <trkpt lat="49.8866" lon="4.78267">
        <ele>357</ele>
        <time>2022-07-15T08:40:03.000Z</time>
      </trkpt>
      <trkpt lat="49.88661" lon="4.78266">
        <ele>357</ele>
        <time>2022-07-15T08:40:04.000Z</time>
      </trkpt>
      <trkpt lat="49.88663" lon="4.78266">
        <ele>358</ele>
        <time>2022-07-15T08:40:05.000Z</time>
      </trkpt>
      <trkpt lat="49.88664" lon="4.78266">
        <ele>358</ele>
        <time>2022-07-15T08:40:06.000Z</time>
      </trkpt>
      <trkpt lat="49.88666" lon="4.78266">
        <ele>358</ele>
        <time>2022-07-15T08:40:07.000Z</time>
      </trkpt>
      <trkpt lat="49.88667" lon="4.78266">
        <ele>359</ele>
        <time>2022-07-15T08:40:08.000Z</time>
      </trkpt>
      <trkpt lat="49.88668" lon="4.78266">
        <ele>359</ele>
        <time>2022-07-15T08:40:09.000Z</time>
      </trkpt>
      <trkpt lat="49.88669" lon="4.78265">
        <ele>359</ele>
        <time>2022-07-15T08:40:10.000Z</time>
      </trkpt>
      <trkpt lat="49.8867" lon="4.78264">
        <ele>359</ele>
        <time>2022-07-15T08:40:11.000Z</time>
      </trkpt>
      <trkpt lat="49.88672" lon="4.78263">
        <ele>360</ele>
        <time>2022-07-15T08:40:12.000Z</time>
      </trkpt>
      <trkpt lat="49.88674" lon="4.78262">
        <ele>360</ele>
        <time>2022-07-15T08:40:13.000Z</time>
      </trkpt>
      <trkpt lat="49.88675" lon="4.78262">
        <ele>360</ele>
        <time>2022-07-15T08:40:14.000Z</time>
      </trkpt>
      <trkpt lat="49.88677" lon="4.78262">
        <ele>360</ele>
        <time>2022-07-15T08:40:15.000Z</time>
      </trkpt>
      <trkpt lat="49.88677" lon="4.78261">
        <ele>361</ele>
        <time>2022-07-15T08:40:16.000Z</time>
      </trkpt>
      <trkpt lat="49.88679" lon="4.7826">
        <ele>361</ele>
        <time>2022-07-15T08:40:17.000Z</time>
      </trkpt>
      <trkpt lat="49.8868" lon="4.78259">
        <ele>361</ele>
        <time>2022-07-15T08:40:18.000Z</time>
      </trkpt>
      <trkpt lat="49.88682" lon="4.78258">
        <ele>361</ele>
        <time>2022-07-15T08:40:19.000Z</time>
      </trkpt>
      <trkpt lat="49.88683" lon="4.78257">
        <ele>362</ele>
        <time>2022-07-15T08:40:20.000Z</time>
      </trkpt>
      <trkpt lat="49.88685" lon="4.78256">
        <ele>362</ele>
        <time>2022-07-15T08:40:21.000Z</time>
      </trkpt>
      <trkpt lat="49.88685" lon="4.78255">
        <ele>362</ele>
        <time>2022-07-15T08:40:22.000Z</time>
      </trkpt>
      <trkpt lat="49.88686" lon="4.78255">
        <ele>363</ele>
        <time>2022-07-15T08:40:23.000Z</time>
      </trkpt>
      <trkpt lat="49.88687" lon="4.78254">
        <ele>363</ele>
        <time>2022-07-15T08:40:24.000Z</time>
      </trkpt>
      <trkpt lat="49.88688" lon="4.78253">
        <ele>363</ele>
        <time>2022-07-15T08:40:25.000Z</time>
      </trkpt>
      <trkpt lat="49.88689" lon="4.78251">
        <ele>363</ele>
        <time>2022-07-15T08:40:26.000Z</time>
      </trkpt>
      <trkpt lat="49.88691" lon="4.7825">
        <ele>363</ele>
        <time>2022-07-15T08:40:27.000Z</time>
      </trkpt>
      <trkpt lat="49.88692" lon="4.78249">
        <ele>364</ele>
        <time>2022-07-15T08:40:28.000Z</time>
      </trkpt>
      <trkpt lat="49.88694" lon="4.78248">
        <ele>364</ele>
        <time>2022-07-15T08:40:29.000Z</time>
      </trkpt>
      <trkpt lat="49.88696" lon="4.78248">
        <ele>364</ele>
        <time>2022-07-15T08:40:30.000Z</time>
      </trkpt>
      <trkpt lat="49.88699" lon="4.78247">
        <ele>364</ele>
        <time>2022-07-15T08:40:31.000Z</time>
      </trkpt>
      <trkpt lat="49.88701" lon="4.78246">
        <ele>364</ele>
        <time>2022-07-15T08:40:32.000Z</time>
      </trkpt>
      <trkpt lat="49.88703" lon="4.78246">
        <ele>365</ele>
        <time>2022-07-15T08:40:33.000Z</time>
      </trkpt>
      <trkpt lat="49.88705" lon="4.78245">
        <ele>365</ele>
        <time>2022-07-15T08:40:34.000Z</time>
      </trkpt>
      <trkpt lat="49.88708" lon="4.78244">
        <ele>365</ele>
        <time>2022-07-15T08:40:35.000Z</time>
      </trkpt>
      <trkpt lat="49.8871" lon="4.78243">
        <ele>365</ele>
        <time>2022-07-15T08:40:36.000Z</time>
      </trkpt>
      <trkpt lat="49.88712" lon="4.78242">
        <ele>365</ele>
        <time>2022-07-15T08:40:37.000Z</time>
      </trkpt>
      <trkpt lat="49.88714" lon="4.78241">
        <ele>365</ele>
        <time>2022-07-15T08:40:38.000Z</time>
      </trkpt>
      <trkpt lat="49.88716" lon="4.78239">
        <ele>365</ele>
        <time>2022-07-15T08:40:39.000Z</time>
      </trkpt>
      <trkpt lat="49.88718" lon="4.78237">
        <ele>365</ele>
        <time>2022-07-15T08:40:40.000Z</time>
      </trkpt>
      <trkpt lat="49.8872" lon="4.78236">
        <ele>365</ele>
        <time>2022-07-15T08:40:41.000Z</time>
      </trkpt>
      <trkpt lat="49.88722" lon="4.78234">
        <ele>365</ele>
        <time>2022-07-15T08:40:42.000Z</time>
      </trkpt>
      <trkpt lat="49.88723" lon="4.78233">
        <ele>365</ele>
        <time>2022-07-15T08:40:43.000Z</time>
      </trkpt>
      <trkpt lat="49.88725" lon="4.78232">
        <ele>365</ele>
        <time>2022-07-15T08:40:44.000Z</time>
      </trkpt>
      <trkpt lat="49.88728" lon="4.7823">
        <ele>365</ele>
        <time>2022-07-15T08:40:45.000Z</time>
      </trkpt>
      <trkpt lat="49.8873" lon="4.78228">
        <ele>365</ele>
        <time>2022-07-15T08:40:46.000Z</time>
      </trkpt>
      <trkpt lat="49.88732" lon="4.78227">
        <ele>365</ele>
        <time>2022-07-15T08:40:47.000Z</time>
      </trkpt>
      <trkpt lat="49.88734" lon="4.78227">
        <ele>365</ele>
        <time>2022-07-15T08:40:48.000Z</time>
      </trkpt>
      <trkpt lat="49.88736" lon="4.78226">
        <ele>365</ele>
        <time>2022-07-15T08:40:49.000Z</time>
      </trkpt>
      <trkpt lat="49.88738" lon="4.78225">
        <ele>365</ele>
        <time>2022-07-15T08:40:50.000Z</time>
      </trkpt>
      <trkpt lat="49.8874" lon="4.78224">
        <ele>365</ele>
        <time>2022-07-15T08:40:51.000Z</time>
      </trkpt>
      <trkpt lat="49.88742" lon="4.78224">
        <ele>365</ele>
        <time>2022-07-15T08:40:52.000Z</time>
      </trkpt>
      <trkpt lat="49.88744" lon="4.78222">
        <ele>365</ele>
        <time>2022-07-15T08:40:53.000Z</time>
      </trkpt>
      <trkpt lat="49.88745" lon="4.78222">
        <ele>365</ele>
        <time>2022-07-15T08:40:54.000Z</time>
      </trkpt>
      <trkpt lat="49.88746" lon="4.78221">
        <ele>365</ele>
        <time>2022-07-15T08:40:55.000Z</time>
      </trkpt>
      <trkpt lat="49.88748" lon="4.7822">
        <ele>365</ele>
        <time>2022-07-15T08:40:56.000Z</time>
      </trkpt>
      <trkpt lat="49.88751" lon="4.78219">
        <ele>365</ele>
        <time>2022-07-15T08:40:57.000Z</time>
      </trkpt>
      <trkpt lat="49.88753" lon="4.78218">
        <ele>365</ele>
        <time>2022-07-15T08:40:58.000Z</time>
      </trkpt>
      <trkpt lat="49.88756" lon="4.78218">
        <ele>365</ele>
        <time>2022-07-15T08:40:59.000Z</time>
      </trkpt>
      <trkpt lat="49.88759" lon="4.78217">
        <ele>365</ele>
        <time>2022-07-15T08:41:00.000Z</time>
      </trkpt>
      <trkpt lat="49.88761" lon="4.78216">
        <ele>365</ele>
        <time>2022-07-15T08:41:01.000Z</time>
      </trkpt>
      <trkpt lat="49.88762" lon="4.78216">
        <ele>365</ele>
        <time>2022-07-15T08:41:02.000Z</time>
      </trkpt>
      <trkpt lat="49.88762" lon="4.78216">
        <ele>365</ele>
        <time>2022-07-15T08:41:03.000Z</time>
      </trkpt>
      <trkpt lat="49.88763" lon="4.78215">
        <ele>365</ele>
        <time>2022-07-15T08:41:04.000Z</time>
      </trkpt>
      <trkpt lat="49.88763" lon="4.78215">
        <ele>365</ele>
        <time>2022-07-15T08:41:05.000Z</time>
      </trkpt>
      <trkpt lat="49.88763" lon="4.78214">
        <ele>365</ele>
        <time>2022-07-15T08:41:06.000Z</time>
      </trkpt>
      <trkpt lat="49.88764" lon="4.78214">
        <ele>365</ele>
        <time>2022-07-15T08:41:07.000Z</time>
      </trkpt>
      <trkpt lat="49.88765" lon="4.78214">
        <ele>365</ele>
        <time>2022-07-15T08:41:08.000Z</time>
      </trkpt>
      <trkpt lat="49.88765" lon="4.78214">
        <ele>365</ele>
        <time>2022-07-15T08:41:09.000Z</time>
      </trkpt>
      <trkpt lat="49.88766" lon="4.78214">
        <ele>365</ele>
        <time>2022-07-15T08:41:10.000Z</time>
      </trkpt>
      <trkpt lat="49.88767" lon="4.78215">
        <ele>364</ele>
        <time>2022-07-15T08:41:11.000Z</time>
      </trkpt>
      <trkpt lat="49.88768" lon="4.78215">
        <ele>364</ele>
        <time>2022-07-15T08:41:12.000Z</time>
      </trkpt>
      <trkpt lat="49.88768" lon="4.78215">
        <ele>364</ele>
        <time>2022-07-15T08:41:13.000Z</time>
      </trkpt>
      <trkpt lat="49.8877" lon="4.78215">
        <ele>364</ele>
        <time>2022-07-15T08:41:14.000Z</time>
      </trkpt>
      <trkpt lat="49.88771" lon="4.78216">
        <ele>364</ele>
        <time>2022-07-15T08:41:15.000Z</time>
      </trkpt>
      <trkpt lat="49.88772" lon="4.78216">
        <ele>364</ele>
        <time>2022-07-15T08:41:16.000Z</time>
      </trkpt>
      <trkpt lat="49.88773" lon="4.78217">
        <ele>364</ele>
        <time>2022-07-15T08:41:17.000Z</time>
      </trkpt>
      <trkpt lat="49.88775" lon="4.78217">
        <ele>363</ele>
        <time>2022-07-15T08:41:18.000Z</time>
      </trkpt>
      <trkpt lat="49.88776" lon="4.78217">
        <ele>363</ele>
        <time>2022-07-15T08:41:19.000Z</time>
      </trkpt>
      <trkpt lat="49.88777" lon="4.78217">
        <ele>363</ele>
        <time>2022-07-15T08:41:20.000Z</time>
      </trkpt>
      <trkpt lat="49.88778" lon="4.78217">
        <ele>364</ele>
        <time>2022-07-15T08:41:21.000Z</time>
      </trkpt>
      <trkpt lat="49.88779" lon="4.78218">
        <ele>364</ele>
        <time>2022-07-15T08:41:22.000Z</time>
      </trkpt>
      <trkpt lat="49.88781" lon="4.78218">
        <ele>363</ele>
        <time>2022-07-15T08:41:23.000Z</time>
      </trkpt>
      <trkpt lat="49.88782" lon="4.7822">
        <ele>363</ele>
        <time>2022-07-15T08:41:24.000Z</time>
      </trkpt>
      <trkpt lat="49.88783" lon="4.78221">
        <ele>364</ele>
        <time>2022-07-15T08:41:25.000Z</time>
      </trkpt>
      <trkpt lat="49.88784" lon="4.78222">
        <ele>364</ele>
        <time>2022-07-15T08:41:26.000Z</time>
      </trkpt>
      <trkpt lat="49.88785" lon="4.78223">
        <ele>364</ele>
        <time>2022-07-15T08:41:27.000Z</time>
      </trkpt>
      <trkpt lat="49.88787" lon="4.78224">
        <ele>364</ele>
        <time>2022-07-15T08:41:28.000Z</time>
      </trkpt>
      <trkpt lat="49.88788" lon="4.78224">
        <ele>364</ele>
        <time>2022-07-15T08:41:29.000Z</time>
      </trkpt>
      <trkpt lat="49.88789" lon="4.78224">
        <ele>364</ele>
        <time>2022-07-15T08:41:30.000Z</time>
      </trkpt>
      <trkpt lat="49.88791" lon="4.78225">
        <ele>364</ele>
        <time>2022-07-15T08:41:31.000Z</time>
      </trkpt>
      <trkpt lat="49.88792" lon="4.78226">
        <ele>364</ele>
        <time>2022-07-15T08:41:32.000Z</time>
      </trkpt>
      <trkpt lat="49.88793" lon="4.78226">
        <ele>365</ele>
        <time>2022-07-15T08:41:33.000Z</time>
      </trkpt>
      <trkpt lat="49.88794" lon="4.78227">
        <ele>365</ele>
        <time>2022-07-15T08:41:34.000Z</time>
      </trkpt>
      <trkpt lat="49.88796" lon="4.78228">
        <ele>365</ele>
        <time>2022-07-15T08:41:35.000Z</time>
      </trkpt>
      <trkpt lat="49.88797" lon="4.78228">
        <ele>365</ele>
        <time>2022-07-15T08:41:36.000Z</time>
      </trkpt>
      <trkpt lat="49.88798" lon="4.78229">
        <ele>365</ele>
        <time>2022-07-15T08:41:37.000Z</time>
      </trkpt>
      <trkpt lat="49.88798" lon="4.78229">
        <ele>365</ele>
        <time>2022-07-15T08:41:38.000Z</time>
      </trkpt>
      <trkpt lat="49.888" lon="4.78229">
        <ele>365</ele>
        <time>2022-07-15T08:41:39.000Z</time>
      </trkpt>
      <trkpt lat="49.88801" lon="4.7823">
        <ele>365</ele>
        <time>2022-07-15T08:41:40.000Z</time>
      </trkpt>
      <trkpt lat="49.88802" lon="4.7823">
        <ele>365</ele>
        <time>2022-07-15T08:41:41.000Z</time>
      </trkpt>
      <trkpt lat="49.88803" lon="4.78231">
        <ele>365</ele>
        <time>2022-07-15T08:41:42.000Z</time>
      </trkpt>
      <trkpt lat="49.88804" lon="4.78231">
        <ele>366</ele>
        <time>2022-07-15T08:41:43.000Z</time>
      </trkpt>
      <trkpt lat="49.88805" lon="4.78231">
        <ele>366</ele>
        <time>2022-07-15T08:41:44.000Z</time>
      </trkpt>
      <trkpt lat="49.88806" lon="4.78232">
        <ele>366</ele>
        <time>2022-07-15T08:41:45.000Z</time>
      </trkpt>
      <trkpt lat="49.88808" lon="4.78232">
        <ele>366</ele>
        <time>2022-07-15T08:41:46.000Z</time>
      </trkpt>
      <trkpt lat="49.88809" lon="4.78232">
        <ele>366</ele>
        <time>2022-07-15T08:41:47.000Z</time>
      </trkpt>
      <trkpt lat="49.88811" lon="4.78233">
        <ele>366</ele>
        <time>2022-07-15T08:41:48.000Z</time>
      </trkpt>
      <trkpt lat="49.88812" lon="4.78233">
        <ele>366</ele>
        <time>2022-07-15T08:41:49.000Z</time>
      </trkpt>
      <trkpt lat="49.88814" lon="4.78234">
        <ele>367</ele>
        <time>2022-07-15T08:41:50.000Z</time>
      </trkpt>
      <trkpt lat="49.88816" lon="4.78234">
        <ele>367</ele>
        <time>2022-07-15T08:41:51.000Z</time>
      </trkpt>
      <trkpt lat="49.88817" lon="4.78234">
        <ele>367</ele>
        <time>2022-07-15T08:41:52.000Z</time>
      </trkpt>
      <trkpt lat="49.88818" lon="4.78235">
        <ele>367</ele>
        <time>2022-07-15T08:41:53.000Z</time>
      </trkpt>
      <trkpt lat="49.88819" lon="4.78235">
        <ele>367</ele>
        <time>2022-07-15T08:41:54.000Z</time>
      </trkpt>
      <trkpt lat="49.8882" lon="4.78235">
        <ele>367</ele>
        <time>2022-07-15T08:41:55.000Z</time>
      </trkpt>
      <trkpt lat="49.88822" lon="4.78236">
        <ele>367</ele>
        <time>2022-07-15T08:41:56.000Z</time>
      </trkpt>
      <trkpt lat="49.88823" lon="4.78236">
        <ele>367</ele>
        <time>2022-07-15T08:41:57.000Z</time>
      </trkpt>
      <trkpt lat="49.88824" lon="4.78237">
        <ele>367</ele>
        <time>2022-07-15T08:41:58.000Z</time>
      </trkpt>
      <trkpt lat="49.88825" lon="4.78238">
        <ele>367</ele>
        <time>2022-07-15T08:41:59.000Z</time>
      </trkpt>
      <trkpt lat="49.88826" lon="4.78239">
        <ele>367</ele>
        <time>2022-07-15T08:42:00.000Z</time>
      </trkpt>
      <trkpt lat="49.88828" lon="4.7824">
        <ele>367</ele>
        <time>2022-07-15T08:42:01.000Z</time>
      </trkpt>
      <trkpt lat="49.88829" lon="4.7824">
        <ele>368</ele>
        <time>2022-07-15T08:42:02.000Z</time>
      </trkpt>
      <trkpt lat="49.8883" lon="4.78241">
        <ele>368</ele>
        <time>2022-07-15T08:42:03.000Z</time>
      </trkpt>
      <trkpt lat="49.88831" lon="4.78242">
        <ele>368</ele>
        <time>2022-07-15T08:42:04.000Z</time>
      </trkpt>
      <trkpt lat="49.88832" lon="4.78242">
        <ele>368</ele>
        <time>2022-07-15T08:42:05.000Z</time>
      </trkpt>
      <trkpt lat="49.88833" lon="4.78243">
        <ele>368</ele>
        <time>2022-07-15T08:42:06.000Z</time>
      </trkpt>
      <trkpt lat="49.88834" lon="4.78243">
        <ele>368</ele>
        <time>2022-07-15T08:42:07.000Z</time>
      </trkpt>
      <trkpt lat="49.88835" lon="4.78244">
        <ele>368</ele>
        <time>2022-07-15T08:42:08.000Z</time>
      </trkpt>
      <trkpt lat="49.88836" lon="4.78244">
        <ele>368</ele>
        <time>2022-07-15T08:42:09.000Z</time>
      </trkpt>
      <trkpt lat="49.88838" lon="4.78243">
        <ele>368</ele>
        <time>2022-07-15T08:42:10.000Z</time>
      </trkpt>
      <trkpt lat="49.88839" lon="4.78243">
        <ele>368</ele>
        <time>2022-07-15T08:42:11.000Z</time>
      </trkpt>
      <trkpt lat="49.8884" lon="4.78243">
        <ele>369</ele>
        <time>2022-07-15T08:42:12.000Z</time>
      </trkpt>
      <trkpt lat="49.88842" lon="4.78244">
        <ele>369</ele>
        <time>2022-07-15T08:42:13.000Z</time>
      </trkpt>
      <trkpt lat="49.88843" lon="4.78244">
        <ele>369</ele>
        <time>2022-07-15T08:42:14.000Z</time>
      </trkpt>
      <trkpt lat="49.88844" lon="4.78244">
        <ele>369</ele>
        <time>2022-07-15T08:42:15.000Z</time>
      </trkpt>
      <trkpt lat="49.88845" lon="4.78244">
        <ele>369</ele>
        <time>2022-07-15T08:42:16.000Z</time>
      </trkpt>
      <trkpt lat="49.88846" lon="4.78245">
        <ele>369</ele>
        <time>2022-07-15T08:42:17.000Z</time>
      </trkpt>
      <trkpt lat="49.88847" lon="4.78245">
        <ele>369</ele>
        <time>2022-07-15T08:42:18.000Z</time>
      </trkpt>
      <trkpt lat="49.88848" lon="4.78245">
        <ele>370</ele>
        <time>2022-07-15T08:42:19.000Z</time>
      </trkpt>
      <trkpt lat="49.8885" lon="4.78245">
        <ele>370</ele>
        <time>2022-07-15T08:42:20.000Z</time>
      </trkpt>
      <trkpt lat="49.88851" lon="4.78245">
        <ele>370</ele>
        <time>2022-07-15T08:42:21.000Z</time>
      </trkpt>
      <trkpt lat="49.88852" lon="4.78245">
        <ele>370</ele>
        <time>2022-07-15T08:42:22.000Z</time>
      </trkpt>
      <trkpt lat="49.88853" lon="4.78245">
        <ele>370</ele>
        <time>2022-07-15T08:42:23.000Z</time>
      </trkpt>
      <trkpt lat="49.88854" lon="4.78246">
        <ele>371</ele>
        <time>2022-07-15T08:42:24.000Z</time>
      </trkpt>
      <trkpt lat="49.88854" lon="4.78246">
        <ele>371</ele>
        <time>2022-07-15T08:42:25.000Z</time>
      </trkpt>
      <trkpt lat="49.88855" lon="4.78246">
        <ele>371</ele>
        <time>2022-07-15T08:42:26.000Z</time>
      </trkpt>
      <trkpt lat="49.88856" lon="4.78247">
        <ele>371</ele>
        <time>2022-07-15T08:42:27.000Z</time>
      </trkpt>
      <trkpt lat="49.88857" lon="4.78247">
        <ele>371</ele>
        <time>2022-07-15T08:42:28.000Z</time>
      </trkpt>
      <trkpt lat="49.88858" lon="4.78247">
        <ele>371</ele>
        <time>2022-07-15T08:42:29.000Z</time>
      </trkpt>
      <trkpt lat="49.88859" lon="4.78248">
        <ele>372</ele>
        <time>2022-07-15T08:42:30.000Z</time>
      </trkpt>
      <trkpt lat="49.8886" lon="4.78249">
        <ele>372</ele>
        <time>2022-07-15T08:42:31.000Z</time>
      </trkpt>
      <trkpt lat="49.88861" lon="4.78249">
        <ele>372</ele>
        <time>2022-07-15T08:42:32.000Z</time>
      </trkpt>
      <trkpt lat="49.88862" lon="4.78249">
        <ele>372</ele>
        <time>2022-07-15T08:42:33.000Z</time>
      </trkpt>
      <trkpt lat="49.88863" lon="4.7825">
        <ele>372</ele>
        <time>2022-07-15T08:42:34.000Z</time>
      </trkpt>
      <trkpt lat="49.88864" lon="4.78249">
        <ele>372</ele>
        <time>2022-07-15T08:42:35.000Z</time>
      </trkpt>
      <trkpt lat="49.88865" lon="4.7825">
        <ele>372</ele>
        <time>2022-07-15T08:42:36.000Z</time>
      </trkpt>
      <trkpt lat="49.88866" lon="4.7825">
        <ele>373</ele>
        <time>2022-07-15T08:42:37.000Z</time>
      </trkpt>
      <trkpt lat="49.88867" lon="4.7825">
        <ele>373</ele>
        <time>2022-07-15T08:42:38.000Z</time>
      </trkpt>
      <trkpt lat="49.88867" lon="4.78251">
        <ele>373</ele>
        <time>2022-07-15T08:42:39.000Z</time>
      </trkpt>
      <trkpt lat="49.88868" lon="4.78251">
        <ele>373</ele>
        <time>2022-07-15T08:42:40.000Z</time>
      </trkpt>
      <trkpt lat="49.88869" lon="4.78252">
        <ele>373</ele>
        <time>2022-07-15T08:42:41.000Z</time>
      </trkpt>
      <trkpt lat="49.88871" lon="4.78252">
        <ele>373</ele>
        <time>2022-07-15T08:42:42.000Z</time>
      </trkpt>
      <trkpt lat="49.88872" lon="4.78253">
        <ele>373</ele>
        <time>2022-07-15T08:42:43.000Z</time>
      </trkpt>
      <trkpt lat="49.88872" lon="4.78254">
        <ele>373</ele>
        <time>2022-07-15T08:42:44.000Z</time>
      </trkpt>
      <trkpt lat="49.88873" lon="4.78255">
        <ele>373</ele>
        <time>2022-07-15T08:42:45.000Z</time>
      </trkpt>
      <trkpt lat="49.88874" lon="4.78256">
        <ele>373</ele>
        <time>2022-07-15T08:42:46.000Z</time>
      </trkpt>
      <trkpt lat="49.88875" lon="4.78256">
        <ele>374</ele>
        <time>2022-07-15T08:42:47.000Z</time>
      </trkpt>
      <trkpt lat="49.88876" lon="4.78258">
        <ele>374</ele>
        <time>2022-07-15T08:42:48.000Z</time>
      </trkpt>
      <trkpt lat="49.88877" lon="4.78258">
        <ele>374</ele>
        <time>2022-07-15T08:42:49.000Z</time>
      </trkpt>
      <trkpt lat="49.88878" lon="4.7826">
        <ele>374</ele>
        <time>2022-07-15T08:42:50.000Z</time>
      </trkpt>
      <trkpt lat="49.88879" lon="4.7826">
        <ele>374</ele>
        <time>2022-07-15T08:42:51.000Z</time>
      </trkpt>
      <trkpt lat="49.8888" lon="4.78261">
        <ele>374</ele>
        <time>2022-07-15T08:42:52.000Z</time>
      </trkpt>
      <trkpt lat="49.88881" lon="4.78262">
        <ele>374</ele>
        <time>2022-07-15T08:42:53.000Z</time>
      </trkpt>
      <trkpt lat="49.88882" lon="4.78263">
        <ele>375</ele>
        <time>2022-07-15T08:42:54.000Z</time>
      </trkpt>
      <trkpt lat="49.88884" lon="4.78263">
        <ele>375</ele>
        <time>2022-07-15T08:42:55.000Z</time>
      </trkpt>
      <trkpt lat="49.88885" lon="4.78264">
        <ele>375</ele>
        <time>2022-07-15T08:42:56.000Z</time>
      </trkpt>
      <trkpt lat="49.88886" lon="4.78264">
        <ele>375</ele>
        <time>2022-07-15T08:42:57.000Z</time>
      </trkpt>
      <trkpt lat="49.88888" lon="4.78264">
        <ele>375</ele>
        <time>2022-07-15T08:42:58.000Z</time>
      </trkpt>
      <trkpt lat="49.88889" lon="4.78263">
        <ele>376</ele>
        <time>2022-07-15T08:42:59.000Z</time>
      </trkpt>
      <trkpt lat="49.8889" lon="4.78263">
        <ele>376</ele>
        <time>2022-07-15T08:43:00.000Z</time>
      </trkpt>
      <trkpt lat="49.88891" lon="4.78263">
        <ele>376</ele>
        <time>2022-07-15T08:43:01.000Z</time>
      </trkpt>
      <trkpt lat="49.88892" lon="4.78262">
        <ele>376</ele>
        <time>2022-07-15T08:43:02.000Z</time>
      </trkpt>
      <trkpt lat="49.88893" lon="4.78262">
        <ele>377</ele>
        <time>2022-07-15T08:43:03.000Z</time>
      </trkpt>
      <trkpt lat="49.88894" lon="4.78262">
        <ele>377</ele>
        <time>2022-07-15T08:43:04.000Z</time>
      </trkpt>
      <trkpt lat="49.88895" lon="4.78261">
        <ele>377</ele>
        <time>2022-07-15T08:43:05.000Z</time>
      </trkpt>
      <trkpt lat="49.88896" lon="4.78261">
        <ele>377</ele>
        <time>2022-07-15T08:43:06.000Z</time>
      </trkpt>
      <trkpt lat="49.88898" lon="4.78261">
        <ele>377</ele>
        <time>2022-07-15T08:43:07.000Z</time>
      </trkpt>
      <trkpt lat="49.88899" lon="4.78261">
        <ele>378</ele>
        <time>2022-07-15T08:43:08.000Z</time>
      </trkpt>
      <trkpt lat="49.889" lon="4.78261">
        <ele>378</ele>
        <time>2022-07-15T08:43:09.000Z</time>
      </trkpt>
      <trkpt lat="49.88901" lon="4.78261">
        <ele>378</ele>
        <time>2022-07-15T08:43:10.000Z</time>
      </trkpt>
      <trkpt lat="49.88903" lon="4.78261">
        <ele>378</ele>
        <time>2022-07-15T08:43:11.000Z</time>
      </trkpt>
      <trkpt lat="49.88905" lon="4.78262">
        <ele>379</ele>
        <time>2022-07-15T08:43:12.000Z</time>
      </trkpt>
      <trkpt lat="49.88906" lon="4.78262">
        <ele>379</ele>
        <time>2022-07-15T08:43:13.000Z</time>
      </trkpt>
      <trkpt lat="49.88907" lon="4.78263">
        <ele>379</ele>
        <time>2022-07-15T08:43:14.000Z</time>
      </trkpt>
      <trkpt lat="49.88908" lon="4.78264">
        <ele>379</ele>
        <time>2022-07-15T08:43:15.000Z</time>
      </trkpt>
      <trkpt lat="49.88909" lon="4.78264">
        <ele>379</ele>
        <time>2022-07-15T08:43:16.000Z</time>
      </trkpt>
      <trkpt lat="49.88909" lon="4.78264">
        <ele>380</ele>
        <time>2022-07-15T08:43:17.000Z</time>
      </trkpt>
      <trkpt lat="49.8891" lon="4.78264">
        <ele>380</ele>
        <time>2022-07-15T08:43:18.000Z</time>
      </trkpt>
      <trkpt lat="49.8891" lon="4.78264">
        <ele>380</ele>
        <time>2022-07-15T08:43:19.000Z</time>
      </trkpt>
      <trkpt lat="49.88911" lon="4.78264">
        <ele>380</ele>
        <time>2022-07-15T08:43:20.000Z</time>
      </trkpt>
      <trkpt lat="49.88911" lon="4.78264">
        <ele>381</ele>
        <time>2022-07-15T08:43:21.000Z</time>
      </trkpt>
      <trkpt lat="49.88912" lon="4.78264">
        <ele>381</ele>
        <time>2022-07-15T08:43:22.000Z</time>
      </trkpt>
      <trkpt lat="49.88912" lon="4.78264">
        <ele>381</ele>
        <time>2022-07-15T08:43:23.000Z</time>
      </trkpt>
      <trkpt lat="49.88913" lon="4.78264">
        <ele>382</ele>
        <time>2022-07-15T08:43:24.000Z</time>
      </trkpt>
      <trkpt lat="49.88912" lon="4.78264">
        <ele>382</ele>
        <time>2022-07-15T08:43:25.000Z</time>
      </trkpt>
      <trkpt lat="49.88912" lon="4.78264">
        <ele>382</ele>
        <time>2022-07-15T08:43:26.000Z</time>
      </trkpt>
      <trkpt lat="49.88912" lon="4.78264">
        <ele>382</ele>
        <time>2022-07-15T08:43:27.000Z</time>
      </trkpt>
      <trkpt lat="49.88913" lon="4.78264">
        <ele>382</ele>
        <time>2022-07-15T08:43:28.000Z</time>
      </trkpt>
      <trkpt lat="49.88913" lon="4.78264">
        <ele>383</ele>
        <time>2022-07-15T08:43:29.000Z</time>
      </trkpt>
      <trkpt lat="49.88913" lon="4.78263">
        <ele>383</ele>
        <time>2022-07-15T08:43:30.000Z</time>
      </trkpt>
      <trkpt lat="49.88912" lon="4.78263">
        <ele>383</ele>
        <time>2022-07-15T08:43:31.000Z</time>
      </trkpt>
      <trkpt lat="49.88911" lon="4.78263">
        <ele>383</ele>
        <time>2022-07-15T08:43:32.000Z</time>
      </trkpt>
      <trkpt lat="49.8891" lon="4.78263">
        <ele>383</ele>
        <time>2022-07-15T08:43:33.000Z</time>
      </trkpt>
      <trkpt lat="49.88908" lon="4.78264">
        <ele>383</ele>
        <time>2022-07-15T08:43:34.000Z</time>
      </trkpt>
      <trkpt lat="49.88906" lon="4.78265">
        <ele>383</ele>
        <time>2022-07-15T08:43:35.000Z</time>
      </trkpt>
      <trkpt lat="49.88904" lon="4.78265">
        <ele>383</ele>
        <time>2022-07-15T08:43:36.000Z</time>
      </trkpt>
      <trkpt lat="49.88901" lon="4.78266">
        <ele>383</ele>
        <time>2022-07-15T08:43:37.000Z</time>
      </trkpt>
      <trkpt lat="49.88898" lon="4.78267">
        <ele>383</ele>
        <time>2022-07-15T08:43:38.000Z</time>
      </trkpt>
      <trkpt lat="49.88895" lon="4.78266">
        <ele>383</ele>
        <time>2022-07-15T08:43:39.000Z</time>
      </trkpt>
      <trkpt lat="49.88892" lon="4.78266">
        <ele>383</ele>
        <time>2022-07-15T08:43:40.000Z</time>
      </trkpt>
      <trkpt lat="49.8889" lon="4.78266">
        <ele>383</ele>
        <time>2022-07-15T08:43:41.000Z</time>
      </trkpt>
      <trkpt lat="49.88888" lon="4.78265">
        <ele>383</ele>
        <time>2022-07-15T08:43:42.000Z</time>
      </trkpt>
      <trkpt lat="49.88886" lon="4.78263">
        <ele>383</ele>
        <time>2022-07-15T08:43:43.000Z</time>
      </trkpt>
      <trkpt lat="49.88884" lon="4.78262">
        <ele>383</ele>
        <time>2022-07-15T08:43:44.000Z</time>
      </trkpt>
      <trkpt lat="49.88883" lon="4.7826">
        <ele>383</ele>
        <time>2022-07-15T08:43:45.000Z</time>
      </trkpt>
      <trkpt lat="49.88881" lon="4.78259">
        <ele>383</ele>
        <time>2022-07-15T08:43:46.000Z</time>
      </trkpt>
      <trkpt lat="49.8888" lon="4.78258">
        <ele>382</ele>
        <time>2022-07-15T08:43:47.000Z</time>
      </trkpt>
      <trkpt lat="49.88878" lon="4.78258">
        <ele>382</ele>
        <time>2022-07-15T08:43:48.000Z</time>
      </trkpt>
      <trkpt lat="49.88876" lon="4.78258">
        <ele>382</ele>
        <time>2022-07-15T08:43:49.000Z</time>
      </trkpt>
      <trkpt lat="49.88874" lon="4.78258">
        <ele>382</ele>
        <time>2022-07-15T08:43:50.000Z</time>
      </trkpt>
      <trkpt lat="49.88872" lon="4.78258">
        <ele>382</ele>
        <time>2022-07-15T08:43:51.000Z</time>
      </trkpt>
      <trkpt lat="49.88871" lon="4.78257">
        <ele>382</ele>
        <time>2022-07-15T08:43:52.000Z</time>
      </trkpt>
      <trkpt lat="49.88869" lon="4.78257">
        <ele>382</ele>
        <time>2022-07-15T08:43:53.000Z</time>
      </trkpt>
      <trkpt lat="49.88867" lon="4.78256">
        <ele>382</ele>
        <time>2022-07-15T08:43:54.000Z</time>
      </trkpt>
      <trkpt lat="49.88866" lon="4.78256">
        <ele>381</ele>
        <time>2022-07-15T08:43:55.000Z</time>
      </trkpt>
      <trkpt lat="49.88864" lon="4.78255">
        <ele>381</ele>
        <time>2022-07-15T08:43:56.000Z</time>
      </trkpt>
      <trkpt lat="49.88863" lon="4.78255">
        <ele>381</ele>
        <time>2022-07-15T08:43:57.000Z</time>
      </trkpt>
      <trkpt lat="49.88861" lon="4.78255">
        <ele>381</ele>
        <time>2022-07-15T08:43:58.000Z</time>
      </trkpt>
      <trkpt lat="49.88859" lon="4.78254">
        <ele>381</ele>
        <time>2022-07-15T08:43:59.000Z</time>
      </trkpt>
      <trkpt lat="49.88857" lon="4.78252">
        <ele>381</ele>
        <time>2022-07-15T08:44:00.000Z</time>
      </trkpt>
      <trkpt lat="49.88854" lon="4.78251">
        <ele>381</ele>
        <time>2022-07-15T08:44:01.000Z</time>
      </trkpt>
      <trkpt lat="49.88852" lon="4.78252">
        <ele>380</ele>
        <time>2022-07-15T08:44:02.000Z</time>
      </trkpt>
      <trkpt lat="49.8885" lon="4.78252">
        <ele>380</ele>
        <time>2022-07-15T08:44:03.000Z</time>
      </trkpt>
      <trkpt lat="49.88847" lon="4.78251">
        <ele>380</ele>
        <time>2022-07-15T08:44:04.000Z</time>
      </trkpt>
      <trkpt lat="49.88845" lon="4.7825">
        <ele>380</ele>
        <time>2022-07-15T08:44:05.000Z</time>
      </trkpt>
      <trkpt lat="49.88843" lon="4.78248">
        <ele>380</ele>
        <time>2022-07-15T08:44:06.000Z</time>
      </trkpt>
      <trkpt lat="49.8884" lon="4.78247">
        <ele>380</ele>
        <time>2022-07-15T08:44:07.000Z</time>
      </trkpt>
      <trkpt lat="49.88838" lon="4.78246">
        <ele>380</ele>
        <time>2022-07-15T08:44:08.000Z</time>
      </trkpt>
      <trkpt lat="49.88836" lon="4.78245">
        <ele>379</ele>
        <time>2022-07-15T08:44:09.000Z</time>
      </trkpt>
      <trkpt lat="49.88834" lon="4.78244">
        <ele>379</ele>
        <time>2022-07-15T08:44:10.000Z</time>
      </trkpt>
      <trkpt lat="49.88831" lon="4.78244">
        <ele>379</ele>
        <time>2022-07-15T08:44:11.000Z</time>
      </trkpt>
      <trkpt lat="49.88829" lon="4.78244">
        <ele>379</ele>
        <time>2022-07-15T08:44:12.000Z</time>
      </trkpt>
      <trkpt lat="49.88826" lon="4.78244">
        <ele>379</ele>
        <time>2022-07-15T08:44:13.000Z</time>
      </trkpt>
      <trkpt lat="49.88823" lon="4.78243">
        <ele>378</ele>
        <time>2022-07-15T08:44:14.000Z</time>
      </trkpt>
      <trkpt lat="49.88821" lon="4.78242">
        <ele>378</ele>
        <time>2022-07-15T08:44:15.000Z</time>
      </trkpt>
      <trkpt lat="49.88818" lon="4.78242">
        <ele>378</ele>
        <time>2022-07-15T08:44:16.000Z</time>
      </trkpt>
      <trkpt lat="49.88814" lon="4.78242">
        <ele>378</ele>
        <time>2022-07-15T08:44:17.000Z</time>
      </trkpt>
      <trkpt lat="49.88812" lon="4.78242">
        <ele>377</ele>
        <time>2022-07-15T08:44:18.000Z</time>
      </trkpt>
      <trkpt lat="49.88809" lon="4.78241">
        <ele>377</ele>
        <time>2022-07-15T08:44:19.000Z</time>
      </trkpt>
      <trkpt lat="49.88805" lon="4.7824">
        <ele>377</ele>
        <time>2022-07-15T08:44:20.000Z</time>
      </trkpt>
      <trkpt lat="49.88802" lon="4.78239">
        <ele>377</ele>
        <time>2022-07-15T08:44:21.000Z</time>
      </trkpt>
      <trkpt lat="49.88799" lon="4.78236">
        <ele>376</ele>
        <time>2022-07-15T08:44:22.000Z</time>
      </trkpt>
      <trkpt lat="49.88797" lon="4.78234">
        <ele>376</ele>
        <time>2022-07-15T08:44:23.000Z</time>
      </trkpt>
      <trkpt lat="49.88795" lon="4.78232">
        <ele>376</ele>
        <time>2022-07-15T08:44:24.000Z</time>
      </trkpt>
      <trkpt lat="49.88793" lon="4.78231">
        <ele>376</ele>
        <time>2022-07-15T08:44:25.000Z</time>
      </trkpt>
      <trkpt lat="49.8879" lon="4.7823">
        <ele>376</ele>
        <time>2022-07-15T08:44:26.000Z</time>
      </trkpt>
      <trkpt lat="49.88788" lon="4.78229">
        <ele>375</ele>
        <time>2022-07-15T08:44:27.000Z</time>
      </trkpt>
      <trkpt lat="49.88785" lon="4.78228">
        <ele>375</ele>
        <time>2022-07-15T08:44:28.000Z</time>
      </trkpt>
      <trkpt lat="49.88782" lon="4.78226">
        <ele>375</ele>
        <time>2022-07-15T08:44:29.000Z</time>
      </trkpt>
      <trkpt lat="49.8878" lon="4.78225">
        <ele>375</ele>
        <time>2022-07-15T08:44:30.000Z</time>
      </trkpt>
      <trkpt lat="49.88777" lon="4.78224">
        <ele>374</ele>
        <time>2022-07-15T08:44:31.000Z</time>
      </trkpt>
      <trkpt lat="49.88774" lon="4.78224">
        <ele>374</ele>
        <time>2022-07-15T08:44:32.000Z</time>
      </trkpt>
      <trkpt lat="49.88771" lon="4.78225">
        <ele>374</ele>
        <time>2022-07-15T08:44:33.000Z</time>
      </trkpt>
      <trkpt lat="49.88768" lon="4.78225">
        <ele>373</ele>
        <time>2022-07-15T08:44:34.000Z</time>
      </trkpt>
      <trkpt lat="49.88765" lon="4.78226">
        <ele>373</ele>
        <time>2022-07-15T08:44:35.000Z</time>
      </trkpt>
      <trkpt lat="49.88762" lon="4.78227">
        <ele>373</ele>
        <time>2022-07-15T08:44:36.000Z</time>
      </trkpt>
      <trkpt lat="49.8876" lon="4.78228">
        <ele>372</ele>
        <time>2022-07-15T08:44:37.000Z</time>
      </trkpt>
      <trkpt lat="49.88757" lon="4.78229">
        <ele>372</ele>
        <time>2022-07-15T08:44:38.000Z</time>
      </trkpt>
      <trkpt lat="49.88755" lon="4.78229">
        <ele>372</ele>
        <time>2022-07-15T08:44:39.000Z</time>
      </trkpt>
      <trkpt lat="49.88752" lon="4.7823">
        <ele>371</ele>
        <time>2022-07-15T08:44:40.000Z</time>
      </trkpt>
      <trkpt lat="49.88748" lon="4.7823">
        <ele>371</ele>
        <time>2022-07-15T08:44:41.000Z</time>
      </trkpt>
      <trkpt lat="49.88746" lon="4.7823">
        <ele>371</ele>
        <time>2022-07-15T08:44:42.000Z</time>
      </trkpt>
      <trkpt lat="49.88744" lon="4.78231">
        <ele>371</ele>
        <time>2022-07-15T08:44:43.000Z</time>
      </trkpt>
      <trkpt lat="49.88741" lon="4.78232">
        <ele>370</ele>
        <time>2022-07-15T08:44:44.000Z</time>
      </trkpt>
      <trkpt lat="49.88739" lon="4.78233">
        <ele>370</ele>
        <time>2022-07-15T08:44:45.000Z</time>
      </trkpt>
      <trkpt lat="49.88737" lon="4.78235">
        <ele>369</ele>
        <time>2022-07-15T08:44:46.000Z</time>
      </trkpt>
      <trkpt lat="49.88734" lon="4.78236">
        <ele>369</ele>
        <time>2022-07-15T08:44:47.000Z</time>
      </trkpt>
      <trkpt lat="49.88732" lon="4.78237">
        <ele>368</ele>
        <time>2022-07-15T08:44:48.000Z</time>
      </trkpt>
      <trkpt lat="49.88729" lon="4.78239">
        <ele>368</ele>
        <time>2022-07-15T08:44:49.000Z</time>
      </trkpt>
      <trkpt lat="49.88726" lon="4.7824">
        <ele>367</ele>
        <time>2022-07-15T08:44:50.000Z</time>
      </trkpt>
      <trkpt lat="49.88724" lon="4.78242">
        <ele>367</ele>
        <time>2022-07-15T08:44:51.000Z</time>
      </trkpt>
      <trkpt lat="49.88721" lon="4.78243">
        <ele>366</ele>
        <time>2022-07-15T08:44:52.000Z</time>
      </trkpt>
      <trkpt lat="49.88718" lon="4.78243">
        <ele>366</ele>
        <time>2022-07-15T08:44:53.000Z</time>
      </trkpt>
      <trkpt lat="49.88716" lon="4.78245">
        <ele>366</ele>
        <time>2022-07-15T08:44:54.000Z</time>
      </trkpt>
      <trkpt lat="49.88713" lon="4.78246">
        <ele>365</ele>
        <time>2022-07-15T08:44:55.000Z</time>
      </trkpt>
      <trkpt lat="49.8871" lon="4.78248">
        <ele>365</ele>
        <time>2022-07-15T08:44:56.000Z</time>
      </trkpt>
      <trkpt lat="49.88707" lon="4.78248">
        <ele>365</ele>
        <time>2022-07-15T08:44:57.000Z</time>
      </trkpt>
      <trkpt lat="49.88705" lon="4.78249">
        <ele>364</ele>
        <time>2022-07-15T08:44:58.000Z</time>
      </trkpt>
      <trkpt lat="49.88702" lon="4.78248">
        <ele>364</ele>
        <time>2022-07-15T08:44:59.000Z</time>
      </trkpt>
      <trkpt lat="49.88699" lon="4.78249">
        <ele>364</ele>
        <time>2022-07-15T08:45:00.000Z</time>
      </trkpt>
      <trkpt lat="49.88697" lon="4.78249">
        <ele>364</ele>
        <time>2022-07-15T08:45:01.000Z</time>
      </trkpt>
      <trkpt lat="49.88694" lon="4.7825">
        <ele>363</ele>
        <time>2022-07-15T08:45:02.000Z</time>
      </trkpt>
      <trkpt lat="49.88692" lon="4.78251">
        <ele>363</ele>
        <time>2022-07-15T08:45:03.000Z</time>
      </trkpt>
      <trkpt lat="49.88689" lon="4.78252">
        <ele>363</ele>
        <time>2022-07-15T08:45:04.000Z</time>
      </trkpt>
      <trkpt lat="49.88687" lon="4.78254">
        <ele>363</ele>
        <time>2022-07-15T08:45:05.000Z</time>
      </trkpt>
      <trkpt lat="49.88685" lon="4.78254">
        <ele>362</ele>
        <time>2022-07-15T08:45:06.000Z</time>
      </trkpt>
      <trkpt lat="49.88683" lon="4.78255">
        <ele>362</ele>
        <time>2022-07-15T08:45:07.000Z</time>
      </trkpt>
      <trkpt lat="49.88681" lon="4.78256">
        <ele>362</ele>
        <time>2022-07-15T08:45:08.000Z</time>
      </trkpt>
      <trkpt lat="49.88679" lon="4.78257">
        <ele>362</ele>
        <time>2022-07-15T08:45:09.000Z</time>
      </trkpt>
      <trkpt lat="49.88677" lon="4.78257">
        <ele>362</ele>
        <time>2022-07-15T08:45:10.000Z</time>
      </trkpt>
      <trkpt lat="49.88675" lon="4.78257">
        <ele>362</ele>
        <time>2022-07-15T08:45:11.000Z</time>
      </trkpt>
      <trkpt lat="49.88672" lon="4.78258">
        <ele>362</ele>
        <time>2022-07-15T08:45:12.000Z</time>
      </trkpt>
      <trkpt lat="49.8867" lon="4.78258">
        <ele>362</ele>
        <time>2022-07-15T08:45:13.000Z</time>
      </trkpt>
      <trkpt lat="49.88667" lon="4.78259">
        <ele>361</ele>
        <time>2022-07-15T08:45:14.000Z</time>
      </trkpt>
      <trkpt lat="49.88664" lon="4.78258">
        <ele>361</ele>
        <time>2022-07-15T08:45:15.000Z</time>
      </trkpt>
      <trkpt lat="49.88661" lon="4.78257">
        <ele>361</ele>
        <time>2022-07-15T08:45:16.000Z</time>
      </trkpt>
      <trkpt lat="49.88658" lon="4.78258">
        <ele>361</ele>
        <time>2022-07-15T08:45:17.000Z</time>
      </trkpt>
      <trkpt lat="49.88656" lon="4.7826">
        <ele>361</ele>
        <time>2022-07-15T08:45:18.000Z</time>
      </trkpt>
      <trkpt lat="49.88654" lon="4.78261">
        <ele>361</ele>
        <time>2022-07-15T08:45:19.000Z</time>
      </trkpt>
      <trkpt lat="49.88652" lon="4.78264">
        <ele>361</ele>
        <time>2022-07-15T08:45:20.000Z</time>
      </trkpt>
      <trkpt lat="49.88649" lon="4.78266">
        <ele>361</ele>
        <time>2022-07-15T08:45:21.000Z</time>
      </trkpt>
      <trkpt lat="49.88647" lon="4.78268">
        <ele>361</ele>
        <time>2022-07-15T08:45:22.000Z</time>
      </trkpt>
      <trkpt lat="49.88644" lon="4.78269">
        <ele>361</ele>
        <time>2022-07-15T08:45:23.000Z</time>
      </trkpt>
      <trkpt lat="49.88642" lon="4.7827">
        <ele>360</ele>
        <time>2022-07-15T08:45:24.000Z</time>
      </trkpt>
      <trkpt lat="49.88639" lon="4.78272">
        <ele>360</ele>
        <time>2022-07-15T08:45:25.000Z</time>
      </trkpt>
      <trkpt lat="49.88635" lon="4.78272">
        <ele>360</ele>
        <time>2022-07-15T08:45:26.000Z</time>
      </trkpt>
      <trkpt lat="49.88632" lon="4.78273">
        <ele>360</ele>
        <time>2022-07-15T08:45:27.000Z</time>
      </trkpt>
      <trkpt lat="49.88629" lon="4.78272">
        <ele>360</ele>
        <time>2022-07-15T08:45:28.000Z</time>
      </trkpt>
      <trkpt lat="49.88626" lon="4.78271">
        <ele>360</ele>
        <time>2022-07-15T08:45:29.000Z</time>
      </trkpt>
      <trkpt lat="49.88623" lon="4.7827">
        <ele>359</ele>
        <time>2022-07-15T08:45:30.000Z</time>
      </trkpt>
      <trkpt lat="49.88621" lon="4.78269">
        <ele>359</ele>
        <time>2022-07-15T08:45:31.000Z</time>
      </trkpt>
      <trkpt lat="49.88619" lon="4.78268">
        <ele>359</ele>
        <time>2022-07-15T08:45:32.000Z</time>
      </trkpt>
      <trkpt lat="49.88617" lon="4.78267">
        <ele>359</ele>
        <time>2022-07-15T08:45:33.000Z</time>
      </trkpt>
      <trkpt lat="49.88614" lon="4.78266">
        <ele>359</ele>
        <time>2022-07-15T08:45:34.000Z</time>
      </trkpt>
      <trkpt lat="49.88612" lon="4.78265">
        <ele>358</ele>
        <time>2022-07-15T08:45:35.000Z</time>
      </trkpt>
      <trkpt lat="49.8861" lon="4.78265">
        <ele>358</ele>
        <time>2022-07-15T08:45:36.000Z</time>
      </trkpt>
      <trkpt lat="49.88607" lon="4.78264">
        <ele>358</ele>
        <time>2022-07-15T08:45:37.000Z</time>
      </trkpt>
      <trkpt lat="49.88605" lon="4.78263">
        <ele>357</ele>
        <time>2022-07-15T08:45:38.000Z</time>
      </trkpt>
      <trkpt lat="49.88603" lon="4.78263">
        <ele>357</ele>
        <time>2022-07-15T08:45:39.000Z</time>
      </trkpt>
      <trkpt lat="49.886" lon="4.78262">
        <ele>357</ele>
        <time>2022-07-15T08:45:40.000Z</time>
      </trkpt>
      <trkpt lat="49.88597" lon="4.78261">
        <ele>357</ele>
        <time>2022-07-15T08:45:41.000Z</time>
      </trkpt>
      <trkpt lat="49.88594" lon="4.7826">
        <ele>356</ele>
        <time>2022-07-15T08:45:42.000Z</time>
      </trkpt>
      <trkpt lat="49.88591" lon="4.78258">
        <ele>356</ele>
        <time>2022-07-15T08:45:43.000Z</time>
      </trkpt>
      <trkpt lat="49.88589" lon="4.78257">
        <ele>356</ele>
        <time>2022-07-15T08:45:44.000Z</time>
      </trkpt>
      <trkpt lat="49.88586" lon="4.78256">
        <ele>355</ele>
        <time>2022-07-15T08:45:45.000Z</time>
      </trkpt>
      <trkpt lat="49.88583" lon="4.78255">
        <ele>355</ele>
        <time>2022-07-15T08:45:46.000Z</time>
      </trkpt>
      <trkpt lat="49.8858" lon="4.78253">
        <ele>355</ele>
        <time>2022-07-15T08:45:47.000Z</time>
      </trkpt>
      <trkpt lat="49.88577" lon="4.78253">
        <ele>354</ele>
        <time>2022-07-15T08:45:48.000Z</time>
      </trkpt>
      <trkpt lat="49.88574" lon="4.78253">
        <ele>354</ele>
        <time>2022-07-15T08:45:49.000Z</time>
      </trkpt>
      <trkpt lat="49.88571" lon="4.78253">
        <ele>354</ele>
        <time>2022-07-15T08:45:50.000Z</time>
      </trkpt>
      <trkpt lat="49.88568" lon="4.78254">
        <ele>353</ele>
        <time>2022-07-15T08:45:51.000Z</time>
      </trkpt>
      <trkpt lat="49.88565" lon="4.78257">
        <ele>353</ele>
        <time>2022-07-15T08:45:52.000Z</time>
      </trkpt>
      <trkpt lat="49.88561" lon="4.78259">
        <ele>353</ele>
        <time>2022-07-15T08:45:53.000Z</time>
      </trkpt>
      <trkpt lat="49.88556" lon="4.7826">
        <ele>352</ele>
        <time>2022-07-15T08:45:54.000Z</time>
      </trkpt>
      <trkpt lat="49.88552" lon="4.78261">
        <ele>352</ele>
        <time>2022-07-15T08:45:55.000Z</time>
      </trkpt>
      <trkpt lat="49.88547" lon="4.78264">
        <ele>352</ele>
        <time>2022-07-15T08:45:56.000Z</time>
      </trkpt>
      <trkpt lat="49.88543" lon="4.78266">
        <ele>351</ele>
        <time>2022-07-15T08:45:57.000Z</time>
      </trkpt>
      <trkpt lat="49.88539" lon="4.78269">
        <ele>351</ele>
        <time>2022-07-15T08:45:58.000Z</time>
      </trkpt>
      <trkpt lat="49.88535" lon="4.78271">
        <ele>351</ele>
        <time>2022-07-15T08:45:59.000Z</time>
      </trkpt>
      <trkpt lat="49.88531" lon="4.78274">
        <ele>350</ele>
        <time>2022-07-15T08:46:00.000Z</time>
      </trkpt>
      <trkpt lat="49.88527" lon="4.78276">
        <ele>350</ele>
        <time>2022-07-15T08:46:01.000Z</time>
      </trkpt>
      <trkpt lat="49.88523" lon="4.78278">
        <ele>350</ele>
        <time>2022-07-15T08:46:02.000Z</time>
      </trkpt>
      <trkpt lat="49.8852" lon="4.78281">
        <ele>349</ele>
        <time>2022-07-15T08:46:03.000Z</time>
      </trkpt>
      <trkpt lat="49.88516" lon="4.78284">
        <ele>349</ele>
        <time>2022-07-15T08:46:04.000Z</time>
      </trkpt>
      <trkpt lat="49.88512" lon="4.78286">
        <ele>349</ele>
        <time>2022-07-15T08:46:05.000Z</time>
      </trkpt>
      <trkpt lat="49.88507" lon="4.78289">
        <ele>349</ele>
        <time>2022-07-15T08:46:06.000Z</time>
      </trkpt>
      <trkpt lat="49.88503" lon="4.78291">
        <ele>348</ele>
        <time>2022-07-15T08:46:07.000Z</time>
      </trkpt>
      <trkpt lat="49.88498" lon="4.78293">
        <ele>348</ele>
        <time>2022-07-15T08:46:08.000Z</time>
      </trkpt>
      <trkpt lat="49.88493" lon="4.78295">
        <ele>348</ele>
        <time>2022-07-15T08:46:09.000Z</time>
      </trkpt>
      <trkpt lat="49.88488" lon="4.78297">
        <ele>348</ele>
        <time>2022-07-15T08:46:10.000Z</time>
      </trkpt>
      <trkpt lat="49.88483" lon="4.78298">
        <ele>347</ele>
        <time>2022-07-15T08:46:11.000Z</time>
      </trkpt>
      <trkpt lat="49.88479" lon="4.78299">
        <ele>347</ele>
        <time>2022-07-15T08:46:12.000Z</time>
      </trkpt>
      <trkpt lat="49.88475" lon="4.783">
        <ele>347</ele>
        <time>2022-07-15T08:46:13.000Z</time>
      </trkpt>
      <trkpt lat="49.88471" lon="4.78303">
        <ele>347</ele>
        <time>2022-07-15T08:46:14.000Z</time>
      </trkpt>
      <trkpt lat="49.88468" lon="4.78305">
        <ele>347</ele>
        <time>2022-07-15T08:46:15.000Z</time>
      </trkpt>
      <trkpt lat="49.88464" lon="4.78307">
        <ele>347</ele>
        <time>2022-07-15T08:46:16.000Z</time>
      </trkpt>
      <trkpt lat="49.88461" lon="4.7831">
        <ele>346</ele>
        <time>2022-07-15T08:46:17.000Z</time>
      </trkpt>
      <trkpt lat="49.88458" lon="4.78313">
        <ele>346</ele>
        <time>2022-07-15T08:46:18.000Z</time>
      </trkpt>
      <trkpt lat="49.88454" lon="4.78316">
        <ele>346</ele>
        <time>2022-07-15T08:46:19.000Z</time>
      </trkpt>
      <trkpt lat="49.88451" lon="4.78319">
        <ele>346</ele>
        <time>2022-07-15T08:46:20.000Z</time>
      </trkpt>
      <trkpt lat="49.88449" lon="4.78321">
        <ele>346</ele>
        <time>2022-07-15T08:46:21.000Z</time>
      </trkpt>
      <trkpt lat="49.88446" lon="4.78323">
        <ele>346</ele>
        <time>2022-07-15T08:46:22.000Z</time>
      </trkpt>
      <trkpt lat="49.88443" lon="4.78325">
        <ele>345</ele>
        <time>2022-07-15T08:46:23.000Z</time>
      </trkpt>
      <trkpt lat="49.88441" lon="4.78326">
        <ele>345</ele>
        <time>2022-07-15T08:46:24.000Z</time>
      </trkpt>
      <trkpt lat="49.88439" lon="4.78328">
        <ele>345</ele>
        <time>2022-07-15T08:46:25.000Z</time>
      </trkpt>
      <trkpt lat="49.88437" lon="4.78329">
        <ele>345</ele>
        <time>2022-07-15T08:46:26.000Z</time>
      </trkpt>
      <trkpt lat="49.88435" lon="4.78332">
        <ele>345</ele>
        <time>2022-07-15T08:46:27.000Z</time>
      </trkpt>
      <trkpt lat="49.88433" lon="4.78335">
        <ele>345</ele>
        <time>2022-07-15T08:46:28.000Z</time>
      </trkpt>
      <trkpt lat="49.8843" lon="4.78337">
        <ele>345</ele>
        <time>2022-07-15T08:46:29.000Z</time>
      </trkpt>
      <trkpt lat="49.88427" lon="4.78341">
        <ele>345</ele>
        <time>2022-07-15T08:46:30.000Z</time>
      </trkpt>
      <trkpt lat="49.88424" lon="4.78345">
        <ele>344</ele>
        <time>2022-07-15T08:46:31.000Z</time>
      </trkpt>
      <trkpt lat="49.88421" lon="4.78349">
        <ele>344</ele>
        <time>2022-07-15T08:46:32.000Z</time>
      </trkpt>
      <trkpt lat="49.88417" lon="4.78354">
        <ele>344</ele>
        <time>2022-07-15T08:46:33.000Z</time>
      </trkpt>
      <trkpt lat="49.88414" lon="4.7836">
        <ele>344</ele>
        <time>2022-07-15T08:46:34.000Z</time>
      </trkpt>
      <trkpt lat="49.88412" lon="4.78366">
        <ele>344</ele>
        <time>2022-07-15T08:46:35.000Z</time>
      </trkpt>
      <trkpt lat="49.88409" lon="4.78372">
        <ele>344</ele>
        <time>2022-07-15T08:46:36.000Z</time>
      </trkpt>
      <trkpt lat="49.88407" lon="4.78378">
        <ele>344</ele>
        <time>2022-07-15T08:46:37.000Z</time>
      </trkpt>
      <trkpt lat="49.88406" lon="4.78382">
        <ele>344</ele>
        <time>2022-07-15T08:46:38.000Z</time>
      </trkpt>
      <trkpt lat="49.88405" lon="4.78385">
        <ele>344</ele>
        <time>2022-07-15T08:46:39.000Z</time>
      </trkpt>
      <trkpt lat="49.88404" lon="4.78387">
        <ele>344</ele>
        <time>2022-07-15T08:46:40.000Z</time>
      </trkpt>
      <trkpt lat="49.88404" lon="4.78387">
        <ele>344</ele>
        <time>2022-07-15T08:46:41.000Z</time>
      </trkpt>
      <trkpt lat="49.88404" lon="4.78388">
        <ele>344</ele>
        <time>2022-07-15T08:46:42.000Z</time>
      </trkpt>
      <trkpt lat="49.88403" lon="4.78389">
        <ele>344</ele>
        <time>2022-07-15T08:46:43.000Z</time>
      </trkpt>
      <trkpt lat="49.88402" lon="4.78392">
        <ele>344</ele>
        <time>2022-07-15T08:46:44.000Z</time>
      </trkpt>
      <trkpt lat="49.88401" lon="4.78395">
        <ele>344</ele>
        <time>2022-07-15T08:46:45.000Z</time>
      </trkpt>
      <trkpt lat="49.88401" lon="4.78399">
        <ele>344</ele>
        <time>2022-07-15T08:46:46.000Z</time>
      </trkpt>
      <trkpt lat="49.884" lon="4.78404">
        <ele>344</ele>
        <time>2022-07-15T08:46:47.000Z</time>
      </trkpt>
      <trkpt lat="49.88399" lon="4.7841">
        <ele>344</ele>
        <time>2022-07-15T08:46:48.000Z</time>
      </trkpt>
      <trkpt lat="49.88398" lon="4.78416">
        <ele>344</ele>
        <time>2022-07-15T08:46:49.000Z</time>
      </trkpt>
      <trkpt lat="49.88397" lon="4.78422">
        <ele>344</ele>
        <time>2022-07-15T08:46:50.000Z</time>
      </trkpt>
      <trkpt lat="49.88397" lon="4.78429">
        <ele>344</ele>
        <time>2022-07-15T08:46:51.000Z</time>
      </trkpt>
      <trkpt lat="49.88395" lon="4.78435">
        <ele>344</ele>
        <time>2022-07-15T08:46:52.000Z</time>
      </trkpt>
      <trkpt lat="49.88394" lon="4.78441">
        <ele>344</ele>
        <time>2022-07-15T08:46:53.000Z</time>
      </trkpt>
      <trkpt lat="49.88394" lon="4.78447">
        <ele>344</ele>
        <time>2022-07-15T08:46:54.000Z</time>
      </trkpt>
      <trkpt lat="49.88393" lon="4.78454">
        <ele>344</ele>
        <time>2022-07-15T08:46:55.000Z</time>
      </trkpt>
      <trkpt lat="49.88392" lon="4.7846">
        <ele>344</ele>
        <time>2022-07-15T08:46:56.000Z</time>
      </trkpt>
      <trkpt lat="49.88392" lon="4.78467">
        <ele>343</ele>
        <time>2022-07-15T08:46:57.000Z</time>
      </trkpt>
      <trkpt lat="49.88392" lon="4.78473">
        <ele>343</ele>
        <time>2022-07-15T08:46:58.000Z</time>
      </trkpt>
      <trkpt lat="49.88392" lon="4.7848">
        <ele>343</ele>
        <time>2022-07-15T08:46:59.000Z</time>
      </trkpt>
      <trkpt lat="49.88392" lon="4.78486">
        <ele>343</ele>
        <time>2022-07-15T08:47:00.000Z</time>
      </trkpt>
      <trkpt lat="49.88393" lon="4.78493">
        <ele>343</ele>
        <time>2022-07-15T08:47:01.000Z</time>
      </trkpt>
      <trkpt lat="49.88394" lon="4.785">
        <ele>342</ele>
        <time>2022-07-15T08:47:02.000Z</time>
      </trkpt>
      <trkpt lat="49.88396" lon="4.78508">
        <ele>342</ele>
        <time>2022-07-15T08:47:03.000Z</time>
      </trkpt>
      <trkpt lat="49.88398" lon="4.78516">
        <ele>342</ele>
        <time>2022-07-15T08:47:04.000Z</time>
      </trkpt>
      <trkpt lat="49.88399" lon="4.78523">
        <ele>342</ele>
        <time>2022-07-15T08:47:05.000Z</time>
      </trkpt>
      <trkpt lat="49.88401" lon="4.7853">
        <ele>342</ele>
        <time>2022-07-15T08:47:06.000Z</time>
      </trkpt>
      <trkpt lat="49.88403" lon="4.78537">
        <ele>341</ele>
        <time>2022-07-15T08:47:07.000Z</time>
      </trkpt>
      <trkpt lat="49.88406" lon="4.78545">
        <ele>341</ele>
        <time>2022-07-15T08:47:08.000Z</time>
      </trkpt>
      <trkpt lat="49.88408" lon="4.78551">
        <ele>341</ele>
        <time>2022-07-15T08:47:09.000Z</time>
      </trkpt>
      <trkpt lat="49.8841" lon="4.78558">
        <ele>341</ele>
        <time>2022-07-15T08:47:10.000Z</time>
      </trkpt>
      <trkpt lat="49.88412" lon="4.78564">
        <ele>340</ele>
        <time>2022-07-15T08:47:11.000Z</time>
      </trkpt>
      <trkpt lat="49.88415" lon="4.78569">
        <ele>340</ele>
        <time>2022-07-15T08:47:12.000Z</time>
      </trkpt>
      <trkpt lat="49.88417" lon="4.78575">
        <ele>340</ele>
        <time>2022-07-15T08:47:13.000Z</time>
      </trkpt>
      <trkpt lat="49.8842" lon="4.7858">
        <ele>340</ele>
        <time>2022-07-15T08:47:14.000Z</time>
      </trkpt>
      <trkpt lat="49.88423" lon="4.78585">
        <ele>340</ele>
        <time>2022-07-15T08:47:15.000Z</time>
      </trkpt>
      <trkpt lat="49.88426" lon="4.78591">
        <ele>340</ele>
        <time>2022-07-15T08:47:16.000Z</time>
      </trkpt>
      <trkpt lat="49.88428" lon="4.78597">
        <ele>339</ele>
        <time>2022-07-15T08:47:17.000Z</time>
      </trkpt>
      <trkpt lat="49.88431" lon="4.78604">
        <ele>339</ele>
        <time>2022-07-15T08:47:18.000Z</time>
      </trkpt>
      <trkpt lat="49.88434" lon="4.78611">
        <ele>339</ele>
        <time>2022-07-15T08:47:19.000Z</time>
      </trkpt>
      <trkpt lat="49.88437" lon="4.78619">
        <ele>339</ele>
        <time>2022-07-15T08:47:20.000Z</time>
      </trkpt>
      <trkpt lat="49.88441" lon="4.78627">
        <ele>339</ele>
        <time>2022-07-15T08:47:21.000Z</time>
      </trkpt>
      <trkpt lat="49.88444" lon="4.78635">
        <ele>338</ele>
        <time>2022-07-15T08:47:22.000Z</time>
      </trkpt>
      <trkpt lat="49.88448" lon="4.78642">
        <ele>338</ele>
        <time>2022-07-15T08:47:23.000Z</time>
      </trkpt>
      <trkpt lat="49.88451" lon="4.78648">
        <ele>338</ele>
        <time>2022-07-15T08:47:24.000Z</time>
      </trkpt>
      <trkpt lat="49.88454" lon="4.78655">
        <ele>338</ele>
        <time>2022-07-15T08:47:25.000Z</time>
      </trkpt>
      <trkpt lat="49.88458" lon="4.78662">
        <ele>338</ele>
        <time>2022-07-15T08:47:26.000Z</time>
      </trkpt>
      <trkpt lat="49.88462" lon="4.78668">
        <ele>337</ele>
        <time>2022-07-15T08:47:27.000Z</time>
      </trkpt>
      <trkpt lat="49.88466" lon="4.78674">
        <ele>337</ele>
        <time>2022-07-15T08:47:28.000Z</time>
      </trkpt>
      <trkpt lat="49.8847" lon="4.7868">
        <ele>337</ele>
        <time>2022-07-15T08:47:29.000Z</time>
      </trkpt>
      <trkpt lat="49.88475" lon="4.78685">
        <ele>337</ele>
        <time>2022-07-15T08:47:30.000Z</time>
      </trkpt>
      <trkpt lat="49.8848" lon="4.78691">
        <ele>337</ele>
        <time>2022-07-15T08:47:31.000Z</time>
      </trkpt>
      <trkpt lat="49.88485" lon="4.78696">
        <ele>336</ele>
        <time>2022-07-15T08:47:32.000Z</time>
      </trkpt>
      <trkpt lat="49.88489" lon="4.78702">
        <ele>336</ele>
        <time>2022-07-15T08:47:33.000Z</time>
      </trkpt>
      <trkpt lat="49.88493" lon="4.78708">
        <ele>336</ele>
        <time>2022-07-15T08:47:34.000Z</time>
      </trkpt>
      <trkpt lat="49.88496" lon="4.78714">
        <ele>336</ele>
        <time>2022-07-15T08:47:35.000Z</time>
      </trkpt>
      <trkpt lat="49.88499" lon="4.78721">
        <ele>336</ele>
        <time>2022-07-15T08:47:36.000Z</time>
      </trkpt>
      <trkpt lat="49.88502" lon="4.78727">
        <ele>335</ele>
        <time>2022-07-15T08:47:37.000Z</time>
      </trkpt>
      <trkpt lat="49.88504" lon="4.78732">
        <ele>335</ele>
        <time>2022-07-15T08:47:38.000Z</time>
      </trkpt>
      <trkpt lat="49.88507" lon="4.78738">
        <ele>335</ele>
        <time>2022-07-15T08:47:39.000Z</time>
      </trkpt>
      <trkpt lat="49.8851" lon="4.78743">
        <ele>335</ele>
        <time>2022-07-15T08:47:40.000Z</time>
      </trkpt>
      <trkpt lat="49.88512" lon="4.78749">
        <ele>335</ele>
        <time>2022-07-15T08:47:41.000Z</time>
      </trkpt>
      <trkpt lat="49.88515" lon="4.78754">
        <ele>335</ele>
        <time>2022-07-15T08:47:42.000Z</time>
      </trkpt>
      <trkpt lat="49.88517" lon="4.78761">
        <ele>334</ele>
        <time>2022-07-15T08:47:43.000Z</time>
      </trkpt>
      <trkpt lat="49.8852" lon="4.78767">
        <ele>334</ele>
        <time>2022-07-15T08:47:44.000Z</time>
      </trkpt>
      <trkpt lat="49.88523" lon="4.78773">
        <ele>334</ele>
        <time>2022-07-15T08:47:45.000Z</time>
      </trkpt>
      <trkpt lat="49.88526" lon="4.78779">
        <ele>334</ele>
        <time>2022-07-15T08:47:46.000Z</time>
      </trkpt>
      <trkpt lat="49.88529" lon="4.78786">
        <ele>334</ele>
        <time>2022-07-15T08:47:47.000Z</time>
      </trkpt>
      <trkpt lat="49.88531" lon="4.78792">
        <ele>334</ele>
        <time>2022-07-15T08:47:48.000Z</time>
      </trkpt>
      <trkpt lat="49.88533" lon="4.78798">
        <ele>334</ele>
        <time>2022-07-15T08:47:49.000Z</time>
      </trkpt>
      <trkpt lat="49.88536" lon="4.78804">
        <ele>334</ele>
        <time>2022-07-15T08:47:50.000Z</time>
      </trkpt>
      <trkpt lat="49.88539" lon="4.78809">
        <ele>334</ele>
        <time>2022-07-15T08:47:51.000Z</time>
      </trkpt>
      <trkpt lat="49.88541" lon="4.78815">
        <ele>333</ele>
        <time>2022-07-15T08:47:52.000Z</time>
      </trkpt>
      <trkpt lat="49.88544" lon="4.7882">
        <ele>333</ele>
        <time>2022-07-15T08:47:53.000Z</time>
      </trkpt>
      <trkpt lat="49.88547" lon="4.78825">
        <ele>333</ele>
        <time>2022-07-15T08:47:54.000Z</time>
      </trkpt>
      <trkpt lat="49.8855" lon="4.7883">
        <ele>333</ele>
        <time>2022-07-15T08:47:55.000Z</time>
      </trkpt>
      <trkpt lat="49.88553" lon="4.78834">
        <ele>333</ele>
        <time>2022-07-15T08:47:56.000Z</time>
      </trkpt>
      <trkpt lat="49.88557" lon="4.78838">
        <ele>333</ele>
        <time>2022-07-15T08:47:57.000Z</time>
      </trkpt>
      <trkpt lat="49.8856" lon="4.78841">
        <ele>333</ele>
        <time>2022-07-15T08:47:58.000Z</time>
      </trkpt>
      <trkpt lat="49.88563" lon="4.78845">
        <ele>333</ele>
        <time>2022-07-15T08:47:59.000Z</time>
      </trkpt>
      <trkpt lat="49.88566" lon="4.78849">
        <ele>333</ele>
        <time>2022-07-15T08:48:00.000Z</time>
      </trkpt>
      <trkpt lat="49.88569" lon="4.78852">
        <ele>333</ele>
        <time>2022-07-15T08:48:01.000Z</time>
      </trkpt>
      <trkpt lat="49.88572" lon="4.78855">
        <ele>333</ele>
        <time>2022-07-15T08:48:02.000Z</time>
      </trkpt>
      <trkpt lat="49.88575" lon="4.78858">
        <ele>333</ele>
        <time>2022-07-15T08:48:03.000Z</time>
      </trkpt>
      <trkpt lat="49.88578" lon="4.78861">
        <ele>333</ele>
        <time>2022-07-15T08:48:04.000Z</time>
      </trkpt>
      <trkpt lat="49.88581" lon="4.78865">
        <ele>333</ele>
        <time>2022-07-15T08:48:05.000Z</time>
      </trkpt>
      <trkpt lat="49.88582" lon="4.78868">
        <ele>333</ele>
        <time>2022-07-15T08:48:06.000Z</time>
      </trkpt>
      <trkpt lat="49.88585" lon="4.78872">
        <ele>333</ele>
        <time>2022-07-15T08:48:07.000Z</time>
      </trkpt>
      <trkpt lat="49.88587" lon="4.78876">
        <ele>334</ele>
        <time>2022-07-15T08:48:08.000Z</time>
      </trkpt>
      <trkpt lat="49.88589" lon="4.78881">
        <ele>334</ele>
        <time>2022-07-15T08:48:09.000Z</time>
      </trkpt>
      <trkpt lat="49.88592" lon="4.78885">
        <ele>334</ele>
        <time>2022-07-15T08:48:10.000Z</time>
      </trkpt>
      <trkpt lat="49.88595" lon="4.78889">
        <ele>334</ele>
        <time>2022-07-15T08:48:11.000Z</time>
      </trkpt>
      <trkpt lat="49.88598" lon="4.78892">
        <ele>334</ele>
        <time>2022-07-15T08:48:12.000Z</time>
      </trkpt>
      <trkpt lat="49.88602" lon="4.78896">
        <ele>334</ele>
        <time>2022-07-15T08:48:13.000Z</time>
      </trkpt>
      <trkpt lat="49.88606" lon="4.789">
        <ele>334</ele>
        <time>2022-07-15T08:48:14.000Z</time>
      </trkpt>
      <trkpt lat="49.8861" lon="4.78905">
        <ele>334</ele>
        <time>2022-07-15T08:48:15.000Z</time>
      </trkpt>
      <trkpt lat="49.88614" lon="4.78908">
        <ele>334</ele>
        <time>2022-07-15T08:48:16.000Z</time>
      </trkpt>
      <trkpt lat="49.88617" lon="4.78912">
        <ele>334</ele>
        <time>2022-07-15T08:48:17.000Z</time>
      </trkpt>
      <trkpt lat="49.88621" lon="4.78917">
        <ele>334</ele>
        <time>2022-07-15T08:48:18.000Z</time>
      </trkpt>
      <trkpt lat="49.88625" lon="4.78921">
        <ele>334</ele>
        <time>2022-07-15T08:48:19.000Z</time>
      </trkpt>
      <trkpt lat="49.88628" lon="4.78925">
        <ele>334</ele>
        <time>2022-07-15T08:48:20.000Z</time>
      </trkpt>
      <trkpt lat="49.88631" lon="4.78929">
        <ele>334</ele>
        <time>2022-07-15T08:48:21.000Z</time>
      </trkpt>
      <trkpt lat="49.88633" lon="4.78933">
        <ele>334</ele>
        <time>2022-07-15T08:48:22.000Z</time>
      </trkpt>
      <trkpt lat="49.88636" lon="4.78937">
        <ele>334</ele>
        <time>2022-07-15T08:48:23.000Z</time>
      </trkpt>
      <trkpt lat="49.88638" lon="4.78941">
        <ele>334</ele>
        <time>2022-07-15T08:48:24.000Z</time>
      </trkpt>
      <trkpt lat="49.88641" lon="4.78945">
        <ele>333</ele>
        <time>2022-07-15T08:48:25.000Z</time>
      </trkpt>
      <trkpt lat="49.88644" lon="4.78949">
        <ele>333</ele>
        <time>2022-07-15T08:48:26.000Z</time>
      </trkpt>
      <trkpt lat="49.88647" lon="4.78953">
        <ele>333</ele>
        <time>2022-07-15T08:48:27.000Z</time>
      </trkpt>
      <trkpt lat="49.88648" lon="4.78956">
        <ele>333</ele>
        <time>2022-07-15T08:48:28.000Z</time>
      </trkpt>
      <trkpt lat="49.88649" lon="4.78957">
        <ele>333</ele>
        <time>2022-07-15T08:48:29.000Z</time>
      </trkpt>
      <trkpt lat="49.88649" lon="4.78958">
        <ele>333</ele>
        <time>2022-07-15T08:48:30.000Z</time>
      </trkpt>
      <trkpt lat="49.88649" lon="4.78958">
        <ele>333</ele>
        <time>2022-07-15T08:48:31.000Z</time>
      </trkpt>
      <trkpt lat="49.8865" lon="4.78959">
        <ele>333</ele>
        <time>2022-07-15T08:48:32.000Z</time>
      </trkpt>
      <trkpt lat="49.8865" lon="4.78959">
        <ele>333</ele>
        <time>2022-07-15T08:48:33.000Z</time>
      </trkpt>
      <trkpt lat="49.8865" lon="4.78959">
        <ele>333</ele>
        <time>2022-07-15T08:48:34.000Z</time>
      </trkpt>
      <trkpt lat="49.8865" lon="4.7896">
        <ele>333</ele>
        <time>2022-07-15T08:48:35.000Z</time>
      </trkpt>
      <trkpt lat="49.8865" lon="4.7896">
        <ele>333</ele>
        <time>2022-07-15T08:48:36.000Z</time>
      </trkpt>
      <trkpt lat="49.8865" lon="4.7896">
        <ele>333</ele>
        <time>2022-07-15T08:48:37.000Z</time>
      </trkpt>
      <trkpt lat="49.88651" lon="4.7896">
        <ele>333</ele>
        <time>2022-07-15T08:48:38.000Z</time>
      </trkpt>
      <trkpt lat="49.88651" lon="4.7896">
        <ele>333</ele>
        <time>2022-07-15T08:48:39.000Z</time>
      </trkpt>
      <trkpt lat="49.88651" lon="4.7896">
        <ele>333</ele>
        <time>2022-07-15T08:48:40.000Z</time>
      </trkpt>
      <trkpt lat="49.88651" lon="4.78961">
        <ele>332</ele>
        <time>2022-07-15T08:48:41.000Z</time>
      </trkpt>
      <trkpt lat="49.88651" lon="4.78961">
        <ele>332</ele>
        <time>2022-07-15T08:48:42.000Z</time>
      </trkpt>
      <trkpt lat="49.88651" lon="4.78961">
        <ele>332</ele>
        <time>2022-07-15T08:48:43.000Z</time>
      </trkpt>
      <trkpt lat="49.88651" lon="4.78961">
        <ele>332</ele>
        <time>2022-07-15T08:48:44.000Z</time>
      </trkpt>
      <trkpt lat="49.88651" lon="4.78961">
        <ele>332</ele>
        <time>2022-07-15T08:48:45.000Z</time>
      </trkpt>
      <trkpt lat="49.88651" lon="4.78961">
        <ele>332</ele>
        <time>2022-07-15T08:48:46.000Z</time>
      </trkpt>
      <trkpt lat="49.88652" lon="4.78961">
        <ele>332</ele>
        <time>2022-07-15T08:48:47.000Z</time>
      </trkpt>
      <trkpt lat="49.88652" lon="4.78961">
        <ele>332</ele>
        <time>2022-07-15T08:48:48.000Z</time>
      </trkpt>
      <trkpt lat="49.88652" lon="4.78961">
        <ele>332</ele>
        <time>2022-07-15T08:48:49.000Z</time>
      </trkpt>
      <trkpt lat="49.88652" lon="4.78961">
        <ele>332</ele>
        <time>2022-07-15T08:48:50.000Z</time>
      </trkpt>
      <trkpt lat="49.88652" lon="4.78961">
        <ele>332</ele>
        <time>2022-07-15T08:48:51.000Z</time>
      </trkpt>
      <trkpt lat="49.88652" lon="4.78961">
        <ele>332</ele>
        <time>2022-07-15T08:48:52.000Z</time>
      </trkpt>
      <trkpt lat="49.88652" lon="4.78961">
        <ele>332</ele>
        <time>2022-07-15T08:48:53.000Z</time>
      </trkpt>
      <trkpt lat="49.88652" lon="4.78961">
        <ele>332</ele>
        <time>2022-07-15T08:48:54.000Z</time>
      </trkpt>
      <trkpt lat="49.88652" lon="4.78961">
        <ele>332</ele>
        <time>2022-07-15T08:48:55.000Z</time>
      </trkpt>
      <trkpt lat="49.88652" lon="4.78961">
        <ele>332</ele>
        <time>2022-07-15T08:48:56.000Z</time>
      </trkpt>
      <trkpt lat="49.88652" lon="4.78961">
        <ele>332</ele>
        <time>2022-07-15T08:48:57.000Z</time>
      </trkpt>
      <trkpt lat="49.88652" lon="4.78961">
        <ele>332</ele>
        <time>2022-07-15T08:48:58.000Z</time>
      </trkpt>
      <trkpt lat="49.88652" lon="4.78962">
        <ele>332</ele>
        <time>2022-07-15T08:48:59.000Z</time>
      </trkpt>
      <trkpt lat="49.88652" lon="4.78962">
        <ele>332</ele>
        <time>2022-07-15T08:49:00.000Z</time>
      </trkpt>
      <trkpt lat="49.88652" lon="4.78962">
        <ele>332</ele>
        <time>2022-07-15T08:49:01.000Z</time>
      </trkpt>
      <trkpt lat="49.88652" lon="4.78962">
        <ele>332</ele>
        <time>2022-07-15T08:49:02.000Z</time>
      </trkpt>
      <trkpt lat="49.88652" lon="4.78962">
        <ele>332</ele>
        <time>2022-07-15T08:49:03.000Z</time>
      </trkpt>
      <trkpt lat="49.88652" lon="4.78962">
        <ele>332</ele>
        <time>2022-07-15T08:49:04.000Z</time>
      </trkpt>
      <trkpt lat="49.88652" lon="4.78962">
        <ele>332</ele>
        <time>2022-07-15T08:49:05.000Z</time>
      </trkpt>
      <trkpt lat="49.88653" lon="4.78962">
        <ele>332</ele>
        <time>2022-07-15T08:49:06.000Z</time>
      </trkpt>
      <trkpt lat="49.88653" lon="4.78961">
        <ele>332</ele>
        <time>2022-07-15T08:49:07.000Z</time>
      </trkpt>
      <trkpt lat="49.88652" lon="4.78962">
        <ele>332</ele>
        <time>2022-07-15T08:49:08.000Z</time>
      </trkpt>
      <trkpt lat="49.88653" lon="4.78961">
        <ele>332</ele>
        <time>2022-07-15T08:49:09.000Z</time>
      </trkpt>
      <trkpt lat="49.88653" lon="4.78962">
        <ele>332</ele>
        <time>2022-07-15T08:49:10.000Z</time>
      </trkpt>
      <trkpt lat="49.88653" lon="4.78962">
        <ele>332</ele>
        <time>2022-07-15T08:49:11.000Z</time>
      </trkpt>
      <trkpt lat="49.88653" lon="4.78961">
        <ele>332</ele>
        <time>2022-07-15T08:49:12.000Z</time>
      </trkpt>
      <trkpt lat="49.88653" lon="4.78961">
        <ele>332</ele>
        <time>2022-07-15T08:49:13.000Z</time>
      </trkpt>
      <trkpt lat="49.88653" lon="4.78961">
        <ele>332</ele>
        <time>2022-07-15T08:49:14.000Z</time>
      </trkpt>
      <trkpt lat="49.88653" lon="4.78961">
        <ele>332</ele>
        <time>2022-07-15T08:49:15.000Z</time>
      </trkpt>
      <trkpt lat="49.88653" lon="4.78961">
        <ele>332</ele>
        <time>2022-07-15T08:49:16.000Z</time>
      </trkpt>
      <trkpt lat="49.88653" lon="4.78961">
        <ele>332</ele>
        <time>2022-07-15T08:49:17.000Z</time>
      </trkpt>
      <trkpt lat="49.88653" lon="4.78961">
        <ele>332</ele>
        <time>2022-07-15T08:49:18.000Z</time>
      </trkpt>
      <trkpt lat="49.88653" lon="4.78961">
        <ele>332</ele>
        <time>2022-07-15T08:49:19.000Z</time>
      </trkpt>
      <trkpt lat="49.88653" lon="4.78961">
        <ele>332</ele>
        <time>2022-07-15T08:49:20.000Z</time>
      </trkpt>
      <trkpt lat="49.88653" lon="4.78961">
        <ele>332</ele>
        <time>2022-07-15T08:49:21.000Z</time>
      </trkpt>
      <trkpt lat="49.88653" lon="4.78961">
        <ele>332</ele>
        <time>2022-07-15T08:49:22.000Z</time>
      </trkpt>
      <trkpt lat="49.88653" lon="4.78961">
        <ele>332</ele>
        <time>2022-07-15T08:49:23.000Z</time>
      </trkpt>
      <trkpt lat="49.88653" lon="4.78961">
        <ele>332</ele>
        <time>2022-07-15T08:49:24.000Z</time>
      </trkpt>
      <trkpt lat="49.88653" lon="4.78961">
        <ele>332</ele>
        <time>2022-07-15T08:49:25.000Z</time>
      </trkpt>
      <trkpt lat="49.88654" lon="4.78961">
        <ele>332</ele>
        <time>2022-07-15T08:49:26.000Z</time>
      </trkpt>
      <trkpt lat="49.88654" lon="4.78961">
        <ele>332</ele>
        <time>2022-07-15T08:49:27.000Z</time>
      </trkpt>
      <trkpt lat="49.88654" lon="4.78961">
        <ele>332</ele>
        <time>2022-07-15T08:49:28.000Z</time>
      </trkpt>
      <trkpt lat="49.88654" lon="4.78961">
        <ele>332</ele>
        <time>2022-07-15T08:49:29.000Z</time>
      </trkpt>
      <trkpt lat="49.88654" lon="4.78961">
        <ele>332</ele>
        <time>2022-07-15T08:49:30.000Z</time>
      </trkpt>
      <trkpt lat="49.88654" lon="4.78961">
        <ele>332</ele>
        <time>2022-07-15T08:49:31.000Z</time>
      </trkpt>
      <trkpt lat="49.88654" lon="4.78961">
        <ele>332</ele>
        <time>2022-07-15T08:49:32.000Z</time>
      </trkpt>
      <trkpt lat="49.88654" lon="4.78961">
        <ele>332</ele>
        <time>2022-07-15T08:49:33.000Z</time>
      </trkpt>
      <trkpt lat="49.88654" lon="4.78961">
        <ele>332</ele>
        <time>2022-07-15T08:49:34.000Z</time>
      </trkpt>
      <trkpt lat="49.88654" lon="4.78961">
        <ele>332</ele>
        <time>2022-07-15T08:49:35.000Z</time>
      </trkpt>
      <trkpt lat="49.88654" lon="4.78961">
        <ele>332</ele>
        <time>2022-07-15T08:49:36.000Z</time>
      </trkpt>
      <trkpt lat="49.88654" lon="4.78961">
        <ele>332</ele>
        <time>2022-07-15T08:49:37.000Z</time>
      </trkpt>
      <trkpt lat="49.88654" lon="4.78961">
        <ele>332</ele>
        <time>2022-07-15T08:49:38.000Z</time>
      </trkpt>
      <trkpt lat="49.88654" lon="4.78962">
        <ele>332</ele>
        <time>2022-07-15T08:49:39.000Z</time>
      </trkpt>
      <trkpt lat="49.88654" lon="4.78962">
        <ele>332</ele>
        <time>2022-07-15T08:49:40.000Z</time>
      </trkpt>
      <trkpt lat="49.88654" lon="4.78962">
        <ele>332</ele>
        <time>2022-07-15T08:49:41.000Z</time>
      </trkpt>
      <trkpt lat="49.88654" lon="4.78962">
        <ele>332</ele>
        <time>2022-07-15T08:49:42.000Z</time>
      </trkpt>
      <trkpt lat="49.88654" lon="4.78962">
        <ele>332</ele>
        <time>2022-07-15T08:49:43.000Z</time>
      </trkpt>
      <trkpt lat="49.88654" lon="4.78962">
        <ele>332</ele>
        <time>2022-07-15T08:49:44.000Z</time>
      </trkpt>
      <trkpt lat="49.88654" lon="4.78962">
        <ele>332</ele>
        <time>2022-07-15T08:49:45.000Z</time>
      </trkpt>
      <trkpt lat="49.88654" lon="4.78962">
        <ele>332</ele>
        <time>2022-07-15T08:49:46.000Z</time>
      </trkpt>
      <trkpt lat="49.88654" lon="4.78962">
        <ele>332</ele>
        <time>2022-07-15T08:49:47.000Z</time>
      </trkpt>
      <trkpt lat="49.88655" lon="4.78962">
        <ele>332</ele>
        <time>2022-07-15T08:49:48.000Z</time>
      </trkpt>
      <trkpt lat="49.88655" lon="4.78962">
        <ele>332</ele>
        <time>2022-07-15T08:49:49.000Z</time>
      </trkpt>
      <trkpt lat="49.88655" lon="4.78962">
        <ele>332</ele>
        <time>2022-07-15T08:49:50.000Z</time>
      </trkpt>
      <trkpt lat="49.88655" lon="4.78962">
        <ele>332</ele>
        <time>2022-07-15T08:49:51.000Z</time>
      </trkpt>
      <trkpt lat="49.88655" lon="4.78962">
        <ele>332</ele>
        <time>2022-07-15T08:49:52.000Z</time>
      </trkpt>
      <trkpt lat="49.88655" lon="4.78962">
        <ele>332</ele>
        <time>2022-07-15T08:49:53.000Z</time>
      </trkpt>
      <trkpt lat="49.88655" lon="4.78962">
        <ele>332</ele>
        <time>2022-07-15T08:49:54.000Z</time>
      </trkpt>
      <trkpt lat="49.88655" lon="4.78962">
        <ele>332</ele>
        <time>2022-07-15T08:49:55.000Z</time>
      </trkpt>
      <trkpt lat="49.88655" lon="4.78962">
        <ele>332</ele>
        <time>2022-07-15T08:49:56.000Z</time>
      </trkpt>
      <trkpt lat="49.88655" lon="4.78962">
        <ele>332</ele>
        <time>2022-07-15T08:49:57.000Z</time>
      </trkpt>
      <trkpt lat="49.88655" lon="4.78962">
        <ele>332</ele>
        <time>2022-07-15T08:49:58.000Z</time>
      </trkpt>
      <trkpt lat="49.88655" lon="4.78962">
        <ele>332</ele>
        <time>2022-07-15T08:49:59.000Z</time>
      </trkpt>
      <trkpt lat="49.88655" lon="4.78962">
        <ele>332</ele>
        <time>2022-07-15T08:50:00.000Z</time>
      </trkpt>
      <trkpt lat="49.88655" lon="4.78962">
        <ele>332</ele>
        <time>2022-07-15T08:50:01.000Z</time>
      </trkpt>
      <trkpt lat="49.88655" lon="4.78962">
        <ele>332</ele>
        <time>2022-07-15T08:50:02.000Z</time>
      </trkpt>
      <trkpt lat="49.88656" lon="4.78962">
        <ele>332</ele>
        <time>2022-07-15T08:50:03.000Z</time>
      </trkpt>
      <trkpt lat="49.88656" lon="4.78962">
        <ele>332</ele>
        <time>2022-07-15T08:50:04.000Z</time>
      </trkpt>
      <trkpt lat="49.88656" lon="4.78962">
        <ele>332</ele>
        <time>2022-07-15T08:50:05.000Z</time>
      </trkpt>
      <trkpt lat="49.88656" lon="4.78962">
        <ele>332</ele>
        <time>2022-07-15T08:50:06.000Z</time>
      </trkpt>
      <trkpt lat="49.88656" lon="4.78962">
        <ele>332</ele>
        <time>2022-07-15T08:50:07.000Z</time>
      </trkpt>
      <trkpt lat="49.88656" lon="4.78962">
        <ele>332</ele>
        <time>2022-07-15T08:50:08.000Z</time>
      </trkpt>
      <trkpt lat="49.88657" lon="4.78963">
        <ele>332</ele>
        <time>2022-07-15T08:50:09.000Z</time>
      </trkpt>
      <trkpt lat="49.88658" lon="4.78965">
        <ele>332</ele>
        <time>2022-07-15T08:50:10.000Z</time>
      </trkpt>
      <trkpt lat="49.8866" lon="4.78967">
        <ele>332</ele>
        <time>2022-07-15T08:50:11.000Z</time>
      </trkpt>
      <trkpt lat="49.88662" lon="4.7897">
        <ele>332</ele>
        <time>2022-07-15T08:50:12.000Z</time>
      </trkpt>
      <trkpt lat="49.88664" lon="4.78973">
        <ele>332</ele>
        <time>2022-07-15T08:50:13.000Z</time>
      </trkpt>
      <trkpt lat="49.88666" lon="4.78976">
        <ele>332</ele>
        <time>2022-07-15T08:50:14.000Z</time>
      </trkpt>
      <trkpt lat="49.88668" lon="4.78979">
        <ele>331</ele>
        <time>2022-07-15T08:50:15.000Z</time>
      </trkpt>
      <trkpt lat="49.8867" lon="4.78982">
        <ele>331</ele>
        <time>2022-07-15T08:50:16.000Z</time>
      </trkpt>
      <trkpt lat="49.88672" lon="4.78985">
        <ele>331</ele>
        <time>2022-07-15T08:50:17.000Z</time>
      </trkpt>
      <trkpt lat="49.88674" lon="4.78988">
        <ele>331</ele>
        <time>2022-07-15T08:50:18.000Z</time>
      </trkpt>
      <trkpt lat="49.88677" lon="4.78991">
        <ele>331</ele>
        <time>2022-07-15T08:50:19.000Z</time>
      </trkpt>
      <trkpt lat="49.88679" lon="4.78994">
        <ele>331</ele>
        <time>2022-07-15T08:50:20.000Z</time>
      </trkpt>
      <trkpt lat="49.88681" lon="4.78997">
        <ele>331</ele>
        <time>2022-07-15T08:50:21.000Z</time>
      </trkpt>
      <trkpt lat="49.88684" lon="4.79">
        <ele>331</ele>
        <time>2022-07-15T08:50:22.000Z</time>
      </trkpt>
      <trkpt lat="49.88686" lon="4.79002">
        <ele>331</ele>
        <time>2022-07-15T08:50:23.000Z</time>
      </trkpt>
      <trkpt lat="49.88689" lon="4.79005">
        <ele>331</ele>
        <time>2022-07-15T08:50:24.000Z</time>
      </trkpt>
      <trkpt lat="49.88691" lon="4.79008">
        <ele>331</ele>
        <time>2022-07-15T08:50:25.000Z</time>
      </trkpt>
      <trkpt lat="49.88694" lon="4.79012">
        <ele>331</ele>
        <time>2022-07-15T08:50:26.000Z</time>
      </trkpt>
      <trkpt lat="49.88697" lon="4.79016">
        <ele>331</ele>
        <time>2022-07-15T08:50:27.000Z</time>
      </trkpt>
      <trkpt lat="49.887" lon="4.7902">
        <ele>331</ele>
        <time>2022-07-15T08:50:28.000Z</time>
      </trkpt>
      <trkpt lat="49.88704" lon="4.79024">
        <ele>332</ele>
        <time>2022-07-15T08:50:29.000Z</time>
      </trkpt>
      <trkpt lat="49.88707" lon="4.79028">
        <ele>332</ele>
        <time>2022-07-15T08:50:30.000Z</time>
      </trkpt>
      <trkpt lat="49.8871" lon="4.79032">
        <ele>332</ele>
        <time>2022-07-15T08:50:31.000Z</time>
      </trkpt>
      <trkpt lat="49.88713" lon="4.79036">
        <ele>332</ele>
        <time>2022-07-15T08:50:32.000Z</time>
      </trkpt>
      <trkpt lat="49.88715" lon="4.7904">
        <ele>332</ele>
        <time>2022-07-15T08:50:33.000Z</time>
      </trkpt>
      <trkpt lat="49.88718" lon="4.79045">
        <ele>332</ele>
        <time>2022-07-15T08:50:34.000Z</time>
      </trkpt>
      <trkpt lat="49.8872" lon="4.7905">
        <ele>333</ele>
        <time>2022-07-15T08:50:35.000Z</time>
      </trkpt>
      <trkpt lat="49.88723" lon="4.79055">
        <ele>333</ele>
        <time>2022-07-15T08:50:36.000Z</time>
      </trkpt>
      <trkpt lat="49.88726" lon="4.79059">
        <ele>333</ele>
        <time>2022-07-15T08:50:37.000Z</time>
      </trkpt>
      <trkpt lat="49.88729" lon="4.79064">
        <ele>333</ele>
        <time>2022-07-15T08:50:38.000Z</time>
      </trkpt>
      <trkpt lat="49.88731" lon="4.79069">
        <ele>333</ele>
        <time>2022-07-15T08:50:39.000Z</time>
      </trkpt>
      <trkpt lat="49.88734" lon="4.79073">
        <ele>333</ele>
        <time>2022-07-15T08:50:40.000Z</time>
      </trkpt>
      <trkpt lat="49.88737" lon="4.79077">
        <ele>333</ele>
        <time>2022-07-15T08:50:41.000Z</time>
      </trkpt>
      <trkpt lat="49.8874" lon="4.7908">
        <ele>333</ele>
        <time>2022-07-15T08:50:42.000Z</time>
      </trkpt>
      <trkpt lat="49.88742" lon="4.79084">
        <ele>333</ele>
        <time>2022-07-15T08:50:43.000Z</time>
      </trkpt>
      <trkpt lat="49.88745" lon="4.79088">
        <ele>334</ele>
        <time>2022-07-15T08:50:44.000Z</time>
      </trkpt>
      <trkpt lat="49.88748" lon="4.79091">
        <ele>334</ele>
        <time>2022-07-15T08:50:45.000Z</time>
      </trkpt>
      <trkpt lat="49.8875" lon="4.79094">
        <ele>334</ele>
        <time>2022-07-15T08:50:46.000Z</time>
      </trkpt>
      <trkpt lat="49.88754" lon="4.79098">
        <ele>334</ele>
        <time>2022-07-15T08:50:47.000Z</time>
      </trkpt>
      <trkpt lat="49.88757" lon="4.79101">
        <ele>335</ele>
        <time>2022-07-15T08:50:48.000Z</time>
      </trkpt>
      <trkpt lat="49.88761" lon="4.79104">
        <ele>335</ele>
        <time>2022-07-15T08:50:49.000Z</time>
      </trkpt>
      <trkpt lat="49.88764" lon="4.79107">
        <ele>335</ele>
        <time>2022-07-15T08:50:50.000Z</time>
      </trkpt>
      <trkpt lat="49.88767" lon="4.7911">
        <ele>335</ele>
        <time>2022-07-15T08:50:51.000Z</time>
      </trkpt>
      <trkpt lat="49.8877" lon="4.79114">
        <ele>335</ele>
        <time>2022-07-15T08:50:52.000Z</time>
      </trkpt>
      <trkpt lat="49.88772" lon="4.79118">
        <ele>335</ele>
        <time>2022-07-15T08:50:53.000Z</time>
      </trkpt>
      <trkpt lat="49.88775" lon="4.79123">
        <ele>335</ele>
        <time>2022-07-15T08:50:54.000Z</time>
      </trkpt>
      <trkpt lat="49.88778" lon="4.79127">
        <ele>335</ele>
        <time>2022-07-15T08:50:55.000Z</time>
      </trkpt>
      <trkpt lat="49.88781" lon="4.79132">
        <ele>336</ele>
        <time>2022-07-15T08:50:56.000Z</time>
      </trkpt>
      <trkpt lat="49.88784" lon="4.79137">
        <ele>336</ele>
        <time>2022-07-15T08:50:57.000Z</time>
      </trkpt>
      <trkpt lat="49.88787" lon="4.79141">
        <ele>336</ele>
        <time>2022-07-15T08:50:58.000Z</time>
      </trkpt>
      <trkpt lat="49.88789" lon="4.79144">
        <ele>336</ele>
        <time>2022-07-15T08:50:59.000Z</time>
      </trkpt>
      <trkpt lat="49.88792" lon="4.79147">
        <ele>336</ele>
        <time>2022-07-15T08:51:00.000Z</time>
      </trkpt>
      <trkpt lat="49.88794" lon="4.7915">
        <ele>336</ele>
        <time>2022-07-15T08:51:01.000Z</time>
      </trkpt>
      <trkpt lat="49.88797" lon="4.79153">
        <ele>337</ele>
        <time>2022-07-15T08:51:02.000Z</time>
      </trkpt>
      <trkpt lat="49.88799" lon="4.79157">
        <ele>337</ele>
        <time>2022-07-15T08:51:03.000Z</time>
      </trkpt>
      <trkpt lat="49.88801" lon="4.7916">
        <ele>337</ele>
        <time>2022-07-15T08:51:04.000Z</time>
      </trkpt>
      <trkpt lat="49.88804" lon="4.79163">
        <ele>337</ele>
        <time>2022-07-15T08:51:05.000Z</time>
      </trkpt>
      <trkpt lat="49.88807" lon="4.79166">
        <ele>337</ele>
        <time>2022-07-15T08:51:06.000Z</time>
      </trkpt>
      <trkpt lat="49.8881" lon="4.79168">
        <ele>338</ele>
        <time>2022-07-15T08:51:07.000Z</time>
      </trkpt>
      <trkpt lat="49.88813" lon="4.79171">
        <ele>338</ele>
        <time>2022-07-15T08:51:08.000Z</time>
      </trkpt>
      <trkpt lat="49.88816" lon="4.79175">
        <ele>338</ele>
        <time>2022-07-15T08:51:09.000Z</time>
      </trkpt>
      <trkpt lat="49.88818" lon="4.79179">
        <ele>338</ele>
        <time>2022-07-15T08:51:10.000Z</time>
      </trkpt>
      <trkpt lat="49.8882" lon="4.79183">
        <ele>339</ele>
        <time>2022-07-15T08:51:11.000Z</time>
      </trkpt>
      <trkpt lat="49.88822" lon="4.79187">
        <ele>339</ele>
        <time>2022-07-15T08:51:12.000Z</time>
      </trkpt>
      <trkpt lat="49.88824" lon="4.79191">
        <ele>339</ele>
        <time>2022-07-15T08:51:13.000Z</time>
      </trkpt>
      <trkpt lat="49.88826" lon="4.79195">
        <ele>339</ele>
        <time>2022-07-15T08:51:14.000Z</time>
      </trkpt>
      <trkpt lat="49.88827" lon="4.79199">
        <ele>339</ele>
        <time>2022-07-15T08:51:15.000Z</time>
      </trkpt>
      <trkpt lat="49.88829" lon="4.79203">
        <ele>339</ele>
        <time>2022-07-15T08:51:16.000Z</time>
      </trkpt>
      <trkpt lat="49.88831" lon="4.79207">
        <ele>339</ele>
        <time>2022-07-15T08:51:17.000Z</time>
      </trkpt>
      <trkpt lat="49.88833" lon="4.7921">
        <ele>339</ele>
        <time>2022-07-15T08:51:18.000Z</time>
      </trkpt>
      <trkpt lat="49.88834" lon="4.79214">
        <ele>339</ele>
        <time>2022-07-15T08:51:19.000Z</time>
      </trkpt>
      <trkpt lat="49.88836" lon="4.79218">
        <ele>340</ele>
        <time>2022-07-15T08:51:20.000Z</time>
      </trkpt>
      <trkpt lat="49.88838" lon="4.79221">
        <ele>340</ele>
        <time>2022-07-15T08:51:21.000Z</time>
      </trkpt>
      <trkpt lat="49.88841" lon="4.79225">
        <ele>340</ele>
        <time>2022-07-15T08:51:22.000Z</time>
      </trkpt>
      <trkpt lat="49.88843" lon="4.79228">
        <ele>340</ele>
        <time>2022-07-15T08:51:23.000Z</time>
      </trkpt>
      <trkpt lat="49.88845" lon="4.79232">
        <ele>340</ele>
        <time>2022-07-15T08:51:24.000Z</time>
      </trkpt>
      <trkpt lat="49.88848" lon="4.79235">
        <ele>341</ele>
        <time>2022-07-15T08:51:25.000Z</time>
      </trkpt>
      <trkpt lat="49.8885" lon="4.79239">
        <ele>341</ele>
        <time>2022-07-15T08:51:26.000Z</time>
      </trkpt>
      <trkpt lat="49.88853" lon="4.79242">
        <ele>341</ele>
        <time>2022-07-15T08:51:27.000Z</time>
      </trkpt>
      <trkpt lat="49.88856" lon="4.79246">
        <ele>342</ele>
        <time>2022-07-15T08:51:28.000Z</time>
      </trkpt>
      <trkpt lat="49.88858" lon="4.79249">
        <ele>342</ele>
        <time>2022-07-15T08:51:29.000Z</time>
      </trkpt>
      <trkpt lat="49.88861" lon="4.79253">
        <ele>342</ele>
        <time>2022-07-15T08:51:30.000Z</time>
      </trkpt>
      <trkpt lat="49.88863" lon="4.79256">
        <ele>343</ele>
        <time>2022-07-15T08:51:31.000Z</time>
      </trkpt>
      <trkpt lat="49.88866" lon="4.79259">
        <ele>343</ele>
        <time>2022-07-15T08:51:32.000Z</time>
      </trkpt>
      <trkpt lat="49.88869" lon="4.79263">
        <ele>343</ele>
        <time>2022-07-15T08:51:33.000Z</time>
      </trkpt>
      <trkpt lat="49.88872" lon="4.79266">
        <ele>343</ele>
        <time>2022-07-15T08:51:34.000Z</time>
      </trkpt>
      <trkpt lat="49.88875" lon="4.79268">
        <ele>344</ele>
        <time>2022-07-15T08:51:35.000Z</time>
      </trkpt>
      <trkpt lat="49.88877" lon="4.79271">
        <ele>344</ele>
        <time>2022-07-15T08:51:36.000Z</time>
      </trkpt>
      <trkpt lat="49.8888" lon="4.79273">
        <ele>344</ele>
        <time>2022-07-15T08:51:37.000Z</time>
      </trkpt>
      <trkpt lat="49.88882" lon="4.79275">
        <ele>344</ele>
        <time>2022-07-15T08:51:38.000Z</time>
      </trkpt>
      <trkpt lat="49.88884" lon="4.79277">
        <ele>345</ele>
        <time>2022-07-15T08:51:39.000Z</time>
      </trkpt>
      <trkpt lat="49.88886" lon="4.79279">
        <ele>345</ele>
        <time>2022-07-15T08:51:40.000Z</time>
      </trkpt>
      <trkpt lat="49.88889" lon="4.79282">
        <ele>345</ele>
        <time>2022-07-15T08:51:41.000Z</time>
      </trkpt>
      <trkpt lat="49.88892" lon="4.79284">
        <ele>345</ele>
        <time>2022-07-15T08:51:42.000Z</time>
      </trkpt>
      <trkpt lat="49.88894" lon="4.79286">
        <ele>345</ele>
        <time>2022-07-15T08:51:43.000Z</time>
      </trkpt>
      <trkpt lat="49.88895" lon="4.79288">
        <ele>345</ele>
        <time>2022-07-15T08:51:44.000Z</time>
      </trkpt>
      <trkpt lat="49.88898" lon="4.7929">
        <ele>346</ele>
        <time>2022-07-15T08:51:45.000Z</time>
      </trkpt>
      <trkpt lat="49.889" lon="4.79292">
        <ele>346</ele>
        <time>2022-07-15T08:51:46.000Z</time>
      </trkpt>
      <trkpt lat="49.88902" lon="4.79294">
        <ele>346</ele>
        <time>2022-07-15T08:51:47.000Z</time>
      </trkpt>
      <trkpt lat="49.88905" lon="4.79296">
        <ele>346</ele>
        <time>2022-07-15T08:51:48.000Z</time>
      </trkpt>
      <trkpt lat="49.88908" lon="4.79299">
        <ele>346</ele>
        <time>2022-07-15T08:51:49.000Z</time>
      </trkpt>
      <trkpt lat="49.88911" lon="4.793">
        <ele>346</ele>
        <time>2022-07-15T08:51:50.000Z</time>
      </trkpt>
      <trkpt lat="49.88912" lon="4.79301">
        <ele>346</ele>
        <time>2022-07-15T08:51:51.000Z</time>
      </trkpt>
      <trkpt lat="49.88913" lon="4.79301">
        <ele>347</ele>
        <time>2022-07-15T08:51:52.000Z</time>
      </trkpt>
      <trkpt lat="49.88913" lon="4.79301">
        <ele>347</ele>
        <time>2022-07-15T08:51:53.000Z</time>
      </trkpt>
      <trkpt lat="49.88913" lon="4.79302">
        <ele>347</ele>
        <time>2022-07-15T08:51:54.000Z</time>
      </trkpt>
      <trkpt lat="49.88913" lon="4.79302">
        <ele>347</ele>
        <time>2022-07-15T08:51:55.000Z</time>
      </trkpt>
      <trkpt lat="49.88913" lon="4.79302">
        <ele>347</ele>
        <time>2022-07-15T08:51:56.000Z</time>
      </trkpt>
      <trkpt lat="49.88913" lon="4.79302">
        <ele>347</ele>
        <time>2022-07-15T08:51:57.000Z</time>
      </trkpt>
      <trkpt lat="49.88914" lon="4.79302">
        <ele>347</ele>
        <time>2022-07-15T08:51:58.000Z</time>
      </trkpt>
      <trkpt lat="49.88914" lon="4.79302">
        <ele>348</ele>
        <time>2022-07-15T08:51:59.000Z</time>
      </trkpt>
      <trkpt lat="49.88914" lon="4.79302">
        <ele>348</ele>
        <time>2022-07-15T08:52:00.000Z</time>
      </trkpt>
      <trkpt lat="49.88915" lon="4.79303">
        <ele>348</ele>
        <time>2022-07-15T08:52:01.000Z</time>
      </trkpt>
      <trkpt lat="49.88916" lon="4.79304">
        <ele>348</ele>
        <time>2022-07-15T08:52:02.000Z</time>
      </trkpt>
      <trkpt lat="49.88917" lon="4.79304">
        <ele>348</ele>
        <time>2022-07-15T08:52:03.000Z</time>
      </trkpt>
      <trkpt lat="49.88919" lon="4.79305">
        <ele>348</ele>
        <time>2022-07-15T08:52:04.000Z</time>
      </trkpt>
      <trkpt lat="49.8892" lon="4.79306">
        <ele>348</ele>
        <time>2022-07-15T08:52:05.000Z</time>
      </trkpt>
      <trkpt lat="49.88923" lon="4.79305">
        <ele>348</ele>
        <time>2022-07-15T08:52:06.000Z</time>
      </trkpt>
      <trkpt lat="49.88926" lon="4.79305">
        <ele>348</ele>
        <time>2022-07-15T08:52:07.000Z</time>
      </trkpt>
      <trkpt lat="49.88929" lon="4.79304">
        <ele>348</ele>
        <time>2022-07-15T08:52:08.000Z</time>
      </trkpt>
      <trkpt lat="49.88932" lon="4.79303">
        <ele>348</ele>
        <time>2022-07-15T08:52:09.000Z</time>
      </trkpt>
      <trkpt lat="49.88935" lon="4.79302">
        <ele>348</ele>
        <time>2022-07-15T08:52:10.000Z</time>
      </trkpt>
      <trkpt lat="49.88938" lon="4.79301">
        <ele>349</ele>
        <time>2022-07-15T08:52:11.000Z</time>
      </trkpt>
      <trkpt lat="49.88942" lon="4.793">
        <ele>349</ele>
        <time>2022-07-15T08:52:12.000Z</time>
      </trkpt>
      <trkpt lat="49.88946" lon="4.79299">
        <ele>349</ele>
        <time>2022-07-15T08:52:13.000Z</time>
      </trkpt>
      <trkpt lat="49.8895" lon="4.79298">
        <ele>348</ele>
        <time>2022-07-15T08:52:14.000Z</time>
      </trkpt>
      <trkpt lat="49.88955" lon="4.79296">
        <ele>348</ele>
        <time>2022-07-15T08:52:15.000Z</time>
      </trkpt>
      <trkpt lat="49.88959" lon="4.79295">
        <ele>348</ele>
        <time>2022-07-15T08:52:16.000Z</time>
      </trkpt>
      <trkpt lat="49.88963" lon="4.79293">
        <ele>348</ele>
        <time>2022-07-15T08:52:17.000Z</time>
      </trkpt>
      <trkpt lat="49.88968" lon="4.79293">
        <ele>348</ele>
        <time>2022-07-15T08:52:18.000Z</time>
      </trkpt>
      <trkpt lat="49.88972" lon="4.79291">
        <ele>348</ele>
        <time>2022-07-15T08:52:19.000Z</time>
      </trkpt>
      <trkpt lat="49.88976" lon="4.79288">
        <ele>348</ele>
        <time>2022-07-15T08:52:20.000Z</time>
      </trkpt>
      <trkpt lat="49.8898" lon="4.79286">
        <ele>348</ele>
        <time>2022-07-15T08:52:21.000Z</time>
      </trkpt>
      <trkpt lat="49.88984" lon="4.79283">
        <ele>348</ele>
        <time>2022-07-15T08:52:22.000Z</time>
      </trkpt>
      <trkpt lat="49.88986" lon="4.79281">
        <ele>348</ele>
        <time>2022-07-15T08:52:23.000Z</time>
      </trkpt>
      <trkpt lat="49.8899" lon="4.79278">
        <ele>347</ele>
        <time>2022-07-15T08:52:24.000Z</time>
      </trkpt>
      <trkpt lat="49.88993" lon="4.79275">
        <ele>347</ele>
        <time>2022-07-15T08:52:25.000Z</time>
      </trkpt>
      <trkpt lat="49.88996" lon="4.79272">
        <ele>347</ele>
        <time>2022-07-15T08:52:26.000Z</time>
      </trkpt>
      <trkpt lat="49.88999" lon="4.79269">
        <ele>346</ele>
        <time>2022-07-15T08:52:27.000Z</time>
      </trkpt>
      <trkpt lat="49.89001" lon="4.79265">
        <ele>346</ele>
        <time>2022-07-15T08:52:28.000Z</time>
      </trkpt>
      <trkpt lat="49.89003" lon="4.79261">
        <ele>345</ele>
        <time>2022-07-15T08:52:29.000Z</time>
      </trkpt>
      <trkpt lat="49.89004" lon="4.79258">
        <ele>344</ele>
        <time>2022-07-15T08:52:30.000Z</time>
      </trkpt>
      <trkpt lat="49.89007" lon="4.79257">
        <ele>344</ele>
        <time>2022-07-15T08:52:31.000Z</time>
      </trkpt>
      <trkpt lat="49.89009" lon="4.79256">
        <ele>343</ele>
        <time>2022-07-15T08:52:32.000Z</time>
      </trkpt>
      <trkpt lat="49.89012" lon="4.79255">
        <ele>343</ele>
        <time>2022-07-15T08:52:33.000Z</time>
      </trkpt>
      <trkpt lat="49.89014" lon="4.79254">
        <ele>342</ele>
        <time>2022-07-15T08:52:34.000Z</time>
      </trkpt>
      <trkpt lat="49.89016" lon="4.79252">
        <ele>341</ele>
        <time>2022-07-15T08:52:35.000Z</time>
      </trkpt>
      <trkpt lat="49.89017" lon="4.7925">
        <ele>340</ele>
        <time>2022-07-15T08:52:36.000Z</time>
      </trkpt>
      <trkpt lat="49.89017" lon="4.7925">
        <ele>340</ele>
        <time>2022-07-15T08:52:37.000Z</time>
      </trkpt>
      <trkpt lat="49.89018" lon="4.79249">
        <ele>339</ele>
        <time>2022-07-15T08:52:38.000Z</time>
      </trkpt>
      <trkpt lat="49.89018" lon="4.79248">
        <ele>338</ele>
        <time>2022-07-15T08:52:39.000Z</time>
      </trkpt>
      <trkpt lat="49.89019" lon="4.79248">
        <ele>338</ele>
        <time>2022-07-15T08:52:40.000Z</time>
      </trkpt>
      <trkpt lat="49.89019" lon="4.79248">
        <ele>337</ele>
        <time>2022-07-15T08:52:41.000Z</time>
      </trkpt>
      <trkpt lat="49.8902" lon="4.79247">
        <ele>337</ele>
        <time>2022-07-15T08:52:42.000Z</time>
      </trkpt>
      <trkpt lat="49.8902" lon="4.79245">
        <ele>336</ele>
        <time>2022-07-15T08:52:43.000Z</time>
      </trkpt>
      <trkpt lat="49.89021" lon="4.79244">
        <ele>336</ele>
        <time>2022-07-15T08:52:44.000Z</time>
      </trkpt>
      <trkpt lat="49.89022" lon="4.79242">
        <ele>336</ele>
        <time>2022-07-15T08:52:45.000Z</time>
      </trkpt>
      <trkpt lat="49.89023" lon="4.79242">
        <ele>335</ele>
        <time>2022-07-15T08:52:46.000Z</time>
      </trkpt>
      <trkpt lat="49.89023" lon="4.79243">
        <ele>335</ele>
        <time>2022-07-15T08:52:47.000Z</time>
      </trkpt>
      <trkpt lat="49.89023" lon="4.79244">
        <ele>335</ele>
        <time>2022-07-15T08:52:48.000Z</time>
      </trkpt>
      <trkpt lat="49.89022" lon="4.79245">
        <ele>334</ele>
        <time>2022-07-15T08:52:49.000Z</time>
      </trkpt>
      <trkpt lat="49.89022" lon="4.79246">
        <ele>334</ele>
        <time>2022-07-15T08:52:50.000Z</time>
      </trkpt>
      <trkpt lat="49.89021" lon="4.79247">
        <ele>334</ele>
        <time>2022-07-15T08:52:51.000Z</time>
      </trkpt>
      <trkpt lat="49.89021" lon="4.79248">
        <ele>334</ele>
        <time>2022-07-15T08:52:52.000Z</time>
      </trkpt>
      <trkpt lat="49.89021" lon="4.79249">
        <ele>333</ele>
        <time>2022-07-15T08:52:53.000Z</time>
      </trkpt>
      <trkpt lat="49.89021" lon="4.79248">
        <ele>333</ele>
        <time>2022-07-15T08:52:54.000Z</time>
      </trkpt>
      <trkpt lat="49.89021" lon="4.79249">
        <ele>333</ele>
        <time>2022-07-15T08:52:55.000Z</time>
      </trkpt>
      <trkpt lat="49.89022" lon="4.79251">
        <ele>333</ele>
        <time>2022-07-15T08:52:56.000Z</time>
      </trkpt>
      <trkpt lat="49.89023" lon="4.79253">
        <ele>332</ele>
        <time>2022-07-15T08:52:57.000Z</time>
      </trkpt>
      <trkpt lat="49.89023" lon="4.79256">
        <ele>332</ele>
        <time>2022-07-15T08:52:58.000Z</time>
      </trkpt>
      <trkpt lat="49.89024" lon="4.7926">
        <ele>332</ele>
        <time>2022-07-15T08:52:59.000Z</time>
      </trkpt>
      <trkpt lat="49.89023" lon="4.79263">
        <ele>332</ele>
        <time>2022-07-15T08:53:00.000Z</time>
      </trkpt>
      <trkpt lat="49.89023" lon="4.79266">
        <ele>331</ele>
        <time>2022-07-15T08:53:01.000Z</time>
      </trkpt>
      <trkpt lat="49.89023" lon="4.79269">
        <ele>331</ele>
        <time>2022-07-15T08:53:02.000Z</time>
      </trkpt>
      <trkpt lat="49.89023" lon="4.79271">
        <ele>331</ele>
        <time>2022-07-15T08:53:03.000Z</time>
      </trkpt>
      <trkpt lat="49.89023" lon="4.79273">
        <ele>331</ele>
        <time>2022-07-15T08:53:04.000Z</time>
      </trkpt>
      <trkpt lat="49.89024" lon="4.79273">
        <ele>331</ele>
        <time>2022-07-15T08:53:05.000Z</time>
      </trkpt>
      <trkpt lat="49.89025" lon="4.79273">
        <ele>330</ele>
        <time>2022-07-15T08:53:06.000Z</time>
      </trkpt>
      <trkpt lat="49.89026" lon="4.79272">
        <ele>330</ele>
        <time>2022-07-15T08:53:07.000Z</time>
      </trkpt>
      <trkpt lat="49.89027" lon="4.79271">
        <ele>330</ele>
        <time>2022-07-15T08:53:08.000Z</time>
      </trkpt>
      <trkpt lat="49.89027" lon="4.79269">
        <ele>330</ele>
        <time>2022-07-15T08:53:09.000Z</time>
      </trkpt>
      <trkpt lat="49.89029" lon="4.79267">
        <ele>330</ele>
        <time>2022-07-15T08:53:10.000Z</time>
      </trkpt>
      <trkpt lat="49.8903" lon="4.79264">
        <ele>330</ele>
        <time>2022-07-15T08:53:11.000Z</time>
      </trkpt>
      <trkpt lat="49.89031" lon="4.79261">
        <ele>331</ele>
        <time>2022-07-15T08:53:12.000Z</time>
      </trkpt>
      <trkpt lat="49.89032" lon="4.79257">
        <ele>331</ele>
        <time>2022-07-15T08:53:13.000Z</time>
      </trkpt>
      <trkpt lat="49.89033" lon="4.79254">
        <ele>331</ele>
        <time>2022-07-15T08:53:14.000Z</time>
      </trkpt>
      <trkpt lat="49.89035" lon="4.7925">
        <ele>331</ele>
        <time>2022-07-15T08:53:15.000Z</time>
      </trkpt>
      <trkpt lat="49.89037" lon="4.79246">
        <ele>331</ele>
        <time>2022-07-15T08:53:16.000Z</time>
      </trkpt>
      <trkpt lat="49.89038" lon="4.79242">
        <ele>331</ele>
        <time>2022-07-15T08:53:17.000Z</time>
      </trkpt>
      <trkpt lat="49.8904" lon="4.79239">
        <ele>331</ele>
        <time>2022-07-15T08:53:18.000Z</time>
      </trkpt>
      <trkpt lat="49.89043" lon="4.79237">
        <ele>331</ele>
        <time>2022-07-15T08:53:19.000Z</time>
      </trkpt>
      <trkpt lat="49.89045" lon="4.79236">
        <ele>332</ele>
        <time>2022-07-15T08:53:20.000Z</time>
      </trkpt>
      <trkpt lat="49.89048" lon="4.79236">
        <ele>332</ele>
        <time>2022-07-15T08:53:21.000Z</time>
      </trkpt>
      <trkpt lat="49.89051" lon="4.79234">
        <ele>332</ele>
        <time>2022-07-15T08:53:22.000Z</time>
      </trkpt>
      <trkpt lat="49.89054" lon="4.79233">
        <ele>332</ele>
        <time>2022-07-15T08:53:23.000Z</time>
      </trkpt>
      <trkpt lat="49.89057" lon="4.79231">
        <ele>332</ele>
        <time>2022-07-15T08:53:24.000Z</time>
      </trkpt>
      <trkpt lat="49.8906" lon="4.79229">
        <ele>332</ele>
        <time>2022-07-15T08:53:25.000Z</time>
      </trkpt>
      <trkpt lat="49.89063" lon="4.79227">
        <ele>332</ele>
        <time>2022-07-15T08:53:26.000Z</time>
      </trkpt>
      <trkpt lat="49.89067" lon="4.79226">
        <ele>332</ele>
        <time>2022-07-15T08:53:27.000Z</time>
      </trkpt>
      <trkpt lat="49.8907" lon="4.79225">
        <ele>333</ele>
        <time>2022-07-15T08:53:28.000Z</time>
      </trkpt>
      <trkpt lat="49.89073" lon="4.79224">
        <ele>333</ele>
        <time>2022-07-15T08:53:29.000Z</time>
      </trkpt>
      <trkpt lat="49.89076" lon="4.79224">
        <ele>333</ele>
        <time>2022-07-15T08:53:30.000Z</time>
      </trkpt>
      <trkpt lat="49.8908" lon="4.79222">
        <ele>333</ele>
        <time>2022-07-15T08:53:31.000Z</time>
      </trkpt>
      <trkpt lat="49.89083" lon="4.79221">
        <ele>333</ele>
        <time>2022-07-15T08:53:32.000Z</time>
      </trkpt>
      <trkpt lat="49.89087" lon="4.7922">
        <ele>333</ele>
        <time>2022-07-15T08:53:33.000Z</time>
      </trkpt>
      <trkpt lat="49.89091" lon="4.79219">
        <ele>333</ele>
        <time>2022-07-15T08:53:34.000Z</time>
      </trkpt>
      <trkpt lat="49.89095" lon="4.79218">
        <ele>333</ele>
        <time>2022-07-15T08:53:35.000Z</time>
      </trkpt>
      <trkpt lat="49.89098" lon="4.79218">
        <ele>333</ele>
        <time>2022-07-15T08:53:36.000Z</time>
      </trkpt>
      <trkpt lat="49.89101" lon="4.79218">
        <ele>333</ele>
        <time>2022-07-15T08:53:37.000Z</time>
      </trkpt>
      <trkpt lat="49.89105" lon="4.79217">
        <ele>333</ele>
        <time>2022-07-15T08:53:38.000Z</time>
      </trkpt>
      <trkpt lat="49.89108" lon="4.79217">
        <ele>333</ele>
        <time>2022-07-15T08:53:39.000Z</time>
      </trkpt>
      <trkpt lat="49.89111" lon="4.79217">
        <ele>333</ele>
        <time>2022-07-15T08:53:40.000Z</time>
      </trkpt>
      <trkpt lat="49.89114" lon="4.79217">
        <ele>333</ele>
        <time>2022-07-15T08:53:41.000Z</time>
      </trkpt>
      <trkpt lat="49.89117" lon="4.79217">
        <ele>333</ele>
        <time>2022-07-15T08:53:42.000Z</time>
      </trkpt>
      <trkpt lat="49.8912" lon="4.79217">
        <ele>333</ele>
        <time>2022-07-15T08:53:43.000Z</time>
      </trkpt>
      <trkpt lat="49.89123" lon="4.79217">
        <ele>334</ele>
        <time>2022-07-15T08:53:44.000Z</time>
      </trkpt>
      <trkpt lat="49.89125" lon="4.79216">
        <ele>334</ele>
        <time>2022-07-15T08:53:45.000Z</time>
      </trkpt>
      <trkpt lat="49.89128" lon="4.79215">
        <ele>334</ele>
        <time>2022-07-15T08:53:46.000Z</time>
      </trkpt>
      <trkpt lat="49.89131" lon="4.79214">
        <ele>334</ele>
        <time>2022-07-15T08:53:47.000Z</time>
      </trkpt>
      <trkpt lat="49.89134" lon="4.79213">
        <ele>334</ele>
        <time>2022-07-15T08:53:48.000Z</time>
      </trkpt>
      <trkpt lat="49.89137" lon="4.79213">
        <ele>334</ele>
        <time>2022-07-15T08:53:49.000Z</time>
      </trkpt>
      <trkpt lat="49.8914" lon="4.79213">
        <ele>334</ele>
        <time>2022-07-15T08:53:50.000Z</time>
      </trkpt>
      <trkpt lat="49.89142" lon="4.79213">
        <ele>334</ele>
        <time>2022-07-15T08:53:51.000Z</time>
      </trkpt>
      <trkpt lat="49.89144" lon="4.79213">
        <ele>334</ele>
        <time>2022-07-15T08:53:52.000Z</time>
      </trkpt>
      <trkpt lat="49.89147" lon="4.79213">
        <ele>334</ele>
        <time>2022-07-15T08:53:53.000Z</time>
      </trkpt>
      <trkpt lat="49.8915" lon="4.79212">
        <ele>334</ele>
        <time>2022-07-15T08:53:54.000Z</time>
      </trkpt>
      <trkpt lat="49.89154" lon="4.79212">
        <ele>335</ele>
        <time>2022-07-15T08:53:55.000Z</time>
      </trkpt>
      <trkpt lat="49.89157" lon="4.7921">
        <ele>335</ele>
        <time>2022-07-15T08:53:56.000Z</time>
      </trkpt>
      <trkpt lat="49.89161" lon="4.79209">
        <ele>335</ele>
        <time>2022-07-15T08:53:57.000Z</time>
      </trkpt>
      <trkpt lat="49.89165" lon="4.79208">
        <ele>335</ele>
        <time>2022-07-15T08:53:58.000Z</time>
      </trkpt>
      <trkpt lat="49.8917" lon="4.79207">
        <ele>335</ele>
        <time>2022-07-15T08:53:59.000Z</time>
      </trkpt>
      <trkpt lat="49.89174" lon="4.79206">
        <ele>335</ele>
        <time>2022-07-15T08:54:00.000Z</time>
      </trkpt>
      <trkpt lat="49.89178" lon="4.79205">
        <ele>336</ele>
        <time>2022-07-15T08:54:01.000Z</time>
      </trkpt>
      <trkpt lat="49.89181" lon="4.79204">
        <ele>336</ele>
        <time>2022-07-15T08:54:02.000Z</time>
      </trkpt>
      <trkpt lat="49.89184" lon="4.79203">
        <ele>336</ele>
        <time>2022-07-15T08:54:03.000Z</time>
      </trkpt>
      <trkpt lat="49.89186" lon="4.79204">
        <ele>336</ele>
        <time>2022-07-15T08:54:04.000Z</time>
      </trkpt>
      <trkpt lat="49.89188" lon="4.79204">
        <ele>336</ele>
        <time>2022-07-15T08:54:05.000Z</time>
      </trkpt>
      <trkpt lat="49.8919" lon="4.79203">
        <ele>336</ele>
        <time>2022-07-15T08:54:06.000Z</time>
      </trkpt>
      <trkpt lat="49.89193" lon="4.79202">
        <ele>336</ele>
        <time>2022-07-15T08:54:07.000Z</time>
      </trkpt>
      <trkpt lat="49.89196" lon="4.79201">
        <ele>336</ele>
        <time>2022-07-15T08:54:08.000Z</time>
      </trkpt>
      <trkpt lat="49.89199" lon="4.79201">
        <ele>336</ele>
        <time>2022-07-15T08:54:09.000Z</time>
      </trkpt>
      <trkpt lat="49.89202" lon="4.792">
        <ele>336</ele>
        <time>2022-07-15T08:54:10.000Z</time>
      </trkpt>
      <trkpt lat="49.89206" lon="4.792">
        <ele>336</ele>
        <time>2022-07-15T08:54:11.000Z</time>
      </trkpt>
      <trkpt lat="49.8921" lon="4.792">
        <ele>336</ele>
        <time>2022-07-15T08:54:12.000Z</time>
      </trkpt>
      <trkpt lat="49.89215" lon="4.792">
        <ele>336</ele>
        <time>2022-07-15T08:54:13.000Z</time>
      </trkpt>
      <trkpt lat="49.89219" lon="4.792">
        <ele>336</ele>
        <time>2022-07-15T08:54:14.000Z</time>
      </trkpt>
      <trkpt lat="49.89223" lon="4.79201">
        <ele>336</ele>
        <time>2022-07-15T08:54:15.000Z</time>
      </trkpt>
      <trkpt lat="49.89227" lon="4.792">
        <ele>336</ele>
        <time>2022-07-15T08:54:16.000Z</time>
      </trkpt>
      <trkpt lat="49.8923" lon="4.792">
        <ele>336</ele>
        <time>2022-07-15T08:54:17.000Z</time>
      </trkpt>
      <trkpt lat="49.89233" lon="4.79201">
        <ele>336</ele>
        <time>2022-07-15T08:54:18.000Z</time>
      </trkpt>
      <trkpt lat="49.89237" lon="4.792">
        <ele>336</ele>
        <time>2022-07-15T08:54:19.000Z</time>
      </trkpt>
      <trkpt lat="49.89242" lon="4.79199">
        <ele>336</ele>
        <time>2022-07-15T08:54:20.000Z</time>
      </trkpt>
      <trkpt lat="49.89246" lon="4.79198">
        <ele>337</ele>
        <time>2022-07-15T08:54:21.000Z</time>
      </trkpt>
      <trkpt lat="49.8925" lon="4.79196">
        <ele>337</ele>
        <time>2022-07-15T08:54:22.000Z</time>
      </trkpt>
      <trkpt lat="49.89254" lon="4.79195">
        <ele>337</ele>
        <time>2022-07-15T08:54:23.000Z</time>
      </trkpt>
      <trkpt lat="49.89259" lon="4.79193">
        <ele>337</ele>
        <time>2022-07-15T08:54:24.000Z</time>
      </trkpt>
      <trkpt lat="49.89263" lon="4.79191">
        <ele>337</ele>
        <time>2022-07-15T08:54:25.000Z</time>
      </trkpt>
      <trkpt lat="49.89268" lon="4.79189">
        <ele>337</ele>
        <time>2022-07-15T08:54:26.000Z</time>
      </trkpt>
      <trkpt lat="49.89273" lon="4.79187">
        <ele>337</ele>
        <time>2022-07-15T08:54:27.000Z</time>
      </trkpt>
      <trkpt lat="49.89278" lon="4.79185">
        <ele>337</ele>
        <time>2022-07-15T08:54:28.000Z</time>
      </trkpt>
      <trkpt lat="49.89283" lon="4.79182">
        <ele>336</ele>
        <time>2022-07-15T08:54:29.000Z</time>
      </trkpt>
      <trkpt lat="49.89289" lon="4.7918">
        <ele>336</ele>
        <time>2022-07-15T08:54:30.000Z</time>
      </trkpt>
      <trkpt lat="49.89295" lon="4.79178">
        <ele>336</ele>
        <time>2022-07-15T08:54:31.000Z</time>
      </trkpt>
      <trkpt lat="49.89302" lon="4.79177">
        <ele>336</ele>
        <time>2022-07-15T08:54:32.000Z</time>
      </trkpt>
      <trkpt lat="49.89308" lon="4.79176">
        <ele>337</ele>
        <time>2022-07-15T08:54:33.000Z</time>
      </trkpt>
      <trkpt lat="49.89315" lon="4.79176">
        <ele>337</ele>
        <time>2022-07-15T08:54:34.000Z</time>
      </trkpt>
      <trkpt lat="49.89321" lon="4.79176">
        <ele>337</ele>
        <time>2022-07-15T08:54:35.000Z</time>
      </trkpt>
      <trkpt lat="49.89327" lon="4.79177">
        <ele>337</ele>
        <time>2022-07-15T08:54:36.000Z</time>
      </trkpt>
      <trkpt lat="49.89333" lon="4.79178">
        <ele>337</ele>
        <time>2022-07-15T08:54:37.000Z</time>
      </trkpt>
      <trkpt lat="49.89337" lon="4.79179">
        <ele>337</ele>
        <time>2022-07-15T08:54:38.000Z</time>
      </trkpt>
      <trkpt lat="49.89341" lon="4.7918">
        <ele>337</ele>
        <time>2022-07-15T08:54:39.000Z</time>
      </trkpt>
      <trkpt lat="49.89344" lon="4.7918">
        <ele>337</ele>
        <time>2022-07-15T08:54:40.000Z</time>
      </trkpt>
      <trkpt lat="49.89346" lon="4.7918">
        <ele>337</ele>
        <time>2022-07-15T08:54:41.000Z</time>
      </trkpt>
      <trkpt lat="49.89348" lon="4.7918">
        <ele>337</ele>
        <time>2022-07-15T08:54:42.000Z</time>
      </trkpt>
      <trkpt lat="49.8935" lon="4.7918">
        <ele>337</ele>
        <time>2022-07-15T08:54:43.000Z</time>
      </trkpt>
      <trkpt lat="49.89352" lon="4.7918">
        <ele>337</ele>
        <time>2022-07-15T08:54:44.000Z</time>
      </trkpt>
      <trkpt lat="49.89354" lon="4.7918">
        <ele>337</ele>
        <time>2022-07-15T08:54:45.000Z</time>
      </trkpt>
      <trkpt lat="49.89354" lon="4.7918">
        <ele>337</ele>
        <time>2022-07-15T08:54:46.000Z</time>
      </trkpt>
      <trkpt lat="49.89354" lon="4.79179">
        <ele>336</ele>
        <time>2022-07-15T08:54:47.000Z</time>
      </trkpt>
      <trkpt lat="49.89354" lon="4.79179">
        <ele>336</ele>
        <time>2022-07-15T08:54:48.000Z</time>
      </trkpt>
      <trkpt lat="49.89354" lon="4.79179">
        <ele>336</ele>
        <time>2022-07-15T08:54:49.000Z</time>
      </trkpt>
      <trkpt lat="49.89353" lon="4.79178">
        <ele>336</ele>
        <time>2022-07-15T08:54:50.000Z</time>
      </trkpt>
      <trkpt lat="49.89352" lon="4.79179">
        <ele>336</ele>
        <time>2022-07-15T08:54:51.000Z</time>
      </trkpt>
      <trkpt lat="49.8935" lon="4.79179">
        <ele>335</ele>
        <time>2022-07-15T08:54:52.000Z</time>
      </trkpt>
      <trkpt lat="49.89349" lon="4.79179">
        <ele>335</ele>
        <time>2022-07-15T08:54:53.000Z</time>
      </trkpt>
      <trkpt lat="49.89348" lon="4.79179">
        <ele>335</ele>
        <time>2022-07-15T08:54:54.000Z</time>
      </trkpt>
      <trkpt lat="49.89348" lon="4.79179">
        <ele>335</ele>
        <time>2022-07-15T08:54:55.000Z</time>
      </trkpt>
      <trkpt lat="49.89348" lon="4.79179">
        <ele>334</ele>
        <time>2022-07-15T08:54:56.000Z</time>
      </trkpt>
      <trkpt lat="49.89348" lon="4.79179">
        <ele>334</ele>
        <time>2022-07-15T08:54:57.000Z</time>
      </trkpt>
      <trkpt lat="49.89348" lon="4.79178">
        <ele>334</ele>
        <time>2022-07-15T08:54:58.000Z</time>
      </trkpt>
      <trkpt lat="49.89349" lon="4.79177">
        <ele>334</ele>
        <time>2022-07-15T08:54:59.000Z</time>
      </trkpt>
      <trkpt lat="49.89349" lon="4.79177">
        <ele>334</ele>
        <time>2022-07-15T08:55:00.000Z</time>
      </trkpt>
      <trkpt lat="49.8935" lon="4.79177">
        <ele>334</ele>
        <time>2022-07-15T08:55:01.000Z</time>
      </trkpt>
      <trkpt lat="49.89351" lon="4.79177">
        <ele>334</ele>
        <time>2022-07-15T08:55:02.000Z</time>
      </trkpt>
      <trkpt lat="49.89352" lon="4.79177">
        <ele>334</ele>
        <time>2022-07-15T08:55:03.000Z</time>
      </trkpt>
      <trkpt lat="49.89354" lon="4.79177">
        <ele>334</ele>
        <time>2022-07-15T08:55:04.000Z</time>
      </trkpt>
      <trkpt lat="49.89356" lon="4.79177">
        <ele>334</ele>
        <time>2022-07-15T08:55:05.000Z</time>
      </trkpt>
      <trkpt lat="49.89359" lon="4.79178">
        <ele>333</ele>
        <time>2022-07-15T08:55:06.000Z</time>
      </trkpt>
      <trkpt lat="49.89362" lon="4.79177">
        <ele>333</ele>
        <time>2022-07-15T08:55:07.000Z</time>
      </trkpt>
      <trkpt lat="49.89365" lon="4.79177">
        <ele>333</ele>
        <time>2022-07-15T08:55:08.000Z</time>
      </trkpt>
      <trkpt lat="49.89367" lon="4.79176">
        <ele>333</ele>
        <time>2022-07-15T08:55:09.000Z</time>
      </trkpt>
      <trkpt lat="49.89369" lon="4.79176">
        <ele>333</ele>
        <time>2022-07-15T08:55:10.000Z</time>
      </trkpt>
      <trkpt lat="49.89371" lon="4.79177">
        <ele>333</ele>
        <time>2022-07-15T08:55:11.000Z</time>
      </trkpt>
      <trkpt lat="49.89373" lon="4.79178">
        <ele>333</ele>
        <time>2022-07-15T08:55:12.000Z</time>
      </trkpt>
      <trkpt lat="49.89374" lon="4.79178">
        <ele>333</ele>
        <time>2022-07-15T08:55:13.000Z</time>
      </trkpt>
      <trkpt lat="49.89374" lon="4.79178">
        <ele>333</ele>
        <time>2022-07-15T08:55:14.000Z</time>
      </trkpt>
      <trkpt lat="49.89375" lon="4.79178">
        <ele>333</ele>
        <time>2022-07-15T08:55:15.000Z</time>
      </trkpt>
      <trkpt lat="49.89375" lon="4.79178">
        <ele>333</ele>
        <time>2022-07-15T08:55:16.000Z</time>
      </trkpt>
      <trkpt lat="49.89376" lon="4.79178">
        <ele>333</ele>
        <time>2022-07-15T08:55:17.000Z</time>
      </trkpt>
      <trkpt lat="49.89377" lon="4.79179">
        <ele>333</ele>
        <time>2022-07-15T08:55:18.000Z</time>
      </trkpt>
      <trkpt lat="49.89379" lon="4.7918">
        <ele>333</ele>
        <time>2022-07-15T08:55:19.000Z</time>
      </trkpt>
      <trkpt lat="49.89379" lon="4.7918">
        <ele>333</ele>
        <time>2022-07-15T08:55:20.000Z</time>
      </trkpt>
      <trkpt lat="49.89379" lon="4.79181">
        <ele>333</ele>
        <time>2022-07-15T08:55:21.000Z</time>
      </trkpt>
      <trkpt lat="49.8938" lon="4.79181">
        <ele>333</ele>
        <time>2022-07-15T08:55:22.000Z</time>
      </trkpt>
      <trkpt lat="49.8938" lon="4.79181">
        <ele>333</ele>
        <time>2022-07-15T08:55:23.000Z</time>
      </trkpt>
      <trkpt lat="49.89381" lon="4.79182">
        <ele>333</ele>
        <time>2022-07-15T08:55:24.000Z</time>
      </trkpt>
      <trkpt lat="49.89382" lon="4.79183">
        <ele>333</ele>
        <time>2022-07-15T08:55:25.000Z</time>
      </trkpt>
      <trkpt lat="49.89383" lon="4.79183">
        <ele>334</ele>
        <time>2022-07-15T08:55:26.000Z</time>
      </trkpt>
      <trkpt lat="49.89384" lon="4.79184">
        <ele>334</ele>
        <time>2022-07-15T08:55:27.000Z</time>
      </trkpt>
      <trkpt lat="49.89385" lon="4.79185">
        <ele>334</ele>
        <time>2022-07-15T08:55:28.000Z</time>
      </trkpt>
      <trkpt lat="49.89386" lon="4.79185">
        <ele>334</ele>
        <time>2022-07-15T08:55:29.000Z</time>
      </trkpt>
      <trkpt lat="49.89386" lon="4.79186">
        <ele>334</ele>
        <time>2022-07-15T08:55:30.000Z</time>
      </trkpt>
      <trkpt lat="49.89386" lon="4.79186">
        <ele>334</ele>
        <time>2022-07-15T08:55:31.000Z</time>
      </trkpt>
      <trkpt lat="49.89386" lon="4.79186">
        <ele>334</ele>
        <time>2022-07-15T08:55:32.000Z</time>
      </trkpt>
      <trkpt lat="49.89387" lon="4.79186">
        <ele>334</ele>
        <time>2022-07-15T08:55:33.000Z</time>
      </trkpt>
      <trkpt lat="49.89387" lon="4.79187">
        <ele>335</ele>
        <time>2022-07-15T08:55:34.000Z</time>
      </trkpt>
      <trkpt lat="49.89388" lon="4.79187">
        <ele>335</ele>
        <time>2022-07-15T08:55:35.000Z</time>
      </trkpt>
      <trkpt lat="49.8939" lon="4.79188">
        <ele>335</ele>
        <time>2022-07-15T08:55:36.000Z</time>
      </trkpt>
      <trkpt lat="49.89391" lon="4.79189">
        <ele>335</ele>
        <time>2022-07-15T08:55:37.000Z</time>
      </trkpt>
      <trkpt lat="49.89392" lon="4.7919">
        <ele>335</ele>
        <time>2022-07-15T08:55:38.000Z</time>
      </trkpt>
      <trkpt lat="49.89394" lon="4.79191">
        <ele>335</ele>
        <time>2022-07-15T08:55:39.000Z</time>
      </trkpt>
      <trkpt lat="49.89395" lon="4.79192">
        <ele>335</ele>
        <time>2022-07-15T08:55:40.000Z</time>
      </trkpt>
      <trkpt lat="49.89398" lon="4.79194">
        <ele>335</ele>
        <time>2022-07-15T08:55:41.000Z</time>
      </trkpt>
      <trkpt lat="49.89399" lon="4.79195">
        <ele>336</ele>
        <time>2022-07-15T08:55:42.000Z</time>
      </trkpt>
      <trkpt lat="49.89401" lon="4.79196">
        <ele>336</ele>
        <time>2022-07-15T08:55:43.000Z</time>
      </trkpt>
      <trkpt lat="49.89402" lon="4.79197">
        <ele>336</ele>
        <time>2022-07-15T08:55:44.000Z</time>
      </trkpt>
      <trkpt lat="49.89403" lon="4.79199">
        <ele>336</ele>
        <time>2022-07-15T08:55:45.000Z</time>
      </trkpt>
      <trkpt lat="49.89405" lon="4.792">
        <ele>336</ele>
        <time>2022-07-15T08:55:46.000Z</time>
      </trkpt>
      <trkpt lat="49.89406" lon="4.79202">
        <ele>336</ele>
        <time>2022-07-15T08:55:47.000Z</time>
      </trkpt>
      <trkpt lat="49.89406" lon="4.79204">
        <ele>337</ele>
        <time>2022-07-15T08:55:48.000Z</time>
      </trkpt>
      <trkpt lat="49.89407" lon="4.79206">
        <ele>337</ele>
        <time>2022-07-15T08:55:49.000Z</time>
      </trkpt>
      <trkpt lat="49.89408" lon="4.79208">
        <ele>337</ele>
        <time>2022-07-15T08:55:50.000Z</time>
      </trkpt>
      <trkpt lat="49.89409" lon="4.79211">
        <ele>337</ele>
        <time>2022-07-15T08:55:51.000Z</time>
      </trkpt>
      <trkpt lat="49.89409" lon="4.79213">
        <ele>337</ele>
        <time>2022-07-15T08:55:52.000Z</time>
      </trkpt>
      <trkpt lat="49.89409" lon="4.79217">
        <ele>337</ele>
        <time>2022-07-15T08:55:53.000Z</time>
      </trkpt>
      <trkpt lat="49.8941" lon="4.79221">
        <ele>337</ele>
        <time>2022-07-15T08:55:54.000Z</time>
      </trkpt>
      <trkpt lat="49.89409" lon="4.79226">
        <ele>338</ele>
        <time>2022-07-15T08:55:55.000Z</time>
      </trkpt>
      <trkpt lat="49.89409" lon="4.7923">
        <ele>338</ele>
        <time>2022-07-15T08:55:56.000Z</time>
      </trkpt>
      <trkpt lat="49.89407" lon="4.79235">
        <ele>338</ele>
        <time>2022-07-15T08:55:57.000Z</time>
      </trkpt>
      <trkpt lat="49.89405" lon="4.7924">
        <ele>338</ele>
        <time>2022-07-15T08:55:58.000Z</time>
      </trkpt>
      <trkpt lat="49.89403" lon="4.79245">
        <ele>338</ele>
        <time>2022-07-15T08:55:59.000Z</time>
      </trkpt>
      <trkpt lat="49.89402" lon="4.79249">
        <ele>338</ele>
        <time>2022-07-15T08:56:00.000Z</time>
      </trkpt>
      <trkpt lat="49.894" lon="4.79255">
        <ele>338</ele>
        <time>2022-07-15T08:56:01.000Z</time>
      </trkpt>
      <trkpt lat="49.89399" lon="4.79262">
        <ele>338</ele>
        <time>2022-07-15T08:56:02.000Z</time>
      </trkpt>
      <trkpt lat="49.89398" lon="4.7927">
        <ele>338</ele>
        <time>2022-07-15T08:56:03.000Z</time>
      </trkpt>
      <trkpt lat="49.89396" lon="4.79278">
        <ele>338</ele>
        <time>2022-07-15T08:56:04.000Z</time>
      </trkpt>
      <trkpt lat="49.89395" lon="4.79285">
        <ele>337</ele>
        <time>2022-07-15T08:56:05.000Z</time>
      </trkpt>
      <trkpt lat="49.89393" lon="4.79293">
        <ele>337</ele>
        <time>2022-07-15T08:56:06.000Z</time>
      </trkpt>
      <trkpt lat="49.89391" lon="4.79301">
        <ele>337</ele>
        <time>2022-07-15T08:56:07.000Z</time>
      </trkpt>
      <trkpt lat="49.8939" lon="4.79309">
        <ele>337</ele>
        <time>2022-07-15T08:56:08.000Z</time>
      </trkpt>
      <trkpt lat="49.8939" lon="4.79317">
        <ele>337</ele>
        <time>2022-07-15T08:56:09.000Z</time>
      </trkpt>
      <trkpt lat="49.89389" lon="4.79325">
        <ele>337</ele>
        <time>2022-07-15T08:56:10.000Z</time>
      </trkpt>
      <trkpt lat="49.89388" lon="4.79333">
        <ele>337</ele>
        <time>2022-07-15T08:56:11.000Z</time>
      </trkpt>
      <trkpt lat="49.89387" lon="4.79342">
        <ele>337</ele>
        <time>2022-07-15T08:56:12.000Z</time>
      </trkpt>
      <trkpt lat="49.89386" lon="4.79352">
        <ele>337</ele>
        <time>2022-07-15T08:56:13.000Z</time>
      </trkpt>
      <trkpt lat="49.89384" lon="4.79361">
        <ele>336</ele>
        <time>2022-07-15T08:56:14.000Z</time>
      </trkpt>
      <trkpt lat="49.89384" lon="4.7937">
        <ele>336</ele>
        <time>2022-07-15T08:56:15.000Z</time>
      </trkpt>
      <trkpt lat="49.89383" lon="4.79377">
        <ele>336</ele>
        <time>2022-07-15T08:56:16.000Z</time>
      </trkpt>
      <trkpt lat="49.89381" lon="4.79385">
        <ele>336</ele>
        <time>2022-07-15T08:56:17.000Z</time>
      </trkpt>
      <trkpt lat="49.8938" lon="4.79393">
        <ele>336</ele>
        <time>2022-07-15T08:56:18.000Z</time>
      </trkpt>
      <trkpt lat="49.89379" lon="4.79401">
        <ele>336</ele>
        <time>2022-07-15T08:56:19.000Z</time>
      </trkpt>
      <trkpt lat="49.89378" lon="4.79409">
        <ele>335</ele>
        <time>2022-07-15T08:56:20.000Z</time>
      </trkpt>
      <trkpt lat="49.89377" lon="4.79416">
        <ele>335</ele>
        <time>2022-07-15T08:56:21.000Z</time>
      </trkpt>
      <trkpt lat="49.89376" lon="4.79422">
        <ele>335</ele>
        <time>2022-07-15T08:56:22.000Z</time>
      </trkpt>
      <trkpt lat="49.89376" lon="4.79427">
        <ele>335</ele>
        <time>2022-07-15T08:56:23.000Z</time>
      </trkpt>
      <trkpt lat="49.89374" lon="4.79433">
        <ele>334</ele>
        <time>2022-07-15T08:56:24.000Z</time>
      </trkpt>
      <trkpt lat="49.89373" lon="4.7944">
        <ele>334</ele>
        <time>2022-07-15T08:56:25.000Z</time>
      </trkpt>
      <trkpt lat="49.89372" lon="4.79447">
        <ele>334</ele>
        <time>2022-07-15T08:56:26.000Z</time>
      </trkpt>
      <trkpt lat="49.89371" lon="4.79453">
        <ele>334</ele>
        <time>2022-07-15T08:56:27.000Z</time>
      </trkpt>
      <trkpt lat="49.89371" lon="4.7946">
        <ele>333</ele>
        <time>2022-07-15T08:56:28.000Z</time>
      </trkpt>
      <trkpt lat="49.89371" lon="4.79467">
        <ele>333</ele>
        <time>2022-07-15T08:56:29.000Z</time>
      </trkpt>
      <trkpt lat="49.89371" lon="4.79474">
        <ele>333</ele>
        <time>2022-07-15T08:56:30.000Z</time>
      </trkpt>
      <trkpt lat="49.89372" lon="4.79479">
        <ele>332</ele>
        <time>2022-07-15T08:56:31.000Z</time>
      </trkpt>
      <trkpt lat="49.89373" lon="4.79484">
        <ele>332</ele>
        <time>2022-07-15T08:56:32.000Z</time>
      </trkpt>
      <trkpt lat="49.89373" lon="4.79489">
        <ele>332</ele>
        <time>2022-07-15T08:56:33.000Z</time>
      </trkpt>
      <trkpt lat="49.89374" lon="4.79493">
        <ele>332</ele>
        <time>2022-07-15T08:56:34.000Z</time>
      </trkpt>
      <trkpt lat="49.89375" lon="4.79497">
        <ele>331</ele>
        <time>2022-07-15T08:56:35.000Z</time>
      </trkpt>
      <trkpt lat="49.89376" lon="4.79502">
        <ele>331</ele>
        <time>2022-07-15T08:56:36.000Z</time>
      </trkpt>
      <trkpt lat="49.89377" lon="4.79507">
        <ele>331</ele>
        <time>2022-07-15T08:56:37.000Z</time>
      </trkpt>
      <trkpt lat="49.89378" lon="4.79512">
        <ele>330</ele>
        <time>2022-07-15T08:56:38.000Z</time>
      </trkpt>
      <trkpt lat="49.89379" lon="4.79517">
        <ele>330</ele>
        <time>2022-07-15T08:56:39.000Z</time>
      </trkpt>
      <trkpt lat="49.8938" lon="4.79523">
        <ele>330</ele>
        <time>2022-07-15T08:56:40.000Z</time>
      </trkpt>
      <trkpt lat="49.89381" lon="4.79529">
        <ele>329</ele>
        <time>2022-07-15T08:56:41.000Z</time>
      </trkpt>
      <trkpt lat="49.89383" lon="4.79535">
        <ele>329</ele>
        <time>2022-07-15T08:56:42.000Z</time>
      </trkpt>
      <trkpt lat="49.89384" lon="4.79542">
        <ele>329</ele>
        <time>2022-07-15T08:56:43.000Z</time>
      </trkpt>
      <trkpt lat="49.89386" lon="4.79548">
        <ele>328</ele>
        <time>2022-07-15T08:56:44.000Z</time>
      </trkpt>
      <trkpt lat="49.89388" lon="4.79554">
        <ele>328</ele>
        <time>2022-07-15T08:56:45.000Z</time>
      </trkpt>
      <trkpt lat="49.8939" lon="4.7956">
        <ele>327</ele>
        <time>2022-07-15T08:56:46.000Z</time>
      </trkpt>
      <trkpt lat="49.89392" lon="4.79565">
        <ele>327</ele>
        <time>2022-07-15T08:56:47.000Z</time>
      </trkpt>
      <trkpt lat="49.89393" lon="4.79571">
        <ele>326</ele>
        <time>2022-07-15T08:56:48.000Z</time>
      </trkpt>
      <trkpt lat="49.89394" lon="4.79576">
        <ele>325</ele>
        <time>2022-07-15T08:56:49.000Z</time>
      </trkpt>
      <trkpt lat="49.89395" lon="4.79582">
        <ele>325</ele>
        <time>2022-07-15T08:56:50.000Z</time>
      </trkpt>
      <trkpt lat="49.89395" lon="4.79588">
        <ele>324</ele>
        <time>2022-07-15T08:56:51.000Z</time>
      </trkpt>
      <trkpt lat="49.89396" lon="4.79594">
        <ele>324</ele>
        <time>2022-07-15T08:56:52.000Z</time>
      </trkpt>
      <trkpt lat="49.89396" lon="4.796">
        <ele>323</ele>
        <time>2022-07-15T08:56:53.000Z</time>
      </trkpt>
      <trkpt lat="49.89395" lon="4.79605">
        <ele>323</ele>
        <time>2022-07-15T08:56:54.000Z</time>
      </trkpt>
      <trkpt lat="49.89395" lon="4.79612">
        <ele>322</ele>
        <time>2022-07-15T08:56:55.000Z</time>
      </trkpt>
      <trkpt lat="49.89396" lon="4.79618">
        <ele>322</ele>
        <time>2022-07-15T08:56:56.000Z</time>
      </trkpt>
      <trkpt lat="49.89396" lon="4.79624">
        <ele>322</ele>
        <time>2022-07-15T08:56:57.000Z</time>
      </trkpt>
      <trkpt lat="49.89396" lon="4.7963">
        <ele>321</ele>
        <time>2022-07-15T08:56:58.000Z</time>
      </trkpt>
      <trkpt lat="49.89396" lon="4.79637">
        <ele>321</ele>
        <time>2022-07-15T08:56:59.000Z</time>
      </trkpt>
      <trkpt lat="49.89397" lon="4.79643">
        <ele>320</ele>
        <time>2022-07-15T08:57:00.000Z</time>
      </trkpt>
      <trkpt lat="49.89397" lon="4.79648">
        <ele>320</ele>
        <time>2022-07-15T08:57:01.000Z</time>
      </trkpt>
      <trkpt lat="49.89398" lon="4.79654">
        <ele>320</ele>
        <time>2022-07-15T08:57:02.000Z</time>
      </trkpt>
      <trkpt lat="49.89399" lon="4.79659">
        <ele>319</ele>
        <time>2022-07-15T08:57:03.000Z</time>
      </trkpt>
      <trkpt lat="49.89399" lon="4.79664">
        <ele>319</ele>
        <time>2022-07-15T08:57:04.000Z</time>
      </trkpt>
      <trkpt lat="49.89401" lon="4.79669">
        <ele>319</ele>
        <time>2022-07-15T08:57:05.000Z</time>
      </trkpt>
      <trkpt lat="49.89402" lon="4.79674">
        <ele>318</ele>
        <time>2022-07-15T08:57:06.000Z</time>
      </trkpt>
      <trkpt lat="49.89403" lon="4.79679">
        <ele>318</ele>
        <time>2022-07-15T08:57:07.000Z</time>
      </trkpt>
      <trkpt lat="49.89405" lon="4.79683">
        <ele>318</ele>
        <time>2022-07-15T08:57:08.000Z</time>
      </trkpt>
      <trkpt lat="49.89407" lon="4.79688">
        <ele>317</ele>
        <time>2022-07-15T08:57:09.000Z</time>
      </trkpt>
      <trkpt lat="49.89409" lon="4.79692">
        <ele>317</ele>
        <time>2022-07-15T08:57:10.000Z</time>
      </trkpt>
      <trkpt lat="49.89411" lon="4.79696">
        <ele>317</ele>
        <time>2022-07-15T08:57:11.000Z</time>
      </trkpt>
      <trkpt lat="49.89413" lon="4.79701">
        <ele>316</ele>
        <time>2022-07-15T08:57:12.000Z</time>
      </trkpt>
      <trkpt lat="49.89416" lon="4.79705">
        <ele>316</ele>
        <time>2022-07-15T08:57:13.000Z</time>
      </trkpt>
      <trkpt lat="49.89418" lon="4.7971">
        <ele>316</ele>
        <time>2022-07-15T08:57:14.000Z</time>
      </trkpt>
      <trkpt lat="49.8942" lon="4.79714">
        <ele>316</ele>
        <time>2022-07-15T08:57:15.000Z</time>
      </trkpt>
      <trkpt lat="49.89422" lon="4.79718">
        <ele>315</ele>
        <time>2022-07-15T08:57:16.000Z</time>
      </trkpt>
      <trkpt lat="49.89424" lon="4.79722">
        <ele>315</ele>
        <time>2022-07-15T08:57:17.000Z</time>
      </trkpt>
      <trkpt lat="49.89425" lon="4.79727">
        <ele>315</ele>
        <time>2022-07-15T08:57:18.000Z</time>
      </trkpt>
      <trkpt lat="49.89427" lon="4.79732">
        <ele>315</ele>
        <time>2022-07-15T08:57:19.000Z</time>
      </trkpt>
      <trkpt lat="49.89429" lon="4.79737">
        <ele>315</ele>
        <time>2022-07-15T08:57:20.000Z</time>
      </trkpt>
      <trkpt lat="49.89431" lon="4.79741">
        <ele>314</ele>
        <time>2022-07-15T08:57:21.000Z</time>
      </trkpt>
      <trkpt lat="49.89432" lon="4.79746">
        <ele>314</ele>
        <time>2022-07-15T08:57:22.000Z</time>
      </trkpt>
      <trkpt lat="49.89434" lon="4.79751">
        <ele>314</ele>
        <time>2022-07-15T08:57:23.000Z</time>
      </trkpt>
      <trkpt lat="49.89436" lon="4.79756">
        <ele>314</ele>
        <time>2022-07-15T08:57:24.000Z</time>
      </trkpt>
      <trkpt lat="49.89438" lon="4.79761">
        <ele>314</ele>
        <time>2022-07-15T08:57:25.000Z</time>
      </trkpt>
      <trkpt lat="49.89439" lon="4.79766">
        <ele>314</ele>
        <time>2022-07-15T08:57:26.000Z</time>
      </trkpt>
      <trkpt lat="49.89441" lon="4.79771">
        <ele>314</ele>
        <time>2022-07-15T08:57:27.000Z</time>
      </trkpt>
      <trkpt lat="49.89442" lon="4.79775">
        <ele>314</ele>
        <time>2022-07-15T08:57:28.000Z</time>
      </trkpt>
      <trkpt lat="49.89444" lon="4.7978">
        <ele>313</ele>
        <time>2022-07-15T08:57:29.000Z</time>
      </trkpt>
      <trkpt lat="49.89445" lon="4.79784">
        <ele>313</ele>
        <time>2022-07-15T08:57:30.000Z</time>
      </trkpt>
      <trkpt lat="49.89447" lon="4.79788">
        <ele>313</ele>
        <time>2022-07-15T08:57:31.000Z</time>
      </trkpt>
      <trkpt lat="49.89448" lon="4.79792">
        <ele>313</ele>
        <time>2022-07-15T08:57:32.000Z</time>
      </trkpt>
      <trkpt lat="49.8945" lon="4.79796">
        <ele>313</ele>
        <time>2022-07-15T08:57:33.000Z</time>
      </trkpt>
      <trkpt lat="49.89451" lon="4.79801">
        <ele>313</ele>
        <time>2022-07-15T08:57:34.000Z</time>
      </trkpt>
      <trkpt lat="49.89452" lon="4.79806">
        <ele>313</ele>
        <time>2022-07-15T08:57:35.000Z</time>
      </trkpt>
      <trkpt lat="49.89453" lon="4.79811">
        <ele>312</ele>
        <time>2022-07-15T08:57:36.000Z</time>
      </trkpt>
      <trkpt lat="49.89455" lon="4.79815">
        <ele>312</ele>
        <time>2022-07-15T08:57:37.000Z</time>
      </trkpt>
      <trkpt lat="49.89456" lon="4.7982">
        <ele>312</ele>
        <time>2022-07-15T08:57:38.000Z</time>
      </trkpt>
      <trkpt lat="49.89457" lon="4.79824">
        <ele>312</ele>
        <time>2022-07-15T08:57:39.000Z</time>
      </trkpt>
      <trkpt lat="49.89459" lon="4.79828">
        <ele>312</ele>
        <time>2022-07-15T08:57:40.000Z</time>
      </trkpt>
      <trkpt lat="49.8946" lon="4.79833">
        <ele>312</ele>
        <time>2022-07-15T08:57:41.000Z</time>
      </trkpt>
      <trkpt lat="49.89462" lon="4.79837">
        <ele>312</ele>
        <time>2022-07-15T08:57:42.000Z</time>
      </trkpt>
      <trkpt lat="49.89464" lon="4.79841">
        <ele>312</ele>
        <time>2022-07-15T08:57:43.000Z</time>
      </trkpt>
      <trkpt lat="49.89465" lon="4.79845">
        <ele>312</ele>
        <time>2022-07-15T08:57:44.000Z</time>
      </trkpt>
      <trkpt lat="49.89467" lon="4.7985">
        <ele>312</ele>
        <time>2022-07-15T08:57:45.000Z</time>
      </trkpt>
      <trkpt lat="49.89469" lon="4.79854">
        <ele>312</ele>
        <time>2022-07-15T08:57:46.000Z</time>
      </trkpt>
      <trkpt lat="49.89471" lon="4.79858">
        <ele>312</ele>
        <time>2022-07-15T08:57:47.000Z</time>
      </trkpt>
      <trkpt lat="49.89473" lon="4.79863">
        <ele>312</ele>
        <time>2022-07-15T08:57:48.000Z</time>
      </trkpt>
      <trkpt lat="49.89474" lon="4.79866">
        <ele>312</ele>
        <time>2022-07-15T08:57:49.000Z</time>
      </trkpt>
      <trkpt lat="49.89476" lon="4.79869">
        <ele>312</ele>
        <time>2022-07-15T08:57:50.000Z</time>
      </trkpt>
      <trkpt lat="49.89478" lon="4.79873">
        <ele>312</ele>
        <time>2022-07-15T08:57:51.000Z</time>
      </trkpt>
      <trkpt lat="49.8948" lon="4.79876">
        <ele>312</ele>
        <time>2022-07-15T08:57:52.000Z</time>
      </trkpt>
      <trkpt lat="49.89482" lon="4.79877">
        <ele>312</ele>
        <time>2022-07-15T08:57:53.000Z</time>
      </trkpt>
      <trkpt lat="49.89483" lon="4.7988">
        <ele>311</ele>
        <time>2022-07-15T08:57:54.000Z</time>
      </trkpt>
      <trkpt lat="49.89485" lon="4.79883">
        <ele>311</ele>
        <time>2022-07-15T08:57:55.000Z</time>
      </trkpt>
      <trkpt lat="49.89486" lon="4.79886">
        <ele>311</ele>
        <time>2022-07-15T08:57:56.000Z</time>
      </trkpt>
      <trkpt lat="49.89487" lon="4.79889">
        <ele>311</ele>
        <time>2022-07-15T08:57:57.000Z</time>
      </trkpt>
      <trkpt lat="49.89488" lon="4.79891">
        <ele>311</ele>
        <time>2022-07-15T08:57:58.000Z</time>
      </trkpt>
      <trkpt lat="49.89489" lon="4.79892">
        <ele>311</ele>
        <time>2022-07-15T08:57:59.000Z</time>
      </trkpt>
      <trkpt lat="49.8949" lon="4.79893">
        <ele>311</ele>
        <time>2022-07-15T08:58:00.000Z</time>
      </trkpt>
      <trkpt lat="49.89491" lon="4.79895">
        <ele>311</ele>
        <time>2022-07-15T08:58:01.000Z</time>
      </trkpt>
      <trkpt lat="49.89492" lon="4.79897">
        <ele>311</ele>
        <time>2022-07-15T08:58:02.000Z</time>
      </trkpt>
      <trkpt lat="49.89493" lon="4.79898">
        <ele>311</ele>
        <time>2022-07-15T08:58:03.000Z</time>
      </trkpt>
      <trkpt lat="49.89493" lon="4.79898">
        <ele>311</ele>
        <time>2022-07-15T08:58:04.000Z</time>
      </trkpt>
      <trkpt lat="49.89493" lon="4.79898">
        <ele>311</ele>
        <time>2022-07-15T08:58:05.000Z</time>
      </trkpt>
      <trkpt lat="49.89493" lon="4.79898">
        <ele>311</ele>
        <time>2022-07-15T08:58:06.000Z</time>
      </trkpt>
      <trkpt lat="49.89492" lon="4.79897">
        <ele>311</ele>
        <time>2022-07-15T08:58:07.000Z</time>
      </trkpt>
      <trkpt lat="49.89492" lon="4.79896">
        <ele>311</ele>
        <time>2022-07-15T08:58:08.000Z</time>
      </trkpt>
      <trkpt lat="49.89491" lon="4.79895">
        <ele>311</ele>
        <time>2022-07-15T08:58:09.000Z</time>
      </trkpt>
      <trkpt lat="49.89491" lon="4.79895">
        <ele>311</ele>
        <time>2022-07-15T08:58:10.000Z</time>
      </trkpt>
      <trkpt lat="49.8949" lon="4.79894">
        <ele>311</ele>
        <time>2022-07-15T08:58:11.000Z</time>
      </trkpt>
      <trkpt lat="49.89489" lon="4.79893">
        <ele>310</ele>
        <time>2022-07-15T08:58:12.000Z</time>
      </trkpt>
      <trkpt lat="49.89487" lon="4.79892">
        <ele>310</ele>
        <time>2022-07-15T08:58:13.000Z</time>
      </trkpt>
      <trkpt lat="49.89486" lon="4.7989">
        <ele>310</ele>
        <time>2022-07-15T08:58:14.000Z</time>
      </trkpt>
      <trkpt lat="49.89486" lon="4.79889">
        <ele>310</ele>
        <time>2022-07-15T08:58:15.000Z</time>
      </trkpt>
      <trkpt lat="49.89485" lon="4.79887">
        <ele>310</ele>
        <time>2022-07-15T08:58:16.000Z</time>
      </trkpt>
      <trkpt lat="49.89484" lon="4.79884">
        <ele>310</ele>
        <time>2022-07-15T08:58:17.000Z</time>
      </trkpt>
      <trkpt lat="49.89483" lon="4.79881">
        <ele>310</ele>
        <time>2022-07-15T08:58:18.000Z</time>
      </trkpt>
      <trkpt lat="49.89481" lon="4.79879">
        <ele>309</ele>
        <time>2022-07-15T08:58:19.000Z</time>
      </trkpt>
      <trkpt lat="49.89479" lon="4.79876">
        <ele>309</ele>
        <time>2022-07-15T08:58:20.000Z</time>
      </trkpt>
      <trkpt lat="49.89477" lon="4.79873">
        <ele>309</ele>
        <time>2022-07-15T08:58:21.000Z</time>
      </trkpt>
      <trkpt lat="49.89476" lon="4.79871">
        <ele>309</ele>
        <time>2022-07-15T08:58:22.000Z</time>
      </trkpt>
      <trkpt lat="49.89474" lon="4.79868">
        <ele>309</ele>
        <time>2022-07-15T08:58:23.000Z</time>
      </trkpt>
      <trkpt lat="49.89473" lon="4.79866">
        <ele>309</ele>
        <time>2022-07-15T08:58:24.000Z</time>
      </trkpt>
      <trkpt lat="49.89472" lon="4.79864">
        <ele>309</ele>
        <time>2022-07-15T08:58:25.000Z</time>
      </trkpt>
      <trkpt lat="49.89471" lon="4.79861">
        <ele>309</ele>
        <time>2022-07-15T08:58:26.000Z</time>
      </trkpt>
      <trkpt lat="49.89469" lon="4.79857">
        <ele>309</ele>
        <time>2022-07-15T08:58:27.000Z</time>
      </trkpt>
      <trkpt lat="49.89468" lon="4.79854">
        <ele>309</ele>
        <time>2022-07-15T08:58:28.000Z</time>
      </trkpt>
      <trkpt lat="49.89466" lon="4.7985">
        <ele>309</ele>
        <time>2022-07-15T08:58:29.000Z</time>
      </trkpt>
      <trkpt lat="49.89465" lon="4.79847">
        <ele>309</ele>
        <time>2022-07-15T08:58:30.000Z</time>
      </trkpt>
      <trkpt lat="49.89464" lon="4.79844">
        <ele>309</ele>
        <time>2022-07-15T08:58:31.000Z</time>
      </trkpt>
      <trkpt lat="49.89462" lon="4.7984">
        <ele>309</ele>
        <time>2022-07-15T08:58:32.000Z</time>
      </trkpt>
      <trkpt lat="49.89461" lon="4.79836">
        <ele>309</ele>
        <time>2022-07-15T08:58:33.000Z</time>
      </trkpt>
      <trkpt lat="49.89459" lon="4.79831">
        <ele>309</ele>
        <time>2022-07-15T08:58:34.000Z</time>
      </trkpt>
      <trkpt lat="49.89458" lon="4.79828">
        <ele>309</ele>
        <time>2022-07-15T08:58:35.000Z</time>
      </trkpt>
      <trkpt lat="49.89457" lon="4.79823">
        <ele>309</ele>
        <time>2022-07-15T08:58:36.000Z</time>
      </trkpt>
      <trkpt lat="49.89455" lon="4.79818">
        <ele>309</ele>
        <time>2022-07-15T08:58:37.000Z</time>
      </trkpt>
      <trkpt lat="49.89454" lon="4.79813">
        <ele>309</ele>
        <time>2022-07-15T08:58:38.000Z</time>
      </trkpt>
      <trkpt lat="49.89453" lon="4.79808">
        <ele>309</ele>
        <time>2022-07-15T08:58:39.000Z</time>
      </trkpt>
      <trkpt lat="49.89452" lon="4.79804">
        <ele>309</ele>
        <time>2022-07-15T08:58:40.000Z</time>
      </trkpt>
      <trkpt lat="49.8945" lon="4.79799">
        <ele>309</ele>
        <time>2022-07-15T08:58:41.000Z</time>
      </trkpt>
      <trkpt lat="49.89448" lon="4.79795">
        <ele>309</ele>
        <time>2022-07-15T08:58:42.000Z</time>
      </trkpt>
      <trkpt lat="49.89447" lon="4.79792">
        <ele>309</ele>
        <time>2022-07-15T08:58:43.000Z</time>
      </trkpt>
      <trkpt lat="49.89445" lon="4.79789">
        <ele>309</ele>
        <time>2022-07-15T08:58:44.000Z</time>
      </trkpt>
      <trkpt lat="49.89443" lon="4.79785">
        <ele>309</ele>
        <time>2022-07-15T08:58:45.000Z</time>
      </trkpt>
      <trkpt lat="49.89442" lon="4.79781">
        <ele>309</ele>
        <time>2022-07-15T08:58:46.000Z</time>
      </trkpt>
      <trkpt lat="49.8944" lon="4.79776">
        <ele>309</ele>
        <time>2022-07-15T08:58:47.000Z</time>
      </trkpt>
      <trkpt lat="49.89439" lon="4.79772">
        <ele>309</ele>
        <time>2022-07-15T08:58:48.000Z</time>
      </trkpt>
      <trkpt lat="49.89437" lon="4.79767">
        <ele>309</ele>
        <time>2022-07-15T08:58:49.000Z</time>
      </trkpt>
      <trkpt lat="49.89436" lon="4.79762">
        <ele>309</ele>
        <time>2022-07-15T08:58:50.000Z</time>
      </trkpt>
      <trkpt lat="49.89434" lon="4.79757">
        <ele>309</ele>
        <time>2022-07-15T08:58:51.000Z</time>
      </trkpt>
      <trkpt lat="49.89432" lon="4.79752">
        <ele>310</ele>
        <time>2022-07-15T08:58:52.000Z</time>
      </trkpt>
      <trkpt lat="49.8943" lon="4.79747">
        <ele>310</ele>
        <time>2022-07-15T08:58:53.000Z</time>
      </trkpt>
      <trkpt lat="49.89428" lon="4.79742">
        <ele>310</ele>
        <time>2022-07-15T08:58:54.000Z</time>
      </trkpt>
      <trkpt lat="49.89427" lon="4.79737">
        <ele>310</ele>
        <time>2022-07-15T08:58:55.000Z</time>
      </trkpt>
      <trkpt lat="49.89425" lon="4.79732">
        <ele>310</ele>
        <time>2022-07-15T08:58:56.000Z</time>
      </trkpt>
      <trkpt lat="49.89424" lon="4.79727">
        <ele>310</ele>
        <time>2022-07-15T08:58:57.000Z</time>
      </trkpt>
      <trkpt lat="49.89422" lon="4.79723">
        <ele>310</ele>
        <time>2022-07-15T08:58:58.000Z</time>
      </trkpt>
      <trkpt lat="49.8942" lon="4.79719">
        <ele>310</ele>
        <time>2022-07-15T08:58:59.000Z</time>
      </trkpt>
      <trkpt lat="49.89419" lon="4.79715">
        <ele>310</ele>
        <time>2022-07-15T08:59:00.000Z</time>
      </trkpt>
      <trkpt lat="49.89417" lon="4.79711">
        <ele>310</ele>
        <time>2022-07-15T08:59:01.000Z</time>
      </trkpt>
      <trkpt lat="49.89415" lon="4.79707">
        <ele>310</ele>
        <time>2022-07-15T08:59:02.000Z</time>
      </trkpt>
      <trkpt lat="49.89413" lon="4.79703">
        <ele>310</ele>
        <time>2022-07-15T08:59:03.000Z</time>
      </trkpt>
      <trkpt lat="49.89411" lon="4.79698">
        <ele>310</ele>
        <time>2022-07-15T08:59:04.000Z</time>
      </trkpt>
      <trkpt lat="49.89409" lon="4.79694">
        <ele>310</ele>
        <time>2022-07-15T08:59:05.000Z</time>
      </trkpt>
      <trkpt lat="49.89407" lon="4.7969">
        <ele>310</ele>
        <time>2022-07-15T08:59:06.000Z</time>
      </trkpt>
      <trkpt lat="49.89406" lon="4.79686">
        <ele>310</ele>
        <time>2022-07-15T08:59:07.000Z</time>
      </trkpt>
      <trkpt lat="49.89404" lon="4.79682">
        <ele>310</ele>
        <time>2022-07-15T08:59:08.000Z</time>
      </trkpt>
      <trkpt lat="49.89402" lon="4.79678">
        <ele>310</ele>
        <time>2022-07-15T08:59:09.000Z</time>
      </trkpt>
      <trkpt lat="49.89401" lon="4.79674">
        <ele>310</ele>
        <time>2022-07-15T08:59:10.000Z</time>
      </trkpt>
      <trkpt lat="49.894" lon="4.79669">
        <ele>310</ele>
        <time>2022-07-15T08:59:11.000Z</time>
      </trkpt>
      <trkpt lat="49.89399" lon="4.79664">
        <ele>310</ele>
        <time>2022-07-15T08:59:12.000Z</time>
      </trkpt>
      <trkpt lat="49.89398" lon="4.79659">
        <ele>310</ele>
        <time>2022-07-15T08:59:13.000Z</time>
      </trkpt>
      <trkpt lat="49.89397" lon="4.79655">
        <ele>310</ele>
        <time>2022-07-15T08:59:14.000Z</time>
      </trkpt>
      <trkpt lat="49.89396" lon="4.7965">
        <ele>310</ele>
        <time>2022-07-15T08:59:15.000Z</time>
      </trkpt>
      <trkpt lat="49.89396" lon="4.79646">
        <ele>310</ele>
        <time>2022-07-15T08:59:16.000Z</time>
      </trkpt>
      <trkpt lat="49.89396" lon="4.79641">
        <ele>310</ele>
        <time>2022-07-15T08:59:17.000Z</time>
      </trkpt>
      <trkpt lat="49.89396" lon="4.79637">
        <ele>310</ele>
        <time>2022-07-15T08:59:18.000Z</time>
      </trkpt>
      <trkpt lat="49.89396" lon="4.79632">
        <ele>310</ele>
        <time>2022-07-15T08:59:19.000Z</time>
      </trkpt>
      <trkpt lat="49.89396" lon="4.79627">
        <ele>310</ele>
        <time>2022-07-15T08:59:20.000Z</time>
      </trkpt>
      <trkpt lat="49.89395" lon="4.79622">
        <ele>311</ele>
        <time>2022-07-15T08:59:21.000Z</time>
      </trkpt>
      <trkpt lat="49.89395" lon="4.79617">
        <ele>311</ele>
        <time>2022-07-15T08:59:22.000Z</time>
      </trkpt>
      <trkpt lat="49.89395" lon="4.79611">
        <ele>311</ele>
        <time>2022-07-15T08:59:23.000Z</time>
      </trkpt>
      <trkpt lat="49.89395" lon="4.79606">
        <ele>311</ele>
        <time>2022-07-15T08:59:24.000Z</time>
      </trkpt>
      <trkpt lat="49.89395" lon="4.796">
        <ele>311</ele>
        <time>2022-07-15T08:59:25.000Z</time>
      </trkpt>
      <trkpt lat="49.89395" lon="4.79595">
        <ele>311</ele>
        <time>2022-07-15T08:59:26.000Z</time>
      </trkpt>
      <trkpt lat="49.89394" lon="4.79588">
        <ele>311</ele>
        <time>2022-07-15T08:59:27.000Z</time>
      </trkpt>
      <trkpt lat="49.89394" lon="4.79582">
        <ele>311</ele>
        <time>2022-07-15T08:59:28.000Z</time>
      </trkpt>
      <trkpt lat="49.89393" lon="4.79576">
        <ele>312</ele>
        <time>2022-07-15T08:59:29.000Z</time>
      </trkpt>
      <trkpt lat="49.89392" lon="4.79571">
        <ele>312</ele>
        <time>2022-07-15T08:59:30.000Z</time>
      </trkpt>
      <trkpt lat="49.8939" lon="4.79565">
        <ele>312</ele>
        <time>2022-07-15T08:59:31.000Z</time>
      </trkpt>
      <trkpt lat="49.8939" lon="4.79564">
        <ele>312</ele>
        <time>2022-07-15T08:59:32.000Z</time>
      </trkpt>
      <trkpt lat="49.89389" lon="4.79562">
        <ele>312</ele>
        <time>2022-07-15T08:59:33.000Z</time>
      </trkpt>
      <trkpt lat="49.89388" lon="4.79556">
        <ele>312</ele>
        <time>2022-07-15T08:59:34.000Z</time>
      </trkpt>
      <trkpt lat="49.89386" lon="4.79551">
        <ele>312</ele>
        <time>2022-07-15T08:59:35.000Z</time>
      </trkpt>
      <trkpt lat="49.89385" lon="4.79545">
        <ele>312</ele>
        <time>2022-07-15T08:59:36.000Z</time>
      </trkpt>
      <trkpt lat="49.89384" lon="4.7954">
        <ele>312</ele>
        <time>2022-07-15T08:59:37.000Z</time>
      </trkpt>
      <trkpt lat="49.89383" lon="4.79534">
        <ele>312</ele>
        <time>2022-07-15T08:59:38.000Z</time>
      </trkpt>
      <trkpt lat="49.89382" lon="4.79528">
        <ele>312</ele>
        <time>2022-07-15T08:59:39.000Z</time>
      </trkpt>
      <trkpt lat="49.89381" lon="4.79523">
        <ele>312</ele>
        <time>2022-07-15T08:59:40.000Z</time>
      </trkpt>
      <trkpt lat="49.89379" lon="4.79516">
        <ele>312</ele>
        <time>2022-07-15T08:59:41.000Z</time>
      </trkpt>
      <trkpt lat="49.89378" lon="4.7951">
        <ele>312</ele>
        <time>2022-07-15T08:59:42.000Z</time>
      </trkpt>
      <trkpt lat="49.89376" lon="4.79504">
        <ele>312</ele>
        <time>2022-07-15T08:59:43.000Z</time>
      </trkpt>
      <trkpt lat="49.89375" lon="4.79498">
        <ele>313</ele>
        <time>2022-07-15T08:59:44.000Z</time>
      </trkpt>
      <trkpt lat="49.89373" lon="4.79491">
        <ele>313</ele>
        <time>2022-07-15T08:59:45.000Z</time>
      </trkpt>
      <trkpt lat="49.89372" lon="4.79486">
        <ele>313</ele>
        <time>2022-07-15T08:59:46.000Z</time>
      </trkpt>
      <trkpt lat="49.89371" lon="4.79483">
        <ele>313</ele>
        <time>2022-07-15T08:59:47.000Z</time>
      </trkpt>
      <trkpt lat="49.8937" lon="4.79483">
        <ele>313</ele>
        <time>2022-07-15T08:59:48.000Z</time>
      </trkpt>
      <trkpt lat="49.89369" lon="4.79485">
        <ele>313</ele>
        <time>2022-07-15T08:59:49.000Z</time>
      </trkpt>
      <trkpt lat="49.89368" lon="4.7949">
        <ele>313</ele>
        <time>2022-07-15T08:59:50.000Z</time>
      </trkpt>
      <trkpt lat="49.89366" lon="4.79496">
        <ele>313</ele>
        <time>2022-07-15T08:59:51.000Z</time>
      </trkpt>
      <trkpt lat="49.89364" lon="4.79503">
        <ele>313</ele>
        <time>2022-07-15T08:59:52.000Z</time>
      </trkpt>
      <trkpt lat="49.89361" lon="4.79512">
        <ele>313</ele>
        <time>2022-07-15T08:59:53.000Z</time>
      </trkpt>
      <trkpt lat="49.89358" lon="4.79521">
        <ele>313</ele>
        <time>2022-07-15T08:59:54.000Z</time>
      </trkpt>
      <trkpt lat="49.89355" lon="4.79531">
        <ele>313</ele>
        <time>2022-07-15T08:59:55.000Z</time>
      </trkpt>
      <trkpt lat="49.89351" lon="4.7954">
        <ele>313</ele>
        <time>2022-07-15T08:59:56.000Z</time>
      </trkpt>
      <trkpt lat="49.89348" lon="4.79549">
        <ele>312</ele>
        <time>2022-07-15T08:59:57.000Z</time>
      </trkpt>
      <trkpt lat="49.89344" lon="4.79558">
        <ele>312</ele>
        <time>2022-07-15T08:59:58.000Z</time>
      </trkpt>
      <trkpt lat="49.89341" lon="4.79566">
        <ele>312</ele>
        <time>2022-07-15T08:59:59.000Z</time>
      </trkpt>
      <trkpt lat="49.89338" lon="4.79573">
        <ele>312</ele>
        <time>2022-07-15T09:00:00.000Z</time>
      </trkpt>
      <trkpt lat="49.89336" lon="4.79577">
        <ele>312</ele>
        <time>2022-07-15T09:00:01.000Z</time>
      </trkpt>
      <trkpt lat="49.89335" lon="4.7958">
        <ele>312</ele>
        <time>2022-07-15T09:00:02.000Z</time>
      </trkpt>
      <trkpt lat="49.89335" lon="4.79582">
        <ele>311</ele>
        <time>2022-07-15T09:00:03.000Z</time>
      </trkpt>
      <trkpt lat="49.89334" lon="4.79584">
        <ele>311</ele>
        <time>2022-07-15T09:00:04.000Z</time>
      </trkpt>
      <trkpt lat="49.89334" lon="4.79586">
        <ele>311</ele>
        <time>2022-07-15T09:00:05.000Z</time>
      </trkpt>
      <trkpt lat="49.89332" lon="4.79588">
        <ele>311</ele>
        <time>2022-07-15T09:00:06.000Z</time>
      </trkpt>
      <trkpt lat="49.89331" lon="4.79591">
        <ele>311</ele>
        <time>2022-07-15T09:00:07.000Z</time>
      </trkpt>
      <trkpt lat="49.89329" lon="4.79595">
        <ele>311</ele>
        <time>2022-07-15T09:00:08.000Z</time>
      </trkpt>
      <trkpt lat="49.89327" lon="4.796">
        <ele>311</ele>
        <time>2022-07-15T09:00:09.000Z</time>
      </trkpt>
      <trkpt lat="49.89325" lon="4.79605">
        <ele>310</ele>
        <time>2022-07-15T09:00:10.000Z</time>
      </trkpt>
      <trkpt lat="49.89322" lon="4.7961">
        <ele>310</ele>
        <time>2022-07-15T09:00:11.000Z</time>
      </trkpt>
      <trkpt lat="49.89319" lon="4.79615">
        <ele>310</ele>
        <time>2022-07-15T09:00:12.000Z</time>
      </trkpt>
      <trkpt lat="49.89316" lon="4.79621">
        <ele>310</ele>
        <time>2022-07-15T09:00:13.000Z</time>
      </trkpt>
      <trkpt lat="49.89313" lon="4.79628">
        <ele>310</ele>
        <time>2022-07-15T09:00:14.000Z</time>
      </trkpt>
      <trkpt lat="49.89309" lon="4.79636">
        <ele>310</ele>
        <time>2022-07-15T09:00:15.000Z</time>
      </trkpt>
      <trkpt lat="49.89305" lon="4.79645">
        <ele>309</ele>
        <time>2022-07-15T09:00:16.000Z</time>
      </trkpt>
      <trkpt lat="49.89301" lon="4.79653">
        <ele>309</ele>
        <time>2022-07-15T09:00:17.000Z</time>
      </trkpt>
      <trkpt lat="49.89297" lon="4.7966">
        <ele>309</ele>
        <time>2022-07-15T09:00:18.000Z</time>
      </trkpt>
      <trkpt lat="49.89293" lon="4.79668">
        <ele>309</ele>
        <time>2022-07-15T09:00:19.000Z</time>
      </trkpt>
      <trkpt lat="49.89288" lon="4.79675">
        <ele>308</ele>
        <time>2022-07-15T09:00:20.000Z</time>
      </trkpt>
      <trkpt lat="49.89283" lon="4.79683">
        <ele>308</ele>
        <time>2022-07-15T09:00:21.000Z</time>
      </trkpt>
      <trkpt lat="49.89277" lon="4.79691">
        <ele>307</ele>
        <time>2022-07-15T09:00:22.000Z</time>
      </trkpt>
      <trkpt lat="49.8927" lon="4.79698">
        <ele>307</ele>
        <time>2022-07-15T09:00:23.000Z</time>
      </trkpt>
      <trkpt lat="49.89265" lon="4.79705">
        <ele>307</ele>
        <time>2022-07-15T09:00:24.000Z</time>
      </trkpt>
      <trkpt lat="49.89259" lon="4.7971">
        <ele>306</ele>
        <time>2022-07-15T09:00:25.000Z</time>
      </trkpt>
      <trkpt lat="49.89255" lon="4.79715">
        <ele>306</ele>
        <time>2022-07-15T09:00:26.000Z</time>
      </trkpt>
      <trkpt lat="49.89251" lon="4.7972">
        <ele>305</ele>
        <time>2022-07-15T09:00:27.000Z</time>
      </trkpt>
      <trkpt lat="49.89248" lon="4.79727">
        <ele>305</ele>
        <time>2022-07-15T09:00:28.000Z</time>
      </trkpt>
      <trkpt lat="49.89245" lon="4.79734">
        <ele>304</ele>
        <time>2022-07-15T09:00:29.000Z</time>
      </trkpt>
      <trkpt lat="49.89242" lon="4.79743">
        <ele>304</ele>
        <time>2022-07-15T09:00:30.000Z</time>
      </trkpt>
      <trkpt lat="49.89241" lon="4.79752">
        <ele>303</ele>
        <time>2022-07-15T09:00:31.000Z</time>
      </trkpt>
      <trkpt lat="49.8924" lon="4.79761">
        <ele>302</ele>
        <time>2022-07-15T09:00:32.000Z</time>
      </trkpt>
      <trkpt lat="49.8924" lon="4.79769">
        <ele>302</ele>
        <time>2022-07-15T09:00:33.000Z</time>
      </trkpt>
      <trkpt lat="49.8924" lon="4.79776">
        <ele>301</ele>
        <time>2022-07-15T09:00:34.000Z</time>
      </trkpt>
      <trkpt lat="49.89242" lon="4.79784">
        <ele>300</ele>
        <time>2022-07-15T09:00:35.000Z</time>
      </trkpt>
      <trkpt lat="49.89245" lon="4.79793">
        <ele>299</ele>
        <time>2022-07-15T09:00:36.000Z</time>
      </trkpt>
      <trkpt lat="49.89248" lon="4.79802">
        <ele>299</ele>
        <time>2022-07-15T09:00:37.000Z</time>
      </trkpt>
      <trkpt lat="49.89252" lon="4.79812">
        <ele>298</ele>
        <time>2022-07-15T09:00:38.000Z</time>
      </trkpt>
      <trkpt lat="49.89256" lon="4.79823">
        <ele>297</ele>
        <time>2022-07-15T09:00:39.000Z</time>
      </trkpt>
      <trkpt lat="49.89259" lon="4.79834">
        <ele>296</ele>
        <time>2022-07-15T09:00:40.000Z</time>
      </trkpt>
      <trkpt lat="49.89262" lon="4.79845">
        <ele>295</ele>
        <time>2022-07-15T09:00:41.000Z</time>
      </trkpt>
      <trkpt lat="49.89265" lon="4.79854">
        <ele>295</ele>
        <time>2022-07-15T09:00:42.000Z</time>
      </trkpt>
      <trkpt lat="49.89267" lon="4.79864">
        <ele>294</ele>
        <time>2022-07-15T09:00:43.000Z</time>
      </trkpt>
      <trkpt lat="49.89269" lon="4.79872">
        <ele>293</ele>
        <time>2022-07-15T09:00:44.000Z</time>
      </trkpt>
      <trkpt lat="49.89271" lon="4.79881">
        <ele>293</ele>
        <time>2022-07-15T09:00:45.000Z</time>
      </trkpt>
      <trkpt lat="49.89272" lon="4.79889">
        <ele>292</ele>
        <time>2022-07-15T09:00:46.000Z</time>
      </trkpt>
      <trkpt lat="49.89274" lon="4.79897">
        <ele>291</ele>
        <time>2022-07-15T09:00:47.000Z</time>
      </trkpt>
      <trkpt lat="49.89276" lon="4.79905">
        <ele>290</ele>
        <time>2022-07-15T09:00:48.000Z</time>
      </trkpt>
      <trkpt lat="49.89277" lon="4.79913">
        <ele>290</ele>
        <time>2022-07-15T09:00:49.000Z</time>
      </trkpt>
      <trkpt lat="49.89278" lon="4.79921">
        <ele>289</ele>
        <time>2022-07-15T09:00:50.000Z</time>
      </trkpt>
      <trkpt lat="49.89279" lon="4.79927">
        <ele>289</ele>
        <time>2022-07-15T09:00:51.000Z</time>
      </trkpt>
      <trkpt lat="49.8928" lon="4.79934">
        <ele>288</ele>
        <time>2022-07-15T09:00:52.000Z</time>
      </trkpt>
      <trkpt lat="49.89282" lon="4.79941">
        <ele>288</ele>
        <time>2022-07-15T09:00:53.000Z</time>
      </trkpt>
      <trkpt lat="49.89284" lon="4.79949">
        <ele>288</ele>
        <time>2022-07-15T09:00:54.000Z</time>
      </trkpt>
      <trkpt lat="49.89286" lon="4.79957">
        <ele>287</ele>
        <time>2022-07-15T09:00:55.000Z</time>
      </trkpt>
      <trkpt lat="49.89289" lon="4.79965">
        <ele>287</ele>
        <time>2022-07-15T09:00:56.000Z</time>
      </trkpt>
      <trkpt lat="49.89292" lon="4.79972">
        <ele>286</ele>
        <time>2022-07-15T09:00:57.000Z</time>
      </trkpt>
      <trkpt lat="49.89294" lon="4.79978">
        <ele>286</ele>
        <time>2022-07-15T09:00:58.000Z</time>
      </trkpt>
      <trkpt lat="49.89295" lon="4.79982">
        <ele>286</ele>
        <time>2022-07-15T09:00:59.000Z</time>
      </trkpt>
      <trkpt lat="49.89296" lon="4.79987">
        <ele>285</ele>
        <time>2022-07-15T09:01:00.000Z</time>
      </trkpt>
      <trkpt lat="49.89296" lon="4.7999">
        <ele>285</ele>
        <time>2022-07-15T09:01:01.000Z</time>
      </trkpt>
      <trkpt lat="49.89294" lon="4.79993">
        <ele>284</ele>
        <time>2022-07-15T09:01:02.000Z</time>
      </trkpt>
      <trkpt lat="49.89291" lon="4.79994">
        <ele>284</ele>
        <time>2022-07-15T09:01:03.000Z</time>
      </trkpt>
      <trkpt lat="49.89287" lon="4.79994">
        <ele>284</ele>
        <time>2022-07-15T09:01:04.000Z</time>
      </trkpt>
      <trkpt lat="49.89284" lon="4.79992">
        <ele>283</ele>
        <time>2022-07-15T09:01:05.000Z</time>
      </trkpt>
      <trkpt lat="49.8928" lon="4.7999">
        <ele>283</ele>
        <time>2022-07-15T09:01:06.000Z</time>
      </trkpt>
      <trkpt lat="49.89276" lon="4.79987">
        <ele>282</ele>
        <time>2022-07-15T09:01:07.000Z</time>
      </trkpt>
      <trkpt lat="49.89273" lon="4.79984">
        <ele>282</ele>
        <time>2022-07-15T09:01:08.000Z</time>
      </trkpt>
      <trkpt lat="49.89271" lon="4.79982">
        <ele>282</ele>
        <time>2022-07-15T09:01:09.000Z</time>
      </trkpt>
      <trkpt lat="49.89269" lon="4.79979">
        <ele>281</ele>
        <time>2022-07-15T09:01:10.000Z</time>
      </trkpt>
      <trkpt lat="49.89267" lon="4.79976">
        <ele>281</ele>
        <time>2022-07-15T09:01:11.000Z</time>
      </trkpt>
      <trkpt lat="49.89265" lon="4.79973">
        <ele>281</ele>
        <time>2022-07-15T09:01:12.000Z</time>
      </trkpt>
      <trkpt lat="49.89263" lon="4.79971">
        <ele>280</ele>
        <time>2022-07-15T09:01:13.000Z</time>
      </trkpt>
      <trkpt lat="49.89261" lon="4.79967">
        <ele>280</ele>
        <time>2022-07-15T09:01:14.000Z</time>
      </trkpt>
      <trkpt lat="49.89257" lon="4.79965">
        <ele>280</ele>
        <time>2022-07-15T09:01:15.000Z</time>
      </trkpt>
      <trkpt lat="49.89254" lon="4.79961">
        <ele>279</ele>
        <time>2022-07-15T09:01:16.000Z</time>
      </trkpt>
      <trkpt lat="49.8925" lon="4.79957">
        <ele>279</ele>
        <time>2022-07-15T09:01:17.000Z</time>
      </trkpt>
      <trkpt lat="49.89246" lon="4.79954">
        <ele>279</ele>
        <time>2022-07-15T09:01:18.000Z</time>
      </trkpt>
      <trkpt lat="49.89242" lon="4.79951">
        <ele>278</ele>
        <time>2022-07-15T09:01:19.000Z</time>
      </trkpt>
      <trkpt lat="49.89237" lon="4.79949">
        <ele>278</ele>
        <time>2022-07-15T09:01:20.000Z</time>
      </trkpt>
      <trkpt lat="49.89233" lon="4.79945">
        <ele>277</ele>
        <time>2022-07-15T09:01:21.000Z</time>
      </trkpt>
      <trkpt lat="49.89228" lon="4.79941">
        <ele>277</ele>
        <time>2022-07-15T09:01:22.000Z</time>
      </trkpt>
      <trkpt lat="49.89223" lon="4.79936">
        <ele>277</ele>
        <time>2022-07-15T09:01:23.000Z</time>
      </trkpt>
      <trkpt lat="49.89218" lon="4.79931">
        <ele>277</ele>
        <time>2022-07-15T09:01:24.000Z</time>
      </trkpt>
      <trkpt lat="49.89213" lon="4.79927">
        <ele>276</ele>
        <time>2022-07-15T09:01:25.000Z</time>
      </trkpt>
      <trkpt lat="49.89208" lon="4.79922">
        <ele>276</ele>
        <time>2022-07-15T09:01:26.000Z</time>
      </trkpt>
      <trkpt lat="49.89204" lon="4.79919">
        <ele>276</ele>
        <time>2022-07-15T09:01:27.000Z</time>
      </trkpt>
      <trkpt lat="49.892" lon="4.79917">
        <ele>275</ele>
        <time>2022-07-15T09:01:28.000Z</time>
      </trkpt>
      <trkpt lat="49.89197" lon="4.79918">
        <ele>275</ele>
        <time>2022-07-15T09:01:29.000Z</time>
      </trkpt>
      <trkpt lat="49.89195" lon="4.7992">
        <ele>275</ele>
        <time>2022-07-15T09:01:30.000Z</time>
      </trkpt>
      <trkpt lat="49.89195" lon="4.79925">
        <ele>274</ele>
        <time>2022-07-15T09:01:31.000Z</time>
      </trkpt>
      <trkpt lat="49.89195" lon="4.79932">
        <ele>274</ele>
        <time>2022-07-15T09:01:32.000Z</time>
      </trkpt>
      <trkpt lat="49.89197" lon="4.7994">
        <ele>274</ele>
        <time>2022-07-15T09:01:33.000Z</time>
      </trkpt>
      <trkpt lat="49.892" lon="4.79949">
        <ele>273</ele>
        <time>2022-07-15T09:01:34.000Z</time>
      </trkpt>
      <trkpt lat="49.89203" lon="4.79957">
        <ele>273</ele>
        <time>2022-07-15T09:01:35.000Z</time>
      </trkpt>
      <trkpt lat="49.89206" lon="4.79966">
        <ele>273</ele>
        <time>2022-07-15T09:01:36.000Z</time>
      </trkpt>
      <trkpt lat="49.8921" lon="4.79973">
        <ele>272</ele>
        <time>2022-07-15T09:01:37.000Z</time>
      </trkpt>
      <trkpt lat="49.89213" lon="4.79981">
        <ele>272</ele>
        <time>2022-07-15T09:01:38.000Z</time>
      </trkpt>
      <trkpt lat="49.89215" lon="4.79988">
        <ele>272</ele>
        <time>2022-07-15T09:01:39.000Z</time>
      </trkpt>
      <trkpt lat="49.89218" lon="4.79996">
        <ele>271</ele>
        <time>2022-07-15T09:01:40.000Z</time>
      </trkpt>
      <trkpt lat="49.89221" lon="4.80004">
        <ele>271</ele>
        <time>2022-07-15T09:01:41.000Z</time>
      </trkpt>
      <trkpt lat="49.89224" lon="4.80012">
        <ele>271</ele>
        <time>2022-07-15T09:01:42.000Z</time>
      </trkpt>
      <trkpt lat="49.89228" lon="4.8002">
        <ele>270</ele>
        <time>2022-07-15T09:01:43.000Z</time>
      </trkpt>
      <trkpt lat="49.89231" lon="4.80027">
        <ele>270</ele>
        <time>2022-07-15T09:01:44.000Z</time>
      </trkpt>
      <trkpt lat="49.89233" lon="4.80035">
        <ele>269</ele>
        <time>2022-07-15T09:01:45.000Z</time>
      </trkpt>
      <trkpt lat="49.89236" lon="4.80042">
        <ele>269</ele>
        <time>2022-07-15T09:01:46.000Z</time>
      </trkpt>
      <trkpt lat="49.89239" lon="4.80049">
        <ele>268</ele>
        <time>2022-07-15T09:01:47.000Z</time>
      </trkpt>
      <trkpt lat="49.89242" lon="4.80057">
        <ele>268</ele>
        <time>2022-07-15T09:01:48.000Z</time>
      </trkpt>
      <trkpt lat="49.89245" lon="4.80065">
        <ele>267</ele>
        <time>2022-07-15T09:01:49.000Z</time>
      </trkpt>
      <trkpt lat="49.89247" lon="4.80073">
        <ele>267</ele>
        <time>2022-07-15T09:01:50.000Z</time>
      </trkpt>
      <trkpt lat="49.8925" lon="4.80082">
        <ele>266</ele>
        <time>2022-07-15T09:01:51.000Z</time>
      </trkpt>
      <trkpt lat="49.89253" lon="4.80091">
        <ele>266</ele>
        <time>2022-07-15T09:01:52.000Z</time>
      </trkpt>
      <trkpt lat="49.89256" lon="4.801">
        <ele>265</ele>
        <time>2022-07-15T09:01:53.000Z</time>
      </trkpt>
      <trkpt lat="49.8926" lon="4.80106">
        <ele>265</ele>
        <time>2022-07-15T09:01:54.000Z</time>
      </trkpt>
      <trkpt lat="49.89264" lon="4.80111">
        <ele>264</ele>
        <time>2022-07-15T09:01:55.000Z</time>
      </trkpt>
      <trkpt lat="49.89269" lon="4.80115">
        <ele>264</ele>
        <time>2022-07-15T09:01:56.000Z</time>
      </trkpt>
      <trkpt lat="49.89274" lon="4.80118">
        <ele>263</ele>
        <time>2022-07-15T09:01:57.000Z</time>
      </trkpt>
      <trkpt lat="49.8928" lon="4.8012">
        <ele>263</ele>
        <time>2022-07-15T09:01:58.000Z</time>
      </trkpt>
      <trkpt lat="49.89286" lon="4.80122">
        <ele>262</ele>
        <time>2022-07-15T09:01:59.000Z</time>
      </trkpt>
      <trkpt lat="49.89292" lon="4.80123">
        <ele>262</ele>
        <time>2022-07-15T09:02:00.000Z</time>
      </trkpt>
      <trkpt lat="49.89297" lon="4.80123">
        <ele>262</ele>
        <time>2022-07-15T09:02:01.000Z</time>
      </trkpt>
      <trkpt lat="49.89302" lon="4.80124">
        <ele>262</ele>
        <time>2022-07-15T09:02:02.000Z</time>
      </trkpt>
      <trkpt lat="49.89306" lon="4.80126">
        <ele>261</ele>
        <time>2022-07-15T09:02:03.000Z</time>
      </trkpt>
      <trkpt lat="49.89308" lon="4.80126">
        <ele>261</ele>
        <time>2022-07-15T09:02:04.000Z</time>
      </trkpt>
      <trkpt lat="49.8931" lon="4.80127">
        <ele>261</ele>
        <time>2022-07-15T09:02:05.000Z</time>
      </trkpt>
      <trkpt lat="49.89312" lon="4.80127">
        <ele>261</ele>
        <time>2022-07-15T09:02:06.000Z</time>
      </trkpt>
      <trkpt lat="49.89314" lon="4.80128">
        <ele>261</ele>
        <time>2022-07-15T09:02:07.000Z</time>
      </trkpt>
      <trkpt lat="49.89317" lon="4.8013">
        <ele>260</ele>
        <time>2022-07-15T09:02:08.000Z</time>
      </trkpt>
      <trkpt lat="49.8932" lon="4.80131">
        <ele>260</ele>
        <time>2022-07-15T09:02:09.000Z</time>
      </trkpt>
      <trkpt lat="49.89323" lon="4.80132">
        <ele>260</ele>
        <time>2022-07-15T09:02:10.000Z</time>
      </trkpt>
      <trkpt lat="49.89326" lon="4.80135">
        <ele>260</ele>
        <time>2022-07-15T09:02:11.000Z</time>
      </trkpt>
      <trkpt lat="49.89329" lon="4.80138">
        <ele>260</ele>
        <time>2022-07-15T09:02:12.000Z</time>
      </trkpt>
      <trkpt lat="49.8933" lon="4.80141">
        <ele>260</ele>
        <time>2022-07-15T09:02:13.000Z</time>
      </trkpt>
      <trkpt lat="49.89332" lon="4.80145">
        <ele>260</ele>
        <time>2022-07-15T09:02:14.000Z</time>
      </trkpt>
      <trkpt lat="49.89332" lon="4.80149">
        <ele>260</ele>
        <time>2022-07-15T09:02:15.000Z</time>
      </trkpt>
      <trkpt lat="49.89332" lon="4.80153">
        <ele>260</ele>
        <time>2022-07-15T09:02:16.000Z</time>
      </trkpt>
      <trkpt lat="49.89332" lon="4.80157">
        <ele>260</ele>
        <time>2022-07-15T09:02:17.000Z</time>
      </trkpt>
      <trkpt lat="49.89332" lon="4.80159">
        <ele>260</ele>
        <time>2022-07-15T09:02:18.000Z</time>
      </trkpt>
      <trkpt lat="49.89332" lon="4.80162">
        <ele>260</ele>
        <time>2022-07-15T09:02:19.000Z</time>
      </trkpt>
      <trkpt lat="49.89332" lon="4.80164">
        <ele>260</ele>
        <time>2022-07-15T09:02:20.000Z</time>
      </trkpt>
      <trkpt lat="49.89331" lon="4.80167">
        <ele>260</ele>
        <time>2022-07-15T09:02:21.000Z</time>
      </trkpt>
      <trkpt lat="49.8933" lon="4.8017">
        <ele>260</ele>
        <time>2022-07-15T09:02:22.000Z</time>
      </trkpt>
      <trkpt lat="49.8933" lon="4.80173">
        <ele>260</ele>
        <time>2022-07-15T09:02:23.000Z</time>
      </trkpt>
      <trkpt lat="49.89329" lon="4.80175">
        <ele>260</ele>
        <time>2022-07-15T09:02:24.000Z</time>
      </trkpt>
      <trkpt lat="49.89327" lon="4.80177">
        <ele>260</ele>
        <time>2022-07-15T09:02:25.000Z</time>
      </trkpt>
      <trkpt lat="49.89325" lon="4.80178">
        <ele>260</ele>
        <time>2022-07-15T09:02:26.000Z</time>
      </trkpt>
      <trkpt lat="49.89323" lon="4.80179">
        <ele>260</ele>
        <time>2022-07-15T09:02:27.000Z</time>
      </trkpt>
      <trkpt lat="49.89321" lon="4.80181">
        <ele>259</ele>
        <time>2022-07-15T09:02:28.000Z</time>
      </trkpt>
      <trkpt lat="49.89319" lon="4.80181">
        <ele>259</ele>
        <time>2022-07-15T09:02:29.000Z</time>
      </trkpt>
      <trkpt lat="49.89317" lon="4.80182">
        <ele>259</ele>
        <time>2022-07-15T09:02:30.000Z</time>
      </trkpt>
      <trkpt lat="49.89314" lon="4.80184">
        <ele>259</ele>
        <time>2022-07-15T09:02:31.000Z</time>
      </trkpt>
      <trkpt lat="49.89312" lon="4.80185">
        <ele>258</ele>
        <time>2022-07-15T09:02:32.000Z</time>
      </trkpt>
      <trkpt lat="49.89309" lon="4.80185">
        <ele>258</ele>
        <time>2022-07-15T09:02:33.000Z</time>
      </trkpt>
      <trkpt lat="49.89307" lon="4.80186">
        <ele>257</ele>
        <time>2022-07-15T09:02:34.000Z</time>
      </trkpt>
      <trkpt lat="49.89304" lon="4.80187">
        <ele>257</ele>
        <time>2022-07-15T09:02:35.000Z</time>
      </trkpt>
      <trkpt lat="49.89301" lon="4.80189">
        <ele>257</ele>
        <time>2022-07-15T09:02:36.000Z</time>
      </trkpt>
      <trkpt lat="49.89298" lon="4.8019">
        <ele>257</ele>
        <time>2022-07-15T09:02:37.000Z</time>
      </trkpt>
      <trkpt lat="49.89294" lon="4.80191">
        <ele>256</ele>
        <time>2022-07-15T09:02:38.000Z</time>
      </trkpt>
      <trkpt lat="49.89291" lon="4.80192">
        <ele>256</ele>
        <time>2022-07-15T09:02:39.000Z</time>
      </trkpt>
      <trkpt lat="49.89288" lon="4.80194">
        <ele>256</ele>
        <time>2022-07-15T09:02:40.000Z</time>
      </trkpt>
      <trkpt lat="49.89285" lon="4.80196">
        <ele>255</ele>
        <time>2022-07-15T09:02:41.000Z</time>
      </trkpt>
      <trkpt lat="49.89282" lon="4.80199">
        <ele>255</ele>
        <time>2022-07-15T09:02:42.000Z</time>
      </trkpt>
      <trkpt lat="49.89279" lon="4.80202">
        <ele>255</ele>
        <time>2022-07-15T09:02:43.000Z</time>
      </trkpt>
      <trkpt lat="49.89276" lon="4.80205">
        <ele>255</ele>
        <time>2022-07-15T09:02:44.000Z</time>
      </trkpt>
      <trkpt lat="49.89274" lon="4.80208">
        <ele>254</ele>
        <time>2022-07-15T09:02:45.000Z</time>
      </trkpt>
      <trkpt lat="49.89271" lon="4.80212">
        <ele>254</ele>
        <time>2022-07-15T09:02:46.000Z</time>
      </trkpt>
      <trkpt lat="49.89268" lon="4.80216">
        <ele>254</ele>
        <time>2022-07-15T09:02:47.000Z</time>
      </trkpt>
      <trkpt lat="49.89266" lon="4.8022">
        <ele>254</ele>
        <time>2022-07-15T09:02:48.000Z</time>
      </trkpt>
      <trkpt lat="49.89264" lon="4.80223">
        <ele>254</ele>
        <time>2022-07-15T09:02:49.000Z</time>
      </trkpt>
      <trkpt lat="49.89262" lon="4.80225">
        <ele>253</ele>
        <time>2022-07-15T09:02:50.000Z</time>
      </trkpt>
      <trkpt lat="49.8926" lon="4.80228">
        <ele>253</ele>
        <time>2022-07-15T09:02:51.000Z</time>
      </trkpt>
      <trkpt lat="49.89258" lon="4.8023">
        <ele>253</ele>
        <time>2022-07-15T09:02:52.000Z</time>
      </trkpt>
      <trkpt lat="49.89256" lon="4.80233">
        <ele>253</ele>
        <time>2022-07-15T09:02:53.000Z</time>
      </trkpt>
      <trkpt lat="49.89254" lon="4.80235">
        <ele>252</ele>
        <time>2022-07-15T09:02:54.000Z</time>
      </trkpt>
      <trkpt lat="49.89252" lon="4.80238">
        <ele>252</ele>
        <time>2022-07-15T09:02:55.000Z</time>
      </trkpt>
      <trkpt lat="49.89249" lon="4.8024">
        <ele>252</ele>
        <time>2022-07-15T09:02:56.000Z</time>
      </trkpt>
      <trkpt lat="49.89246" lon="4.80242">
        <ele>252</ele>
        <time>2022-07-15T09:02:57.000Z</time>
      </trkpt>
      <trkpt lat="49.89243" lon="4.80244">
        <ele>251</ele>
        <time>2022-07-15T09:02:58.000Z</time>
      </trkpt>
      <trkpt lat="49.8924" lon="4.80246">
        <ele>251</ele>
        <time>2022-07-15T09:02:59.000Z</time>
      </trkpt>
      <trkpt lat="49.89237" lon="4.80249">
        <ele>251</ele>
        <time>2022-07-15T09:03:00.000Z</time>
      </trkpt>
      <trkpt lat="49.89234" lon="4.80251">
        <ele>251</ele>
        <time>2022-07-15T09:03:01.000Z</time>
      </trkpt>
      <trkpt lat="49.89231" lon="4.80253">
        <ele>251</ele>
        <time>2022-07-15T09:03:02.000Z</time>
      </trkpt>
      <trkpt lat="49.8923" lon="4.80256">
        <ele>251</ele>
        <time>2022-07-15T09:03:03.000Z</time>
      </trkpt>
      <trkpt lat="49.8923" lon="4.80258">
        <ele>250</ele>
        <time>2022-07-15T09:03:04.000Z</time>
      </trkpt>
      <trkpt lat="49.8923" lon="4.80259">
        <ele>250</ele>
        <time>2022-07-15T09:03:05.000Z</time>
      </trkpt>
      <trkpt lat="49.89229" lon="4.80261">
        <ele>250</ele>
        <time>2022-07-15T09:03:06.000Z</time>
      </trkpt>
      <trkpt lat="49.89227" lon="4.80261">
        <ele>250</ele>
        <time>2022-07-15T09:03:07.000Z</time>
      </trkpt>
      <trkpt lat="49.89225" lon="4.80261">
        <ele>250</ele>
        <time>2022-07-15T09:03:08.000Z</time>
      </trkpt>
      <trkpt lat="49.89223" lon="4.8026">
        <ele>249</ele>
        <time>2022-07-15T09:03:09.000Z</time>
      </trkpt>
      <trkpt lat="49.8922" lon="4.80259">
        <ele>249</ele>
        <time>2022-07-15T09:03:10.000Z</time>
      </trkpt>
      <trkpt lat="49.89217" lon="4.80257">
        <ele>249</ele>
        <time>2022-07-15T09:03:11.000Z</time>
      </trkpt>
      <trkpt lat="49.89214" lon="4.80256">
        <ele>249</ele>
        <time>2022-07-15T09:03:12.000Z</time>
      </trkpt>
      <trkpt lat="49.8921" lon="4.80254">
        <ele>249</ele>
        <time>2022-07-15T09:03:13.000Z</time>
      </trkpt>
      <trkpt lat="49.89206" lon="4.80252">
        <ele>248</ele>
        <time>2022-07-15T09:03:14.000Z</time>
      </trkpt>
      <trkpt lat="49.89203" lon="4.8025">
        <ele>248</ele>
        <time>2022-07-15T09:03:15.000Z</time>
      </trkpt>
      <trkpt lat="49.89199" lon="4.80248">
        <ele>248</ele>
        <time>2022-07-15T09:03:16.000Z</time>
      </trkpt>
      <trkpt lat="49.89196" lon="4.80246">
        <ele>248</ele>
        <time>2022-07-15T09:03:17.000Z</time>
      </trkpt>
      <trkpt lat="49.89192" lon="4.80243">
        <ele>248</ele>
        <time>2022-07-15T09:03:18.000Z</time>
      </trkpt>
      <trkpt lat="49.89188" lon="4.80239">
        <ele>248</ele>
        <time>2022-07-15T09:03:19.000Z</time>
      </trkpt>
      <trkpt lat="49.89184" lon="4.80236">
        <ele>248</ele>
        <time>2022-07-15T09:03:20.000Z</time>
      </trkpt>
      <trkpt lat="49.89181" lon="4.80233">
        <ele>248</ele>
        <time>2022-07-15T09:03:21.000Z</time>
      </trkpt>
      <trkpt lat="49.89178" lon="4.8023">
        <ele>248</ele>
        <time>2022-07-15T09:03:22.000Z</time>
      </trkpt>
      <trkpt lat="49.89175" lon="4.80226">
        <ele>248</ele>
        <time>2022-07-15T09:03:23.000Z</time>
      </trkpt>
      <trkpt lat="49.89172" lon="4.80222">
        <ele>248</ele>
        <time>2022-07-15T09:03:24.000Z</time>
      </trkpt>
      <trkpt lat="49.89168" lon="4.80218">
        <ele>248</ele>
        <time>2022-07-15T09:03:25.000Z</time>
      </trkpt>
      <trkpt lat="49.89165" lon="4.80214">
        <ele>248</ele>
        <time>2022-07-15T09:03:26.000Z</time>
      </trkpt>
      <trkpt lat="49.89161" lon="4.80209">
        <ele>247</ele>
        <time>2022-07-15T09:03:27.000Z</time>
      </trkpt>
      <trkpt lat="49.89157" lon="4.80205">
        <ele>247</ele>
        <time>2022-07-15T09:03:28.000Z</time>
      </trkpt>
      <trkpt lat="49.89154" lon="4.802">
        <ele>247</ele>
        <time>2022-07-15T09:03:29.000Z</time>
      </trkpt>
      <trkpt lat="49.8915" lon="4.80196">
        <ele>247</ele>
        <time>2022-07-15T09:03:30.000Z</time>
      </trkpt>
      <trkpt lat="49.89147" lon="4.80191">
        <ele>247</ele>
        <time>2022-07-15T09:03:31.000Z</time>
      </trkpt>
      <trkpt lat="49.89143" lon="4.80187">
        <ele>247</ele>
        <time>2022-07-15T09:03:32.000Z</time>
      </trkpt>
      <trkpt lat="49.8914" lon="4.80183">
        <ele>247</ele>
        <time>2022-07-15T09:03:33.000Z</time>
      </trkpt>
      <trkpt lat="49.89137" lon="4.80179">
        <ele>247</ele>
        <time>2022-07-15T09:03:34.000Z</time>
      </trkpt>
      <trkpt lat="49.89133" lon="4.80175">
        <ele>247</ele>
        <time>2022-07-15T09:03:35.000Z</time>
      </trkpt>
      <trkpt lat="49.8913" lon="4.8017">
        <ele>247</ele>
        <time>2022-07-15T09:03:36.000Z</time>
      </trkpt>
      <trkpt lat="49.89126" lon="4.80166">
        <ele>247</ele>
        <time>2022-07-15T09:03:37.000Z</time>
      </trkpt>
      <trkpt lat="49.89122" lon="4.80161">
        <ele>246</ele>
        <time>2022-07-15T09:03:38.000Z</time>
      </trkpt>
      <trkpt lat="49.89119" lon="4.80156">
        <ele>246</ele>
        <time>2022-07-15T09:03:39.000Z</time>
      </trkpt>
      <trkpt lat="49.89115" lon="4.80151">
        <ele>246</ele>
        <time>2022-07-15T09:03:40.000Z</time>
      </trkpt>
      <trkpt lat="49.89112" lon="4.80148">
        <ele>246</ele>
        <time>2022-07-15T09:03:41.000Z</time>
      </trkpt>
      <trkpt lat="49.89109" lon="4.80146">
        <ele>246</ele>
        <time>2022-07-15T09:03:42.000Z</time>
      </trkpt>
      <trkpt lat="49.89106" lon="4.80143">
        <ele>245</ele>
        <time>2022-07-15T09:03:43.000Z</time>
      </trkpt>
      <trkpt lat="49.89103" lon="4.80141">
        <ele>245</ele>
        <time>2022-07-15T09:03:44.000Z</time>
      </trkpt>
      <trkpt lat="49.89101" lon="4.80139">
        <ele>245</ele>
        <time>2022-07-15T09:03:45.000Z</time>
      </trkpt>
      <trkpt lat="49.89099" lon="4.80136">
        <ele>245</ele>
        <time>2022-07-15T09:03:46.000Z</time>
      </trkpt>
      <trkpt lat="49.89097" lon="4.80134">
        <ele>245</ele>
        <time>2022-07-15T09:03:47.000Z</time>
      </trkpt>
      <trkpt lat="49.89094" lon="4.80132">
        <ele>245</ele>
        <time>2022-07-15T09:03:48.000Z</time>
      </trkpt>
      <trkpt lat="49.89091" lon="4.80131">
        <ele>245</ele>
        <time>2022-07-15T09:03:49.000Z</time>
      </trkpt>
      <trkpt lat="49.89087" lon="4.80131">
        <ele>244</ele>
        <time>2022-07-15T09:03:50.000Z</time>
      </trkpt>
      <trkpt lat="49.89084" lon="4.8013">
        <ele>244</ele>
        <time>2022-07-15T09:03:51.000Z</time>
      </trkpt>
      <trkpt lat="49.8908" lon="4.80132">
        <ele>244</ele>
        <time>2022-07-15T09:03:52.000Z</time>
      </trkpt>
      <trkpt lat="49.89075" lon="4.80134">
        <ele>244</ele>
        <time>2022-07-15T09:03:53.000Z</time>
      </trkpt>
      <trkpt lat="49.8907" lon="4.80137">
        <ele>244</ele>
        <time>2022-07-15T09:03:54.000Z</time>
      </trkpt>
      <trkpt lat="49.89066" lon="4.8014">
        <ele>243</ele>
        <time>2022-07-15T09:03:55.000Z</time>
      </trkpt>
      <trkpt lat="49.89061" lon="4.80144">
        <ele>243</ele>
        <time>2022-07-15T09:03:56.000Z</time>
      </trkpt>
      <trkpt lat="49.89057" lon="4.80149">
        <ele>243</ele>
        <time>2022-07-15T09:03:57.000Z</time>
      </trkpt>
      <trkpt lat="49.89053" lon="4.80154">
        <ele>243</ele>
        <time>2022-07-15T09:03:58.000Z</time>
      </trkpt>
      <trkpt lat="49.89049" lon="4.80159">
        <ele>243</ele>
        <time>2022-07-15T09:03:59.000Z</time>
      </trkpt>
      <trkpt lat="49.89044" lon="4.80165">
        <ele>243</ele>
        <time>2022-07-15T09:04:00.000Z</time>
      </trkpt>
      <trkpt lat="49.8904" lon="4.80171">
        <ele>242</ele>
        <time>2022-07-15T09:04:01.000Z</time>
      </trkpt>
      <trkpt lat="49.89035" lon="4.80177">
        <ele>242</ele>
        <time>2022-07-15T09:04:02.000Z</time>
      </trkpt>
      <trkpt lat="49.89031" lon="4.80182">
        <ele>242</ele>
        <time>2022-07-15T09:04:03.000Z</time>
      </trkpt>
      <trkpt lat="49.89028" lon="4.80187">
        <ele>242</ele>
        <time>2022-07-15T09:04:04.000Z</time>
      </trkpt>
      <trkpt lat="49.89025" lon="4.80193">
        <ele>241</ele>
        <time>2022-07-15T09:04:05.000Z</time>
      </trkpt>
      <trkpt lat="49.89022" lon="4.802">
        <ele>241</ele>
        <time>2022-07-15T09:04:06.000Z</time>
      </trkpt>
      <trkpt lat="49.89021" lon="4.80207">
        <ele>241</ele>
        <time>2022-07-15T09:04:07.000Z</time>
      </trkpt>
      <trkpt lat="49.89019" lon="4.80213">
        <ele>241</ele>
        <time>2022-07-15T09:04:08.000Z</time>
      </trkpt>
      <trkpt lat="49.89019" lon="4.80218">
        <ele>241</ele>
        <time>2022-07-15T09:04:09.000Z</time>
      </trkpt>
      <trkpt lat="49.89018" lon="4.80223">
        <ele>240</ele>
        <time>2022-07-15T09:04:10.000Z</time>
      </trkpt>
      <trkpt lat="49.89018" lon="4.80229">
        <ele>240</ele>
        <time>2022-07-15T09:04:11.000Z</time>
      </trkpt>
      <trkpt lat="49.89018" lon="4.80235">
        <ele>240</ele>
        <time>2022-07-15T09:04:12.000Z</time>
      </trkpt>
      <trkpt lat="49.89019" lon="4.80241">
        <ele>239</ele>
        <time>2022-07-15T09:04:13.000Z</time>
      </trkpt>
      <trkpt lat="49.8902" lon="4.80245">
        <ele>239</ele>
        <time>2022-07-15T09:04:14.000Z</time>
      </trkpt>
      <trkpt lat="49.89021" lon="4.8025">
        <ele>239</ele>
        <time>2022-07-15T09:04:15.000Z</time>
      </trkpt>
      <trkpt lat="49.89024" lon="4.80254">
        <ele>238</ele>
        <time>2022-07-15T09:04:16.000Z</time>
      </trkpt>
      <trkpt lat="49.89026" lon="4.8026">
        <ele>238</ele>
        <time>2022-07-15T09:04:17.000Z</time>
      </trkpt>
      <trkpt lat="49.89029" lon="4.80265">
        <ele>238</ele>
        <time>2022-07-15T09:04:18.000Z</time>
      </trkpt>
      <trkpt lat="49.89032" lon="4.8027">
        <ele>237</ele>
        <time>2022-07-15T09:04:19.000Z</time>
      </trkpt>
      <trkpt lat="49.89034" lon="4.80275">
        <ele>237</ele>
        <time>2022-07-15T09:04:20.000Z</time>
      </trkpt>
      <trkpt lat="49.89036" lon="4.80279">
        <ele>237</ele>
        <time>2022-07-15T09:04:21.000Z</time>
      </trkpt>
      <trkpt lat="49.89037" lon="4.80279">
        <ele>236</ele>
        <time>2022-07-15T09:04:22.000Z</time>
      </trkpt>
      <trkpt lat="49.89037" lon="4.8028">
        <ele>236</ele>
        <time>2022-07-15T09:04:23.000Z</time>
      </trkpt>
      <trkpt lat="49.89038" lon="4.80281">
        <ele>236</ele>
        <time>2022-07-15T09:04:24.000Z</time>
      </trkpt>
      <trkpt lat="49.89038" lon="4.80281">
        <ele>236</ele>
        <time>2022-07-15T09:04:25.000Z</time>
      </trkpt>
      <trkpt lat="49.89038" lon="4.80282">
        <ele>236</ele>
        <time>2022-07-15T09:04:26.000Z</time>
      </trkpt>
      <trkpt lat="49.89038" lon="4.80282">
        <ele>235</ele>
        <time>2022-07-15T09:04:27.000Z</time>
      </trkpt>
      <trkpt lat="49.89037" lon="4.80282">
        <ele>235</ele>
        <time>2022-07-15T09:04:28.000Z</time>
      </trkpt>
      <trkpt lat="49.89037" lon="4.80282">
        <ele>235</ele>
        <time>2022-07-15T09:04:29.000Z</time>
      </trkpt>
      <trkpt lat="49.89037" lon="4.80282">
        <ele>235</ele>
        <time>2022-07-15T09:04:30.000Z</time>
      </trkpt>
      <trkpt lat="49.89037" lon="4.80283">
        <ele>234</ele>
        <time>2022-07-15T09:04:31.000Z</time>
      </trkpt>
      <trkpt lat="49.89037" lon="4.80283">
        <ele>234</ele>
        <time>2022-07-15T09:04:32.000Z</time>
      </trkpt>
      <trkpt lat="49.89037" lon="4.80283">
        <ele>234</ele>
        <time>2022-07-15T09:04:33.000Z</time>
      </trkpt>
      <trkpt lat="49.89036" lon="4.80284">
        <ele>234</ele>
        <time>2022-07-15T09:04:34.000Z</time>
      </trkpt>
      <trkpt lat="49.89033" lon="4.80285">
        <ele>233</ele>
        <time>2022-07-15T09:04:35.000Z</time>
      </trkpt>
      <trkpt lat="49.89031" lon="4.80285">
        <ele>233</ele>
        <time>2022-07-15T09:04:36.000Z</time>
      </trkpt>
      <trkpt lat="49.89028" lon="4.80284">
        <ele>233</ele>
        <time>2022-07-15T09:04:37.000Z</time>
      </trkpt>
      <trkpt lat="49.89026" lon="4.80284">
        <ele>233</ele>
        <time>2022-07-15T09:04:38.000Z</time>
      </trkpt>
      <trkpt lat="49.89024" lon="4.80285">
        <ele>232</ele>
        <time>2022-07-15T09:04:39.000Z</time>
      </trkpt>
      <trkpt lat="49.89022" lon="4.80285">
        <ele>232</ele>
        <time>2022-07-15T09:04:40.000Z</time>
      </trkpt>
      <trkpt lat="49.8902" lon="4.80285">
        <ele>232</ele>
        <time>2022-07-15T09:04:41.000Z</time>
      </trkpt>
      <trkpt lat="49.89018" lon="4.80284">
        <ele>231</ele>
        <time>2022-07-15T09:04:42.000Z</time>
      </trkpt>
      <trkpt lat="49.89016" lon="4.80284">
        <ele>231</ele>
        <time>2022-07-15T09:04:43.000Z</time>
      </trkpt>
      <trkpt lat="49.89013" lon="4.80286">
        <ele>231</ele>
        <time>2022-07-15T09:04:44.000Z</time>
      </trkpt>
      <trkpt lat="49.8901" lon="4.80287">
        <ele>230</ele>
        <time>2022-07-15T09:04:45.000Z</time>
      </trkpt>
      <trkpt lat="49.89006" lon="4.80287">
        <ele>230</ele>
        <time>2022-07-15T09:04:46.000Z</time>
      </trkpt>
      <trkpt lat="49.89003" lon="4.80287">
        <ele>230</ele>
        <time>2022-07-15T09:04:47.000Z</time>
      </trkpt>
      <trkpt lat="49.89" lon="4.80286">
        <ele>229</ele>
        <time>2022-07-15T09:04:48.000Z</time>
      </trkpt>
      <trkpt lat="49.88996" lon="4.80284">
        <ele>229</ele>
        <time>2022-07-15T09:04:49.000Z</time>
      </trkpt>
      <trkpt lat="49.88993" lon="4.80283">
        <ele>229</ele>
        <time>2022-07-15T09:04:50.000Z</time>
      </trkpt>
      <trkpt lat="49.88991" lon="4.80281">
        <ele>228</ele>
        <time>2022-07-15T09:04:51.000Z</time>
      </trkpt>
      <trkpt lat="49.88988" lon="4.80279">
        <ele>228</ele>
        <time>2022-07-15T09:04:52.000Z</time>
      </trkpt>
      <trkpt lat="49.88985" lon="4.80278">
        <ele>228</ele>
        <time>2022-07-15T09:04:53.000Z</time>
      </trkpt>
      <trkpt lat="49.88982" lon="4.80277">
        <ele>227</ele>
        <time>2022-07-15T09:04:54.000Z</time>
      </trkpt>
      <trkpt lat="49.88979" lon="4.80276">
        <ele>227</ele>
        <time>2022-07-15T09:04:55.000Z</time>
      </trkpt>
      <trkpt lat="49.88977" lon="4.80275">
        <ele>226</ele>
        <time>2022-07-15T09:04:56.000Z</time>
      </trkpt>
      <trkpt lat="49.88975" lon="4.80276">
        <ele>226</ele>
        <time>2022-07-15T09:04:57.000Z</time>
      </trkpt>
      <trkpt lat="49.88973" lon="4.80278">
        <ele>225</ele>
        <time>2022-07-15T09:04:58.000Z</time>
      </trkpt>
      <trkpt lat="49.88971" lon="4.80281">
        <ele>225</ele>
        <time>2022-07-15T09:04:59.000Z</time>
      </trkpt>
      <trkpt lat="49.88969" lon="4.80283">
        <ele>225</ele>
        <time>2022-07-15T09:05:00.000Z</time>
      </trkpt>
      <trkpt lat="49.88967" lon="4.80285">
        <ele>224</ele>
        <time>2022-07-15T09:05:01.000Z</time>
      </trkpt>
      <trkpt lat="49.88965" lon="4.80286">
        <ele>223</ele>
        <time>2022-07-15T09:05:02.000Z</time>
      </trkpt>
      <trkpt lat="49.88962" lon="4.80286">
        <ele>223</ele>
        <time>2022-07-15T09:05:03.000Z</time>
      </trkpt>
      <trkpt lat="49.88959" lon="4.80286">
        <ele>222</ele>
        <time>2022-07-15T09:05:04.000Z</time>
      </trkpt>
      <trkpt lat="49.88957" lon="4.80287">
        <ele>222</ele>
        <time>2022-07-15T09:05:05.000Z</time>
      </trkpt>
      <trkpt lat="49.88956" lon="4.80287">
        <ele>221</ele>
        <time>2022-07-15T09:05:06.000Z</time>
      </trkpt>
      <trkpt lat="49.88955" lon="4.80288">
        <ele>221</ele>
        <time>2022-07-15T09:05:07.000Z</time>
      </trkpt>
      <trkpt lat="49.88954" lon="4.80288">
        <ele>221</ele>
        <time>2022-07-15T09:05:08.000Z</time>
      </trkpt>
      <trkpt lat="49.88954" lon="4.80288">
        <ele>220</ele>
        <time>2022-07-15T09:05:09.000Z</time>
      </trkpt>
      <trkpt lat="49.88954" lon="4.80288">
        <ele>220</ele>
        <time>2022-07-15T09:05:10.000Z</time>
      </trkpt>
      <trkpt lat="49.88953" lon="4.80288">
        <ele>220</ele>
        <time>2022-07-15T09:05:11.000Z</time>
      </trkpt>
      <trkpt lat="49.88953" lon="4.80288">
        <ele>220</ele>
        <time>2022-07-15T09:05:12.000Z</time>
      </trkpt>
      <trkpt lat="49.88952" lon="4.80288">
        <ele>219</ele>
        <time>2022-07-15T09:05:13.000Z</time>
      </trkpt>
      <trkpt lat="49.88952" lon="4.80289">
        <ele>219</ele>
        <time>2022-07-15T09:05:14.000Z</time>
      </trkpt>
      <trkpt lat="49.88951" lon="4.80289">
        <ele>219</ele>
        <time>2022-07-15T09:05:15.000Z</time>
      </trkpt>
      <trkpt lat="49.88951" lon="4.80289">
        <ele>218</ele>
        <time>2022-07-15T09:05:16.000Z</time>
      </trkpt>
      <trkpt lat="49.88951" lon="4.80289">
        <ele>218</ele>
        <time>2022-07-15T09:05:17.000Z</time>
      </trkpt>
      <trkpt lat="49.8895" lon="4.80289">
        <ele>218</ele>
        <time>2022-07-15T09:05:18.000Z</time>
      </trkpt>
      <trkpt lat="49.8895" lon="4.80289">
        <ele>218</ele>
        <time>2022-07-15T09:05:19.000Z</time>
      </trkpt>
      <trkpt lat="49.8895" lon="4.8029">
        <ele>217</ele>
        <time>2022-07-15T09:05:20.000Z</time>
      </trkpt>
      <trkpt lat="49.88949" lon="4.8029">
        <ele>217</ele>
        <time>2022-07-15T09:05:21.000Z</time>
      </trkpt>
      <trkpt lat="49.88949" lon="4.8029">
        <ele>217</ele>
        <time>2022-07-15T09:05:22.000Z</time>
      </trkpt>
      <trkpt lat="49.88949" lon="4.8029">
        <ele>216</ele>
        <time>2022-07-15T09:05:23.000Z</time>
      </trkpt>
      <trkpt lat="49.88948" lon="4.8029">
        <ele>216</ele>
        <time>2022-07-15T09:05:24.000Z</time>
      </trkpt>
      <trkpt lat="49.88948" lon="4.8029">
        <ele>216</ele>
        <time>2022-07-15T09:05:25.000Z</time>
      </trkpt>
      <trkpt lat="49.88947" lon="4.80291">
        <ele>215</ele>
        <time>2022-07-15T09:05:26.000Z</time>
      </trkpt>
      <trkpt lat="49.88947" lon="4.80291">
        <ele>215</ele>
        <time>2022-07-15T09:05:27.000Z</time>
      </trkpt>
      <trkpt lat="49.88946" lon="4.80291">
        <ele>214</ele>
        <time>2022-07-15T09:05:28.000Z</time>
      </trkpt>
      <trkpt lat="49.88946" lon="4.80291">
        <ele>214</ele>
        <time>2022-07-15T09:05:29.000Z</time>
      </trkpt>
      <trkpt lat="49.88946" lon="4.80291">
        <ele>213</ele>
        <time>2022-07-15T09:05:30.000Z</time>
      </trkpt>
      <trkpt lat="49.88946" lon="4.80292">
        <ele>213</ele>
        <time>2022-07-15T09:05:31.000Z</time>
      </trkpt>
      <trkpt lat="49.88945" lon="4.80292">
        <ele>213</ele>
        <time>2022-07-15T09:05:32.000Z</time>
      </trkpt>
      <trkpt lat="49.88945" lon="4.80292">
        <ele>212</ele>
        <time>2022-07-15T09:05:33.000Z</time>
      </trkpt>
      <trkpt lat="49.88944" lon="4.80292">
        <ele>212</ele>
        <time>2022-07-15T09:05:34.000Z</time>
      </trkpt>
      <trkpt lat="49.88943" lon="4.80293">
        <ele>211</ele>
        <time>2022-07-15T09:05:35.000Z</time>
      </trkpt>
      <trkpt lat="49.88942" lon="4.80293">
        <ele>211</ele>
        <time>2022-07-15T09:05:36.000Z</time>
      </trkpt>
      <trkpt lat="49.88941" lon="4.80295">
        <ele>210</ele>
        <time>2022-07-15T09:05:37.000Z</time>
      </trkpt>
      <trkpt lat="49.8894" lon="4.80297">
        <ele>210</ele>
        <time>2022-07-15T09:05:38.000Z</time>
      </trkpt>
      <trkpt lat="49.8894" lon="4.80299">
        <ele>210</ele>
        <time>2022-07-15T09:05:39.000Z</time>
      </trkpt>
      <trkpt lat="49.88939" lon="4.80299">
        <ele>209</ele>
        <time>2022-07-15T09:05:40.000Z</time>
      </trkpt>
      <trkpt lat="49.88939" lon="4.80299">
        <ele>209</ele>
        <time>2022-07-15T09:05:41.000Z</time>
      </trkpt>
      <trkpt lat="49.88939" lon="4.80299">
        <ele>208</ele>
        <time>2022-07-15T09:05:42.000Z</time>
      </trkpt>
      <trkpt lat="49.88939" lon="4.80299">
        <ele>208</ele>
        <time>2022-07-15T09:05:43.000Z</time>
      </trkpt>
      <trkpt lat="49.88939" lon="4.80299">
        <ele>208</ele>
        <time>2022-07-15T09:05:44.000Z</time>
      </trkpt>
      <trkpt lat="49.88939" lon="4.803">
        <ele>207</ele>
        <time>2022-07-15T09:05:45.000Z</time>
      </trkpt>
      <trkpt lat="49.88939" lon="4.803">
        <ele>207</ele>
        <time>2022-07-15T09:05:46.000Z</time>
      </trkpt>
      <trkpt lat="49.88939" lon="4.803">
        <ele>207</ele>
        <time>2022-07-15T09:05:47.000Z</time>
      </trkpt>
      <trkpt lat="49.88938" lon="4.803">
        <ele>206</ele>
        <time>2022-07-15T09:05:48.000Z</time>
      </trkpt>
      <trkpt lat="49.88938" lon="4.803">
        <ele>206</ele>
        <time>2022-07-15T09:05:49.000Z</time>
      </trkpt>
      <trkpt lat="49.88938" lon="4.80301">
        <ele>206</ele>
        <time>2022-07-15T09:05:50.000Z</time>
      </trkpt>
      <trkpt lat="49.88937" lon="4.80302">
        <ele>205</ele>
        <time>2022-07-15T09:05:51.000Z</time>
      </trkpt>
      <trkpt lat="49.88937" lon="4.80304">
        <ele>205</ele>
        <time>2022-07-15T09:05:52.000Z</time>
      </trkpt>
      <trkpt lat="49.88937" lon="4.80306">
        <ele>205</ele>
        <time>2022-07-15T09:05:53.000Z</time>
      </trkpt>
      <trkpt lat="49.88936" lon="4.80307">
        <ele>204</ele>
        <time>2022-07-15T09:05:54.000Z</time>
      </trkpt>
      <trkpt lat="49.88936" lon="4.80308">
        <ele>204</ele>
        <time>2022-07-15T09:05:55.000Z</time>
      </trkpt>
      <trkpt lat="49.88936" lon="4.80308">
        <ele>204</ele>
        <time>2022-07-15T09:05:56.000Z</time>
      </trkpt>
      <trkpt lat="49.88936" lon="4.80308">
        <ele>204</ele>
        <time>2022-07-15T09:05:57.000Z</time>
      </trkpt>
      <trkpt lat="49.88936" lon="4.80307">
        <ele>203</ele>
        <time>2022-07-15T09:05:58.000Z</time>
      </trkpt>
      <trkpt lat="49.88936" lon="4.80308">
        <ele>203</ele>
        <time>2022-07-15T09:05:59.000Z</time>
      </trkpt>
      <trkpt lat="49.88936" lon="4.80308">
        <ele>203</ele>
        <time>2022-07-15T09:06:00.000Z</time>
      </trkpt>
      <trkpt lat="49.88936" lon="4.80308">
        <ele>203</ele>
        <time>2022-07-15T09:06:01.000Z</time>
      </trkpt>
      <trkpt lat="49.88935" lon="4.80308">
        <ele>202</ele>
        <time>2022-07-15T09:06:02.000Z</time>
      </trkpt>
      <trkpt lat="49.88935" lon="4.80308">
        <ele>202</ele>
        <time>2022-07-15T09:06:03.000Z</time>
      </trkpt>
      <trkpt lat="49.88935" lon="4.80309">
        <ele>202</ele>
        <time>2022-07-15T09:06:04.000Z</time>
      </trkpt>
      <trkpt lat="49.88935" lon="4.80308">
        <ele>202</ele>
        <time>2022-07-15T09:06:05.000Z</time>
      </trkpt>
      <trkpt lat="49.88935" lon="4.80309">
        <ele>202</ele>
        <time>2022-07-15T09:06:06.000Z</time>
      </trkpt>
      <trkpt lat="49.88935" lon="4.80309">
        <ele>201</ele>
        <time>2022-07-15T09:06:07.000Z</time>
      </trkpt>
      <trkpt lat="49.88935" lon="4.80309">
        <ele>201</ele>
        <time>2022-07-15T09:06:08.000Z</time>
      </trkpt>
      <trkpt lat="49.88935" lon="4.80309">
        <ele>201</ele>
        <time>2022-07-15T09:06:09.000Z</time>
      </trkpt>
      <trkpt lat="49.88935" lon="4.80309">
        <ele>201</ele>
        <time>2022-07-15T09:06:10.000Z</time>
      </trkpt>
      <trkpt lat="49.88934" lon="4.80309">
        <ele>201</ele>
        <time>2022-07-15T09:06:11.000Z</time>
      </trkpt>
      <trkpt lat="49.88934" lon="4.80309">
        <ele>201</ele>
        <time>2022-07-15T09:06:12.000Z</time>
      </trkpt>
      <trkpt lat="49.88934" lon="4.80309">
        <ele>200</ele>
        <time>2022-07-15T09:06:13.000Z</time>
      </trkpt>
      <trkpt lat="49.88934" lon="4.8031">
        <ele>200</ele>
        <time>2022-07-15T09:06:14.000Z</time>
      </trkpt>
      <trkpt lat="49.88934" lon="4.8031">
        <ele>200</ele>
        <time>2022-07-15T09:06:15.000Z</time>
      </trkpt>
      <trkpt lat="49.88934" lon="4.8031">
        <ele>200</ele>
        <time>2022-07-15T09:06:16.000Z</time>
      </trkpt>
      <trkpt lat="49.88934" lon="4.8031">
        <ele>200</ele>
        <time>2022-07-15T09:06:17.000Z</time>
      </trkpt>
      <trkpt lat="49.88934" lon="4.8031">
        <ele>200</ele>
        <time>2022-07-15T09:06:18.000Z</time>
      </trkpt>
      <trkpt lat="49.88934" lon="4.8031">
        <ele>200</ele>
        <time>2022-07-15T09:06:19.000Z</time>
      </trkpt>
      <trkpt lat="49.88935" lon="4.8031">
        <ele>200</ele>
        <time>2022-07-15T09:06:20.000Z</time>
      </trkpt>
      <trkpt lat="49.88935" lon="4.80311">
        <ele>200</ele>
        <time>2022-07-15T09:06:21.000Z</time>
      </trkpt>
      <trkpt lat="49.88934" lon="4.8031">
        <ele>199</ele>
        <time>2022-07-15T09:06:22.000Z</time>
      </trkpt>
      <trkpt lat="49.88934" lon="4.8031">
        <ele>199</ele>
        <time>2022-07-15T09:06:23.000Z</time>
      </trkpt>
      <trkpt lat="49.88934" lon="4.8031">
        <ele>199</ele>
        <time>2022-07-15T09:06:24.000Z</time>
      </trkpt>
      <trkpt lat="49.88933" lon="4.80309">
        <ele>199</ele>
        <time>2022-07-15T09:06:25.000Z</time>
      </trkpt>
      <trkpt lat="49.88932" lon="4.80308">
        <ele>199</ele>
        <time>2022-07-15T09:06:26.000Z</time>
      </trkpt>
      <trkpt lat="49.88931" lon="4.80306">
        <ele>198</ele>
        <time>2022-07-15T09:06:27.000Z</time>
      </trkpt>
      <trkpt lat="49.8893" lon="4.80305">
        <ele>198</ele>
        <time>2022-07-15T09:06:28.000Z</time>
      </trkpt>
      <trkpt lat="49.8893" lon="4.80304">
        <ele>198</ele>
        <time>2022-07-15T09:06:29.000Z</time>
      </trkpt>
      <trkpt lat="49.8893" lon="4.80303">
        <ele>198</ele>
        <time>2022-07-15T09:06:30.000Z</time>
      </trkpt>
      <trkpt lat="49.8893" lon="4.80303">
        <ele>198</ele>
        <time>2022-07-15T09:06:31.000Z</time>
      </trkpt>
      <trkpt lat="49.8893" lon="4.80303">
        <ele>198</ele>
        <time>2022-07-15T09:06:32.000Z</time>
      </trkpt>
      <trkpt lat="49.88929" lon="4.80303">
        <ele>197</ele>
        <time>2022-07-15T09:06:33.000Z</time>
      </trkpt>
      <trkpt lat="49.88929" lon="4.80303">
        <ele>197</ele>
        <time>2022-07-15T09:06:34.000Z</time>
      </trkpt>
      <trkpt lat="49.88929" lon="4.80303">
        <ele>197</ele>
        <time>2022-07-15T09:06:35.000Z</time>
      </trkpt>
      <trkpt lat="49.88929" lon="4.80303">
        <ele>197</ele>
        <time>2022-07-15T09:06:36.000Z</time>
      </trkpt>
      <trkpt lat="49.88928" lon="4.80303">
        <ele>197</ele>
        <time>2022-07-15T09:06:37.000Z</time>
      </trkpt>
      <trkpt lat="49.88928" lon="4.80302">
        <ele>197</ele>
        <time>2022-07-15T09:06:38.000Z</time>
      </trkpt>
      <trkpt lat="49.88928" lon="4.80302">
        <ele>197</ele>
        <time>2022-07-15T09:06:39.000Z</time>
      </trkpt>
      <trkpt lat="49.88928" lon="4.80302">
        <ele>197</ele>
        <time>2022-07-15T09:06:40.000Z</time>
      </trkpt>
      <trkpt lat="49.88927" lon="4.80302">
        <ele>197</ele>
        <time>2022-07-15T09:06:41.000Z</time>
      </trkpt>
      <trkpt lat="49.88927" lon="4.80302">
        <ele>196</ele>
        <time>2022-07-15T09:06:42.000Z</time>
      </trkpt>
      <trkpt lat="49.88926" lon="4.80303">
        <ele>196</ele>
        <time>2022-07-15T09:06:43.000Z</time>
      </trkpt>
      <trkpt lat="49.88926" lon="4.80304">
        <ele>196</ele>
        <time>2022-07-15T09:06:44.000Z</time>
      </trkpt>
      <trkpt lat="49.88925" lon="4.80304">
        <ele>196</ele>
        <time>2022-07-15T09:06:45.000Z</time>
      </trkpt>
      <trkpt lat="49.88925" lon="4.80304">
        <ele>196</ele>
        <time>2022-07-15T09:06:46.000Z</time>
      </trkpt>
      <trkpt lat="49.88924" lon="4.80305">
        <ele>195</ele>
        <time>2022-07-15T09:06:47.000Z</time>
      </trkpt>
      <trkpt lat="49.88923" lon="4.80305">
        <ele>195</ele>
        <time>2022-07-15T09:06:48.000Z</time>
      </trkpt>
      <trkpt lat="49.88923" lon="4.80305">
        <ele>195</ele>
        <time>2022-07-15T09:06:49.000Z</time>
      </trkpt>
      <trkpt lat="49.88923" lon="4.80305">
        <ele>195</ele>
        <time>2022-07-15T09:06:50.000Z</time>
      </trkpt>
      <trkpt lat="49.88922" lon="4.80305">
        <ele>194</ele>
        <time>2022-07-15T09:06:51.000Z</time>
      </trkpt>
      <trkpt lat="49.88921" lon="4.80305">
        <ele>194</ele>
        <time>2022-07-15T09:06:52.000Z</time>
      </trkpt>
      <trkpt lat="49.88921" lon="4.80305">
        <ele>194</ele>
        <time>2022-07-15T09:06:53.000Z</time>
      </trkpt>
      <trkpt lat="49.8892" lon="4.80305">
        <ele>194</ele>
        <time>2022-07-15T09:06:54.000Z</time>
      </trkpt>
      <trkpt lat="49.8892" lon="4.80305">
        <ele>194</ele>
        <time>2022-07-15T09:06:55.000Z</time>
      </trkpt>
      <trkpt lat="49.88919" lon="4.80305">
        <ele>194</ele>
        <time>2022-07-15T09:06:56.000Z</time>
      </trkpt>
      <trkpt lat="49.88919" lon="4.80305">
        <ele>193</ele>
        <time>2022-07-15T09:06:57.000Z</time>
      </trkpt>
      <trkpt lat="49.88918" lon="4.80305">
        <ele>193</ele>
        <time>2022-07-15T09:06:58.000Z</time>
      </trkpt>
      <trkpt lat="49.88918" lon="4.80305">
        <ele>193</ele>
        <time>2022-07-15T09:06:59.000Z</time>
      </trkpt>
      <trkpt lat="49.88918" lon="4.80305">
        <ele>193</ele>
        <time>2022-07-15T09:07:00.000Z</time>
      </trkpt>
      <trkpt lat="49.88917" lon="4.80304">
        <ele>193</ele>
        <time>2022-07-15T09:07:01.000Z</time>
      </trkpt>
      <trkpt lat="49.88917" lon="4.80303">
        <ele>193</ele>
        <time>2022-07-15T09:07:02.000Z</time>
      </trkpt>
      <trkpt lat="49.88916" lon="4.80301">
        <ele>193</ele>
        <time>2022-07-15T09:07:03.000Z</time>
      </trkpt>
      <trkpt lat="49.88916" lon="4.80299">
        <ele>193</ele>
        <time>2022-07-15T09:07:04.000Z</time>
      </trkpt>
      <trkpt lat="49.88916" lon="4.80298">
        <ele>193</ele>
        <time>2022-07-15T09:07:05.000Z</time>
      </trkpt>
      <trkpt lat="49.88916" lon="4.80297">
        <ele>193</ele>
        <time>2022-07-15T09:07:06.000Z</time>
      </trkpt>
      <trkpt lat="49.88916" lon="4.80297">
        <ele>193</ele>
        <time>2022-07-15T09:07:07.000Z</time>
      </trkpt>
      <trkpt lat="49.88916" lon="4.80297">
        <ele>193</ele>
        <time>2022-07-15T09:07:08.000Z</time>
      </trkpt>
      <trkpt lat="49.88916" lon="4.80296">
        <ele>193</ele>
        <time>2022-07-15T09:07:09.000Z</time>
      </trkpt>
      <trkpt lat="49.88915" lon="4.80296">
        <ele>193</ele>
        <time>2022-07-15T09:07:10.000Z</time>
      </trkpt>
      <trkpt lat="49.88915" lon="4.80296">
        <ele>193</ele>
        <time>2022-07-15T09:07:11.000Z</time>
      </trkpt>
      <trkpt lat="49.88915" lon="4.80296">
        <ele>193</ele>
        <time>2022-07-15T09:07:12.000Z</time>
      </trkpt>
      <trkpt lat="49.88916" lon="4.80295">
        <ele>193</ele>
        <time>2022-07-15T09:07:13.000Z</time>
      </trkpt>
      <trkpt lat="49.88916" lon="4.80295">
        <ele>193</ele>
        <time>2022-07-15T09:07:14.000Z</time>
      </trkpt>
      <trkpt lat="49.88916" lon="4.80294">
        <ele>192</ele>
        <time>2022-07-15T09:07:15.000Z</time>
      </trkpt>
      <trkpt lat="49.88915" lon="4.80293">
        <ele>192</ele>
        <time>2022-07-15T09:07:16.000Z</time>
      </trkpt>
      <trkpt lat="49.88915" lon="4.80293">
        <ele>192</ele>
        <time>2022-07-15T09:07:17.000Z</time>
      </trkpt>
      <trkpt lat="49.88915" lon="4.80292">
        <ele>192</ele>
        <time>2022-07-15T09:07:18.000Z</time>
      </trkpt>
      <trkpt lat="49.88914" lon="4.80291">
        <ele>192</ele>
        <time>2022-07-15T09:07:19.000Z</time>
      </trkpt>
      <trkpt lat="49.88914" lon="4.80291">
        <ele>192</ele>
        <time>2022-07-15T09:07:20.000Z</time>
      </trkpt>
      <trkpt lat="49.88914" lon="4.80291">
        <ele>192</ele>
        <time>2022-07-15T09:07:21.000Z</time>
      </trkpt>
      <trkpt lat="49.88914" lon="4.80291">
        <ele>192</ele>
        <time>2022-07-15T09:07:22.000Z</time>
      </trkpt>
      <trkpt lat="49.88914" lon="4.8029">
        <ele>192</ele>
        <time>2022-07-15T09:07:23.000Z</time>
      </trkpt>
      <trkpt lat="49.88914" lon="4.8029">
        <ele>191</ele>
        <time>2022-07-15T09:07:24.000Z</time>
      </trkpt>
      <trkpt lat="49.88914" lon="4.8029">
        <ele>191</ele>
        <time>2022-07-15T09:07:25.000Z</time>
      </trkpt>
      <trkpt lat="49.88914" lon="4.8029">
        <ele>191</ele>
        <time>2022-07-15T09:07:26.000Z</time>
      </trkpt>
      <trkpt lat="49.88914" lon="4.8029">
        <ele>191</ele>
        <time>2022-07-15T09:07:27.000Z</time>
      </trkpt>
      <trkpt lat="49.88914" lon="4.8029">
        <ele>191</ele>
        <time>2022-07-15T09:07:28.000Z</time>
      </trkpt>
      <trkpt lat="49.88914" lon="4.80289">
        <ele>191</ele>
        <time>2022-07-15T09:07:29.000Z</time>
      </trkpt>
      <trkpt lat="49.88914" lon="4.80289">
        <ele>191</ele>
        <time>2022-07-15T09:07:30.000Z</time>
      </trkpt>
      <trkpt lat="49.88914" lon="4.80289">
        <ele>191</ele>
        <time>2022-07-15T09:07:31.000Z</time>
      </trkpt>
      <trkpt lat="49.88914" lon="4.80289">
        <ele>190</ele>
        <time>2022-07-15T09:07:32.000Z</time>
      </trkpt>
      <trkpt lat="49.88914" lon="4.80289">
        <ele>190</ele>
        <time>2022-07-15T09:07:33.000Z</time>
      </trkpt>
      <trkpt lat="49.88914" lon="4.80289">
        <ele>190</ele>
        <time>2022-07-15T09:07:34.000Z</time>
      </trkpt>
      <trkpt lat="49.88914" lon="4.80289">
        <ele>190</ele>
        <time>2022-07-15T09:07:35.000Z</time>
      </trkpt>
      <trkpt lat="49.88914" lon="4.80289">
        <ele>190</ele>
        <time>2022-07-15T09:07:36.000Z</time>
      </trkpt>
      <trkpt lat="49.88914" lon="4.80289">
        <ele>189</ele>
        <time>2022-07-15T09:07:37.000Z</time>
      </trkpt>
      <trkpt lat="49.88913" lon="4.80289">
        <ele>189</ele>
        <time>2022-07-15T09:07:38.000Z</time>
      </trkpt>
      <trkpt lat="49.88913" lon="4.80289">
        <ele>189</ele>
        <time>2022-07-15T09:07:39.000Z</time>
      </trkpt>
      <trkpt lat="49.88912" lon="4.80288">
        <ele>189</ele>
        <time>2022-07-15T09:07:40.000Z</time>
      </trkpt>
      <trkpt lat="49.88912" lon="4.80288">
        <ele>189</ele>
        <time>2022-07-15T09:07:41.000Z</time>
      </trkpt>
      <trkpt lat="49.88911" lon="4.80288">
        <ele>188</ele>
        <time>2022-07-15T09:07:42.000Z</time>
      </trkpt>
      <trkpt lat="49.8891" lon="4.8029">
        <ele>188</ele>
        <time>2022-07-15T09:07:43.000Z</time>
      </trkpt>
      <trkpt lat="49.88909" lon="4.80291">
        <ele>188</ele>
        <time>2022-07-15T09:07:44.000Z</time>
      </trkpt>
      <trkpt lat="49.88909" lon="4.80291">
        <ele>188</ele>
        <time>2022-07-15T09:07:45.000Z</time>
      </trkpt>
      <trkpt lat="49.88909" lon="4.80291">
        <ele>188</ele>
        <time>2022-07-15T09:07:46.000Z</time>
      </trkpt>
      <trkpt lat="49.88908" lon="4.80292">
        <ele>188</ele>
        <time>2022-07-15T09:07:47.000Z</time>
      </trkpt>
      <trkpt lat="49.88908" lon="4.80294">
        <ele>188</ele>
        <time>2022-07-15T09:07:48.000Z</time>
      </trkpt>
      <trkpt lat="49.88906" lon="4.80297">
        <ele>187</ele>
        <time>2022-07-15T09:07:49.000Z</time>
      </trkpt>
      <trkpt lat="49.88906" lon="4.80299">
        <ele>187</ele>
        <time>2022-07-15T09:07:50.000Z</time>
      </trkpt>
      <trkpt lat="49.88905" lon="4.80301">
        <ele>187</ele>
        <time>2022-07-15T09:07:51.000Z</time>
      </trkpt>
      <trkpt lat="49.88905" lon="4.80303">
        <ele>187</ele>
        <time>2022-07-15T09:07:52.000Z</time>
      </trkpt>
      <trkpt lat="49.88905" lon="4.80304">
        <ele>187</ele>
        <time>2022-07-15T09:07:53.000Z</time>
      </trkpt>
      <trkpt lat="49.88905" lon="4.80306">
        <ele>187</ele>
        <time>2022-07-15T09:07:54.000Z</time>
      </trkpt>
      <trkpt lat="49.88905" lon="4.80309">
        <ele>187</ele>
        <time>2022-07-15T09:07:55.000Z</time>
      </trkpt>
      <trkpt lat="49.88905" lon="4.80311">
        <ele>187</ele>
        <time>2022-07-15T09:07:56.000Z</time>
      </trkpt>
      <trkpt lat="49.88905" lon="4.80311">
        <ele>186</ele>
        <time>2022-07-15T09:07:57.000Z</time>
      </trkpt>
      <trkpt lat="49.88905" lon="4.80311">
        <ele>186</ele>
        <time>2022-07-15T09:07:58.000Z</time>
      </trkpt>
      <trkpt lat="49.88905" lon="4.80311">
        <ele>186</ele>
        <time>2022-07-15T09:07:59.000Z</time>
      </trkpt>
      <trkpt lat="49.88905" lon="4.80312">
        <ele>186</ele>
        <time>2022-07-15T09:08:00.000Z</time>
      </trkpt>
      <trkpt lat="49.88905" lon="4.80313">
        <ele>186</ele>
        <time>2022-07-15T09:08:01.000Z</time>
      </trkpt>
      <trkpt lat="49.88904" lon="4.80314">
        <ele>186</ele>
        <time>2022-07-15T09:08:02.000Z</time>
      </trkpt>
      <trkpt lat="49.88902" lon="4.80316">
        <ele>186</ele>
        <time>2022-07-15T09:08:03.000Z</time>
      </trkpt>
      <trkpt lat="49.88901" lon="4.80317">
        <ele>185</ele>
        <time>2022-07-15T09:08:04.000Z</time>
      </trkpt>
      <trkpt lat="49.88899" lon="4.80316">
        <ele>185</ele>
        <time>2022-07-15T09:08:05.000Z</time>
      </trkpt>
      <trkpt lat="49.88898" lon="4.80314">
        <ele>185</ele>
        <time>2022-07-15T09:08:06.000Z</time>
      </trkpt>
      <trkpt lat="49.88896" lon="4.80313">
        <ele>185</ele>
        <time>2022-07-15T09:08:07.000Z</time>
      </trkpt>
      <trkpt lat="49.88894" lon="4.8031">
        <ele>184</ele>
        <time>2022-07-15T09:08:08.000Z</time>
      </trkpt>
      <trkpt lat="49.88893" lon="4.80307">
        <ele>184</ele>
        <time>2022-07-15T09:08:09.000Z</time>
      </trkpt>
      <trkpt lat="49.8889" lon="4.80304">
        <ele>184</ele>
        <time>2022-07-15T09:08:10.000Z</time>
      </trkpt>
      <trkpt lat="49.88888" lon="4.80302">
        <ele>183</ele>
        <time>2022-07-15T09:08:11.000Z</time>
      </trkpt>
      <trkpt lat="49.88885" lon="4.803">
        <ele>183</ele>
        <time>2022-07-15T09:08:12.000Z</time>
      </trkpt>
      <trkpt lat="49.88883" lon="4.80298">
        <ele>183</ele>
        <time>2022-07-15T09:08:13.000Z</time>
      </trkpt>
      <trkpt lat="49.88881" lon="4.80296">
        <ele>183</ele>
        <time>2022-07-15T09:08:14.000Z</time>
      </trkpt>
      <trkpt lat="49.88879" lon="4.80295">
        <ele>182</ele>
        <time>2022-07-15T09:08:15.000Z</time>
      </trkpt>
      <trkpt lat="49.88877" lon="4.80294">
        <ele>182</ele>
        <time>2022-07-15T09:08:16.000Z</time>
      </trkpt>
      <trkpt lat="49.88875" lon="4.80293">
        <ele>182</ele>
        <time>2022-07-15T09:08:17.000Z</time>
      </trkpt>
      <trkpt lat="49.88872" lon="4.80293">
        <ele>182</ele>
        <time>2022-07-15T09:08:18.000Z</time>
      </trkpt>
      <trkpt lat="49.8887" lon="4.80294">
        <ele>181</ele>
        <time>2022-07-15T09:08:19.000Z</time>
      </trkpt>
      <trkpt lat="49.88867" lon="4.80296">
        <ele>181</ele>
        <time>2022-07-15T09:08:20.000Z</time>
      </trkpt>
      <trkpt lat="49.88866" lon="4.80298">
        <ele>181</ele>
        <time>2022-07-15T09:08:21.000Z</time>
      </trkpt>
      <trkpt lat="49.88864" lon="4.80302">
        <ele>181</ele>
        <time>2022-07-15T09:08:22.000Z</time>
      </trkpt>
      <trkpt lat="49.88863" lon="4.80307">
        <ele>180</ele>
        <time>2022-07-15T09:08:23.000Z</time>
      </trkpt>
      <trkpt lat="49.88862" lon="4.80311">
        <ele>180</ele>
        <time>2022-07-15T09:08:24.000Z</time>
      </trkpt>
      <trkpt lat="49.88861" lon="4.80315">
        <ele>180</ele>
        <time>2022-07-15T09:08:25.000Z</time>
      </trkpt>
      <trkpt lat="49.8886" lon="4.80319">
        <ele>179</ele>
        <time>2022-07-15T09:08:26.000Z</time>
      </trkpt>
      <trkpt lat="49.88859" lon="4.80323">
        <ele>179</ele>
        <time>2022-07-15T09:08:27.000Z</time>
      </trkpt>
      <trkpt lat="49.88859" lon="4.80328">
        <ele>179</ele>
        <time>2022-07-15T09:08:28.000Z</time>
      </trkpt>
      <trkpt lat="49.88858" lon="4.80332">
        <ele>178</ele>
        <time>2022-07-15T09:08:29.000Z</time>
      </trkpt>
      <trkpt lat="49.88858" lon="4.80337">
        <ele>178</ele>
        <time>2022-07-15T09:08:30.000Z</time>
      </trkpt>
      <trkpt lat="49.88858" lon="4.80343">
        <ele>178</ele>
        <time>2022-07-15T09:08:31.000Z</time>
      </trkpt>
      <trkpt lat="49.88858" lon="4.8035">
        <ele>177</ele>
        <time>2022-07-15T09:08:32.000Z</time>
      </trkpt>
      <trkpt lat="49.88858" lon="4.80358">
        <ele>177</ele>
        <time>2022-07-15T09:08:33.000Z</time>
      </trkpt>
      <trkpt lat="49.88857" lon="4.80365">
        <ele>177</ele>
        <time>2022-07-15T09:08:34.000Z</time>
      </trkpt>
      <trkpt lat="49.88857" lon="4.80371">
        <ele>176</ele>
        <time>2022-07-15T09:08:35.000Z</time>
      </trkpt>
      <trkpt lat="49.88856" lon="4.80378">
        <ele>176</ele>
        <time>2022-07-15T09:08:36.000Z</time>
      </trkpt>
      <trkpt lat="49.88855" lon="4.80384">
        <ele>176</ele>
        <time>2022-07-15T09:08:37.000Z</time>
      </trkpt>
      <trkpt lat="49.88854" lon="4.80388">
        <ele>176</ele>
        <time>2022-07-15T09:08:38.000Z</time>
      </trkpt>
      <trkpt lat="49.88853" lon="4.80392">
        <ele>175</ele>
        <time>2022-07-15T09:08:39.000Z</time>
      </trkpt>
      <trkpt lat="49.88855" lon="4.80395">
        <ele>175</ele>
        <time>2022-07-15T09:08:40.000Z</time>
      </trkpt>
      <trkpt lat="49.88857" lon="4.80398">
        <ele>175</ele>
        <time>2022-07-15T09:08:41.000Z</time>
      </trkpt>
      <trkpt lat="49.88859" lon="4.80399">
        <ele>174</ele>
        <time>2022-07-15T09:08:42.000Z</time>
      </trkpt>
      <trkpt lat="49.88863" lon="4.804">
        <ele>174</ele>
        <time>2022-07-15T09:08:43.000Z</time>
      </trkpt>
      <trkpt lat="49.88866" lon="4.804">
        <ele>174</ele>
        <time>2022-07-15T09:08:44.000Z</time>
      </trkpt>
      <trkpt lat="49.8887" lon="4.804">
        <ele>173</ele>
        <time>2022-07-15T09:08:45.000Z</time>
      </trkpt>
      <trkpt lat="49.88874" lon="4.80399">
        <ele>173</ele>
        <time>2022-07-15T09:08:46.000Z</time>
      </trkpt>
      <trkpt lat="49.88878" lon="4.80397">
        <ele>173</ele>
        <time>2022-07-15T09:08:47.000Z</time>
      </trkpt>
      <trkpt lat="49.88882" lon="4.80396">
        <ele>173</ele>
        <time>2022-07-15T09:08:48.000Z</time>
      </trkpt>
      <trkpt lat="49.88886" lon="4.80395">
        <ele>173</ele>
        <time>2022-07-15T09:08:49.000Z</time>
      </trkpt>
      <trkpt lat="49.8889" lon="4.80395">
        <ele>172</ele>
        <time>2022-07-15T09:08:50.000Z</time>
      </trkpt>
      <trkpt lat="49.88893" lon="4.80395">
        <ele>172</ele>
        <time>2022-07-15T09:08:51.000Z</time>
      </trkpt>
      <trkpt lat="49.88897" lon="4.80395">
        <ele>172</ele>
        <time>2022-07-15T09:08:52.000Z</time>
      </trkpt>
      <trkpt lat="49.889" lon="4.80394">
        <ele>171</ele>
        <time>2022-07-15T09:08:53.000Z</time>
      </trkpt>
      <trkpt lat="49.88903" lon="4.80393">
        <ele>171</ele>
        <time>2022-07-15T09:08:54.000Z</time>
      </trkpt>
      <trkpt lat="49.88906" lon="4.80393">
        <ele>171</ele>
        <time>2022-07-15T09:08:55.000Z</time>
      </trkpt>
      <trkpt lat="49.88909" lon="4.80392">
        <ele>170</ele>
        <time>2022-07-15T09:08:56.000Z</time>
      </trkpt>
      <trkpt lat="49.88911" lon="4.80392">
        <ele>170</ele>
        <time>2022-07-15T09:08:57.000Z</time>
      </trkpt>
      <trkpt lat="49.88913" lon="4.80391">
        <ele>170</ele>
        <time>2022-07-15T09:08:58.000Z</time>
      </trkpt>
      <trkpt lat="49.88914" lon="4.80391">
        <ele>170</ele>
        <time>2022-07-15T09:08:59.000Z</time>
      </trkpt>
      <trkpt lat="49.88913" lon="4.8039">
        <ele>169</ele>
        <time>2022-07-15T09:09:00.000Z</time>
      </trkpt>
      <trkpt lat="49.88912" lon="4.80391">
        <ele>169</ele>
        <time>2022-07-15T09:09:01.000Z</time>
      </trkpt>
      <trkpt lat="49.88911" lon="4.80391">
        <ele>169</ele>
        <time>2022-07-15T09:09:02.000Z</time>
      </trkpt>
      <trkpt lat="49.88908" lon="4.80392">
        <ele>168</ele>
        <time>2022-07-15T09:09:03.000Z</time>
      </trkpt>
      <trkpt lat="49.88905" lon="4.80393">
        <ele>168</ele>
        <time>2022-07-15T09:09:04.000Z</time>
      </trkpt>
      <trkpt lat="49.88901" lon="4.80394">
        <ele>168</ele>
        <time>2022-07-15T09:09:05.000Z</time>
      </trkpt>
      <trkpt lat="49.88897" lon="4.80395">
        <ele>168</ele>
        <time>2022-07-15T09:09:06.000Z</time>
      </trkpt>
      <trkpt lat="49.88893" lon="4.80396">
        <ele>167</ele>
        <time>2022-07-15T09:09:07.000Z</time>
      </trkpt>
      <trkpt lat="49.8889" lon="4.80396">
        <ele>167</ele>
        <time>2022-07-15T09:09:08.000Z</time>
      </trkpt>
      <trkpt lat="49.88886" lon="4.80396">
        <ele>167</ele>
        <time>2022-07-15T09:09:09.000Z</time>
      </trkpt>
      <trkpt lat="49.88883" lon="4.80396">
        <ele>166</ele>
        <time>2022-07-15T09:09:10.000Z</time>
      </trkpt>
      <trkpt lat="49.8888" lon="4.80396">
        <ele>166</ele>
        <time>2022-07-15T09:09:11.000Z</time>
      </trkpt>
      <trkpt lat="49.88877" lon="4.80396">
        <ele>166</ele>
        <time>2022-07-15T09:09:12.000Z</time>
      </trkpt>
      <trkpt lat="49.88873" lon="4.80396">
        <ele>166</ele>
        <time>2022-07-15T09:09:13.000Z</time>
      </trkpt>
      <trkpt lat="49.8887" lon="4.80396">
        <ele>165</ele>
        <time>2022-07-15T09:09:14.000Z</time>
      </trkpt>
      <trkpt lat="49.88866" lon="4.80397">
        <ele>165</ele>
        <time>2022-07-15T09:09:15.000Z</time>
      </trkpt>
      <trkpt lat="49.88863" lon="4.80397">
        <ele>165</ele>
        <time>2022-07-15T09:09:16.000Z</time>
      </trkpt>
      <trkpt lat="49.8886" lon="4.80397">
        <ele>165</ele>
        <time>2022-07-15T09:09:17.000Z</time>
      </trkpt>
      <trkpt lat="49.88857" lon="4.80398">
        <ele>164</ele>
        <time>2022-07-15T09:09:18.000Z</time>
      </trkpt>
      <trkpt lat="49.88855" lon="4.804">
        <ele>164</ele>
        <time>2022-07-15T09:09:19.000Z</time>
      </trkpt>
      <trkpt lat="49.88853" lon="4.80404">
        <ele>164</ele>
        <time>2022-07-15T09:09:20.000Z</time>
      </trkpt>
      <trkpt lat="49.88852" lon="4.80409">
        <ele>164</ele>
        <time>2022-07-15T09:09:21.000Z</time>
      </trkpt>
      <trkpt lat="49.88852" lon="4.80414">
        <ele>164</ele>
        <time>2022-07-15T09:09:22.000Z</time>
      </trkpt>
      <trkpt lat="49.88853" lon="4.80419">
        <ele>164</ele>
        <time>2022-07-15T09:09:23.000Z</time>
      </trkpt>
      <trkpt lat="49.88853" lon="4.80425">
        <ele>164</ele>
        <time>2022-07-15T09:09:24.000Z</time>
      </trkpt>
      <trkpt lat="49.88854" lon="4.80431">
        <ele>164</ele>
        <time>2022-07-15T09:09:25.000Z</time>
      </trkpt>
      <trkpt lat="49.88854" lon="4.80437">
        <ele>163</ele>
        <time>2022-07-15T09:09:26.000Z</time>
      </trkpt>
      <trkpt lat="49.88854" lon="4.80443">
        <ele>163</ele>
        <time>2022-07-15T09:09:27.000Z</time>
      </trkpt>
      <trkpt lat="49.88855" lon="4.8045">
        <ele>163</ele>
        <time>2022-07-15T09:09:28.000Z</time>
      </trkpt>
      <trkpt lat="49.88855" lon="4.80457">
        <ele>163</ele>
        <time>2022-07-15T09:09:29.000Z</time>
      </trkpt>
      <trkpt lat="49.88855" lon="4.80463">
        <ele>163</ele>
        <time>2022-07-15T09:09:30.000Z</time>
      </trkpt>
      <trkpt lat="49.88856" lon="4.8047">
        <ele>163</ele>
        <time>2022-07-15T09:09:31.000Z</time>
      </trkpt>
      <trkpt lat="49.88856" lon="4.80477">
        <ele>163</ele>
        <time>2022-07-15T09:09:32.000Z</time>
      </trkpt>
      <trkpt lat="49.88856" lon="4.80483">
        <ele>163</ele>
        <time>2022-07-15T09:09:33.000Z</time>
      </trkpt>
      <trkpt lat="49.88857" lon="4.80489">
        <ele>163</ele>
        <time>2022-07-15T09:09:34.000Z</time>
      </trkpt>
      <trkpt lat="49.88857" lon="4.80495">
        <ele>163</ele>
        <time>2022-07-15T09:09:35.000Z</time>
      </trkpt>
      <trkpt lat="49.88857" lon="4.80501">
        <ele>162</ele>
        <time>2022-07-15T09:09:36.000Z</time>
      </trkpt>
      <trkpt lat="49.88858" lon="4.80506">
        <ele>162</ele>
        <time>2022-07-15T09:09:37.000Z</time>
      </trkpt>
      <trkpt lat="49.88858" lon="4.80512">
        <ele>162</ele>
        <time>2022-07-15T09:09:38.000Z</time>
      </trkpt>
      <trkpt lat="49.88858" lon="4.80517">
        <ele>162</ele>
        <time>2022-07-15T09:09:39.000Z</time>
      </trkpt>
      <trkpt lat="49.88859" lon="4.80522">
        <ele>162</ele>
        <time>2022-07-15T09:09:40.000Z</time>
      </trkpt>
      <trkpt lat="49.88859" lon="4.80526">
        <ele>162</ele>
        <time>2022-07-15T09:09:41.000Z</time>
      </trkpt>
      <trkpt lat="49.88859" lon="4.80529">
        <ele>162</ele>
        <time>2022-07-15T09:09:42.000Z</time>
      </trkpt>
      <trkpt lat="49.88861" lon="4.80533">
        <ele>161</ele>
        <time>2022-07-15T09:09:43.000Z</time>
      </trkpt>
      <trkpt lat="49.88864" lon="4.80535">
        <ele>161</ele>
        <time>2022-07-15T09:09:44.000Z</time>
      </trkpt>
      <trkpt lat="49.88867" lon="4.80536">
        <ele>161</ele>
        <time>2022-07-15T09:09:45.000Z</time>
      </trkpt>
      <trkpt lat="49.88872" lon="4.80535">
        <ele>161</ele>
        <time>2022-07-15T09:09:46.000Z</time>
      </trkpt>
      <trkpt lat="49.88878" lon="4.80535">
        <ele>161</ele>
        <time>2022-07-15T09:09:47.000Z</time>
      </trkpt>
      <trkpt lat="49.88884" lon="4.80535">
        <ele>160</ele>
        <time>2022-07-15T09:09:48.000Z</time>
      </trkpt>
      <trkpt lat="49.8889" lon="4.80535">
        <ele>160</ele>
        <time>2022-07-15T09:09:49.000Z</time>
      </trkpt>
      <trkpt lat="49.88897" lon="4.80536">
        <ele>160</ele>
        <time>2022-07-15T09:09:50.000Z</time>
      </trkpt>
      <trkpt lat="49.88903" lon="4.80537">
        <ele>159</ele>
        <time>2022-07-15T09:09:51.000Z</time>
      </trkpt>
      <trkpt lat="49.8891" lon="4.80539">
        <ele>159</ele>
        <time>2022-07-15T09:09:52.000Z</time>
      </trkpt>
      <trkpt lat="49.88917" lon="4.8054">
        <ele>159</ele>
        <time>2022-07-15T09:09:53.000Z</time>
      </trkpt>
      <trkpt lat="49.88924" lon="4.8054">
        <ele>159</ele>
        <time>2022-07-15T09:09:54.000Z</time>
      </trkpt>
      <trkpt lat="49.88931" lon="4.8054">
        <ele>158</ele>
        <time>2022-07-15T09:09:55.000Z</time>
      </trkpt>
      <trkpt lat="49.88937" lon="4.8054">
        <ele>158</ele>
        <time>2022-07-15T09:09:56.000Z</time>
      </trkpt>
      <trkpt lat="49.88943" lon="4.80541">
        <ele>158</ele>
        <time>2022-07-15T09:09:57.000Z</time>
      </trkpt>
      <trkpt lat="49.88948" lon="4.80542">
        <ele>158</ele>
        <time>2022-07-15T09:09:58.000Z</time>
      </trkpt>
      <trkpt lat="49.88954" lon="4.80544">
        <ele>158</ele>
        <time>2022-07-15T09:09:59.000Z</time>
      </trkpt>
      <trkpt lat="49.88959" lon="4.80545">
        <ele>158</ele>
        <time>2022-07-15T09:10:00.000Z</time>
      </trkpt>
      <trkpt lat="49.88964" lon="4.80547">
        <ele>158</ele>
        <time>2022-07-15T09:10:01.000Z</time>
      </trkpt>
      <trkpt lat="49.88968" lon="4.80551">
        <ele>158</ele>
        <time>2022-07-15T09:10:02.000Z</time>
      </trkpt>
      <trkpt lat="49.88971" lon="4.80557">
        <ele>158</ele>
        <time>2022-07-15T09:10:03.000Z</time>
      </trkpt>
      <trkpt lat="49.88973" lon="4.80564">
        <ele>158</ele>
        <time>2022-07-15T09:10:04.000Z</time>
      </trkpt>
      <trkpt lat="49.88975" lon="4.80571">
        <ele>158</ele>
        <time>2022-07-15T09:10:05.000Z</time>
      </trkpt>
      <trkpt lat="49.88975" lon="4.80579">
        <ele>158</ele>
        <time>2022-07-15T09:10:06.000Z</time>
      </trkpt>
      <trkpt lat="49.88977" lon="4.80586">
        <ele>158</ele>
        <time>2022-07-15T09:10:07.000Z</time>
      </trkpt>
      <trkpt lat="49.88977" lon="4.80594">
        <ele>158</ele>
        <time>2022-07-15T09:10:08.000Z</time>
      </trkpt>
      <trkpt lat="49.88978" lon="4.80602">
        <ele>158</ele>
        <time>2022-07-15T09:10:09.000Z</time>
      </trkpt>
      <trkpt lat="49.88979" lon="4.8061">
        <ele>158</ele>
        <time>2022-07-15T09:10:10.000Z</time>
      </trkpt>
      <trkpt lat="49.88979" lon="4.80618">
        <ele>158</ele>
        <time>2022-07-15T09:10:11.000Z</time>
      </trkpt>
      <trkpt lat="49.8898" lon="4.80626">
        <ele>158</ele>
        <time>2022-07-15T09:10:12.000Z</time>
      </trkpt>
      <trkpt lat="49.8898" lon="4.80633">
        <ele>158</ele>
        <time>2022-07-15T09:10:13.000Z</time>
      </trkpt>
      <trkpt lat="49.88981" lon="4.80641">
        <ele>158</ele>
        <time>2022-07-15T09:10:14.000Z</time>
      </trkpt>
      <trkpt lat="49.88981" lon="4.80648">
        <ele>158</ele>
        <time>2022-07-15T09:10:15.000Z</time>
      </trkpt>
      <trkpt lat="49.88981" lon="4.80654">
        <ele>158</ele>
        <time>2022-07-15T09:10:16.000Z</time>
      </trkpt>
      <trkpt lat="49.88981" lon="4.80659">
        <ele>158</ele>
        <time>2022-07-15T09:10:17.000Z</time>
      </trkpt>
      <trkpt lat="49.88981" lon="4.80662">
        <ele>158</ele>
        <time>2022-07-15T09:10:18.000Z</time>
      </trkpt>
      <trkpt lat="49.88981" lon="4.80665">
        <ele>158</ele>
        <time>2022-07-15T09:10:19.000Z</time>
      </trkpt>
      <trkpt lat="49.88982" lon="4.80668">
        <ele>158</ele>
        <time>2022-07-15T09:10:20.000Z</time>
      </trkpt>
      <trkpt lat="49.88983" lon="4.80671">
        <ele>158</ele>
        <time>2022-07-15T09:10:21.000Z</time>
      </trkpt>
      <trkpt lat="49.88986" lon="4.80674">
        <ele>158</ele>
        <time>2022-07-15T09:10:22.000Z</time>
      </trkpt>
      <trkpt lat="49.88989" lon="4.80678">
        <ele>158</ele>
        <time>2022-07-15T09:10:23.000Z</time>
      </trkpt>
      <trkpt lat="49.88991" lon="4.80682">
        <ele>158</ele>
        <time>2022-07-15T09:10:24.000Z</time>
      </trkpt>
      <trkpt lat="49.88992" lon="4.80686">
        <ele>158</ele>
        <time>2022-07-15T09:10:25.000Z</time>
      </trkpt>
      <trkpt lat="49.88993" lon="4.80691">
        <ele>158</ele>
        <time>2022-07-15T09:10:26.000Z</time>
      </trkpt>
      <trkpt lat="49.88993" lon="4.80695">
        <ele>158</ele>
        <time>2022-07-15T09:10:27.000Z</time>
      </trkpt>
      <trkpt lat="49.88994" lon="4.807">
        <ele>158</ele>
        <time>2022-07-15T09:10:28.000Z</time>
      </trkpt>
      <trkpt lat="49.88994" lon="4.80705">
        <ele>158</ele>
        <time>2022-07-15T09:10:29.000Z</time>
      </trkpt>
      <trkpt lat="49.88994" lon="4.8071">
        <ele>158</ele>
        <time>2022-07-15T09:10:30.000Z</time>
      </trkpt>
      <trkpt lat="49.88994" lon="4.80715">
        <ele>159</ele>
        <time>2022-07-15T09:10:31.000Z</time>
      </trkpt>
      <trkpt lat="49.88995" lon="4.8072">
        <ele>159</ele>
        <time>2022-07-15T09:10:32.000Z</time>
      </trkpt>
      <trkpt lat="49.88995" lon="4.80724">
        <ele>159</ele>
        <time>2022-07-15T09:10:33.000Z</time>
      </trkpt>
      <trkpt lat="49.88995" lon="4.80729">
        <ele>159</ele>
        <time>2022-07-15T09:10:34.000Z</time>
      </trkpt>
      <trkpt lat="49.88995" lon="4.80733">
        <ele>160</ele>
        <time>2022-07-15T09:10:35.000Z</time>
      </trkpt>
      <trkpt lat="49.88996" lon="4.80737">
        <ele>160</ele>
        <time>2022-07-15T09:10:36.000Z</time>
      </trkpt>
      <trkpt lat="49.88996" lon="4.80742">
        <ele>160</ele>
        <time>2022-07-15T09:10:37.000Z</time>
      </trkpt>
      <trkpt lat="49.88996" lon="4.80746">
        <ele>160</ele>
        <time>2022-07-15T09:10:38.000Z</time>
      </trkpt>
      <trkpt lat="49.88996" lon="4.8075">
        <ele>160</ele>
        <time>2022-07-15T09:10:39.000Z</time>
      </trkpt>
      <trkpt lat="49.88997" lon="4.80753">
        <ele>161</ele>
        <time>2022-07-15T09:10:40.000Z</time>
      </trkpt>
      <trkpt lat="49.88998" lon="4.80757">
        <ele>161</ele>
        <time>2022-07-15T09:10:41.000Z</time>
      </trkpt>
      <trkpt lat="49.88998" lon="4.80761">
        <ele>161</ele>
        <time>2022-07-15T09:10:42.000Z</time>
      </trkpt>
      <trkpt lat="49.89" lon="4.80764">
        <ele>161</ele>
        <time>2022-07-15T09:10:43.000Z</time>
      </trkpt>
      <trkpt lat="49.89001" lon="4.80767">
        <ele>161</ele>
        <time>2022-07-15T09:10:44.000Z</time>
      </trkpt>
      <trkpt lat="49.89003" lon="4.8077">
        <ele>161</ele>
        <time>2022-07-15T09:10:45.000Z</time>
      </trkpt>
      <trkpt lat="49.89005" lon="4.80773">
        <ele>161</ele>
        <time>2022-07-15T09:10:46.000Z</time>
      </trkpt>
      <trkpt lat="49.89007" lon="4.80776">
        <ele>162</ele>
        <time>2022-07-15T09:10:47.000Z</time>
      </trkpt>
      <trkpt lat="49.89009" lon="4.80778">
        <ele>162</ele>
        <time>2022-07-15T09:10:48.000Z</time>
      </trkpt>
      <trkpt lat="49.89011" lon="4.80781">
        <ele>162</ele>
        <time>2022-07-15T09:10:49.000Z</time>
      </trkpt>
      <trkpt lat="49.89012" lon="4.80784">
        <ele>162</ele>
        <time>2022-07-15T09:10:50.000Z</time>
      </trkpt>
      <trkpt lat="49.89014" lon="4.80787">
        <ele>162</ele>
        <time>2022-07-15T09:10:51.000Z</time>
      </trkpt>
      <trkpt lat="49.89016" lon="4.8079">
        <ele>162</ele>
        <time>2022-07-15T09:10:52.000Z</time>
      </trkpt>
      <trkpt lat="49.89017" lon="4.80793">
        <ele>162</ele>
        <time>2022-07-15T09:10:53.000Z</time>
      </trkpt>
      <trkpt lat="49.89019" lon="4.80796">
        <ele>162</ele>
        <time>2022-07-15T09:10:54.000Z</time>
      </trkpt>
      <trkpt lat="49.89021" lon="4.80799">
        <ele>162</ele>
        <time>2022-07-15T09:10:55.000Z</time>
      </trkpt>
      <trkpt lat="49.89023" lon="4.80802">
        <ele>162</ele>
        <time>2022-07-15T09:10:56.000Z</time>
      </trkpt>
      <trkpt lat="49.89025" lon="4.80806">
        <ele>163</ele>
        <time>2022-07-15T09:10:57.000Z</time>
      </trkpt>
      <trkpt lat="49.89026" lon="4.80809">
        <ele>163</ele>
        <time>2022-07-15T09:10:58.000Z</time>
      </trkpt>
      <trkpt lat="49.89028" lon="4.80812">
        <ele>163</ele>
        <time>2022-07-15T09:10:59.000Z</time>
      </trkpt>
      <trkpt lat="49.89029" lon="4.80815">
        <ele>163</ele>
        <time>2022-07-15T09:11:00.000Z</time>
      </trkpt>
      <trkpt lat="49.89031" lon="4.80818">
        <ele>163</ele>
        <time>2022-07-15T09:11:01.000Z</time>
      </trkpt>
      <trkpt lat="49.89033" lon="4.80822">
        <ele>164</ele>
        <time>2022-07-15T09:11:02.000Z</time>
      </trkpt>
      <trkpt lat="49.89035" lon="4.80826">
        <ele>164</ele>
        <time>2022-07-15T09:11:03.000Z</time>
      </trkpt>
      <trkpt lat="49.89037" lon="4.80829">
        <ele>164</ele>
        <time>2022-07-15T09:11:04.000Z</time>
      </trkpt>
      <trkpt lat="49.89039" lon="4.80833">
        <ele>165</ele>
        <time>2022-07-15T09:11:05.000Z</time>
      </trkpt>
      <trkpt lat="49.8904" lon="4.80836">
        <ele>165</ele>
        <time>2022-07-15T09:11:06.000Z</time>
      </trkpt>
      <trkpt lat="49.89042" lon="4.80839">
        <ele>165</ele>
        <time>2022-07-15T09:11:07.000Z</time>
      </trkpt>
      <trkpt lat="49.89044" lon="4.80842">
        <ele>165</ele>
        <time>2022-07-15T09:11:08.000Z</time>
      </trkpt>
      <trkpt lat="49.89045" lon="4.80844">
        <ele>166</ele>
        <time>2022-07-15T09:11:09.000Z</time>
      </trkpt>
      <trkpt lat="49.89046" lon="4.80847">
        <ele>166</ele>
        <time>2022-07-15T09:11:10.000Z</time>
      </trkpt>
      <trkpt lat="49.89047" lon="4.8085">
        <ele>166</ele>
        <time>2022-07-15T09:11:11.000Z</time>
      </trkpt>
      <trkpt lat="49.89049" lon="4.80852">
        <ele>166</ele>
        <time>2022-07-15T09:11:12.000Z</time>
      </trkpt>
      <trkpt lat="49.8905" lon="4.80855">
        <ele>167</ele>
        <time>2022-07-15T09:11:13.000Z</time>
      </trkpt>
      <trkpt lat="49.8905" lon="4.80858">
        <ele>167</ele>
        <time>2022-07-15T09:11:14.000Z</time>
      </trkpt>
      <trkpt lat="49.89052" lon="4.80861">
        <ele>167</ele>
        <time>2022-07-15T09:11:15.000Z</time>
      </trkpt>
      <trkpt lat="49.89052" lon="4.80864">
        <ele>167</ele>
        <time>2022-07-15T09:11:16.000Z</time>
      </trkpt>
      <trkpt lat="49.89053" lon="4.80866">
        <ele>167</ele>
        <time>2022-07-15T09:11:17.000Z</time>
      </trkpt>
      <trkpt lat="49.89054" lon="4.8087">
        <ele>168</ele>
        <time>2022-07-15T09:11:18.000Z</time>
      </trkpt>
      <trkpt lat="49.89055" lon="4.80872">
        <ele>168</ele>
        <time>2022-07-15T09:11:19.000Z</time>
      </trkpt>
      <trkpt lat="49.89056" lon="4.80875">
        <ele>168</ele>
        <time>2022-07-15T09:11:20.000Z</time>
      </trkpt>
      <trkpt lat="49.89057" lon="4.80878">
        <ele>168</ele>
        <time>2022-07-15T09:11:21.000Z</time>
      </trkpt>
      <trkpt lat="49.89057" lon="4.8088">
        <ele>168</ele>
        <time>2022-07-15T09:11:22.000Z</time>
      </trkpt>
      <trkpt lat="49.89057" lon="4.80882">
        <ele>169</ele>
        <time>2022-07-15T09:11:23.000Z</time>
      </trkpt>
      <trkpt lat="49.89058" lon="4.80885">
        <ele>169</ele>
        <time>2022-07-15T09:11:24.000Z</time>
      </trkpt>
      <trkpt lat="49.89059" lon="4.80887">
        <ele>169</ele>
        <time>2022-07-15T09:11:25.000Z</time>
      </trkpt>
      <trkpt lat="49.8906" lon="4.80889">
        <ele>169</ele>
        <time>2022-07-15T09:11:26.000Z</time>
      </trkpt>
      <trkpt lat="49.8906" lon="4.80892">
        <ele>170</ele>
        <time>2022-07-15T09:11:27.000Z</time>
      </trkpt>
      <trkpt lat="49.89061" lon="4.80894">
        <ele>170</ele>
        <time>2022-07-15T09:11:28.000Z</time>
      </trkpt>
      <trkpt lat="49.89062" lon="4.80896">
        <ele>170</ele>
        <time>2022-07-15T09:11:29.000Z</time>
      </trkpt>
      <trkpt lat="49.89063" lon="4.80899">
        <ele>170</ele>
        <time>2022-07-15T09:11:30.000Z</time>
      </trkpt>
      <trkpt lat="49.89064" lon="4.80902">
        <ele>170</ele>
        <time>2022-07-15T09:11:31.000Z</time>
      </trkpt>
      <trkpt lat="49.89065" lon="4.80905">
        <ele>171</ele>
        <time>2022-07-15T09:11:32.000Z</time>
      </trkpt>
      <trkpt lat="49.89066" lon="4.80907">
        <ele>171</ele>
        <time>2022-07-15T09:11:33.000Z</time>
      </trkpt>
      <trkpt lat="49.89066" lon="4.80909">
        <ele>171</ele>
        <time>2022-07-15T09:11:34.000Z</time>
      </trkpt>
      <trkpt lat="49.89067" lon="4.80912">
        <ele>171</ele>
        <time>2022-07-15T09:11:35.000Z</time>
      </trkpt>
      <trkpt lat="49.89068" lon="4.80914">
        <ele>172</ele>
        <time>2022-07-15T09:11:36.000Z</time>
      </trkpt>
      <trkpt lat="49.89069" lon="4.80917">
        <ele>172</ele>
        <time>2022-07-15T09:11:37.000Z</time>
      </trkpt>
      <trkpt lat="49.89069" lon="4.8092">
        <ele>172</ele>
        <time>2022-07-15T09:11:38.000Z</time>
      </trkpt>
      <trkpt lat="49.89069" lon="4.80922">
        <ele>173</ele>
        <time>2022-07-15T09:11:39.000Z</time>
      </trkpt>
      <trkpt lat="49.8907" lon="4.80926">
        <ele>173</ele>
        <time>2022-07-15T09:11:40.000Z</time>
      </trkpt>
      <trkpt lat="49.89071" lon="4.80928">
        <ele>173</ele>
        <time>2022-07-15T09:11:41.000Z</time>
      </trkpt>
      <trkpt lat="49.89071" lon="4.80931">
        <ele>174</ele>
        <time>2022-07-15T09:11:42.000Z</time>
      </trkpt>
      <trkpt lat="49.89072" lon="4.80934">
        <ele>174</ele>
        <time>2022-07-15T09:11:43.000Z</time>
      </trkpt>
      <trkpt lat="49.89073" lon="4.80937">
        <ele>174</ele>
        <time>2022-07-15T09:11:44.000Z</time>
      </trkpt>
      <trkpt lat="49.89074" lon="4.80941">
        <ele>175</ele>
        <time>2022-07-15T09:11:45.000Z</time>
      </trkpt>
      <trkpt lat="49.89075" lon="4.80944">
        <ele>175</ele>
        <time>2022-07-15T09:11:46.000Z</time>
      </trkpt>
      <trkpt lat="49.89076" lon="4.80948">
        <ele>175</ele>
        <time>2022-07-15T09:11:47.000Z</time>
      </trkpt>
      <trkpt lat="49.89077" lon="4.80951">
        <ele>175</ele>
        <time>2022-07-15T09:11:48.000Z</time>
      </trkpt>
      <trkpt lat="49.89078" lon="4.80955">
        <ele>176</ele>
        <time>2022-07-15T09:11:49.000Z</time>
      </trkpt>
      <trkpt lat="49.89079" lon="4.80958">
        <ele>176</ele>
        <time>2022-07-15T09:11:50.000Z</time>
      </trkpt>
      <trkpt lat="49.8908" lon="4.80961">
        <ele>176</ele>
        <time>2022-07-15T09:11:51.000Z</time>
      </trkpt>
      <trkpt lat="49.8908" lon="4.80964">
        <ele>176</ele>
        <time>2022-07-15T09:11:52.000Z</time>
      </trkpt>
      <trkpt lat="49.8908" lon="4.80968">
        <ele>177</ele>
        <time>2022-07-15T09:11:53.000Z</time>
      </trkpt>
      <trkpt lat="49.89081" lon="4.80971">
        <ele>177</ele>
        <time>2022-07-15T09:11:54.000Z</time>
      </trkpt>
      <trkpt lat="49.89082" lon="4.80974">
        <ele>177</ele>
        <time>2022-07-15T09:11:55.000Z</time>
      </trkpt>
      <trkpt lat="49.89082" lon="4.80977">
        <ele>177</ele>
        <time>2022-07-15T09:11:56.000Z</time>
      </trkpt>
      <trkpt lat="49.89083" lon="4.8098">
        <ele>178</ele>
        <time>2022-07-15T09:11:57.000Z</time>
      </trkpt>
      <trkpt lat="49.89084" lon="4.80983">
        <ele>178</ele>
        <time>2022-07-15T09:11:58.000Z</time>
      </trkpt>
      <trkpt lat="49.89085" lon="4.80986">
        <ele>178</ele>
        <time>2022-07-15T09:11:59.000Z</time>
      </trkpt>
      <trkpt lat="49.89086" lon="4.80989">
        <ele>178</ele>
        <time>2022-07-15T09:12:00.000Z</time>
      </trkpt>
      <trkpt lat="49.89086" lon="4.80992">
        <ele>178</ele>
        <time>2022-07-15T09:12:01.000Z</time>
      </trkpt>
      <trkpt lat="49.89087" lon="4.80995">
        <ele>178</ele>
        <time>2022-07-15T09:12:02.000Z</time>
      </trkpt>
      <trkpt lat="49.89087" lon="4.80999">
        <ele>179</ele>
        <time>2022-07-15T09:12:03.000Z</time>
      </trkpt>
      <trkpt lat="49.89088" lon="4.81003">
        <ele>179</ele>
        <time>2022-07-15T09:12:04.000Z</time>
      </trkpt>
      <trkpt lat="49.89089" lon="4.81007">
        <ele>179</ele>
        <time>2022-07-15T09:12:05.000Z</time>
      </trkpt>
      <trkpt lat="49.89089" lon="4.8101">
        <ele>179</ele>
        <time>2022-07-15T09:12:06.000Z</time>
      </trkpt>
      <trkpt lat="49.8909" lon="4.81013">
        <ele>180</ele>
        <time>2022-07-15T09:12:07.000Z</time>
      </trkpt>
      <trkpt lat="49.8909" lon="4.81017">
        <ele>180</ele>
        <time>2022-07-15T09:12:08.000Z</time>
      </trkpt>
      <trkpt lat="49.89091" lon="4.81022">
        <ele>180</ele>
        <time>2022-07-15T09:12:09.000Z</time>
      </trkpt>
      <trkpt lat="49.89091" lon="4.81027">
        <ele>181</ele>
        <time>2022-07-15T09:12:10.000Z</time>
      </trkpt>
      <trkpt lat="49.89092" lon="4.81032">
        <ele>181</ele>
        <time>2022-07-15T09:12:11.000Z</time>
      </trkpt>
      <trkpt lat="49.89092" lon="4.81036">
        <ele>181</ele>
        <time>2022-07-15T09:12:12.000Z</time>
      </trkpt>
      <trkpt lat="49.89093" lon="4.8104">
        <ele>182</ele>
        <time>2022-07-15T09:12:13.000Z</time>
      </trkpt>
      <trkpt lat="49.89093" lon="4.81045">
        <ele>182</ele>
        <time>2022-07-15T09:12:14.000Z</time>
      </trkpt>
      <trkpt lat="49.89093" lon="4.81049">
        <ele>182</ele>
        <time>2022-07-15T09:12:15.000Z</time>
      </trkpt>
      <trkpt lat="49.89093" lon="4.81053">
        <ele>182</ele>
        <time>2022-07-15T09:12:16.000Z</time>
      </trkpt>
      <trkpt lat="49.89094" lon="4.81057">
        <ele>183</ele>
        <time>2022-07-15T09:12:17.000Z</time>
      </trkpt>
      <trkpt lat="49.89094" lon="4.81061">
        <ele>183</ele>
        <time>2022-07-15T09:12:18.000Z</time>
      </trkpt>
      <trkpt lat="49.89094" lon="4.81066">
        <ele>183</ele>
        <time>2022-07-15T09:12:19.000Z</time>
      </trkpt>
      <trkpt lat="49.89094" lon="4.81071">
        <ele>183</ele>
        <time>2022-07-15T09:12:20.000Z</time>
      </trkpt>
      <trkpt lat="49.89093" lon="4.81076">
        <ele>183</ele>
        <time>2022-07-15T09:12:21.000Z</time>
      </trkpt>
      <trkpt lat="49.89092" lon="4.81081">
        <ele>184</ele>
        <time>2022-07-15T09:12:22.000Z</time>
      </trkpt>
      <trkpt lat="49.89091" lon="4.81086">
        <ele>184</ele>
        <time>2022-07-15T09:12:23.000Z</time>
      </trkpt>
      <trkpt lat="49.89089" lon="4.8109">
        <ele>184</ele>
        <time>2022-07-15T09:12:24.000Z</time>
      </trkpt>
      <trkpt lat="49.89087" lon="4.81094">
        <ele>184</ele>
        <time>2022-07-15T09:12:25.000Z</time>
      </trkpt>
      <trkpt lat="49.89085" lon="4.81098">
        <ele>184</ele>
        <time>2022-07-15T09:12:26.000Z</time>
      </trkpt>
      <trkpt lat="49.89082" lon="4.81101">
        <ele>185</ele>
        <time>2022-07-15T09:12:27.000Z</time>
      </trkpt>
      <trkpt lat="49.89079" lon="4.81104">
        <ele>185</ele>
        <time>2022-07-15T09:12:28.000Z</time>
      </trkpt>
      <trkpt lat="49.89077" lon="4.81106">
        <ele>185</ele>
        <time>2022-07-15T09:12:29.000Z</time>
      </trkpt>
      <trkpt lat="49.89074" lon="4.81108">
        <ele>185</ele>
        <time>2022-07-15T09:12:30.000Z</time>
      </trkpt>
      <trkpt lat="49.89072" lon="4.8111">
        <ele>185</ele>
        <time>2022-07-15T09:12:31.000Z</time>
      </trkpt>
      <trkpt lat="49.89069" lon="4.81112">
        <ele>186</ele>
        <time>2022-07-15T09:12:32.000Z</time>
      </trkpt>
      <trkpt lat="49.89066" lon="4.81114">
        <ele>186</ele>
        <time>2022-07-15T09:12:33.000Z</time>
      </trkpt>
      <trkpt lat="49.89064" lon="4.81116">
        <ele>186</ele>
        <time>2022-07-15T09:12:34.000Z</time>
      </trkpt>
      <trkpt lat="49.89061" lon="4.81118">
        <ele>186</ele>
        <time>2022-07-15T09:12:35.000Z</time>
      </trkpt>
      <trkpt lat="49.8906" lon="4.8112">
        <ele>187</ele>
        <time>2022-07-15T09:12:36.000Z</time>
      </trkpt>
      <trkpt lat="49.89058" lon="4.81121">
        <ele>187</ele>
        <time>2022-07-15T09:12:37.000Z</time>
      </trkpt>
      <trkpt lat="49.89056" lon="4.81122">
        <ele>187</ele>
        <time>2022-07-15T09:12:38.000Z</time>
      </trkpt>
      <trkpt lat="49.89054" lon="4.81123">
        <ele>187</ele>
        <time>2022-07-15T09:12:39.000Z</time>
      </trkpt>
      <trkpt lat="49.89052" lon="4.81125">
        <ele>188</ele>
        <time>2022-07-15T09:12:40.000Z</time>
      </trkpt>
      <trkpt lat="49.8905" lon="4.81126">
        <ele>188</ele>
        <time>2022-07-15T09:12:41.000Z</time>
      </trkpt>
      <trkpt lat="49.89048" lon="4.81127">
        <ele>188</ele>
        <time>2022-07-15T09:12:42.000Z</time>
      </trkpt>
      <trkpt lat="49.89046" lon="4.81128">
        <ele>188</ele>
        <time>2022-07-15T09:12:43.000Z</time>
      </trkpt>
      <trkpt lat="49.89044" lon="4.81129">
        <ele>189</ele>
        <time>2022-07-15T09:12:44.000Z</time>
      </trkpt>
      <trkpt lat="49.89042" lon="4.81131">
        <ele>189</ele>
        <time>2022-07-15T09:12:45.000Z</time>
      </trkpt>
      <trkpt lat="49.8904" lon="4.81133">
        <ele>189</ele>
        <time>2022-07-15T09:12:46.000Z</time>
      </trkpt>
      <trkpt lat="49.89038" lon="4.81134">
        <ele>189</ele>
        <time>2022-07-15T09:12:47.000Z</time>
      </trkpt>
      <trkpt lat="49.89035" lon="4.81135">
        <ele>190</ele>
        <time>2022-07-15T09:12:48.000Z</time>
      </trkpt>
      <trkpt lat="49.89033" lon="4.81137">
        <ele>190</ele>
        <time>2022-07-15T09:12:49.000Z</time>
      </trkpt>
      <trkpt lat="49.89031" lon="4.81139">
        <ele>190</ele>
        <time>2022-07-15T09:12:50.000Z</time>
      </trkpt>
      <trkpt lat="49.89029" lon="4.81142">
        <ele>190</ele>
        <time>2022-07-15T09:12:51.000Z</time>
      </trkpt>
      <trkpt lat="49.89027" lon="4.81144">
        <ele>191</ele>
        <time>2022-07-15T09:12:52.000Z</time>
      </trkpt>
      <trkpt lat="49.89025" lon="4.81146">
        <ele>191</ele>
        <time>2022-07-15T09:12:53.000Z</time>
      </trkpt>
      <trkpt lat="49.89023" lon="4.81148">
        <ele>191</ele>
        <time>2022-07-15T09:12:54.000Z</time>
      </trkpt>
      <trkpt lat="49.89022" lon="4.8115">
        <ele>191</ele>
        <time>2022-07-15T09:12:55.000Z</time>
      </trkpt>
      <trkpt lat="49.8902" lon="4.81152">
        <ele>191</ele>
        <time>2022-07-15T09:12:56.000Z</time>
      </trkpt>
      <trkpt lat="49.89018" lon="4.81154">
        <ele>191</ele>
        <time>2022-07-15T09:12:57.000Z</time>
      </trkpt>
      <trkpt lat="49.89017" lon="4.81156">
        <ele>192</ele>
        <time>2022-07-15T09:12:58.000Z</time>
      </trkpt>
      <trkpt lat="49.89015" lon="4.81158">
        <ele>192</ele>
        <time>2022-07-15T09:12:59.000Z</time>
      </trkpt>
      <trkpt lat="49.89014" lon="4.81159">
        <ele>192</ele>
        <time>2022-07-15T09:13:00.000Z</time>
      </trkpt>
      <trkpt lat="49.89012" lon="4.8116">
        <ele>192</ele>
        <time>2022-07-15T09:13:01.000Z</time>
      </trkpt>
      <trkpt lat="49.8901" lon="4.81162">
        <ele>193</ele>
        <time>2022-07-15T09:13:02.000Z</time>
      </trkpt>
      <trkpt lat="49.89008" lon="4.81164">
        <ele>193</ele>
        <time>2022-07-15T09:13:03.000Z</time>
      </trkpt>
      <trkpt lat="49.89006" lon="4.81166">
        <ele>193</ele>
        <time>2022-07-15T09:13:04.000Z</time>
      </trkpt>
      <trkpt lat="49.89004" lon="4.81168">
        <ele>193</ele>
        <time>2022-07-15T09:13:05.000Z</time>
      </trkpt>
      <trkpt lat="49.89002" lon="4.81171">
        <ele>194</ele>
        <time>2022-07-15T09:13:06.000Z</time>
      </trkpt>
      <trkpt lat="49.89" lon="4.81173">
        <ele>194</ele>
        <time>2022-07-15T09:13:07.000Z</time>
      </trkpt>
      <trkpt lat="49.88999" lon="4.81175">
        <ele>194</ele>
        <time>2022-07-15T09:13:08.000Z</time>
      </trkpt>
      <trkpt lat="49.88997" lon="4.81177">
        <ele>194</ele>
        <time>2022-07-15T09:13:09.000Z</time>
      </trkpt>
      <trkpt lat="49.88994" lon="4.81179">
        <ele>195</ele>
        <time>2022-07-15T09:13:10.000Z</time>
      </trkpt>
      <trkpt lat="49.88992" lon="4.81181">
        <ele>195</ele>
        <time>2022-07-15T09:13:11.000Z</time>
      </trkpt>
      <trkpt lat="49.88991" lon="4.81182">
        <ele>195</ele>
        <time>2022-07-15T09:13:12.000Z</time>
      </trkpt>
      <trkpt lat="49.88988" lon="4.81184">
        <ele>196</ele>
        <time>2022-07-15T09:13:13.000Z</time>
      </trkpt>
      <trkpt lat="49.88986" lon="4.81185">
        <ele>196</ele>
        <time>2022-07-15T09:13:14.000Z</time>
      </trkpt>
      <trkpt lat="49.88984" lon="4.81187">
        <ele>196</ele>
        <time>2022-07-15T09:13:15.000Z</time>
      </trkpt>
      <trkpt lat="49.88982" lon="4.81188">
        <ele>197</ele>
        <time>2022-07-15T09:13:16.000Z</time>
      </trkpt>
      <trkpt lat="49.8898" lon="4.81189">
        <ele>197</ele>
        <time>2022-07-15T09:13:17.000Z</time>
      </trkpt>
      <trkpt lat="49.88978" lon="4.81192">
        <ele>198</ele>
        <time>2022-07-15T09:13:18.000Z</time>
      </trkpt>
      <trkpt lat="49.88975" lon="4.81194">
        <ele>198</ele>
        <time>2022-07-15T09:13:19.000Z</time>
      </trkpt>
      <trkpt lat="49.88973" lon="4.81196">
        <ele>198</ele>
        <time>2022-07-15T09:13:20.000Z</time>
      </trkpt>
      <trkpt lat="49.88971" lon="4.81198">
        <ele>199</ele>
        <time>2022-07-15T09:13:21.000Z</time>
      </trkpt>
      <trkpt lat="49.88969" lon="4.81201">
        <ele>199</ele>
        <time>2022-07-15T09:13:22.000Z</time>
      </trkpt>
      <trkpt lat="49.88968" lon="4.81204">
        <ele>199</ele>
        <time>2022-07-15T09:13:23.000Z</time>
      </trkpt>
      <trkpt lat="49.88965" lon="4.81206">
        <ele>200</ele>
        <time>2022-07-15T09:13:24.000Z</time>
      </trkpt>
      <trkpt lat="49.88963" lon="4.81209">
        <ele>200</ele>
        <time>2022-07-15T09:13:25.000Z</time>
      </trkpt>
      <trkpt lat="49.88961" lon="4.81213">
        <ele>200</ele>
        <time>2022-07-15T09:13:26.000Z</time>
      </trkpt>
      <trkpt lat="49.88959" lon="4.81216">
        <ele>201</ele>
        <time>2022-07-15T09:13:27.000Z</time>
      </trkpt>
      <trkpt lat="49.88957" lon="4.81218">
        <ele>201</ele>
        <time>2022-07-15T09:13:28.000Z</time>
      </trkpt>
      <trkpt lat="49.88954" lon="4.81221">
        <ele>201</ele>
        <time>2022-07-15T09:13:29.000Z</time>
      </trkpt>
      <trkpt lat="49.88952" lon="4.81224">
        <ele>201</ele>
        <time>2022-07-15T09:13:30.000Z</time>
      </trkpt>
      <trkpt lat="49.8895" lon="4.81227">
        <ele>201</ele>
        <time>2022-07-15T09:13:31.000Z</time>
      </trkpt>
      <trkpt lat="49.88948" lon="4.8123">
        <ele>202</ele>
        <time>2022-07-15T09:13:32.000Z</time>
      </trkpt>
      <trkpt lat="49.88945" lon="4.81232">
        <ele>202</ele>
        <time>2022-07-15T09:13:33.000Z</time>
      </trkpt>
      <trkpt lat="49.88943" lon="4.81235">
        <ele>202</ele>
        <time>2022-07-15T09:13:34.000Z</time>
      </trkpt>
      <trkpt lat="49.88941" lon="4.81237">
        <ele>202</ele>
        <time>2022-07-15T09:13:35.000Z</time>
      </trkpt>
      <trkpt lat="49.88938" lon="4.8124">
        <ele>202</ele>
        <time>2022-07-15T09:13:36.000Z</time>
      </trkpt>
      <trkpt lat="49.88935" lon="4.81242">
        <ele>202</ele>
        <time>2022-07-15T09:13:37.000Z</time>
      </trkpt>
      <trkpt lat="49.88933" lon="4.81245">
        <ele>202</ele>
        <time>2022-07-15T09:13:38.000Z</time>
      </trkpt>
      <trkpt lat="49.8893" lon="4.81247">
        <ele>203</ele>
        <time>2022-07-15T09:13:39.000Z</time>
      </trkpt>
      <trkpt lat="49.88928" lon="4.8125">
        <ele>203</ele>
        <time>2022-07-15T09:13:40.000Z</time>
      </trkpt>
      <trkpt lat="49.88925" lon="4.81252">
        <ele>203</ele>
        <time>2022-07-15T09:13:41.000Z</time>
      </trkpt>
      <trkpt lat="49.88923" lon="4.81254">
        <ele>203</ele>
        <time>2022-07-15T09:13:42.000Z</time>
      </trkpt>
      <trkpt lat="49.88921" lon="4.81256">
        <ele>204</ele>
        <time>2022-07-15T09:13:43.000Z</time>
      </trkpt>
      <trkpt lat="49.88918" lon="4.81258">
        <ele>204</ele>
        <time>2022-07-15T09:13:44.000Z</time>
      </trkpt>
      <trkpt lat="49.88917" lon="4.81261">
        <ele>204</ele>
        <time>2022-07-15T09:13:45.000Z</time>
      </trkpt>
      <trkpt lat="49.88914" lon="4.81263">
        <ele>205</ele>
        <time>2022-07-15T09:13:46.000Z</time>
      </trkpt>
      <trkpt lat="49.88912" lon="4.81265">
        <ele>205</ele>
        <time>2022-07-15T09:13:47.000Z</time>
      </trkpt>
      <trkpt lat="49.8891" lon="4.81266">
        <ele>205</ele>
        <time>2022-07-15T09:13:48.000Z</time>
      </trkpt>
      <trkpt lat="49.88907" lon="4.81266">
        <ele>205</ele>
        <time>2022-07-15T09:13:49.000Z</time>
      </trkpt>
      <trkpt lat="49.88905" lon="4.81268">
        <ele>205</ele>
        <time>2022-07-15T09:13:50.000Z</time>
      </trkpt>
      <trkpt lat="49.88903" lon="4.81269">
        <ele>206</ele>
        <time>2022-07-15T09:13:51.000Z</time>
      </trkpt>
      <trkpt lat="49.889" lon="4.8127">
        <ele>206</ele>
        <time>2022-07-15T09:13:52.000Z</time>
      </trkpt>
      <trkpt lat="49.88898" lon="4.81271">
        <ele>206</ele>
        <time>2022-07-15T09:13:53.000Z</time>
      </trkpt>
      <trkpt lat="49.88895" lon="4.81273">
        <ele>206</ele>
        <time>2022-07-15T09:13:54.000Z</time>
      </trkpt>
      <trkpt lat="49.88892" lon="4.81274">
        <ele>207</ele>
        <time>2022-07-15T09:13:55.000Z</time>
      </trkpt>
      <trkpt lat="49.8889" lon="4.81275">
        <ele>207</ele>
        <time>2022-07-15T09:13:56.000Z</time>
      </trkpt>
      <trkpt lat="49.88888" lon="4.81276">
        <ele>207</ele>
        <time>2022-07-15T09:13:57.000Z</time>
      </trkpt>
      <trkpt lat="49.88886" lon="4.81278">
        <ele>207</ele>
        <time>2022-07-15T09:13:58.000Z</time>
      </trkpt>
      <trkpt lat="49.88884" lon="4.81278">
        <ele>208</ele>
        <time>2022-07-15T09:13:59.000Z</time>
      </trkpt>
      <trkpt lat="49.88882" lon="4.81279">
        <ele>208</ele>
        <time>2022-07-15T09:14:00.000Z</time>
      </trkpt>
      <trkpt lat="49.88881" lon="4.8128">
        <ele>208</ele>
        <time>2022-07-15T09:14:01.000Z</time>
      </trkpt>
      <trkpt lat="49.8888" lon="4.81281">
        <ele>208</ele>
        <time>2022-07-15T09:14:02.000Z</time>
      </trkpt>
      <trkpt lat="49.88879" lon="4.81282">
        <ele>208</ele>
        <time>2022-07-15T09:14:03.000Z</time>
      </trkpt>
      <trkpt lat="49.88877" lon="4.81283">
        <ele>209</ele>
        <time>2022-07-15T09:14:04.000Z</time>
      </trkpt>
      <trkpt lat="49.88876" lon="4.81284">
        <ele>209</ele>
        <time>2022-07-15T09:14:05.000Z</time>
      </trkpt>
      <trkpt lat="49.88875" lon="4.81285">
        <ele>209</ele>
        <time>2022-07-15T09:14:06.000Z</time>
      </trkpt>
      <trkpt lat="49.88873" lon="4.81286">
        <ele>209</ele>
        <time>2022-07-15T09:14:07.000Z</time>
      </trkpt>
      <trkpt lat="49.88872" lon="4.81287">
        <ele>209</ele>
        <time>2022-07-15T09:14:08.000Z</time>
      </trkpt>
      <trkpt lat="49.8887" lon="4.81288">
        <ele>209</ele>
        <time>2022-07-15T09:14:09.000Z</time>
      </trkpt>
      <trkpt lat="49.88868" lon="4.81289">
        <ele>210</ele>
        <time>2022-07-15T09:14:10.000Z</time>
      </trkpt>
      <trkpt lat="49.88866" lon="4.8129">
        <ele>210</ele>
        <time>2022-07-15T09:14:11.000Z</time>
      </trkpt>
      <trkpt lat="49.88864" lon="4.8129">
        <ele>210</ele>
        <time>2022-07-15T09:14:12.000Z</time>
      </trkpt>
      <trkpt lat="49.88863" lon="4.81291">
        <ele>210</ele>
        <time>2022-07-15T09:14:13.000Z</time>
      </trkpt>
      <trkpt lat="49.88861" lon="4.81292">
        <ele>210</ele>
        <time>2022-07-15T09:14:14.000Z</time>
      </trkpt>
      <trkpt lat="49.88859" lon="4.81293">
        <ele>210</ele>
        <time>2022-07-15T09:14:15.000Z</time>
      </trkpt>
      <trkpt lat="49.88858" lon="4.81294">
        <ele>210</ele>
        <time>2022-07-15T09:14:16.000Z</time>
      </trkpt>
      <trkpt lat="49.88856" lon="4.81295">
        <ele>211</ele>
        <time>2022-07-15T09:14:17.000Z</time>
      </trkpt>
      <trkpt lat="49.88855" lon="4.81295">
        <ele>211</ele>
        <time>2022-07-15T09:14:18.000Z</time>
      </trkpt>
      <trkpt lat="49.88853" lon="4.81297">
        <ele>211</ele>
        <time>2022-07-15T09:14:19.000Z</time>
      </trkpt>
      <trkpt lat="49.88852" lon="4.81298">
        <ele>211</ele>
        <time>2022-07-15T09:14:20.000Z</time>
      </trkpt>
      <trkpt lat="49.88851" lon="4.81299">
        <ele>212</ele>
        <time>2022-07-15T09:14:21.000Z</time>
      </trkpt>
      <trkpt lat="49.88849" lon="4.813">
        <ele>212</ele>
        <time>2022-07-15T09:14:22.000Z</time>
      </trkpt>
      <trkpt lat="49.88847" lon="4.81301">
        <ele>212</ele>
        <time>2022-07-15T09:14:23.000Z</time>
      </trkpt>
      <trkpt lat="49.88845" lon="4.81302">
        <ele>213</ele>
        <time>2022-07-15T09:14:24.000Z</time>
      </trkpt>
      <trkpt lat="49.88844" lon="4.81304">
        <ele>213</ele>
        <time>2022-07-15T09:14:25.000Z</time>
      </trkpt>
      <trkpt lat="49.88842" lon="4.81306">
        <ele>213</ele>
        <time>2022-07-15T09:14:26.000Z</time>
      </trkpt>
      <trkpt lat="49.8884" lon="4.81308">
        <ele>214</ele>
        <time>2022-07-15T09:14:27.000Z</time>
      </trkpt>
      <trkpt lat="49.88838" lon="4.8131">
        <ele>214</ele>
        <time>2022-07-15T09:14:28.000Z</time>
      </trkpt>
      <trkpt lat="49.88836" lon="4.81312">
        <ele>214</ele>
        <time>2022-07-15T09:14:29.000Z</time>
      </trkpt>
      <trkpt lat="49.88834" lon="4.81314">
        <ele>215</ele>
        <time>2022-07-15T09:14:30.000Z</time>
      </trkpt>
      <trkpt lat="49.88832" lon="4.81316">
        <ele>215</ele>
        <time>2022-07-15T09:14:31.000Z</time>
      </trkpt>
      <trkpt lat="49.8883" lon="4.81318">
        <ele>216</ele>
        <time>2022-07-15T09:14:32.000Z</time>
      </trkpt>
      <trkpt lat="49.88828" lon="4.81319">
        <ele>216</ele>
        <time>2022-07-15T09:14:33.000Z</time>
      </trkpt>
      <trkpt lat="49.88826" lon="4.81321">
        <ele>217</ele>
        <time>2022-07-15T09:14:34.000Z</time>
      </trkpt>
      <trkpt lat="49.88824" lon="4.81322">
        <ele>217</ele>
        <time>2022-07-15T09:14:35.000Z</time>
      </trkpt>
      <trkpt lat="49.88822" lon="4.81325">
        <ele>217</ele>
        <time>2022-07-15T09:14:36.000Z</time>
      </trkpt>
      <trkpt lat="49.8882" lon="4.81327">
        <ele>218</ele>
        <time>2022-07-15T09:14:37.000Z</time>
      </trkpt>
      <trkpt lat="49.88818" lon="4.8133">
        <ele>218</ele>
        <time>2022-07-15T09:14:38.000Z</time>
      </trkpt>
      <trkpt lat="49.88816" lon="4.81332">
        <ele>218</ele>
        <time>2022-07-15T09:14:39.000Z</time>
      </trkpt>
      <trkpt lat="49.88814" lon="4.81334">
        <ele>219</ele>
        <time>2022-07-15T09:14:40.000Z</time>
      </trkpt>
      <trkpt lat="49.88812" lon="4.81336">
        <ele>219</ele>
        <time>2022-07-15T09:14:41.000Z</time>
      </trkpt>
      <trkpt lat="49.8881" lon="4.81338">
        <ele>219</ele>
        <time>2022-07-15T09:14:42.000Z</time>
      </trkpt>
      <trkpt lat="49.88808" lon="4.8134">
        <ele>220</ele>
        <time>2022-07-15T09:14:43.000Z</time>
      </trkpt>
      <trkpt lat="49.88806" lon="4.81343">
        <ele>220</ele>
        <time>2022-07-15T09:14:44.000Z</time>
      </trkpt>
      <trkpt lat="49.88804" lon="4.81345">
        <ele>220</ele>
        <time>2022-07-15T09:14:45.000Z</time>
      </trkpt>
      <trkpt lat="49.88802" lon="4.81346">
        <ele>220</ele>
        <time>2022-07-15T09:14:46.000Z</time>
      </trkpt>
      <trkpt lat="49.888" lon="4.81348">
        <ele>221</ele>
        <time>2022-07-15T09:14:47.000Z</time>
      </trkpt>
      <trkpt lat="49.88798" lon="4.8135">
        <ele>221</ele>
        <time>2022-07-15T09:14:48.000Z</time>
      </trkpt>
      <trkpt lat="49.88796" lon="4.81351">
        <ele>221</ele>
        <time>2022-07-15T09:14:49.000Z</time>
      </trkpt>
      <trkpt lat="49.88794" lon="4.81354">
        <ele>222</ele>
        <time>2022-07-15T09:14:50.000Z</time>
      </trkpt>
      <trkpt lat="49.88792" lon="4.81357">
        <ele>222</ele>
        <time>2022-07-15T09:14:51.000Z</time>
      </trkpt>
      <trkpt lat="49.8879" lon="4.8136">
        <ele>222</ele>
        <time>2022-07-15T09:14:52.000Z</time>
      </trkpt>
      <trkpt lat="49.88788" lon="4.81363">
        <ele>222</ele>
        <time>2022-07-15T09:14:53.000Z</time>
      </trkpt>
      <trkpt lat="49.88785" lon="4.81366">
        <ele>223</ele>
        <time>2022-07-15T09:14:54.000Z</time>
      </trkpt>
      <trkpt lat="49.88783" lon="4.81368">
        <ele>223</ele>
        <time>2022-07-15T09:14:55.000Z</time>
      </trkpt>
      <trkpt lat="49.88781" lon="4.81371">
        <ele>223</ele>
        <time>2022-07-15T09:14:56.000Z</time>
      </trkpt>
      <trkpt lat="49.88779" lon="4.81374">
        <ele>224</ele>
        <time>2022-07-15T09:14:57.000Z</time>
      </trkpt>
      <trkpt lat="49.88776" lon="4.81377">
        <ele>224</ele>
        <time>2022-07-15T09:14:58.000Z</time>
      </trkpt>
      <trkpt lat="49.88774" lon="4.81379">
        <ele>224</ele>
        <time>2022-07-15T09:14:59.000Z</time>
      </trkpt>
      <trkpt lat="49.88772" lon="4.81381">
        <ele>225</ele>
        <time>2022-07-15T09:15:00.000Z</time>
      </trkpt>
      <trkpt lat="49.88769" lon="4.81383">
        <ele>225</ele>
        <time>2022-07-15T09:15:01.000Z</time>
      </trkpt>
      <trkpt lat="49.88766" lon="4.81385">
        <ele>225</ele>
        <time>2022-07-15T09:15:02.000Z</time>
      </trkpt>
      <trkpt lat="49.88764" lon="4.81387">
        <ele>226</ele>
        <time>2022-07-15T09:15:03.000Z</time>
      </trkpt>
      <trkpt lat="49.88761" lon="4.81389">
        <ele>226</ele>
        <time>2022-07-15T09:15:04.000Z</time>
      </trkpt>
      <trkpt lat="49.88759" lon="4.81392">
        <ele>226</ele>
        <time>2022-07-15T09:15:05.000Z</time>
      </trkpt>
      <trkpt lat="49.88757" lon="4.81394">
        <ele>226</ele>
        <time>2022-07-15T09:15:06.000Z</time>
      </trkpt>
      <trkpt lat="49.88755" lon="4.81396">
        <ele>226</ele>
        <time>2022-07-15T09:15:07.000Z</time>
      </trkpt>
      <trkpt lat="49.88753" lon="4.81399">
        <ele>226</ele>
        <time>2022-07-15T09:15:08.000Z</time>
      </trkpt>
      <trkpt lat="49.8875" lon="4.81402">
        <ele>226</ele>
        <time>2022-07-15T09:15:09.000Z</time>
      </trkpt>
      <trkpt lat="49.88747" lon="4.81405">
        <ele>227</ele>
        <time>2022-07-15T09:15:10.000Z</time>
      </trkpt>
      <trkpt lat="49.88744" lon="4.81408">
        <ele>227</ele>
        <time>2022-07-15T09:15:11.000Z</time>
      </trkpt>
      <trkpt lat="49.88742" lon="4.81411">
        <ele>227</ele>
        <time>2022-07-15T09:15:12.000Z</time>
      </trkpt>
      <trkpt lat="49.88739" lon="4.81413">
        <ele>227</ele>
        <time>2022-07-15T09:15:13.000Z</time>
      </trkpt>
      <trkpt lat="49.88737" lon="4.81416">
        <ele>227</ele>
        <time>2022-07-15T09:15:14.000Z</time>
      </trkpt>
      <trkpt lat="49.88734" lon="4.81418">
        <ele>228</ele>
        <time>2022-07-15T09:15:15.000Z</time>
      </trkpt>
      <trkpt lat="49.88731" lon="4.81421">
        <ele>228</ele>
        <time>2022-07-15T09:15:16.000Z</time>
      </trkpt>
      <trkpt lat="49.88729" lon="4.81423">
        <ele>228</ele>
        <time>2022-07-15T09:15:17.000Z</time>
      </trkpt>
      <trkpt lat="49.88726" lon="4.81425">
        <ele>228</ele>
        <time>2022-07-15T09:15:18.000Z</time>
      </trkpt>
      <trkpt lat="49.88723" lon="4.81427">
        <ele>229</ele>
        <time>2022-07-15T09:15:19.000Z</time>
      </trkpt>
      <trkpt lat="49.8872" lon="4.81429">
        <ele>229</ele>
        <time>2022-07-15T09:15:20.000Z</time>
      </trkpt>
      <trkpt lat="49.88717" lon="4.81431">
        <ele>229</ele>
        <time>2022-07-15T09:15:21.000Z</time>
      </trkpt>
      <trkpt lat="49.88713" lon="4.81432">
        <ele>229</ele>
        <time>2022-07-15T09:15:22.000Z</time>
      </trkpt>
      <trkpt lat="49.8871" lon="4.81433">
        <ele>230</ele>
        <time>2022-07-15T09:15:23.000Z</time>
      </trkpt>
      <trkpt lat="49.88706" lon="4.81434">
        <ele>230</ele>
        <time>2022-07-15T09:15:24.000Z</time>
      </trkpt>
      <trkpt lat="49.88703" lon="4.81434">
        <ele>230</ele>
        <time>2022-07-15T09:15:25.000Z</time>
      </trkpt>
      <trkpt lat="49.887" lon="4.81434">
        <ele>231</ele>
        <time>2022-07-15T09:15:26.000Z</time>
      </trkpt>
      <trkpt lat="49.88697" lon="4.81434">
        <ele>231</ele>
        <time>2022-07-15T09:15:27.000Z</time>
      </trkpt>
      <trkpt lat="49.88693" lon="4.81435">
        <ele>231</ele>
        <time>2022-07-15T09:15:28.000Z</time>
      </trkpt>
      <trkpt lat="49.88689" lon="4.81436">
        <ele>231</ele>
        <time>2022-07-15T09:15:29.000Z</time>
      </trkpt>
      <trkpt lat="49.88686" lon="4.81437">
        <ele>231</ele>
        <time>2022-07-15T09:15:30.000Z</time>
      </trkpt>
      <trkpt lat="49.88682" lon="4.81438">
        <ele>232</ele>
        <time>2022-07-15T09:15:31.000Z</time>
      </trkpt>
      <trkpt lat="49.88678" lon="4.81439">
        <ele>232</ele>
        <time>2022-07-15T09:15:32.000Z</time>
      </trkpt>
      <trkpt lat="49.88674" lon="4.8144">
        <ele>232</ele>
        <time>2022-07-15T09:15:33.000Z</time>
      </trkpt>
      <trkpt lat="49.8867" lon="4.8144">
        <ele>232</ele>
        <time>2022-07-15T09:15:34.000Z</time>
      </trkpt>
      <trkpt lat="49.88667" lon="4.81441">
        <ele>232</ele>
        <time>2022-07-15T09:15:35.000Z</time>
      </trkpt>
      <trkpt lat="49.88664" lon="4.81442">
        <ele>232</ele>
        <time>2022-07-15T09:15:36.000Z</time>
      </trkpt>
      <trkpt lat="49.8866" lon="4.81443">
        <ele>233</ele>
        <time>2022-07-15T09:15:37.000Z</time>
      </trkpt>
      <trkpt lat="49.88656" lon="4.81443">
        <ele>233</ele>
        <time>2022-07-15T09:15:38.000Z</time>
      </trkpt>
      <trkpt lat="49.88653" lon="4.81443">
        <ele>233</ele>
        <time>2022-07-15T09:15:39.000Z</time>
      </trkpt>
      <trkpt lat="49.88649" lon="4.81443">
        <ele>233</ele>
        <time>2022-07-15T09:15:40.000Z</time>
      </trkpt>
      <trkpt lat="49.88645" lon="4.81444">
        <ele>233</ele>
        <time>2022-07-15T09:15:41.000Z</time>
      </trkpt>
      <trkpt lat="49.88642" lon="4.81444">
        <ele>234</ele>
        <time>2022-07-15T09:15:42.000Z</time>
      </trkpt>
      <trkpt lat="49.88638" lon="4.81443">
        <ele>234</ele>
        <time>2022-07-15T09:15:43.000Z</time>
      </trkpt>
      <trkpt lat="49.88635" lon="4.81442">
        <ele>234</ele>
        <time>2022-07-15T09:15:44.000Z</time>
      </trkpt>
      <trkpt lat="49.88631" lon="4.81442">
        <ele>234</ele>
        <time>2022-07-15T09:15:45.000Z</time>
      </trkpt>
      <trkpt lat="49.88627" lon="4.81442">
        <ele>234</ele>
        <time>2022-07-15T09:15:46.000Z</time>
      </trkpt>
      <trkpt lat="49.88623" lon="4.81443">
        <ele>234</ele>
        <time>2022-07-15T09:15:47.000Z</time>
      </trkpt>
      <trkpt lat="49.8862" lon="4.81443">
        <ele>234</ele>
        <time>2022-07-15T09:15:48.000Z</time>
      </trkpt>
      <trkpt lat="49.88616" lon="4.81443">
        <ele>234</ele>
        <time>2022-07-15T09:15:49.000Z</time>
      </trkpt>
      <trkpt lat="49.88612" lon="4.81443">
        <ele>234</ele>
        <time>2022-07-15T09:15:50.000Z</time>
      </trkpt>
      <trkpt lat="49.88608" lon="4.81443">
        <ele>234</ele>
        <time>2022-07-15T09:15:51.000Z</time>
      </trkpt>
      <trkpt lat="49.88604" lon="4.81443">
        <ele>234</ele>
        <time>2022-07-15T09:15:52.000Z</time>
      </trkpt>
      <trkpt lat="49.88601" lon="4.81443">
        <ele>234</ele>
        <time>2022-07-15T09:15:53.000Z</time>
      </trkpt>
      <trkpt lat="49.88598" lon="4.81443">
        <ele>233</ele>
        <time>2022-07-15T09:15:54.000Z</time>
      </trkpt>
      <trkpt lat="49.88594" lon="4.81443">
        <ele>233</ele>
        <time>2022-07-15T09:15:55.000Z</time>
      </trkpt>
      <trkpt lat="49.88591" lon="4.81442">
        <ele>233</ele>
        <time>2022-07-15T09:15:56.000Z</time>
      </trkpt>
      <trkpt lat="49.88588" lon="4.81442">
        <ele>233</ele>
        <time>2022-07-15T09:15:57.000Z</time>
      </trkpt>
      <trkpt lat="49.88584" lon="4.81442">
        <ele>233</ele>
        <time>2022-07-15T09:15:58.000Z</time>
      </trkpt>
      <trkpt lat="49.8858" lon="4.81442">
        <ele>232</ele>
        <time>2022-07-15T09:15:59.000Z</time>
      </trkpt>
      <trkpt lat="49.88577" lon="4.81442">
        <ele>232</ele>
        <time>2022-07-15T09:16:00.000Z</time>
      </trkpt>
      <trkpt lat="49.88573" lon="4.81443">
        <ele>232</ele>
        <time>2022-07-15T09:16:01.000Z</time>
      </trkpt>
      <trkpt lat="49.88569" lon="4.81444">
        <ele>232</ele>
        <time>2022-07-15T09:16:02.000Z</time>
      </trkpt>
      <trkpt lat="49.88565" lon="4.81444">
        <ele>232</ele>
        <time>2022-07-15T09:16:03.000Z</time>
      </trkpt>
      <trkpt lat="49.88561" lon="4.81445">
        <ele>232</ele>
        <time>2022-07-15T09:16:04.000Z</time>
      </trkpt>
      <trkpt lat="49.88558" lon="4.81446">
        <ele>232</ele>
        <time>2022-07-15T09:16:05.000Z</time>
      </trkpt>
      <trkpt lat="49.88555" lon="4.81447">
        <ele>232</ele>
        <time>2022-07-15T09:16:06.000Z</time>
      </trkpt>
      <trkpt lat="49.88552" lon="4.81448">
        <ele>232</ele>
        <time>2022-07-15T09:16:07.000Z</time>
      </trkpt>
      <trkpt lat="49.88549" lon="4.81448">
        <ele>232</ele>
        <time>2022-07-15T09:16:08.000Z</time>
      </trkpt>
      <trkpt lat="49.88546" lon="4.81448">
        <ele>233</ele>
        <time>2022-07-15T09:16:09.000Z</time>
      </trkpt>
      <trkpt lat="49.88543" lon="4.81448">
        <ele>233</ele>
        <time>2022-07-15T09:16:10.000Z</time>
      </trkpt>
      <trkpt lat="49.88541" lon="4.81447">
        <ele>233</ele>
        <time>2022-07-15T09:16:11.000Z</time>
      </trkpt>
      <trkpt lat="49.88538" lon="4.81447">
        <ele>233</ele>
        <time>2022-07-15T09:16:12.000Z</time>
      </trkpt>
      <trkpt lat="49.88536" lon="4.81447">
        <ele>233</ele>
        <time>2022-07-15T09:16:13.000Z</time>
      </trkpt>
      <trkpt lat="49.88533" lon="4.81445">
        <ele>233</ele>
        <time>2022-07-15T09:16:14.000Z</time>
      </trkpt>
      <trkpt lat="49.88531" lon="4.81444">
        <ele>234</ele>
        <time>2022-07-15T09:16:15.000Z</time>
      </trkpt>
      <trkpt lat="49.88528" lon="4.81443">
        <ele>234</ele>
        <time>2022-07-15T09:16:16.000Z</time>
      </trkpt>
      <trkpt lat="49.88525" lon="4.81441">
        <ele>234</ele>
        <time>2022-07-15T09:16:17.000Z</time>
      </trkpt>
      <trkpt lat="49.88522" lon="4.81438">
        <ele>234</ele>
        <time>2022-07-15T09:16:18.000Z</time>
      </trkpt>
      <trkpt lat="49.88519" lon="4.81435">
        <ele>234</ele>
        <time>2022-07-15T09:16:19.000Z</time>
      </trkpt>
      <trkpt lat="49.88516" lon="4.81433">
        <ele>234</ele>
        <time>2022-07-15T09:16:20.000Z</time>
      </trkpt>
      <trkpt lat="49.88514" lon="4.81431">
        <ele>235</ele>
        <time>2022-07-15T09:16:21.000Z</time>
      </trkpt>
      <trkpt lat="49.88513" lon="4.81429">
        <ele>235</ele>
        <time>2022-07-15T09:16:22.000Z</time>
      </trkpt>
      <trkpt lat="49.8851" lon="4.81426">
        <ele>235</ele>
        <time>2022-07-15T09:16:23.000Z</time>
      </trkpt>
      <trkpt lat="49.88508" lon="4.81423">
        <ele>235</ele>
        <time>2022-07-15T09:16:24.000Z</time>
      </trkpt>
      <trkpt lat="49.88505" lon="4.8142">
        <ele>235</ele>
        <time>2022-07-15T09:16:25.000Z</time>
      </trkpt>
      <trkpt lat="49.88502" lon="4.81417">
        <ele>235</ele>
        <time>2022-07-15T09:16:26.000Z</time>
      </trkpt>
      <trkpt lat="49.88499" lon="4.81413">
        <ele>235</ele>
        <time>2022-07-15T09:16:27.000Z</time>
      </trkpt>
      <trkpt lat="49.88497" lon="4.81411">
        <ele>235</ele>
        <time>2022-07-15T09:16:28.000Z</time>
      </trkpt>
      <trkpt lat="49.88494" lon="4.81408">
        <ele>235</ele>
        <time>2022-07-15T09:16:29.000Z</time>
      </trkpt>
      <trkpt lat="49.88492" lon="4.81406">
        <ele>235</ele>
        <time>2022-07-15T09:16:30.000Z</time>
      </trkpt>
      <trkpt lat="49.88488" lon="4.81403">
        <ele>235</ele>
        <time>2022-07-15T09:16:31.000Z</time>
      </trkpt>
      <trkpt lat="49.88485" lon="4.81399">
        <ele>235</ele>
        <time>2022-07-15T09:16:32.000Z</time>
      </trkpt>
      <trkpt lat="49.88482" lon="4.81396">
        <ele>235</ele>
        <time>2022-07-15T09:16:33.000Z</time>
      </trkpt>
      <trkpt lat="49.88479" lon="4.81393">
        <ele>235</ele>
        <time>2022-07-15T09:16:34.000Z</time>
      </trkpt>
      <trkpt lat="49.88475" lon="4.8139">
        <ele>235</ele>
        <time>2022-07-15T09:16:35.000Z</time>
      </trkpt>
      <trkpt lat="49.88471" lon="4.81387">
        <ele>235</ele>
        <time>2022-07-15T09:16:36.000Z</time>
      </trkpt>
      <trkpt lat="49.88468" lon="4.81383">
        <ele>235</ele>
        <time>2022-07-15T09:16:37.000Z</time>
      </trkpt>
      <trkpt lat="49.88465" lon="4.81379">
        <ele>235</ele>
        <time>2022-07-15T09:16:38.000Z</time>
      </trkpt>
      <trkpt lat="49.88461" lon="4.81375">
        <ele>235</ele>
        <time>2022-07-15T09:16:39.000Z</time>
      </trkpt>
      <trkpt lat="49.88457" lon="4.81371">
        <ele>234</ele>
        <time>2022-07-15T09:16:40.000Z</time>
      </trkpt>
      <trkpt lat="49.88454" lon="4.81367">
        <ele>234</ele>
        <time>2022-07-15T09:16:41.000Z</time>
      </trkpt>
      <trkpt lat="49.88449" lon="4.81363">
        <ele>234</ele>
        <time>2022-07-15T09:16:42.000Z</time>
      </trkpt>
      <trkpt lat="49.88445" lon="4.81359">
        <ele>234</ele>
        <time>2022-07-15T09:16:43.000Z</time>
      </trkpt>
      <trkpt lat="49.8844" lon="4.81355">
        <ele>234</ele>
        <time>2022-07-15T09:16:44.000Z</time>
      </trkpt>
      <trkpt lat="49.88435" lon="4.81351">
        <ele>234</ele>
        <time>2022-07-15T09:16:45.000Z</time>
      </trkpt>
      <trkpt lat="49.8843" lon="4.81347">
        <ele>234</ele>
        <time>2022-07-15T09:16:46.000Z</time>
      </trkpt>
      <trkpt lat="49.88425" lon="4.81343">
        <ele>233</ele>
        <time>2022-07-15T09:16:47.000Z</time>
      </trkpt>
      <trkpt lat="49.88418" lon="4.8134">
        <ele>233</ele>
        <time>2022-07-15T09:16:48.000Z</time>
      </trkpt>
      <trkpt lat="49.88412" lon="4.81336">
        <ele>233</ele>
        <time>2022-07-15T09:16:49.000Z</time>
      </trkpt>
      <trkpt lat="49.88405" lon="4.81333">
        <ele>233</ele>
        <time>2022-07-15T09:16:50.000Z</time>
      </trkpt>
      <trkpt lat="49.88398" lon="4.81329">
        <ele>233</ele>
        <time>2022-07-15T09:16:51.000Z</time>
      </trkpt>
      <trkpt lat="49.88389" lon="4.81326">
        <ele>232</ele>
        <time>2022-07-15T09:16:52.000Z</time>
      </trkpt>
      <trkpt lat="49.88381" lon="4.81322">
        <ele>232</ele>
        <time>2022-07-15T09:16:53.000Z</time>
      </trkpt>
      <trkpt lat="49.88372" lon="4.81318">
        <ele>231</ele>
        <time>2022-07-15T09:16:54.000Z</time>
      </trkpt>
      <trkpt lat="49.88364" lon="4.81314">
        <ele>231</ele>
        <time>2022-07-15T09:16:55.000Z</time>
      </trkpt>
      <trkpt lat="49.88356" lon="4.8131">
        <ele>230</ele>
        <time>2022-07-15T09:16:56.000Z</time>
      </trkpt>
      <trkpt lat="49.88348" lon="4.81306">
        <ele>229</ele>
        <time>2022-07-15T09:16:57.000Z</time>
      </trkpt>
      <trkpt lat="49.88339" lon="4.81302">
        <ele>229</ele>
        <time>2022-07-15T09:16:58.000Z</time>
      </trkpt>
      <trkpt lat="49.88331" lon="4.81299">
        <ele>228</ele>
        <time>2022-07-15T09:16:59.000Z</time>
      </trkpt>
      <trkpt lat="49.88324" lon="4.81296">
        <ele>227</ele>
        <time>2022-07-15T09:17:00.000Z</time>
      </trkpt>
      <trkpt lat="49.88316" lon="4.81294">
        <ele>227</ele>
        <time>2022-07-15T09:17:01.000Z</time>
      </trkpt>
      <trkpt lat="49.88308" lon="4.81293">
        <ele>226</ele>
        <time>2022-07-15T09:17:02.000Z</time>
      </trkpt>
      <trkpt lat="49.883" lon="4.81292">
        <ele>225</ele>
        <time>2022-07-15T09:17:03.000Z</time>
      </trkpt>
      <trkpt lat="49.88291" lon="4.81292">
        <ele>225</ele>
        <time>2022-07-15T09:17:04.000Z</time>
      </trkpt>
      <trkpt lat="49.88282" lon="4.81292">
        <ele>224</ele>
        <time>2022-07-15T09:17:05.000Z</time>
      </trkpt>
      <trkpt lat="49.88273" lon="4.81292">
        <ele>224</ele>
        <time>2022-07-15T09:17:06.000Z</time>
      </trkpt>
      <trkpt lat="49.88263" lon="4.81292">
        <ele>223</ele>
        <time>2022-07-15T09:17:07.000Z</time>
      </trkpt>
      <trkpt lat="49.88254" lon="4.81292">
        <ele>223</ele>
        <time>2022-07-15T09:17:08.000Z</time>
      </trkpt>
      <trkpt lat="49.88244" lon="4.81293">
        <ele>222</ele>
        <time>2022-07-15T09:17:09.000Z</time>
      </trkpt>
      <trkpt lat="49.88234" lon="4.81294">
        <ele>222</ele>
        <time>2022-07-15T09:17:10.000Z</time>
      </trkpt>
      <trkpt lat="49.88224" lon="4.81293">
        <ele>221</ele>
        <time>2022-07-15T09:17:11.000Z</time>
      </trkpt>
      <trkpt lat="49.88215" lon="4.81294">
        <ele>221</ele>
        <time>2022-07-15T09:17:12.000Z</time>
      </trkpt>
      <trkpt lat="49.88206" lon="4.81294">
        <ele>221</ele>
        <time>2022-07-15T09:17:13.000Z</time>
      </trkpt>
      <trkpt lat="49.88196" lon="4.81296">
        <ele>220</ele>
        <time>2022-07-15T09:17:14.000Z</time>
      </trkpt>
      <trkpt lat="49.88186" lon="4.81298">
        <ele>220</ele>
        <time>2022-07-15T09:17:15.000Z</time>
      </trkpt>
      <trkpt lat="49.88177" lon="4.813">
        <ele>219</ele>
        <time>2022-07-15T09:17:16.000Z</time>
      </trkpt>
      <trkpt lat="49.88168" lon="4.81302">
        <ele>219</ele>
        <time>2022-07-15T09:17:17.000Z</time>
      </trkpt>
      <trkpt lat="49.88158" lon="4.81305">
        <ele>218</ele>
        <time>2022-07-15T09:17:18.000Z</time>
      </trkpt>
      <trkpt lat="49.88149" lon="4.81308">
        <ele>217</ele>
        <time>2022-07-15T09:17:19.000Z</time>
      </trkpt>
      <trkpt lat="49.88139" lon="4.81311">
        <ele>217</ele>
        <time>2022-07-15T09:17:20.000Z</time>
      </trkpt>
      <trkpt lat="49.8813" lon="4.81314">
        <ele>216</ele>
        <time>2022-07-15T09:17:21.000Z</time>
      </trkpt>
      <trkpt lat="49.88121" lon="4.81317">
        <ele>216</ele>
        <time>2022-07-15T09:17:22.000Z</time>
      </trkpt>
      <trkpt lat="49.88111" lon="4.81319">
        <ele>215</ele>
        <time>2022-07-15T09:17:23.000Z</time>
      </trkpt>
      <trkpt lat="49.88101" lon="4.81323">
        <ele>215</ele>
        <time>2022-07-15T09:17:24.000Z</time>
      </trkpt>
      <trkpt lat="49.88091" lon="4.81326">
        <ele>214</ele>
        <time>2022-07-15T09:17:25.000Z</time>
      </trkpt>
      <trkpt lat="49.88082" lon="4.81331">
        <ele>214</ele>
        <time>2022-07-15T09:17:26.000Z</time>
      </trkpt>
      <trkpt lat="49.88072" lon="4.81335">
        <ele>213</ele>
        <time>2022-07-15T09:17:27.000Z</time>
      </trkpt>
      <trkpt lat="49.88062" lon="4.81339">
        <ele>213</ele>
        <time>2022-07-15T09:17:28.000Z</time>
      </trkpt>
      <trkpt lat="49.88052" lon="4.81342">
        <ele>213</ele>
        <time>2022-07-15T09:17:29.000Z</time>
      </trkpt>
      <trkpt lat="49.88042" lon="4.81346">
        <ele>212</ele>
        <time>2022-07-15T09:17:30.000Z</time>
      </trkpt>
      <trkpt lat="49.88031" lon="4.8135">
        <ele>212</ele>
        <time>2022-07-15T09:17:31.000Z</time>
      </trkpt>
      <trkpt lat="49.88021" lon="4.81352">
        <ele>211</ele>
        <time>2022-07-15T09:17:32.000Z</time>
      </trkpt>
      <trkpt lat="49.88011" lon="4.81354">
        <ele>211</ele>
        <time>2022-07-15T09:17:33.000Z</time>
      </trkpt>
      <trkpt lat="49.88001" lon="4.81355">
        <ele>210</ele>
        <time>2022-07-15T09:17:34.000Z</time>
      </trkpt>
      <trkpt lat="49.87991" lon="4.81354">
        <ele>210</ele>
        <time>2022-07-15T09:17:35.000Z</time>
      </trkpt>
      <trkpt lat="49.87981" lon="4.81352">
        <ele>210</ele>
        <time>2022-07-15T09:17:36.000Z</time>
      </trkpt>
      <trkpt lat="49.87972" lon="4.81349">
        <ele>209</ele>
        <time>2022-07-15T09:17:37.000Z</time>
      </trkpt>
      <trkpt lat="49.87963" lon="4.81347">
        <ele>209</ele>
        <time>2022-07-15T09:17:38.000Z</time>
      </trkpt>
      <trkpt lat="49.87955" lon="4.81345">
        <ele>208</ele>
        <time>2022-07-15T09:17:39.000Z</time>
      </trkpt>
      <trkpt lat="49.87946" lon="4.81342">
        <ele>207</ele>
        <time>2022-07-15T09:17:40.000Z</time>
      </trkpt>
      <trkpt lat="49.87938" lon="4.8134">
        <ele>207</ele>
        <time>2022-07-15T09:17:41.000Z</time>
      </trkpt>
      <trkpt lat="49.8793" lon="4.81338">
        <ele>206</ele>
        <time>2022-07-15T09:17:42.000Z</time>
      </trkpt>
      <trkpt lat="49.87922" lon="4.81336">
        <ele>206</ele>
        <time>2022-07-15T09:17:43.000Z</time>
      </trkpt>
      <trkpt lat="49.87914" lon="4.81334">
        <ele>205</ele>
        <time>2022-07-15T09:17:44.000Z</time>
      </trkpt>
      <trkpt lat="49.87906" lon="4.81331">
        <ele>205</ele>
        <time>2022-07-15T09:17:45.000Z</time>
      </trkpt>
      <trkpt lat="49.87897" lon="4.81328">
        <ele>204</ele>
        <time>2022-07-15T09:17:46.000Z</time>
      </trkpt>
      <trkpt lat="49.87889" lon="4.81325">
        <ele>203</ele>
        <time>2022-07-15T09:17:47.000Z</time>
      </trkpt>
      <trkpt lat="49.87881" lon="4.81323">
        <ele>203</ele>
        <time>2022-07-15T09:17:48.000Z</time>
      </trkpt>
      <trkpt lat="49.87872" lon="4.81321">
        <ele>202</ele>
        <time>2022-07-15T09:17:49.000Z</time>
      </trkpt>
      <trkpt lat="49.87864" lon="4.8132">
        <ele>201</ele>
        <time>2022-07-15T09:17:50.000Z</time>
      </trkpt>
      <trkpt lat="49.87857" lon="4.81318">
        <ele>200</ele>
        <time>2022-07-15T09:17:51.000Z</time>
      </trkpt>
      <trkpt lat="49.87849" lon="4.81317">
        <ele>199</ele>
        <time>2022-07-15T09:17:52.000Z</time>
      </trkpt>
      <trkpt lat="49.87842" lon="4.81316">
        <ele>197</ele>
        <time>2022-07-15T09:17:53.000Z</time>
      </trkpt>
      <trkpt lat="49.87835" lon="4.81316">
        <ele>196</ele>
        <time>2022-07-15T09:17:54.000Z</time>
      </trkpt>
      <trkpt lat="49.8783" lon="4.81316">
        <ele>195</ele>
        <time>2022-07-15T09:17:55.000Z</time>
      </trkpt>
      <trkpt lat="49.87824" lon="4.81317">
        <ele>195</ele>
        <time>2022-07-15T09:17:56.000Z</time>
      </trkpt>
      <trkpt lat="49.8782" lon="4.81319">
        <ele>194</ele>
        <time>2022-07-15T09:17:57.000Z</time>
      </trkpt>
      <trkpt lat="49.87816" lon="4.81322">
        <ele>193</ele>
        <time>2022-07-15T09:17:58.000Z</time>
      </trkpt>
      <trkpt lat="49.87812" lon="4.81325">
        <ele>193</ele>
        <time>2022-07-15T09:17:59.000Z</time>
      </trkpt>
      <trkpt lat="49.87808" lon="4.81327">
        <ele>192</ele>
        <time>2022-07-15T09:18:00.000Z</time>
      </trkpt>
      <trkpt lat="49.87804" lon="4.81328">
        <ele>192</ele>
        <time>2022-07-15T09:18:01.000Z</time>
      </trkpt>
      <trkpt lat="49.878" lon="4.8133">
        <ele>191</ele>
        <time>2022-07-15T09:18:02.000Z</time>
      </trkpt>
      <trkpt lat="49.87796" lon="4.81331">
        <ele>191</ele>
        <time>2022-07-15T09:18:03.000Z</time>
      </trkpt>
      <trkpt lat="49.87791" lon="4.81332">
        <ele>190</ele>
        <time>2022-07-15T09:18:04.000Z</time>
      </trkpt>
      <trkpt lat="49.87786" lon="4.81334">
        <ele>190</ele>
        <time>2022-07-15T09:18:05.000Z</time>
      </trkpt>
      <trkpt lat="49.87782" lon="4.81336">
        <ele>190</ele>
        <time>2022-07-15T09:18:06.000Z</time>
      </trkpt>
      <trkpt lat="49.87777" lon="4.81337">
        <ele>189</ele>
        <time>2022-07-15T09:18:07.000Z</time>
      </trkpt>
      <trkpt lat="49.87773" lon="4.81339">
        <ele>189</ele>
        <time>2022-07-15T09:18:08.000Z</time>
      </trkpt>
      <trkpt lat="49.87769" lon="4.81342">
        <ele>189</ele>
        <time>2022-07-15T09:18:09.000Z</time>
      </trkpt>
      <trkpt lat="49.87765" lon="4.81344">
        <ele>189</ele>
        <time>2022-07-15T09:18:10.000Z</time>
      </trkpt>
      <trkpt lat="49.87761" lon="4.81347">
        <ele>189</ele>
        <time>2022-07-15T09:18:11.000Z</time>
      </trkpt>
      <trkpt lat="49.87758" lon="4.8135">
        <ele>189</ele>
        <time>2022-07-15T09:18:12.000Z</time>
      </trkpt>
      <trkpt lat="49.87754" lon="4.81352">
        <ele>188</ele>
        <time>2022-07-15T09:18:13.000Z</time>
      </trkpt>
      <trkpt lat="49.8775" lon="4.81354">
        <ele>188</ele>
        <time>2022-07-15T09:18:14.000Z</time>
      </trkpt>
      <trkpt lat="49.87746" lon="4.81357">
        <ele>188</ele>
        <time>2022-07-15T09:18:15.000Z</time>
      </trkpt>
      <trkpt lat="49.87742" lon="4.81359">
        <ele>188</ele>
        <time>2022-07-15T09:18:16.000Z</time>
      </trkpt>
      <trkpt lat="49.87737" lon="4.81361">
        <ele>188</ele>
        <time>2022-07-15T09:18:17.000Z</time>
      </trkpt>
      <trkpt lat="49.87732" lon="4.81363">
        <ele>188</ele>
        <time>2022-07-15T09:18:18.000Z</time>
      </trkpt>
      <trkpt lat="49.87727" lon="4.81365">
        <ele>188</ele>
        <time>2022-07-15T09:18:19.000Z</time>
      </trkpt>
      <trkpt lat="49.87723" lon="4.81368">
        <ele>188</ele>
        <time>2022-07-15T09:18:20.000Z</time>
      </trkpt>
      <trkpt lat="49.87718" lon="4.81371">
        <ele>188</ele>
        <time>2022-07-15T09:18:21.000Z</time>
      </trkpt>
      <trkpt lat="49.87712" lon="4.81373">
        <ele>187</ele>
        <time>2022-07-15T09:18:22.000Z</time>
      </trkpt>
      <trkpt lat="49.87707" lon="4.81375">
        <ele>187</ele>
        <time>2022-07-15T09:18:23.000Z</time>
      </trkpt>
      <trkpt lat="49.87701" lon="4.81377">
        <ele>188</ele>
        <time>2022-07-15T09:18:24.000Z</time>
      </trkpt>
      <trkpt lat="49.87696" lon="4.81379">
        <ele>188</ele>
        <time>2022-07-15T09:18:25.000Z</time>
      </trkpt>
      <trkpt lat="49.87692" lon="4.81382">
        <ele>188</ele>
        <time>2022-07-15T09:18:26.000Z</time>
      </trkpt>
      <trkpt lat="49.87687" lon="4.81385">
        <ele>188</ele>
        <time>2022-07-15T09:18:27.000Z</time>
      </trkpt>
      <trkpt lat="49.87683" lon="4.81387">
        <ele>188</ele>
        <time>2022-07-15T09:18:28.000Z</time>
      </trkpt>
      <trkpt lat="49.87678" lon="4.8139">
        <ele>188</ele>
        <time>2022-07-15T09:18:29.000Z</time>
      </trkpt>
      <trkpt lat="49.87674" lon="4.81393">
        <ele>188</ele>
        <time>2022-07-15T09:18:30.000Z</time>
      </trkpt>
      <trkpt lat="49.8767" lon="4.81396">
        <ele>188</ele>
        <time>2022-07-15T09:18:31.000Z</time>
      </trkpt>
      <trkpt lat="49.87666" lon="4.81399">
        <ele>189</ele>
        <time>2022-07-15T09:18:32.000Z</time>
      </trkpt>
      <trkpt lat="49.87662" lon="4.81402">
        <ele>189</ele>
        <time>2022-07-15T09:18:33.000Z</time>
      </trkpt>
      <trkpt lat="49.87658" lon="4.81405">
        <ele>189</ele>
        <time>2022-07-15T09:18:34.000Z</time>
      </trkpt>
      <trkpt lat="49.87653" lon="4.81407">
        <ele>189</ele>
        <time>2022-07-15T09:18:35.000Z</time>
      </trkpt>
      <trkpt lat="49.87649" lon="4.8141">
        <ele>189</ele>
        <time>2022-07-15T09:18:36.000Z</time>
      </trkpt>
      <trkpt lat="49.87644" lon="4.81413">
        <ele>189</ele>
        <time>2022-07-15T09:18:37.000Z</time>
      </trkpt>
      <trkpt lat="49.87639" lon="4.81416">
        <ele>189</ele>
        <time>2022-07-15T09:18:38.000Z</time>
      </trkpt>
      <trkpt lat="49.87634" lon="4.8142">
        <ele>189</ele>
        <time>2022-07-15T09:18:39.000Z</time>
      </trkpt>
      <trkpt lat="49.8763" lon="4.81424">
        <ele>189</ele>
        <time>2022-07-15T09:18:40.000Z</time>
      </trkpt>
      <trkpt lat="49.87626" lon="4.81427">
        <ele>189</ele>
        <time>2022-07-15T09:18:41.000Z</time>
      </trkpt>
      <trkpt lat="49.87621" lon="4.8143">
        <ele>189</ele>
        <time>2022-07-15T09:18:42.000Z</time>
      </trkpt>
      <trkpt lat="49.87617" lon="4.81433">
        <ele>190</ele>
        <time>2022-07-15T09:18:43.000Z</time>
      </trkpt>
      <trkpt lat="49.87613" lon="4.81437">
        <ele>190</ele>
        <time>2022-07-15T09:18:44.000Z</time>
      </trkpt>
      <trkpt lat="49.87609" lon="4.81439">
        <ele>190</ele>
        <time>2022-07-15T09:18:45.000Z</time>
      </trkpt>
      <trkpt lat="49.87607" lon="4.81443">
        <ele>190</ele>
        <time>2022-07-15T09:18:46.000Z</time>
      </trkpt>
      <trkpt lat="49.87604" lon="4.81445">
        <ele>190</ele>
        <time>2022-07-15T09:18:47.000Z</time>
      </trkpt>
      <trkpt lat="49.87602" lon="4.81447">
        <ele>190</ele>
        <time>2022-07-15T09:18:48.000Z</time>
      </trkpt>
      <trkpt lat="49.876" lon="4.81449">
        <ele>190</ele>
        <time>2022-07-15T09:18:49.000Z</time>
      </trkpt>
      <trkpt lat="49.87598" lon="4.81452">
        <ele>190</ele>
        <time>2022-07-15T09:18:50.000Z</time>
      </trkpt>
      <trkpt lat="49.87596" lon="4.81454">
        <ele>190</ele>
        <time>2022-07-15T09:18:51.000Z</time>
      </trkpt>
      <trkpt lat="49.87595" lon="4.81455">
        <ele>190</ele>
        <time>2022-07-15T09:18:52.000Z</time>
      </trkpt>
      <trkpt lat="49.87594" lon="4.81457">
        <ele>190</ele>
        <time>2022-07-15T09:18:53.000Z</time>
      </trkpt>
      <trkpt lat="49.87593" lon="4.81458">
        <ele>190</ele>
        <time>2022-07-15T09:18:54.000Z</time>
      </trkpt>
      <trkpt lat="49.87592" lon="4.8146">
        <ele>190</ele>
        <time>2022-07-15T09:18:55.000Z</time>
      </trkpt>
      <trkpt lat="49.8759" lon="4.81462">
        <ele>190</ele>
        <time>2022-07-15T09:18:56.000Z</time>
      </trkpt>
      <trkpt lat="49.8759" lon="4.81463">
        <ele>190</ele>
        <time>2022-07-15T09:18:57.000Z</time>
      </trkpt>
      <trkpt lat="49.87589" lon="4.81464">
        <ele>190</ele>
        <time>2022-07-15T09:18:58.000Z</time>
      </trkpt>
      <trkpt lat="49.87588" lon="4.81467">
        <ele>190</ele>
        <time>2022-07-15T09:18:59.000Z</time>
      </trkpt>
      <trkpt lat="49.87586" lon="4.8147">
        <ele>190</ele>
        <time>2022-07-15T09:19:00.000Z</time>
      </trkpt>
      <trkpt lat="49.87584" lon="4.81475">
        <ele>190</ele>
        <time>2022-07-15T09:19:01.000Z</time>
      </trkpt>
      <trkpt lat="49.87581" lon="4.81479">
        <ele>190</ele>
        <time>2022-07-15T09:19:02.000Z</time>
      </trkpt>
      <trkpt lat="49.87579" lon="4.81484">
        <ele>190</ele>
        <time>2022-07-15T09:19:03.000Z</time>
      </trkpt>
      <trkpt lat="49.87575" lon="4.81489">
        <ele>190</ele>
        <time>2022-07-15T09:19:04.000Z</time>
      </trkpt>
      <trkpt lat="49.87572" lon="4.81494">
        <ele>190</ele>
        <time>2022-07-15T09:19:05.000Z</time>
      </trkpt>
      <trkpt lat="49.8757" lon="4.81499">
        <ele>190</ele>
        <time>2022-07-15T09:19:06.000Z</time>
      </trkpt>
      <trkpt lat="49.87568" lon="4.81503">
        <ele>190</ele>
        <time>2022-07-15T09:19:07.000Z</time>
      </trkpt>
      <trkpt lat="49.87565" lon="4.81508">
        <ele>190</ele>
        <time>2022-07-15T09:19:08.000Z</time>
      </trkpt>
      <trkpt lat="49.87562" lon="4.81513">
        <ele>190</ele>
        <time>2022-07-15T09:19:09.000Z</time>
      </trkpt>
      <trkpt lat="49.87559" lon="4.81518">
        <ele>190</ele>
        <time>2022-07-15T09:19:10.000Z</time>
      </trkpt>
      <trkpt lat="49.87556" lon="4.81523">
        <ele>190</ele>
        <time>2022-07-15T09:19:11.000Z</time>
      </trkpt>
      <trkpt lat="49.87553" lon="4.81527">
        <ele>190</ele>
        <time>2022-07-15T09:19:12.000Z</time>
      </trkpt>
      <trkpt lat="49.87549" lon="4.81531">
        <ele>190</ele>
        <time>2022-07-15T09:19:13.000Z</time>
      </trkpt>
      <trkpt lat="49.87546" lon="4.81534">
        <ele>190</ele>
        <time>2022-07-15T09:19:14.000Z</time>
      </trkpt>
      <trkpt lat="49.87543" lon="4.81536">
        <ele>190</ele>
        <time>2022-07-15T09:19:15.000Z</time>
      </trkpt>
      <trkpt lat="49.87541" lon="4.81538">
        <ele>190</ele>
        <time>2022-07-15T09:19:16.000Z</time>
      </trkpt>
      <trkpt lat="49.8754" lon="4.81539">
        <ele>190</ele>
        <time>2022-07-15T09:19:17.000Z</time>
      </trkpt>
      <trkpt lat="49.87539" lon="4.81538">
        <ele>190</ele>
        <time>2022-07-15T09:19:18.000Z</time>
      </trkpt>
      <trkpt lat="49.87538" lon="4.81538">
        <ele>190</ele>
        <time>2022-07-15T09:19:19.000Z</time>
      </trkpt>
      <trkpt lat="49.87538" lon="4.81537">
        <ele>190</ele>
        <time>2022-07-15T09:19:20.000Z</time>
      </trkpt>
      <trkpt lat="49.87538" lon="4.81536">
        <ele>190</ele>
        <time>2022-07-15T09:19:21.000Z</time>
      </trkpt>
      <trkpt lat="49.87538" lon="4.81534">
        <ele>190</ele>
        <time>2022-07-15T09:19:22.000Z</time>
      </trkpt>
      <trkpt lat="49.87537" lon="4.81531">
        <ele>190</ele>
        <time>2022-07-15T09:19:23.000Z</time>
      </trkpt>
      <trkpt lat="49.87536" lon="4.81528">
        <ele>190</ele>
        <time>2022-07-15T09:19:24.000Z</time>
      </trkpt>
      <trkpt lat="49.87536" lon="4.81524">
        <ele>190</ele>
        <time>2022-07-15T09:19:25.000Z</time>
      </trkpt>
      <trkpt lat="49.87535" lon="4.81518">
        <ele>190</ele>
        <time>2022-07-15T09:19:26.000Z</time>
      </trkpt>
      <trkpt lat="49.87534" lon="4.81514">
        <ele>190</ele>
        <time>2022-07-15T09:19:27.000Z</time>
      </trkpt>
      <trkpt lat="49.87532" lon="4.81509">
        <ele>189</ele>
        <time>2022-07-15T09:19:28.000Z</time>
      </trkpt>
      <trkpt lat="49.87531" lon="4.81504">
        <ele>189</ele>
        <time>2022-07-15T09:19:29.000Z</time>
      </trkpt>
      <trkpt lat="49.87529" lon="4.815">
        <ele>189</ele>
        <time>2022-07-15T09:19:30.000Z</time>
      </trkpt>
      <trkpt lat="49.87528" lon="4.81495">
        <ele>189</ele>
        <time>2022-07-15T09:19:31.000Z</time>
      </trkpt>
      <trkpt lat="49.87527" lon="4.8149">
        <ele>188</ele>
        <time>2022-07-15T09:19:32.000Z</time>
      </trkpt>
      <trkpt lat="49.87528" lon="4.81486">
        <ele>188</ele>
        <time>2022-07-15T09:19:33.000Z</time>
      </trkpt>
      <trkpt lat="49.87528" lon="4.81482">
        <ele>187</ele>
        <time>2022-07-15T09:19:34.000Z</time>
      </trkpt>
      <trkpt lat="49.87529" lon="4.81478">
        <ele>187</ele>
        <time>2022-07-15T09:19:35.000Z</time>
      </trkpt>
      <trkpt lat="49.8753" lon="4.81476">
        <ele>187</ele>
        <time>2022-07-15T09:19:36.000Z</time>
      </trkpt>
      <trkpt lat="49.8753" lon="4.81473">
        <ele>186</ele>
        <time>2022-07-15T09:19:37.000Z</time>
      </trkpt>
      <trkpt lat="49.87531" lon="4.81469">
        <ele>186</ele>
        <time>2022-07-15T09:19:38.000Z</time>
      </trkpt>
      <trkpt lat="49.87532" lon="4.81466">
        <ele>186</ele>
        <time>2022-07-15T09:19:39.000Z</time>
      </trkpt>
      <trkpt lat="49.87533" lon="4.81463">
        <ele>185</ele>
        <time>2022-07-15T09:19:40.000Z</time>
      </trkpt>
      <trkpt lat="49.87533" lon="4.8146">
        <ele>185</ele>
        <time>2022-07-15T09:19:41.000Z</time>
      </trkpt>
      <trkpt lat="49.87534" lon="4.81457">
        <ele>185</ele>
        <time>2022-07-15T09:19:42.000Z</time>
      </trkpt>
      <trkpt lat="49.87535" lon="4.81455">
        <ele>185</ele>
        <time>2022-07-15T09:19:43.000Z</time>
      </trkpt>
      <trkpt lat="49.87535" lon="4.81453">
        <ele>184</ele>
        <time>2022-07-15T09:19:44.000Z</time>
      </trkpt>
      <trkpt lat="49.87534" lon="4.8145">
        <ele>184</ele>
        <time>2022-07-15T09:19:45.000Z</time>
      </trkpt>
      <trkpt lat="49.87534" lon="4.81446">
        <ele>184</ele>
        <time>2022-07-15T09:19:46.000Z</time>
      </trkpt>
      <trkpt lat="49.87534" lon="4.81442">
        <ele>184</ele>
        <time>2022-07-15T09:19:47.000Z</time>
      </trkpt>
      <trkpt lat="49.87533" lon="4.81439">
        <ele>184</ele>
        <time>2022-07-15T09:19:48.000Z</time>
      </trkpt>
      <trkpt lat="49.87533" lon="4.81435">
        <ele>183</ele>
        <time>2022-07-15T09:19:49.000Z</time>
      </trkpt>
      <trkpt lat="49.87533" lon="4.81431">
        <ele>183</ele>
        <time>2022-07-15T09:19:50.000Z</time>
      </trkpt>
      <trkpt lat="49.87532" lon="4.81428">
        <ele>183</ele>
        <time>2022-07-15T09:19:51.000Z</time>
      </trkpt>
      <trkpt lat="49.87531" lon="4.81423">
        <ele>183</ele>
        <time>2022-07-15T09:19:52.000Z</time>
      </trkpt>
      <trkpt lat="49.87531" lon="4.81419">
        <ele>183</ele>
        <time>2022-07-15T09:19:53.000Z</time>
      </trkpt>
      <trkpt lat="49.87531" lon="4.81415">
        <ele>183</ele>
        <time>2022-07-15T09:19:54.000Z</time>
      </trkpt>
      <trkpt lat="49.8753" lon="4.81412">
        <ele>182</ele>
        <time>2022-07-15T09:19:55.000Z</time>
      </trkpt>
      <trkpt lat="49.87528" lon="4.81409">
        <ele>182</ele>
        <time>2022-07-15T09:19:56.000Z</time>
      </trkpt>
      <trkpt lat="49.87527" lon="4.81408">
        <ele>182</ele>
        <time>2022-07-15T09:19:57.000Z</time>
      </trkpt>
      <trkpt lat="49.87527" lon="4.81408">
        <ele>182</ele>
        <time>2022-07-15T09:19:58.000Z</time>
      </trkpt>
      <trkpt lat="49.87526" lon="4.81409">
        <ele>182</ele>
        <time>2022-07-15T09:19:59.000Z</time>
      </trkpt>
      <trkpt lat="49.87526" lon="4.81411">
        <ele>182</ele>
        <time>2022-07-15T09:20:00.000Z</time>
      </trkpt>
      <trkpt lat="49.87526" lon="4.81413">
        <ele>182</ele>
        <time>2022-07-15T09:20:01.000Z</time>
      </trkpt>
      <trkpt lat="49.87526" lon="4.81416">
        <ele>182</ele>
        <time>2022-07-15T09:20:02.000Z</time>
      </trkpt>
      <trkpt lat="49.87526" lon="4.81419">
        <ele>182</ele>
        <time>2022-07-15T09:20:03.000Z</time>
      </trkpt>
      <trkpt lat="49.87526" lon="4.81423">
        <ele>182</ele>
        <time>2022-07-15T09:20:04.000Z</time>
      </trkpt>
      <trkpt lat="49.87527" lon="4.81428">
        <ele>182</ele>
        <time>2022-07-15T09:20:05.000Z</time>
      </trkpt>
      <trkpt lat="49.87526" lon="4.81432">
        <ele>182</ele>
        <time>2022-07-15T09:20:06.000Z</time>
      </trkpt>
      <trkpt lat="49.87526" lon="4.81435">
        <ele>182</ele>
        <time>2022-07-15T09:20:07.000Z</time>
      </trkpt>
      <trkpt lat="49.87526" lon="4.8144">
        <ele>183</ele>
        <time>2022-07-15T09:20:08.000Z</time>
      </trkpt>
      <trkpt lat="49.87525" lon="4.81445">
        <ele>183</ele>
        <time>2022-07-15T09:20:09.000Z</time>
      </trkpt>
      <trkpt lat="49.87525" lon="4.8145">
        <ele>183</ele>
        <time>2022-07-15T09:20:10.000Z</time>
      </trkpt>
      <trkpt lat="49.87525" lon="4.81455">
        <ele>183</ele>
        <time>2022-07-15T09:20:11.000Z</time>
      </trkpt>
      <trkpt lat="49.87524" lon="4.81459">
        <ele>183</ele>
        <time>2022-07-15T09:20:12.000Z</time>
      </trkpt>
      <trkpt lat="49.87523" lon="4.81464">
        <ele>183</ele>
        <time>2022-07-15T09:20:13.000Z</time>
      </trkpt>
      <trkpt lat="49.87522" lon="4.81468">
        <ele>183</ele>
        <time>2022-07-15T09:20:14.000Z</time>
      </trkpt>
      <trkpt lat="49.87521" lon="4.81472">
        <ele>183</ele>
        <time>2022-07-15T09:20:15.000Z</time>
      </trkpt>
      <trkpt lat="49.8752" lon="4.81476">
        <ele>183</ele>
        <time>2022-07-15T09:20:16.000Z</time>
      </trkpt>
      <trkpt lat="49.87519" lon="4.8148">
        <ele>183</ele>
        <time>2022-07-15T09:20:17.000Z</time>
      </trkpt>
      <trkpt lat="49.87517" lon="4.81485">
        <ele>183</ele>
        <time>2022-07-15T09:20:18.000Z</time>
      </trkpt>
      <trkpt lat="49.87516" lon="4.81489">
        <ele>183</ele>
        <time>2022-07-15T09:20:19.000Z</time>
      </trkpt>
      <trkpt lat="49.87515" lon="4.81493">
        <ele>183</ele>
        <time>2022-07-15T09:20:20.000Z</time>
      </trkpt>
      <trkpt lat="49.87513" lon="4.81498">
        <ele>183</ele>
        <time>2022-07-15T09:20:21.000Z</time>
      </trkpt>
      <trkpt lat="49.87511" lon="4.81502">
        <ele>184</ele>
        <time>2022-07-15T09:20:22.000Z</time>
      </trkpt>
      <trkpt lat="49.87509" lon="4.81505">
        <ele>184</ele>
        <time>2022-07-15T09:20:23.000Z</time>
      </trkpt>
      <trkpt lat="49.87506" lon="4.81509">
        <ele>184</ele>
        <time>2022-07-15T09:20:24.000Z</time>
      </trkpt>
      <trkpt lat="49.87504" lon="4.81514">
        <ele>184</ele>
        <time>2022-07-15T09:20:25.000Z</time>
      </trkpt>
      <trkpt lat="49.87502" lon="4.81518">
        <ele>184</ele>
        <time>2022-07-15T09:20:26.000Z</time>
      </trkpt>
      <trkpt lat="49.87499" lon="4.81522">
        <ele>184</ele>
        <time>2022-07-15T09:20:27.000Z</time>
      </trkpt>
      <trkpt lat="49.87496" lon="4.81527">
        <ele>184</ele>
        <time>2022-07-15T09:20:28.000Z</time>
      </trkpt>
      <trkpt lat="49.87493" lon="4.81532">
        <ele>184</ele>
        <time>2022-07-15T09:20:29.000Z</time>
      </trkpt>
      <trkpt lat="49.8749" lon="4.81536">
        <ele>184</ele>
        <time>2022-07-15T09:20:30.000Z</time>
      </trkpt>
      <trkpt lat="49.87487" lon="4.8154">
        <ele>184</ele>
        <time>2022-07-15T09:20:31.000Z</time>
      </trkpt>
      <trkpt lat="49.87484" lon="4.81544">
        <ele>184</ele>
        <time>2022-07-15T09:20:32.000Z</time>
      </trkpt>
      <trkpt lat="49.87482" lon="4.81548">
        <ele>185</ele>
        <time>2022-07-15T09:20:33.000Z</time>
      </trkpt>
      <trkpt lat="49.87479" lon="4.81552">
        <ele>185</ele>
        <time>2022-07-15T09:20:34.000Z</time>
      </trkpt>
      <trkpt lat="49.87477" lon="4.81555">
        <ele>185</ele>
        <time>2022-07-15T09:20:35.000Z</time>
      </trkpt>
      <trkpt lat="49.87475" lon="4.8156">
        <ele>185</ele>
        <time>2022-07-15T09:20:36.000Z</time>
      </trkpt>
      <trkpt lat="49.87472" lon="4.81563">
        <ele>185</ele>
        <time>2022-07-15T09:20:37.000Z</time>
      </trkpt>
      <trkpt lat="49.8747" lon="4.81566">
        <ele>185</ele>
        <time>2022-07-15T09:20:38.000Z</time>
      </trkpt>
      <trkpt lat="49.87467" lon="4.81569">
        <ele>185</ele>
        <time>2022-07-15T09:20:39.000Z</time>
      </trkpt>
      <trkpt lat="49.87465" lon="4.81571">
        <ele>185</ele>
        <time>2022-07-15T09:20:40.000Z</time>
      </trkpt>
      <trkpt lat="49.87462" lon="4.81574">
        <ele>186</ele>
        <time>2022-07-15T09:20:41.000Z</time>
      </trkpt>
      <trkpt lat="49.8746" lon="4.81577">
        <ele>186</ele>
        <time>2022-07-15T09:20:42.000Z</time>
      </trkpt>
      <trkpt lat="49.87457" lon="4.81579">
        <ele>186</ele>
        <time>2022-07-15T09:20:43.000Z</time>
      </trkpt>
      <trkpt lat="49.87455" lon="4.81582">
        <ele>187</ele>
        <time>2022-07-15T09:20:44.000Z</time>
      </trkpt>
      <trkpt lat="49.87453" lon="4.81585">
        <ele>187</ele>
        <time>2022-07-15T09:20:45.000Z</time>
      </trkpt>
      <trkpt lat="49.87451" lon="4.81587">
        <ele>187</ele>
        <time>2022-07-15T09:20:46.000Z</time>
      </trkpt>
      <trkpt lat="49.87448" lon="4.81591">
        <ele>188</ele>
        <time>2022-07-15T09:20:47.000Z</time>
      </trkpt>
      <trkpt lat="49.87446" lon="4.81594">
        <ele>188</ele>
        <time>2022-07-15T09:20:48.000Z</time>
      </trkpt>
      <trkpt lat="49.87445" lon="4.81598">
        <ele>188</ele>
        <time>2022-07-15T09:20:49.000Z</time>
      </trkpt>
      <trkpt lat="49.87443" lon="4.81601">
        <ele>189</ele>
        <time>2022-07-15T09:20:50.000Z</time>
      </trkpt>
      <trkpt lat="49.87441" lon="4.81604">
        <ele>189</ele>
        <time>2022-07-15T09:20:51.000Z</time>
      </trkpt>
      <trkpt lat="49.87439" lon="4.81608">
        <ele>189</ele>
        <time>2022-07-15T09:20:52.000Z</time>
      </trkpt>
      <trkpt lat="49.87438" lon="4.81611">
        <ele>189</ele>
        <time>2022-07-15T09:20:53.000Z</time>
      </trkpt>
      <trkpt lat="49.87436" lon="4.81615">
        <ele>189</ele>
        <time>2022-07-15T09:20:54.000Z</time>
      </trkpt>
      <trkpt lat="49.87434" lon="4.81618">
        <ele>190</ele>
        <time>2022-07-15T09:20:55.000Z</time>
      </trkpt>
      <trkpt lat="49.87433" lon="4.81621">
        <ele>190</ele>
        <time>2022-07-15T09:20:56.000Z</time>
      </trkpt>
      <trkpt lat="49.87432" lon="4.81623">
        <ele>190</ele>
        <time>2022-07-15T09:20:57.000Z</time>
      </trkpt>
      <trkpt lat="49.8743" lon="4.81626">
        <ele>190</ele>
        <time>2022-07-15T09:20:58.000Z</time>
      </trkpt>
      <trkpt lat="49.87429" lon="4.81629">
        <ele>191</ele>
        <time>2022-07-15T09:20:59.000Z</time>
      </trkpt>
      <trkpt lat="49.87428" lon="4.81631">
        <ele>191</ele>
        <time>2022-07-15T09:21:00.000Z</time>
      </trkpt>
      <trkpt lat="49.87427" lon="4.81634">
        <ele>191</ele>
        <time>2022-07-15T09:21:01.000Z</time>
      </trkpt>
      <trkpt lat="49.87426" lon="4.81636">
        <ele>191</ele>
        <time>2022-07-15T09:21:02.000Z</time>
      </trkpt>
      <trkpt lat="49.87425" lon="4.81638">
        <ele>191</ele>
        <time>2022-07-15T09:21:03.000Z</time>
      </trkpt>
      <trkpt lat="49.87423" lon="4.8164">
        <ele>192</ele>
        <time>2022-07-15T09:21:04.000Z</time>
      </trkpt>
      <trkpt lat="49.87422" lon="4.81643">
        <ele>192</ele>
        <time>2022-07-15T09:21:05.000Z</time>
      </trkpt>
      <trkpt lat="49.87421" lon="4.81646">
        <ele>192</ele>
        <time>2022-07-15T09:21:06.000Z</time>
      </trkpt>
      <trkpt lat="49.8742" lon="4.81649">
        <ele>192</ele>
        <time>2022-07-15T09:21:07.000Z</time>
      </trkpt>
      <trkpt lat="49.8742" lon="4.81652">
        <ele>193</ele>
        <time>2022-07-15T09:21:08.000Z</time>
      </trkpt>
      <trkpt lat="49.87419" lon="4.81655">
        <ele>193</ele>
        <time>2022-07-15T09:21:09.000Z</time>
      </trkpt>
      <trkpt lat="49.87418" lon="4.81658">
        <ele>193</ele>
        <time>2022-07-15T09:21:10.000Z</time>
      </trkpt>
      <trkpt lat="49.87418" lon="4.81662">
        <ele>193</ele>
        <time>2022-07-15T09:21:11.000Z</time>
      </trkpt>
      <trkpt lat="49.87417" lon="4.81665">
        <ele>193</ele>
        <time>2022-07-15T09:21:12.000Z</time>
      </trkpt>
      <trkpt lat="49.87417" lon="4.81668">
        <ele>193</ele>
        <time>2022-07-15T09:21:13.000Z</time>
      </trkpt>
      <trkpt lat="49.87417" lon="4.81672">
        <ele>194</ele>
        <time>2022-07-15T09:21:14.000Z</time>
      </trkpt>
      <trkpt lat="49.87417" lon="4.81676">
        <ele>194</ele>
        <time>2022-07-15T09:21:15.000Z</time>
      </trkpt>
      <trkpt lat="49.87417" lon="4.8168">
        <ele>194</ele>
        <time>2022-07-15T09:21:16.000Z</time>
      </trkpt>
      <trkpt lat="49.87417" lon="4.81684">
        <ele>194</ele>
        <time>2022-07-15T09:21:17.000Z</time>
      </trkpt>
      <trkpt lat="49.87418" lon="4.81688">
        <ele>194</ele>
        <time>2022-07-15T09:21:18.000Z</time>
      </trkpt>
      <trkpt lat="49.87418" lon="4.81692">
        <ele>194</ele>
        <time>2022-07-15T09:21:19.000Z</time>
      </trkpt>
      <trkpt lat="49.87418" lon="4.81697">
        <ele>195</ele>
        <time>2022-07-15T09:21:20.000Z</time>
      </trkpt>
      <trkpt lat="49.87419" lon="4.81702">
        <ele>195</ele>
        <time>2022-07-15T09:21:21.000Z</time>
      </trkpt>
      <trkpt lat="49.87419" lon="4.81708">
        <ele>195</ele>
        <time>2022-07-15T09:21:22.000Z</time>
      </trkpt>
      <trkpt lat="49.8742" lon="4.81713">
        <ele>195</ele>
        <time>2022-07-15T09:21:23.000Z</time>
      </trkpt>
      <trkpt lat="49.8742" lon="4.81718">
        <ele>195</ele>
        <time>2022-07-15T09:21:24.000Z</time>
      </trkpt>
      <trkpt lat="49.87421" lon="4.81724">
        <ele>195</ele>
        <time>2022-07-15T09:21:25.000Z</time>
      </trkpt>
      <trkpt lat="49.87421" lon="4.81729">
        <ele>195</ele>
        <time>2022-07-15T09:21:26.000Z</time>
      </trkpt>
      <trkpt lat="49.87421" lon="4.81734">
        <ele>195</ele>
        <time>2022-07-15T09:21:27.000Z</time>
      </trkpt>
      <trkpt lat="49.87421" lon="4.81739">
        <ele>195</ele>
        <time>2022-07-15T09:21:28.000Z</time>
      </trkpt>
      <trkpt lat="49.87421" lon="4.81744">
        <ele>195</ele>
        <time>2022-07-15T09:21:29.000Z</time>
      </trkpt>
      <trkpt lat="49.8742" lon="4.81749">
        <ele>195</ele>
        <time>2022-07-15T09:21:30.000Z</time>
      </trkpt>
      <trkpt lat="49.87419" lon="4.81753">
        <ele>195</ele>
        <time>2022-07-15T09:21:31.000Z</time>
      </trkpt>
      <trkpt lat="49.87418" lon="4.81757">
        <ele>195</ele>
        <time>2022-07-15T09:21:32.000Z</time>
      </trkpt>
      <trkpt lat="49.87418" lon="4.8176">
        <ele>195</ele>
        <time>2022-07-15T09:21:33.000Z</time>
      </trkpt>
      <trkpt lat="49.87417" lon="4.81763">
        <ele>196</ele>
        <time>2022-07-15T09:21:34.000Z</time>
      </trkpt>
      <trkpt lat="49.87417" lon="4.81767">
        <ele>196</ele>
        <time>2022-07-15T09:21:35.000Z</time>
      </trkpt>
      <trkpt lat="49.87417" lon="4.8177">
        <ele>196</ele>
        <time>2022-07-15T09:21:36.000Z</time>
      </trkpt>
      <trkpt lat="49.87417" lon="4.81774">
        <ele>196</ele>
        <time>2022-07-15T09:21:37.000Z</time>
      </trkpt>
      <trkpt lat="49.87416" lon="4.81777">
        <ele>196</ele>
        <time>2022-07-15T09:21:38.000Z</time>
      </trkpt>
      <trkpt lat="49.87416" lon="4.8178">
        <ele>196</ele>
        <time>2022-07-15T09:21:39.000Z</time>
      </trkpt>
      <trkpt lat="49.87415" lon="4.81784">
        <ele>196</ele>
        <time>2022-07-15T09:21:40.000Z</time>
      </trkpt>
      <trkpt lat="49.87415" lon="4.81788">
        <ele>196</ele>
        <time>2022-07-15T09:21:41.000Z</time>
      </trkpt>
      <trkpt lat="49.87415" lon="4.81791">
        <ele>197</ele>
        <time>2022-07-15T09:21:42.000Z</time>
      </trkpt>
      <trkpt lat="49.87414" lon="4.81794">
        <ele>197</ele>
        <time>2022-07-15T09:21:43.000Z</time>
      </trkpt>
      <trkpt lat="49.87413" lon="4.81798">
        <ele>197</ele>
        <time>2022-07-15T09:21:44.000Z</time>
      </trkpt>
      <trkpt lat="49.87413" lon="4.81801">
        <ele>197</ele>
        <time>2022-07-15T09:21:45.000Z</time>
      </trkpt>
      <trkpt lat="49.87412" lon="4.81803">
        <ele>198</ele>
        <time>2022-07-15T09:21:46.000Z</time>
      </trkpt>
      <trkpt lat="49.87411" lon="4.81805">
        <ele>198</ele>
        <time>2022-07-15T09:21:47.000Z</time>
      </trkpt>
      <trkpt lat="49.8741" lon="4.81808">
        <ele>198</ele>
        <time>2022-07-15T09:21:48.000Z</time>
      </trkpt>
      <trkpt lat="49.87409" lon="4.81811">
        <ele>198</ele>
        <time>2022-07-15T09:21:49.000Z</time>
      </trkpt>
      <trkpt lat="49.87409" lon="4.81813">
        <ele>199</ele>
        <time>2022-07-15T09:21:50.000Z</time>
      </trkpt>
      <trkpt lat="49.87409" lon="4.81816">
        <ele>199</ele>
        <time>2022-07-15T09:21:51.000Z</time>
      </trkpt>
      <trkpt lat="49.87408" lon="4.81818">
        <ele>199</ele>
        <time>2022-07-15T09:21:52.000Z</time>
      </trkpt>
      <trkpt lat="49.87408" lon="4.81821">
        <ele>200</ele>
        <time>2022-07-15T09:21:53.000Z</time>
      </trkpt>
      <trkpt lat="49.87409" lon="4.81824">
        <ele>200</ele>
        <time>2022-07-15T09:21:54.000Z</time>
      </trkpt>
      <trkpt lat="49.87409" lon="4.81826">
        <ele>200</ele>
        <time>2022-07-15T09:21:55.000Z</time>
      </trkpt>
      <trkpt lat="49.87409" lon="4.81829">
        <ele>201</ele>
        <time>2022-07-15T09:21:56.000Z</time>
      </trkpt>
      <trkpt lat="49.87409" lon="4.81832">
        <ele>201</ele>
        <time>2022-07-15T09:21:57.000Z</time>
      </trkpt>
      <trkpt lat="49.87409" lon="4.81835">
        <ele>201</ele>
        <time>2022-07-15T09:21:58.000Z</time>
      </trkpt>
      <trkpt lat="49.87408" lon="4.81837">
        <ele>201</ele>
        <time>2022-07-15T09:21:59.000Z</time>
      </trkpt>
      <trkpt lat="49.87408" lon="4.81839">
        <ele>202</ele>
        <time>2022-07-15T09:22:00.000Z</time>
      </trkpt>
      <trkpt lat="49.87407" lon="4.81841">
        <ele>202</ele>
        <time>2022-07-15T09:22:01.000Z</time>
      </trkpt>
      <trkpt lat="49.87407" lon="4.81845">
        <ele>202</ele>
        <time>2022-07-15T09:22:02.000Z</time>
      </trkpt>
      <trkpt lat="49.87407" lon="4.81847">
        <ele>202</ele>
        <time>2022-07-15T09:22:03.000Z</time>
      </trkpt>
      <trkpt lat="49.87407" lon="4.8185">
        <ele>203</ele>
        <time>2022-07-15T09:22:04.000Z</time>
      </trkpt>
      <trkpt lat="49.87406" lon="4.81852">
        <ele>203</ele>
        <time>2022-07-15T09:22:05.000Z</time>
      </trkpt>
      <trkpt lat="49.87406" lon="4.81855">
        <ele>203</ele>
        <time>2022-07-15T09:22:06.000Z</time>
      </trkpt>
      <trkpt lat="49.87406" lon="4.81858">
        <ele>204</ele>
        <time>2022-07-15T09:22:07.000Z</time>
      </trkpt>
      <trkpt lat="49.87406" lon="4.81861">
        <ele>204</ele>
        <time>2022-07-15T09:22:08.000Z</time>
      </trkpt>
      <trkpt lat="49.87406" lon="4.81864">
        <ele>204</ele>
        <time>2022-07-15T09:22:09.000Z</time>
      </trkpt>
      <trkpt lat="49.87406" lon="4.81867">
        <ele>205</ele>
        <time>2022-07-15T09:22:10.000Z</time>
      </trkpt>
      <trkpt lat="49.87406" lon="4.8187">
        <ele>205</ele>
        <time>2022-07-15T09:22:11.000Z</time>
      </trkpt>
      <trkpt lat="49.87406" lon="4.81872">
        <ele>206</ele>
        <time>2022-07-15T09:22:12.000Z</time>
      </trkpt>
      <trkpt lat="49.87406" lon="4.81874">
        <ele>206</ele>
        <time>2022-07-15T09:22:13.000Z</time>
      </trkpt>
      <trkpt lat="49.87406" lon="4.81877">
        <ele>206</ele>
        <time>2022-07-15T09:22:14.000Z</time>
      </trkpt>
      <trkpt lat="49.87406" lon="4.8188">
        <ele>206</ele>
        <time>2022-07-15T09:22:15.000Z</time>
      </trkpt>
      <trkpt lat="49.87406" lon="4.81883">
        <ele>207</ele>
        <time>2022-07-15T09:22:16.000Z</time>
      </trkpt>
      <trkpt lat="49.87406" lon="4.81886">
        <ele>207</ele>
        <time>2022-07-15T09:22:17.000Z</time>
      </trkpt>
      <trkpt lat="49.87406" lon="4.81889">
        <ele>207</ele>
        <time>2022-07-15T09:22:18.000Z</time>
      </trkpt>
      <trkpt lat="49.87406" lon="4.81892">
        <ele>207</ele>
        <time>2022-07-15T09:22:19.000Z</time>
      </trkpt>
      <trkpt lat="49.87406" lon="4.81895">
        <ele>208</ele>
        <time>2022-07-15T09:22:20.000Z</time>
      </trkpt>
      <trkpt lat="49.87406" lon="4.81897">
        <ele>208</ele>
        <time>2022-07-15T09:22:21.000Z</time>
      </trkpt>
      <trkpt lat="49.87406" lon="4.81901">
        <ele>208</ele>
        <time>2022-07-15T09:22:22.000Z</time>
      </trkpt>
      <trkpt lat="49.87407" lon="4.81903">
        <ele>209</ele>
        <time>2022-07-15T09:22:23.000Z</time>
      </trkpt>
      <trkpt lat="49.87407" lon="4.81905">
        <ele>209</ele>
        <time>2022-07-15T09:22:24.000Z</time>
      </trkpt>
      <trkpt lat="49.87407" lon="4.81908">
        <ele>210</ele>
        <time>2022-07-15T09:22:25.000Z</time>
      </trkpt>
      <trkpt lat="49.87406" lon="4.8191">
        <ele>210</ele>
        <time>2022-07-15T09:22:26.000Z</time>
      </trkpt>
      <trkpt lat="49.87406" lon="4.81912">
        <ele>210</ele>
        <time>2022-07-15T09:22:27.000Z</time>
      </trkpt>
      <trkpt lat="49.87405" lon="4.81914">
        <ele>211</ele>
        <time>2022-07-15T09:22:28.000Z</time>
      </trkpt>
      <trkpt lat="49.87405" lon="4.81916">
        <ele>211</ele>
        <time>2022-07-15T09:22:29.000Z</time>
      </trkpt>
      <trkpt lat="49.87404" lon="4.81918">
        <ele>211</ele>
        <time>2022-07-15T09:22:30.000Z</time>
      </trkpt>
      <trkpt lat="49.87404" lon="4.8192">
        <ele>211</ele>
        <time>2022-07-15T09:22:31.000Z</time>
      </trkpt>
      <trkpt lat="49.87403" lon="4.81922">
        <ele>212</ele>
        <time>2022-07-15T09:22:32.000Z</time>
      </trkpt>
      <trkpt lat="49.87403" lon="4.81924">
        <ele>212</ele>
        <time>2022-07-15T09:22:33.000Z</time>
      </trkpt>
      <trkpt lat="49.87403" lon="4.81927">
        <ele>212</ele>
        <time>2022-07-15T09:22:34.000Z</time>
      </trkpt>
      <trkpt lat="49.87403" lon="4.8193">
        <ele>213</ele>
        <time>2022-07-15T09:22:35.000Z</time>
      </trkpt>
      <trkpt lat="49.87402" lon="4.81933">
        <ele>213</ele>
        <time>2022-07-15T09:22:36.000Z</time>
      </trkpt>
      <trkpt lat="49.87402" lon="4.81936">
        <ele>214</ele>
        <time>2022-07-15T09:22:37.000Z</time>
      </trkpt>
      <trkpt lat="49.87402" lon="4.81939">
        <ele>214</ele>
        <time>2022-07-15T09:22:38.000Z</time>
      </trkpt>
      <trkpt lat="49.87402" lon="4.81941">
        <ele>214</ele>
        <time>2022-07-15T09:22:39.000Z</time>
      </trkpt>
      <trkpt lat="49.87402" lon="4.81943">
        <ele>215</ele>
        <time>2022-07-15T09:22:40.000Z</time>
      </trkpt>
      <trkpt lat="49.87401" lon="4.81945">
        <ele>215</ele>
        <time>2022-07-15T09:22:41.000Z</time>
      </trkpt>
      <trkpt lat="49.87401" lon="4.81948">
        <ele>215</ele>
        <time>2022-07-15T09:22:42.000Z</time>
      </trkpt>
      <trkpt lat="49.87401" lon="4.81949">
        <ele>215</ele>
        <time>2022-07-15T09:22:43.000Z</time>
      </trkpt>
      <trkpt lat="49.87401" lon="4.81951">
        <ele>216</ele>
        <time>2022-07-15T09:22:44.000Z</time>
      </trkpt>
      <trkpt lat="49.874" lon="4.81953">
        <ele>216</ele>
        <time>2022-07-15T09:22:45.000Z</time>
      </trkpt>
      <trkpt lat="49.874" lon="4.81956">
        <ele>216</ele>
        <time>2022-07-15T09:22:46.000Z</time>
      </trkpt>
      <trkpt lat="49.874" lon="4.81959">
        <ele>216</ele>
        <time>2022-07-15T09:22:47.000Z</time>
      </trkpt>
      <trkpt lat="49.874" lon="4.81962">
        <ele>216</ele>
        <time>2022-07-15T09:22:48.000Z</time>
      </trkpt>
      <trkpt lat="49.874" lon="4.81965">
        <ele>217</ele>
        <time>2022-07-15T09:22:49.000Z</time>
      </trkpt>
      <trkpt lat="49.874" lon="4.81968">
        <ele>217</ele>
        <time>2022-07-15T09:22:50.000Z</time>
      </trkpt>
      <trkpt lat="49.87399" lon="4.8197">
        <ele>217</ele>
        <time>2022-07-15T09:22:51.000Z</time>
      </trkpt>
      <trkpt lat="49.87399" lon="4.81972">
        <ele>217</ele>
        <time>2022-07-15T09:22:52.000Z</time>
      </trkpt>
      <trkpt lat="49.87399" lon="4.81975">
        <ele>217</ele>
        <time>2022-07-15T09:22:53.000Z</time>
      </trkpt>
      <trkpt lat="49.87399" lon="4.81977">
        <ele>218</ele>
        <time>2022-07-15T09:22:54.000Z</time>
      </trkpt>
      <trkpt lat="49.87398" lon="4.8198">
        <ele>218</ele>
        <time>2022-07-15T09:22:55.000Z</time>
      </trkpt>
      <trkpt lat="49.87398" lon="4.81982">
        <ele>218</ele>
        <time>2022-07-15T09:22:56.000Z</time>
      </trkpt>
      <trkpt lat="49.87397" lon="4.81985">
        <ele>218</ele>
        <time>2022-07-15T09:22:57.000Z</time>
      </trkpt>
      <trkpt lat="49.87397" lon="4.81987">
        <ele>219</ele>
        <time>2022-07-15T09:22:58.000Z</time>
      </trkpt>
      <trkpt lat="49.87396" lon="4.81989">
        <ele>219</ele>
        <time>2022-07-15T09:22:59.000Z</time>
      </trkpt>
      <trkpt lat="49.87395" lon="4.81991">
        <ele>219</ele>
        <time>2022-07-15T09:23:00.000Z</time>
      </trkpt>
      <trkpt lat="49.87395" lon="4.81993">
        <ele>220</ele>
        <time>2022-07-15T09:23:01.000Z</time>
      </trkpt>
      <trkpt lat="49.87394" lon="4.81995">
        <ele>220</ele>
        <time>2022-07-15T09:23:02.000Z</time>
      </trkpt>
      <trkpt lat="49.87394" lon="4.81998">
        <ele>220</ele>
        <time>2022-07-15T09:23:03.000Z</time>
      </trkpt>
      <trkpt lat="49.87393" lon="4.82">
        <ele>220</ele>
        <time>2022-07-15T09:23:04.000Z</time>
      </trkpt>
      <trkpt lat="49.87393" lon="4.82003">
        <ele>221</ele>
        <time>2022-07-15T09:23:05.000Z</time>
      </trkpt>
      <trkpt lat="49.87392" lon="4.82005">
        <ele>221</ele>
        <time>2022-07-15T09:23:06.000Z</time>
      </trkpt>
      <trkpt lat="49.87392" lon="4.82008">
        <ele>221</ele>
        <time>2022-07-15T09:23:07.000Z</time>
      </trkpt>
      <trkpt lat="49.87392" lon="4.82011">
        <ele>221</ele>
        <time>2022-07-15T09:23:08.000Z</time>
      </trkpt>
      <trkpt lat="49.87392" lon="4.82013">
        <ele>221</ele>
        <time>2022-07-15T09:23:09.000Z</time>
      </trkpt>
      <trkpt lat="49.87391" lon="4.82016">
        <ele>222</ele>
        <time>2022-07-15T09:23:10.000Z</time>
      </trkpt>
      <trkpt lat="49.87391" lon="4.82019">
        <ele>222</ele>
        <time>2022-07-15T09:23:11.000Z</time>
      </trkpt>
      <trkpt lat="49.8739" lon="4.82021">
        <ele>222</ele>
        <time>2022-07-15T09:23:12.000Z</time>
      </trkpt>
      <trkpt lat="49.87389" lon="4.82023">
        <ele>222</ele>
        <time>2022-07-15T09:23:13.000Z</time>
      </trkpt>
      <trkpt lat="49.87388" lon="4.82026">
        <ele>222</ele>
        <time>2022-07-15T09:23:14.000Z</time>
      </trkpt>
      <trkpt lat="49.87388" lon="4.82028">
        <ele>222</ele>
        <time>2022-07-15T09:23:15.000Z</time>
      </trkpt>
      <trkpt lat="49.87387" lon="4.82031">
        <ele>222</ele>
        <time>2022-07-15T09:23:16.000Z</time>
      </trkpt>
      <trkpt lat="49.87386" lon="4.82033">
        <ele>222</ele>
        <time>2022-07-15T09:23:17.000Z</time>
      </trkpt>
      <trkpt lat="49.87385" lon="4.82036">
        <ele>223</ele>
        <time>2022-07-15T09:23:18.000Z</time>
      </trkpt>
      <trkpt lat="49.87384" lon="4.82038">
        <ele>223</ele>
        <time>2022-07-15T09:23:19.000Z</time>
      </trkpt>
      <trkpt lat="49.87383" lon="4.8204">
        <ele>223</ele>
        <time>2022-07-15T09:23:20.000Z</time>
      </trkpt>
      <trkpt lat="49.87382" lon="4.82042">
        <ele>223</ele>
        <time>2022-07-15T09:23:21.000Z</time>
      </trkpt>
      <trkpt lat="49.8738" lon="4.82043">
        <ele>223</ele>
        <time>2022-07-15T09:23:22.000Z</time>
      </trkpt>
      <trkpt lat="49.87378" lon="4.82043">
        <ele>223</ele>
        <time>2022-07-15T09:23:23.000Z</time>
      </trkpt>
      <trkpt lat="49.87376" lon="4.82043">
        <ele>223</ele>
        <time>2022-07-15T09:23:24.000Z</time>
      </trkpt>
      <trkpt lat="49.87374" lon="4.82043">
        <ele>223</ele>
        <time>2022-07-15T09:23:25.000Z</time>
      </trkpt>
      <trkpt lat="49.87372" lon="4.82043">
        <ele>223</ele>
        <time>2022-07-15T09:23:26.000Z</time>
      </trkpt>
      <trkpt lat="49.8737" lon="4.82042">
        <ele>223</ele>
        <time>2022-07-15T09:23:27.000Z</time>
      </trkpt>
      <trkpt lat="49.87368" lon="4.82041">
        <ele>224</ele>
        <time>2022-07-15T09:23:28.000Z</time>
      </trkpt>
      <trkpt lat="49.87366" lon="4.8204">
        <ele>224</ele>
        <time>2022-07-15T09:23:29.000Z</time>
      </trkpt>
      <trkpt lat="49.87364" lon="4.82039">
        <ele>224</ele>
        <time>2022-07-15T09:23:30.000Z</time>
      </trkpt>
      <trkpt lat="49.87362" lon="4.82037">
        <ele>224</ele>
        <time>2022-07-15T09:23:31.000Z</time>
      </trkpt>
      <trkpt lat="49.8736" lon="4.82036">
        <ele>224</ele>
        <time>2022-07-15T09:23:32.000Z</time>
      </trkpt>
      <trkpt lat="49.87358" lon="4.82035">
        <ele>224</ele>
        <time>2022-07-15T09:23:33.000Z</time>
      </trkpt>
      <trkpt lat="49.87356" lon="4.82033">
        <ele>224</ele>
        <time>2022-07-15T09:23:34.000Z</time>
      </trkpt>
      <trkpt lat="49.87354" lon="4.82033">
        <ele>224</ele>
        <time>2022-07-15T09:23:35.000Z</time>
      </trkpt>
      <trkpt lat="49.87351" lon="4.82032">
        <ele>225</ele>
        <time>2022-07-15T09:23:36.000Z</time>
      </trkpt>
      <trkpt lat="49.8735" lon="4.8203">
        <ele>225</ele>
        <time>2022-07-15T09:23:37.000Z</time>
      </trkpt>
      <trkpt lat="49.87348" lon="4.82029">
        <ele>225</ele>
        <time>2022-07-15T09:23:38.000Z</time>
      </trkpt>
      <trkpt lat="49.87347" lon="4.82028">
        <ele>225</ele>
        <time>2022-07-15T09:23:39.000Z</time>
      </trkpt>
      <trkpt lat="49.87345" lon="4.82027">
        <ele>225</ele>
        <time>2022-07-15T09:23:40.000Z</time>
      </trkpt>
      <trkpt lat="49.87343" lon="4.82026">
        <ele>225</ele>
        <time>2022-07-15T09:23:41.000Z</time>
      </trkpt>
      <trkpt lat="49.87341" lon="4.82025">
        <ele>225</ele>
        <time>2022-07-15T09:23:42.000Z</time>
      </trkpt>
      <trkpt lat="49.87338" lon="4.82024">
        <ele>226</ele>
        <time>2022-07-15T09:23:43.000Z</time>
      </trkpt>
      <trkpt lat="49.87337" lon="4.82023">
        <ele>226</ele>
        <time>2022-07-15T09:23:44.000Z</time>
      </trkpt>
      <trkpt lat="49.87334" lon="4.82022">
        <ele>226</ele>
        <time>2022-07-15T09:23:45.000Z</time>
      </trkpt>
      <trkpt lat="49.87332" lon="4.82021">
        <ele>226</ele>
        <time>2022-07-15T09:23:46.000Z</time>
      </trkpt>
      <trkpt lat="49.8733" lon="4.8202">
        <ele>226</ele>
        <time>2022-07-15T09:23:47.000Z</time>
      </trkpt>
      <trkpt lat="49.87328" lon="4.82018">
        <ele>226</ele>
        <time>2022-07-15T09:23:48.000Z</time>
      </trkpt>
      <trkpt lat="49.87326" lon="4.82017">
        <ele>226</ele>
        <time>2022-07-15T09:23:49.000Z</time>
      </trkpt>
      <trkpt lat="49.87324" lon="4.82016">
        <ele>226</ele>
        <time>2022-07-15T09:23:50.000Z</time>
      </trkpt>
      <trkpt lat="49.87322" lon="4.82016">
        <ele>227</ele>
        <time>2022-07-15T09:23:51.000Z</time>
      </trkpt>
      <trkpt lat="49.8732" lon="4.82015">
        <ele>227</ele>
        <time>2022-07-15T09:23:52.000Z</time>
      </trkpt>
      <trkpt lat="49.87317" lon="4.82015">
        <ele>227</ele>
        <time>2022-07-15T09:23:53.000Z</time>
      </trkpt>
      <trkpt lat="49.87316" lon="4.82014">
        <ele>227</ele>
        <time>2022-07-15T09:23:54.000Z</time>
      </trkpt>
      <trkpt lat="49.87314" lon="4.82013">
        <ele>227</ele>
        <time>2022-07-15T09:23:55.000Z</time>
      </trkpt>
      <trkpt lat="49.87312" lon="4.82012">
        <ele>227</ele>
        <time>2022-07-15T09:23:56.000Z</time>
      </trkpt>
      <trkpt lat="49.8731" lon="4.82011">
        <ele>227</ele>
        <time>2022-07-15T09:23:57.000Z</time>
      </trkpt>
      <trkpt lat="49.87307" lon="4.8201">
        <ele>227</ele>
        <time>2022-07-15T09:23:58.000Z</time>
      </trkpt>
      <trkpt lat="49.87305" lon="4.8201">
        <ele>228</ele>
        <time>2022-07-15T09:23:59.000Z</time>
      </trkpt>
      <trkpt lat="49.87303" lon="4.82009">
        <ele>228</ele>
        <time>2022-07-15T09:24:00.000Z</time>
      </trkpt>
      <trkpt lat="49.87301" lon="4.82008">
        <ele>228</ele>
        <time>2022-07-15T09:24:01.000Z</time>
      </trkpt>
      <trkpt lat="49.87298" lon="4.82007">
        <ele>228</ele>
        <time>2022-07-15T09:24:02.000Z</time>
      </trkpt>
      <trkpt lat="49.87296" lon="4.82006">
        <ele>228</ele>
        <time>2022-07-15T09:24:03.000Z</time>
      </trkpt>
      <trkpt lat="49.87294" lon="4.82006">
        <ele>228</ele>
        <time>2022-07-15T09:24:04.000Z</time>
      </trkpt>
      <trkpt lat="49.87292" lon="4.82004">
        <ele>228</ele>
        <time>2022-07-15T09:24:05.000Z</time>
      </trkpt>
      <trkpt lat="49.8729" lon="4.82003">
        <ele>229</ele>
        <time>2022-07-15T09:24:06.000Z</time>
      </trkpt>
      <trkpt lat="49.87287" lon="4.82002">
        <ele>229</ele>
        <time>2022-07-15T09:24:07.000Z</time>
      </trkpt>
      <trkpt lat="49.87285" lon="4.82001">
        <ele>229</ele>
        <time>2022-07-15T09:24:08.000Z</time>
      </trkpt>
      <trkpt lat="49.87283" lon="4.82">
        <ele>229</ele>
        <time>2022-07-15T09:24:09.000Z</time>
      </trkpt>
      <trkpt lat="49.87281" lon="4.81998">
        <ele>229</ele>
        <time>2022-07-15T09:24:10.000Z</time>
      </trkpt>
      <trkpt lat="49.87279" lon="4.81997">
        <ele>230</ele>
        <time>2022-07-15T09:24:11.000Z</time>
      </trkpt>
      <trkpt lat="49.87277" lon="4.81996">
        <ele>230</ele>
        <time>2022-07-15T09:24:12.000Z</time>
      </trkpt>
      <trkpt lat="49.87275" lon="4.81995">
        <ele>230</ele>
        <time>2022-07-15T09:24:13.000Z</time>
      </trkpt>
      <trkpt lat="49.87272" lon="4.81994">
        <ele>230</ele>
        <time>2022-07-15T09:24:14.000Z</time>
      </trkpt>
      <trkpt lat="49.8727" lon="4.81993">
        <ele>231</ele>
        <time>2022-07-15T09:24:15.000Z</time>
      </trkpt>
      <trkpt lat="49.87268" lon="4.81991">
        <ele>231</ele>
        <time>2022-07-15T09:24:16.000Z</time>
      </trkpt>
      <trkpt lat="49.87266" lon="4.8199">
        <ele>231</ele>
        <time>2022-07-15T09:24:17.000Z</time>
      </trkpt>
      <trkpt lat="49.87264" lon="4.81988">
        <ele>232</ele>
        <time>2022-07-15T09:24:18.000Z</time>
      </trkpt>
      <trkpt lat="49.87262" lon="4.81987">
        <ele>232</ele>
        <time>2022-07-15T09:24:19.000Z</time>
      </trkpt>
      <trkpt lat="49.8726" lon="4.81986">
        <ele>232</ele>
        <time>2022-07-15T09:24:20.000Z</time>
      </trkpt>
      <trkpt lat="49.87258" lon="4.81984">
        <ele>232</ele>
        <time>2022-07-15T09:24:21.000Z</time>
      </trkpt>
      <trkpt lat="49.87255" lon="4.81983">
        <ele>232</ele>
        <time>2022-07-15T09:24:22.000Z</time>
      </trkpt>
      <trkpt lat="49.87253" lon="4.81982">
        <ele>233</ele>
        <time>2022-07-15T09:24:23.000Z</time>
      </trkpt>
      <trkpt lat="49.87251" lon="4.81981">
        <ele>233</ele>
        <time>2022-07-15T09:24:24.000Z</time>
      </trkpt>
      <trkpt lat="49.87248" lon="4.81979">
        <ele>233</ele>
        <time>2022-07-15T09:24:25.000Z</time>
      </trkpt>
      <trkpt lat="49.87246" lon="4.81979">
        <ele>233</ele>
        <time>2022-07-15T09:24:26.000Z</time>
      </trkpt>
      <trkpt lat="49.87244" lon="4.81978">
        <ele>234</ele>
        <time>2022-07-15T09:24:27.000Z</time>
      </trkpt>
      <trkpt lat="49.87242" lon="4.81978">
        <ele>234</ele>
        <time>2022-07-15T09:24:28.000Z</time>
      </trkpt>
      <trkpt lat="49.87239" lon="4.81978">
        <ele>234</ele>
        <time>2022-07-15T09:24:29.000Z</time>
      </trkpt>
      <trkpt lat="49.87237" lon="4.81977">
        <ele>234</ele>
        <time>2022-07-15T09:24:30.000Z</time>
      </trkpt>
      <trkpt lat="49.87234" lon="4.81977">
        <ele>235</ele>
        <time>2022-07-15T09:24:31.000Z</time>
      </trkpt>
      <trkpt lat="49.87232" lon="4.81977">
        <ele>235</ele>
        <time>2022-07-15T09:24:32.000Z</time>
      </trkpt>
      <trkpt lat="49.8723" lon="4.81975">
        <ele>235</ele>
        <time>2022-07-15T09:24:33.000Z</time>
      </trkpt>
      <trkpt lat="49.87228" lon="4.81974">
        <ele>235</ele>
        <time>2022-07-15T09:24:34.000Z</time>
      </trkpt>
      <trkpt lat="49.87225" lon="4.81973">
        <ele>236</ele>
        <time>2022-07-15T09:24:35.000Z</time>
      </trkpt>
      <trkpt lat="49.87223" lon="4.81972">
        <ele>236</ele>
        <time>2022-07-15T09:24:36.000Z</time>
      </trkpt>
      <trkpt lat="49.8722" lon="4.81971">
        <ele>236</ele>
        <time>2022-07-15T09:24:37.000Z</time>
      </trkpt>
      <trkpt lat="49.87218" lon="4.8197">
        <ele>236</ele>
        <time>2022-07-15T09:24:38.000Z</time>
      </trkpt>
      <trkpt lat="49.87215" lon="4.8197">
        <ele>236</ele>
        <time>2022-07-15T09:24:39.000Z</time>
      </trkpt>
      <trkpt lat="49.87212" lon="4.8197">
        <ele>236</ele>
        <time>2022-07-15T09:24:40.000Z</time>
      </trkpt>
      <trkpt lat="49.87209" lon="4.81969">
        <ele>236</ele>
        <time>2022-07-15T09:24:41.000Z</time>
      </trkpt>
      <trkpt lat="49.87207" lon="4.81968">
        <ele>237</ele>
        <time>2022-07-15T09:24:42.000Z</time>
      </trkpt>
      <trkpt lat="49.87204" lon="4.81968">
        <ele>237</ele>
        <time>2022-07-15T09:24:43.000Z</time>
      </trkpt>
      <trkpt lat="49.87202" lon="4.81967">
        <ele>237</ele>
        <time>2022-07-15T09:24:44.000Z</time>
      </trkpt>
      <trkpt lat="49.87199" lon="4.81967">
        <ele>237</ele>
        <time>2022-07-15T09:24:45.000Z</time>
      </trkpt>
      <trkpt lat="49.87197" lon="4.81966">
        <ele>238</ele>
        <time>2022-07-15T09:24:46.000Z</time>
      </trkpt>
      <trkpt lat="49.87195" lon="4.81966">
        <ele>238</ele>
        <time>2022-07-15T09:24:47.000Z</time>
      </trkpt>
      <trkpt lat="49.87192" lon="4.81965">
        <ele>238</ele>
        <time>2022-07-15T09:24:48.000Z</time>
      </trkpt>
      <trkpt lat="49.8719" lon="4.81964">
        <ele>239</ele>
        <time>2022-07-15T09:24:49.000Z</time>
      </trkpt>
      <trkpt lat="49.87187" lon="4.81964">
        <ele>239</ele>
        <time>2022-07-15T09:24:50.000Z</time>
      </trkpt>
      <trkpt lat="49.87184" lon="4.81963">
        <ele>240</ele>
        <time>2022-07-15T09:24:51.000Z</time>
      </trkpt>
      <trkpt lat="49.87181" lon="4.81962">
        <ele>240</ele>
        <time>2022-07-15T09:24:52.000Z</time>
      </trkpt>
      <trkpt lat="49.87179" lon="4.81961">
        <ele>240</ele>
        <time>2022-07-15T09:24:53.000Z</time>
      </trkpt>
      <trkpt lat="49.87177" lon="4.8196">
        <ele>241</ele>
        <time>2022-07-15T09:24:54.000Z</time>
      </trkpt>
      <trkpt lat="49.87174" lon="4.81959">
        <ele>241</ele>
        <time>2022-07-15T09:24:55.000Z</time>
      </trkpt>
      <trkpt lat="49.87172" lon="4.81958">
        <ele>241</ele>
        <time>2022-07-15T09:24:56.000Z</time>
      </trkpt>
      <trkpt lat="49.87169" lon="4.81957">
        <ele>242</ele>
        <time>2022-07-15T09:24:57.000Z</time>
      </trkpt>
      <trkpt lat="49.87166" lon="4.81955">
        <ele>242</ele>
        <time>2022-07-15T09:24:58.000Z</time>
      </trkpt>
      <trkpt lat="49.87163" lon="4.81954">
        <ele>242</ele>
        <time>2022-07-15T09:24:59.000Z</time>
      </trkpt>
      <trkpt lat="49.8716" lon="4.81953">
        <ele>242</ele>
        <time>2022-07-15T09:25:00.000Z</time>
      </trkpt>
      <trkpt lat="49.87157" lon="4.81952">
        <ele>242</ele>
        <time>2022-07-15T09:25:01.000Z</time>
      </trkpt>
      <trkpt lat="49.87155" lon="4.81952">
        <ele>242</ele>
        <time>2022-07-15T09:25:02.000Z</time>
      </trkpt>
      <trkpt lat="49.87152" lon="4.81951">
        <ele>242</ele>
        <time>2022-07-15T09:25:03.000Z</time>
      </trkpt>
      <trkpt lat="49.8715" lon="4.81949">
        <ele>242</ele>
        <time>2022-07-15T09:25:04.000Z</time>
      </trkpt>
      <trkpt lat="49.87147" lon="4.81948">
        <ele>242</ele>
        <time>2022-07-15T09:25:05.000Z</time>
      </trkpt>
      <trkpt lat="49.87145" lon="4.81948">
        <ele>242</ele>
        <time>2022-07-15T09:25:06.000Z</time>
      </trkpt>
      <trkpt lat="49.87142" lon="4.81947">
        <ele>242</ele>
        <time>2022-07-15T09:25:07.000Z</time>
      </trkpt>
      <trkpt lat="49.87139" lon="4.81946">
        <ele>242</ele>
        <time>2022-07-15T09:25:08.000Z</time>
      </trkpt>
      <trkpt lat="49.87137" lon="4.81945">
        <ele>242</ele>
        <time>2022-07-15T09:25:09.000Z</time>
      </trkpt>
      <trkpt lat="49.87134" lon="4.81945">
        <ele>242</ele>
        <time>2022-07-15T09:25:10.000Z</time>
      </trkpt>
      <trkpt lat="49.87131" lon="4.81943">
        <ele>242</ele>
        <time>2022-07-15T09:25:11.000Z</time>
      </trkpt>
      <trkpt lat="49.87129" lon="4.81943">
        <ele>242</ele>
        <time>2022-07-15T09:25:12.000Z</time>
      </trkpt>
      <trkpt lat="49.87126" lon="4.81943">
        <ele>242</ele>
        <time>2022-07-15T09:25:13.000Z</time>
      </trkpt>
      <trkpt lat="49.87123" lon="4.81942">
        <ele>242</ele>
        <time>2022-07-15T09:25:14.000Z</time>
      </trkpt>
      <trkpt lat="49.87121" lon="4.81942">
        <ele>242</ele>
        <time>2022-07-15T09:25:15.000Z</time>
      </trkpt>
      <trkpt lat="49.87118" lon="4.81942">
        <ele>242</ele>
        <time>2022-07-15T09:25:16.000Z</time>
      </trkpt>
      <trkpt lat="49.87115" lon="4.81941">
        <ele>242</ele>
        <time>2022-07-15T09:25:17.000Z</time>
      </trkpt>
      <trkpt lat="49.87113" lon="4.81941">
        <ele>242</ele>
        <time>2022-07-15T09:25:18.000Z</time>
      </trkpt>
      <trkpt lat="49.8711" lon="4.81941">
        <ele>242</ele>
        <time>2022-07-15T09:25:19.000Z</time>
      </trkpt>
      <trkpt lat="49.87107" lon="4.81941">
        <ele>242</ele>
        <time>2022-07-15T09:25:20.000Z</time>
      </trkpt>
      <trkpt lat="49.87104" lon="4.81941">
        <ele>242</ele>
        <time>2022-07-15T09:25:21.000Z</time>
      </trkpt>
      <trkpt lat="49.87101" lon="4.81941">
        <ele>242</ele>
        <time>2022-07-15T09:25:22.000Z</time>
      </trkpt>
      <trkpt lat="49.87098" lon="4.81942">
        <ele>242</ele>
        <time>2022-07-15T09:25:23.000Z</time>
      </trkpt>
      <trkpt lat="49.87096" lon="4.81942">
        <ele>242</ele>
        <time>2022-07-15T09:25:24.000Z</time>
      </trkpt>
      <trkpt lat="49.87093" lon="4.81943">
        <ele>242</ele>
        <time>2022-07-15T09:25:25.000Z</time>
      </trkpt>
      <trkpt lat="49.8709" lon="4.81943">
        <ele>243</ele>
        <time>2022-07-15T09:25:26.000Z</time>
      </trkpt>
      <trkpt lat="49.87088" lon="4.81943">
        <ele>243</ele>
        <time>2022-07-15T09:25:27.000Z</time>
      </trkpt>
      <trkpt lat="49.87086" lon="4.81944">
        <ele>243</ele>
        <time>2022-07-15T09:25:28.000Z</time>
      </trkpt>
      <trkpt lat="49.87083" lon="4.81944">
        <ele>243</ele>
        <time>2022-07-15T09:25:29.000Z</time>
      </trkpt>
      <trkpt lat="49.87081" lon="4.81944">
        <ele>243</ele>
        <time>2022-07-15T09:25:30.000Z</time>
      </trkpt>
      <trkpt lat="49.87078" lon="4.81943">
        <ele>243</ele>
        <time>2022-07-15T09:25:31.000Z</time>
      </trkpt>
      <trkpt lat="49.87076" lon="4.81943">
        <ele>243</ele>
        <time>2022-07-15T09:25:32.000Z</time>
      </trkpt>
      <trkpt lat="49.87073" lon="4.81944">
        <ele>243</ele>
        <time>2022-07-15T09:25:33.000Z</time>
      </trkpt>
      <trkpt lat="49.87071" lon="4.81945">
        <ele>244</ele>
        <time>2022-07-15T09:25:34.000Z</time>
      </trkpt>
      <trkpt lat="49.87068" lon="4.81945">
        <ele>244</ele>
        <time>2022-07-15T09:25:35.000Z</time>
      </trkpt>
      <trkpt lat="49.87065" lon="4.81945">
        <ele>244</ele>
        <time>2022-07-15T09:25:36.000Z</time>
      </trkpt>
      <trkpt lat="49.87063" lon="4.81945">
        <ele>244</ele>
        <time>2022-07-15T09:25:37.000Z</time>
      </trkpt>
      <trkpt lat="49.8706" lon="4.81946">
        <ele>244</ele>
        <time>2022-07-15T09:25:38.000Z</time>
      </trkpt>
      <trkpt lat="49.87058" lon="4.81946">
        <ele>244</ele>
        <time>2022-07-15T09:25:39.000Z</time>
      </trkpt>
      <trkpt lat="49.87055" lon="4.81946">
        <ele>245</ele>
        <time>2022-07-15T09:25:40.000Z</time>
      </trkpt>
      <trkpt lat="49.87053" lon="4.81947">
        <ele>245</ele>
        <time>2022-07-15T09:25:41.000Z</time>
      </trkpt>
      <trkpt lat="49.8705" lon="4.81949">
        <ele>245</ele>
        <time>2022-07-15T09:25:42.000Z</time>
      </trkpt>
      <trkpt lat="49.87047" lon="4.8195">
        <ele>245</ele>
        <time>2022-07-15T09:25:43.000Z</time>
      </trkpt>
      <trkpt lat="49.87045" lon="4.8195">
        <ele>245</ele>
        <time>2022-07-15T09:25:44.000Z</time>
      </trkpt>
      <trkpt lat="49.87042" lon="4.81951">
        <ele>245</ele>
        <time>2022-07-15T09:25:45.000Z</time>
      </trkpt>
      <trkpt lat="49.87039" lon="4.81952">
        <ele>245</ele>
        <time>2022-07-15T09:25:46.000Z</time>
      </trkpt>
      <trkpt lat="49.87036" lon="4.81953">
        <ele>246</ele>
        <time>2022-07-15T09:25:47.000Z</time>
      </trkpt>
      <trkpt lat="49.87033" lon="4.81954">
        <ele>246</ele>
        <time>2022-07-15T09:25:48.000Z</time>
      </trkpt>
      <trkpt lat="49.87029" lon="4.81956">
        <ele>246</ele>
        <time>2022-07-15T09:25:49.000Z</time>
      </trkpt>
      <trkpt lat="49.87026" lon="4.81957">
        <ele>247</ele>
        <time>2022-07-15T09:25:50.000Z</time>
      </trkpt>
      <trkpt lat="49.87022" lon="4.81959">
        <ele>247</ele>
        <time>2022-07-15T09:25:51.000Z</time>
      </trkpt>
      <trkpt lat="49.87019" lon="4.8196">
        <ele>247</ele>
        <time>2022-07-15T09:25:52.000Z</time>
      </trkpt>
      <trkpt lat="49.87016" lon="4.81962">
        <ele>247</ele>
        <time>2022-07-15T09:25:53.000Z</time>
      </trkpt>
      <trkpt lat="49.87012" lon="4.81964">
        <ele>248</ele>
        <time>2022-07-15T09:25:54.000Z</time>
      </trkpt>
      <trkpt lat="49.87009" lon="4.81966">
        <ele>248</ele>
        <time>2022-07-15T09:25:55.000Z</time>
      </trkpt>
      <trkpt lat="49.87005" lon="4.81967">
        <ele>248</ele>
        <time>2022-07-15T09:25:56.000Z</time>
      </trkpt>
      <trkpt lat="49.87003" lon="4.81969">
        <ele>248</ele>
        <time>2022-07-15T09:25:57.000Z</time>
      </trkpt>
      <trkpt lat="49.87" lon="4.81971">
        <ele>248</ele>
        <time>2022-07-15T09:25:58.000Z</time>
      </trkpt>
      <trkpt lat="49.86997" lon="4.81973">
        <ele>249</ele>
        <time>2022-07-15T09:25:59.000Z</time>
      </trkpt>
      <trkpt lat="49.86994" lon="4.81975">
        <ele>249</ele>
        <time>2022-07-15T09:26:00.000Z</time>
      </trkpt>
      <trkpt lat="49.8699" lon="4.81976">
        <ele>249</ele>
        <time>2022-07-15T09:26:01.000Z</time>
      </trkpt>
      <trkpt lat="49.86987" lon="4.81978">
        <ele>249</ele>
        <time>2022-07-15T09:26:02.000Z</time>
      </trkpt>
      <trkpt lat="49.86983" lon="4.8198">
        <ele>249</ele>
        <time>2022-07-15T09:26:03.000Z</time>
      </trkpt>
      <trkpt lat="49.8698" lon="4.81983">
        <ele>250</ele>
        <time>2022-07-15T09:26:04.000Z</time>
      </trkpt>
      <trkpt lat="49.86976" lon="4.81985">
        <ele>250</ele>
        <time>2022-07-15T09:26:05.000Z</time>
      </trkpt>
      <trkpt lat="49.86973" lon="4.81988">
        <ele>250</ele>
        <time>2022-07-15T09:26:06.000Z</time>
      </trkpt>
      <trkpt lat="49.8697" lon="4.8199">
        <ele>250</ele>
        <time>2022-07-15T09:26:07.000Z</time>
      </trkpt>
      <trkpt lat="49.86967" lon="4.81992">
        <ele>251</ele>
        <time>2022-07-15T09:26:08.000Z</time>
      </trkpt>
      <trkpt lat="49.86964" lon="4.81995">
        <ele>251</ele>
        <time>2022-07-15T09:26:09.000Z</time>
      </trkpt>
      <trkpt lat="49.86961" lon="4.81999">
        <ele>251</ele>
        <time>2022-07-15T09:26:10.000Z</time>
      </trkpt>
      <trkpt lat="49.86958" lon="4.82003">
        <ele>252</ele>
        <time>2022-07-15T09:26:11.000Z</time>
      </trkpt>
      <trkpt lat="49.86955" lon="4.82007">
        <ele>252</ele>
        <time>2022-07-15T09:26:12.000Z</time>
      </trkpt>
      <trkpt lat="49.86951" lon="4.82011">
        <ele>252</ele>
        <time>2022-07-15T09:26:13.000Z</time>
      </trkpt>
      <trkpt lat="49.86948" lon="4.82016">
        <ele>253</ele>
        <time>2022-07-15T09:26:14.000Z</time>
      </trkpt>
      <trkpt lat="49.86945" lon="4.8202">
        <ele>253</ele>
        <time>2022-07-15T09:26:15.000Z</time>
      </trkpt>
      <trkpt lat="49.86942" lon="4.82023">
        <ele>253</ele>
        <time>2022-07-15T09:26:16.000Z</time>
      </trkpt>
      <trkpt lat="49.86939" lon="4.82027">
        <ele>254</ele>
        <time>2022-07-15T09:26:17.000Z</time>
      </trkpt>
      <trkpt lat="49.86937" lon="4.82031">
        <ele>254</ele>
        <time>2022-07-15T09:26:18.000Z</time>
      </trkpt>
      <trkpt lat="49.86934" lon="4.82036">
        <ele>254</ele>
        <time>2022-07-15T09:26:19.000Z</time>
      </trkpt>
      <trkpt lat="49.86932" lon="4.8204">
        <ele>255</ele>
        <time>2022-07-15T09:26:20.000Z</time>
      </trkpt>
      <trkpt lat="49.86929" lon="4.82044">
        <ele>255</ele>
        <time>2022-07-15T09:26:21.000Z</time>
      </trkpt>
      <trkpt lat="49.86927" lon="4.82048">
        <ele>255</ele>
        <time>2022-07-15T09:26:22.000Z</time>
      </trkpt>
      <trkpt lat="49.86925" lon="4.82052">
        <ele>256</ele>
        <time>2022-07-15T09:26:23.000Z</time>
      </trkpt>
      <trkpt lat="49.86922" lon="4.82056">
        <ele>256</ele>
        <time>2022-07-15T09:26:24.000Z</time>
      </trkpt>
      <trkpt lat="49.86919" lon="4.8206">
        <ele>256</ele>
        <time>2022-07-15T09:26:25.000Z</time>
      </trkpt>
      <trkpt lat="49.86917" lon="4.82064">
        <ele>256</ele>
        <time>2022-07-15T09:26:26.000Z</time>
      </trkpt>
      <trkpt lat="49.86914" lon="4.82068">
        <ele>256</ele>
        <time>2022-07-15T09:26:27.000Z</time>
      </trkpt>
      <trkpt lat="49.86912" lon="4.82073">
        <ele>257</ele>
        <time>2022-07-15T09:26:28.000Z</time>
      </trkpt>
      <trkpt lat="49.8691" lon="4.82078">
        <ele>257</ele>
        <time>2022-07-15T09:26:29.000Z</time>
      </trkpt>
      <trkpt lat="49.86907" lon="4.82082">
        <ele>257</ele>
        <time>2022-07-15T09:26:30.000Z</time>
      </trkpt>
      <trkpt lat="49.86906" lon="4.82086">
        <ele>258</ele>
        <time>2022-07-15T09:26:31.000Z</time>
      </trkpt>
      <trkpt lat="49.86905" lon="4.8209">
        <ele>258</ele>
        <time>2022-07-15T09:26:32.000Z</time>
      </trkpt>
      <trkpt lat="49.86903" lon="4.82095">
        <ele>258</ele>
        <time>2022-07-15T09:26:33.000Z</time>
      </trkpt>
      <trkpt lat="49.86901" lon="4.821">
        <ele>258</ele>
        <time>2022-07-15T09:26:34.000Z</time>
      </trkpt>
      <trkpt lat="49.86899" lon="4.82104">
        <ele>259</ele>
        <time>2022-07-15T09:26:35.000Z</time>
      </trkpt>
      <trkpt lat="49.86898" lon="4.82109">
        <ele>259</ele>
        <time>2022-07-15T09:26:36.000Z</time>
      </trkpt>
      <trkpt lat="49.86897" lon="4.82113">
        <ele>259</ele>
        <time>2022-07-15T09:26:37.000Z</time>
      </trkpt>
      <trkpt lat="49.86895" lon="4.82118">
        <ele>259</ele>
        <time>2022-07-15T09:26:38.000Z</time>
      </trkpt>
      <trkpt lat="49.86894" lon="4.82123">
        <ele>260</ele>
        <time>2022-07-15T09:26:39.000Z</time>
      </trkpt>
      <trkpt lat="49.86892" lon="4.82127">
        <ele>260</ele>
        <time>2022-07-15T09:26:40.000Z</time>
      </trkpt>
      <trkpt lat="49.8689" lon="4.82132">
        <ele>260</ele>
        <time>2022-07-15T09:26:41.000Z</time>
      </trkpt>
      <trkpt lat="49.86889" lon="4.82137">
        <ele>260</ele>
        <time>2022-07-15T09:26:42.000Z</time>
      </trkpt>
      <trkpt lat="49.86888" lon="4.82142">
        <ele>260</ele>
        <time>2022-07-15T09:26:43.000Z</time>
      </trkpt>
      <trkpt lat="49.86887" lon="4.82147">
        <ele>260</ele>
        <time>2022-07-15T09:26:44.000Z</time>
      </trkpt>
      <trkpt lat="49.86886" lon="4.82152">
        <ele>260</ele>
        <time>2022-07-15T09:26:45.000Z</time>
      </trkpt>
      <trkpt lat="49.86885" lon="4.82157">
        <ele>260</ele>
        <time>2022-07-15T09:26:46.000Z</time>
      </trkpt>
      <trkpt lat="49.86884" lon="4.82163">
        <ele>260</ele>
        <time>2022-07-15T09:26:47.000Z</time>
      </trkpt>
      <trkpt lat="49.86883" lon="4.82169">
        <ele>260</ele>
        <time>2022-07-15T09:26:48.000Z</time>
      </trkpt>
      <trkpt lat="49.86882" lon="4.82174">
        <ele>260</ele>
        <time>2022-07-15T09:26:49.000Z</time>
      </trkpt>
      <trkpt lat="49.86881" lon="4.8218">
        <ele>260</ele>
        <time>2022-07-15T09:26:50.000Z</time>
      </trkpt>
      <trkpt lat="49.86881" lon="4.82185">
        <ele>260</ele>
        <time>2022-07-15T09:26:51.000Z</time>
      </trkpt>
      <trkpt lat="49.86881" lon="4.8219">
        <ele>260</ele>
        <time>2022-07-15T09:26:52.000Z</time>
      </trkpt>
      <trkpt lat="49.8688" lon="4.82195">
        <ele>260</ele>
        <time>2022-07-15T09:26:53.000Z</time>
      </trkpt>
      <trkpt lat="49.86879" lon="4.82201">
        <ele>259</ele>
        <time>2022-07-15T09:26:54.000Z</time>
      </trkpt>
      <trkpt lat="49.86878" lon="4.82205">
        <ele>259</ele>
        <time>2022-07-15T09:26:55.000Z</time>
      </trkpt>
      <trkpt lat="49.86877" lon="4.82208">
        <ele>259</ele>
        <time>2022-07-15T09:26:56.000Z</time>
      </trkpt>
      <trkpt lat="49.86876" lon="4.82213">
        <ele>259</ele>
        <time>2022-07-15T09:26:57.000Z</time>
      </trkpt>
      <trkpt lat="49.86875" lon="4.82218">
        <ele>259</ele>
        <time>2022-07-15T09:26:58.000Z</time>
      </trkpt>
      <trkpt lat="49.86874" lon="4.82224">
        <ele>259</ele>
        <time>2022-07-15T09:26:59.000Z</time>
      </trkpt>
      <trkpt lat="49.86873" lon="4.8223">
        <ele>258</ele>
        <time>2022-07-15T09:27:00.000Z</time>
      </trkpt>
      <trkpt lat="49.86872" lon="4.82236">
        <ele>258</ele>
        <time>2022-07-15T09:27:01.000Z</time>
      </trkpt>
      <trkpt lat="49.86871" lon="4.82242">
        <ele>258</ele>
        <time>2022-07-15T09:27:02.000Z</time>
      </trkpt>
      <trkpt lat="49.8687" lon="4.82247">
        <ele>258</ele>
        <time>2022-07-15T09:27:03.000Z</time>
      </trkpt>
      <trkpt lat="49.86869" lon="4.82252">
        <ele>258</ele>
        <time>2022-07-15T09:27:04.000Z</time>
      </trkpt>
      <trkpt lat="49.86869" lon="4.82257">
        <ele>258</ele>
        <time>2022-07-15T09:27:05.000Z</time>
      </trkpt>
      <trkpt lat="49.86868" lon="4.82262">
        <ele>258</ele>
        <time>2022-07-15T09:27:06.000Z</time>
      </trkpt>
      <trkpt lat="49.86867" lon="4.82266">
        <ele>258</ele>
        <time>2022-07-15T09:27:07.000Z</time>
      </trkpt>
      <trkpt lat="49.86866" lon="4.82269">
        <ele>258</ele>
        <time>2022-07-15T09:27:08.000Z</time>
      </trkpt>
      <trkpt lat="49.86865" lon="4.82271">
        <ele>258</ele>
        <time>2022-07-15T09:27:09.000Z</time>
      </trkpt>
      <trkpt lat="49.86865" lon="4.82272">
        <ele>257</ele>
        <time>2022-07-15T09:27:10.000Z</time>
      </trkpt>
      <trkpt lat="49.86865" lon="4.82272">
        <ele>257</ele>
        <time>2022-07-15T09:27:11.000Z</time>
      </trkpt>
      <trkpt lat="49.86865" lon="4.82272">
        <ele>257</ele>
        <time>2022-07-15T09:27:12.000Z</time>
      </trkpt>
      <trkpt lat="49.86865" lon="4.82273">
        <ele>257</ele>
        <time>2022-07-15T09:27:13.000Z</time>
      </trkpt>
      <trkpt lat="49.86864" lon="4.82273">
        <ele>257</ele>
        <time>2022-07-15T09:27:14.000Z</time>
      </trkpt>
      <trkpt lat="49.86864" lon="4.82273">
        <ele>257</ele>
        <time>2022-07-15T09:27:15.000Z</time>
      </trkpt>
      <trkpt lat="49.86864" lon="4.82273">
        <ele>257</ele>
        <time>2022-07-15T09:27:16.000Z</time>
      </trkpt>
      <trkpt lat="49.86864" lon="4.82272">
        <ele>257</ele>
        <time>2022-07-15T09:27:17.000Z</time>
      </trkpt>
      <trkpt lat="49.86863" lon="4.82272">
        <ele>257</ele>
        <time>2022-07-15T09:27:18.000Z</time>
      </trkpt>
      <trkpt lat="49.86863" lon="4.82273">
        <ele>257</ele>
        <time>2022-07-15T09:27:19.000Z</time>
      </trkpt>
      <trkpt lat="49.86863" lon="4.82273">
        <ele>257</ele>
        <time>2022-07-15T09:27:20.000Z</time>
      </trkpt>
      <trkpt lat="49.86863" lon="4.82273">
        <ele>257</ele>
        <time>2022-07-15T09:27:21.000Z</time>
      </trkpt>
      <trkpt lat="49.86863" lon="4.82273">
        <ele>257</ele>
        <time>2022-07-15T09:27:22.000Z</time>
      </trkpt>
      <trkpt lat="49.86863" lon="4.82273">
        <ele>257</ele>
        <time>2022-07-15T09:27:23.000Z</time>
      </trkpt>
      <trkpt lat="49.86863" lon="4.82273">
        <ele>257</ele>
        <time>2022-07-15T09:27:24.000Z</time>
      </trkpt>
      <trkpt lat="49.86863" lon="4.82273">
        <ele>257</ele>
        <time>2022-07-15T09:27:25.000Z</time>
      </trkpt>
      <trkpt lat="49.86862" lon="4.82273">
        <ele>257</ele>
        <time>2022-07-15T09:27:26.000Z</time>
      </trkpt>
      <trkpt lat="49.86862" lon="4.82273">
        <ele>257</ele>
        <time>2022-07-15T09:27:27.000Z</time>
      </trkpt>
      <trkpt lat="49.86862" lon="4.82275">
        <ele>257</ele>
        <time>2022-07-15T09:27:28.000Z</time>
      </trkpt>
      <trkpt lat="49.86861" lon="4.82277">
        <ele>258</ele>
        <time>2022-07-15T09:27:29.000Z</time>
      </trkpt>
      <trkpt lat="49.86861" lon="4.82279">
        <ele>258</ele>
        <time>2022-07-15T09:27:30.000Z</time>
      </trkpt>
      <trkpt lat="49.86861" lon="4.82281">
        <ele>258</ele>
        <time>2022-07-15T09:27:31.000Z</time>
      </trkpt>
      <trkpt lat="49.8686" lon="4.82283">
        <ele>258</ele>
        <time>2022-07-15T09:27:32.000Z</time>
      </trkpt>
      <trkpt lat="49.86859" lon="4.82284">
        <ele>258</ele>
        <time>2022-07-15T09:27:33.000Z</time>
      </trkpt>
      <trkpt lat="49.8686" lon="4.82284">
        <ele>258</ele>
        <time>2022-07-15T09:27:34.000Z</time>
      </trkpt>
      <trkpt lat="49.8686" lon="4.82284">
        <ele>257</ele>
        <time>2022-07-15T09:27:35.000Z</time>
      </trkpt>
      <trkpt lat="49.8686" lon="4.82285">
        <ele>257</ele>
        <time>2022-07-15T09:27:36.000Z</time>
      </trkpt>
      <trkpt lat="49.8686" lon="4.82285">
        <ele>258</ele>
        <time>2022-07-15T09:27:37.000Z</time>
      </trkpt>
      <trkpt lat="49.8686" lon="4.82286">
        <ele>258</ele>
        <time>2022-07-15T09:27:38.000Z</time>
      </trkpt>
      <trkpt lat="49.8686" lon="4.82286">
        <ele>258</ele>
        <time>2022-07-15T09:27:39.000Z</time>
      </trkpt>
      <trkpt lat="49.8686" lon="4.82286">
        <ele>258</ele>
        <time>2022-07-15T09:27:40.000Z</time>
      </trkpt>
      <trkpt lat="49.8686" lon="4.82287">
        <ele>258</ele>
        <time>2022-07-15T09:27:41.000Z</time>
      </trkpt>
      <trkpt lat="49.8686" lon="4.82287">
        <ele>258</ele>
        <time>2022-07-15T09:27:42.000Z</time>
      </trkpt>
      <trkpt lat="49.8686" lon="4.82287">
        <ele>258</ele>
        <time>2022-07-15T09:27:43.000Z</time>
      </trkpt>
      <trkpt lat="49.8686" lon="4.82287">
        <ele>258</ele>
        <time>2022-07-15T09:27:44.000Z</time>
      </trkpt>
      <trkpt lat="49.8686" lon="4.82287">
        <ele>258</ele>
        <time>2022-07-15T09:27:45.000Z</time>
      </trkpt>
      <trkpt lat="49.8686" lon="4.82287">
        <ele>258</ele>
        <time>2022-07-15T09:27:46.000Z</time>
      </trkpt>
      <trkpt lat="49.8686" lon="4.82288">
        <ele>258</ele>
        <time>2022-07-15T09:27:47.000Z</time>
      </trkpt>
      <trkpt lat="49.8686" lon="4.82288">
        <ele>258</ele>
        <time>2022-07-15T09:27:48.000Z</time>
      </trkpt>
      <trkpt lat="49.8686" lon="4.82288">
        <ele>258</ele>
        <time>2022-07-15T09:27:49.000Z</time>
      </trkpt>
      <trkpt lat="49.8686" lon="4.82288">
        <ele>258</ele>
        <time>2022-07-15T09:27:50.000Z</time>
      </trkpt>
      <trkpt lat="49.8686" lon="4.82288">
        <ele>258</ele>
        <time>2022-07-15T09:27:51.000Z</time>
      </trkpt>
      <trkpt lat="49.8686" lon="4.82288">
        <ele>258</ele>
        <time>2022-07-15T09:27:52.000Z</time>
      </trkpt>
      <trkpt lat="49.8686" lon="4.82288">
        <ele>258</ele>
        <time>2022-07-15T09:27:53.000Z</time>
      </trkpt>
      <trkpt lat="49.8686" lon="4.82289">
        <ele>258</ele>
        <time>2022-07-15T09:27:54.000Z</time>
      </trkpt>
      <trkpt lat="49.8686" lon="4.82289">
        <ele>258</ele>
        <time>2022-07-15T09:27:55.000Z</time>
      </trkpt>
      <trkpt lat="49.8686" lon="4.82289">
        <ele>258</ele>
        <time>2022-07-15T09:27:56.000Z</time>
      </trkpt>
      <trkpt lat="49.8686" lon="4.82289">
        <ele>258</ele>
        <time>2022-07-15T09:27:57.000Z</time>
      </trkpt>
      <trkpt lat="49.8686" lon="4.82289">
        <ele>258</ele>
        <time>2022-07-15T09:27:58.000Z</time>
      </trkpt>
      <trkpt lat="49.8686" lon="4.82289">
        <ele>258</ele>
        <time>2022-07-15T09:27:59.000Z</time>
      </trkpt>
      <trkpt lat="49.8686" lon="4.82289">
        <ele>258</ele>
        <time>2022-07-15T09:28:00.000Z</time>
      </trkpt>
      <trkpt lat="49.8686" lon="4.8229">
        <ele>258</ele>
        <time>2022-07-15T09:28:01.000Z</time>
      </trkpt>
      <trkpt lat="49.8686" lon="4.8229">
        <ele>258</ele>
        <time>2022-07-15T09:28:02.000Z</time>
      </trkpt>
      <trkpt lat="49.8686" lon="4.8229">
        <ele>258</ele>
        <time>2022-07-15T09:28:03.000Z</time>
      </trkpt>
      <trkpt lat="49.8686" lon="4.8229">
        <ele>258</ele>
        <time>2022-07-15T09:28:04.000Z</time>
      </trkpt>
      <trkpt lat="49.8686" lon="4.8229">
        <ele>258</ele>
        <time>2022-07-15T09:28:05.000Z</time>
      </trkpt>
      <trkpt lat="49.8686" lon="4.8229">
        <ele>258</ele>
        <time>2022-07-15T09:28:06.000Z</time>
      </trkpt>
      <trkpt lat="49.8686" lon="4.82291">
        <ele>258</ele>
        <time>2022-07-15T09:28:07.000Z</time>
      </trkpt>
      <trkpt lat="49.86859" lon="4.82291">
        <ele>258</ele>
        <time>2022-07-15T09:28:08.000Z</time>
      </trkpt>
      <trkpt lat="49.86859" lon="4.82291">
        <ele>258</ele>
        <time>2022-07-15T09:28:09.000Z</time>
      </trkpt>
      <trkpt lat="49.86859" lon="4.82291">
        <ele>258</ele>
        <time>2022-07-15T09:28:10.000Z</time>
      </trkpt>
      <trkpt lat="49.8686" lon="4.82291">
        <ele>258</ele>
        <time>2022-07-15T09:28:11.000Z</time>
      </trkpt>
      <trkpt lat="49.86859" lon="4.82292">
        <ele>258</ele>
        <time>2022-07-15T09:28:12.000Z</time>
      </trkpt>
      <trkpt lat="49.86859" lon="4.82293">
        <ele>259</ele>
        <time>2022-07-15T09:28:13.000Z</time>
      </trkpt>
      <trkpt lat="49.86859" lon="4.82294">
        <ele>259</ele>
        <time>2022-07-15T09:28:14.000Z</time>
      </trkpt>
      <trkpt lat="49.86858" lon="4.82296">
        <ele>259</ele>
        <time>2022-07-15T09:28:15.000Z</time>
      </trkpt>
      <trkpt lat="49.86858" lon="4.82298">
        <ele>259</ele>
        <time>2022-07-15T09:28:16.000Z</time>
      </trkpt>
      <trkpt lat="49.86858" lon="4.823">
        <ele>259</ele>
        <time>2022-07-15T09:28:17.000Z</time>
      </trkpt>
      <trkpt lat="49.86857" lon="4.82303">
        <ele>259</ele>
        <time>2022-07-15T09:28:18.000Z</time>
      </trkpt>
      <trkpt lat="49.86858" lon="4.82306">
        <ele>259</ele>
        <time>2022-07-15T09:28:19.000Z</time>
      </trkpt>
      <trkpt lat="49.86857" lon="4.82309">
        <ele>259</ele>
        <time>2022-07-15T09:28:20.000Z</time>
      </trkpt>
      <trkpt lat="49.86857" lon="4.82311">
        <ele>259</ele>
        <time>2022-07-15T09:28:21.000Z</time>
      </trkpt>
      <trkpt lat="49.86856" lon="4.82314">
        <ele>259</ele>
        <time>2022-07-15T09:28:22.000Z</time>
      </trkpt>
      <trkpt lat="49.86856" lon="4.82315">
        <ele>260</ele>
        <time>2022-07-15T09:28:23.000Z</time>
      </trkpt>
      <trkpt lat="49.86855" lon="4.82317">
        <ele>260</ele>
        <time>2022-07-15T09:28:24.000Z</time>
      </trkpt>
      <trkpt lat="49.86855" lon="4.8232">
        <ele>260</ele>
        <time>2022-07-15T09:28:25.000Z</time>
      </trkpt>
      <trkpt lat="49.86854" lon="4.82322">
        <ele>260</ele>
        <time>2022-07-15T09:28:26.000Z</time>
      </trkpt>
      <trkpt lat="49.86854" lon="4.82325">
        <ele>260</ele>
        <time>2022-07-15T09:28:27.000Z</time>
      </trkpt>
      <trkpt lat="49.86853" lon="4.82328">
        <ele>260</ele>
        <time>2022-07-15T09:28:28.000Z</time>
      </trkpt>
      <trkpt lat="49.86852" lon="4.82331">
        <ele>260</ele>
        <time>2022-07-15T09:28:29.000Z</time>
      </trkpt>
      <trkpt lat="49.86851" lon="4.82334">
        <ele>260</ele>
        <time>2022-07-15T09:28:30.000Z</time>
      </trkpt>
      <trkpt lat="49.86851" lon="4.82338">
        <ele>260</ele>
        <time>2022-07-15T09:28:31.000Z</time>
      </trkpt>
      <trkpt lat="49.8685" lon="4.82341">
        <ele>260</ele>
        <time>2022-07-15T09:28:32.000Z</time>
      </trkpt>
      <trkpt lat="49.86849" lon="4.82343">
        <ele>260</ele>
        <time>2022-07-15T09:28:33.000Z</time>
      </trkpt>
      <trkpt lat="49.86847" lon="4.82346">
        <ele>261</ele>
        <time>2022-07-15T09:28:34.000Z</time>
      </trkpt>
      <trkpt lat="49.86847" lon="4.82348">
        <ele>261</ele>
        <time>2022-07-15T09:28:35.000Z</time>
      </trkpt>
      <trkpt lat="49.86845" lon="4.8235">
        <ele>261</ele>
        <time>2022-07-15T09:28:36.000Z</time>
      </trkpt>
      <trkpt lat="49.86844" lon="4.82353">
        <ele>261</ele>
        <time>2022-07-15T09:28:37.000Z</time>
      </trkpt>
      <trkpt lat="49.86843" lon="4.82355">
        <ele>261</ele>
        <time>2022-07-15T09:28:38.000Z</time>
      </trkpt>
      <trkpt lat="49.86841" lon="4.82357">
        <ele>261</ele>
        <time>2022-07-15T09:28:39.000Z</time>
      </trkpt>
      <trkpt lat="49.8684" lon="4.82358">
        <ele>261</ele>
        <time>2022-07-15T09:28:40.000Z</time>
      </trkpt>
      <trkpt lat="49.86838" lon="4.82358">
        <ele>261</ele>
        <time>2022-07-15T09:28:41.000Z</time>
      </trkpt>
      <trkpt lat="49.86836" lon="4.82359">
        <ele>261</ele>
        <time>2022-07-15T09:28:42.000Z</time>
      </trkpt>
      <trkpt lat="49.86835" lon="4.82361">
        <ele>261</ele>
        <time>2022-07-15T09:28:43.000Z</time>
      </trkpt>
      <trkpt lat="49.86833" lon="4.82362">
        <ele>262</ele>
        <time>2022-07-15T09:28:44.000Z</time>
      </trkpt>
      <trkpt lat="49.86831" lon="4.82362">
        <ele>262</ele>
        <time>2022-07-15T09:28:45.000Z</time>
      </trkpt>
      <trkpt lat="49.8683" lon="4.82363">
        <ele>262</ele>
        <time>2022-07-15T09:28:46.000Z</time>
      </trkpt>
      <trkpt lat="49.86828" lon="4.82364">
        <ele>262</ele>
        <time>2022-07-15T09:28:47.000Z</time>
      </trkpt>
      <trkpt lat="49.86827" lon="4.82365">
        <ele>262</ele>
        <time>2022-07-15T09:28:48.000Z</time>
      </trkpt>
      <trkpt lat="49.86825" lon="4.82366">
        <ele>263</ele>
        <time>2022-07-15T09:28:49.000Z</time>
      </trkpt>
      <trkpt lat="49.86824" lon="4.82367">
        <ele>263</ele>
        <time>2022-07-15T09:28:50.000Z</time>
      </trkpt>
      <trkpt lat="49.86822" lon="4.82368">
        <ele>263</ele>
        <time>2022-07-15T09:28:51.000Z</time>
      </trkpt>
      <trkpt lat="49.86821" lon="4.82369">
        <ele>263</ele>
        <time>2022-07-15T09:28:52.000Z</time>
      </trkpt>
      <trkpt lat="49.86819" lon="4.8237">
        <ele>263</ele>
        <time>2022-07-15T09:28:53.000Z</time>
      </trkpt>
      <trkpt lat="49.86817" lon="4.82371">
        <ele>264</ele>
        <time>2022-07-15T09:28:54.000Z</time>
      </trkpt>
      <trkpt lat="49.86815" lon="4.82372">
        <ele>264</ele>
        <time>2022-07-15T09:28:55.000Z</time>
      </trkpt>
      <trkpt lat="49.86814" lon="4.82372">
        <ele>264</ele>
        <time>2022-07-15T09:28:56.000Z</time>
      </trkpt>
      <trkpt lat="49.86812" lon="4.82373">
        <ele>265</ele>
        <time>2022-07-15T09:28:57.000Z</time>
      </trkpt>
      <trkpt lat="49.8681" lon="4.82374">
        <ele>265</ele>
        <time>2022-07-15T09:28:58.000Z</time>
      </trkpt>
      <trkpt lat="49.86808" lon="4.82375">
        <ele>266</ele>
        <time>2022-07-15T09:28:59.000Z</time>
      </trkpt>
      <trkpt lat="49.86806" lon="4.82376">
        <ele>266</ele>
        <time>2022-07-15T09:29:00.000Z</time>
      </trkpt>
      <trkpt lat="49.86804" lon="4.82377">
        <ele>266</ele>
        <time>2022-07-15T09:29:01.000Z</time>
      </trkpt>
      <trkpt lat="49.86803" lon="4.82378">
        <ele>267</ele>
        <time>2022-07-15T09:29:02.000Z</time>
      </trkpt>
      <trkpt lat="49.86801" lon="4.82379">
        <ele>267</ele>
        <time>2022-07-15T09:29:03.000Z</time>
      </trkpt>
      <trkpt lat="49.868" lon="4.8238">
        <ele>268</ele>
        <time>2022-07-15T09:29:04.000Z</time>
      </trkpt>
      <trkpt lat="49.86798" lon="4.82381">
        <ele>268</ele>
        <time>2022-07-15T09:29:05.000Z</time>
      </trkpt>
      <trkpt lat="49.86796" lon="4.82382">
        <ele>269</ele>
        <time>2022-07-15T09:29:06.000Z</time>
      </trkpt>
      <trkpt lat="49.86794" lon="4.82382">
        <ele>269</ele>
        <time>2022-07-15T09:29:07.000Z</time>
      </trkpt>
      <trkpt lat="49.86792" lon="4.82383">
        <ele>269</ele>
        <time>2022-07-15T09:29:08.000Z</time>
      </trkpt>
      <trkpt lat="49.8679" lon="4.82383">
        <ele>270</ele>
        <time>2022-07-15T09:29:09.000Z</time>
      </trkpt>
      <trkpt lat="49.86788" lon="4.82384">
        <ele>270</ele>
        <time>2022-07-15T09:29:10.000Z</time>
      </trkpt>
      <trkpt lat="49.86786" lon="4.82385">
        <ele>271</ele>
        <time>2022-07-15T09:29:11.000Z</time>
      </trkpt>
      <trkpt lat="49.86784" lon="4.82386">
        <ele>271</ele>
        <time>2022-07-15T09:29:12.000Z</time>
      </trkpt>
      <trkpt lat="49.86782" lon="4.82388">
        <ele>272</ele>
        <time>2022-07-15T09:29:13.000Z</time>
      </trkpt>
      <trkpt lat="49.86781" lon="4.8239">
        <ele>272</ele>
        <time>2022-07-15T09:29:14.000Z</time>
      </trkpt>
      <trkpt lat="49.86779" lon="4.82392">
        <ele>273</ele>
        <time>2022-07-15T09:29:15.000Z</time>
      </trkpt>
      <trkpt lat="49.86777" lon="4.82394">
        <ele>273</ele>
        <time>2022-07-15T09:29:16.000Z</time>
      </trkpt>
      <trkpt lat="49.86776" lon="4.82397">
        <ele>274</ele>
        <time>2022-07-15T09:29:17.000Z</time>
      </trkpt>
      <trkpt lat="49.86774" lon="4.82399">
        <ele>274</ele>
        <time>2022-07-15T09:29:18.000Z</time>
      </trkpt>
      <trkpt lat="49.86772" lon="4.82401">
        <ele>274</ele>
        <time>2022-07-15T09:29:19.000Z</time>
      </trkpt>
      <trkpt lat="49.8677" lon="4.82403">
        <ele>275</ele>
        <time>2022-07-15T09:29:20.000Z</time>
      </trkpt>
      <trkpt lat="49.86768" lon="4.82406">
        <ele>275</ele>
        <time>2022-07-15T09:29:21.000Z</time>
      </trkpt>
      <trkpt lat="49.86766" lon="4.82409">
        <ele>275</ele>
        <time>2022-07-15T09:29:22.000Z</time>
      </trkpt>
      <trkpt lat="49.86764" lon="4.82412">
        <ele>276</ele>
        <time>2022-07-15T09:29:23.000Z</time>
      </trkpt>
      <trkpt lat="49.86763" lon="4.82415">
        <ele>276</ele>
        <time>2022-07-15T09:29:24.000Z</time>
      </trkpt>
      <trkpt lat="49.86761" lon="4.82418">
        <ele>277</ele>
        <time>2022-07-15T09:29:25.000Z</time>
      </trkpt>
      <trkpt lat="49.86759" lon="4.8242">
        <ele>277</ele>
        <time>2022-07-15T09:29:26.000Z</time>
      </trkpt>
      <trkpt lat="49.86757" lon="4.82422">
        <ele>277</ele>
        <time>2022-07-15T09:29:27.000Z</time>
      </trkpt>
      <trkpt lat="49.86756" lon="4.82425">
        <ele>278</ele>
        <time>2022-07-15T09:29:28.000Z</time>
      </trkpt>
      <trkpt lat="49.86755" lon="4.82427">
        <ele>278</ele>
        <time>2022-07-15T09:29:29.000Z</time>
      </trkpt>
      <trkpt lat="49.86753" lon="4.8243">
        <ele>278</ele>
        <time>2022-07-15T09:29:30.000Z</time>
      </trkpt>
      <trkpt lat="49.86752" lon="4.82431">
        <ele>279</ele>
        <time>2022-07-15T09:29:31.000Z</time>
      </trkpt>
      <trkpt lat="49.8675" lon="4.82433">
        <ele>279</ele>
        <time>2022-07-15T09:29:32.000Z</time>
      </trkpt>
      <trkpt lat="49.86748" lon="4.82435">
        <ele>279</ele>
        <time>2022-07-15T09:29:33.000Z</time>
      </trkpt>
      <trkpt lat="49.86746" lon="4.82437">
        <ele>279</ele>
        <time>2022-07-15T09:29:34.000Z</time>
      </trkpt>
      <trkpt lat="49.86744" lon="4.82438">
        <ele>280</ele>
        <time>2022-07-15T09:29:35.000Z</time>
      </trkpt>
      <trkpt lat="49.86742" lon="4.8244">
        <ele>280</ele>
        <time>2022-07-15T09:29:36.000Z</time>
      </trkpt>
      <trkpt lat="49.8674" lon="4.82442">
        <ele>280</ele>
        <time>2022-07-15T09:29:37.000Z</time>
      </trkpt>
      <trkpt lat="49.86738" lon="4.82443">
        <ele>280</ele>
        <time>2022-07-15T09:29:38.000Z</time>
      </trkpt>
      <trkpt lat="49.86736" lon="4.82445">
        <ele>281</ele>
        <time>2022-07-15T09:29:39.000Z</time>
      </trkpt>
      <trkpt lat="49.86734" lon="4.82447">
        <ele>281</ele>
        <time>2022-07-15T09:29:40.000Z</time>
      </trkpt>
      <trkpt lat="49.86732" lon="4.82449">
        <ele>281</ele>
        <time>2022-07-15T09:29:41.000Z</time>
      </trkpt>
      <trkpt lat="49.8673" lon="4.82451">
        <ele>282</ele>
        <time>2022-07-15T09:29:42.000Z</time>
      </trkpt>
      <trkpt lat="49.86727" lon="4.82453">
        <ele>282</ele>
        <time>2022-07-15T09:29:43.000Z</time>
      </trkpt>
      <trkpt lat="49.86725" lon="4.82455">
        <ele>282</ele>
        <time>2022-07-15T09:29:44.000Z</time>
      </trkpt>
      <trkpt lat="49.86723" lon="4.82457">
        <ele>282</ele>
        <time>2022-07-15T09:29:45.000Z</time>
      </trkpt>
      <trkpt lat="49.86721" lon="4.82459">
        <ele>282</ele>
        <time>2022-07-15T09:29:46.000Z</time>
      </trkpt>
      <trkpt lat="49.86719" lon="4.82462">
        <ele>282</ele>
        <time>2022-07-15T09:29:47.000Z</time>
      </trkpt>
      <trkpt lat="49.86717" lon="4.82464">
        <ele>282</ele>
        <time>2022-07-15T09:29:48.000Z</time>
      </trkpt>
      <trkpt lat="49.86716" lon="4.82465">
        <ele>282</ele>
        <time>2022-07-15T09:29:49.000Z</time>
      </trkpt>
      <trkpt lat="49.86714" lon="4.82466">
        <ele>282</ele>
        <time>2022-07-15T09:29:50.000Z</time>
      </trkpt>
      <trkpt lat="49.86712" lon="4.82466">
        <ele>282</ele>
        <time>2022-07-15T09:29:51.000Z</time>
      </trkpt>
      <trkpt lat="49.86709" lon="4.82467">
        <ele>282</ele>
        <time>2022-07-15T09:29:52.000Z</time>
      </trkpt>
      <trkpt lat="49.86707" lon="4.82467">
        <ele>282</ele>
        <time>2022-07-15T09:29:53.000Z</time>
      </trkpt>
      <trkpt lat="49.86705" lon="4.82468">
        <ele>282</ele>
        <time>2022-07-15T09:29:54.000Z</time>
      </trkpt>
      <trkpt lat="49.86703" lon="4.82469">
        <ele>282</ele>
        <time>2022-07-15T09:29:55.000Z</time>
      </trkpt>
      <trkpt lat="49.867" lon="4.82471">
        <ele>282</ele>
        <time>2022-07-15T09:29:56.000Z</time>
      </trkpt>
      <trkpt lat="49.86698" lon="4.82473">
        <ele>282</ele>
        <time>2022-07-15T09:29:57.000Z</time>
      </trkpt>
      <trkpt lat="49.86696" lon="4.82475">
        <ele>282</ele>
        <time>2022-07-15T09:29:58.000Z</time>
      </trkpt>
      <trkpt lat="49.86694" lon="4.82476">
        <ele>282</ele>
        <time>2022-07-15T09:29:59.000Z</time>
      </trkpt>
      <trkpt lat="49.86692" lon="4.82478">
        <ele>281</ele>
        <time>2022-07-15T09:30:00.000Z</time>
      </trkpt>
      <trkpt lat="49.8669" lon="4.82479">
        <ele>281</ele>
        <time>2022-07-15T09:30:01.000Z</time>
      </trkpt>
      <trkpt lat="49.86687" lon="4.82481">
        <ele>281</ele>
        <time>2022-07-15T09:30:02.000Z</time>
      </trkpt>
      <trkpt lat="49.86685" lon="4.82482">
        <ele>281</ele>
        <time>2022-07-15T09:30:03.000Z</time>
      </trkpt>
      <trkpt lat="49.86683" lon="4.82483">
        <ele>281</ele>
        <time>2022-07-15T09:30:04.000Z</time>
      </trkpt>
      <trkpt lat="49.86682" lon="4.82483">
        <ele>281</ele>
        <time>2022-07-15T09:30:05.000Z</time>
      </trkpt>
      <trkpt lat="49.8668" lon="4.82484">
        <ele>280</ele>
        <time>2022-07-15T09:30:06.000Z</time>
      </trkpt>
      <trkpt lat="49.86678" lon="4.82486">
        <ele>280</ele>
        <time>2022-07-15T09:30:07.000Z</time>
      </trkpt>
      <trkpt lat="49.86675" lon="4.82488">
        <ele>280</ele>
        <time>2022-07-15T09:30:08.000Z</time>
      </trkpt>
      <trkpt lat="49.86673" lon="4.8249">
        <ele>280</ele>
        <time>2022-07-15T09:30:09.000Z</time>
      </trkpt>
      <trkpt lat="49.8667" lon="4.82493">
        <ele>280</ele>
        <time>2022-07-15T09:30:10.000Z</time>
      </trkpt>
      <trkpt lat="49.86667" lon="4.82495">
        <ele>280</ele>
        <time>2022-07-15T09:30:11.000Z</time>
      </trkpt>
      <trkpt lat="49.86665" lon="4.82498">
        <ele>280</ele>
        <time>2022-07-15T09:30:12.000Z</time>
      </trkpt>
      <trkpt lat="49.86662" lon="4.825">
        <ele>280</ele>
        <time>2022-07-15T09:30:13.000Z</time>
      </trkpt>
      <trkpt lat="49.86659" lon="4.82502">
        <ele>280</ele>
        <time>2022-07-15T09:30:14.000Z</time>
      </trkpt>
      <trkpt lat="49.86657" lon="4.82505">
        <ele>280</ele>
        <time>2022-07-15T09:30:15.000Z</time>
      </trkpt>
      <trkpt lat="49.86654" lon="4.82506">
        <ele>280</ele>
        <time>2022-07-15T09:30:16.000Z</time>
      </trkpt>
      <trkpt lat="49.86652" lon="4.82508">
        <ele>280</ele>
        <time>2022-07-15T09:30:17.000Z</time>
      </trkpt>
      <trkpt lat="49.86649" lon="4.82509">
        <ele>280</ele>
        <time>2022-07-15T09:30:18.000Z</time>
      </trkpt>
      <trkpt lat="49.86646" lon="4.8251">
        <ele>280</ele>
        <time>2022-07-15T09:30:19.000Z</time>
      </trkpt>
      <trkpt lat="49.86643" lon="4.82513">
        <ele>280</ele>
        <time>2022-07-15T09:30:20.000Z</time>
      </trkpt>
      <trkpt lat="49.8664" lon="4.82515">
        <ele>280</ele>
        <time>2022-07-15T09:30:21.000Z</time>
      </trkpt>
      <trkpt lat="49.86637" lon="4.82517">
        <ele>280</ele>
        <time>2022-07-15T09:30:22.000Z</time>
      </trkpt>
      <trkpt lat="49.86634" lon="4.82519">
        <ele>280</ele>
        <time>2022-07-15T09:30:23.000Z</time>
      </trkpt>
      <trkpt lat="49.86631" lon="4.82521">
        <ele>279</ele>
        <time>2022-07-15T09:30:24.000Z</time>
      </trkpt>
      <trkpt lat="49.86629" lon="4.82523">
        <ele>279</ele>
        <time>2022-07-15T09:30:25.000Z</time>
      </trkpt>
      <trkpt lat="49.86627" lon="4.82525">
        <ele>279</ele>
        <time>2022-07-15T09:30:26.000Z</time>
      </trkpt>
      <trkpt lat="49.86625" lon="4.82527">
        <ele>279</ele>
        <time>2022-07-15T09:30:27.000Z</time>
      </trkpt>
      <trkpt lat="49.86622" lon="4.82529">
        <ele>280</ele>
        <time>2022-07-15T09:30:28.000Z</time>
      </trkpt>
      <trkpt lat="49.86619" lon="4.82532">
        <ele>280</ele>
        <time>2022-07-15T09:30:29.000Z</time>
      </trkpt>
      <trkpt lat="49.86615" lon="4.82534">
        <ele>280</ele>
        <time>2022-07-15T09:30:30.000Z</time>
      </trkpt>
      <trkpt lat="49.86612" lon="4.82537">
        <ele>280</ele>
        <time>2022-07-15T09:30:31.000Z</time>
      </trkpt>
      <trkpt lat="49.8661" lon="4.82538">
        <ele>280</ele>
        <time>2022-07-15T09:30:32.000Z</time>
      </trkpt>
      <trkpt lat="49.86607" lon="4.8254">
        <ele>280</ele>
        <time>2022-07-15T09:30:33.000Z</time>
      </trkpt>
      <trkpt lat="49.86605" lon="4.82541">
        <ele>280</ele>
        <time>2022-07-15T09:30:34.000Z</time>
      </trkpt>
      <trkpt lat="49.86603" lon="4.82543">
        <ele>281</ele>
        <time>2022-07-15T09:30:35.000Z</time>
      </trkpt>
      <trkpt lat="49.866" lon="4.82544">
        <ele>281</ele>
        <time>2022-07-15T09:30:36.000Z</time>
      </trkpt>
      <trkpt lat="49.86598" lon="4.82546">
        <ele>281</ele>
        <time>2022-07-15T09:30:37.000Z</time>
      </trkpt>
      <trkpt lat="49.86596" lon="4.82547">
        <ele>281</ele>
        <time>2022-07-15T09:30:38.000Z</time>
      </trkpt>
      <trkpt lat="49.86594" lon="4.82549">
        <ele>281</ele>
        <time>2022-07-15T09:30:39.000Z</time>
      </trkpt>
      <trkpt lat="49.86591" lon="4.8255">
        <ele>281</ele>
        <time>2022-07-15T09:30:40.000Z</time>
      </trkpt>
      <trkpt lat="49.86589" lon="4.82551">
        <ele>281</ele>
        <time>2022-07-15T09:30:41.000Z</time>
      </trkpt>
      <trkpt lat="49.86587" lon="4.82553">
        <ele>281</ele>
        <time>2022-07-15T09:30:42.000Z</time>
      </trkpt>
      <trkpt lat="49.86584" lon="4.82554">
        <ele>281</ele>
        <time>2022-07-15T09:30:43.000Z</time>
      </trkpt>
      <trkpt lat="49.86581" lon="4.82556">
        <ele>281</ele>
        <time>2022-07-15T09:30:44.000Z</time>
      </trkpt>
      <trkpt lat="49.86579" lon="4.82558">
        <ele>281</ele>
        <time>2022-07-15T09:30:45.000Z</time>
      </trkpt>
      <trkpt lat="49.86576" lon="4.82559">
        <ele>281</ele>
        <time>2022-07-15T09:30:46.000Z</time>
      </trkpt>
      <trkpt lat="49.86573" lon="4.82561">
        <ele>281</ele>
        <time>2022-07-15T09:30:47.000Z</time>
      </trkpt>
      <trkpt lat="49.8657" lon="4.82561">
        <ele>281</ele>
        <time>2022-07-15T09:30:48.000Z</time>
      </trkpt>
      <trkpt lat="49.86568" lon="4.82562">
        <ele>281</ele>
        <time>2022-07-15T09:30:49.000Z</time>
      </trkpt>
      <trkpt lat="49.86565" lon="4.82562">
        <ele>281</ele>
        <time>2022-07-15T09:30:50.000Z</time>
      </trkpt>
      <trkpt lat="49.86562" lon="4.82562">
        <ele>281</ele>
        <time>2022-07-15T09:30:51.000Z</time>
      </trkpt>
      <trkpt lat="49.8656" lon="4.82563">
        <ele>281</ele>
        <time>2022-07-15T09:30:52.000Z</time>
      </trkpt>
      <trkpt lat="49.86558" lon="4.82563">
        <ele>281</ele>
        <time>2022-07-15T09:30:53.000Z</time>
      </trkpt>
      <trkpt lat="49.86555" lon="4.82563">
        <ele>281</ele>
        <time>2022-07-15T09:30:54.000Z</time>
      </trkpt>
      <trkpt lat="49.86553" lon="4.82563">
        <ele>282</ele>
        <time>2022-07-15T09:30:55.000Z</time>
      </trkpt>
      <trkpt lat="49.8655" lon="4.82563">
        <ele>282</ele>
        <time>2022-07-15T09:30:56.000Z</time>
      </trkpt>
      <trkpt lat="49.86547" lon="4.82563">
        <ele>282</ele>
        <time>2022-07-15T09:30:57.000Z</time>
      </trkpt>
      <trkpt lat="49.86545" lon="4.82564">
        <ele>282</ele>
        <time>2022-07-15T09:30:58.000Z</time>
      </trkpt>
      <trkpt lat="49.86542" lon="4.82564">
        <ele>282</ele>
        <time>2022-07-15T09:30:59.000Z</time>
      </trkpt>
      <trkpt lat="49.8654" lon="4.82565">
        <ele>282</ele>
        <time>2022-07-15T09:31:00.000Z</time>
      </trkpt>
      <trkpt lat="49.86538" lon="4.82564">
        <ele>282</ele>
        <time>2022-07-15T09:31:01.000Z</time>
      </trkpt>
      <trkpt lat="49.86535" lon="4.82564">
        <ele>282</ele>
        <time>2022-07-15T09:31:02.000Z</time>
      </trkpt>
      <trkpt lat="49.86533" lon="4.82564">
        <ele>282</ele>
        <time>2022-07-15T09:31:03.000Z</time>
      </trkpt>
      <trkpt lat="49.8653" lon="4.82565">
        <ele>282</ele>
        <time>2022-07-15T09:31:04.000Z</time>
      </trkpt>
      <trkpt lat="49.86528" lon="4.82564">
        <ele>283</ele>
        <time>2022-07-15T09:31:05.000Z</time>
      </trkpt>
      <trkpt lat="49.86526" lon="4.82563">
        <ele>283</ele>
        <time>2022-07-15T09:31:06.000Z</time>
      </trkpt>
      <trkpt lat="49.86524" lon="4.82563">
        <ele>283</ele>
        <time>2022-07-15T09:31:07.000Z</time>
      </trkpt>
      <trkpt lat="49.86522" lon="4.82562">
        <ele>283</ele>
        <time>2022-07-15T09:31:08.000Z</time>
      </trkpt>
      <trkpt lat="49.8652" lon="4.82561">
        <ele>284</ele>
        <time>2022-07-15T09:31:09.000Z</time>
      </trkpt>
      <trkpt lat="49.86517" lon="4.8256">
        <ele>284</ele>
        <time>2022-07-15T09:31:10.000Z</time>
      </trkpt>
      <trkpt lat="49.86514" lon="4.82559">
        <ele>284</ele>
        <time>2022-07-15T09:31:11.000Z</time>
      </trkpt>
      <trkpt lat="49.86512" lon="4.82558">
        <ele>284</ele>
        <time>2022-07-15T09:31:12.000Z</time>
      </trkpt>
      <trkpt lat="49.86509" lon="4.82558">
        <ele>285</ele>
        <time>2022-07-15T09:31:13.000Z</time>
      </trkpt>
      <trkpt lat="49.86507" lon="4.82557">
        <ele>285</ele>
        <time>2022-07-15T09:31:14.000Z</time>
      </trkpt>
      <trkpt lat="49.86504" lon="4.82556">
        <ele>285</ele>
        <time>2022-07-15T09:31:15.000Z</time>
      </trkpt>
      <trkpt lat="49.86502" lon="4.82556">
        <ele>285</ele>
        <time>2022-07-15T09:31:16.000Z</time>
      </trkpt>
      <trkpt lat="49.865" lon="4.82555">
        <ele>286</ele>
        <time>2022-07-15T09:31:17.000Z</time>
      </trkpt>
      <trkpt lat="49.86498" lon="4.82555">
        <ele>286</ele>
        <time>2022-07-15T09:31:18.000Z</time>
      </trkpt>
      <trkpt lat="49.86496" lon="4.82555">
        <ele>286</ele>
        <time>2022-07-15T09:31:19.000Z</time>
      </trkpt>
      <trkpt lat="49.86494" lon="4.82555">
        <ele>286</ele>
        <time>2022-07-15T09:31:20.000Z</time>
      </trkpt>
      <trkpt lat="49.86492" lon="4.82555">
        <ele>286</ele>
        <time>2022-07-15T09:31:21.000Z</time>
      </trkpt>
      <trkpt lat="49.86489" lon="4.82554">
        <ele>287</ele>
        <time>2022-07-15T09:31:22.000Z</time>
      </trkpt>
      <trkpt lat="49.86487" lon="4.82554">
        <ele>287</ele>
        <time>2022-07-15T09:31:23.000Z</time>
      </trkpt>
      <trkpt lat="49.86484" lon="4.82554">
        <ele>287</ele>
        <time>2022-07-15T09:31:24.000Z</time>
      </trkpt>
      <trkpt lat="49.86481" lon="4.82553">
        <ele>287</ele>
        <time>2022-07-15T09:31:25.000Z</time>
      </trkpt>
      <trkpt lat="49.86479" lon="4.82551">
        <ele>287</ele>
        <time>2022-07-15T09:31:26.000Z</time>
      </trkpt>
      <trkpt lat="49.86476" lon="4.8255">
        <ele>287</ele>
        <time>2022-07-15T09:31:27.000Z</time>
      </trkpt>
      <trkpt lat="49.86473" lon="4.82548">
        <ele>287</ele>
        <time>2022-07-15T09:31:28.000Z</time>
      </trkpt>
      <trkpt lat="49.8647" lon="4.82547">
        <ele>287</ele>
        <time>2022-07-15T09:31:29.000Z</time>
      </trkpt>
      <trkpt lat="49.86467" lon="4.82545">
        <ele>287</ele>
        <time>2022-07-15T09:31:30.000Z</time>
      </trkpt>
      <trkpt lat="49.86464" lon="4.82544">
        <ele>287</ele>
        <time>2022-07-15T09:31:31.000Z</time>
      </trkpt>
      <trkpt lat="49.86462" lon="4.82543">
        <ele>287</ele>
        <time>2022-07-15T09:31:32.000Z</time>
      </trkpt>
      <trkpt lat="49.8646" lon="4.82542">
        <ele>287</ele>
        <time>2022-07-15T09:31:33.000Z</time>
      </trkpt>
      <trkpt lat="49.86457" lon="4.8254">
        <ele>287</ele>
        <time>2022-07-15T09:31:34.000Z</time>
      </trkpt>
      <trkpt lat="49.86455" lon="4.82539">
        <ele>287</ele>
        <time>2022-07-15T09:31:35.000Z</time>
      </trkpt>
      <trkpt lat="49.86453" lon="4.82538">
        <ele>287</ele>
        <time>2022-07-15T09:31:36.000Z</time>
      </trkpt>
      <trkpt lat="49.86451" lon="4.82537">
        <ele>287</ele>
        <time>2022-07-15T09:31:37.000Z</time>
      </trkpt>
      <trkpt lat="49.86449" lon="4.82536">
        <ele>288</ele>
        <time>2022-07-15T09:31:38.000Z</time>
      </trkpt>
      <trkpt lat="49.86447" lon="4.82535">
        <ele>288</ele>
        <time>2022-07-15T09:31:39.000Z</time>
      </trkpt>
      <trkpt lat="49.86445" lon="4.82534">
        <ele>288</ele>
        <time>2022-07-15T09:31:40.000Z</time>
      </trkpt>
      <trkpt lat="49.86443" lon="4.82533">
        <ele>288</ele>
        <time>2022-07-15T09:31:41.000Z</time>
      </trkpt>
      <trkpt lat="49.8644" lon="4.82532">
        <ele>288</ele>
        <time>2022-07-15T09:31:42.000Z</time>
      </trkpt>
      <trkpt lat="49.86437" lon="4.8253">
        <ele>288</ele>
        <time>2022-07-15T09:31:43.000Z</time>
      </trkpt>
      <trkpt lat="49.86435" lon="4.82528">
        <ele>289</ele>
        <time>2022-07-15T09:31:44.000Z</time>
      </trkpt>
      <trkpt lat="49.86432" lon="4.82527">
        <ele>289</ele>
        <time>2022-07-15T09:31:45.000Z</time>
      </trkpt>
      <trkpt lat="49.8643" lon="4.82525">
        <ele>289</ele>
        <time>2022-07-15T09:31:46.000Z</time>
      </trkpt>
      <trkpt lat="49.86428" lon="4.82525">
        <ele>289</ele>
        <time>2022-07-15T09:31:47.000Z</time>
      </trkpt>
      <trkpt lat="49.86425" lon="4.82524">
        <ele>289</ele>
        <time>2022-07-15T09:31:48.000Z</time>
      </trkpt>
      <trkpt lat="49.86422" lon="4.82523">
        <ele>290</ele>
        <time>2022-07-15T09:31:49.000Z</time>
      </trkpt>
      <trkpt lat="49.8642" lon="4.82522">
        <ele>290</ele>
        <time>2022-07-15T09:31:50.000Z</time>
      </trkpt>
      <trkpt lat="49.86417" lon="4.82521">
        <ele>290</ele>
        <time>2022-07-15T09:31:51.000Z</time>
      </trkpt>
      <trkpt lat="49.86414" lon="4.8252">
        <ele>290</ele>
        <time>2022-07-15T09:31:52.000Z</time>
      </trkpt>
      <trkpt lat="49.86411" lon="4.8252">
        <ele>290</ele>
        <time>2022-07-15T09:31:53.000Z</time>
      </trkpt>
      <trkpt lat="49.86408" lon="4.8252">
        <ele>290</ele>
        <time>2022-07-15T09:31:54.000Z</time>
      </trkpt>
      <trkpt lat="49.86405" lon="4.82519">
        <ele>290</ele>
        <time>2022-07-15T09:31:55.000Z</time>
      </trkpt>
      <trkpt lat="49.86402" lon="4.82519">
        <ele>290</ele>
        <time>2022-07-15T09:31:56.000Z</time>
      </trkpt>
      <trkpt lat="49.86398" lon="4.82519">
        <ele>290</ele>
        <time>2022-07-15T09:31:57.000Z</time>
      </trkpt>
      <trkpt lat="49.86395" lon="4.8252">
        <ele>290</ele>
        <time>2022-07-15T09:31:58.000Z</time>
      </trkpt>
      <trkpt lat="49.86392" lon="4.8252">
        <ele>290</ele>
        <time>2022-07-15T09:31:59.000Z</time>
      </trkpt>
      <trkpt lat="49.86388" lon="4.82519">
        <ele>290</ele>
        <time>2022-07-15T09:32:00.000Z</time>
      </trkpt>
      <trkpt lat="49.86384" lon="4.82519">
        <ele>290</ele>
        <time>2022-07-15T09:32:01.000Z</time>
      </trkpt>
      <trkpt lat="49.86381" lon="4.82519">
        <ele>290</ele>
        <time>2022-07-15T09:32:02.000Z</time>
      </trkpt>
      <trkpt lat="49.86378" lon="4.8252">
        <ele>290</ele>
        <time>2022-07-15T09:32:03.000Z</time>
      </trkpt>
      <trkpt lat="49.86374" lon="4.82521">
        <ele>290</ele>
        <time>2022-07-15T09:32:04.000Z</time>
      </trkpt>
      <trkpt lat="49.86371" lon="4.82522">
        <ele>290</ele>
        <time>2022-07-15T09:32:05.000Z</time>
      </trkpt>
      <trkpt lat="49.86367" lon="4.82523">
        <ele>290</ele>
        <time>2022-07-15T09:32:06.000Z</time>
      </trkpt>
      <trkpt lat="49.86364" lon="4.82525">
        <ele>290</ele>
        <time>2022-07-15T09:32:07.000Z</time>
      </trkpt>
      <trkpt lat="49.86361" lon="4.82526">
        <ele>290</ele>
        <time>2022-07-15T09:32:08.000Z</time>
      </trkpt>
      <trkpt lat="49.86358" lon="4.82527">
        <ele>290</ele>
        <time>2022-07-15T09:32:09.000Z</time>
      </trkpt>
      <trkpt lat="49.86355" lon="4.82528">
        <ele>290</ele>
        <time>2022-07-15T09:32:10.000Z</time>
      </trkpt>
      <trkpt lat="49.86351" lon="4.8253">
        <ele>290</ele>
        <time>2022-07-15T09:32:11.000Z</time>
      </trkpt>
      <trkpt lat="49.86348" lon="4.82532">
        <ele>290</ele>
        <time>2022-07-15T09:32:12.000Z</time>
      </trkpt>
      <trkpt lat="49.86345" lon="4.82533">
        <ele>290</ele>
        <time>2022-07-15T09:32:13.000Z</time>
      </trkpt>
      <trkpt lat="49.86342" lon="4.82533">
        <ele>291</ele>
        <time>2022-07-15T09:32:14.000Z</time>
      </trkpt>
      <trkpt lat="49.86338" lon="4.82534">
        <ele>291</ele>
        <time>2022-07-15T09:32:15.000Z</time>
      </trkpt>
      <trkpt lat="49.86335" lon="4.82534">
        <ele>291</ele>
        <time>2022-07-15T09:32:16.000Z</time>
      </trkpt>
      <trkpt lat="49.86332" lon="4.82534">
        <ele>291</ele>
        <time>2022-07-15T09:32:17.000Z</time>
      </trkpt>
      <trkpt lat="49.86329" lon="4.82535">
        <ele>291</ele>
        <time>2022-07-15T09:32:18.000Z</time>
      </trkpt>
      <trkpt lat="49.86326" lon="4.82535">
        <ele>291</ele>
        <time>2022-07-15T09:32:19.000Z</time>
      </trkpt>
      <trkpt lat="49.86323" lon="4.82536">
        <ele>291</ele>
        <time>2022-07-15T09:32:20.000Z</time>
      </trkpt>
      <trkpt lat="49.8632" lon="4.82537">
        <ele>291</ele>
        <time>2022-07-15T09:32:21.000Z</time>
      </trkpt>
      <trkpt lat="49.86317" lon="4.82538">
        <ele>291</ele>
        <time>2022-07-15T09:32:22.000Z</time>
      </trkpt>
      <trkpt lat="49.86315" lon="4.82539">
        <ele>291</ele>
        <time>2022-07-15T09:32:23.000Z</time>
      </trkpt>
      <trkpt lat="49.86312" lon="4.8254">
        <ele>291</ele>
        <time>2022-07-15T09:32:24.000Z</time>
      </trkpt>
      <trkpt lat="49.86309" lon="4.82541">
        <ele>291</ele>
        <time>2022-07-15T09:32:25.000Z</time>
      </trkpt>
      <trkpt lat="49.86306" lon="4.82541">
        <ele>291</ele>
        <time>2022-07-15T09:32:26.000Z</time>
      </trkpt>
      <trkpt lat="49.86304" lon="4.82541">
        <ele>291</ele>
        <time>2022-07-15T09:32:27.000Z</time>
      </trkpt>
      <trkpt lat="49.86302" lon="4.82542">
        <ele>291</ele>
        <time>2022-07-15T09:32:28.000Z</time>
      </trkpt>
      <trkpt lat="49.863" lon="4.82543">
        <ele>291</ele>
        <time>2022-07-15T09:32:29.000Z</time>
      </trkpt>
      <trkpt lat="49.86297" lon="4.82544">
        <ele>291</ele>
        <time>2022-07-15T09:32:30.000Z</time>
      </trkpt>
      <trkpt lat="49.86296" lon="4.82545">
        <ele>291</ele>
        <time>2022-07-15T09:32:31.000Z</time>
      </trkpt>
      <trkpt lat="49.86294" lon="4.82547">
        <ele>292</ele>
        <time>2022-07-15T09:32:32.000Z</time>
      </trkpt>
      <trkpt lat="49.86292" lon="4.82549">
        <ele>292</ele>
        <time>2022-07-15T09:32:33.000Z</time>
      </trkpt>
      <trkpt lat="49.8629" lon="4.8255">
        <ele>292</ele>
        <time>2022-07-15T09:32:34.000Z</time>
      </trkpt>
      <trkpt lat="49.86289" lon="4.82552">
        <ele>292</ele>
        <time>2022-07-15T09:32:35.000Z</time>
      </trkpt>
      <trkpt lat="49.86287" lon="4.82553">
        <ele>292</ele>
        <time>2022-07-15T09:32:36.000Z</time>
      </trkpt>
      <trkpt lat="49.86285" lon="4.82553">
        <ele>292</ele>
        <time>2022-07-15T09:32:37.000Z</time>
      </trkpt>
      <trkpt lat="49.86282" lon="4.82556">
        <ele>293</ele>
        <time>2022-07-15T09:32:38.000Z</time>
      </trkpt>
      <trkpt lat="49.86279" lon="4.82559">
        <ele>293</ele>
        <time>2022-07-15T09:32:39.000Z</time>
      </trkpt>
      <trkpt lat="49.86277" lon="4.8256">
        <ele>293</ele>
        <time>2022-07-15T09:32:40.000Z</time>
      </trkpt>
      <trkpt lat="49.86274" lon="4.82562">
        <ele>293</ele>
        <time>2022-07-15T09:32:41.000Z</time>
      </trkpt>
      <trkpt lat="49.86272" lon="4.82564">
        <ele>293</ele>
        <time>2022-07-15T09:32:42.000Z</time>
      </trkpt>
      <trkpt lat="49.86269" lon="4.82566">
        <ele>294</ele>
        <time>2022-07-15T09:32:43.000Z</time>
      </trkpt>
      <trkpt lat="49.86267" lon="4.82568">
        <ele>294</ele>
        <time>2022-07-15T09:32:44.000Z</time>
      </trkpt>
      <trkpt lat="49.86265" lon="4.8257">
        <ele>294</ele>
        <time>2022-07-15T09:32:45.000Z</time>
      </trkpt>
      <trkpt lat="49.86262" lon="4.82571">
        <ele>295</ele>
        <time>2022-07-15T09:32:46.000Z</time>
      </trkpt>
      <trkpt lat="49.8626" lon="4.82572">
        <ele>295</ele>
        <time>2022-07-15T09:32:47.000Z</time>
      </trkpt>
      <trkpt lat="49.86258" lon="4.82573">
        <ele>295</ele>
        <time>2022-07-15T09:32:48.000Z</time>
      </trkpt>
      <trkpt lat="49.86256" lon="4.82574">
        <ele>296</ele>
        <time>2022-07-15T09:32:49.000Z</time>
      </trkpt>
      <trkpt lat="49.86253" lon="4.82575">
        <ele>296</ele>
        <time>2022-07-15T09:32:50.000Z</time>
      </trkpt>
      <trkpt lat="49.8625" lon="4.82576">
        <ele>296</ele>
        <time>2022-07-15T09:32:51.000Z</time>
      </trkpt>
      <trkpt lat="49.86248" lon="4.82579">
        <ele>296</ele>
        <time>2022-07-15T09:32:52.000Z</time>
      </trkpt>
      <trkpt lat="49.86245" lon="4.82582">
        <ele>297</ele>
        <time>2022-07-15T09:32:53.000Z</time>
      </trkpt>
      <trkpt lat="49.86243" lon="4.82585">
        <ele>297</ele>
        <time>2022-07-15T09:32:54.000Z</time>
      </trkpt>
      <trkpt lat="49.86241" lon="4.82588">
        <ele>297</ele>
        <time>2022-07-15T09:32:55.000Z</time>
      </trkpt>
      <trkpt lat="49.86239" lon="4.82591">
        <ele>297</ele>
        <time>2022-07-15T09:32:56.000Z</time>
      </trkpt>
      <trkpt lat="49.86237" lon="4.82595">
        <ele>297</ele>
        <time>2022-07-15T09:32:57.000Z</time>
      </trkpt>
      <trkpt lat="49.86235" lon="4.82597">
        <ele>298</ele>
        <time>2022-07-15T09:32:58.000Z</time>
      </trkpt>
      <trkpt lat="49.86232" lon="4.826">
        <ele>298</ele>
        <time>2022-07-15T09:32:59.000Z</time>
      </trkpt>
      <trkpt lat="49.8623" lon="4.82602">
        <ele>298</ele>
        <time>2022-07-15T09:33:00.000Z</time>
      </trkpt>
      <trkpt lat="49.86227" lon="4.82604">
        <ele>298</ele>
        <time>2022-07-15T09:33:01.000Z</time>
      </trkpt>
      <trkpt lat="49.86225" lon="4.82606">
        <ele>298</ele>
        <time>2022-07-15T09:33:02.000Z</time>
      </trkpt>
      <trkpt lat="49.86222" lon="4.82607">
        <ele>298</ele>
        <time>2022-07-15T09:33:03.000Z</time>
      </trkpt>
      <trkpt lat="49.8622" lon="4.82608">
        <ele>298</ele>
        <time>2022-07-15T09:33:04.000Z</time>
      </trkpt>
      <trkpt lat="49.86217" lon="4.8261">
        <ele>298</ele>
        <time>2022-07-15T09:33:05.000Z</time>
      </trkpt>
      <trkpt lat="49.86214" lon="4.82611">
        <ele>298</ele>
        <time>2022-07-15T09:33:06.000Z</time>
      </trkpt>
      <trkpt lat="49.86211" lon="4.82612">
        <ele>298</ele>
        <time>2022-07-15T09:33:07.000Z</time>
      </trkpt>
      <trkpt lat="49.86208" lon="4.82612">
        <ele>298</ele>
        <time>2022-07-15T09:33:08.000Z</time>
      </trkpt>
      <trkpt lat="49.86206" lon="4.82613">
        <ele>298</ele>
        <time>2022-07-15T09:33:09.000Z</time>
      </trkpt>
      <trkpt lat="49.86203" lon="4.82613">
        <ele>299</ele>
        <time>2022-07-15T09:33:10.000Z</time>
      </trkpt>
      <trkpt lat="49.86202" lon="4.82611">
        <ele>299</ele>
        <time>2022-07-15T09:33:11.000Z</time>
      </trkpt>
      <trkpt lat="49.86199" lon="4.8261">
        <ele>299</ele>
        <time>2022-07-15T09:33:12.000Z</time>
      </trkpt>
      <trkpt lat="49.86197" lon="4.82608">
        <ele>299</ele>
        <time>2022-07-15T09:33:13.000Z</time>
      </trkpt>
      <trkpt lat="49.86195" lon="4.82606">
        <ele>299</ele>
        <time>2022-07-15T09:33:14.000Z</time>
      </trkpt>
      <trkpt lat="49.86192" lon="4.82604">
        <ele>299</ele>
        <time>2022-07-15T09:33:15.000Z</time>
      </trkpt>
      <trkpt lat="49.86189" lon="4.82602">
        <ele>299</ele>
        <time>2022-07-15T09:33:16.000Z</time>
      </trkpt>
      <trkpt lat="49.86187" lon="4.826">
        <ele>300</ele>
        <time>2022-07-15T09:33:17.000Z</time>
      </trkpt>
      <trkpt lat="49.86184" lon="4.82598">
        <ele>300</ele>
        <time>2022-07-15T09:33:18.000Z</time>
      </trkpt>
      <trkpt lat="49.86181" lon="4.82595">
        <ele>300</ele>
        <time>2022-07-15T09:33:19.000Z</time>
      </trkpt>
      <trkpt lat="49.86179" lon="4.82593">
        <ele>300</ele>
        <time>2022-07-15T09:33:20.000Z</time>
      </trkpt>
      <trkpt lat="49.86177" lon="4.82591">
        <ele>300</ele>
        <time>2022-07-15T09:33:21.000Z</time>
      </trkpt>
      <trkpt lat="49.86175" lon="4.82589">
        <ele>300</ele>
        <time>2022-07-15T09:33:22.000Z</time>
      </trkpt>
      <trkpt lat="49.86173" lon="4.82587">
        <ele>300</ele>
        <time>2022-07-15T09:33:23.000Z</time>
      </trkpt>
      <trkpt lat="49.8617" lon="4.82585">
        <ele>300</ele>
        <time>2022-07-15T09:33:24.000Z</time>
      </trkpt>
      <trkpt lat="49.86167" lon="4.82583">
        <ele>300</ele>
        <time>2022-07-15T09:33:25.000Z</time>
      </trkpt>
      <trkpt lat="49.86165" lon="4.82582">
        <ele>301</ele>
        <time>2022-07-15T09:33:26.000Z</time>
      </trkpt>
      <trkpt lat="49.86162" lon="4.8258">
        <ele>301</ele>
        <time>2022-07-15T09:33:27.000Z</time>
      </trkpt>
      <trkpt lat="49.8616" lon="4.82578">
        <ele>301</ele>
        <time>2022-07-15T09:33:28.000Z</time>
      </trkpt>
      <trkpt lat="49.86157" lon="4.82576">
        <ele>301</ele>
        <time>2022-07-15T09:33:29.000Z</time>
      </trkpt>
      <trkpt lat="49.86154" lon="4.82575">
        <ele>302</ele>
        <time>2022-07-15T09:33:30.000Z</time>
      </trkpt>
      <trkpt lat="49.86152" lon="4.82573">
        <ele>302</ele>
        <time>2022-07-15T09:33:31.000Z</time>
      </trkpt>
      <trkpt lat="49.8615" lon="4.82571">
        <ele>302</ele>
        <time>2022-07-15T09:33:32.000Z</time>
      </trkpt>
      <trkpt lat="49.86147" lon="4.82569">
        <ele>302</ele>
        <time>2022-07-15T09:33:33.000Z</time>
      </trkpt>
      <trkpt lat="49.86144" lon="4.82567">
        <ele>302</ele>
        <time>2022-07-15T09:33:34.000Z</time>
      </trkpt>
      <trkpt lat="49.86141" lon="4.82565">
        <ele>302</ele>
        <time>2022-07-15T09:33:35.000Z</time>
      </trkpt>
      <trkpt lat="49.86139" lon="4.82564">
        <ele>302</ele>
        <time>2022-07-15T09:33:36.000Z</time>
      </trkpt>
      <trkpt lat="49.86137" lon="4.82561">
        <ele>302</ele>
        <time>2022-07-15T09:33:37.000Z</time>
      </trkpt>
      <trkpt lat="49.86134" lon="4.8256">
        <ele>302</ele>
        <time>2022-07-15T09:33:38.000Z</time>
      </trkpt>
      <trkpt lat="49.86132" lon="4.82558">
        <ele>302</ele>
        <time>2022-07-15T09:33:39.000Z</time>
      </trkpt>
      <trkpt lat="49.86129" lon="4.82556">
        <ele>302</ele>
        <time>2022-07-15T09:33:40.000Z</time>
      </trkpt>
      <trkpt lat="49.86127" lon="4.82553">
        <ele>302</ele>
        <time>2022-07-15T09:33:41.000Z</time>
      </trkpt>
      <trkpt lat="49.86125" lon="4.8255">
        <ele>302</ele>
        <time>2022-07-15T09:33:42.000Z</time>
      </trkpt>
      <trkpt lat="49.86123" lon="4.82547">
        <ele>302</ele>
        <time>2022-07-15T09:33:43.000Z</time>
      </trkpt>
      <trkpt lat="49.86121" lon="4.82544">
        <ele>302</ele>
        <time>2022-07-15T09:33:44.000Z</time>
      </trkpt>
      <trkpt lat="49.86119" lon="4.82541">
        <ele>302</ele>
        <time>2022-07-15T09:33:45.000Z</time>
      </trkpt>
      <trkpt lat="49.86117" lon="4.82538">
        <ele>302</ele>
        <time>2022-07-15T09:33:46.000Z</time>
      </trkpt>
      <trkpt lat="49.86115" lon="4.82535">
        <ele>302</ele>
        <time>2022-07-15T09:33:47.000Z</time>
      </trkpt>
      <trkpt lat="49.86113" lon="4.82532">
        <ele>302</ele>
        <time>2022-07-15T09:33:48.000Z</time>
      </trkpt>
      <trkpt lat="49.86111" lon="4.82528">
        <ele>302</ele>
        <time>2022-07-15T09:33:49.000Z</time>
      </trkpt>
      <trkpt lat="49.86109" lon="4.82523">
        <ele>302</ele>
        <time>2022-07-15T09:33:50.000Z</time>
      </trkpt>
      <trkpt lat="49.86108" lon="4.82519">
        <ele>303</ele>
        <time>2022-07-15T09:33:51.000Z</time>
      </trkpt>
      <trkpt lat="49.86106" lon="4.82515">
        <ele>303</ele>
        <time>2022-07-15T09:33:52.000Z</time>
      </trkpt>
      <trkpt lat="49.86105" lon="4.82511">
        <ele>303</ele>
        <time>2022-07-15T09:33:53.000Z</time>
      </trkpt>
      <trkpt lat="49.86104" lon="4.82507">
        <ele>303</ele>
        <time>2022-07-15T09:33:54.000Z</time>
      </trkpt>
      <trkpt lat="49.86102" lon="4.82502">
        <ele>303</ele>
        <time>2022-07-15T09:33:55.000Z</time>
      </trkpt>
      <trkpt lat="49.86101" lon="4.82498">
        <ele>303</ele>
        <time>2022-07-15T09:33:56.000Z</time>
      </trkpt>
      <trkpt lat="49.86099" lon="4.82493">
        <ele>303</ele>
        <time>2022-07-15T09:33:57.000Z</time>
      </trkpt>
      <trkpt lat="49.86098" lon="4.82489">
        <ele>303</ele>
        <time>2022-07-15T09:33:58.000Z</time>
      </trkpt>
      <trkpt lat="49.86096" lon="4.82485">
        <ele>303</ele>
        <time>2022-07-15T09:33:59.000Z</time>
      </trkpt>
      <trkpt lat="49.86095" lon="4.82481">
        <ele>303</ele>
        <time>2022-07-15T09:34:00.000Z</time>
      </trkpt>
      <trkpt lat="49.86093" lon="4.82476">
        <ele>303</ele>
        <time>2022-07-15T09:34:01.000Z</time>
      </trkpt>
      <trkpt lat="49.86092" lon="4.82472">
        <ele>303</ele>
        <time>2022-07-15T09:34:02.000Z</time>
      </trkpt>
      <trkpt lat="49.8609" lon="4.82467">
        <ele>303</ele>
        <time>2022-07-15T09:34:03.000Z</time>
      </trkpt>
      <trkpt lat="49.86088" lon="4.82464">
        <ele>303</ele>
        <time>2022-07-15T09:34:04.000Z</time>
      </trkpt>
      <trkpt lat="49.86087" lon="4.82459">
        <ele>303</ele>
        <time>2022-07-15T09:34:05.000Z</time>
      </trkpt>
      <trkpt lat="49.86085" lon="4.82455">
        <ele>303</ele>
        <time>2022-07-15T09:34:06.000Z</time>
      </trkpt>
      <trkpt lat="49.86084" lon="4.82451">
        <ele>303</ele>
        <time>2022-07-15T09:34:07.000Z</time>
      </trkpt>
      <trkpt lat="49.86083" lon="4.82447">
        <ele>303</ele>
        <time>2022-07-15T09:34:08.000Z</time>
      </trkpt>
      <trkpt lat="49.86081" lon="4.82442">
        <ele>303</ele>
        <time>2022-07-15T09:34:09.000Z</time>
      </trkpt>
      <trkpt lat="49.86079" lon="4.82438">
        <ele>303</ele>
        <time>2022-07-15T09:34:10.000Z</time>
      </trkpt>
      <trkpt lat="49.86077" lon="4.82433">
        <ele>303</ele>
        <time>2022-07-15T09:34:11.000Z</time>
      </trkpt>
      <trkpt lat="49.86076" lon="4.82429">
        <ele>303</ele>
        <time>2022-07-15T09:34:12.000Z</time>
      </trkpt>
      <trkpt lat="49.86074" lon="4.82424">
        <ele>303</ele>
        <time>2022-07-15T09:34:13.000Z</time>
      </trkpt>
      <trkpt lat="49.86073" lon="4.8242">
        <ele>303</ele>
        <time>2022-07-15T09:34:14.000Z</time>
      </trkpt>
      <trkpt lat="49.86072" lon="4.82416">
        <ele>303</ele>
        <time>2022-07-15T09:34:15.000Z</time>
      </trkpt>
      <trkpt lat="49.86071" lon="4.82413">
        <ele>304</ele>
        <time>2022-07-15T09:34:16.000Z</time>
      </trkpt>
      <trkpt lat="49.8607" lon="4.82409">
        <ele>304</ele>
        <time>2022-07-15T09:34:17.000Z</time>
      </trkpt>
      <trkpt lat="49.86069" lon="4.82405">
        <ele>304</ele>
        <time>2022-07-15T09:34:18.000Z</time>
      </trkpt>
      <trkpt lat="49.86068" lon="4.824">
        <ele>304</ele>
        <time>2022-07-15T09:34:19.000Z</time>
      </trkpt>
      <trkpt lat="49.86066" lon="4.82396">
        <ele>304</ele>
        <time>2022-07-15T09:34:20.000Z</time>
      </trkpt>
      <trkpt lat="49.86065" lon="4.82392">
        <ele>304</ele>
        <time>2022-07-15T09:34:21.000Z</time>
      </trkpt>
      <trkpt lat="49.86065" lon="4.82388">
        <ele>304</ele>
        <time>2022-07-15T09:34:22.000Z</time>
      </trkpt>
      <trkpt lat="49.86065" lon="4.82383">
        <ele>304</ele>
        <time>2022-07-15T09:34:23.000Z</time>
      </trkpt>
      <trkpt lat="49.86064" lon="4.82379">
        <ele>305</ele>
        <time>2022-07-15T09:34:24.000Z</time>
      </trkpt>
      <trkpt lat="49.86064" lon="4.82375">
        <ele>305</ele>
        <time>2022-07-15T09:34:25.000Z</time>
      </trkpt>
      <trkpt lat="49.86063" lon="4.82371">
        <ele>305</ele>
        <time>2022-07-15T09:34:26.000Z</time>
      </trkpt>
      <trkpt lat="49.86062" lon="4.82367">
        <ele>305</ele>
        <time>2022-07-15T09:34:27.000Z</time>
      </trkpt>
      <trkpt lat="49.86061" lon="4.82363">
        <ele>305</ele>
        <time>2022-07-15T09:34:28.000Z</time>
      </trkpt>
      <trkpt lat="49.8606" lon="4.82359">
        <ele>305</ele>
        <time>2022-07-15T09:34:29.000Z</time>
      </trkpt>
      <trkpt lat="49.86058" lon="4.82355">
        <ele>305</ele>
        <time>2022-07-15T09:34:30.000Z</time>
      </trkpt>
      <trkpt lat="49.86056" lon="4.8235">
        <ele>306</ele>
        <time>2022-07-15T09:34:31.000Z</time>
      </trkpt>
      <trkpt lat="49.86055" lon="4.82346">
        <ele>306</ele>
        <time>2022-07-15T09:34:32.000Z</time>
      </trkpt>
      <trkpt lat="49.86054" lon="4.82342">
        <ele>306</ele>
        <time>2022-07-15T09:34:33.000Z</time>
      </trkpt>
      <trkpt lat="49.86052" lon="4.82339">
        <ele>306</ele>
        <time>2022-07-15T09:34:34.000Z</time>
      </trkpt>
      <trkpt lat="49.86051" lon="4.82335">
        <ele>306</ele>
        <time>2022-07-15T09:34:35.000Z</time>
      </trkpt>
      <trkpt lat="49.8605" lon="4.82331">
        <ele>306</ele>
        <time>2022-07-15T09:34:36.000Z</time>
      </trkpt>
      <trkpt lat="49.86049" lon="4.82327">
        <ele>307</ele>
        <time>2022-07-15T09:34:37.000Z</time>
      </trkpt>
      <trkpt lat="49.86048" lon="4.82323">
        <ele>307</ele>
        <time>2022-07-15T09:34:38.000Z</time>
      </trkpt>
      <trkpt lat="49.86047" lon="4.82319">
        <ele>307</ele>
        <time>2022-07-15T09:34:39.000Z</time>
      </trkpt>
      <trkpt lat="49.86046" lon="4.82315">
        <ele>307</ele>
        <time>2022-07-15T09:34:40.000Z</time>
      </trkpt>
      <trkpt lat="49.86044" lon="4.82311">
        <ele>307</ele>
        <time>2022-07-15T09:34:41.000Z</time>
      </trkpt>
      <trkpt lat="49.86043" lon="4.82307">
        <ele>307</ele>
        <time>2022-07-15T09:34:42.000Z</time>
      </trkpt>
      <trkpt lat="49.86041" lon="4.82303">
        <ele>307</ele>
        <time>2022-07-15T09:34:43.000Z</time>
      </trkpt>
      <trkpt lat="49.8604" lon="4.82299">
        <ele>307</ele>
        <time>2022-07-15T09:34:44.000Z</time>
      </trkpt>
      <trkpt lat="49.86039" lon="4.82295">
        <ele>307</ele>
        <time>2022-07-15T09:34:45.000Z</time>
      </trkpt>
      <trkpt lat="49.86037" lon="4.82291">
        <ele>307</ele>
        <time>2022-07-15T09:34:46.000Z</time>
      </trkpt>
      <trkpt lat="49.86036" lon="4.82287">
        <ele>307</ele>
        <time>2022-07-15T09:34:47.000Z</time>
      </trkpt>
      <trkpt lat="49.86035" lon="4.82284">
        <ele>307</ele>
        <time>2022-07-15T09:34:48.000Z</time>
      </trkpt>
      <trkpt lat="49.86034" lon="4.8228">
        <ele>307</ele>
        <time>2022-07-15T09:34:49.000Z</time>
      </trkpt>
      <trkpt lat="49.86033" lon="4.82277">
        <ele>308</ele>
        <time>2022-07-15T09:34:50.000Z</time>
      </trkpt>
      <trkpt lat="49.86032" lon="4.82273">
        <ele>308</ele>
        <time>2022-07-15T09:34:51.000Z</time>
      </trkpt>
      <trkpt lat="49.86031" lon="4.82269">
        <ele>308</ele>
        <time>2022-07-15T09:34:52.000Z</time>
      </trkpt>
      <trkpt lat="49.8603" lon="4.82266">
        <ele>308</ele>
        <time>2022-07-15T09:34:53.000Z</time>
      </trkpt>
      <trkpt lat="49.86028" lon="4.82263">
        <ele>308</ele>
        <time>2022-07-15T09:34:54.000Z</time>
      </trkpt>
      <trkpt lat="49.86027" lon="4.82259">
        <ele>308</ele>
        <time>2022-07-15T09:34:55.000Z</time>
      </trkpt>
      <trkpt lat="49.86026" lon="4.82257">
        <ele>308</ele>
        <time>2022-07-15T09:34:56.000Z</time>
      </trkpt>
      <trkpt lat="49.86025" lon="4.82254">
        <ele>308</ele>
        <time>2022-07-15T09:34:57.000Z</time>
      </trkpt>
      <trkpt lat="49.86024" lon="4.82251">
        <ele>308</ele>
        <time>2022-07-15T09:34:58.000Z</time>
      </trkpt>
      <trkpt lat="49.86023" lon="4.82247">
        <ele>308</ele>
        <time>2022-07-15T09:34:59.000Z</time>
      </trkpt>
      <trkpt lat="49.86022" lon="4.82244">
        <ele>308</ele>
        <time>2022-07-15T09:35:00.000Z</time>
      </trkpt>
      <trkpt lat="49.86022" lon="4.82242">
        <ele>308</ele>
        <time>2022-07-15T09:35:01.000Z</time>
      </trkpt>
      <trkpt lat="49.86021" lon="4.82239">
        <ele>309</ele>
        <time>2022-07-15T09:35:02.000Z</time>
      </trkpt>
      <trkpt lat="49.8602" lon="4.82236">
        <ele>309</ele>
        <time>2022-07-15T09:35:03.000Z</time>
      </trkpt>
      <trkpt lat="49.86019" lon="4.82233">
        <ele>309</ele>
        <time>2022-07-15T09:35:04.000Z</time>
      </trkpt>
      <trkpt lat="49.86018" lon="4.82231">
        <ele>309</ele>
        <time>2022-07-15T09:35:05.000Z</time>
      </trkpt>
      <trkpt lat="49.86017" lon="4.82228">
        <ele>310</ele>
        <time>2022-07-15T09:35:06.000Z</time>
      </trkpt>
      <trkpt lat="49.86016" lon="4.82226">
        <ele>310</ele>
        <time>2022-07-15T09:35:07.000Z</time>
      </trkpt>
      <trkpt lat="49.86015" lon="4.82224">
        <ele>310</ele>
        <time>2022-07-15T09:35:08.000Z</time>
      </trkpt>
      <trkpt lat="49.86014" lon="4.82222">
        <ele>310</ele>
        <time>2022-07-15T09:35:09.000Z</time>
      </trkpt>
      <trkpt lat="49.86011" lon="4.82219">
        <ele>311</ele>
        <time>2022-07-15T09:35:10.000Z</time>
      </trkpt>
      <trkpt lat="49.86009" lon="4.82217">
        <ele>311</ele>
        <time>2022-07-15T09:35:11.000Z</time>
      </trkpt>
      <trkpt lat="49.86006" lon="4.82215">
        <ele>311</ele>
        <time>2022-07-15T09:35:12.000Z</time>
      </trkpt>
      <trkpt lat="49.86003" lon="4.82213">
        <ele>311</ele>
        <time>2022-07-15T09:35:13.000Z</time>
      </trkpt>
      <trkpt lat="49.86" lon="4.8221">
        <ele>311</ele>
        <time>2022-07-15T09:35:14.000Z</time>
      </trkpt>
      <trkpt lat="49.85997" lon="4.82207">
        <ele>312</ele>
        <time>2022-07-15T09:35:15.000Z</time>
      </trkpt>
      <trkpt lat="49.85994" lon="4.82203">
        <ele>312</ele>
        <time>2022-07-15T09:35:16.000Z</time>
      </trkpt>
      <trkpt lat="49.85991" lon="4.822">
        <ele>312</ele>
        <time>2022-07-15T09:35:17.000Z</time>
      </trkpt>
      <trkpt lat="49.85987" lon="4.82197">
        <ele>312</ele>
        <time>2022-07-15T09:35:18.000Z</time>
      </trkpt>
      <trkpt lat="49.85985" lon="4.82193">
        <ele>312</ele>
        <time>2022-07-15T09:35:19.000Z</time>
      </trkpt>
      <trkpt lat="49.85982" lon="4.8219">
        <ele>312</ele>
        <time>2022-07-15T09:35:20.000Z</time>
      </trkpt>
      <trkpt lat="49.85978" lon="4.82188">
        <ele>312</ele>
        <time>2022-07-15T09:35:21.000Z</time>
      </trkpt>
      <trkpt lat="49.85975" lon="4.82185">
        <ele>312</ele>
        <time>2022-07-15T09:35:22.000Z</time>
      </trkpt>
      <trkpt lat="49.85972" lon="4.82183">
        <ele>312</ele>
        <time>2022-07-15T09:35:23.000Z</time>
      </trkpt>
      <trkpt lat="49.85968" lon="4.8218">
        <ele>313</ele>
        <time>2022-07-15T09:35:24.000Z</time>
      </trkpt>
      <trkpt lat="49.85965" lon="4.82177">
        <ele>313</ele>
        <time>2022-07-15T09:35:25.000Z</time>
      </trkpt>
      <trkpt lat="49.85961" lon="4.82175">
        <ele>313</ele>
        <time>2022-07-15T09:35:26.000Z</time>
      </trkpt>
      <trkpt lat="49.85956" lon="4.82172">
        <ele>313</ele>
        <time>2022-07-15T09:35:27.000Z</time>
      </trkpt>
      <trkpt lat="49.85953" lon="4.8217">
        <ele>313</ele>
        <time>2022-07-15T09:35:28.000Z</time>
      </trkpt>
      <trkpt lat="49.85951" lon="4.82167">
        <ele>313</ele>
        <time>2022-07-15T09:35:29.000Z</time>
      </trkpt>
      <trkpt lat="49.8595" lon="4.82165">
        <ele>313</ele>
        <time>2022-07-15T09:35:30.000Z</time>
      </trkpt>
      <trkpt lat="49.85948" lon="4.82163">
        <ele>313</ele>
        <time>2022-07-15T09:35:31.000Z</time>
      </trkpt>
      <trkpt lat="49.85945" lon="4.82161">
        <ele>313</ele>
        <time>2022-07-15T09:35:32.000Z</time>
      </trkpt>
      <trkpt lat="49.85942" lon="4.82159">
        <ele>313</ele>
        <time>2022-07-15T09:35:33.000Z</time>
      </trkpt>
      <trkpt lat="49.85939" lon="4.82158">
        <ele>313</ele>
        <time>2022-07-15T09:35:34.000Z</time>
      </trkpt>
      <trkpt lat="49.85935" lon="4.82157">
        <ele>313</ele>
        <time>2022-07-15T09:35:35.000Z</time>
      </trkpt>
      <trkpt lat="49.85932" lon="4.82156">
        <ele>313</ele>
        <time>2022-07-15T09:35:36.000Z</time>
      </trkpt>
      <trkpt lat="49.85929" lon="4.82155">
        <ele>313</ele>
        <time>2022-07-15T09:35:37.000Z</time>
      </trkpt>
      <trkpt lat="49.85927" lon="4.82154">
        <ele>313</ele>
        <time>2022-07-15T09:35:38.000Z</time>
      </trkpt>
      <trkpt lat="49.85924" lon="4.82153">
        <ele>313</ele>
        <time>2022-07-15T09:35:39.000Z</time>
      </trkpt>
      <trkpt lat="49.85921" lon="4.82153">
        <ele>313</ele>
        <time>2022-07-15T09:35:40.000Z</time>
      </trkpt>
      <trkpt lat="49.85919" lon="4.82152">
        <ele>313</ele>
        <time>2022-07-15T09:35:41.000Z</time>
      </trkpt>
      <trkpt lat="49.85917" lon="4.82151">
        <ele>313</ele>
        <time>2022-07-15T09:35:42.000Z</time>
      </trkpt>
      <trkpt lat="49.85915" lon="4.8215">
        <ele>313</ele>
        <time>2022-07-15T09:35:43.000Z</time>
      </trkpt>
      <trkpt lat="49.85913" lon="4.82151">
        <ele>313</ele>
        <time>2022-07-15T09:35:44.000Z</time>
      </trkpt>
      <trkpt lat="49.8591" lon="4.82152">
        <ele>313</ele>
        <time>2022-07-15T09:35:45.000Z</time>
      </trkpt>
      <trkpt lat="49.85908" lon="4.82152">
        <ele>313</ele>
        <time>2022-07-15T09:35:46.000Z</time>
      </trkpt>
      <trkpt lat="49.85906" lon="4.82153">
        <ele>313</ele>
        <time>2022-07-15T09:35:47.000Z</time>
      </trkpt>
      <trkpt lat="49.85904" lon="4.82153">
        <ele>313</ele>
        <time>2022-07-15T09:35:48.000Z</time>
      </trkpt>
      <trkpt lat="49.85902" lon="4.82155">
        <ele>313</ele>
        <time>2022-07-15T09:35:49.000Z</time>
      </trkpt>
      <trkpt lat="49.859" lon="4.82156">
        <ele>313</ele>
        <time>2022-07-15T09:35:50.000Z</time>
      </trkpt>
      <trkpt lat="49.85898" lon="4.82156">
        <ele>312</ele>
        <time>2022-07-15T09:35:51.000Z</time>
      </trkpt>
      <trkpt lat="49.85897" lon="4.82156">
        <ele>312</ele>
        <time>2022-07-15T09:35:52.000Z</time>
      </trkpt>
      <trkpt lat="49.85895" lon="4.82155">
        <ele>312</ele>
        <time>2022-07-15T09:35:53.000Z</time>
      </trkpt>
      <trkpt lat="49.85893" lon="4.82156">
        <ele>312</ele>
        <time>2022-07-15T09:35:54.000Z</time>
      </trkpt>
      <trkpt lat="49.85892" lon="4.82156">
        <ele>312</ele>
        <time>2022-07-15T09:35:55.000Z</time>
      </trkpt>
      <trkpt lat="49.8589" lon="4.82156">
        <ele>312</ele>
        <time>2022-07-15T09:35:56.000Z</time>
      </trkpt>
      <trkpt lat="49.85888" lon="4.82156">
        <ele>312</ele>
        <time>2022-07-15T09:35:57.000Z</time>
      </trkpt>
      <trkpt lat="49.85886" lon="4.82156">
        <ele>312</ele>
        <time>2022-07-15T09:35:58.000Z</time>
      </trkpt>
      <trkpt lat="49.85884" lon="4.82155">
        <ele>312</ele>
        <time>2022-07-15T09:35:59.000Z</time>
      </trkpt>
      <trkpt lat="49.85882" lon="4.82153">
        <ele>312</ele>
        <time>2022-07-15T09:36:00.000Z</time>
      </trkpt>
      <trkpt lat="49.8588" lon="4.8215">
        <ele>312</ele>
        <time>2022-07-15T09:36:01.000Z</time>
      </trkpt>
      <trkpt lat="49.85879" lon="4.82147">
        <ele>312</ele>
        <time>2022-07-15T09:36:02.000Z</time>
      </trkpt>
      <trkpt lat="49.85877" lon="4.82145">
        <ele>312</ele>
        <time>2022-07-15T09:36:03.000Z</time>
      </trkpt>
      <trkpt lat="49.85876" lon="4.82141">
        <ele>312</ele>
        <time>2022-07-15T09:36:04.000Z</time>
      </trkpt>
      <trkpt lat="49.85874" lon="4.82138">
        <ele>313</ele>
        <time>2022-07-15T09:36:05.000Z</time>
      </trkpt>
      <trkpt lat="49.85873" lon="4.82135">
        <ele>313</ele>
        <time>2022-07-15T09:36:06.000Z</time>
      </trkpt>
      <trkpt lat="49.85871" lon="4.82132">
        <ele>313</ele>
        <time>2022-07-15T09:36:07.000Z</time>
      </trkpt>
      <trkpt lat="49.8587" lon="4.82129">
        <ele>313</ele>
        <time>2022-07-15T09:36:08.000Z</time>
      </trkpt>
      <trkpt lat="49.85868" lon="4.82125">
        <ele>313</ele>
        <time>2022-07-15T09:36:09.000Z</time>
      </trkpt>
      <trkpt lat="49.85866" lon="4.82121">
        <ele>313</ele>
        <time>2022-07-15T09:36:10.000Z</time>
      </trkpt>
      <trkpt lat="49.85864" lon="4.82117">
        <ele>313</ele>
        <time>2022-07-15T09:36:11.000Z</time>
      </trkpt>
      <trkpt lat="49.85863" lon="4.82113">
        <ele>313</ele>
        <time>2022-07-15T09:36:12.000Z</time>
      </trkpt>
      <trkpt lat="49.85861" lon="4.82109">
        <ele>313</ele>
        <time>2022-07-15T09:36:13.000Z</time>
      </trkpt>
      <trkpt lat="49.85859" lon="4.82106">
        <ele>313</ele>
        <time>2022-07-15T09:36:14.000Z</time>
      </trkpt>
      <trkpt lat="49.85858" lon="4.82103">
        <ele>314</ele>
        <time>2022-07-15T09:36:15.000Z</time>
      </trkpt>
      <trkpt lat="49.85857" lon="4.82099">
        <ele>314</ele>
        <time>2022-07-15T09:36:16.000Z</time>
      </trkpt>
      <trkpt lat="49.85855" lon="4.82096">
        <ele>314</ele>
        <time>2022-07-15T09:36:17.000Z</time>
      </trkpt>
      <trkpt lat="49.85853" lon="4.82092">
        <ele>314</ele>
        <time>2022-07-15T09:36:18.000Z</time>
      </trkpt>
      <trkpt lat="49.85851" lon="4.82088">
        <ele>314</ele>
        <time>2022-07-15T09:36:19.000Z</time>
      </trkpt>
      <trkpt lat="49.85849" lon="4.82085">
        <ele>315</ele>
        <time>2022-07-15T09:36:20.000Z</time>
      </trkpt>
      <trkpt lat="49.85847" lon="4.82082">
        <ele>315</ele>
        <time>2022-07-15T09:36:21.000Z</time>
      </trkpt>
      <trkpt lat="49.85845" lon="4.82078">
        <ele>315</ele>
        <time>2022-07-15T09:36:22.000Z</time>
      </trkpt>
      <trkpt lat="49.85844" lon="4.82075">
        <ele>315</ele>
        <time>2022-07-15T09:36:23.000Z</time>
      </trkpt>
      <trkpt lat="49.85842" lon="4.82072">
        <ele>316</ele>
        <time>2022-07-15T09:36:24.000Z</time>
      </trkpt>
      <trkpt lat="49.8584" lon="4.82069">
        <ele>316</ele>
        <time>2022-07-15T09:36:25.000Z</time>
      </trkpt>
      <trkpt lat="49.85838" lon="4.82065">
        <ele>316</ele>
        <time>2022-07-15T09:36:26.000Z</time>
      </trkpt>
      <trkpt lat="49.85837" lon="4.82062">
        <ele>316</ele>
        <time>2022-07-15T09:36:27.000Z</time>
      </trkpt>
      <trkpt lat="49.85834" lon="4.82059">
        <ele>317</ele>
        <time>2022-07-15T09:36:28.000Z</time>
      </trkpt>
      <trkpt lat="49.85833" lon="4.82056">
        <ele>317</ele>
        <time>2022-07-15T09:36:29.000Z</time>
      </trkpt>
      <trkpt lat="49.85831" lon="4.82053">
        <ele>317</ele>
        <time>2022-07-15T09:36:30.000Z</time>
      </trkpt>
      <trkpt lat="49.8583" lon="4.82049">
        <ele>317</ele>
        <time>2022-07-15T09:36:31.000Z</time>
      </trkpt>
      <trkpt lat="49.85828" lon="4.82046">
        <ele>318</ele>
        <time>2022-07-15T09:36:32.000Z</time>
      </trkpt>
      <trkpt lat="49.85827" lon="4.82043">
        <ele>318</ele>
        <time>2022-07-15T09:36:33.000Z</time>
      </trkpt>
      <trkpt lat="49.85826" lon="4.8204">
        <ele>318</ele>
        <time>2022-07-15T09:36:34.000Z</time>
      </trkpt>
      <trkpt lat="49.85825" lon="4.82037">
        <ele>318</ele>
        <time>2022-07-15T09:36:35.000Z</time>
      </trkpt>
      <trkpt lat="49.85824" lon="4.82035">
        <ele>319</ele>
        <time>2022-07-15T09:36:36.000Z</time>
      </trkpt>
      <trkpt lat="49.85822" lon="4.82031">
        <ele>319</ele>
        <time>2022-07-15T09:36:37.000Z</time>
      </trkpt>
      <trkpt lat="49.85821" lon="4.82027">
        <ele>319</ele>
        <time>2022-07-15T09:36:38.000Z</time>
      </trkpt>
      <trkpt lat="49.85819" lon="4.82024">
        <ele>320</ele>
        <time>2022-07-15T09:36:39.000Z</time>
      </trkpt>
      <trkpt lat="49.85818" lon="4.82021">
        <ele>320</ele>
        <time>2022-07-15T09:36:40.000Z</time>
      </trkpt>
      <trkpt lat="49.85817" lon="4.82018">
        <ele>320</ele>
        <time>2022-07-15T09:36:41.000Z</time>
      </trkpt>
      <trkpt lat="49.85816" lon="4.82014">
        <ele>320</ele>
        <time>2022-07-15T09:36:42.000Z</time>
      </trkpt>
      <trkpt lat="49.85815" lon="4.82011">
        <ele>320</ele>
        <time>2022-07-15T09:36:43.000Z</time>
      </trkpt>
      <trkpt lat="49.85814" lon="4.82008">
        <ele>320</ele>
        <time>2022-07-15T09:36:44.000Z</time>
      </trkpt>
      <trkpt lat="49.85812" lon="4.82005">
        <ele>321</ele>
        <time>2022-07-15T09:36:45.000Z</time>
      </trkpt>
      <trkpt lat="49.85811" lon="4.82002">
        <ele>321</ele>
        <time>2022-07-15T09:36:46.000Z</time>
      </trkpt>
      <trkpt lat="49.85809" lon="4.81998">
        <ele>321</ele>
        <time>2022-07-15T09:36:47.000Z</time>
      </trkpt>
      <trkpt lat="49.85807" lon="4.81995">
        <ele>321</ele>
        <time>2022-07-15T09:36:48.000Z</time>
      </trkpt>
      <trkpt lat="49.85806" lon="4.81992">
        <ele>321</ele>
        <time>2022-07-15T09:36:49.000Z</time>
      </trkpt>
      <trkpt lat="49.85805" lon="4.8199">
        <ele>321</ele>
        <time>2022-07-15T09:36:50.000Z</time>
      </trkpt>
      <trkpt lat="49.85804" lon="4.81988">
        <ele>321</ele>
        <time>2022-07-15T09:36:51.000Z</time>
      </trkpt>
      <trkpt lat="49.85802" lon="4.81985">
        <ele>322</ele>
        <time>2022-07-15T09:36:52.000Z</time>
      </trkpt>
      <trkpt lat="49.85801" lon="4.81982">
        <ele>322</ele>
        <time>2022-07-15T09:36:53.000Z</time>
      </trkpt>
      <trkpt lat="49.85799" lon="4.81979">
        <ele>322</ele>
        <time>2022-07-15T09:36:54.000Z</time>
      </trkpt>
      <trkpt lat="49.85797" lon="4.81975">
        <ele>322</ele>
        <time>2022-07-15T09:36:55.000Z</time>
      </trkpt>
      <trkpt lat="49.85795" lon="4.81972">
        <ele>323</ele>
        <time>2022-07-15T09:36:56.000Z</time>
      </trkpt>
      <trkpt lat="49.85793" lon="4.81969">
        <ele>323</ele>
        <time>2022-07-15T09:36:57.000Z</time>
      </trkpt>
      <trkpt lat="49.85791" lon="4.81966">
        <ele>323</ele>
        <time>2022-07-15T09:36:58.000Z</time>
      </trkpt>
      <trkpt lat="49.85789" lon="4.81963">
        <ele>323</ele>
        <time>2022-07-15T09:36:59.000Z</time>
      </trkpt>
      <trkpt lat="49.85787" lon="4.81959">
        <ele>324</ele>
        <time>2022-07-15T09:37:00.000Z</time>
      </trkpt>
      <trkpt lat="49.85785" lon="4.81956">
        <ele>324</ele>
        <time>2022-07-15T09:37:01.000Z</time>
      </trkpt>
      <trkpt lat="49.85783" lon="4.81952">
        <ele>324</ele>
        <time>2022-07-15T09:37:02.000Z</time>
      </trkpt>
      <trkpt lat="49.85781" lon="4.81948">
        <ele>324</ele>
        <time>2022-07-15T09:37:03.000Z</time>
      </trkpt>
      <trkpt lat="49.85779" lon="4.81945">
        <ele>324</ele>
        <time>2022-07-15T09:37:04.000Z</time>
      </trkpt>
      <trkpt lat="49.85777" lon="4.81942">
        <ele>324</ele>
        <time>2022-07-15T09:37:05.000Z</time>
      </trkpt>
      <trkpt lat="49.85776" lon="4.8194">
        <ele>324</ele>
        <time>2022-07-15T09:37:06.000Z</time>
      </trkpt>
      <trkpt lat="49.85773" lon="4.81936">
        <ele>324</ele>
        <time>2022-07-15T09:37:07.000Z</time>
      </trkpt>
      <trkpt lat="49.85771" lon="4.81933">
        <ele>325</ele>
        <time>2022-07-15T09:37:08.000Z</time>
      </trkpt>
      <trkpt lat="49.85768" lon="4.81931">
        <ele>325</ele>
        <time>2022-07-15T09:37:09.000Z</time>
      </trkpt>
      <trkpt lat="49.85765" lon="4.81928">
        <ele>325</ele>
        <time>2022-07-15T09:37:10.000Z</time>
      </trkpt>
      <trkpt lat="49.85763" lon="4.81925">
        <ele>325</ele>
        <time>2022-07-15T09:37:11.000Z</time>
      </trkpt>
      <trkpt lat="49.8576" lon="4.81922">
        <ele>325</ele>
        <time>2022-07-15T09:37:12.000Z</time>
      </trkpt>
      <trkpt lat="49.85758" lon="4.81918">
        <ele>325</ele>
        <time>2022-07-15T09:37:13.000Z</time>
      </trkpt>
      <trkpt lat="49.85755" lon="4.81914">
        <ele>325</ele>
        <time>2022-07-15T09:37:14.000Z</time>
      </trkpt>
      <trkpt lat="49.85752" lon="4.8191">
        <ele>325</ele>
        <time>2022-07-15T09:37:15.000Z</time>
      </trkpt>
      <trkpt lat="49.85749" lon="4.81907">
        <ele>325</ele>
        <time>2022-07-15T09:37:16.000Z</time>
      </trkpt>
      <trkpt lat="49.85746" lon="4.81903">
        <ele>325</ele>
        <time>2022-07-15T09:37:17.000Z</time>
      </trkpt>
      <trkpt lat="49.85744" lon="4.819">
        <ele>326</ele>
        <time>2022-07-15T09:37:18.000Z</time>
      </trkpt>
      <trkpt lat="49.85742" lon="4.81897">
        <ele>326</ele>
        <time>2022-07-15T09:37:19.000Z</time>
      </trkpt>
      <trkpt lat="49.8574" lon="4.81894">
        <ele>326</ele>
        <time>2022-07-15T09:37:20.000Z</time>
      </trkpt>
      <trkpt lat="49.85737" lon="4.8189">
        <ele>326</ele>
        <time>2022-07-15T09:37:21.000Z</time>
      </trkpt>
      <trkpt lat="49.85734" lon="4.81886">
        <ele>326</ele>
        <time>2022-07-15T09:37:22.000Z</time>
      </trkpt>
      <trkpt lat="49.85732" lon="4.81882">
        <ele>326</ele>
        <time>2022-07-15T09:37:23.000Z</time>
      </trkpt>
      <trkpt lat="49.85729" lon="4.81878">
        <ele>326</ele>
        <time>2022-07-15T09:37:24.000Z</time>
      </trkpt>
      <trkpt lat="49.85726" lon="4.81875">
        <ele>326</ele>
        <time>2022-07-15T09:37:25.000Z</time>
      </trkpt>
      <trkpt lat="49.85723" lon="4.81872">
        <ele>327</ele>
        <time>2022-07-15T09:37:26.000Z</time>
      </trkpt>
      <trkpt lat="49.8572" lon="4.81869">
        <ele>327</ele>
        <time>2022-07-15T09:37:27.000Z</time>
      </trkpt>
      <trkpt lat="49.85717" lon="4.81866">
        <ele>327</ele>
        <time>2022-07-15T09:37:28.000Z</time>
      </trkpt>
      <trkpt lat="49.85715" lon="4.81865">
        <ele>327</ele>
        <time>2022-07-15T09:37:29.000Z</time>
      </trkpt>
      <trkpt lat="49.85712" lon="4.81864">
        <ele>328</ele>
        <time>2022-07-15T09:37:30.000Z</time>
      </trkpt>
      <trkpt lat="49.85709" lon="4.81862">
        <ele>328</ele>
        <time>2022-07-15T09:37:31.000Z</time>
      </trkpt>
      <trkpt lat="49.85706" lon="4.8186">
        <ele>328</ele>
        <time>2022-07-15T09:37:32.000Z</time>
      </trkpt>
      <trkpt lat="49.85702" lon="4.81859">
        <ele>328</ele>
        <time>2022-07-15T09:37:33.000Z</time>
      </trkpt>
      <trkpt lat="49.85699" lon="4.81857">
        <ele>328</ele>
        <time>2022-07-15T09:37:34.000Z</time>
      </trkpt>
      <trkpt lat="49.85695" lon="4.81856">
        <ele>329</ele>
        <time>2022-07-15T09:37:35.000Z</time>
      </trkpt>
      <trkpt lat="49.85691" lon="4.81854">
        <ele>329</ele>
        <time>2022-07-15T09:37:36.000Z</time>
      </trkpt>
      <trkpt lat="49.85686" lon="4.81852">
        <ele>329</ele>
        <time>2022-07-15T09:37:37.000Z</time>
      </trkpt>
      <trkpt lat="49.85682" lon="4.8185">
        <ele>330</ele>
        <time>2022-07-15T09:37:38.000Z</time>
      </trkpt>
      <trkpt lat="49.85678" lon="4.81848">
        <ele>330</ele>
        <time>2022-07-15T09:37:39.000Z</time>
      </trkpt>
      <trkpt lat="49.85674" lon="4.81847">
        <ele>330</ele>
        <time>2022-07-15T09:37:40.000Z</time>
      </trkpt>
      <trkpt lat="49.85671" lon="4.81846">
        <ele>331</ele>
        <time>2022-07-15T09:37:41.000Z</time>
      </trkpt>
      <trkpt lat="49.85667" lon="4.81845">
        <ele>331</ele>
        <time>2022-07-15T09:37:42.000Z</time>
      </trkpt>
      <trkpt lat="49.85664" lon="4.81845">
        <ele>331</ele>
        <time>2022-07-15T09:37:43.000Z</time>
      </trkpt>
      <trkpt lat="49.8566" lon="4.81846">
        <ele>331</ele>
        <time>2022-07-15T09:37:44.000Z</time>
      </trkpt>
      <trkpt lat="49.85657" lon="4.81847">
        <ele>332</ele>
        <time>2022-07-15T09:37:45.000Z</time>
      </trkpt>
      <trkpt lat="49.85653" lon="4.81848">
        <ele>332</ele>
        <time>2022-07-15T09:37:46.000Z</time>
      </trkpt>
      <trkpt lat="49.8565" lon="4.8185">
        <ele>332</ele>
        <time>2022-07-15T09:37:47.000Z</time>
      </trkpt>
      <trkpt lat="49.85647" lon="4.8185">
        <ele>332</ele>
        <time>2022-07-15T09:37:48.000Z</time>
      </trkpt>
      <trkpt lat="49.85644" lon="4.81852">
        <ele>332</ele>
        <time>2022-07-15T09:37:49.000Z</time>
      </trkpt>
      <trkpt lat="49.85641" lon="4.81853">
        <ele>332</ele>
        <time>2022-07-15T09:37:50.000Z</time>
      </trkpt>
      <trkpt lat="49.85639" lon="4.81855">
        <ele>332</ele>
        <time>2022-07-15T09:37:51.000Z</time>
      </trkpt>
      <trkpt lat="49.85636" lon="4.81856">
        <ele>332</ele>
        <time>2022-07-15T09:37:52.000Z</time>
      </trkpt>
      <trkpt lat="49.85633" lon="4.81857">
        <ele>333</ele>
        <time>2022-07-15T09:37:53.000Z</time>
      </trkpt>
      <trkpt lat="49.8563" lon="4.81858">
        <ele>333</ele>
        <time>2022-07-15T09:37:54.000Z</time>
      </trkpt>
      <trkpt lat="49.85628" lon="4.8186">
        <ele>333</ele>
        <time>2022-07-15T09:37:55.000Z</time>
      </trkpt>
      <trkpt lat="49.85627" lon="4.81861">
        <ele>333</ele>
        <time>2022-07-15T09:37:56.000Z</time>
      </trkpt>
      <trkpt lat="49.85625" lon="4.81863">
        <ele>333</ele>
        <time>2022-07-15T09:37:57.000Z</time>
      </trkpt>
      <trkpt lat="49.85622" lon="4.81864">
        <ele>334</ele>
        <time>2022-07-15T09:37:58.000Z</time>
      </trkpt>
      <trkpt lat="49.8562" lon="4.81865">
        <ele>334</ele>
        <time>2022-07-15T09:37:59.000Z</time>
      </trkpt>
      <trkpt lat="49.85618" lon="4.81867">
        <ele>334</ele>
        <time>2022-07-15T09:38:00.000Z</time>
      </trkpt>
      <trkpt lat="49.85614" lon="4.8187">
        <ele>334</ele>
        <time>2022-07-15T09:38:01.000Z</time>
      </trkpt>
      <trkpt lat="49.85611" lon="4.81871">
        <ele>334</ele>
        <time>2022-07-15T09:38:02.000Z</time>
      </trkpt>
      <trkpt lat="49.85608" lon="4.81873">
        <ele>334</ele>
        <time>2022-07-15T09:38:03.000Z</time>
      </trkpt>
      <trkpt lat="49.85605" lon="4.81874">
        <ele>334</ele>
        <time>2022-07-15T09:38:04.000Z</time>
      </trkpt>
      <trkpt lat="49.85604" lon="4.81876">
        <ele>334</ele>
        <time>2022-07-15T09:38:05.000Z</time>
      </trkpt>
      <trkpt lat="49.85601" lon="4.81877">
        <ele>334</ele>
        <time>2022-07-15T09:38:06.000Z</time>
      </trkpt>
      <trkpt lat="49.85599" lon="4.81879">
        <ele>334</ele>
        <time>2022-07-15T09:38:07.000Z</time>
      </trkpt>
      <trkpt lat="49.85596" lon="4.8188">
        <ele>334</ele>
        <time>2022-07-15T09:38:08.000Z</time>
      </trkpt>
      <trkpt lat="49.85594" lon="4.81882">
        <ele>334</ele>
        <time>2022-07-15T09:38:09.000Z</time>
      </trkpt>
      <trkpt lat="49.85591" lon="4.81883">
        <ele>335</ele>
        <time>2022-07-15T09:38:10.000Z</time>
      </trkpt>
      <trkpt lat="49.85589" lon="4.81885">
        <ele>335</ele>
        <time>2022-07-15T09:38:11.000Z</time>
      </trkpt>
      <trkpt lat="49.85586" lon="4.81886">
        <ele>335</ele>
        <time>2022-07-15T09:38:12.000Z</time>
      </trkpt>
      <trkpt lat="49.85583" lon="4.81888">
        <ele>335</ele>
        <time>2022-07-15T09:38:13.000Z</time>
      </trkpt>
      <trkpt lat="49.8558" lon="4.8189">
        <ele>335</ele>
        <time>2022-07-15T09:38:14.000Z</time>
      </trkpt>
      <trkpt lat="49.85577" lon="4.81891">
        <ele>336</ele>
        <time>2022-07-15T09:38:15.000Z</time>
      </trkpt>
      <trkpt lat="49.85574" lon="4.81893">
        <ele>336</ele>
        <time>2022-07-15T09:38:16.000Z</time>
      </trkpt>
      <trkpt lat="49.85571" lon="4.81895">
        <ele>336</ele>
        <time>2022-07-15T09:38:17.000Z</time>
      </trkpt>
      <trkpt lat="49.85568" lon="4.81897">
        <ele>337</ele>
        <time>2022-07-15T09:38:18.000Z</time>
      </trkpt>
      <trkpt lat="49.85566" lon="4.81899">
        <ele>337</ele>
        <time>2022-07-15T09:38:19.000Z</time>
      </trkpt>
      <trkpt lat="49.85563" lon="4.81901">
        <ele>337</ele>
        <time>2022-07-15T09:38:20.000Z</time>
      </trkpt>
      <trkpt lat="49.8556" lon="4.81904">
        <ele>337</ele>
        <time>2022-07-15T09:38:21.000Z</time>
      </trkpt>
      <trkpt lat="49.85558" lon="4.81906">
        <ele>338</ele>
        <time>2022-07-15T09:38:22.000Z</time>
      </trkpt>
      <trkpt lat="49.85556" lon="4.81909">
        <ele>338</ele>
        <time>2022-07-15T09:38:23.000Z</time>
      </trkpt>
      <trkpt lat="49.85554" lon="4.81913">
        <ele>338</ele>
        <time>2022-07-15T09:38:24.000Z</time>
      </trkpt>
      <trkpt lat="49.85553" lon="4.81916">
        <ele>338</ele>
        <time>2022-07-15T09:38:25.000Z</time>
      </trkpt>
      <trkpt lat="49.85551" lon="4.8192">
        <ele>338</ele>
        <time>2022-07-15T09:38:26.000Z</time>
      </trkpt>
      <trkpt lat="49.8555" lon="4.81923">
        <ele>338</ele>
        <time>2022-07-15T09:38:27.000Z</time>
      </trkpt>
      <trkpt lat="49.85549" lon="4.81926">
        <ele>338</ele>
        <time>2022-07-15T09:38:28.000Z</time>
      </trkpt>
      <trkpt lat="49.85548" lon="4.81928">
        <ele>338</ele>
        <time>2022-07-15T09:38:29.000Z</time>
      </trkpt>
      <trkpt lat="49.85547" lon="4.8193">
        <ele>338</ele>
        <time>2022-07-15T09:38:30.000Z</time>
      </trkpt>
      <trkpt lat="49.85546" lon="4.81932">
        <ele>338</ele>
        <time>2022-07-15T09:38:31.000Z</time>
      </trkpt>
      <trkpt lat="49.85545" lon="4.81934">
        <ele>338</ele>
        <time>2022-07-15T09:38:32.000Z</time>
      </trkpt>
      <trkpt lat="49.85543" lon="4.81937">
        <ele>338</ele>
        <time>2022-07-15T09:38:33.000Z</time>
      </trkpt>
      <trkpt lat="49.85542" lon="4.81939">
        <ele>338</ele>
        <time>2022-07-15T09:38:34.000Z</time>
      </trkpt>
      <trkpt lat="49.85541" lon="4.81942">
        <ele>337</ele>
        <time>2022-07-15T09:38:35.000Z</time>
      </trkpt>
      <trkpt lat="49.8554" lon="4.81944">
        <ele>337</ele>
        <time>2022-07-15T09:38:36.000Z</time>
      </trkpt>
      <trkpt lat="49.85539" lon="4.81947">
        <ele>337</ele>
        <time>2022-07-15T09:38:37.000Z</time>
      </trkpt>
      <trkpt lat="49.85537" lon="4.8195">
        <ele>337</ele>
        <time>2022-07-15T09:38:38.000Z</time>
      </trkpt>
      <trkpt lat="49.85536" lon="4.81953">
        <ele>337</ele>
        <time>2022-07-15T09:38:39.000Z</time>
      </trkpt>
      <trkpt lat="49.85534" lon="4.81955">
        <ele>336</ele>
        <time>2022-07-15T09:38:40.000Z</time>
      </trkpt>
      <trkpt lat="49.85532" lon="4.81958">
        <ele>336</ele>
        <time>2022-07-15T09:38:41.000Z</time>
      </trkpt>
      <trkpt lat="49.85531" lon="4.8196">
        <ele>336</ele>
        <time>2022-07-15T09:38:42.000Z</time>
      </trkpt>
      <trkpt lat="49.85529" lon="4.81963">
        <ele>336</ele>
        <time>2022-07-15T09:38:43.000Z</time>
      </trkpt>
      <trkpt lat="49.85527" lon="4.81965">
        <ele>336</ele>
        <time>2022-07-15T09:38:44.000Z</time>
      </trkpt>
      <trkpt lat="49.85524" lon="4.81968">
        <ele>336</ele>
        <time>2022-07-15T09:38:45.000Z</time>
      </trkpt>
      <trkpt lat="49.85522" lon="4.81969">
        <ele>335</ele>
        <time>2022-07-15T09:38:46.000Z</time>
      </trkpt>
      <trkpt lat="49.8552" lon="4.81971">
        <ele>335</ele>
        <time>2022-07-15T09:38:47.000Z</time>
      </trkpt>
      <trkpt lat="49.85517" lon="4.81973">
        <ele>335</ele>
        <time>2022-07-15T09:38:48.000Z</time>
      </trkpt>
      <trkpt lat="49.85515" lon="4.81974">
        <ele>335</ele>
        <time>2022-07-15T09:38:49.000Z</time>
      </trkpt>
      <trkpt lat="49.85512" lon="4.81976">
        <ele>335</ele>
        <time>2022-07-15T09:38:50.000Z</time>
      </trkpt>
      <trkpt lat="49.8551" lon="4.81978">
        <ele>336</ele>
        <time>2022-07-15T09:38:51.000Z</time>
      </trkpt>
      <trkpt lat="49.85506" lon="4.81979">
        <ele>336</ele>
        <time>2022-07-15T09:38:52.000Z</time>
      </trkpt>
      <trkpt lat="49.85504" lon="4.8198">
        <ele>336</ele>
        <time>2022-07-15T09:38:53.000Z</time>
      </trkpt>
      <trkpt lat="49.85501" lon="4.81981">
        <ele>336</ele>
        <time>2022-07-15T09:38:54.000Z</time>
      </trkpt>
      <trkpt lat="49.85498" lon="4.81982">
        <ele>336</ele>
        <time>2022-07-15T09:38:55.000Z</time>
      </trkpt>
      <trkpt lat="49.85495" lon="4.81982">
        <ele>336</ele>
        <time>2022-07-15T09:38:56.000Z</time>
      </trkpt>
      <trkpt lat="49.85492" lon="4.81982">
        <ele>336</ele>
        <time>2022-07-15T09:38:57.000Z</time>
      </trkpt>
      <trkpt lat="49.85489" lon="4.81983">
        <ele>336</ele>
        <time>2022-07-15T09:38:58.000Z</time>
      </trkpt>
      <trkpt lat="49.85487" lon="4.81983">
        <ele>336</ele>
        <time>2022-07-15T09:38:59.000Z</time>
      </trkpt>
      <trkpt lat="49.85484" lon="4.81982">
        <ele>336</ele>
        <time>2022-07-15T09:39:00.000Z</time>
      </trkpt>
      <trkpt lat="49.85481" lon="4.81983">
        <ele>336</ele>
        <time>2022-07-15T09:39:01.000Z</time>
      </trkpt>
      <trkpt lat="49.85479" lon="4.81983">
        <ele>336</ele>
        <time>2022-07-15T09:39:02.000Z</time>
      </trkpt>
      <trkpt lat="49.85476" lon="4.81983">
        <ele>337</ele>
        <time>2022-07-15T09:39:03.000Z</time>
      </trkpt>
      <trkpt lat="49.85474" lon="4.81983">
        <ele>337</ele>
        <time>2022-07-15T09:39:04.000Z</time>
      </trkpt>
      <trkpt lat="49.85472" lon="4.81985">
        <ele>337</ele>
        <time>2022-07-15T09:39:05.000Z</time>
      </trkpt>
      <trkpt lat="49.85469" lon="4.81987">
        <ele>337</ele>
        <time>2022-07-15T09:39:06.000Z</time>
      </trkpt>
      <trkpt lat="49.85467" lon="4.81988">
        <ele>337</ele>
        <time>2022-07-15T09:39:07.000Z</time>
      </trkpt>
      <trkpt lat="49.85465" lon="4.8199">
        <ele>337</ele>
        <time>2022-07-15T09:39:08.000Z</time>
      </trkpt>
      <trkpt lat="49.85464" lon="4.81992">
        <ele>337</ele>
        <time>2022-07-15T09:39:09.000Z</time>
      </trkpt>
      <trkpt lat="49.85462" lon="4.81993">
        <ele>338</ele>
        <time>2022-07-15T09:39:10.000Z</time>
      </trkpt>
      <trkpt lat="49.8546" lon="4.81996">
        <ele>338</ele>
        <time>2022-07-15T09:39:11.000Z</time>
      </trkpt>
      <trkpt lat="49.85458" lon="4.81997">
        <ele>338</ele>
        <time>2022-07-15T09:39:12.000Z</time>
      </trkpt>
      <trkpt lat="49.85456" lon="4.82">
        <ele>338</ele>
        <time>2022-07-15T09:39:13.000Z</time>
      </trkpt>
      <trkpt lat="49.85454" lon="4.82003">
        <ele>338</ele>
        <time>2022-07-15T09:39:14.000Z</time>
      </trkpt>
      <trkpt lat="49.85453" lon="4.82006">
        <ele>339</ele>
        <time>2022-07-15T09:39:15.000Z</time>
      </trkpt>
      <trkpt lat="49.85451" lon="4.82009">
        <ele>339</ele>
        <time>2022-07-15T09:39:16.000Z</time>
      </trkpt>
      <trkpt lat="49.85448" lon="4.82012">
        <ele>339</ele>
        <time>2022-07-15T09:39:17.000Z</time>
      </trkpt>
      <trkpt lat="49.85446" lon="4.82015">
        <ele>339</ele>
        <time>2022-07-15T09:39:18.000Z</time>
      </trkpt>
      <trkpt lat="49.85444" lon="4.82018">
        <ele>339</ele>
        <time>2022-07-15T09:39:19.000Z</time>
      </trkpt>
      <trkpt lat="49.85442" lon="4.82022">
        <ele>340</ele>
        <time>2022-07-15T09:39:20.000Z</time>
      </trkpt>
      <trkpt lat="49.85441" lon="4.82025">
        <ele>340</ele>
        <time>2022-07-15T09:39:21.000Z</time>
      </trkpt>
      <trkpt lat="49.85439" lon="4.82029">
        <ele>340</ele>
        <time>2022-07-15T09:39:22.000Z</time>
      </trkpt>
      <trkpt lat="49.85437" lon="4.82033">
        <ele>340</ele>
        <time>2022-07-15T09:39:23.000Z</time>
      </trkpt>
      <trkpt lat="49.85435" lon="4.82037">
        <ele>340</ele>
        <time>2022-07-15T09:39:24.000Z</time>
      </trkpt>
      <trkpt lat="49.85433" lon="4.8204">
        <ele>341</ele>
        <time>2022-07-15T09:39:25.000Z</time>
      </trkpt>
      <trkpt lat="49.85431" lon="4.82042">
        <ele>341</ele>
        <time>2022-07-15T09:39:26.000Z</time>
      </trkpt>
      <trkpt lat="49.85429" lon="4.82044">
        <ele>341</ele>
        <time>2022-07-15T09:39:27.000Z</time>
      </trkpt>
      <trkpt lat="49.85427" lon="4.82046">
        <ele>341</ele>
        <time>2022-07-15T09:39:28.000Z</time>
      </trkpt>
      <trkpt lat="49.85425" lon="4.82048">
        <ele>342</ele>
        <time>2022-07-15T09:39:29.000Z</time>
      </trkpt>
      <trkpt lat="49.85424" lon="4.8205">
        <ele>342</ele>
        <time>2022-07-15T09:39:30.000Z</time>
      </trkpt>
      <trkpt lat="49.85422" lon="4.82052">
        <ele>342</ele>
        <time>2022-07-15T09:39:31.000Z</time>
      </trkpt>
      <trkpt lat="49.8542" lon="4.82053">
        <ele>342</ele>
        <time>2022-07-15T09:39:32.000Z</time>
      </trkpt>
      <trkpt lat="49.85419" lon="4.82056">
        <ele>343</ele>
        <time>2022-07-15T09:39:33.000Z</time>
      </trkpt>
      <trkpt lat="49.85416" lon="4.82058">
        <ele>343</ele>
        <time>2022-07-15T09:39:34.000Z</time>
      </trkpt>
      <trkpt lat="49.85414" lon="4.82061">
        <ele>343</ele>
        <time>2022-07-15T09:39:35.000Z</time>
      </trkpt>
      <trkpt lat="49.85412" lon="4.82064">
        <ele>344</ele>
        <time>2022-07-15T09:39:36.000Z</time>
      </trkpt>
      <trkpt lat="49.8541" lon="4.82067">
        <ele>344</ele>
        <time>2022-07-15T09:39:37.000Z</time>
      </trkpt>
      <trkpt lat="49.85408" lon="4.8207">
        <ele>344</ele>
        <time>2022-07-15T09:39:38.000Z</time>
      </trkpt>
      <trkpt lat="49.85407" lon="4.82074">
        <ele>345</ele>
        <time>2022-07-15T09:39:39.000Z</time>
      </trkpt>
      <trkpt lat="49.85406" lon="4.82079">
        <ele>345</ele>
        <time>2022-07-15T09:39:40.000Z</time>
      </trkpt>
      <trkpt lat="49.85404" lon="4.82083">
        <ele>346</ele>
        <time>2022-07-15T09:39:41.000Z</time>
      </trkpt>
      <trkpt lat="49.85402" lon="4.82086">
        <ele>346</ele>
        <time>2022-07-15T09:39:42.000Z</time>
      </trkpt>
      <trkpt lat="49.85401" lon="4.82089">
        <ele>346</ele>
        <time>2022-07-15T09:39:43.000Z</time>
      </trkpt>
      <trkpt lat="49.854" lon="4.82092">
        <ele>347</ele>
        <time>2022-07-15T09:39:44.000Z</time>
      </trkpt>
      <trkpt lat="49.85398" lon="4.82095">
        <ele>347</ele>
        <time>2022-07-15T09:39:45.000Z</time>
      </trkpt>
      <trkpt lat="49.85397" lon="4.82099">
        <ele>347</ele>
        <time>2022-07-15T09:39:46.000Z</time>
      </trkpt>
      <trkpt lat="49.85396" lon="4.82103">
        <ele>347</ele>
        <time>2022-07-15T09:39:47.000Z</time>
      </trkpt>
      <trkpt lat="49.85395" lon="4.82107">
        <ele>348</ele>
        <time>2022-07-15T09:39:48.000Z</time>
      </trkpt>
      <trkpt lat="49.85393" lon="4.82111">
        <ele>348</ele>
        <time>2022-07-15T09:39:49.000Z</time>
      </trkpt>
      <trkpt lat="49.85392" lon="4.82114">
        <ele>348</ele>
        <time>2022-07-15T09:39:50.000Z</time>
      </trkpt>
      <trkpt lat="49.85391" lon="4.82117">
        <ele>349</ele>
        <time>2022-07-15T09:39:51.000Z</time>
      </trkpt>
      <trkpt lat="49.85389" lon="4.8212">
        <ele>349</ele>
        <time>2022-07-15T09:39:52.000Z</time>
      </trkpt>
      <trkpt lat="49.85388" lon="4.82122">
        <ele>349</ele>
        <time>2022-07-15T09:39:53.000Z</time>
      </trkpt>
      <trkpt lat="49.85387" lon="4.82125">
        <ele>349</ele>
        <time>2022-07-15T09:39:54.000Z</time>
      </trkpt>
      <trkpt lat="49.85386" lon="4.82129">
        <ele>350</ele>
        <time>2022-07-15T09:39:55.000Z</time>
      </trkpt>
      <trkpt lat="49.85385" lon="4.82132">
        <ele>350</ele>
        <time>2022-07-15T09:39:56.000Z</time>
      </trkpt>
      <trkpt lat="49.85384" lon="4.82134">
        <ele>350</ele>
        <time>2022-07-15T09:39:57.000Z</time>
      </trkpt>
      <trkpt lat="49.85383" lon="4.82136">
        <ele>350</ele>
        <time>2022-07-15T09:39:58.000Z</time>
      </trkpt>
      <trkpt lat="49.85382" lon="4.8214">
        <ele>350</ele>
        <time>2022-07-15T09:39:59.000Z</time>
      </trkpt>
      <trkpt lat="49.8538" lon="4.82144">
        <ele>350</ele>
        <time>2022-07-15T09:40:00.000Z</time>
      </trkpt>
      <trkpt lat="49.85379" lon="4.82148">
        <ele>351</ele>
        <time>2022-07-15T09:40:01.000Z</time>
      </trkpt>
      <trkpt lat="49.85376" lon="4.82152">
        <ele>351</ele>
        <time>2022-07-15T09:40:02.000Z</time>
      </trkpt>
      <trkpt lat="49.85375" lon="4.82157">
        <ele>351</ele>
        <time>2022-07-15T09:40:03.000Z</time>
      </trkpt>
      <trkpt lat="49.85373" lon="4.82162">
        <ele>351</ele>
        <time>2022-07-15T09:40:04.000Z</time>
      </trkpt>
      <trkpt lat="49.85372" lon="4.82166">
        <ele>351</ele>
        <time>2022-07-15T09:40:05.000Z</time>
      </trkpt>
      <trkpt lat="49.8537" lon="4.8217">
        <ele>352</ele>
        <time>2022-07-15T09:40:06.000Z</time>
      </trkpt>
      <trkpt lat="49.85369" lon="4.82174">
        <ele>352</ele>
        <time>2022-07-15T09:40:07.000Z</time>
      </trkpt>
      <trkpt lat="49.85368" lon="4.82178">
        <ele>352</ele>
        <time>2022-07-15T09:40:08.000Z</time>
      </trkpt>
      <trkpt lat="49.85366" lon="4.82183">
        <ele>352</ele>
        <time>2022-07-15T09:40:09.000Z</time>
      </trkpt>
      <trkpt lat="49.85365" lon="4.82187">
        <ele>353</ele>
        <time>2022-07-15T09:40:10.000Z</time>
      </trkpt>
      <trkpt lat="49.85363" lon="4.82191">
        <ele>353</ele>
        <time>2022-07-15T09:40:11.000Z</time>
      </trkpt>
      <trkpt lat="49.85362" lon="4.82194">
        <ele>353</ele>
        <time>2022-07-15T09:40:12.000Z</time>
      </trkpt>
      <trkpt lat="49.8536" lon="4.82199">
        <ele>353</ele>
        <time>2022-07-15T09:40:13.000Z</time>
      </trkpt>
      <trkpt lat="49.85358" lon="4.82203">
        <ele>353</ele>
        <time>2022-07-15T09:40:14.000Z</time>
      </trkpt>
      <trkpt lat="49.85357" lon="4.82207">
        <ele>354</ele>
        <time>2022-07-15T09:40:15.000Z</time>
      </trkpt>
      <trkpt lat="49.85356" lon="4.82211">
        <ele>354</ele>
        <time>2022-07-15T09:40:16.000Z</time>
      </trkpt>
      <trkpt lat="49.85354" lon="4.82216">
        <ele>354</ele>
        <time>2022-07-15T09:40:17.000Z</time>
      </trkpt>
      <trkpt lat="49.85352" lon="4.82219">
        <ele>354</ele>
        <time>2022-07-15T09:40:18.000Z</time>
      </trkpt>
      <trkpt lat="49.8535" lon="4.82221">
        <ele>354</ele>
        <time>2022-07-15T09:40:19.000Z</time>
      </trkpt>
      <trkpt lat="49.85349" lon="4.82225">
        <ele>355</ele>
        <time>2022-07-15T09:40:20.000Z</time>
      </trkpt>
      <trkpt lat="49.85347" lon="4.82228">
        <ele>355</ele>
        <time>2022-07-15T09:40:21.000Z</time>
      </trkpt>
      <trkpt lat="49.85346" lon="4.82232">
        <ele>355</ele>
        <time>2022-07-15T09:40:22.000Z</time>
      </trkpt>
      <trkpt lat="49.85344" lon="4.82236">
        <ele>355</ele>
        <time>2022-07-15T09:40:23.000Z</time>
      </trkpt>
      <trkpt lat="49.85343" lon="4.82241">
        <ele>355</ele>
        <time>2022-07-15T09:40:24.000Z</time>
      </trkpt>
      <trkpt lat="49.85342" lon="4.82246">
        <ele>355</ele>
        <time>2022-07-15T09:40:25.000Z</time>
      </trkpt>
      <trkpt lat="49.8534" lon="4.8225">
        <ele>356</ele>
        <time>2022-07-15T09:40:26.000Z</time>
      </trkpt>
      <trkpt lat="49.85339" lon="4.82254">
        <ele>356</ele>
        <time>2022-07-15T09:40:27.000Z</time>
      </trkpt>
      <trkpt lat="49.85337" lon="4.82259">
        <ele>356</ele>
        <time>2022-07-15T09:40:28.000Z</time>
      </trkpt>
      <trkpt lat="49.85336" lon="4.82263">
        <ele>356</ele>
        <time>2022-07-15T09:40:29.000Z</time>
      </trkpt>
      <trkpt lat="49.85334" lon="4.82267">
        <ele>356</ele>
        <time>2022-07-15T09:40:30.000Z</time>
      </trkpt>
      <trkpt lat="49.85332" lon="4.82271">
        <ele>356</ele>
        <time>2022-07-15T09:40:31.000Z</time>
      </trkpt>
      <trkpt lat="49.85331" lon="4.82273">
        <ele>356</ele>
        <time>2022-07-15T09:40:32.000Z</time>
      </trkpt>
      <trkpt lat="49.85331" lon="4.82276">
        <ele>356</ele>
        <time>2022-07-15T09:40:33.000Z</time>
      </trkpt>
      <trkpt lat="49.8533" lon="4.82278">
        <ele>356</ele>
        <time>2022-07-15T09:40:34.000Z</time>
      </trkpt>
      <trkpt lat="49.85329" lon="4.82281">
        <ele>356</ele>
        <time>2022-07-15T09:40:35.000Z</time>
      </trkpt>
      <trkpt lat="49.85328" lon="4.82284">
        <ele>356</ele>
        <time>2022-07-15T09:40:36.000Z</time>
      </trkpt>
      <trkpt lat="49.85326" lon="4.82287">
        <ele>356</ele>
        <time>2022-07-15T09:40:37.000Z</time>
      </trkpt>
      <trkpt lat="49.85325" lon="4.8229">
        <ele>356</ele>
        <time>2022-07-15T09:40:38.000Z</time>
      </trkpt>
      <trkpt lat="49.85324" lon="4.82294">
        <ele>356</ele>
        <time>2022-07-15T09:40:39.000Z</time>
      </trkpt>
      <trkpt lat="49.85323" lon="4.82298">
        <ele>356</ele>
        <time>2022-07-15T09:40:40.000Z</time>
      </trkpt>
      <trkpt lat="49.85321" lon="4.82302">
        <ele>356</ele>
        <time>2022-07-15T09:40:41.000Z</time>
      </trkpt>
      <trkpt lat="49.8532" lon="4.82307">
        <ele>356</ele>
        <time>2022-07-15T09:40:42.000Z</time>
      </trkpt>
      <trkpt lat="49.85319" lon="4.82311">
        <ele>356</ele>
        <time>2022-07-15T09:40:43.000Z</time>
      </trkpt>
      <trkpt lat="49.85318" lon="4.82315">
        <ele>357</ele>
        <time>2022-07-15T09:40:44.000Z</time>
      </trkpt>
      <trkpt lat="49.85316" lon="4.82319">
        <ele>357</ele>
        <time>2022-07-15T09:40:45.000Z</time>
      </trkpt>
      <trkpt lat="49.85314" lon="4.82323">
        <ele>357</ele>
        <time>2022-07-15T09:40:46.000Z</time>
      </trkpt>
      <trkpt lat="49.85312" lon="4.82328">
        <ele>357</ele>
        <time>2022-07-15T09:40:47.000Z</time>
      </trkpt>
      <trkpt lat="49.8531" lon="4.82332">
        <ele>357</ele>
        <time>2022-07-15T09:40:48.000Z</time>
      </trkpt>
      <trkpt lat="49.85309" lon="4.82336">
        <ele>357</ele>
        <time>2022-07-15T09:40:49.000Z</time>
      </trkpt>
      <trkpt lat="49.85307" lon="4.82339">
        <ele>357</ele>
        <time>2022-07-15T09:40:50.000Z</time>
      </trkpt>
      <trkpt lat="49.85305" lon="4.82341">
        <ele>357</ele>
        <time>2022-07-15T09:40:51.000Z</time>
      </trkpt>
      <trkpt lat="49.85304" lon="4.82344">
        <ele>357</ele>
        <time>2022-07-15T09:40:52.000Z</time>
      </trkpt>
      <trkpt lat="49.85303" lon="4.82346">
        <ele>357</ele>
        <time>2022-07-15T09:40:53.000Z</time>
      </trkpt>
      <trkpt lat="49.85301" lon="4.82348">
        <ele>357</ele>
        <time>2022-07-15T09:40:54.000Z</time>
      </trkpt>
      <trkpt lat="49.853" lon="4.8235">
        <ele>357</ele>
        <time>2022-07-15T09:40:55.000Z</time>
      </trkpt>
      <trkpt lat="49.85298" lon="4.82353">
        <ele>357</ele>
        <time>2022-07-15T09:40:56.000Z</time>
      </trkpt>
      <trkpt lat="49.85297" lon="4.82355">
        <ele>358</ele>
        <time>2022-07-15T09:40:57.000Z</time>
      </trkpt>
      <trkpt lat="49.85295" lon="4.82356">
        <ele>358</ele>
        <time>2022-07-15T09:40:58.000Z</time>
      </trkpt>
      <trkpt lat="49.85294" lon="4.82358">
        <ele>358</ele>
        <time>2022-07-15T09:40:59.000Z</time>
      </trkpt>
      <trkpt lat="49.85292" lon="4.82359">
        <ele>358</ele>
        <time>2022-07-15T09:41:00.000Z</time>
      </trkpt>
      <trkpt lat="49.8529" lon="4.82361">
        <ele>358</ele>
        <time>2022-07-15T09:41:01.000Z</time>
      </trkpt>
      <trkpt lat="49.85288" lon="4.82363">
        <ele>358</ele>
        <time>2022-07-15T09:41:02.000Z</time>
      </trkpt>
      <trkpt lat="49.85285" lon="4.82364">
        <ele>358</ele>
        <time>2022-07-15T09:41:03.000Z</time>
      </trkpt>
      <trkpt lat="49.85283" lon="4.82366">
        <ele>358</ele>
        <time>2022-07-15T09:41:04.000Z</time>
      </trkpt>
      <trkpt lat="49.85281" lon="4.82369">
        <ele>358</ele>
        <time>2022-07-15T09:41:05.000Z</time>
      </trkpt>
      <trkpt lat="49.85279" lon="4.82371">
        <ele>358</ele>
        <time>2022-07-15T09:41:06.000Z</time>
      </trkpt>
      <trkpt lat="49.85277" lon="4.82373">
        <ele>358</ele>
        <time>2022-07-15T09:41:07.000Z</time>
      </trkpt>
      <trkpt lat="49.85275" lon="4.82374">
        <ele>358</ele>
        <time>2022-07-15T09:41:08.000Z</time>
      </trkpt>
      <trkpt lat="49.85273" lon="4.82376">
        <ele>358</ele>
        <time>2022-07-15T09:41:09.000Z</time>
      </trkpt>
      <trkpt lat="49.85271" lon="4.82378">
        <ele>358</ele>
        <time>2022-07-15T09:41:10.000Z</time>
      </trkpt>
      <trkpt lat="49.85269" lon="4.82379">
        <ele>359</ele>
        <time>2022-07-15T09:41:11.000Z</time>
      </trkpt>
      <trkpt lat="49.85268" lon="4.82379">
        <ele>359</ele>
        <time>2022-07-15T09:41:12.000Z</time>
      </trkpt>
      <trkpt lat="49.85266" lon="4.82381">
        <ele>359</ele>
        <time>2022-07-15T09:41:13.000Z</time>
      </trkpt>
      <trkpt lat="49.85264" lon="4.82382">
        <ele>359</ele>
        <time>2022-07-15T09:41:14.000Z</time>
      </trkpt>
      <trkpt lat="49.85263" lon="4.82383">
        <ele>359</ele>
        <time>2022-07-15T09:41:15.000Z</time>
      </trkpt>
      <trkpt lat="49.85261" lon="4.82383">
        <ele>359</ele>
        <time>2022-07-15T09:41:16.000Z</time>
      </trkpt>
      <trkpt lat="49.85259" lon="4.82384">
        <ele>359</ele>
        <time>2022-07-15T09:41:17.000Z</time>
      </trkpt>
      <trkpt lat="49.85257" lon="4.82385">
        <ele>359</ele>
        <time>2022-07-15T09:41:18.000Z</time>
      </trkpt>
      <trkpt lat="49.85255" lon="4.82386">
        <ele>360</ele>
        <time>2022-07-15T09:41:19.000Z</time>
      </trkpt>
      <trkpt lat="49.85253" lon="4.82386">
        <ele>360</ele>
        <time>2022-07-15T09:41:20.000Z</time>
      </trkpt>
      <trkpt lat="49.85251" lon="4.82386">
        <ele>360</ele>
        <time>2022-07-15T09:41:21.000Z</time>
      </trkpt>
      <trkpt lat="49.85249" lon="4.82387">
        <ele>360</ele>
        <time>2022-07-15T09:41:22.000Z</time>
      </trkpt>
      <trkpt lat="49.85248" lon="4.82389">
        <ele>360</ele>
        <time>2022-07-15T09:41:23.000Z</time>
      </trkpt>
      <trkpt lat="49.85245" lon="4.8239">
        <ele>360</ele>
        <time>2022-07-15T09:41:24.000Z</time>
      </trkpt>
      <trkpt lat="49.85244" lon="4.82391">
        <ele>361</ele>
        <time>2022-07-15T09:41:25.000Z</time>
      </trkpt>
      <trkpt lat="49.85242" lon="4.82393">
        <ele>361</ele>
        <time>2022-07-15T09:41:26.000Z</time>
      </trkpt>
      <trkpt lat="49.8524" lon="4.82395">
        <ele>361</ele>
        <time>2022-07-15T09:41:27.000Z</time>
      </trkpt>
      <trkpt lat="49.85239" lon="4.82396">
        <ele>361</ele>
        <time>2022-07-15T09:41:28.000Z</time>
      </trkpt>
      <trkpt lat="49.85238" lon="4.82397">
        <ele>361</ele>
        <time>2022-07-15T09:41:29.000Z</time>
      </trkpt>
      <trkpt lat="49.85237" lon="4.82398">
        <ele>361</ele>
        <time>2022-07-15T09:41:30.000Z</time>
      </trkpt>
      <trkpt lat="49.85237" lon="4.824">
        <ele>361</ele>
        <time>2022-07-15T09:41:31.000Z</time>
      </trkpt>
      <trkpt lat="49.85236" lon="4.82402">
        <ele>361</ele>
        <time>2022-07-15T09:41:32.000Z</time>
      </trkpt>
      <trkpt lat="49.85235" lon="4.82404">
        <ele>361</ele>
        <time>2022-07-15T09:41:33.000Z</time>
      </trkpt>
      <trkpt lat="49.85234" lon="4.82407">
        <ele>361</ele>
        <time>2022-07-15T09:41:34.000Z</time>
      </trkpt>
      <trkpt lat="49.85233" lon="4.8241">
        <ele>361</ele>
        <time>2022-07-15T09:41:35.000Z</time>
      </trkpt>
      <trkpt lat="49.85232" lon="4.82413">
        <ele>361</ele>
        <time>2022-07-15T09:41:36.000Z</time>
      </trkpt>
      <trkpt lat="49.8523" lon="4.82416">
        <ele>361</ele>
        <time>2022-07-15T09:41:37.000Z</time>
      </trkpt>
      <trkpt lat="49.85229" lon="4.82419">
        <ele>361</ele>
        <time>2022-07-15T09:41:38.000Z</time>
      </trkpt>
      <trkpt lat="49.85228" lon="4.82422">
        <ele>361</ele>
        <time>2022-07-15T09:41:39.000Z</time>
      </trkpt>
      <trkpt lat="49.85227" lon="4.82426">
        <ele>361</ele>
        <time>2022-07-15T09:41:40.000Z</time>
      </trkpt>
      <trkpt lat="49.85226" lon="4.82429">
        <ele>361</ele>
        <time>2022-07-15T09:41:41.000Z</time>
      </trkpt>
      <trkpt lat="49.85225" lon="4.82433">
        <ele>361</ele>
        <time>2022-07-15T09:41:42.000Z</time>
      </trkpt>
      <trkpt lat="49.85224" lon="4.82436">
        <ele>361</ele>
        <time>2022-07-15T09:41:43.000Z</time>
      </trkpt>
      <trkpt lat="49.85223" lon="4.8244">
        <ele>361</ele>
        <time>2022-07-15T09:41:44.000Z</time>
      </trkpt>
      <trkpt lat="49.85223" lon="4.82444">
        <ele>361</ele>
        <time>2022-07-15T09:41:45.000Z</time>
      </trkpt>
      <trkpt lat="49.85222" lon="4.82448">
        <ele>361</ele>
        <time>2022-07-15T09:41:46.000Z</time>
      </trkpt>
      <trkpt lat="49.85221" lon="4.82451">
        <ele>361</ele>
        <time>2022-07-15T09:41:47.000Z</time>
      </trkpt>
      <trkpt lat="49.8522" lon="4.82455">
        <ele>361</ele>
        <time>2022-07-15T09:41:48.000Z</time>
      </trkpt>
      <trkpt lat="49.8522" lon="4.82458">
        <ele>362</ele>
        <time>2022-07-15T09:41:49.000Z</time>
      </trkpt>
      <trkpt lat="49.85219" lon="4.82462">
        <ele>362</ele>
        <time>2022-07-15T09:41:50.000Z</time>
      </trkpt>
      <trkpt lat="49.85218" lon="4.82465">
        <ele>362</ele>
        <time>2022-07-15T09:41:51.000Z</time>
      </trkpt>
      <trkpt lat="49.85217" lon="4.82468">
        <ele>362</ele>
        <time>2022-07-15T09:41:52.000Z</time>
      </trkpt>
      <trkpt lat="49.85217" lon="4.82471">
        <ele>362</ele>
        <time>2022-07-15T09:41:53.000Z</time>
      </trkpt>
      <trkpt lat="49.85216" lon="4.82474">
        <ele>362</ele>
        <time>2022-07-15T09:41:54.000Z</time>
      </trkpt>
      <trkpt lat="49.85215" lon="4.82478">
        <ele>363</ele>
        <time>2022-07-15T09:41:55.000Z</time>
      </trkpt>
      <trkpt lat="49.85214" lon="4.82481">
        <ele>363</ele>
        <time>2022-07-15T09:41:56.000Z</time>
      </trkpt>
      <trkpt lat="49.85214" lon="4.82485">
        <ele>363</ele>
        <time>2022-07-15T09:41:57.000Z</time>
      </trkpt>
      <trkpt lat="49.85213" lon="4.82488">
        <ele>363</ele>
        <time>2022-07-15T09:41:58.000Z</time>
      </trkpt>
      <trkpt lat="49.85212" lon="4.82491">
        <ele>364</ele>
        <time>2022-07-15T09:41:59.000Z</time>
      </trkpt>
      <trkpt lat="49.85211" lon="4.82494">
        <ele>364</ele>
        <time>2022-07-15T09:42:00.000Z</time>
      </trkpt>
      <trkpt lat="49.85211" lon="4.82496">
        <ele>364</ele>
        <time>2022-07-15T09:42:01.000Z</time>
      </trkpt>
      <trkpt lat="49.85209" lon="4.82499">
        <ele>364</ele>
        <time>2022-07-15T09:42:02.000Z</time>
      </trkpt>
      <trkpt lat="49.85208" lon="4.82501">
        <ele>364</ele>
        <time>2022-07-15T09:42:03.000Z</time>
      </trkpt>
      <trkpt lat="49.85207" lon="4.82504">
        <ele>364</ele>
        <time>2022-07-15T09:42:04.000Z</time>
      </trkpt>
      <trkpt lat="49.85207" lon="4.82506">
        <ele>365</ele>
        <time>2022-07-15T09:42:05.000Z</time>
      </trkpt>
      <trkpt lat="49.85206" lon="4.82508">
        <ele>365</ele>
        <time>2022-07-15T09:42:06.000Z</time>
      </trkpt>
      <trkpt lat="49.85204" lon="4.82511">
        <ele>365</ele>
        <time>2022-07-15T09:42:07.000Z</time>
      </trkpt>
      <trkpt lat="49.85203" lon="4.82513">
        <ele>365</ele>
        <time>2022-07-15T09:42:08.000Z</time>
      </trkpt>
      <trkpt lat="49.85202" lon="4.82515">
        <ele>365</ele>
        <time>2022-07-15T09:42:09.000Z</time>
      </trkpt>
      <trkpt lat="49.85201" lon="4.82517">
        <ele>365</ele>
        <time>2022-07-15T09:42:10.000Z</time>
      </trkpt>
      <trkpt lat="49.852" lon="4.82519">
        <ele>365</ele>
        <time>2022-07-15T09:42:11.000Z</time>
      </trkpt>
      <trkpt lat="49.85198" lon="4.82521">
        <ele>365</ele>
        <time>2022-07-15T09:42:12.000Z</time>
      </trkpt>
      <trkpt lat="49.85197" lon="4.82523">
        <ele>366</ele>
        <time>2022-07-15T09:42:13.000Z</time>
      </trkpt>
      <trkpt lat="49.85196" lon="4.82524">
        <ele>366</ele>
        <time>2022-07-15T09:42:14.000Z</time>
      </trkpt>
      <trkpt lat="49.85195" lon="4.82526">
        <ele>366</ele>
        <time>2022-07-15T09:42:15.000Z</time>
      </trkpt>
      <trkpt lat="49.85194" lon="4.82528">
        <ele>366</ele>
        <time>2022-07-15T09:42:16.000Z</time>
      </trkpt>
      <trkpt lat="49.85193" lon="4.8253">
        <ele>366</ele>
        <time>2022-07-15T09:42:17.000Z</time>
      </trkpt>
      <trkpt lat="49.85192" lon="4.82532">
        <ele>367</ele>
        <time>2022-07-15T09:42:18.000Z</time>
      </trkpt>
      <trkpt lat="49.8519" lon="4.82533">
        <ele>367</ele>
        <time>2022-07-15T09:42:19.000Z</time>
      </trkpt>
      <trkpt lat="49.85189" lon="4.82535">
        <ele>367</ele>
        <time>2022-07-15T09:42:20.000Z</time>
      </trkpt>
      <trkpt lat="49.85188" lon="4.82537">
        <ele>367</ele>
        <time>2022-07-15T09:42:21.000Z</time>
      </trkpt>
      <trkpt lat="49.85188" lon="4.82539">
        <ele>367</ele>
        <time>2022-07-15T09:42:22.000Z</time>
      </trkpt>
      <trkpt lat="49.85187" lon="4.8254">
        <ele>367</ele>
        <time>2022-07-15T09:42:23.000Z</time>
      </trkpt>
      <trkpt lat="49.85185" lon="4.82542">
        <ele>367</ele>
        <time>2022-07-15T09:42:24.000Z</time>
      </trkpt>
      <trkpt lat="49.85184" lon="4.82544">
        <ele>368</ele>
        <time>2022-07-15T09:42:25.000Z</time>
      </trkpt>
      <trkpt lat="49.85182" lon="4.82545">
        <ele>368</ele>
        <time>2022-07-15T09:42:26.000Z</time>
      </trkpt>
      <trkpt lat="49.85181" lon="4.82547">
        <ele>368</ele>
        <time>2022-07-15T09:42:27.000Z</time>
      </trkpt>
      <trkpt lat="49.8518" lon="4.82549">
        <ele>368</ele>
        <time>2022-07-15T09:42:28.000Z</time>
      </trkpt>
      <trkpt lat="49.85179" lon="4.8255">
        <ele>368</ele>
        <time>2022-07-15T09:42:29.000Z</time>
      </trkpt>
      <trkpt lat="49.85178" lon="4.82553">
        <ele>369</ele>
        <time>2022-07-15T09:42:30.000Z</time>
      </trkpt>
      <trkpt lat="49.85177" lon="4.82554">
        <ele>369</ele>
        <time>2022-07-15T09:42:31.000Z</time>
      </trkpt>
      <trkpt lat="49.85176" lon="4.82556">
        <ele>369</ele>
        <time>2022-07-15T09:42:32.000Z</time>
      </trkpt>
      <trkpt lat="49.85174" lon="4.82558">
        <ele>369</ele>
        <time>2022-07-15T09:42:33.000Z</time>
      </trkpt>
      <trkpt lat="49.85173" lon="4.8256">
        <ele>369</ele>
        <time>2022-07-15T09:42:34.000Z</time>
      </trkpt>
      <trkpt lat="49.85171" lon="4.82563">
        <ele>369</ele>
        <time>2022-07-15T09:42:35.000Z</time>
      </trkpt>
      <trkpt lat="49.8517" lon="4.82565">
        <ele>370</ele>
        <time>2022-07-15T09:42:36.000Z</time>
      </trkpt>
      <trkpt lat="49.85169" lon="4.82567">
        <ele>370</ele>
        <time>2022-07-15T09:42:37.000Z</time>
      </trkpt>
      <trkpt lat="49.85168" lon="4.82569">
        <ele>370</ele>
        <time>2022-07-15T09:42:38.000Z</time>
      </trkpt>
      <trkpt lat="49.85167" lon="4.82571">
        <ele>370</ele>
        <time>2022-07-15T09:42:39.000Z</time>
      </trkpt>
      <trkpt lat="49.85166" lon="4.82574">
        <ele>370</ele>
        <time>2022-07-15T09:42:40.000Z</time>
      </trkpt>
      <trkpt lat="49.85165" lon="4.82576">
        <ele>370</ele>
        <time>2022-07-15T09:42:41.000Z</time>
      </trkpt>
      <trkpt lat="49.85164" lon="4.82579">
        <ele>370</ele>
        <time>2022-07-15T09:42:42.000Z</time>
      </trkpt>
      <trkpt lat="49.85162" lon="4.82581">
        <ele>371</ele>
        <time>2022-07-15T09:42:43.000Z</time>
      </trkpt>
      <trkpt lat="49.85161" lon="4.82583">
        <ele>371</ele>
        <time>2022-07-15T09:42:44.000Z</time>
      </trkpt>
      <trkpt lat="49.8516" lon="4.82585">
        <ele>371</ele>
        <time>2022-07-15T09:42:45.000Z</time>
      </trkpt>
      <trkpt lat="49.85159" lon="4.82587">
        <ele>372</ele>
        <time>2022-07-15T09:42:46.000Z</time>
      </trkpt>
      <trkpt lat="49.85157" lon="4.8259">
        <ele>372</ele>
        <time>2022-07-15T09:42:47.000Z</time>
      </trkpt>
      <trkpt lat="49.85156" lon="4.82592">
        <ele>372</ele>
        <time>2022-07-15T09:42:48.000Z</time>
      </trkpt>
      <trkpt lat="49.85155" lon="4.82594">
        <ele>372</ele>
        <time>2022-07-15T09:42:49.000Z</time>
      </trkpt>
      <trkpt lat="49.85154" lon="4.82596">
        <ele>373</ele>
        <time>2022-07-15T09:42:50.000Z</time>
      </trkpt>
      <trkpt lat="49.85153" lon="4.82599">
        <ele>373</ele>
        <time>2022-07-15T09:42:51.000Z</time>
      </trkpt>
      <trkpt lat="49.85151" lon="4.82601">
        <ele>373</ele>
        <time>2022-07-15T09:42:52.000Z</time>
      </trkpt>
      <trkpt lat="49.85149" lon="4.82604">
        <ele>374</ele>
        <time>2022-07-15T09:42:53.000Z</time>
      </trkpt>
      <trkpt lat="49.85148" lon="4.82606">
        <ele>374</ele>
        <time>2022-07-15T09:42:54.000Z</time>
      </trkpt>
      <trkpt lat="49.85147" lon="4.82609">
        <ele>374</ele>
        <time>2022-07-15T09:42:55.000Z</time>
      </trkpt>
      <trkpt lat="49.85146" lon="4.82611">
        <ele>374</ele>
        <time>2022-07-15T09:42:56.000Z</time>
      </trkpt>
      <trkpt lat="49.85144" lon="4.82615">
        <ele>375</ele>
        <time>2022-07-15T09:42:57.000Z</time>
      </trkpt>
      <trkpt lat="49.85142" lon="4.82617">
        <ele>375</ele>
        <time>2022-07-15T09:42:58.000Z</time>
      </trkpt>
      <trkpt lat="49.85141" lon="4.82621">
        <ele>375</ele>
        <time>2022-07-15T09:42:59.000Z</time>
      </trkpt>
      <trkpt lat="49.8514" lon="4.82623">
        <ele>375</ele>
        <time>2022-07-15T09:43:00.000Z</time>
      </trkpt>
      <trkpt lat="49.85138" lon="4.82626">
        <ele>375</ele>
        <time>2022-07-15T09:43:01.000Z</time>
      </trkpt>
      <trkpt lat="49.85137" lon="4.82629">
        <ele>376</ele>
        <time>2022-07-15T09:43:02.000Z</time>
      </trkpt>
      <trkpt lat="49.85135" lon="4.82631">
        <ele>376</ele>
        <time>2022-07-15T09:43:03.000Z</time>
      </trkpt>
      <trkpt lat="49.85134" lon="4.82634">
        <ele>376</ele>
        <time>2022-07-15T09:43:04.000Z</time>
      </trkpt>
      <trkpt lat="49.85132" lon="4.82637">
        <ele>376</ele>
        <time>2022-07-15T09:43:05.000Z</time>
      </trkpt>
      <trkpt lat="49.85131" lon="4.8264">
        <ele>376</ele>
        <time>2022-07-15T09:43:06.000Z</time>
      </trkpt>
      <trkpt lat="49.8513" lon="4.82643">
        <ele>377</ele>
        <time>2022-07-15T09:43:07.000Z</time>
      </trkpt>
      <trkpt lat="49.85129" lon="4.82646">
        <ele>377</ele>
        <time>2022-07-15T09:43:08.000Z</time>
      </trkpt>
      <trkpt lat="49.85128" lon="4.82649">
        <ele>377</ele>
        <time>2022-07-15T09:43:09.000Z</time>
      </trkpt>
      <trkpt lat="49.85126" lon="4.82653">
        <ele>377</ele>
        <time>2022-07-15T09:43:10.000Z</time>
      </trkpt>
      <trkpt lat="49.85125" lon="4.82656">
        <ele>377</ele>
        <time>2022-07-15T09:43:11.000Z</time>
      </trkpt>
      <trkpt lat="49.85123" lon="4.82659">
        <ele>378</ele>
        <time>2022-07-15T09:43:12.000Z</time>
      </trkpt>
      <trkpt lat="49.85121" lon="4.82662">
        <ele>378</ele>
        <time>2022-07-15T09:43:13.000Z</time>
      </trkpt>
      <trkpt lat="49.8512" lon="4.82665">
        <ele>378</ele>
        <time>2022-07-15T09:43:14.000Z</time>
      </trkpt>
      <trkpt lat="49.85119" lon="4.82668">
        <ele>378</ele>
        <time>2022-07-15T09:43:15.000Z</time>
      </trkpt>
      <trkpt lat="49.85117" lon="4.82671">
        <ele>378</ele>
        <time>2022-07-15T09:43:16.000Z</time>
      </trkpt>
      <trkpt lat="49.85115" lon="4.82672">
        <ele>378</ele>
        <time>2022-07-15T09:43:17.000Z</time>
      </trkpt>
      <trkpt lat="49.85113" lon="4.82675">
        <ele>379</ele>
        <time>2022-07-15T09:43:18.000Z</time>
      </trkpt>
      <trkpt lat="49.8511" lon="4.82677">
        <ele>379</ele>
        <time>2022-07-15T09:43:19.000Z</time>
      </trkpt>
      <trkpt lat="49.85108" lon="4.82681">
        <ele>379</ele>
        <time>2022-07-15T09:43:20.000Z</time>
      </trkpt>
      <trkpt lat="49.85106" lon="4.82684">
        <ele>379</ele>
        <time>2022-07-15T09:43:21.000Z</time>
      </trkpt>
      <trkpt lat="49.85104" lon="4.82688">
        <ele>379</ele>
        <time>2022-07-15T09:43:22.000Z</time>
      </trkpt>
      <trkpt lat="49.85103" lon="4.82693">
        <ele>379</ele>
        <time>2022-07-15T09:43:23.000Z</time>
      </trkpt>
      <trkpt lat="49.85102" lon="4.82698">
        <ele>379</ele>
        <time>2022-07-15T09:43:24.000Z</time>
      </trkpt>
      <trkpt lat="49.85101" lon="4.82703">
        <ele>379</ele>
        <time>2022-07-15T09:43:25.000Z</time>
      </trkpt>
      <trkpt lat="49.85101" lon="4.82709">
        <ele>379</ele>
        <time>2022-07-15T09:43:26.000Z</time>
      </trkpt>
      <trkpt lat="49.851" lon="4.82715">
        <ele>379</ele>
        <time>2022-07-15T09:43:27.000Z</time>
      </trkpt>
      <trkpt lat="49.851" lon="4.8272">
        <ele>378</ele>
        <time>2022-07-15T09:43:28.000Z</time>
      </trkpt>
      <trkpt lat="49.851" lon="4.82727">
        <ele>378</ele>
        <time>2022-07-15T09:43:29.000Z</time>
      </trkpt>
      <trkpt lat="49.85098" lon="4.82732">
        <ele>378</ele>
        <time>2022-07-15T09:43:30.000Z</time>
      </trkpt>
      <trkpt lat="49.85094" lon="4.82735">
        <ele>378</ele>
        <time>2022-07-15T09:43:31.000Z</time>
      </trkpt>
      <trkpt lat="49.85091" lon="4.82738">
        <ele>377</ele>
        <time>2022-07-15T09:43:32.000Z</time>
      </trkpt>
      <trkpt lat="49.85088" lon="4.82739">
        <ele>377</ele>
        <time>2022-07-15T09:43:33.000Z</time>
      </trkpt>
      <trkpt lat="49.85084" lon="4.8274">
        <ele>377</ele>
        <time>2022-07-15T09:43:34.000Z</time>
      </trkpt>
      <trkpt lat="49.85081" lon="4.82742">
        <ele>377</ele>
        <time>2022-07-15T09:43:35.000Z</time>
      </trkpt>
      <trkpt lat="49.85078" lon="4.82745">
        <ele>377</ele>
        <time>2022-07-15T09:43:36.000Z</time>
      </trkpt>
      <trkpt lat="49.85075" lon="4.82747">
        <ele>377</ele>
        <time>2022-07-15T09:43:37.000Z</time>
      </trkpt>
      <trkpt lat="49.85074" lon="4.82748">
        <ele>377</ele>
        <time>2022-07-15T09:43:38.000Z</time>
      </trkpt>
      <trkpt lat="49.85074" lon="4.82748">
        <ele>377</ele>
        <time>2022-07-15T09:43:39.000Z</time>
      </trkpt>
      <trkpt lat="49.85073" lon="4.82748">
        <ele>377</ele>
        <time>2022-07-15T09:43:40.000Z</time>
      </trkpt>
      <trkpt lat="49.85073" lon="4.82748">
        <ele>377</ele>
        <time>2022-07-15T09:43:41.000Z</time>
      </trkpt>
      <trkpt lat="49.85072" lon="4.82748">
        <ele>376</ele>
        <time>2022-07-15T09:43:42.000Z</time>
      </trkpt>
      <trkpt lat="49.85072" lon="4.82748">
        <ele>376</ele>
        <time>2022-07-15T09:43:43.000Z</time>
      </trkpt>
      <trkpt lat="49.85072" lon="4.82748">
        <ele>376</ele>
        <time>2022-07-15T09:43:44.000Z</time>
      </trkpt>
      <trkpt lat="49.85072" lon="4.82748">
        <ele>376</ele>
        <time>2022-07-15T09:43:45.000Z</time>
      </trkpt>
      <trkpt lat="49.85071" lon="4.82748">
        <ele>376</ele>
        <time>2022-07-15T09:43:46.000Z</time>
      </trkpt>
      <trkpt lat="49.85071" lon="4.82748">
        <ele>376</ele>
        <time>2022-07-15T09:43:47.000Z</time>
      </trkpt>
      <trkpt lat="49.85071" lon="4.82749">
        <ele>376</ele>
        <time>2022-07-15T09:43:48.000Z</time>
      </trkpt>
      <trkpt lat="49.85071" lon="4.82749">
        <ele>376</ele>
        <time>2022-07-15T09:43:49.000Z</time>
      </trkpt>
      <trkpt lat="49.85071" lon="4.82749">
        <ele>376</ele>
        <time>2022-07-15T09:43:50.000Z</time>
      </trkpt>
      <trkpt lat="49.85071" lon="4.82749">
        <ele>376</ele>
        <time>2022-07-15T09:43:51.000Z</time>
      </trkpt>
      <trkpt lat="49.85071" lon="4.82749">
        <ele>376</ele>
        <time>2022-07-15T09:43:52.000Z</time>
      </trkpt>
      <trkpt lat="49.8507" lon="4.82749">
        <ele>376</ele>
        <time>2022-07-15T09:43:53.000Z</time>
      </trkpt>
      <trkpt lat="49.8507" lon="4.82749">
        <ele>376</ele>
        <time>2022-07-15T09:43:54.000Z</time>
      </trkpt>
      <trkpt lat="49.8507" lon="4.82749">
        <ele>376</ele>
        <time>2022-07-15T09:43:55.000Z</time>
      </trkpt>
      <trkpt lat="49.8507" lon="4.82749">
        <ele>376</ele>
        <time>2022-07-15T09:43:56.000Z</time>
      </trkpt>
      <trkpt lat="49.8507" lon="4.82749">
        <ele>376</ele>
        <time>2022-07-15T09:43:57.000Z</time>
      </trkpt>
      <trkpt lat="49.8507" lon="4.82749">
        <ele>376</ele>
        <time>2022-07-15T09:43:58.000Z</time>
      </trkpt>
      <trkpt lat="49.8507" lon="4.82749">
        <ele>376</ele>
        <time>2022-07-15T09:43:59.000Z</time>
      </trkpt>
      <trkpt lat="49.8507" lon="4.82749">
        <ele>376</ele>
        <time>2022-07-15T09:44:00.000Z</time>
      </trkpt>
      <trkpt lat="49.8507" lon="4.82749">
        <ele>376</ele>
        <time>2022-07-15T09:44:01.000Z</time>
      </trkpt>
      <trkpt lat="49.8507" lon="4.82749">
        <ele>376</ele>
        <time>2022-07-15T09:44:02.000Z</time>
      </trkpt>
      <trkpt lat="49.8507" lon="4.82749">
        <ele>376</ele>
        <time>2022-07-15T09:44:03.000Z</time>
      </trkpt>
      <trkpt lat="49.8507" lon="4.82749">
        <ele>376</ele>
        <time>2022-07-15T09:44:04.000Z</time>
      </trkpt>
      <trkpt lat="49.8507" lon="4.82749">
        <ele>376</ele>
        <time>2022-07-15T09:44:05.000Z</time>
      </trkpt>
      <trkpt lat="49.8507" lon="4.82749">
        <ele>376</ele>
        <time>2022-07-15T09:44:06.000Z</time>
      </trkpt>
      <trkpt lat="49.8507" lon="4.82749">
        <ele>376</ele>
        <time>2022-07-15T09:44:07.000Z</time>
      </trkpt>
      <trkpt lat="49.8507" lon="4.82749">
        <ele>376</ele>
        <time>2022-07-15T09:44:08.000Z</time>
      </trkpt>
      <trkpt lat="49.8507" lon="4.82748">
        <ele>376</ele>
        <time>2022-07-15T09:44:09.000Z</time>
      </trkpt>
      <trkpt lat="49.8507" lon="4.82748">
        <ele>376</ele>
        <time>2022-07-15T09:44:10.000Z</time>
      </trkpt>
      <trkpt lat="49.8507" lon="4.82748">
        <ele>376</ele>
        <time>2022-07-15T09:44:11.000Z</time>
      </trkpt>
      <trkpt lat="49.8507" lon="4.82748">
        <ele>376</ele>
        <time>2022-07-15T09:44:12.000Z</time>
      </trkpt>
      <trkpt lat="49.8507" lon="4.82748">
        <ele>376</ele>
        <time>2022-07-15T09:44:13.000Z</time>
      </trkpt>
      <trkpt lat="49.8507" lon="4.82748">
        <ele>376</ele>
        <time>2022-07-15T09:44:14.000Z</time>
      </trkpt>
      <trkpt lat="49.8507" lon="4.82748">
        <ele>376</ele>
        <time>2022-07-15T09:44:15.000Z</time>
      </trkpt>
      <trkpt lat="49.8507" lon="4.82748">
        <ele>376</ele>
        <time>2022-07-15T09:44:16.000Z</time>
      </trkpt>
      <trkpt lat="49.85069" lon="4.82748">
        <ele>376</ele>
        <time>2022-07-15T09:44:17.000Z</time>
      </trkpt>
      <trkpt lat="49.85069" lon="4.82748">
        <ele>376</ele>
        <time>2022-07-15T09:44:18.000Z</time>
      </trkpt>
      <trkpt lat="49.85068" lon="4.82748">
        <ele>376</ele>
        <time>2022-07-15T09:44:19.000Z</time>
      </trkpt>
      <trkpt lat="49.85067" lon="4.82749">
        <ele>376</ele>
        <time>2022-07-15T09:44:20.000Z</time>
      </trkpt>
      <trkpt lat="49.85065" lon="4.8275">
        <ele>376</ele>
        <time>2022-07-15T09:44:21.000Z</time>
      </trkpt>
      <trkpt lat="49.85064" lon="4.82752">
        <ele>376</ele>
        <time>2022-07-15T09:44:22.000Z</time>
      </trkpt>
      <trkpt lat="49.85063" lon="4.82753">
        <ele>376</ele>
        <time>2022-07-15T09:44:23.000Z</time>
      </trkpt>
      <trkpt lat="49.85062" lon="4.82755">
        <ele>376</ele>
        <time>2022-07-15T09:44:24.000Z</time>
      </trkpt>
      <trkpt lat="49.85063" lon="4.82757">
        <ele>376</ele>
        <time>2022-07-15T09:44:25.000Z</time>
      </trkpt>
      <trkpt lat="49.85063" lon="4.8276">
        <ele>376</ele>
        <time>2022-07-15T09:44:26.000Z</time>
      </trkpt>
      <trkpt lat="49.85062" lon="4.82763">
        <ele>376</ele>
        <time>2022-07-15T09:44:27.000Z</time>
      </trkpt>
      <trkpt lat="49.8506" lon="4.82765">
        <ele>376</ele>
        <time>2022-07-15T09:44:28.000Z</time>
      </trkpt>
      <trkpt lat="49.85059" lon="4.82768">
        <ele>376</ele>
        <time>2022-07-15T09:44:29.000Z</time>
      </trkpt>
      <trkpt lat="49.85057" lon="4.82771">
        <ele>376</ele>
        <time>2022-07-15T09:44:30.000Z</time>
      </trkpt>
      <trkpt lat="49.85054" lon="4.82775">
        <ele>376</ele>
        <time>2022-07-15T09:44:31.000Z</time>
      </trkpt>
      <trkpt lat="49.85053" lon="4.82779">
        <ele>376</ele>
        <time>2022-07-15T09:44:32.000Z</time>
      </trkpt>
      <trkpt lat="49.85051" lon="4.82784">
        <ele>376</ele>
        <time>2022-07-15T09:44:33.000Z</time>
      </trkpt>
      <trkpt lat="49.85049" lon="4.82789">
        <ele>377</ele>
        <time>2022-07-15T09:44:34.000Z</time>
      </trkpt>
      <trkpt lat="49.85046" lon="4.82792">
        <ele>377</ele>
        <time>2022-07-15T09:44:35.000Z</time>
      </trkpt>
      <trkpt lat="49.85045" lon="4.82793">
        <ele>377</ele>
        <time>2022-07-15T09:44:36.000Z</time>
      </trkpt>
      <trkpt lat="49.85045" lon="4.82793">
        <ele>377</ele>
        <time>2022-07-15T09:44:37.000Z</time>
      </trkpt>
      <trkpt lat="49.85044" lon="4.82794">
        <ele>377</ele>
        <time>2022-07-15T09:44:38.000Z</time>
      </trkpt>
      <trkpt lat="49.85043" lon="4.82795">
        <ele>377</ele>
        <time>2022-07-15T09:44:39.000Z</time>
      </trkpt>
      <trkpt lat="49.85041" lon="4.82796">
        <ele>377</ele>
        <time>2022-07-15T09:44:40.000Z</time>
      </trkpt>
      <trkpt lat="49.85039" lon="4.82798">
        <ele>378</ele>
        <time>2022-07-15T09:44:41.000Z</time>
      </trkpt>
      <trkpt lat="49.85036" lon="4.82801">
        <ele>378</ele>
        <time>2022-07-15T09:44:42.000Z</time>
      </trkpt>
      <trkpt lat="49.85033" lon="4.82803">
        <ele>378</ele>
        <time>2022-07-15T09:44:43.000Z</time>
      </trkpt>
      <trkpt lat="49.85029" lon="4.82805">
        <ele>378</ele>
        <time>2022-07-15T09:44:44.000Z</time>
      </trkpt>
      <trkpt lat="49.85024" lon="4.82808">
        <ele>378</ele>
        <time>2022-07-15T09:44:45.000Z</time>
      </trkpt>
      <trkpt lat="49.8502" lon="4.82812">
        <ele>378</ele>
        <time>2022-07-15T09:44:46.000Z</time>
      </trkpt>
      <trkpt lat="49.85016" lon="4.82816">
        <ele>378</ele>
        <time>2022-07-15T09:44:47.000Z</time>
      </trkpt>
      <trkpt lat="49.85012" lon="4.82822">
        <ele>378</ele>
        <time>2022-07-15T09:44:48.000Z</time>
      </trkpt>
      <trkpt lat="49.85007" lon="4.82828">
        <ele>378</ele>
        <time>2022-07-15T09:44:49.000Z</time>
      </trkpt>
      <trkpt lat="49.85002" lon="4.82835">
        <ele>378</ele>
        <time>2022-07-15T09:44:50.000Z</time>
      </trkpt>
      <trkpt lat="49.84997" lon="4.82842">
        <ele>378</ele>
        <time>2022-07-15T09:44:51.000Z</time>
      </trkpt>
      <trkpt lat="49.84993" lon="4.82849">
        <ele>378</ele>
        <time>2022-07-15T09:44:52.000Z</time>
      </trkpt>
      <trkpt lat="49.84988" lon="4.82855">
        <ele>378</ele>
        <time>2022-07-15T09:44:53.000Z</time>
      </trkpt>
      <trkpt lat="49.84982" lon="4.82862">
        <ele>378</ele>
        <time>2022-07-15T09:44:54.000Z</time>
      </trkpt>
      <trkpt lat="49.84977" lon="4.82868">
        <ele>378</ele>
        <time>2022-07-15T09:44:55.000Z</time>
      </trkpt>
      <trkpt lat="49.84971" lon="4.82873">
        <ele>378</ele>
        <time>2022-07-15T09:44:56.000Z</time>
      </trkpt>
      <trkpt lat="49.84966" lon="4.82876">
        <ele>378</ele>
        <time>2022-07-15T09:44:57.000Z</time>
      </trkpt>
      <trkpt lat="49.84962" lon="4.82879">
        <ele>378</ele>
        <time>2022-07-15T09:44:58.000Z</time>
      </trkpt>
      <trkpt lat="49.84957" lon="4.82882">
        <ele>378</ele>
        <time>2022-07-15T09:44:59.000Z</time>
      </trkpt>
      <trkpt lat="49.84954" lon="4.82885">
        <ele>378</ele>
        <time>2022-07-15T09:45:00.000Z</time>
      </trkpt>
      <trkpt lat="49.84951" lon="4.82888">
        <ele>378</ele>
        <time>2022-07-15T09:45:01.000Z</time>
      </trkpt>
      <trkpt lat="49.84949" lon="4.82893">
        <ele>378</ele>
        <time>2022-07-15T09:45:02.000Z</time>
      </trkpt>
      <trkpt lat="49.84949" lon="4.82898">
        <ele>377</ele>
        <time>2022-07-15T09:45:03.000Z</time>
      </trkpt>
      <trkpt lat="49.8495" lon="4.82902">
        <ele>377</ele>
        <time>2022-07-15T09:45:04.000Z</time>
      </trkpt>
      <trkpt lat="49.84951" lon="4.82906">
        <ele>377</ele>
        <time>2022-07-15T09:45:05.000Z</time>
      </trkpt>
      <trkpt lat="49.84953" lon="4.8291">
        <ele>377</ele>
        <time>2022-07-15T09:45:06.000Z</time>
      </trkpt>
      <trkpt lat="49.84952" lon="4.82915">
        <ele>377</ele>
        <time>2022-07-15T09:45:07.000Z</time>
      </trkpt>
      <trkpt lat="49.84952" lon="4.8292">
        <ele>377</ele>
        <time>2022-07-15T09:45:08.000Z</time>
      </trkpt>
      <trkpt lat="49.84951" lon="4.82925">
        <ele>377</ele>
        <time>2022-07-15T09:45:09.000Z</time>
      </trkpt>
      <trkpt lat="49.8495" lon="4.82931">
        <ele>377</ele>
        <time>2022-07-15T09:45:10.000Z</time>
      </trkpt>
      <trkpt lat="49.84947" lon="4.82937">
        <ele>378</ele>
        <time>2022-07-15T09:45:11.000Z</time>
      </trkpt>
      <trkpt lat="49.84944" lon="4.82943">
        <ele>378</ele>
        <time>2022-07-15T09:45:12.000Z</time>
      </trkpt>
      <trkpt lat="49.84941" lon="4.8295">
        <ele>378</ele>
        <time>2022-07-15T09:45:13.000Z</time>
      </trkpt>
      <trkpt lat="49.84938" lon="4.82958">
        <ele>378</ele>
        <time>2022-07-15T09:45:14.000Z</time>
      </trkpt>
      <trkpt lat="49.84936" lon="4.82966">
        <ele>378</ele>
        <time>2022-07-15T09:45:15.000Z</time>
      </trkpt>
      <trkpt lat="49.84933" lon="4.82974">
        <ele>378</ele>
        <time>2022-07-15T09:45:16.000Z</time>
      </trkpt>
      <trkpt lat="49.8493" lon="4.82983">
        <ele>378</ele>
        <time>2022-07-15T09:45:17.000Z</time>
      </trkpt>
      <trkpt lat="49.84927" lon="4.82991">
        <ele>378</ele>
        <time>2022-07-15T09:45:18.000Z</time>
      </trkpt>
      <trkpt lat="49.84924" lon="4.83">
        <ele>378</ele>
        <time>2022-07-15T09:45:19.000Z</time>
      </trkpt>
      <trkpt lat="49.8492" lon="4.83007">
        <ele>378</ele>
        <time>2022-07-15T09:45:20.000Z</time>
      </trkpt>
      <trkpt lat="49.84916" lon="4.83014">
        <ele>377</ele>
        <time>2022-07-15T09:45:21.000Z</time>
      </trkpt>
      <trkpt lat="49.84912" lon="4.83021">
        <ele>377</ele>
        <time>2022-07-15T09:45:22.000Z</time>
      </trkpt>
      <trkpt lat="49.84908" lon="4.83027">
        <ele>377</ele>
        <time>2022-07-15T09:45:23.000Z</time>
      </trkpt>
      <trkpt lat="49.84904" lon="4.83033">
        <ele>377</ele>
        <time>2022-07-15T09:45:24.000Z</time>
      </trkpt>
      <trkpt lat="49.849" lon="4.83039">
        <ele>377</ele>
        <time>2022-07-15T09:45:25.000Z</time>
      </trkpt>
      <trkpt lat="49.84897" lon="4.83045">
        <ele>377</ele>
        <time>2022-07-15T09:45:26.000Z</time>
      </trkpt>
      <trkpt lat="49.84893" lon="4.83051">
        <ele>377</ele>
        <time>2022-07-15T09:45:27.000Z</time>
      </trkpt>
      <trkpt lat="49.84889" lon="4.83056">
        <ele>376</ele>
        <time>2022-07-15T09:45:28.000Z</time>
      </trkpt>
      <trkpt lat="49.84885" lon="4.83062">
        <ele>376</ele>
        <time>2022-07-15T09:45:29.000Z</time>
      </trkpt>
      <trkpt lat="49.84882" lon="4.83068">
        <ele>376</ele>
        <time>2022-07-15T09:45:30.000Z</time>
      </trkpt>
      <trkpt lat="49.84878" lon="4.83073">
        <ele>376</ele>
        <time>2022-07-15T09:45:31.000Z</time>
      </trkpt>
      <trkpt lat="49.84874" lon="4.83077">
        <ele>375</ele>
        <time>2022-07-15T09:45:32.000Z</time>
      </trkpt>
      <trkpt lat="49.84871" lon="4.83082">
        <ele>375</ele>
        <time>2022-07-15T09:45:33.000Z</time>
      </trkpt>
      <trkpt lat="49.84867" lon="4.83086">
        <ele>375</ele>
        <time>2022-07-15T09:45:34.000Z</time>
      </trkpt>
      <trkpt lat="49.84863" lon="4.83092">
        <ele>375</ele>
        <time>2022-07-15T09:45:35.000Z</time>
      </trkpt>
      <trkpt lat="49.8486" lon="4.83097">
        <ele>375</ele>
        <time>2022-07-15T09:45:36.000Z</time>
      </trkpt>
      <trkpt lat="49.84857" lon="4.83102">
        <ele>374</ele>
        <time>2022-07-15T09:45:37.000Z</time>
      </trkpt>
      <trkpt lat="49.84855" lon="4.83107">
        <ele>374</ele>
        <time>2022-07-15T09:45:38.000Z</time>
      </trkpt>
      <trkpt lat="49.84852" lon="4.83112">
        <ele>374</ele>
        <time>2022-07-15T09:45:39.000Z</time>
      </trkpt>
      <trkpt lat="49.84849" lon="4.83117">
        <ele>374</ele>
        <time>2022-07-15T09:45:40.000Z</time>
      </trkpt>
      <trkpt lat="49.84846" lon="4.83122">
        <ele>373</ele>
        <time>2022-07-15T09:45:41.000Z</time>
      </trkpt>
      <trkpt lat="49.84843" lon="4.83127">
        <ele>373</ele>
        <time>2022-07-15T09:45:42.000Z</time>
      </trkpt>
      <trkpt lat="49.8484" lon="4.83133">
        <ele>373</ele>
        <time>2022-07-15T09:45:43.000Z</time>
      </trkpt>
      <trkpt lat="49.84837" lon="4.83138">
        <ele>373</ele>
        <time>2022-07-15T09:45:44.000Z</time>
      </trkpt>
      <trkpt lat="49.84833" lon="4.83143">
        <ele>372</ele>
        <time>2022-07-15T09:45:45.000Z</time>
      </trkpt>
      <trkpt lat="49.8483" lon="4.83147">
        <ele>372</ele>
        <time>2022-07-15T09:45:46.000Z</time>
      </trkpt>
      <trkpt lat="49.84827" lon="4.83152">
        <ele>372</ele>
        <time>2022-07-15T09:45:47.000Z</time>
      </trkpt>
      <trkpt lat="49.84824" lon="4.83157">
        <ele>371</ele>
        <time>2022-07-15T09:45:48.000Z</time>
      </trkpt>
      <trkpt lat="49.8482" lon="4.83161">
        <ele>371</ele>
        <time>2022-07-15T09:45:49.000Z</time>
      </trkpt>
      <trkpt lat="49.84817" lon="4.83165">
        <ele>371</ele>
        <time>2022-07-15T09:45:50.000Z</time>
      </trkpt>
      <trkpt lat="49.84814" lon="4.83169">
        <ele>371</ele>
        <time>2022-07-15T09:45:51.000Z</time>
      </trkpt>
      <trkpt lat="49.84811" lon="4.83173">
        <ele>370</ele>
        <time>2022-07-15T09:45:52.000Z</time>
      </trkpt>
      <trkpt lat="49.84809" lon="4.83177">
        <ele>370</ele>
        <time>2022-07-15T09:45:53.000Z</time>
      </trkpt>
      <trkpt lat="49.84806" lon="4.83182">
        <ele>370</ele>
        <time>2022-07-15T09:45:54.000Z</time>
      </trkpt>
      <trkpt lat="49.84804" lon="4.83188">
        <ele>369</ele>
        <time>2022-07-15T09:45:55.000Z</time>
      </trkpt>
      <trkpt lat="49.84801" lon="4.83194">
        <ele>369</ele>
        <time>2022-07-15T09:45:56.000Z</time>
      </trkpt>
      <trkpt lat="49.84797" lon="4.83199">
        <ele>369</ele>
        <time>2022-07-15T09:45:57.000Z</time>
      </trkpt>
      <trkpt lat="49.84793" lon="4.83203">
        <ele>369</ele>
        <time>2022-07-15T09:45:58.000Z</time>
      </trkpt>
      <trkpt lat="49.8479" lon="4.83207">
        <ele>368</ele>
        <time>2022-07-15T09:45:59.000Z</time>
      </trkpt>
      <trkpt lat="49.84787" lon="4.83212">
        <ele>368</ele>
        <time>2022-07-15T09:46:00.000Z</time>
      </trkpt>
      <trkpt lat="49.84785" lon="4.83217">
        <ele>368</ele>
        <time>2022-07-15T09:46:01.000Z</time>
      </trkpt>
      <trkpt lat="49.84783" lon="4.83222">
        <ele>368</ele>
        <time>2022-07-15T09:46:02.000Z</time>
      </trkpt>
      <trkpt lat="49.84781" lon="4.83228">
        <ele>368</ele>
        <time>2022-07-15T09:46:03.000Z</time>
      </trkpt>
      <trkpt lat="49.8478" lon="4.83233">
        <ele>368</ele>
        <time>2022-07-15T09:46:04.000Z</time>
      </trkpt>
      <trkpt lat="49.84778" lon="4.83237">
        <ele>367</ele>
        <time>2022-07-15T09:46:05.000Z</time>
      </trkpt>
      <trkpt lat="49.84776" lon="4.83242">
        <ele>367</ele>
        <time>2022-07-15T09:46:06.000Z</time>
      </trkpt>
      <trkpt lat="49.84775" lon="4.83248">
        <ele>367</ele>
        <time>2022-07-15T09:46:07.000Z</time>
      </trkpt>
      <trkpt lat="49.84775" lon="4.83253">
        <ele>367</ele>
        <time>2022-07-15T09:46:08.000Z</time>
      </trkpt>
      <trkpt lat="49.84775" lon="4.83258">
        <ele>366</ele>
        <time>2022-07-15T09:46:09.000Z</time>
      </trkpt>
      <trkpt lat="49.84775" lon="4.83263">
        <ele>366</ele>
        <time>2022-07-15T09:46:10.000Z</time>
      </trkpt>
      <trkpt lat="49.84776" lon="4.83268">
        <ele>366</ele>
        <time>2022-07-15T09:46:11.000Z</time>
      </trkpt>
      <trkpt lat="49.84777" lon="4.83276">
        <ele>366</ele>
        <time>2022-07-15T09:46:12.000Z</time>
      </trkpt>
      <trkpt lat="49.84778" lon="4.83284">
        <ele>366</ele>
        <time>2022-07-15T09:46:13.000Z</time>
      </trkpt>
      <trkpt lat="49.8478" lon="4.83293">
        <ele>366</ele>
        <time>2022-07-15T09:46:14.000Z</time>
      </trkpt>
      <trkpt lat="49.84781" lon="4.83304">
        <ele>365</ele>
        <time>2022-07-15T09:46:15.000Z</time>
      </trkpt>
      <trkpt lat="49.84782" lon="4.83315">
        <ele>365</ele>
        <time>2022-07-15T09:46:16.000Z</time>
      </trkpt>
      <trkpt lat="49.84783" lon="4.83326">
        <ele>365</ele>
        <time>2022-07-15T09:46:17.000Z</time>
      </trkpt>
      <trkpt lat="49.84783" lon="4.83338">
        <ele>364</ele>
        <time>2022-07-15T09:46:18.000Z</time>
      </trkpt>
      <trkpt lat="49.84783" lon="4.83351">
        <ele>364</ele>
        <time>2022-07-15T09:46:19.000Z</time>
      </trkpt>
      <trkpt lat="49.84783" lon="4.83363">
        <ele>364</ele>
        <time>2022-07-15T09:46:20.000Z</time>
      </trkpt>
      <trkpt lat="49.84783" lon="4.83374">
        <ele>363</ele>
        <time>2022-07-15T09:46:21.000Z</time>
      </trkpt>
      <trkpt lat="49.84783" lon="4.83384">
        <ele>363</ele>
        <time>2022-07-15T09:46:22.000Z</time>
      </trkpt>
      <trkpt lat="49.84784" lon="4.83395">
        <ele>363</ele>
        <time>2022-07-15T09:46:23.000Z</time>
      </trkpt>
      <trkpt lat="49.84784" lon="4.83407">
        <ele>362</ele>
        <time>2022-07-15T09:46:24.000Z</time>
      </trkpt>
      <trkpt lat="49.84784" lon="4.83421">
        <ele>362</ele>
        <time>2022-07-15T09:46:25.000Z</time>
      </trkpt>
      <trkpt lat="49.84784" lon="4.83435">
        <ele>362</ele>
        <time>2022-07-15T09:46:26.000Z</time>
      </trkpt>
      <trkpt lat="49.84784" lon="4.83448">
        <ele>362</ele>
        <time>2022-07-15T09:46:27.000Z</time>
      </trkpt>
      <trkpt lat="49.84783" lon="4.8346">
        <ele>361</ele>
        <time>2022-07-15T09:46:28.000Z</time>
      </trkpt>
      <trkpt lat="49.84782" lon="4.8347">
        <ele>361</ele>
        <time>2022-07-15T09:46:29.000Z</time>
      </trkpt>
      <trkpt lat="49.84782" lon="4.83479">
        <ele>361</ele>
        <time>2022-07-15T09:46:30.000Z</time>
      </trkpt>
      <trkpt lat="49.84782" lon="4.83486">
        <ele>361</ele>
        <time>2022-07-15T09:46:31.000Z</time>
      </trkpt>
      <trkpt lat="49.84782" lon="4.83494">
        <ele>361</ele>
        <time>2022-07-15T09:46:32.000Z</time>
      </trkpt>
      <trkpt lat="49.84782" lon="4.83501">
        <ele>360</ele>
        <time>2022-07-15T09:46:33.000Z</time>
      </trkpt>
      <trkpt lat="49.84782" lon="4.83508">
        <ele>360</ele>
        <time>2022-07-15T09:46:34.000Z</time>
      </trkpt>
      <trkpt lat="49.84782" lon="4.83516">
        <ele>360</ele>
        <time>2022-07-15T09:46:35.000Z</time>
      </trkpt>
      <trkpt lat="49.84782" lon="4.83524">
        <ele>360</ele>
        <time>2022-07-15T09:46:36.000Z</time>
      </trkpt>
      <trkpt lat="49.84781" lon="4.83532">
        <ele>360</ele>
        <time>2022-07-15T09:46:37.000Z</time>
      </trkpt>
      <trkpt lat="49.84781" lon="4.8354">
        <ele>360</ele>
        <time>2022-07-15T09:46:38.000Z</time>
      </trkpt>
      <trkpt lat="49.84781" lon="4.83548">
        <ele>359</ele>
        <time>2022-07-15T09:46:39.000Z</time>
      </trkpt>
      <trkpt lat="49.84781" lon="4.83557">
        <ele>359</ele>
        <time>2022-07-15T09:46:40.000Z</time>
      </trkpt>
      <trkpt lat="49.84781" lon="4.83565">
        <ele>359</ele>
        <time>2022-07-15T09:46:41.000Z</time>
      </trkpt>
      <trkpt lat="49.8478" lon="4.83573">
        <ele>359</ele>
        <time>2022-07-15T09:46:42.000Z</time>
      </trkpt>
      <trkpt lat="49.84781" lon="4.83581">
        <ele>359</ele>
        <time>2022-07-15T09:46:43.000Z</time>
      </trkpt>
      <trkpt lat="49.84781" lon="4.83588">
        <ele>359</ele>
        <time>2022-07-15T09:46:44.000Z</time>
      </trkpt>
      <trkpt lat="49.84781" lon="4.83596">
        <ele>358</ele>
        <time>2022-07-15T09:46:45.000Z</time>
      </trkpt>
      <trkpt lat="49.84781" lon="4.83603">
        <ele>358</ele>
        <time>2022-07-15T09:46:46.000Z</time>
      </trkpt>
      <trkpt lat="49.84782" lon="4.83611">
        <ele>358</ele>
        <time>2022-07-15T09:46:47.000Z</time>
      </trkpt>
      <trkpt lat="49.84782" lon="4.83619">
        <ele>358</ele>
        <time>2022-07-15T09:46:48.000Z</time>
      </trkpt>
      <trkpt lat="49.84783" lon="4.83627">
        <ele>358</ele>
        <time>2022-07-15T09:46:49.000Z</time>
      </trkpt>
      <trkpt lat="49.84784" lon="4.83636">
        <ele>358</ele>
        <time>2022-07-15T09:46:50.000Z</time>
      </trkpt>
      <trkpt lat="49.84784" lon="4.83644">
        <ele>357</ele>
        <time>2022-07-15T09:46:51.000Z</time>
      </trkpt>
      <trkpt lat="49.84784" lon="4.83653">
        <ele>357</ele>
        <time>2022-07-15T09:46:52.000Z</time>
      </trkpt>
      <trkpt lat="49.84783" lon="4.8366">
        <ele>357</ele>
        <time>2022-07-15T09:46:53.000Z</time>
      </trkpt>
      <trkpt lat="49.84783" lon="4.83668">
        <ele>357</ele>
        <time>2022-07-15T09:46:54.000Z</time>
      </trkpt>
      <trkpt lat="49.84782" lon="4.83676">
        <ele>356</ele>
        <time>2022-07-15T09:46:55.000Z</time>
      </trkpt>
      <trkpt lat="49.84782" lon="4.83684">
        <ele>356</ele>
        <time>2022-07-15T09:46:56.000Z</time>
      </trkpt>
      <trkpt lat="49.84781" lon="4.83691">
        <ele>356</ele>
        <time>2022-07-15T09:46:57.000Z</time>
      </trkpt>
      <trkpt lat="49.84782" lon="4.83699">
        <ele>356</ele>
        <time>2022-07-15T09:46:58.000Z</time>
      </trkpt>
      <trkpt lat="49.84782" lon="4.83706">
        <ele>356</ele>
        <time>2022-07-15T09:46:59.000Z</time>
      </trkpt>
      <trkpt lat="49.84783" lon="4.83714">
        <ele>356</ele>
        <time>2022-07-15T09:47:00.000Z</time>
      </trkpt>
      <trkpt lat="49.84783" lon="4.83722">
        <ele>355</ele>
        <time>2022-07-15T09:47:01.000Z</time>
      </trkpt>
      <trkpt lat="49.84783" lon="4.83731">
        <ele>355</ele>
        <time>2022-07-15T09:47:02.000Z</time>
      </trkpt>
      <trkpt lat="49.84783" lon="4.83739">
        <ele>355</ele>
        <time>2022-07-15T09:47:03.000Z</time>
      </trkpt>
      <trkpt lat="49.84783" lon="4.83747">
        <ele>355</ele>
        <time>2022-07-15T09:47:04.000Z</time>
      </trkpt>
      <trkpt lat="49.84783" lon="4.83756">
        <ele>355</ele>
        <time>2022-07-15T09:47:05.000Z</time>
      </trkpt>
      <trkpt lat="49.84783" lon="4.83764">
        <ele>355</ele>
        <time>2022-07-15T09:47:06.000Z</time>
      </trkpt>
      <trkpt lat="49.84783" lon="4.83773">
        <ele>354</ele>
        <time>2022-07-15T09:47:07.000Z</time>
      </trkpt>
      <trkpt lat="49.84783" lon="4.83781">
        <ele>354</ele>
        <time>2022-07-15T09:47:08.000Z</time>
      </trkpt>
      <trkpt lat="49.84784" lon="4.83789">
        <ele>354</ele>
        <time>2022-07-15T09:47:09.000Z</time>
      </trkpt>
      <trkpt lat="49.84784" lon="4.83797">
        <ele>354</ele>
        <time>2022-07-15T09:47:10.000Z</time>
      </trkpt>
      <trkpt lat="49.84784" lon="4.83804">
        <ele>354</ele>
        <time>2022-07-15T09:47:11.000Z</time>
      </trkpt>
      <trkpt lat="49.84784" lon="4.83811">
        <ele>354</ele>
        <time>2022-07-15T09:47:12.000Z</time>
      </trkpt>
      <trkpt lat="49.84783" lon="4.83817">
        <ele>354</ele>
        <time>2022-07-15T09:47:13.000Z</time>
      </trkpt>
      <trkpt lat="49.84782" lon="4.83824">
        <ele>354</ele>
        <time>2022-07-15T09:47:14.000Z</time>
      </trkpt>
      <trkpt lat="49.84781" lon="4.8383">
        <ele>354</ele>
        <time>2022-07-15T09:47:15.000Z</time>
      </trkpt>
      <trkpt lat="49.8478" lon="4.83837">
        <ele>354</ele>
        <time>2022-07-15T09:47:16.000Z</time>
      </trkpt>
      <trkpt lat="49.84778" lon="4.83844">
        <ele>354</ele>
        <time>2022-07-15T09:47:17.000Z</time>
      </trkpt>
      <trkpt lat="49.84776" lon="4.8385">
        <ele>354</ele>
        <time>2022-07-15T09:47:18.000Z</time>
      </trkpt>
      <trkpt lat="49.84774" lon="4.83857">
        <ele>354</ele>
        <time>2022-07-15T09:47:19.000Z</time>
      </trkpt>
      <trkpt lat="49.84772" lon="4.83863">
        <ele>354</ele>
        <time>2022-07-15T09:47:20.000Z</time>
      </trkpt>
      <trkpt lat="49.84769" lon="4.8387">
        <ele>354</ele>
        <time>2022-07-15T09:47:21.000Z</time>
      </trkpt>
      <trkpt lat="49.84767" lon="4.83876">
        <ele>354</ele>
        <time>2022-07-15T09:47:22.000Z</time>
      </trkpt>
      <trkpt lat="49.84765" lon="4.83883">
        <ele>354</ele>
        <time>2022-07-15T09:47:23.000Z</time>
      </trkpt>
      <trkpt lat="49.84762" lon="4.83889">
        <ele>354</ele>
        <time>2022-07-15T09:47:24.000Z</time>
      </trkpt>
      <trkpt lat="49.84759" lon="4.83895">
        <ele>354</ele>
        <time>2022-07-15T09:47:25.000Z</time>
      </trkpt>
      <trkpt lat="49.84756" lon="4.83901">
        <ele>355</ele>
        <time>2022-07-15T09:47:26.000Z</time>
      </trkpt>
      <trkpt lat="49.84753" lon="4.83906">
        <ele>355</ele>
        <time>2022-07-15T09:47:27.000Z</time>
      </trkpt>
      <trkpt lat="49.8475" lon="4.83911">
        <ele>355</ele>
        <time>2022-07-15T09:47:28.000Z</time>
      </trkpt>
      <trkpt lat="49.84748" lon="4.83916">
        <ele>355</ele>
        <time>2022-07-15T09:47:29.000Z</time>
      </trkpt>
      <trkpt lat="49.84745" lon="4.83921">
        <ele>355</ele>
        <time>2022-07-15T09:47:30.000Z</time>
      </trkpt>
      <trkpt lat="49.84742" lon="4.83927">
        <ele>355</ele>
        <time>2022-07-15T09:47:31.000Z</time>
      </trkpt>
      <trkpt lat="49.84739" lon="4.83931">
        <ele>356</ele>
        <time>2022-07-15T09:47:32.000Z</time>
      </trkpt>
      <trkpt lat="49.84736" lon="4.83936">
        <ele>356</ele>
        <time>2022-07-15T09:47:33.000Z</time>
      </trkpt>
      <trkpt lat="49.84733" lon="4.8394">
        <ele>356</ele>
        <time>2022-07-15T09:47:34.000Z</time>
      </trkpt>
      <trkpt lat="49.84731" lon="4.83945">
        <ele>356</ele>
        <time>2022-07-15T09:47:35.000Z</time>
      </trkpt>
      <trkpt lat="49.84728" lon="4.83948">
        <ele>356</ele>
        <time>2022-07-15T09:47:36.000Z</time>
      </trkpt>
      <trkpt lat="49.84726" lon="4.83952">
        <ele>357</ele>
        <time>2022-07-15T09:47:37.000Z</time>
      </trkpt>
      <trkpt lat="49.84723" lon="4.83956">
        <ele>357</ele>
        <time>2022-07-15T09:47:38.000Z</time>
      </trkpt>
      <trkpt lat="49.8472" lon="4.8396">
        <ele>357</ele>
        <time>2022-07-15T09:47:39.000Z</time>
      </trkpt>
      <trkpt lat="49.84716" lon="4.83964">
        <ele>358</ele>
        <time>2022-07-15T09:47:40.000Z</time>
      </trkpt>
      <trkpt lat="49.84713" lon="4.83967">
        <ele>358</ele>
        <time>2022-07-15T09:47:41.000Z</time>
      </trkpt>
      <trkpt lat="49.8471" lon="4.83969">
        <ele>358</ele>
        <time>2022-07-15T09:47:42.000Z</time>
      </trkpt>
      <trkpt lat="49.84706" lon="4.83971">
        <ele>359</ele>
        <time>2022-07-15T09:47:43.000Z</time>
      </trkpt>
      <trkpt lat="49.84703" lon="4.83973">
        <ele>359</ele>
        <time>2022-07-15T09:47:44.000Z</time>
      </trkpt>
      <trkpt lat="49.84699" lon="4.83974">
        <ele>359</ele>
        <time>2022-07-15T09:47:45.000Z</time>
      </trkpt>
      <trkpt lat="49.84695" lon="4.83976">
        <ele>360</ele>
        <time>2022-07-15T09:47:46.000Z</time>
      </trkpt>
      <trkpt lat="49.84691" lon="4.83977">
        <ele>360</ele>
        <time>2022-07-15T09:47:47.000Z</time>
      </trkpt>
      <trkpt lat="49.84688" lon="4.8398">
        <ele>360</ele>
        <time>2022-07-15T09:47:48.000Z</time>
      </trkpt>
      <trkpt lat="49.84684" lon="4.83982">
        <ele>361</ele>
        <time>2022-07-15T09:47:49.000Z</time>
      </trkpt>
      <trkpt lat="49.84681" lon="4.83983">
        <ele>361</ele>
        <time>2022-07-15T09:47:50.000Z</time>
      </trkpt>
      <trkpt lat="49.84678" lon="4.83985">
        <ele>361</ele>
        <time>2022-07-15T09:47:51.000Z</time>
      </trkpt>
      <trkpt lat="49.84674" lon="4.83986">
        <ele>361</ele>
        <time>2022-07-15T09:47:52.000Z</time>
      </trkpt>
      <trkpt lat="49.84671" lon="4.83988">
        <ele>362</ele>
        <time>2022-07-15T09:47:53.000Z</time>
      </trkpt>
      <trkpt lat="49.84668" lon="4.83989">
        <ele>362</ele>
        <time>2022-07-15T09:47:54.000Z</time>
      </trkpt>
      <trkpt lat="49.84666" lon="4.8399">
        <ele>362</ele>
        <time>2022-07-15T09:47:55.000Z</time>
      </trkpt>
      <trkpt lat="49.84663" lon="4.83991">
        <ele>362</ele>
        <time>2022-07-15T09:47:56.000Z</time>
      </trkpt>
      <trkpt lat="49.84659" lon="4.83992">
        <ele>362</ele>
        <time>2022-07-15T09:47:57.000Z</time>
      </trkpt>
      <trkpt lat="49.84656" lon="4.83993">
        <ele>363</ele>
        <time>2022-07-15T09:47:58.000Z</time>
      </trkpt>
      <trkpt lat="49.84652" lon="4.83994">
        <ele>363</ele>
        <time>2022-07-15T09:47:59.000Z</time>
      </trkpt>
      <trkpt lat="49.84649" lon="4.83994">
        <ele>363</ele>
        <time>2022-07-15T09:48:00.000Z</time>
      </trkpt>
      <trkpt lat="49.84646" lon="4.83994">
        <ele>363</ele>
        <time>2022-07-15T09:48:01.000Z</time>
      </trkpt>
      <trkpt lat="49.84642" lon="4.83994">
        <ele>364</ele>
        <time>2022-07-15T09:48:02.000Z</time>
      </trkpt>
      <trkpt lat="49.8464" lon="4.83995">
        <ele>364</ele>
        <time>2022-07-15T09:48:03.000Z</time>
      </trkpt>
      <trkpt lat="49.84637" lon="4.83996">
        <ele>364</ele>
        <time>2022-07-15T09:48:04.000Z</time>
      </trkpt>
      <trkpt lat="49.84634" lon="4.83997">
        <ele>364</ele>
        <time>2022-07-15T09:48:05.000Z</time>
      </trkpt>
      <trkpt lat="49.84632" lon="4.83997">
        <ele>364</ele>
        <time>2022-07-15T09:48:06.000Z</time>
      </trkpt>
      <trkpt lat="49.84629" lon="4.83998">
        <ele>364</ele>
        <time>2022-07-15T09:48:07.000Z</time>
      </trkpt>
      <trkpt lat="49.84626" lon="4.83999">
        <ele>365</ele>
        <time>2022-07-15T09:48:08.000Z</time>
      </trkpt>
      <trkpt lat="49.84624" lon="4.84">
        <ele>365</ele>
        <time>2022-07-15T09:48:09.000Z</time>
      </trkpt>
      <trkpt lat="49.84622" lon="4.84001">
        <ele>365</ele>
        <time>2022-07-15T09:48:10.000Z</time>
      </trkpt>
      <trkpt lat="49.84619" lon="4.84002">
        <ele>365</ele>
        <time>2022-07-15T09:48:11.000Z</time>
      </trkpt>
      <trkpt lat="49.84616" lon="4.84002">
        <ele>365</ele>
        <time>2022-07-15T09:48:12.000Z</time>
      </trkpt>
      <trkpt lat="49.84614" lon="4.84003">
        <ele>365</ele>
        <time>2022-07-15T09:48:13.000Z</time>
      </trkpt>
      <trkpt lat="49.84611" lon="4.84003">
        <ele>365</ele>
        <time>2022-07-15T09:48:14.000Z</time>
      </trkpt>
      <trkpt lat="49.84608" lon="4.84005">
        <ele>366</ele>
        <time>2022-07-15T09:48:15.000Z</time>
      </trkpt>
      <trkpt lat="49.84605" lon="4.84006">
        <ele>366</ele>
        <time>2022-07-15T09:48:16.000Z</time>
      </trkpt>
      <trkpt lat="49.84602" lon="4.84008">
        <ele>366</ele>
        <time>2022-07-15T09:48:17.000Z</time>
      </trkpt>
      <trkpt lat="49.84599" lon="4.8401">
        <ele>366</ele>
        <time>2022-07-15T09:48:18.000Z</time>
      </trkpt>
      <trkpt lat="49.84596" lon="4.84013">
        <ele>366</ele>
        <time>2022-07-15T09:48:19.000Z</time>
      </trkpt>
      <trkpt lat="49.84593" lon="4.84016">
        <ele>366</ele>
        <time>2022-07-15T09:48:20.000Z</time>
      </trkpt>
      <trkpt lat="49.84589" lon="4.84018">
        <ele>366</ele>
        <time>2022-07-15T09:48:21.000Z</time>
      </trkpt>
      <trkpt lat="49.84585" lon="4.84021">
        <ele>366</ele>
        <time>2022-07-15T09:48:22.000Z</time>
      </trkpt>
      <trkpt lat="49.84581" lon="4.84024">
        <ele>367</ele>
        <time>2022-07-15T09:48:23.000Z</time>
      </trkpt>
      <trkpt lat="49.84578" lon="4.84027">
        <ele>367</ele>
        <time>2022-07-15T09:48:24.000Z</time>
      </trkpt>
      <trkpt lat="49.84575" lon="4.84031">
        <ele>367</ele>
        <time>2022-07-15T09:48:25.000Z</time>
      </trkpt>
      <trkpt lat="49.84572" lon="4.84034">
        <ele>367</ele>
        <time>2022-07-15T09:48:26.000Z</time>
      </trkpt>
      <trkpt lat="49.84569" lon="4.84036">
        <ele>367</ele>
        <time>2022-07-15T09:48:27.000Z</time>
      </trkpt>
      <trkpt lat="49.84566" lon="4.84039">
        <ele>367</ele>
        <time>2022-07-15T09:48:28.000Z</time>
      </trkpt>
      <trkpt lat="49.84563" lon="4.84043">
        <ele>368</ele>
        <time>2022-07-15T09:48:29.000Z</time>
      </trkpt>
      <trkpt lat="49.8456" lon="4.84047">
        <ele>368</ele>
        <time>2022-07-15T09:48:30.000Z</time>
      </trkpt>
      <trkpt lat="49.84556" lon="4.84052">
        <ele>368</ele>
        <time>2022-07-15T09:48:31.000Z</time>
      </trkpt>
      <trkpt lat="49.84552" lon="4.84057">
        <ele>368</ele>
        <time>2022-07-15T09:48:32.000Z</time>
      </trkpt>
      <trkpt lat="49.84547" lon="4.84062">
        <ele>368</ele>
        <time>2022-07-15T09:48:33.000Z</time>
      </trkpt>
      <trkpt lat="49.84543" lon="4.84067">
        <ele>368</ele>
        <time>2022-07-15T09:48:34.000Z</time>
      </trkpt>
      <trkpt lat="49.84539" lon="4.84072">
        <ele>368</ele>
        <time>2022-07-15T09:48:35.000Z</time>
      </trkpt>
      <trkpt lat="49.84535" lon="4.84077">
        <ele>368</ele>
        <time>2022-07-15T09:48:36.000Z</time>
      </trkpt>
      <trkpt lat="49.84531" lon="4.84083">
        <ele>368</ele>
        <time>2022-07-15T09:48:37.000Z</time>
      </trkpt>
      <trkpt lat="49.84526" lon="4.84089">
        <ele>368</ele>
        <time>2022-07-15T09:48:38.000Z</time>
      </trkpt>
      <trkpt lat="49.84521" lon="4.84094">
        <ele>368</ele>
        <time>2022-07-15T09:48:39.000Z</time>
      </trkpt>
      <trkpt lat="49.84516" lon="4.84101">
        <ele>368</ele>
        <time>2022-07-15T09:48:40.000Z</time>
      </trkpt>
      <trkpt lat="49.84511" lon="4.84106">
        <ele>368</ele>
        <time>2022-07-15T09:48:41.000Z</time>
      </trkpt>
      <trkpt lat="49.84507" lon="4.84112">
        <ele>368</ele>
        <time>2022-07-15T09:48:42.000Z</time>
      </trkpt>
      <trkpt lat="49.84502" lon="4.84119">
        <ele>368</ele>
        <time>2022-07-15T09:48:43.000Z</time>
      </trkpt>
      <trkpt lat="49.84499" lon="4.84125">
        <ele>368</ele>
        <time>2022-07-15T09:48:44.000Z</time>
      </trkpt>
      <trkpt lat="49.84494" lon="4.8413">
        <ele>368</ele>
        <time>2022-07-15T09:48:45.000Z</time>
      </trkpt>
      <trkpt lat="49.8449" lon="4.84136">
        <ele>368</ele>
        <time>2022-07-15T09:48:46.000Z</time>
      </trkpt>
      <trkpt lat="49.84485" lon="4.84142">
        <ele>368</ele>
        <time>2022-07-15T09:48:47.000Z</time>
      </trkpt>
      <trkpt lat="49.8448" lon="4.84148">
        <ele>367</ele>
        <time>2022-07-15T09:48:48.000Z</time>
      </trkpt>
      <trkpt lat="49.84475" lon="4.84154">
        <ele>367</ele>
        <time>2022-07-15T09:48:49.000Z</time>
      </trkpt>
      <trkpt lat="49.8447" lon="4.8416">
        <ele>367</ele>
        <time>2022-07-15T09:48:50.000Z</time>
      </trkpt>
      <trkpt lat="49.84466" lon="4.84165">
        <ele>367</ele>
        <time>2022-07-15T09:48:51.000Z</time>
      </trkpt>
      <trkpt lat="49.8446" lon="4.84169">
        <ele>366</ele>
        <time>2022-07-15T09:48:52.000Z</time>
      </trkpt>
      <trkpt lat="49.84455" lon="4.84175">
        <ele>366</ele>
        <time>2022-07-15T09:48:53.000Z</time>
      </trkpt>
      <trkpt lat="49.8445" lon="4.8418">
        <ele>366</ele>
        <time>2022-07-15T09:48:54.000Z</time>
      </trkpt>
      <trkpt lat="49.84445" lon="4.84186">
        <ele>365</ele>
        <time>2022-07-15T09:48:55.000Z</time>
      </trkpt>
      <trkpt lat="49.84441" lon="4.84192">
        <ele>365</ele>
        <time>2022-07-15T09:48:56.000Z</time>
      </trkpt>
      <trkpt lat="49.84437" lon="4.84198">
        <ele>365</ele>
        <time>2022-07-15T09:48:57.000Z</time>
      </trkpt>
      <trkpt lat="49.84432" lon="4.84203">
        <ele>365</ele>
        <time>2022-07-15T09:48:58.000Z</time>
      </trkpt>
      <trkpt lat="49.84427" lon="4.84206">
        <ele>364</ele>
        <time>2022-07-15T09:48:59.000Z</time>
      </trkpt>
      <trkpt lat="49.84423" lon="4.8421">
        <ele>364</ele>
        <time>2022-07-15T09:49:00.000Z</time>
      </trkpt>
      <trkpt lat="49.84418" lon="4.84213">
        <ele>364</ele>
        <time>2022-07-15T09:49:01.000Z</time>
      </trkpt>
      <trkpt lat="49.84413" lon="4.84217">
        <ele>364</ele>
        <time>2022-07-15T09:49:02.000Z</time>
      </trkpt>
      <trkpt lat="49.84408" lon="4.84219">
        <ele>363</ele>
        <time>2022-07-15T09:49:03.000Z</time>
      </trkpt>
      <trkpt lat="49.84402" lon="4.84223">
        <ele>363</ele>
        <time>2022-07-15T09:49:04.000Z</time>
      </trkpt>
      <trkpt lat="49.84397" lon="4.84226">
        <ele>363</ele>
        <time>2022-07-15T09:49:05.000Z</time>
      </trkpt>
      <trkpt lat="49.84392" lon="4.8423">
        <ele>363</ele>
        <time>2022-07-15T09:49:06.000Z</time>
      </trkpt>
      <trkpt lat="49.84388" lon="4.84233">
        <ele>363</ele>
        <time>2022-07-15T09:49:07.000Z</time>
      </trkpt>
      <trkpt lat="49.84383" lon="4.84235">
        <ele>363</ele>
        <time>2022-07-15T09:49:08.000Z</time>
      </trkpt>
      <trkpt lat="49.84379" lon="4.84236">
        <ele>362</ele>
        <time>2022-07-15T09:49:09.000Z</time>
      </trkpt>
      <trkpt lat="49.84374" lon="4.84238">
        <ele>362</ele>
        <time>2022-07-15T09:49:10.000Z</time>
      </trkpt>
      <trkpt lat="49.84369" lon="4.84239">
        <ele>362</ele>
        <time>2022-07-15T09:49:11.000Z</time>
      </trkpt>
      <trkpt lat="49.84364" lon="4.84241">
        <ele>362</ele>
        <time>2022-07-15T09:49:12.000Z</time>
      </trkpt>
      <trkpt lat="49.84359" lon="4.84242">
        <ele>361</ele>
        <time>2022-07-15T09:49:13.000Z</time>
      </trkpt>
      <trkpt lat="49.84354" lon="4.84243">
        <ele>361</ele>
        <time>2022-07-15T09:49:14.000Z</time>
      </trkpt>
      <trkpt lat="49.84349" lon="4.84244">
        <ele>361</ele>
        <time>2022-07-15T09:49:15.000Z</time>
      </trkpt>
      <trkpt lat="49.84343" lon="4.84244">
        <ele>360</ele>
        <time>2022-07-15T09:49:16.000Z</time>
      </trkpt>
      <trkpt lat="49.84338" lon="4.84245">
        <ele>360</ele>
        <time>2022-07-15T09:49:17.000Z</time>
      </trkpt>
      <trkpt lat="49.84334" lon="4.84247">
        <ele>360</ele>
        <time>2022-07-15T09:49:18.000Z</time>
      </trkpt>
      <trkpt lat="49.84329" lon="4.84248">
        <ele>360</ele>
        <time>2022-07-15T09:49:19.000Z</time>
      </trkpt>
      <trkpt lat="49.84324" lon="4.8425">
        <ele>359</ele>
        <time>2022-07-15T09:49:20.000Z</time>
      </trkpt>
      <trkpt lat="49.8432" lon="4.84252">
        <ele>359</ele>
        <time>2022-07-15T09:49:21.000Z</time>
      </trkpt>
      <trkpt lat="49.84316" lon="4.84253">
        <ele>359</ele>
        <time>2022-07-15T09:49:22.000Z</time>
      </trkpt>
      <trkpt lat="49.84312" lon="4.84255">
        <ele>359</ele>
        <time>2022-07-15T09:49:23.000Z</time>
      </trkpt>
      <trkpt lat="49.84308" lon="4.84257">
        <ele>359</ele>
        <time>2022-07-15T09:49:24.000Z</time>
      </trkpt>
      <trkpt lat="49.84304" lon="4.84258">
        <ele>358</ele>
        <time>2022-07-15T09:49:25.000Z</time>
      </trkpt>
      <trkpt lat="49.84299" lon="4.8426">
        <ele>358</ele>
        <time>2022-07-15T09:49:26.000Z</time>
      </trkpt>
      <trkpt lat="49.84295" lon="4.84261">
        <ele>358</ele>
        <time>2022-07-15T09:49:27.000Z</time>
      </trkpt>
      <trkpt lat="49.84292" lon="4.84263">
        <ele>358</ele>
        <time>2022-07-15T09:49:28.000Z</time>
      </trkpt>
      <trkpt lat="49.84288" lon="4.84265">
        <ele>358</ele>
        <time>2022-07-15T09:49:29.000Z</time>
      </trkpt>
      <trkpt lat="49.84285" lon="4.84266">
        <ele>358</ele>
        <time>2022-07-15T09:49:30.000Z</time>
      </trkpt>
      <trkpt lat="49.84281" lon="4.84267">
        <ele>358</ele>
        <time>2022-07-15T09:49:31.000Z</time>
      </trkpt>
      <trkpt lat="49.84277" lon="4.84269">
        <ele>358</ele>
        <time>2022-07-15T09:49:32.000Z</time>
      </trkpt>
      <trkpt lat="49.84273" lon="4.84271">
        <ele>358</ele>
        <time>2022-07-15T09:49:33.000Z</time>
      </trkpt>
      <trkpt lat="49.8427" lon="4.84273">
        <ele>358</ele>
        <time>2022-07-15T09:49:34.000Z</time>
      </trkpt>
      <trkpt lat="49.84267" lon="4.84275">
        <ele>358</ele>
        <time>2022-07-15T09:49:35.000Z</time>
      </trkpt>
      <trkpt lat="49.84264" lon="4.84276">
        <ele>358</ele>
        <time>2022-07-15T09:49:36.000Z</time>
      </trkpt>
      <trkpt lat="49.84261" lon="4.84276">
        <ele>358</ele>
        <time>2022-07-15T09:49:37.000Z</time>
      </trkpt>
      <trkpt lat="49.84258" lon="4.84277">
        <ele>358</ele>
        <time>2022-07-15T09:49:38.000Z</time>
      </trkpt>
      <trkpt lat="49.84255" lon="4.84279">
        <ele>359</ele>
        <time>2022-07-15T09:49:39.000Z</time>
      </trkpt>
      <trkpt lat="49.84254" lon="4.84284">
        <ele>359</ele>
        <time>2022-07-15T09:49:40.000Z</time>
      </trkpt>
      <trkpt lat="49.84252" lon="4.84289">
        <ele>359</ele>
        <time>2022-07-15T09:49:41.000Z</time>
      </trkpt>
      <trkpt lat="49.84251" lon="4.84295">
        <ele>359</ele>
        <time>2022-07-15T09:49:42.000Z</time>
      </trkpt>
      <trkpt lat="49.84249" lon="4.84301">
        <ele>359</ele>
        <time>2022-07-15T09:49:43.000Z</time>
      </trkpt>
      <trkpt lat="49.84245" lon="4.84305">
        <ele>359</ele>
        <time>2022-07-15T09:49:44.000Z</time>
      </trkpt>
      <trkpt lat="49.84241" lon="4.84308">
        <ele>359</ele>
        <time>2022-07-15T09:49:45.000Z</time>
      </trkpt>
      <trkpt lat="49.84236" lon="4.84309">
        <ele>359</ele>
        <time>2022-07-15T09:49:46.000Z</time>
      </trkpt>
      <trkpt lat="49.84231" lon="4.8431">
        <ele>359</ele>
        <time>2022-07-15T09:49:47.000Z</time>
      </trkpt>
      <trkpt lat="49.84226" lon="4.8431">
        <ele>359</ele>
        <time>2022-07-15T09:49:48.000Z</time>
      </trkpt>
      <trkpt lat="49.84221" lon="4.84309">
        <ele>359</ele>
        <time>2022-07-15T09:49:49.000Z</time>
      </trkpt>
      <trkpt lat="49.84215" lon="4.84309">
        <ele>359</ele>
        <time>2022-07-15T09:49:50.000Z</time>
      </trkpt>
      <trkpt lat="49.84209" lon="4.84309">
        <ele>359</ele>
        <time>2022-07-15T09:49:51.000Z</time>
      </trkpt>
      <trkpt lat="49.84203" lon="4.84309">
        <ele>359</ele>
        <time>2022-07-15T09:49:52.000Z</time>
      </trkpt>
      <trkpt lat="49.84196" lon="4.84309">
        <ele>359</ele>
        <time>2022-07-15T09:49:53.000Z</time>
      </trkpt>
      <trkpt lat="49.8419" lon="4.84309">
        <ele>359</ele>
        <time>2022-07-15T09:49:54.000Z</time>
      </trkpt>
      <trkpt lat="49.84184" lon="4.84308">
        <ele>358</ele>
        <time>2022-07-15T09:49:55.000Z</time>
      </trkpt>
      <trkpt lat="49.84178" lon="4.84308">
        <ele>358</ele>
        <time>2022-07-15T09:49:56.000Z</time>
      </trkpt>
      <trkpt lat="49.84172" lon="4.84308">
        <ele>358</ele>
        <time>2022-07-15T09:49:57.000Z</time>
      </trkpt>
      <trkpt lat="49.84167" lon="4.84307">
        <ele>358</ele>
        <time>2022-07-15T09:49:58.000Z</time>
      </trkpt>
      <trkpt lat="49.84161" lon="4.84307">
        <ele>358</ele>
        <time>2022-07-15T09:49:59.000Z</time>
      </trkpt>
      <trkpt lat="49.84156" lon="4.84306">
        <ele>358</ele>
        <time>2022-07-15T09:50:00.000Z</time>
      </trkpt>
      <trkpt lat="49.8415" lon="4.84305">
        <ele>357</ele>
        <time>2022-07-15T09:50:01.000Z</time>
      </trkpt>
      <trkpt lat="49.84145" lon="4.84305">
        <ele>357</ele>
        <time>2022-07-15T09:50:02.000Z</time>
      </trkpt>
      <trkpt lat="49.84139" lon="4.84304">
        <ele>357</ele>
        <time>2022-07-15T09:50:03.000Z</time>
      </trkpt>
      <trkpt lat="49.84134" lon="4.84304">
        <ele>357</ele>
        <time>2022-07-15T09:50:04.000Z</time>
      </trkpt>
      <trkpt lat="49.84129" lon="4.84303">
        <ele>357</ele>
        <time>2022-07-15T09:50:05.000Z</time>
      </trkpt>
      <trkpt lat="49.84123" lon="4.84301">
        <ele>356</ele>
        <time>2022-07-15T09:50:06.000Z</time>
      </trkpt>
      <trkpt lat="49.84117" lon="4.843">
        <ele>356</ele>
        <time>2022-07-15T09:50:07.000Z</time>
      </trkpt>
      <trkpt lat="49.84112" lon="4.84299">
        <ele>356</ele>
        <time>2022-07-15T09:50:08.000Z</time>
      </trkpt>
      <trkpt lat="49.84106" lon="4.84298">
        <ele>356</ele>
        <time>2022-07-15T09:50:09.000Z</time>
      </trkpt>
      <trkpt lat="49.84101" lon="4.84296">
        <ele>356</ele>
        <time>2022-07-15T09:50:10.000Z</time>
      </trkpt>
      <trkpt lat="49.84095" lon="4.84295">
        <ele>356</ele>
        <time>2022-07-15T09:50:11.000Z</time>
      </trkpt>
      <trkpt lat="49.84089" lon="4.84294">
        <ele>355</ele>
        <time>2022-07-15T09:50:12.000Z</time>
      </trkpt>
      <trkpt lat="49.84083" lon="4.84292">
        <ele>355</ele>
        <time>2022-07-15T09:50:13.000Z</time>
      </trkpt>
      <trkpt lat="49.84077" lon="4.84291">
        <ele>355</ele>
        <time>2022-07-15T09:50:14.000Z</time>
      </trkpt>
      <trkpt lat="49.84071" lon="4.84289">
        <ele>355</ele>
        <time>2022-07-15T09:50:15.000Z</time>
      </trkpt>
      <trkpt lat="49.84065" lon="4.84288">
        <ele>355</ele>
        <time>2022-07-15T09:50:16.000Z</time>
      </trkpt>
      <trkpt lat="49.84058" lon="4.84286">
        <ele>355</ele>
        <time>2022-07-15T09:50:17.000Z</time>
      </trkpt>
      <trkpt lat="49.84051" lon="4.84284">
        <ele>355</ele>
        <time>2022-07-15T09:50:18.000Z</time>
      </trkpt>
      <trkpt lat="49.84044" lon="4.84283">
        <ele>355</ele>
        <time>2022-07-15T09:50:19.000Z</time>
      </trkpt>
      <trkpt lat="49.84037" lon="4.84282">
        <ele>355</ele>
        <time>2022-07-15T09:50:20.000Z</time>
      </trkpt>
      <trkpt lat="49.84029" lon="4.8428">
        <ele>355</ele>
        <time>2022-07-15T09:50:21.000Z</time>
      </trkpt>
      <trkpt lat="49.84022" lon="4.84279">
        <ele>354</ele>
        <time>2022-07-15T09:50:22.000Z</time>
      </trkpt>
      <trkpt lat="49.84015" lon="4.84277">
        <ele>354</ele>
        <time>2022-07-15T09:50:23.000Z</time>
      </trkpt>
      <trkpt lat="49.84008" lon="4.84275">
        <ele>354</ele>
        <time>2022-07-15T09:50:24.000Z</time>
      </trkpt>
      <trkpt lat="49.84001" lon="4.84274">
        <ele>354</ele>
        <time>2022-07-15T09:50:25.000Z</time>
      </trkpt>
      <trkpt lat="49.83993" lon="4.84273">
        <ele>354</ele>
        <time>2022-07-15T09:50:26.000Z</time>
      </trkpt>
      <trkpt lat="49.83986" lon="4.84271">
        <ele>354</ele>
        <time>2022-07-15T09:50:27.000Z</time>
      </trkpt>
      <trkpt lat="49.83979" lon="4.8427">
        <ele>354</ele>
        <time>2022-07-15T09:50:28.000Z</time>
      </trkpt>
      <trkpt lat="49.83971" lon="4.84269">
        <ele>353</ele>
        <time>2022-07-15T09:50:29.000Z</time>
      </trkpt>
      <trkpt lat="49.83964" lon="4.84267">
        <ele>353</ele>
        <time>2022-07-15T09:50:30.000Z</time>
      </trkpt>
      <trkpt lat="49.83957" lon="4.84266">
        <ele>353</ele>
        <time>2022-07-15T09:50:31.000Z</time>
      </trkpt>
      <trkpt lat="49.8395" lon="4.84264">
        <ele>353</ele>
        <time>2022-07-15T09:50:32.000Z</time>
      </trkpt>
      <trkpt lat="49.83943" lon="4.84263">
        <ele>353</ele>
        <time>2022-07-15T09:50:33.000Z</time>
      </trkpt>
      <trkpt lat="49.83936" lon="4.84262">
        <ele>353</ele>
        <time>2022-07-15T09:50:34.000Z</time>
      </trkpt>
      <trkpt lat="49.83929" lon="4.8426">
        <ele>352</ele>
        <time>2022-07-15T09:50:35.000Z</time>
      </trkpt>
      <trkpt lat="49.83922" lon="4.84258">
        <ele>352</ele>
        <time>2022-07-15T09:50:36.000Z</time>
      </trkpt>
      <trkpt lat="49.83915" lon="4.84257">
        <ele>352</ele>
        <time>2022-07-15T09:50:37.000Z</time>
      </trkpt>
      <trkpt lat="49.83908" lon="4.84256">
        <ele>351</ele>
        <time>2022-07-15T09:50:38.000Z</time>
      </trkpt>
      <trkpt lat="49.83901" lon="4.84254">
        <ele>351</ele>
        <time>2022-07-15T09:50:39.000Z</time>
      </trkpt>
      <trkpt lat="49.83894" lon="4.84252">
        <ele>351</ele>
        <time>2022-07-15T09:50:40.000Z</time>
      </trkpt>
      <trkpt lat="49.83887" lon="4.8425">
        <ele>350</ele>
        <time>2022-07-15T09:50:41.000Z</time>
      </trkpt>
      <trkpt lat="49.8388" lon="4.84249">
        <ele>350</ele>
        <time>2022-07-15T09:50:42.000Z</time>
      </trkpt>
      <trkpt lat="49.83873" lon="4.84247">
        <ele>350</ele>
        <time>2022-07-15T09:50:43.000Z</time>
      </trkpt>
      <trkpt lat="49.83866" lon="4.84246">
        <ele>350</ele>
        <time>2022-07-15T09:50:44.000Z</time>
      </trkpt>
      <trkpt lat="49.8386" lon="4.84244">
        <ele>350</ele>
        <time>2022-07-15T09:50:45.000Z</time>
      </trkpt>
      <trkpt lat="49.83853" lon="4.84243">
        <ele>349</ele>
        <time>2022-07-15T09:50:46.000Z</time>
      </trkpt>
      <trkpt lat="49.83846" lon="4.84241">
        <ele>349</ele>
        <time>2022-07-15T09:50:47.000Z</time>
      </trkpt>
      <trkpt lat="49.8384" lon="4.84239">
        <ele>349</ele>
        <time>2022-07-15T09:50:48.000Z</time>
      </trkpt>
      <trkpt lat="49.83833" lon="4.84238">
        <ele>349</ele>
        <time>2022-07-15T09:50:49.000Z</time>
      </trkpt>
      <trkpt lat="49.83827" lon="4.84237">
        <ele>349</ele>
        <time>2022-07-15T09:50:50.000Z</time>
      </trkpt>
      <trkpt lat="49.8382" lon="4.84235">
        <ele>348</ele>
        <time>2022-07-15T09:50:51.000Z</time>
      </trkpt>
      <trkpt lat="49.83814" lon="4.84234">
        <ele>348</ele>
        <time>2022-07-15T09:50:52.000Z</time>
      </trkpt>
      <trkpt lat="49.83808" lon="4.84233">
        <ele>348</ele>
        <time>2022-07-15T09:50:53.000Z</time>
      </trkpt>
      <trkpt lat="49.83803" lon="4.84232">
        <ele>348</ele>
        <time>2022-07-15T09:50:54.000Z</time>
      </trkpt>
      <trkpt lat="49.83798" lon="4.84231">
        <ele>348</ele>
        <time>2022-07-15T09:50:55.000Z</time>
      </trkpt>
      <trkpt lat="49.83792" lon="4.84229">
        <ele>348</ele>
        <time>2022-07-15T09:50:56.000Z</time>
      </trkpt>
      <trkpt lat="49.83787" lon="4.84228">
        <ele>349</ele>
        <time>2022-07-15T09:50:57.000Z</time>
      </trkpt>
      <trkpt lat="49.83783" lon="4.84227">
        <ele>349</ele>
        <time>2022-07-15T09:50:58.000Z</time>
      </trkpt>
      <trkpt lat="49.83778" lon="4.84226">
        <ele>349</ele>
        <time>2022-07-15T09:50:59.000Z</time>
      </trkpt>
      <trkpt lat="49.83773" lon="4.84225">
        <ele>349</ele>
        <time>2022-07-15T09:51:00.000Z</time>
      </trkpt>
      <trkpt lat="49.83769" lon="4.84223">
        <ele>349</ele>
        <time>2022-07-15T09:51:01.000Z</time>
      </trkpt>
      <trkpt lat="49.83764" lon="4.84223">
        <ele>349</ele>
        <time>2022-07-15T09:51:02.000Z</time>
      </trkpt>
      <trkpt lat="49.8376" lon="4.84222">
        <ele>349</ele>
        <time>2022-07-15T09:51:03.000Z</time>
      </trkpt>
      <trkpt lat="49.83756" lon="4.84221">
        <ele>350</ele>
        <time>2022-07-15T09:51:04.000Z</time>
      </trkpt>
      <trkpt lat="49.83752" lon="4.84221">
        <ele>350</ele>
        <time>2022-07-15T09:51:05.000Z</time>
      </trkpt>
      <trkpt lat="49.83748" lon="4.8422">
        <ele>350</ele>
        <time>2022-07-15T09:51:06.000Z</time>
      </trkpt>
      <trkpt lat="49.83744" lon="4.84219">
        <ele>350</ele>
        <time>2022-07-15T09:51:07.000Z</time>
      </trkpt>
      <trkpt lat="49.8374" lon="4.84219">
        <ele>351</ele>
        <time>2022-07-15T09:51:08.000Z</time>
      </trkpt>
      <trkpt lat="49.83736" lon="4.84218">
        <ele>351</ele>
        <time>2022-07-15T09:51:09.000Z</time>
      </trkpt>
      <trkpt lat="49.83732" lon="4.84217">
        <ele>351</ele>
        <time>2022-07-15T09:51:10.000Z</time>
      </trkpt>
      <trkpt lat="49.83728" lon="4.84217">
        <ele>351</ele>
        <time>2022-07-15T09:51:11.000Z</time>
      </trkpt>
      <trkpt lat="49.83724" lon="4.84216">
        <ele>352</ele>
        <time>2022-07-15T09:51:12.000Z</time>
      </trkpt>
      <trkpt lat="49.8372" lon="4.84215">
        <ele>352</ele>
        <time>2022-07-15T09:51:13.000Z</time>
      </trkpt>
      <trkpt lat="49.83716" lon="4.84214">
        <ele>352</ele>
        <time>2022-07-15T09:51:14.000Z</time>
      </trkpt>
      <trkpt lat="49.83711" lon="4.84213">
        <ele>352</ele>
        <time>2022-07-15T09:51:15.000Z</time>
      </trkpt>
      <trkpt lat="49.83707" lon="4.84212">
        <ele>353</ele>
        <time>2022-07-15T09:51:16.000Z</time>
      </trkpt>
      <trkpt lat="49.83703" lon="4.84212">
        <ele>353</ele>
        <time>2022-07-15T09:51:17.000Z</time>
      </trkpt>
      <trkpt lat="49.83699" lon="4.84211">
        <ele>353</ele>
        <time>2022-07-15T09:51:18.000Z</time>
      </trkpt>
      <trkpt lat="49.83694" lon="4.8421">
        <ele>353</ele>
        <time>2022-07-15T09:51:19.000Z</time>
      </trkpt>
      <trkpt lat="49.8369" lon="4.84209">
        <ele>353</ele>
        <time>2022-07-15T09:51:20.000Z</time>
      </trkpt>
      <trkpt lat="49.83686" lon="4.84208">
        <ele>354</ele>
        <time>2022-07-15T09:51:21.000Z</time>
      </trkpt>
      <trkpt lat="49.83683" lon="4.84207">
        <ele>354</ele>
        <time>2022-07-15T09:51:22.000Z</time>
      </trkpt>
      <trkpt lat="49.83679" lon="4.84206">
        <ele>354</ele>
        <time>2022-07-15T09:51:23.000Z</time>
      </trkpt>
      <trkpt lat="49.83675" lon="4.84205">
        <ele>354</ele>
        <time>2022-07-15T09:51:24.000Z</time>
      </trkpt>
      <trkpt lat="49.83672" lon="4.84206">
        <ele>354</ele>
        <time>2022-07-15T09:51:25.000Z</time>
      </trkpt>
      <trkpt lat="49.83669" lon="4.84205">
        <ele>355</ele>
        <time>2022-07-15T09:51:26.000Z</time>
      </trkpt>
      <trkpt lat="49.83667" lon="4.84205">
        <ele>355</ele>
        <time>2022-07-15T09:51:27.000Z</time>
      </trkpt>
      <trkpt lat="49.83664" lon="4.84205">
        <ele>355</ele>
        <time>2022-07-15T09:51:28.000Z</time>
      </trkpt>
      <trkpt lat="49.83662" lon="4.84204">
        <ele>355</ele>
        <time>2022-07-15T09:51:29.000Z</time>
      </trkpt>
      <trkpt lat="49.83659" lon="4.84203">
        <ele>356</ele>
        <time>2022-07-15T09:51:30.000Z</time>
      </trkpt>
      <trkpt lat="49.83657" lon="4.84202">
        <ele>356</ele>
        <time>2022-07-15T09:51:31.000Z</time>
      </trkpt>
      <trkpt lat="49.83655" lon="4.84202">
        <ele>356</ele>
        <time>2022-07-15T09:51:32.000Z</time>
      </trkpt>
      <trkpt lat="49.83654" lon="4.84202">
        <ele>356</ele>
        <time>2022-07-15T09:51:33.000Z</time>
      </trkpt>
      <trkpt lat="49.83653" lon="4.84203">
        <ele>357</ele>
        <time>2022-07-15T09:51:34.000Z</time>
      </trkpt>
      <trkpt lat="49.83652" lon="4.84205">
        <ele>357</ele>
        <time>2022-07-15T09:51:35.000Z</time>
      </trkpt>
      <trkpt lat="49.83651" lon="4.84208">
        <ele>357</ele>
        <time>2022-07-15T09:51:36.000Z</time>
      </trkpt>
      <trkpt lat="49.83649" lon="4.8421">
        <ele>357</ele>
        <time>2022-07-15T09:51:37.000Z</time>
      </trkpt>
      <trkpt lat="49.83646" lon="4.84213">
        <ele>357</ele>
        <time>2022-07-15T09:51:38.000Z</time>
      </trkpt>
      <trkpt lat="49.83644" lon="4.84217">
        <ele>357</ele>
        <time>2022-07-15T09:51:39.000Z</time>
      </trkpt>
      <trkpt lat="49.83641" lon="4.84223">
        <ele>357</ele>
        <time>2022-07-15T09:51:40.000Z</time>
      </trkpt>
      <trkpt lat="49.83638" lon="4.8423">
        <ele>358</ele>
        <time>2022-07-15T09:51:41.000Z</time>
      </trkpt>
      <trkpt lat="49.83635" lon="4.84238">
        <ele>358</ele>
        <time>2022-07-15T09:51:42.000Z</time>
      </trkpt>
      <trkpt lat="49.83632" lon="4.84246">
        <ele>358</ele>
        <time>2022-07-15T09:51:43.000Z</time>
      </trkpt>
      <trkpt lat="49.83629" lon="4.84255">
        <ele>358</ele>
        <time>2022-07-15T09:51:44.000Z</time>
      </trkpt>
      <trkpt lat="49.83626" lon="4.84264">
        <ele>358</ele>
        <time>2022-07-15T09:51:45.000Z</time>
      </trkpt>
      <trkpt lat="49.83622" lon="4.84274">
        <ele>358</ele>
        <time>2022-07-15T09:51:46.000Z</time>
      </trkpt>
      <trkpt lat="49.83619" lon="4.84284">
        <ele>358</ele>
        <time>2022-07-15T09:51:47.000Z</time>
      </trkpt>
      <trkpt lat="49.83616" lon="4.84294">
        <ele>358</ele>
        <time>2022-07-15T09:51:48.000Z</time>
      </trkpt>
      <trkpt lat="49.83613" lon="4.84304">
        <ele>358</ele>
        <time>2022-07-15T09:51:49.000Z</time>
      </trkpt>
      <trkpt lat="49.83609" lon="4.84314">
        <ele>358</ele>
        <time>2022-07-15T09:51:50.000Z</time>
      </trkpt>
      <trkpt lat="49.83606" lon="4.84324">
        <ele>358</ele>
        <time>2022-07-15T09:51:51.000Z</time>
      </trkpt>
      <trkpt lat="49.83603" lon="4.84335">
        <ele>358</ele>
        <time>2022-07-15T09:51:52.000Z</time>
      </trkpt>
      <trkpt lat="49.836" lon="4.84345">
        <ele>358</ele>
        <time>2022-07-15T09:51:53.000Z</time>
      </trkpt>
      <trkpt lat="49.83598" lon="4.84356">
        <ele>357</ele>
        <time>2022-07-15T09:51:54.000Z</time>
      </trkpt>
      <trkpt lat="49.83596" lon="4.84367">
        <ele>357</ele>
        <time>2022-07-15T09:51:55.000Z</time>
      </trkpt>
      <trkpt lat="49.83594" lon="4.84378">
        <ele>357</ele>
        <time>2022-07-15T09:51:56.000Z</time>
      </trkpt>
      <trkpt lat="49.83591" lon="4.84389">
        <ele>357</ele>
        <time>2022-07-15T09:51:57.000Z</time>
      </trkpt>
      <trkpt lat="49.83589" lon="4.84399">
        <ele>356</ele>
        <time>2022-07-15T09:51:58.000Z</time>
      </trkpt>
      <trkpt lat="49.83587" lon="4.8441">
        <ele>356</ele>
        <time>2022-07-15T09:51:59.000Z</time>
      </trkpt>
      <trkpt lat="49.83584" lon="4.8442">
        <ele>355</ele>
        <time>2022-07-15T09:52:00.000Z</time>
      </trkpt>
      <trkpt lat="49.83582" lon="4.84431">
        <ele>355</ele>
        <time>2022-07-15T09:52:01.000Z</time>
      </trkpt>
      <trkpt lat="49.8358" lon="4.84441">
        <ele>354</ele>
        <time>2022-07-15T09:52:02.000Z</time>
      </trkpt>
      <trkpt lat="49.83578" lon="4.84451">
        <ele>354</ele>
        <time>2022-07-15T09:52:03.000Z</time>
      </trkpt>
      <trkpt lat="49.83576" lon="4.84461">
        <ele>353</ele>
        <time>2022-07-15T09:52:04.000Z</time>
      </trkpt>
      <trkpt lat="49.83574" lon="4.84471">
        <ele>353</ele>
        <time>2022-07-15T09:52:05.000Z</time>
      </trkpt>
      <trkpt lat="49.83572" lon="4.84481">
        <ele>352</ele>
        <time>2022-07-15T09:52:06.000Z</time>
      </trkpt>
      <trkpt lat="49.83571" lon="4.84491">
        <ele>352</ele>
        <time>2022-07-15T09:52:07.000Z</time>
      </trkpt>
      <trkpt lat="49.83569" lon="4.845">
        <ele>351</ele>
        <time>2022-07-15T09:52:08.000Z</time>
      </trkpt>
      <trkpt lat="49.83567" lon="4.8451">
        <ele>351</ele>
        <time>2022-07-15T09:52:09.000Z</time>
      </trkpt>
      <trkpt lat="49.83565" lon="4.84519">
        <ele>351</ele>
        <time>2022-07-15T09:52:10.000Z</time>
      </trkpt>
      <trkpt lat="49.83563" lon="4.84529">
        <ele>350</ele>
        <time>2022-07-15T09:52:11.000Z</time>
      </trkpt>
      <trkpt lat="49.83562" lon="4.84538">
        <ele>350</ele>
        <time>2022-07-15T09:52:12.000Z</time>
      </trkpt>
      <trkpt lat="49.8356" lon="4.84548">
        <ele>349</ele>
        <time>2022-07-15T09:52:13.000Z</time>
      </trkpt>
      <trkpt lat="49.83558" lon="4.84557">
        <ele>349</ele>
        <time>2022-07-15T09:52:14.000Z</time>
      </trkpt>
      <trkpt lat="49.83556" lon="4.84567">
        <ele>349</ele>
        <time>2022-07-15T09:52:15.000Z</time>
      </trkpt>
      <trkpt lat="49.83554" lon="4.84576">
        <ele>348</ele>
        <time>2022-07-15T09:52:16.000Z</time>
      </trkpt>
      <trkpt lat="49.83553" lon="4.84585">
        <ele>348</ele>
        <time>2022-07-15T09:52:17.000Z</time>
      </trkpt>
      <trkpt lat="49.83551" lon="4.84594">
        <ele>348</ele>
        <time>2022-07-15T09:52:18.000Z</time>
      </trkpt>
      <trkpt lat="49.83549" lon="4.84603">
        <ele>347</ele>
        <time>2022-07-15T09:52:19.000Z</time>
      </trkpt>
      <trkpt lat="49.83547" lon="4.84612">
        <ele>347</ele>
        <time>2022-07-15T09:52:20.000Z</time>
      </trkpt>
      <trkpt lat="49.83545" lon="4.84621">
        <ele>347</ele>
        <time>2022-07-15T09:52:21.000Z</time>
      </trkpt>
      <trkpt lat="49.83544" lon="4.84629">
        <ele>347</ele>
        <time>2022-07-15T09:52:22.000Z</time>
      </trkpt>
      <trkpt lat="49.83542" lon="4.84637">
        <ele>346</ele>
        <time>2022-07-15T09:52:23.000Z</time>
      </trkpt>
      <trkpt lat="49.8354" lon="4.84646">
        <ele>346</ele>
        <time>2022-07-15T09:52:24.000Z</time>
      </trkpt>
      <trkpt lat="49.83538" lon="4.84654">
        <ele>346</ele>
        <time>2022-07-15T09:52:25.000Z</time>
      </trkpt>
      <trkpt lat="49.83537" lon="4.84662">
        <ele>345</ele>
        <time>2022-07-15T09:52:26.000Z</time>
      </trkpt>
      <trkpt lat="49.83535" lon="4.8467">
        <ele>345</ele>
        <time>2022-07-15T09:52:27.000Z</time>
      </trkpt>
      <trkpt lat="49.83533" lon="4.84678">
        <ele>345</ele>
        <time>2022-07-15T09:52:28.000Z</time>
      </trkpt>
      <trkpt lat="49.83532" lon="4.84686">
        <ele>345</ele>
        <time>2022-07-15T09:52:29.000Z</time>
      </trkpt>
      <trkpt lat="49.83531" lon="4.84694">
        <ele>345</ele>
        <time>2022-07-15T09:52:30.000Z</time>
      </trkpt>
      <trkpt lat="49.83529" lon="4.84702">
        <ele>344</ele>
        <time>2022-07-15T09:52:31.000Z</time>
      </trkpt>
      <trkpt lat="49.83528" lon="4.84709">
        <ele>344</ele>
        <time>2022-07-15T09:52:32.000Z</time>
      </trkpt>
      <trkpt lat="49.83527" lon="4.84716">
        <ele>344</ele>
        <time>2022-07-15T09:52:33.000Z</time>
      </trkpt>
      <trkpt lat="49.83526" lon="4.84724">
        <ele>344</ele>
        <time>2022-07-15T09:52:34.000Z</time>
      </trkpt>
      <trkpt lat="49.83525" lon="4.84731">
        <ele>344</ele>
        <time>2022-07-15T09:52:35.000Z</time>
      </trkpt>
      <trkpt lat="49.83524" lon="4.84739">
        <ele>344</ele>
        <time>2022-07-15T09:52:36.000Z</time>
      </trkpt>
      <trkpt lat="49.83523" lon="4.84746">
        <ele>344</ele>
        <time>2022-07-15T09:52:37.000Z</time>
      </trkpt>
      <trkpt lat="49.83521" lon="4.84754">
        <ele>343</ele>
        <time>2022-07-15T09:52:38.000Z</time>
      </trkpt>
      <trkpt lat="49.8352" lon="4.84761">
        <ele>343</ele>
        <time>2022-07-15T09:52:39.000Z</time>
      </trkpt>
      <trkpt lat="49.83518" lon="4.84769">
        <ele>343</ele>
        <time>2022-07-15T09:52:40.000Z</time>
      </trkpt>
      <trkpt lat="49.83517" lon="4.84777">
        <ele>343</ele>
        <time>2022-07-15T09:52:41.000Z</time>
      </trkpt>
      <trkpt lat="49.83516" lon="4.84785">
        <ele>343</ele>
        <time>2022-07-15T09:52:42.000Z</time>
      </trkpt>
      <trkpt lat="49.83515" lon="4.84793">
        <ele>343</ele>
        <time>2022-07-15T09:52:43.000Z</time>
      </trkpt>
      <trkpt lat="49.83513" lon="4.84801">
        <ele>343</ele>
        <time>2022-07-15T09:52:44.000Z</time>
      </trkpt>
      <trkpt lat="49.83512" lon="4.84809">
        <ele>343</ele>
        <time>2022-07-15T09:52:45.000Z</time>
      </trkpt>
      <trkpt lat="49.83511" lon="4.84817">
        <ele>343</ele>
        <time>2022-07-15T09:52:46.000Z</time>
      </trkpt>
      <trkpt lat="49.83509" lon="4.84824">
        <ele>343</ele>
        <time>2022-07-15T09:52:47.000Z</time>
      </trkpt>
      <trkpt lat="49.83508" lon="4.84832">
        <ele>343</ele>
        <time>2022-07-15T09:52:48.000Z</time>
      </trkpt>
      <trkpt lat="49.83507" lon="4.84839">
        <ele>343</ele>
        <time>2022-07-15T09:52:49.000Z</time>
      </trkpt>
      <trkpt lat="49.83506" lon="4.84847">
        <ele>343</ele>
        <time>2022-07-15T09:52:50.000Z</time>
      </trkpt>
      <trkpt lat="49.83504" lon="4.84854">
        <ele>343</ele>
        <time>2022-07-15T09:52:51.000Z</time>
      </trkpt>
      <trkpt lat="49.83503" lon="4.84861">
        <ele>343</ele>
        <time>2022-07-15T09:52:52.000Z</time>
      </trkpt>
      <trkpt lat="49.83501" lon="4.84867">
        <ele>343</ele>
        <time>2022-07-15T09:52:53.000Z</time>
      </trkpt>
      <trkpt lat="49.835" lon="4.84873">
        <ele>343</ele>
        <time>2022-07-15T09:52:54.000Z</time>
      </trkpt>
      <trkpt lat="49.83498" lon="4.84878">
        <ele>343</ele>
        <time>2022-07-15T09:52:55.000Z</time>
      </trkpt>
      <trkpt lat="49.83496" lon="4.84883">
        <ele>343</ele>
        <time>2022-07-15T09:52:56.000Z</time>
      </trkpt>
      <trkpt lat="49.83494" lon="4.84888">
        <ele>343</ele>
        <time>2022-07-15T09:52:57.000Z</time>
      </trkpt>
      <trkpt lat="49.83492" lon="4.84893">
        <ele>343</ele>
        <time>2022-07-15T09:52:58.000Z</time>
      </trkpt>
      <trkpt lat="49.83489" lon="4.84897">
        <ele>343</ele>
        <time>2022-07-15T09:52:59.000Z</time>
      </trkpt>
      <trkpt lat="49.83487" lon="4.84901">
        <ele>343</ele>
        <time>2022-07-15T09:53:00.000Z</time>
      </trkpt>
      <trkpt lat="49.83484" lon="4.84905">
        <ele>344</ele>
        <time>2022-07-15T09:53:01.000Z</time>
      </trkpt>
      <trkpt lat="49.83481" lon="4.84909">
        <ele>344</ele>
        <time>2022-07-15T09:53:02.000Z</time>
      </trkpt>
      <trkpt lat="49.83479" lon="4.84912">
        <ele>344</ele>
        <time>2022-07-15T09:53:03.000Z</time>
      </trkpt>
      <trkpt lat="49.83476" lon="4.84916">
        <ele>344</ele>
        <time>2022-07-15T09:53:04.000Z</time>
      </trkpt>
      <trkpt lat="49.83473" lon="4.8492">
        <ele>344</ele>
        <time>2022-07-15T09:53:05.000Z</time>
      </trkpt>
      <trkpt lat="49.8347" lon="4.84923">
        <ele>344</ele>
        <time>2022-07-15T09:53:06.000Z</time>
      </trkpt>
      <trkpt lat="49.83467" lon="4.84926">
        <ele>344</ele>
        <time>2022-07-15T09:53:07.000Z</time>
      </trkpt>
      <trkpt lat="49.83465" lon="4.84928">
        <ele>344</ele>
        <time>2022-07-15T09:53:08.000Z</time>
      </trkpt>
      <trkpt lat="49.83462" lon="4.84931">
        <ele>344</ele>
        <time>2022-07-15T09:53:09.000Z</time>
      </trkpt>
      <trkpt lat="49.83459" lon="4.84934">
        <ele>345</ele>
        <time>2022-07-15T09:53:10.000Z</time>
      </trkpt>
      <trkpt lat="49.83456" lon="4.84938">
        <ele>345</ele>
        <time>2022-07-15T09:53:11.000Z</time>
      </trkpt>
      <trkpt lat="49.83452" lon="4.8494">
        <ele>345</ele>
        <time>2022-07-15T09:53:12.000Z</time>
      </trkpt>
      <trkpt lat="49.83449" lon="4.84943">
        <ele>345</ele>
        <time>2022-07-15T09:53:13.000Z</time>
      </trkpt>
      <trkpt lat="49.83446" lon="4.84947">
        <ele>345</ele>
        <time>2022-07-15T09:53:14.000Z</time>
      </trkpt>
      <trkpt lat="49.83443" lon="4.8495">
        <ele>345</ele>
        <time>2022-07-15T09:53:15.000Z</time>
      </trkpt>
      <trkpt lat="49.8344" lon="4.84953">
        <ele>345</ele>
        <time>2022-07-15T09:53:16.000Z</time>
      </trkpt>
      <trkpt lat="49.83437" lon="4.84956">
        <ele>346</ele>
        <time>2022-07-15T09:53:17.000Z</time>
      </trkpt>
      <trkpt lat="49.83434" lon="4.84958">
        <ele>346</ele>
        <time>2022-07-15T09:53:18.000Z</time>
      </trkpt>
      <trkpt lat="49.83431" lon="4.84961">
        <ele>346</ele>
        <time>2022-07-15T09:53:19.000Z</time>
      </trkpt>
      <trkpt lat="49.83428" lon="4.84964">
        <ele>346</ele>
        <time>2022-07-15T09:53:20.000Z</time>
      </trkpt>
      <trkpt lat="49.83425" lon="4.84966">
        <ele>346</ele>
        <time>2022-07-15T09:53:21.000Z</time>
      </trkpt>
      <trkpt lat="49.83421" lon="4.84969">
        <ele>346</ele>
        <time>2022-07-15T09:53:22.000Z</time>
      </trkpt>
      <trkpt lat="49.83419" lon="4.84972">
        <ele>346</ele>
        <time>2022-07-15T09:53:23.000Z</time>
      </trkpt>
      <trkpt lat="49.83416" lon="4.84975">
        <ele>347</ele>
        <time>2022-07-15T09:53:24.000Z</time>
      </trkpt>
      <trkpt lat="49.83413" lon="4.84978">
        <ele>347</ele>
        <time>2022-07-15T09:53:25.000Z</time>
      </trkpt>
      <trkpt lat="49.83411" lon="4.84981">
        <ele>347</ele>
        <time>2022-07-15T09:53:26.000Z</time>
      </trkpt>
      <trkpt lat="49.83408" lon="4.84983">
        <ele>347</ele>
        <time>2022-07-15T09:53:27.000Z</time>
      </trkpt>
      <trkpt lat="49.83405" lon="4.84986">
        <ele>347</ele>
        <time>2022-07-15T09:53:28.000Z</time>
      </trkpt>
      <trkpt lat="49.83403" lon="4.84988">
        <ele>347</ele>
        <time>2022-07-15T09:53:29.000Z</time>
      </trkpt>
      <trkpt lat="49.834" lon="4.84991">
        <ele>348</ele>
        <time>2022-07-15T09:53:30.000Z</time>
      </trkpt>
      <trkpt lat="49.83397" lon="4.84993">
        <ele>348</ele>
        <time>2022-07-15T09:53:31.000Z</time>
      </trkpt>
      <trkpt lat="49.83394" lon="4.84996">
        <ele>348</ele>
        <time>2022-07-15T09:53:32.000Z</time>
      </trkpt>
      <trkpt lat="49.83391" lon="4.84999">
        <ele>348</ele>
        <time>2022-07-15T09:53:33.000Z</time>
      </trkpt>
      <trkpt lat="49.83388" lon="4.85002">
        <ele>348</ele>
        <time>2022-07-15T09:53:34.000Z</time>
      </trkpt>
      <trkpt lat="49.83385" lon="4.85004">
        <ele>348</ele>
        <time>2022-07-15T09:53:35.000Z</time>
      </trkpt>
      <trkpt lat="49.83382" lon="4.85007">
        <ele>348</ele>
        <time>2022-07-15T09:53:36.000Z</time>
      </trkpt>
      <trkpt lat="49.83379" lon="4.85009">
        <ele>349</ele>
        <time>2022-07-15T09:53:37.000Z</time>
      </trkpt>
      <trkpt lat="49.83376" lon="4.85012">
        <ele>349</ele>
        <time>2022-07-15T09:53:38.000Z</time>
      </trkpt>
      <trkpt lat="49.83373" lon="4.85014">
        <ele>349</ele>
        <time>2022-07-15T09:53:39.000Z</time>
      </trkpt>
      <trkpt lat="49.8337" lon="4.85017">
        <ele>349</ele>
        <time>2022-07-15T09:53:40.000Z</time>
      </trkpt>
      <trkpt lat="49.83367" lon="4.8502">
        <ele>349</ele>
        <time>2022-07-15T09:53:41.000Z</time>
      </trkpt>
      <trkpt lat="49.83364" lon="4.85022">
        <ele>349</ele>
        <time>2022-07-15T09:53:42.000Z</time>
      </trkpt>
      <trkpt lat="49.83362" lon="4.85024">
        <ele>349</ele>
        <time>2022-07-15T09:53:43.000Z</time>
      </trkpt>
      <trkpt lat="49.83359" lon="4.85026">
        <ele>349</ele>
        <time>2022-07-15T09:53:44.000Z</time>
      </trkpt>
      <trkpt lat="49.83357" lon="4.85028">
        <ele>349</ele>
        <time>2022-07-15T09:53:45.000Z</time>
      </trkpt>
      <trkpt lat="49.83354" lon="4.8503">
        <ele>349</ele>
        <time>2022-07-15T09:53:46.000Z</time>
      </trkpt>
      <trkpt lat="49.83352" lon="4.85032">
        <ele>349</ele>
        <time>2022-07-15T09:53:47.000Z</time>
      </trkpt>
      <trkpt lat="49.83349" lon="4.85033">
        <ele>349</ele>
        <time>2022-07-15T09:53:48.000Z</time>
      </trkpt>
      <trkpt lat="49.83346" lon="4.85035">
        <ele>350</ele>
        <time>2022-07-15T09:53:49.000Z</time>
      </trkpt>
      <trkpt lat="49.83344" lon="4.85036">
        <ele>350</ele>
        <time>2022-07-15T09:53:50.000Z</time>
      </trkpt>
      <trkpt lat="49.83341" lon="4.85038">
        <ele>350</ele>
        <time>2022-07-15T09:53:51.000Z</time>
      </trkpt>
      <trkpt lat="49.83338" lon="4.8504">
        <ele>350</ele>
        <time>2022-07-15T09:53:52.000Z</time>
      </trkpt>
      <trkpt lat="49.83336" lon="4.85041">
        <ele>351</ele>
        <time>2022-07-15T09:53:53.000Z</time>
      </trkpt>
      <trkpt lat="49.83333" lon="4.85042">
        <ele>351</ele>
        <time>2022-07-15T09:53:54.000Z</time>
      </trkpt>
      <trkpt lat="49.8333" lon="4.85043">
        <ele>351</ele>
        <time>2022-07-15T09:53:55.000Z</time>
      </trkpt>
      <trkpt lat="49.83328" lon="4.85043">
        <ele>351</ele>
        <time>2022-07-15T09:53:56.000Z</time>
      </trkpt>
      <trkpt lat="49.83325" lon="4.85044">
        <ele>352</ele>
        <time>2022-07-15T09:53:57.000Z</time>
      </trkpt>
      <trkpt lat="49.83323" lon="4.85044">
        <ele>352</ele>
        <time>2022-07-15T09:53:58.000Z</time>
      </trkpt>
      <trkpt lat="49.8332" lon="4.85045">
        <ele>352</ele>
        <time>2022-07-15T09:53:59.000Z</time>
      </trkpt>
      <trkpt lat="49.83317" lon="4.85046">
        <ele>353</ele>
        <time>2022-07-15T09:54:00.000Z</time>
      </trkpt>
      <trkpt lat="49.83314" lon="4.85046">
        <ele>353</ele>
        <time>2022-07-15T09:54:01.000Z</time>
      </trkpt>
      <trkpt lat="49.83311" lon="4.85047">
        <ele>353</ele>
        <time>2022-07-15T09:54:02.000Z</time>
      </trkpt>
      <trkpt lat="49.83307" lon="4.85047">
        <ele>353</ele>
        <time>2022-07-15T09:54:03.000Z</time>
      </trkpt>
      <trkpt lat="49.83304" lon="4.85048">
        <ele>353</ele>
        <time>2022-07-15T09:54:04.000Z</time>
      </trkpt>
      <trkpt lat="49.83301" lon="4.85049">
        <ele>354</ele>
        <time>2022-07-15T09:54:05.000Z</time>
      </trkpt>
      <trkpt lat="49.83297" lon="4.85051">
        <ele>354</ele>
        <time>2022-07-15T09:54:06.000Z</time>
      </trkpt>
      <trkpt lat="49.83293" lon="4.85052">
        <ele>354</ele>
        <time>2022-07-15T09:54:07.000Z</time>
      </trkpt>
      <trkpt lat="49.8329" lon="4.85054">
        <ele>355</ele>
        <time>2022-07-15T09:54:08.000Z</time>
      </trkpt>
      <trkpt lat="49.83286" lon="4.85055">
        <ele>355</ele>
        <time>2022-07-15T09:54:09.000Z</time>
      </trkpt>
      <trkpt lat="49.83283" lon="4.85056">
        <ele>355</ele>
        <time>2022-07-15T09:54:10.000Z</time>
      </trkpt>
      <trkpt lat="49.8328" lon="4.85057">
        <ele>356</ele>
        <time>2022-07-15T09:54:11.000Z</time>
      </trkpt>
      <trkpt lat="49.83276" lon="4.85057">
        <ele>356</ele>
        <time>2022-07-15T09:54:12.000Z</time>
      </trkpt>
      <trkpt lat="49.83273" lon="4.85056">
        <ele>356</ele>
        <time>2022-07-15T09:54:13.000Z</time>
      </trkpt>
      <trkpt lat="49.83269" lon="4.85056">
        <ele>356</ele>
        <time>2022-07-15T09:54:14.000Z</time>
      </trkpt>
      <trkpt lat="49.83266" lon="4.85054">
        <ele>357</ele>
        <time>2022-07-15T09:54:15.000Z</time>
      </trkpt>
      <trkpt lat="49.83263" lon="4.85052">
        <ele>357</ele>
        <time>2022-07-15T09:54:16.000Z</time>
      </trkpt>
      <trkpt lat="49.8326" lon="4.85049">
        <ele>357</ele>
        <time>2022-07-15T09:54:17.000Z</time>
      </trkpt>
      <trkpt lat="49.83257" lon="4.85047">
        <ele>358</ele>
        <time>2022-07-15T09:54:18.000Z</time>
      </trkpt>
      <trkpt lat="49.83254" lon="4.85044">
        <ele>358</ele>
        <time>2022-07-15T09:54:19.000Z</time>
      </trkpt>
      <trkpt lat="49.83251" lon="4.85041">
        <ele>358</ele>
        <time>2022-07-15T09:54:20.000Z</time>
      </trkpt>
      <trkpt lat="49.83248" lon="4.85038">
        <ele>358</ele>
        <time>2022-07-15T09:54:21.000Z</time>
      </trkpt>
      <trkpt lat="49.83244" lon="4.85035">
        <ele>358</ele>
        <time>2022-07-15T09:54:22.000Z</time>
      </trkpt>
      <trkpt lat="49.83241" lon="4.85031">
        <ele>359</ele>
        <time>2022-07-15T09:54:23.000Z</time>
      </trkpt>
      <trkpt lat="49.83237" lon="4.85028">
        <ele>359</ele>
        <time>2022-07-15T09:54:24.000Z</time>
      </trkpt>
      <trkpt lat="49.83233" lon="4.85024">
        <ele>359</ele>
        <time>2022-07-15T09:54:25.000Z</time>
      </trkpt>
      <trkpt lat="49.83229" lon="4.8502">
        <ele>359</ele>
        <time>2022-07-15T09:54:26.000Z</time>
      </trkpt>
      <trkpt lat="49.83225" lon="4.85016">
        <ele>359</ele>
        <time>2022-07-15T09:54:27.000Z</time>
      </trkpt>
      <trkpt lat="49.83221" lon="4.85012">
        <ele>359</ele>
        <time>2022-07-15T09:54:28.000Z</time>
      </trkpt>
      <trkpt lat="49.83218" lon="4.85009">
        <ele>359</ele>
        <time>2022-07-15T09:54:29.000Z</time>
      </trkpt>
      <trkpt lat="49.83214" lon="4.85005">
        <ele>359</ele>
        <time>2022-07-15T09:54:30.000Z</time>
      </trkpt>
      <trkpt lat="49.8321" lon="4.85001">
        <ele>359</ele>
        <time>2022-07-15T09:54:31.000Z</time>
      </trkpt>
      <trkpt lat="49.83205" lon="4.84997">
        <ele>359</ele>
        <time>2022-07-15T09:54:32.000Z</time>
      </trkpt>
      <trkpt lat="49.83201" lon="4.84993">
        <ele>359</ele>
        <time>2022-07-15T09:54:33.000Z</time>
      </trkpt>
      <trkpt lat="49.83197" lon="4.84989">
        <ele>360</ele>
        <time>2022-07-15T09:54:34.000Z</time>
      </trkpt>
      <trkpt lat="49.83192" lon="4.84985">
        <ele>360</ele>
        <time>2022-07-15T09:54:35.000Z</time>
      </trkpt>
      <trkpt lat="49.83188" lon="4.84981">
        <ele>360</ele>
        <time>2022-07-15T09:54:36.000Z</time>
      </trkpt>
      <trkpt lat="49.83184" lon="4.84976">
        <ele>360</ele>
        <time>2022-07-15T09:54:37.000Z</time>
      </trkpt>
      <trkpt lat="49.83179" lon="4.84972">
        <ele>360</ele>
        <time>2022-07-15T09:54:38.000Z</time>
      </trkpt>
      <trkpt lat="49.83175" lon="4.84968">
        <ele>361</ele>
        <time>2022-07-15T09:54:39.000Z</time>
      </trkpt>
      <trkpt lat="49.83171" lon="4.84964">
        <ele>361</ele>
        <time>2022-07-15T09:54:40.000Z</time>
      </trkpt>
      <trkpt lat="49.83166" lon="4.84959">
        <ele>361</ele>
        <time>2022-07-15T09:54:41.000Z</time>
      </trkpt>
      <trkpt lat="49.83161" lon="4.84955">
        <ele>361</ele>
        <time>2022-07-15T09:54:42.000Z</time>
      </trkpt>
      <trkpt lat="49.83157" lon="4.84951">
        <ele>361</ele>
        <time>2022-07-15T09:54:43.000Z</time>
      </trkpt>
      <trkpt lat="49.83153" lon="4.84947">
        <ele>362</ele>
        <time>2022-07-15T09:54:44.000Z</time>
      </trkpt>
      <trkpt lat="49.83149" lon="4.84944">
        <ele>362</ele>
        <time>2022-07-15T09:54:45.000Z</time>
      </trkpt>
      <trkpt lat="49.83144" lon="4.8494">
        <ele>362</ele>
        <time>2022-07-15T09:54:46.000Z</time>
      </trkpt>
      <trkpt lat="49.8314" lon="4.84936">
        <ele>362</ele>
        <time>2022-07-15T09:54:47.000Z</time>
      </trkpt>
      <trkpt lat="49.83135" lon="4.84931">
        <ele>362</ele>
        <time>2022-07-15T09:54:48.000Z</time>
      </trkpt>
      <trkpt lat="49.83131" lon="4.84927">
        <ele>362</ele>
        <time>2022-07-15T09:54:49.000Z</time>
      </trkpt>
      <trkpt lat="49.83128" lon="4.84923">
        <ele>362</ele>
        <time>2022-07-15T09:54:50.000Z</time>
      </trkpt>
      <trkpt lat="49.83124" lon="4.84918">
        <ele>363</ele>
        <time>2022-07-15T09:54:51.000Z</time>
      </trkpt>
      <trkpt lat="49.83121" lon="4.84915">
        <ele>363</ele>
        <time>2022-07-15T09:54:52.000Z</time>
      </trkpt>
      <trkpt lat="49.83117" lon="4.84911">
        <ele>363</ele>
        <time>2022-07-15T09:54:53.000Z</time>
      </trkpt>
      <trkpt lat="49.83113" lon="4.84907">
        <ele>363</ele>
        <time>2022-07-15T09:54:54.000Z</time>
      </trkpt>
      <trkpt lat="49.83108" lon="4.84903">
        <ele>363</ele>
        <time>2022-07-15T09:54:55.000Z</time>
      </trkpt>
      <trkpt lat="49.83103" lon="4.84898">
        <ele>362</ele>
        <time>2022-07-15T09:54:56.000Z</time>
      </trkpt>
      <trkpt lat="49.83098" lon="4.84893">
        <ele>362</ele>
        <time>2022-07-15T09:54:57.000Z</time>
      </trkpt>
      <trkpt lat="49.83093" lon="4.84888">
        <ele>362</ele>
        <time>2022-07-15T09:54:58.000Z</time>
      </trkpt>
      <trkpt lat="49.83088" lon="4.84884">
        <ele>362</ele>
        <time>2022-07-15T09:54:59.000Z</time>
      </trkpt>
      <trkpt lat="49.83083" lon="4.8488">
        <ele>362</ele>
        <time>2022-07-15T09:55:00.000Z</time>
      </trkpt>
      <trkpt lat="49.83078" lon="4.84876">
        <ele>361</ele>
        <time>2022-07-15T09:55:01.000Z</time>
      </trkpt>
      <trkpt lat="49.83073" lon="4.84871">
        <ele>361</ele>
        <time>2022-07-15T09:55:02.000Z</time>
      </trkpt>
      <trkpt lat="49.83067" lon="4.84866">
        <ele>361</ele>
        <time>2022-07-15T09:55:03.000Z</time>
      </trkpt>
      <trkpt lat="49.83062" lon="4.8486">
        <ele>361</ele>
        <time>2022-07-15T09:55:04.000Z</time>
      </trkpt>
      <trkpt lat="49.83057" lon="4.84855">
        <ele>360</ele>
        <time>2022-07-15T09:55:05.000Z</time>
      </trkpt>
      <trkpt lat="49.83051" lon="4.8485">
        <ele>360</ele>
        <time>2022-07-15T09:55:06.000Z</time>
      </trkpt>
      <trkpt lat="49.83045" lon="4.84845">
        <ele>360</ele>
        <time>2022-07-15T09:55:07.000Z</time>
      </trkpt>
      <trkpt lat="49.83041" lon="4.84841">
        <ele>360</ele>
        <time>2022-07-15T09:55:08.000Z</time>
      </trkpt>
      <trkpt lat="49.83037" lon="4.84838">
        <ele>360</ele>
        <time>2022-07-15T09:55:09.000Z</time>
      </trkpt>
      <trkpt lat="49.83033" lon="4.84836">
        <ele>360</ele>
        <time>2022-07-15T09:55:10.000Z</time>
      </trkpt>
      <trkpt lat="49.83029" lon="4.84837">
        <ele>359</ele>
        <time>2022-07-15T09:55:11.000Z</time>
      </trkpt>
      <trkpt lat="49.83025" lon="4.8484">
        <ele>359</ele>
        <time>2022-07-15T09:55:12.000Z</time>
      </trkpt>
      <trkpt lat="49.83021" lon="4.84843">
        <ele>359</ele>
        <time>2022-07-15T09:55:13.000Z</time>
      </trkpt>
      <trkpt lat="49.83016" lon="4.84845">
        <ele>359</ele>
        <time>2022-07-15T09:55:14.000Z</time>
      </trkpt>
      <trkpt lat="49.8301" lon="4.84846">
        <ele>358</ele>
        <time>2022-07-15T09:55:15.000Z</time>
      </trkpt>
      <trkpt lat="49.83004" lon="4.84846">
        <ele>358</ele>
        <time>2022-07-15T09:55:16.000Z</time>
      </trkpt>
      <trkpt lat="49.82998" lon="4.84845">
        <ele>358</ele>
        <time>2022-07-15T09:55:17.000Z</time>
      </trkpt>
      <trkpt lat="49.82991" lon="4.84843">
        <ele>358</ele>
        <time>2022-07-15T09:55:18.000Z</time>
      </trkpt>
      <trkpt lat="49.82985" lon="4.8484">
        <ele>357</ele>
        <time>2022-07-15T09:55:19.000Z</time>
      </trkpt>
      <trkpt lat="49.82978" lon="4.84837">
        <ele>357</ele>
        <time>2022-07-15T09:55:20.000Z</time>
      </trkpt>
      <trkpt lat="49.82971" lon="4.84837">
        <ele>357</ele>
        <time>2022-07-15T09:55:21.000Z</time>
      </trkpt>
      <trkpt lat="49.82965" lon="4.84838">
        <ele>357</ele>
        <time>2022-07-15T09:55:22.000Z</time>
      </trkpt>
      <trkpt lat="49.82959" lon="4.84841">
        <ele>356</ele>
        <time>2022-07-15T09:55:23.000Z</time>
      </trkpt>
      <trkpt lat="49.82953" lon="4.84845">
        <ele>356</ele>
        <time>2022-07-15T09:55:24.000Z</time>
      </trkpt>
      <trkpt lat="49.82948" lon="4.8485">
        <ele>355</ele>
        <time>2022-07-15T09:55:25.000Z</time>
      </trkpt>
      <trkpt lat="49.82943" lon="4.84857">
        <ele>355</ele>
        <time>2022-07-15T09:55:26.000Z</time>
      </trkpt>
      <trkpt lat="49.82939" lon="4.84865">
        <ele>354</ele>
        <time>2022-07-15T09:55:27.000Z</time>
      </trkpt>
      <trkpt lat="49.82933" lon="4.84872">
        <ele>354</ele>
        <time>2022-07-15T09:55:28.000Z</time>
      </trkpt>
      <trkpt lat="49.82928" lon="4.84878">
        <ele>353</ele>
        <time>2022-07-15T09:55:29.000Z</time>
      </trkpt>
      <trkpt lat="49.82923" lon="4.84884">
        <ele>353</ele>
        <time>2022-07-15T09:55:30.000Z</time>
      </trkpt>
      <trkpt lat="49.82917" lon="4.84887">
        <ele>352</ele>
        <time>2022-07-15T09:55:31.000Z</time>
      </trkpt>
      <trkpt lat="49.82911" lon="4.84888">
        <ele>351</ele>
        <time>2022-07-15T09:55:32.000Z</time>
      </trkpt>
      <trkpt lat="49.82906" lon="4.84888">
        <ele>351</ele>
        <time>2022-07-15T09:55:33.000Z</time>
      </trkpt>
      <trkpt lat="49.82899" lon="4.84889">
        <ele>350</ele>
        <time>2022-07-15T09:55:34.000Z</time>
      </trkpt>
      <trkpt lat="49.82894" lon="4.84891">
        <ele>349</ele>
        <time>2022-07-15T09:55:35.000Z</time>
      </trkpt>
      <trkpt lat="49.8289" lon="4.84891">
        <ele>349</ele>
        <time>2022-07-15T09:55:36.000Z</time>
      </trkpt>
      <trkpt lat="49.82887" lon="4.84893">
        <ele>348</ele>
        <time>2022-07-15T09:55:37.000Z</time>
      </trkpt>
      <trkpt lat="49.82885" lon="4.84895">
        <ele>347</ele>
        <time>2022-07-15T09:55:38.000Z</time>
      </trkpt>
      <trkpt lat="49.82884" lon="4.84897">
        <ele>347</ele>
        <time>2022-07-15T09:55:39.000Z</time>
      </trkpt>
      <trkpt lat="49.82883" lon="4.849">
        <ele>346</ele>
        <time>2022-07-15T09:55:40.000Z</time>
      </trkpt>
      <trkpt lat="49.82884" lon="4.84904">
        <ele>345</ele>
        <time>2022-07-15T09:55:41.000Z</time>
      </trkpt>
      <trkpt lat="49.82885" lon="4.84907">
        <ele>345</ele>
        <time>2022-07-15T09:55:42.000Z</time>
      </trkpt>
      <trkpt lat="49.82886" lon="4.8491">
        <ele>344</ele>
        <time>2022-07-15T09:55:43.000Z</time>
      </trkpt>
      <trkpt lat="49.82888" lon="4.84913">
        <ele>344</ele>
        <time>2022-07-15T09:55:44.000Z</time>
      </trkpt>
      <trkpt lat="49.82889" lon="4.84917">
        <ele>343</ele>
        <time>2022-07-15T09:55:45.000Z</time>
      </trkpt>
      <trkpt lat="49.8289" lon="4.8492">
        <ele>343</ele>
        <time>2022-07-15T09:55:46.000Z</time>
      </trkpt>
      <trkpt lat="49.82892" lon="4.84923">
        <ele>342</ele>
        <time>2022-07-15T09:55:47.000Z</time>
      </trkpt>
      <trkpt lat="49.82893" lon="4.84927">
        <ele>342</ele>
        <time>2022-07-15T09:55:48.000Z</time>
      </trkpt>
      <trkpt lat="49.82895" lon="4.8493">
        <ele>342</ele>
        <time>2022-07-15T09:55:49.000Z</time>
      </trkpt>
      <trkpt lat="49.82897" lon="4.84934">
        <ele>341</ele>
        <time>2022-07-15T09:55:50.000Z</time>
      </trkpt>
      <trkpt lat="49.82899" lon="4.84937">
        <ele>341</ele>
        <time>2022-07-15T09:55:51.000Z</time>
      </trkpt>
      <trkpt lat="49.82901" lon="4.84941">
        <ele>341</ele>
        <time>2022-07-15T09:55:52.000Z</time>
      </trkpt>
      <trkpt lat="49.82903" lon="4.84945">
        <ele>340</ele>
        <time>2022-07-15T09:55:53.000Z</time>
      </trkpt>
      <trkpt lat="49.82904" lon="4.84948">
        <ele>340</ele>
        <time>2022-07-15T09:55:54.000Z</time>
      </trkpt>
      <trkpt lat="49.82905" lon="4.84952">
        <ele>340</ele>
        <time>2022-07-15T09:55:55.000Z</time>
      </trkpt>
      <trkpt lat="49.82907" lon="4.84955">
        <ele>339</ele>
        <time>2022-07-15T09:55:56.000Z</time>
      </trkpt>
      <trkpt lat="49.82909" lon="4.84958">
        <ele>339</ele>
        <time>2022-07-15T09:55:57.000Z</time>
      </trkpt>
      <trkpt lat="49.8291" lon="4.84961">
        <ele>339</ele>
        <time>2022-07-15T09:55:58.000Z</time>
      </trkpt>
      <trkpt lat="49.82911" lon="4.84964">
        <ele>339</ele>
        <time>2022-07-15T09:55:59.000Z</time>
      </trkpt>
      <trkpt lat="49.82912" lon="4.84966">
        <ele>338</ele>
        <time>2022-07-15T09:56:00.000Z</time>
      </trkpt>
      <trkpt lat="49.82912" lon="4.84969">
        <ele>338</ele>
        <time>2022-07-15T09:56:01.000Z</time>
      </trkpt>
      <trkpt lat="49.82912" lon="4.84973">
        <ele>338</ele>
        <time>2022-07-15T09:56:02.000Z</time>
      </trkpt>
      <trkpt lat="49.82912" lon="4.84976">
        <ele>338</ele>
        <time>2022-07-15T09:56:03.000Z</time>
      </trkpt>
      <trkpt lat="49.82913" lon="4.8498">
        <ele>338</ele>
        <time>2022-07-15T09:56:04.000Z</time>
      </trkpt>
      <trkpt lat="49.82914" lon="4.84984">
        <ele>338</ele>
        <time>2022-07-15T09:56:05.000Z</time>
      </trkpt>
      <trkpt lat="49.82915" lon="4.84987">
        <ele>338</ele>
        <time>2022-07-15T09:56:06.000Z</time>
      </trkpt>
      <trkpt lat="49.82915" lon="4.84991">
        <ele>338</ele>
        <time>2022-07-15T09:56:07.000Z</time>
      </trkpt>
      <trkpt lat="49.82915" lon="4.84995">
        <ele>338</ele>
        <time>2022-07-15T09:56:08.000Z</time>
      </trkpt>
      <trkpt lat="49.82914" lon="4.84999">
        <ele>338</ele>
        <time>2022-07-15T09:56:09.000Z</time>
      </trkpt>
      <trkpt lat="49.82913" lon="4.85004">
        <ele>338</ele>
        <time>2022-07-15T09:56:10.000Z</time>
      </trkpt>
      <trkpt lat="49.82913" lon="4.85009">
        <ele>338</ele>
        <time>2022-07-15T09:56:11.000Z</time>
      </trkpt>
      <trkpt lat="49.82913" lon="4.85014">
        <ele>338</ele>
        <time>2022-07-15T09:56:12.000Z</time>
      </trkpt>
      <trkpt lat="49.82912" lon="4.85019">
        <ele>338</ele>
        <time>2022-07-15T09:56:13.000Z</time>
      </trkpt>
      <trkpt lat="49.82912" lon="4.85024">
        <ele>338</ele>
        <time>2022-07-15T09:56:14.000Z</time>
      </trkpt>
      <trkpt lat="49.82911" lon="4.85029">
        <ele>338</ele>
        <time>2022-07-15T09:56:15.000Z</time>
      </trkpt>
      <trkpt lat="49.82911" lon="4.85034">
        <ele>338</ele>
        <time>2022-07-15T09:56:16.000Z</time>
      </trkpt>
      <trkpt lat="49.8291" lon="4.85037">
        <ele>338</ele>
        <time>2022-07-15T09:56:17.000Z</time>
      </trkpt>
      <trkpt lat="49.82909" lon="4.85041">
        <ele>338</ele>
        <time>2022-07-15T09:56:18.000Z</time>
      </trkpt>
      <trkpt lat="49.82908" lon="4.85044">
        <ele>338</ele>
        <time>2022-07-15T09:56:19.000Z</time>
      </trkpt>
      <trkpt lat="49.82906" lon="4.85048">
        <ele>338</ele>
        <time>2022-07-15T09:56:20.000Z</time>
      </trkpt>
      <trkpt lat="49.82905" lon="4.85052">
        <ele>338</ele>
        <time>2022-07-15T09:56:21.000Z</time>
      </trkpt>
      <trkpt lat="49.82904" lon="4.85056">
        <ele>338</ele>
        <time>2022-07-15T09:56:22.000Z</time>
      </trkpt>
      <trkpt lat="49.82902" lon="4.85059">
        <ele>338</ele>
        <time>2022-07-15T09:56:23.000Z</time>
      </trkpt>
      <trkpt lat="49.82901" lon="4.85063">
        <ele>338</ele>
        <time>2022-07-15T09:56:24.000Z</time>
      </trkpt>
      <trkpt lat="49.82899" lon="4.85066">
        <ele>338</ele>
        <time>2022-07-15T09:56:25.000Z</time>
      </trkpt>
      <trkpt lat="49.82897" lon="4.85069">
        <ele>339</ele>
        <time>2022-07-15T09:56:26.000Z</time>
      </trkpt>
      <trkpt lat="49.82896" lon="4.85071">
        <ele>339</ele>
        <time>2022-07-15T09:56:27.000Z</time>
      </trkpt>
      <trkpt lat="49.82894" lon="4.85073">
        <ele>338</ele>
        <time>2022-07-15T09:56:28.000Z</time>
      </trkpt>
      <trkpt lat="49.82891" lon="4.85075">
        <ele>338</ele>
        <time>2022-07-15T09:56:29.000Z</time>
      </trkpt>
      <trkpt lat="49.82889" lon="4.85078">
        <ele>338</ele>
        <time>2022-07-15T09:56:30.000Z</time>
      </trkpt>
      <trkpt lat="49.82887" lon="4.8508">
        <ele>338</ele>
        <time>2022-07-15T09:56:31.000Z</time>
      </trkpt>
      <trkpt lat="49.82884" lon="4.85083">
        <ele>339</ele>
        <time>2022-07-15T09:56:32.000Z</time>
      </trkpt>
      <trkpt lat="49.82882" lon="4.85085">
        <ele>339</ele>
        <time>2022-07-15T09:56:33.000Z</time>
      </trkpt>
      <trkpt lat="49.8288" lon="4.85087">
        <ele>339</ele>
        <time>2022-07-15T09:56:34.000Z</time>
      </trkpt>
      <trkpt lat="49.82878" lon="4.8509">
        <ele>339</ele>
        <time>2022-07-15T09:56:35.000Z</time>
      </trkpt>
      <trkpt lat="49.82876" lon="4.85092">
        <ele>339</ele>
        <time>2022-07-15T09:56:36.000Z</time>
      </trkpt>
      <trkpt lat="49.82874" lon="4.85095">
        <ele>339</ele>
        <time>2022-07-15T09:56:37.000Z</time>
      </trkpt>
      <trkpt lat="49.82872" lon="4.85098">
        <ele>339</ele>
        <time>2022-07-15T09:56:38.000Z</time>
      </trkpt>
      <trkpt lat="49.82871" lon="4.851">
        <ele>339</ele>
        <time>2022-07-15T09:56:39.000Z</time>
      </trkpt>
      <trkpt lat="49.82868" lon="4.85103">
        <ele>339</ele>
        <time>2022-07-15T09:56:40.000Z</time>
      </trkpt>
      <trkpt lat="49.82866" lon="4.85105">
        <ele>339</ele>
        <time>2022-07-15T09:56:41.000Z</time>
      </trkpt>
      <trkpt lat="49.82864" lon="4.85108">
        <ele>340</ele>
        <time>2022-07-15T09:56:42.000Z</time>
      </trkpt>
      <trkpt lat="49.82862" lon="4.8511">
        <ele>340</ele>
        <time>2022-07-15T09:56:43.000Z</time>
      </trkpt>
      <trkpt lat="49.8286" lon="4.85112">
        <ele>340</ele>
        <time>2022-07-15T09:56:44.000Z</time>
      </trkpt>
      <trkpt lat="49.82858" lon="4.85115">
        <ele>340</ele>
        <time>2022-07-15T09:56:45.000Z</time>
      </trkpt>
      <trkpt lat="49.82856" lon="4.85118">
        <ele>340</ele>
        <time>2022-07-15T09:56:46.000Z</time>
      </trkpt>
      <trkpt lat="49.82854" lon="4.85121">
        <ele>340</ele>
        <time>2022-07-15T09:56:47.000Z</time>
      </trkpt>
      <trkpt lat="49.82852" lon="4.85124">
        <ele>340</ele>
        <time>2022-07-15T09:56:48.000Z</time>
      </trkpt>
      <trkpt lat="49.82851" lon="4.85127">
        <ele>340</ele>
        <time>2022-07-15T09:56:49.000Z</time>
      </trkpt>
      <trkpt lat="49.82849" lon="4.8513">
        <ele>341</ele>
        <time>2022-07-15T09:56:50.000Z</time>
      </trkpt>
      <trkpt lat="49.82847" lon="4.85133">
        <ele>341</ele>
        <time>2022-07-15T09:56:51.000Z</time>
      </trkpt>
      <trkpt lat="49.82845" lon="4.85136">
        <ele>341</ele>
        <time>2022-07-15T09:56:52.000Z</time>
      </trkpt>
      <trkpt lat="49.82842" lon="4.85139">
        <ele>341</ele>
        <time>2022-07-15T09:56:53.000Z</time>
      </trkpt>
      <trkpt lat="49.8284" lon="4.85143">
        <ele>342</ele>
        <time>2022-07-15T09:56:54.000Z</time>
      </trkpt>
      <trkpt lat="49.82838" lon="4.85147">
        <ele>342</ele>
        <time>2022-07-15T09:56:55.000Z</time>
      </trkpt>
      <trkpt lat="49.82836" lon="4.8515">
        <ele>342</ele>
        <time>2022-07-15T09:56:56.000Z</time>
      </trkpt>
      <trkpt lat="49.82834" lon="4.85153">
        <ele>342</ele>
        <time>2022-07-15T09:56:57.000Z</time>
      </trkpt>
      <trkpt lat="49.82832" lon="4.85156">
        <ele>342</ele>
        <time>2022-07-15T09:56:58.000Z</time>
      </trkpt>
      <trkpt lat="49.82829" lon="4.85159">
        <ele>343</ele>
        <time>2022-07-15T09:56:59.000Z</time>
      </trkpt>
      <trkpt lat="49.82827" lon="4.85162">
        <ele>343</ele>
        <time>2022-07-15T09:57:00.000Z</time>
      </trkpt>
      <trkpt lat="49.82825" lon="4.85166">
        <ele>343</ele>
        <time>2022-07-15T09:57:01.000Z</time>
      </trkpt>
      <trkpt lat="49.82823" lon="4.85168">
        <ele>343</ele>
        <time>2022-07-15T09:57:02.000Z</time>
      </trkpt>
      <trkpt lat="49.82821" lon="4.85171">
        <ele>344</ele>
        <time>2022-07-15T09:57:03.000Z</time>
      </trkpt>
      <trkpt lat="49.82819" lon="4.85175">
        <ele>344</ele>
        <time>2022-07-15T09:57:04.000Z</time>
      </trkpt>
      <trkpt lat="49.82818" lon="4.85178">
        <ele>344</ele>
        <time>2022-07-15T09:57:05.000Z</time>
      </trkpt>
      <trkpt lat="49.82816" lon="4.85182">
        <ele>344</ele>
        <time>2022-07-15T09:57:06.000Z</time>
      </trkpt>
      <trkpt lat="49.82815" lon="4.85185">
        <ele>345</ele>
        <time>2022-07-15T09:57:07.000Z</time>
      </trkpt>
      <trkpt lat="49.82813" lon="4.85189">
        <ele>345</ele>
        <time>2022-07-15T09:57:08.000Z</time>
      </trkpt>
      <trkpt lat="49.82811" lon="4.85192">
        <ele>345</ele>
        <time>2022-07-15T09:57:09.000Z</time>
      </trkpt>
      <trkpt lat="49.82809" lon="4.85196">
        <ele>345</ele>
        <time>2022-07-15T09:57:10.000Z</time>
      </trkpt>
      <trkpt lat="49.82808" lon="4.852">
        <ele>345</ele>
        <time>2022-07-15T09:57:11.000Z</time>
      </trkpt>
      <trkpt lat="49.82806" lon="4.85204">
        <ele>345</ele>
        <time>2022-07-15T09:57:12.000Z</time>
      </trkpt>
      <trkpt lat="49.82806" lon="4.85208">
        <ele>346</ele>
        <time>2022-07-15T09:57:13.000Z</time>
      </trkpt>
      <trkpt lat="49.82805" lon="4.85212">
        <ele>346</ele>
        <time>2022-07-15T09:57:14.000Z</time>
      </trkpt>
      <trkpt lat="49.82803" lon="4.85216">
        <ele>346</ele>
        <time>2022-07-15T09:57:15.000Z</time>
      </trkpt>
      <trkpt lat="49.82801" lon="4.85219">
        <ele>346</ele>
        <time>2022-07-15T09:57:16.000Z</time>
      </trkpt>
      <trkpt lat="49.828" lon="4.85223">
        <ele>346</ele>
        <time>2022-07-15T09:57:17.000Z</time>
      </trkpt>
      <trkpt lat="49.82799" lon="4.85227">
        <ele>346</ele>
        <time>2022-07-15T09:57:18.000Z</time>
      </trkpt>
      <trkpt lat="49.82798" lon="4.8523">
        <ele>346</ele>
        <time>2022-07-15T09:57:19.000Z</time>
      </trkpt>
      <trkpt lat="49.82797" lon="4.85234">
        <ele>347</ele>
        <time>2022-07-15T09:57:20.000Z</time>
      </trkpt>
      <trkpt lat="49.82796" lon="4.85237">
        <ele>347</ele>
        <time>2022-07-15T09:57:21.000Z</time>
      </trkpt>
      <trkpt lat="49.82795" lon="4.85241">
        <ele>347</ele>
        <time>2022-07-15T09:57:22.000Z</time>
      </trkpt>
      <trkpt lat="49.82794" lon="4.85244">
        <ele>347</ele>
        <time>2022-07-15T09:57:23.000Z</time>
      </trkpt>
      <trkpt lat="49.82792" lon="4.85245">
        <ele>347</ele>
        <time>2022-07-15T09:57:24.000Z</time>
      </trkpt>
      <trkpt lat="49.82791" lon="4.85245">
        <ele>348</ele>
        <time>2022-07-15T09:57:25.000Z</time>
      </trkpt>
      <trkpt lat="49.8279" lon="4.85244">
        <ele>348</ele>
        <time>2022-07-15T09:57:26.000Z</time>
      </trkpt>
      <trkpt lat="49.82789" lon="4.85242">
        <ele>348</ele>
        <time>2022-07-15T09:57:27.000Z</time>
      </trkpt>
      <trkpt lat="49.82787" lon="4.85239">
        <ele>348</ele>
        <time>2022-07-15T09:57:28.000Z</time>
      </trkpt>
      <trkpt lat="49.82785" lon="4.85236">
        <ele>348</ele>
        <time>2022-07-15T09:57:29.000Z</time>
      </trkpt>
      <trkpt lat="49.82783" lon="4.85233">
        <ele>348</ele>
        <time>2022-07-15T09:57:30.000Z</time>
      </trkpt>
      <trkpt lat="49.82781" lon="4.85229">
        <ele>348</ele>
        <time>2022-07-15T09:57:31.000Z</time>
      </trkpt>
      <trkpt lat="49.82779" lon="4.85226">
        <ele>348</ele>
        <time>2022-07-15T09:57:32.000Z</time>
      </trkpt>
      <trkpt lat="49.82777" lon="4.85222">
        <ele>348</ele>
        <time>2022-07-15T09:57:33.000Z</time>
      </trkpt>
      <trkpt lat="49.82774" lon="4.85218">
        <ele>348</ele>
        <time>2022-07-15T09:57:34.000Z</time>
      </trkpt>
      <trkpt lat="49.82772" lon="4.85213">
        <ele>348</ele>
        <time>2022-07-15T09:57:35.000Z</time>
      </trkpt>
      <trkpt lat="49.8277" lon="4.85208">
        <ele>348</ele>
        <time>2022-07-15T09:57:36.000Z</time>
      </trkpt>
      <trkpt lat="49.82767" lon="4.85204">
        <ele>348</ele>
        <time>2022-07-15T09:57:37.000Z</time>
      </trkpt>
      <trkpt lat="49.82765" lon="4.85199">
        <ele>348</ele>
        <time>2022-07-15T09:57:38.000Z</time>
      </trkpt>
      <trkpt lat="49.82763" lon="4.85194">
        <ele>348</ele>
        <time>2022-07-15T09:57:39.000Z</time>
      </trkpt>
      <trkpt lat="49.82761" lon="4.85189">
        <ele>348</ele>
        <time>2022-07-15T09:57:40.000Z</time>
      </trkpt>
      <trkpt lat="49.82759" lon="4.85184">
        <ele>349</ele>
        <time>2022-07-15T09:57:41.000Z</time>
      </trkpt>
      <trkpt lat="49.82757" lon="4.85179">
        <ele>349</ele>
        <time>2022-07-15T09:57:42.000Z</time>
      </trkpt>
      <trkpt lat="49.82755" lon="4.85175">
        <ele>349</ele>
        <time>2022-07-15T09:57:43.000Z</time>
      </trkpt>
      <trkpt lat="49.82752" lon="4.85171">
        <ele>349</ele>
        <time>2022-07-15T09:57:44.000Z</time>
      </trkpt>
      <trkpt lat="49.82749" lon="4.85166">
        <ele>349</ele>
        <time>2022-07-15T09:57:45.000Z</time>
      </trkpt>
      <trkpt lat="49.82747" lon="4.85161">
        <ele>349</ele>
        <time>2022-07-15T09:57:46.000Z</time>
      </trkpt>
      <trkpt lat="49.82745" lon="4.85156">
        <ele>349</ele>
        <time>2022-07-15T09:57:47.000Z</time>
      </trkpt>
      <trkpt lat="49.82742" lon="4.85151">
        <ele>349</ele>
        <time>2022-07-15T09:57:48.000Z</time>
      </trkpt>
      <trkpt lat="49.82739" lon="4.85146">
        <ele>348</ele>
        <time>2022-07-15T09:57:49.000Z</time>
      </trkpt>
      <trkpt lat="49.82737" lon="4.85141">
        <ele>348</ele>
        <time>2022-07-15T09:57:50.000Z</time>
      </trkpt>
      <trkpt lat="49.82735" lon="4.85137">
        <ele>348</ele>
        <time>2022-07-15T09:57:51.000Z</time>
      </trkpt>
      <trkpt lat="49.82733" lon="4.85133">
        <ele>348</ele>
        <time>2022-07-15T09:57:52.000Z</time>
      </trkpt>
      <trkpt lat="49.82731" lon="4.85128">
        <ele>348</ele>
        <time>2022-07-15T09:57:53.000Z</time>
      </trkpt>
      <trkpt lat="49.82729" lon="4.85124">
        <ele>348</ele>
        <time>2022-07-15T09:57:54.000Z</time>
      </trkpt>
      <trkpt lat="49.82727" lon="4.8512">
        <ele>348</ele>
        <time>2022-07-15T09:57:55.000Z</time>
      </trkpt>
      <trkpt lat="49.82725" lon="4.85116">
        <ele>348</ele>
        <time>2022-07-15T09:57:56.000Z</time>
      </trkpt>
      <trkpt lat="49.82723" lon="4.85112">
        <ele>348</ele>
        <time>2022-07-15T09:57:57.000Z</time>
      </trkpt>
      <trkpt lat="49.82721" lon="4.85108">
        <ele>348</ele>
        <time>2022-07-15T09:57:58.000Z</time>
      </trkpt>
      <trkpt lat="49.82719" lon="4.85104">
        <ele>348</ele>
        <time>2022-07-15T09:57:59.000Z</time>
      </trkpt>
      <trkpt lat="49.82717" lon="4.85101">
        <ele>348</ele>
        <time>2022-07-15T09:58:00.000Z</time>
      </trkpt>
      <trkpt lat="49.82715" lon="4.85097">
        <ele>348</ele>
        <time>2022-07-15T09:58:01.000Z</time>
      </trkpt>
      <trkpt lat="49.82714" lon="4.85093">
        <ele>348</ele>
        <time>2022-07-15T09:58:02.000Z</time>
      </trkpt>
      <trkpt lat="49.82712" lon="4.8509">
        <ele>348</ele>
        <time>2022-07-15T09:58:03.000Z</time>
      </trkpt>
      <trkpt lat="49.82711" lon="4.85086">
        <ele>348</ele>
        <time>2022-07-15T09:58:04.000Z</time>
      </trkpt>
      <trkpt lat="49.8271" lon="4.85082">
        <ele>348</ele>
        <time>2022-07-15T09:58:05.000Z</time>
      </trkpt>
      <trkpt lat="49.82708" lon="4.85079">
        <ele>348</ele>
        <time>2022-07-15T09:58:06.000Z</time>
      </trkpt>
      <trkpt lat="49.82706" lon="4.85076">
        <ele>348</ele>
        <time>2022-07-15T09:58:07.000Z</time>
      </trkpt>
      <trkpt lat="49.82705" lon="4.85073">
        <ele>348</ele>
        <time>2022-07-15T09:58:08.000Z</time>
      </trkpt>
      <trkpt lat="49.82703" lon="4.8507">
        <ele>348</ele>
        <time>2022-07-15T09:58:09.000Z</time>
      </trkpt>
      <trkpt lat="49.82701" lon="4.85067">
        <ele>347</ele>
        <time>2022-07-15T09:58:10.000Z</time>
      </trkpt>
      <trkpt lat="49.82699" lon="4.85064">
        <ele>347</ele>
        <time>2022-07-15T09:58:11.000Z</time>
      </trkpt>
      <trkpt lat="49.82697" lon="4.85061">
        <ele>347</ele>
        <time>2022-07-15T09:58:12.000Z</time>
      </trkpt>
      <trkpt lat="49.82696" lon="4.85058">
        <ele>347</ele>
        <time>2022-07-15T09:58:13.000Z</time>
      </trkpt>
      <trkpt lat="49.82694" lon="4.85055">
        <ele>347</ele>
        <time>2022-07-15T09:58:14.000Z</time>
      </trkpt>
      <trkpt lat="49.82693" lon="4.85052">
        <ele>347</ele>
        <time>2022-07-15T09:58:15.000Z</time>
      </trkpt>
      <trkpt lat="49.82691" lon="4.85049">
        <ele>347</ele>
        <time>2022-07-15T09:58:16.000Z</time>
      </trkpt>
      <trkpt lat="49.8269" lon="4.85046">
        <ele>347</ele>
        <time>2022-07-15T09:58:17.000Z</time>
      </trkpt>
      <trkpt lat="49.82688" lon="4.85043">
        <ele>347</ele>
        <time>2022-07-15T09:58:18.000Z</time>
      </trkpt>
      <trkpt lat="49.82687" lon="4.85039">
        <ele>346</ele>
        <time>2022-07-15T09:58:19.000Z</time>
      </trkpt>
      <trkpt lat="49.82685" lon="4.85035">
        <ele>346</ele>
        <time>2022-07-15T09:58:20.000Z</time>
      </trkpt>
      <trkpt lat="49.82683" lon="4.85032">
        <ele>346</ele>
        <time>2022-07-15T09:58:21.000Z</time>
      </trkpt>
      <trkpt lat="49.82682" lon="4.8503">
        <ele>346</ele>
        <time>2022-07-15T09:58:22.000Z</time>
      </trkpt>
      <trkpt lat="49.8268" lon="4.85028">
        <ele>346</ele>
        <time>2022-07-15T09:58:23.000Z</time>
      </trkpt>
      <trkpt lat="49.82678" lon="4.85027">
        <ele>346</ele>
        <time>2022-07-15T09:58:24.000Z</time>
      </trkpt>
      <trkpt lat="49.82676" lon="4.85027">
        <ele>346</ele>
        <time>2022-07-15T09:58:25.000Z</time>
      </trkpt>
      <trkpt lat="49.82675" lon="4.85028">
        <ele>346</ele>
        <time>2022-07-15T09:58:26.000Z</time>
      </trkpt>
      <trkpt lat="49.82674" lon="4.85029">
        <ele>346</ele>
        <time>2022-07-15T09:58:27.000Z</time>
      </trkpt>
      <trkpt lat="49.82673" lon="4.8503">
        <ele>346</ele>
        <time>2022-07-15T09:58:28.000Z</time>
      </trkpt>
      <trkpt lat="49.82672" lon="4.8503">
        <ele>346</ele>
        <time>2022-07-15T09:58:29.000Z</time>
      </trkpt>
      <trkpt lat="49.82671" lon="4.85031">
        <ele>346</ele>
        <time>2022-07-15T09:58:30.000Z</time>
      </trkpt>
      <trkpt lat="49.82669" lon="4.85033">
        <ele>346</ele>
        <time>2022-07-15T09:58:31.000Z</time>
      </trkpt>
      <trkpt lat="49.82668" lon="4.85035">
        <ele>346</ele>
        <time>2022-07-15T09:58:32.000Z</time>
      </trkpt>
      <trkpt lat="49.82666" lon="4.85037">
        <ele>346</ele>
        <time>2022-07-15T09:58:33.000Z</time>
      </trkpt>
      <trkpt lat="49.82665" lon="4.85038">
        <ele>346</ele>
        <time>2022-07-15T09:58:34.000Z</time>
      </trkpt>
      <trkpt lat="49.82663" lon="4.85039">
        <ele>346</ele>
        <time>2022-07-15T09:58:35.000Z</time>
      </trkpt>
      <trkpt lat="49.82662" lon="4.8504">
        <ele>346</ele>
        <time>2022-07-15T09:58:36.000Z</time>
      </trkpt>
      <trkpt lat="49.82661" lon="4.85041">
        <ele>346</ele>
        <time>2022-07-15T09:58:37.000Z</time>
      </trkpt>
      <trkpt lat="49.82659" lon="4.85042">
        <ele>346</ele>
        <time>2022-07-15T09:58:38.000Z</time>
      </trkpt>
      <trkpt lat="49.82658" lon="4.85043">
        <ele>346</ele>
        <time>2022-07-15T09:58:39.000Z</time>
      </trkpt>
      <trkpt lat="49.82657" lon="4.85044">
        <ele>347</ele>
        <time>2022-07-15T09:58:40.000Z</time>
      </trkpt>
      <trkpt lat="49.82655" lon="4.85045">
        <ele>347</ele>
        <time>2022-07-15T09:58:41.000Z</time>
      </trkpt>
      <trkpt lat="49.82654" lon="4.85046">
        <ele>347</ele>
        <time>2022-07-15T09:58:42.000Z</time>
      </trkpt>
      <trkpt lat="49.82653" lon="4.85047">
        <ele>347</ele>
        <time>2022-07-15T09:58:43.000Z</time>
      </trkpt>
      <trkpt lat="49.82651" lon="4.85049">
        <ele>347</ele>
        <time>2022-07-15T09:58:44.000Z</time>
      </trkpt>
      <trkpt lat="49.8265" lon="4.8505">
        <ele>347</ele>
        <time>2022-07-15T09:58:45.000Z</time>
      </trkpt>
      <trkpt lat="49.82648" lon="4.85051">
        <ele>347</ele>
        <time>2022-07-15T09:58:46.000Z</time>
      </trkpt>
      <trkpt lat="49.82647" lon="4.85052">
        <ele>347</ele>
        <time>2022-07-15T09:58:47.000Z</time>
      </trkpt>
      <trkpt lat="49.82645" lon="4.85054">
        <ele>347</ele>
        <time>2022-07-15T09:58:48.000Z</time>
      </trkpt>
      <trkpt lat="49.82643" lon="4.85056">
        <ele>348</ele>
        <time>2022-07-15T09:58:49.000Z</time>
      </trkpt>
      <trkpt lat="49.82642" lon="4.85057">
        <ele>348</ele>
        <time>2022-07-15T09:58:50.000Z</time>
      </trkpt>
      <trkpt lat="49.82641" lon="4.85058">
        <ele>348</ele>
        <time>2022-07-15T09:58:51.000Z</time>
      </trkpt>
      <trkpt lat="49.8264" lon="4.85059">
        <ele>348</ele>
        <time>2022-07-15T09:58:52.000Z</time>
      </trkpt>
      <trkpt lat="49.82638" lon="4.85061">
        <ele>348</ele>
        <time>2022-07-15T09:58:53.000Z</time>
      </trkpt>
      <trkpt lat="49.82636" lon="4.85062">
        <ele>348</ele>
        <time>2022-07-15T09:58:54.000Z</time>
      </trkpt>
      <trkpt lat="49.82635" lon="4.85064">
        <ele>349</ele>
        <time>2022-07-15T09:58:55.000Z</time>
      </trkpt>
      <trkpt lat="49.82633" lon="4.85066">
        <ele>349</ele>
        <time>2022-07-15T09:58:56.000Z</time>
      </trkpt>
      <trkpt lat="49.82632" lon="4.85068">
        <ele>349</ele>
        <time>2022-07-15T09:58:57.000Z</time>
      </trkpt>
      <trkpt lat="49.82631" lon="4.8507">
        <ele>350</ele>
        <time>2022-07-15T09:58:58.000Z</time>
      </trkpt>
      <trkpt lat="49.8263" lon="4.85072">
        <ele>350</ele>
        <time>2022-07-15T09:58:59.000Z</time>
      </trkpt>
      <trkpt lat="49.82629" lon="4.85073">
        <ele>350</ele>
        <time>2022-07-15T09:59:00.000Z</time>
      </trkpt>
      <trkpt lat="49.82627" lon="4.85075">
        <ele>350</ele>
        <time>2022-07-15T09:59:01.000Z</time>
      </trkpt>
      <trkpt lat="49.82625" lon="4.85077">
        <ele>351</ele>
        <time>2022-07-15T09:59:02.000Z</time>
      </trkpt>
      <trkpt lat="49.82623" lon="4.85079">
        <ele>351</ele>
        <time>2022-07-15T09:59:03.000Z</time>
      </trkpt>
      <trkpt lat="49.82621" lon="4.85081">
        <ele>351</ele>
        <time>2022-07-15T09:59:04.000Z</time>
      </trkpt>
      <trkpt lat="49.8262" lon="4.85082">
        <ele>351</ele>
        <time>2022-07-15T09:59:05.000Z</time>
      </trkpt>
      <trkpt lat="49.82618" lon="4.85084">
        <ele>352</ele>
        <time>2022-07-15T09:59:06.000Z</time>
      </trkpt>
      <trkpt lat="49.82617" lon="4.85086">
        <ele>352</ele>
        <time>2022-07-15T09:59:07.000Z</time>
      </trkpt>
      <trkpt lat="49.82615" lon="4.85087">
        <ele>352</ele>
        <time>2022-07-15T09:59:08.000Z</time>
      </trkpt>
      <trkpt lat="49.82613" lon="4.85089">
        <ele>352</ele>
        <time>2022-07-15T09:59:09.000Z</time>
      </trkpt>
      <trkpt lat="49.82611" lon="4.85091">
        <ele>352</ele>
        <time>2022-07-15T09:59:10.000Z</time>
      </trkpt>
      <trkpt lat="49.82609" lon="4.85093">
        <ele>352</ele>
        <time>2022-07-15T09:59:11.000Z</time>
      </trkpt>
      <trkpt lat="49.82607" lon="4.85095">
        <ele>352</ele>
        <time>2022-07-15T09:59:12.000Z</time>
      </trkpt>
      <trkpt lat="49.82605" lon="4.85097">
        <ele>352</ele>
        <time>2022-07-15T09:59:13.000Z</time>
      </trkpt>
      <trkpt lat="49.82604" lon="4.85099">
        <ele>353</ele>
        <time>2022-07-15T09:59:14.000Z</time>
      </trkpt>
      <trkpt lat="49.82603" lon="4.851">
        <ele>353</ele>
        <time>2022-07-15T09:59:15.000Z</time>
      </trkpt>
      <trkpt lat="49.82601" lon="4.85102">
        <ele>353</ele>
        <time>2022-07-15T09:59:16.000Z</time>
      </trkpt>
      <trkpt lat="49.826" lon="4.85104">
        <ele>353</ele>
        <time>2022-07-15T09:59:17.000Z</time>
      </trkpt>
      <trkpt lat="49.82598" lon="4.85107">
        <ele>353</ele>
        <time>2022-07-15T09:59:18.000Z</time>
      </trkpt>
      <trkpt lat="49.82597" lon="4.85109">
        <ele>353</ele>
        <time>2022-07-15T09:59:19.000Z</time>
      </trkpt>
      <trkpt lat="49.82595" lon="4.85112">
        <ele>354</ele>
        <time>2022-07-15T09:59:20.000Z</time>
      </trkpt>
      <trkpt lat="49.82593" lon="4.85114">
        <ele>354</ele>
        <time>2022-07-15T09:59:21.000Z</time>
      </trkpt>
      <trkpt lat="49.82592" lon="4.85116">
        <ele>354</ele>
        <time>2022-07-15T09:59:22.000Z</time>
      </trkpt>
      <trkpt lat="49.8259" lon="4.85119">
        <ele>354</ele>
        <time>2022-07-15T09:59:23.000Z</time>
      </trkpt>
      <trkpt lat="49.82588" lon="4.85122">
        <ele>354</ele>
        <time>2022-07-15T09:59:24.000Z</time>
      </trkpt>
      <trkpt lat="49.82587" lon="4.85124">
        <ele>354</ele>
        <time>2022-07-15T09:59:25.000Z</time>
      </trkpt>
      <trkpt lat="49.82584" lon="4.85125">
        <ele>354</ele>
        <time>2022-07-15T09:59:26.000Z</time>
      </trkpt>
      <trkpt lat="49.82582" lon="4.85127">
        <ele>354</ele>
        <time>2022-07-15T09:59:27.000Z</time>
      </trkpt>
      <trkpt lat="49.8258" lon="4.85129">
        <ele>354</ele>
        <time>2022-07-15T09:59:28.000Z</time>
      </trkpt>
      <trkpt lat="49.82578" lon="4.85131">
        <ele>354</ele>
        <time>2022-07-15T09:59:29.000Z</time>
      </trkpt>
      <trkpt lat="49.82576" lon="4.85133">
        <ele>355</ele>
        <time>2022-07-15T09:59:30.000Z</time>
      </trkpt>
      <trkpt lat="49.82574" lon="4.85135">
        <ele>355</ele>
        <time>2022-07-15T09:59:31.000Z</time>
      </trkpt>
      <trkpt lat="49.82572" lon="4.85137">
        <ele>355</ele>
        <time>2022-07-15T09:59:32.000Z</time>
      </trkpt>
      <trkpt lat="49.8257" lon="4.85139">
        <ele>355</ele>
        <time>2022-07-15T09:59:33.000Z</time>
      </trkpt>
      <trkpt lat="49.82567" lon="4.85142">
        <ele>355</ele>
        <time>2022-07-15T09:59:34.000Z</time>
      </trkpt>
      <trkpt lat="49.82565" lon="4.85144">
        <ele>355</ele>
        <time>2022-07-15T09:59:35.000Z</time>
      </trkpt>
      <trkpt lat="49.82562" lon="4.85146">
        <ele>355</ele>
        <time>2022-07-15T09:59:36.000Z</time>
      </trkpt>
      <trkpt lat="49.82559" lon="4.85147">
        <ele>355</ele>
        <time>2022-07-15T09:59:37.000Z</time>
      </trkpt>
      <trkpt lat="49.82556" lon="4.8515">
        <ele>355</ele>
        <time>2022-07-15T09:59:38.000Z</time>
      </trkpt>
      <trkpt lat="49.82553" lon="4.85153">
        <ele>355</ele>
        <time>2022-07-15T09:59:39.000Z</time>
      </trkpt>
      <trkpt lat="49.8255" lon="4.85156">
        <ele>355</ele>
        <time>2022-07-15T09:59:40.000Z</time>
      </trkpt>
      <trkpt lat="49.82547" lon="4.85159">
        <ele>355</ele>
        <time>2022-07-15T09:59:41.000Z</time>
      </trkpt>
      <trkpt lat="49.82544" lon="4.85162">
        <ele>355</ele>
        <time>2022-07-15T09:59:42.000Z</time>
      </trkpt>
      <trkpt lat="49.82541" lon="4.85166">
        <ele>355</ele>
        <time>2022-07-15T09:59:43.000Z</time>
      </trkpt>
      <trkpt lat="49.82538" lon="4.8517">
        <ele>355</ele>
        <time>2022-07-15T09:59:44.000Z</time>
      </trkpt>
      <trkpt lat="49.82534" lon="4.85174">
        <ele>355</ele>
        <time>2022-07-15T09:59:45.000Z</time>
      </trkpt>
      <trkpt lat="49.8253" lon="4.85178">
        <ele>355</ele>
        <time>2022-07-15T09:59:46.000Z</time>
      </trkpt>
      <trkpt lat="49.82526" lon="4.85183">
        <ele>355</ele>
        <time>2022-07-15T09:59:47.000Z</time>
      </trkpt>
      <trkpt lat="49.82522" lon="4.85188">
        <ele>355</ele>
        <time>2022-07-15T09:59:48.000Z</time>
      </trkpt>
      <trkpt lat="49.82518" lon="4.85193">
        <ele>355</ele>
        <time>2022-07-15T09:59:49.000Z</time>
      </trkpt>
      <trkpt lat="49.82513" lon="4.85198">
        <ele>355</ele>
        <time>2022-07-15T09:59:50.000Z</time>
      </trkpt>
      <trkpt lat="49.82509" lon="4.85203">
        <ele>355</ele>
        <time>2022-07-15T09:59:51.000Z</time>
      </trkpt>
      <trkpt lat="49.82505" lon="4.85207">
        <ele>355</ele>
        <time>2022-07-15T09:59:52.000Z</time>
      </trkpt>
      <trkpt lat="49.82501" lon="4.8521">
        <ele>355</ele>
        <time>2022-07-15T09:59:53.000Z</time>
      </trkpt>
      <trkpt lat="49.82497" lon="4.85213">
        <ele>355</ele>
        <time>2022-07-15T09:59:54.000Z</time>
      </trkpt>
      <trkpt lat="49.82492" lon="4.85217">
        <ele>355</ele>
        <time>2022-07-15T09:59:55.000Z</time>
      </trkpt>
      <trkpt lat="49.82487" lon="4.85222">
        <ele>354</ele>
        <time>2022-07-15T09:59:56.000Z</time>
      </trkpt>
      <trkpt lat="49.82482" lon="4.85229">
        <ele>354</ele>
        <time>2022-07-15T09:59:57.000Z</time>
      </trkpt>
      <trkpt lat="49.82476" lon="4.85235">
        <ele>354</ele>
        <time>2022-07-15T09:59:58.000Z</time>
      </trkpt>
      <trkpt lat="49.82471" lon="4.85241">
        <ele>354</ele>
        <time>2022-07-15T09:59:59.000Z</time>
      </trkpt>
      <trkpt lat="49.82467" lon="4.85246">
        <ele>354</ele>
        <time>2022-07-15T10:00:00.000Z</time>
      </trkpt>
      <trkpt lat="49.82462" lon="4.85251">
        <ele>353</ele>
        <time>2022-07-15T10:00:01.000Z</time>
      </trkpt>
      <trkpt lat="49.82457" lon="4.85256">
        <ele>353</ele>
        <time>2022-07-15T10:00:02.000Z</time>
      </trkpt>
      <trkpt lat="49.82453" lon="4.8526">
        <ele>353</ele>
        <time>2022-07-15T10:00:03.000Z</time>
      </trkpt>
      <trkpt lat="49.82449" lon="4.85265">
        <ele>352</ele>
        <time>2022-07-15T10:00:04.000Z</time>
      </trkpt>
      <trkpt lat="49.82445" lon="4.8527">
        <ele>352</ele>
        <time>2022-07-15T10:00:05.000Z</time>
      </trkpt>
      <trkpt lat="49.82441" lon="4.85275">
        <ele>352</ele>
        <time>2022-07-15T10:00:06.000Z</time>
      </trkpt>
      <trkpt lat="49.82436" lon="4.8528">
        <ele>351</ele>
        <time>2022-07-15T10:00:07.000Z</time>
      </trkpt>
      <trkpt lat="49.82431" lon="4.85286">
        <ele>351</ele>
        <time>2022-07-15T10:00:08.000Z</time>
      </trkpt>
      <trkpt lat="49.82427" lon="4.85291">
        <ele>350</ele>
        <time>2022-07-15T10:00:09.000Z</time>
      </trkpt>
      <trkpt lat="49.82422" lon="4.85296">
        <ele>350</ele>
        <time>2022-07-15T10:00:10.000Z</time>
      </trkpt>
      <trkpt lat="49.82418" lon="4.85301">
        <ele>350</ele>
        <time>2022-07-15T10:00:11.000Z</time>
      </trkpt>
      <trkpt lat="49.82413" lon="4.85308">
        <ele>349</ele>
        <time>2022-07-15T10:00:12.000Z</time>
      </trkpt>
      <trkpt lat="49.82409" lon="4.85313">
        <ele>349</ele>
        <time>2022-07-15T10:00:13.000Z</time>
      </trkpt>
      <trkpt lat="49.82405" lon="4.85318">
        <ele>348</ele>
        <time>2022-07-15T10:00:14.000Z</time>
      </trkpt>
      <trkpt lat="49.82402" lon="4.85322">
        <ele>348</ele>
        <time>2022-07-15T10:00:15.000Z</time>
      </trkpt>
      <trkpt lat="49.82398" lon="4.85326">
        <ele>347</ele>
        <time>2022-07-15T10:00:16.000Z</time>
      </trkpt>
      <trkpt lat="49.82395" lon="4.8533">
        <ele>347</ele>
        <time>2022-07-15T10:00:17.000Z</time>
      </trkpt>
      <trkpt lat="49.8239" lon="4.85334">
        <ele>346</ele>
        <time>2022-07-15T10:00:18.000Z</time>
      </trkpt>
      <trkpt lat="49.82386" lon="4.85338">
        <ele>346</ele>
        <time>2022-07-15T10:00:19.000Z</time>
      </trkpt>
      <trkpt lat="49.82382" lon="4.85343">
        <ele>345</ele>
        <time>2022-07-15T10:00:20.000Z</time>
      </trkpt>
      <trkpt lat="49.82377" lon="4.85347">
        <ele>345</ele>
        <time>2022-07-15T10:00:21.000Z</time>
      </trkpt>
      <trkpt lat="49.82373" lon="4.85351">
        <ele>345</ele>
        <time>2022-07-15T10:00:22.000Z</time>
      </trkpt>
      <trkpt lat="49.82369" lon="4.85355">
        <ele>344</ele>
        <time>2022-07-15T10:00:23.000Z</time>
      </trkpt>
      <trkpt lat="49.82365" lon="4.8536">
        <ele>344</ele>
        <time>2022-07-15T10:00:24.000Z</time>
      </trkpt>
      <trkpt lat="49.82361" lon="4.85364">
        <ele>343</ele>
        <time>2022-07-15T10:00:25.000Z</time>
      </trkpt>
      <trkpt lat="49.82358" lon="4.85368">
        <ele>343</ele>
        <time>2022-07-15T10:00:26.000Z</time>
      </trkpt>
      <trkpt lat="49.82355" lon="4.85371">
        <ele>343</ele>
        <time>2022-07-15T10:00:27.000Z</time>
      </trkpt>
      <trkpt lat="49.82352" lon="4.85375">
        <ele>342</ele>
        <time>2022-07-15T10:00:28.000Z</time>
      </trkpt>
      <trkpt lat="49.82349" lon="4.85379">
        <ele>342</ele>
        <time>2022-07-15T10:00:29.000Z</time>
      </trkpt>
      <trkpt lat="49.82346" lon="4.85383">
        <ele>341</ele>
        <time>2022-07-15T10:00:30.000Z</time>
      </trkpt>
      <trkpt lat="49.82343" lon="4.85387">
        <ele>341</ele>
        <time>2022-07-15T10:00:31.000Z</time>
      </trkpt>
      <trkpt lat="49.8234" lon="4.8539">
        <ele>341</ele>
        <time>2022-07-15T10:00:32.000Z</time>
      </trkpt>
      <trkpt lat="49.82337" lon="4.85394">
        <ele>340</ele>
        <time>2022-07-15T10:00:33.000Z</time>
      </trkpt>
      <trkpt lat="49.82333" lon="4.85398">
        <ele>340</ele>
        <time>2022-07-15T10:00:34.000Z</time>
      </trkpt>
      <trkpt lat="49.8233" lon="4.85402">
        <ele>340</ele>
        <time>2022-07-15T10:00:35.000Z</time>
      </trkpt>
      <trkpt lat="49.82327" lon="4.85406">
        <ele>339</ele>
        <time>2022-07-15T10:00:36.000Z</time>
      </trkpt>
      <trkpt lat="49.82324" lon="4.8541">
        <ele>339</ele>
        <time>2022-07-15T10:00:37.000Z</time>
      </trkpt>
      <trkpt lat="49.8232" lon="4.85415">
        <ele>339</ele>
        <time>2022-07-15T10:00:38.000Z</time>
      </trkpt>
      <trkpt lat="49.82317" lon="4.85419">
        <ele>339</ele>
        <time>2022-07-15T10:00:39.000Z</time>
      </trkpt>
      <trkpt lat="49.82313" lon="4.85422">
        <ele>339</ele>
        <time>2022-07-15T10:00:40.000Z</time>
      </trkpt>
      <trkpt lat="49.8231" lon="4.85426">
        <ele>338</ele>
        <time>2022-07-15T10:00:41.000Z</time>
      </trkpt>
      <trkpt lat="49.82308" lon="4.85431">
        <ele>338</ele>
        <time>2022-07-15T10:00:42.000Z</time>
      </trkpt>
      <trkpt lat="49.82306" lon="4.85435">
        <ele>338</ele>
        <time>2022-07-15T10:00:43.000Z</time>
      </trkpt>
      <trkpt lat="49.82303" lon="4.85438">
        <ele>338</ele>
        <time>2022-07-15T10:00:44.000Z</time>
      </trkpt>
      <trkpt lat="49.823" lon="4.85441">
        <ele>337</ele>
        <time>2022-07-15T10:00:45.000Z</time>
      </trkpt>
      <trkpt lat="49.82298" lon="4.85444">
        <ele>337</ele>
        <time>2022-07-15T10:00:46.000Z</time>
      </trkpt>
      <trkpt lat="49.82295" lon="4.85447">
        <ele>337</ele>
        <time>2022-07-15T10:00:47.000Z</time>
      </trkpt>
      <trkpt lat="49.82293" lon="4.85451">
        <ele>337</ele>
        <time>2022-07-15T10:00:48.000Z</time>
      </trkpt>
      <trkpt lat="49.82289" lon="4.85454">
        <ele>336</ele>
        <time>2022-07-15T10:00:49.000Z</time>
      </trkpt>
      <trkpt lat="49.82286" lon="4.85458">
        <ele>336</ele>
        <time>2022-07-15T10:00:50.000Z</time>
      </trkpt>
      <trkpt lat="49.82283" lon="4.85461">
        <ele>336</ele>
        <time>2022-07-15T10:00:51.000Z</time>
      </trkpt>
      <trkpt lat="49.82279" lon="4.85464">
        <ele>335</ele>
        <time>2022-07-15T10:00:52.000Z</time>
      </trkpt>
      <trkpt lat="49.82275" lon="4.85468">
        <ele>335</ele>
        <time>2022-07-15T10:00:53.000Z</time>
      </trkpt>
      <trkpt lat="49.82271" lon="4.85472">
        <ele>335</ele>
        <time>2022-07-15T10:00:54.000Z</time>
      </trkpt>
      <trkpt lat="49.82267" lon="4.85476">
        <ele>334</ele>
        <time>2022-07-15T10:00:55.000Z</time>
      </trkpt>
      <trkpt lat="49.82262" lon="4.85481">
        <ele>334</ele>
        <time>2022-07-15T10:00:56.000Z</time>
      </trkpt>
      <trkpt lat="49.82258" lon="4.85486">
        <ele>334</ele>
        <time>2022-07-15T10:00:57.000Z</time>
      </trkpt>
      <trkpt lat="49.82253" lon="4.85492">
        <ele>334</ele>
        <time>2022-07-15T10:00:58.000Z</time>
      </trkpt>
      <trkpt lat="49.82248" lon="4.85497">
        <ele>333</ele>
        <time>2022-07-15T10:00:59.000Z</time>
      </trkpt>
      <trkpt lat="49.82243" lon="4.85501">
        <ele>333</ele>
        <time>2022-07-15T10:01:00.000Z</time>
      </trkpt>
      <trkpt lat="49.82238" lon="4.85505">
        <ele>333</ele>
        <time>2022-07-15T10:01:01.000Z</time>
      </trkpt>
      <trkpt lat="49.82234" lon="4.8551">
        <ele>332</ele>
        <time>2022-07-15T10:01:02.000Z</time>
      </trkpt>
      <trkpt lat="49.8223" lon="4.85515">
        <ele>332</ele>
        <time>2022-07-15T10:01:03.000Z</time>
      </trkpt>
      <trkpt lat="49.82227" lon="4.85519">
        <ele>332</ele>
        <time>2022-07-15T10:01:04.000Z</time>
      </trkpt>
      <trkpt lat="49.82223" lon="4.85523">
        <ele>331</ele>
        <time>2022-07-15T10:01:05.000Z</time>
      </trkpt>
      <trkpt lat="49.82219" lon="4.85528">
        <ele>331</ele>
        <time>2022-07-15T10:01:06.000Z</time>
      </trkpt>
      <trkpt lat="49.82215" lon="4.85534">
        <ele>331</ele>
        <time>2022-07-15T10:01:07.000Z</time>
      </trkpt>
      <trkpt lat="49.8221" lon="4.85539">
        <ele>331</ele>
        <time>2022-07-15T10:01:08.000Z</time>
      </trkpt>
      <trkpt lat="49.82206" lon="4.85545">
        <ele>330</ele>
        <time>2022-07-15T10:01:09.000Z</time>
      </trkpt>
      <trkpt lat="49.82202" lon="4.8555">
        <ele>330</ele>
        <time>2022-07-15T10:01:10.000Z</time>
      </trkpt>
      <trkpt lat="49.82198" lon="4.85555">
        <ele>330</ele>
        <time>2022-07-15T10:01:11.000Z</time>
      </trkpt>
      <trkpt lat="49.82195" lon="4.85558">
        <ele>330</ele>
        <time>2022-07-15T10:01:12.000Z</time>
      </trkpt>
      <trkpt lat="49.82191" lon="4.85563">
        <ele>329</ele>
        <time>2022-07-15T10:01:13.000Z</time>
      </trkpt>
      <trkpt lat="49.82188" lon="4.85568">
        <ele>329</ele>
        <time>2022-07-15T10:01:14.000Z</time>
      </trkpt>
      <trkpt lat="49.82184" lon="4.85573">
        <ele>328</ele>
        <time>2022-07-15T10:01:15.000Z</time>
      </trkpt>
      <trkpt lat="49.82181" lon="4.85576">
        <ele>328</ele>
        <time>2022-07-15T10:01:16.000Z</time>
      </trkpt>
      <trkpt lat="49.82178" lon="4.8558">
        <ele>328</ele>
        <time>2022-07-15T10:01:17.000Z</time>
      </trkpt>
      <trkpt lat="49.82174" lon="4.85584">
        <ele>327</ele>
        <time>2022-07-15T10:01:18.000Z</time>
      </trkpt>
      <trkpt lat="49.82171" lon="4.85587">
        <ele>327</ele>
        <time>2022-07-15T10:01:19.000Z</time>
      </trkpt>
      <trkpt lat="49.82167" lon="4.8559">
        <ele>326</ele>
        <time>2022-07-15T10:01:20.000Z</time>
      </trkpt>
      <trkpt lat="49.82163" lon="4.85594">
        <ele>326</ele>
        <time>2022-07-15T10:01:21.000Z</time>
      </trkpt>
      <trkpt lat="49.82159" lon="4.85599">
        <ele>325</ele>
        <time>2022-07-15T10:01:22.000Z</time>
      </trkpt>
      <trkpt lat="49.82155" lon="4.85602">
        <ele>325</ele>
        <time>2022-07-15T10:01:23.000Z</time>
      </trkpt>
      <trkpt lat="49.82151" lon="4.85605">
        <ele>324</ele>
        <time>2022-07-15T10:01:24.000Z</time>
      </trkpt>
      <trkpt lat="49.82147" lon="4.85608">
        <ele>323</ele>
        <time>2022-07-15T10:01:25.000Z</time>
      </trkpt>
      <trkpt lat="49.82143" lon="4.85612">
        <ele>323</ele>
        <time>2022-07-15T10:01:26.000Z</time>
      </trkpt>
      <trkpt lat="49.82141" lon="4.85615">
        <ele>322</ele>
        <time>2022-07-15T10:01:27.000Z</time>
      </trkpt>
      <trkpt lat="49.82137" lon="4.85618">
        <ele>321</ele>
        <time>2022-07-15T10:01:28.000Z</time>
      </trkpt>
      <trkpt lat="49.82133" lon="4.85622">
        <ele>320</ele>
        <time>2022-07-15T10:01:29.000Z</time>
      </trkpt>
      <trkpt lat="49.8213" lon="4.85627">
        <ele>320</ele>
        <time>2022-07-15T10:01:30.000Z</time>
      </trkpt>
      <trkpt lat="49.82127" lon="4.85631">
        <ele>319</ele>
        <time>2022-07-15T10:01:31.000Z</time>
      </trkpt>
      <trkpt lat="49.82124" lon="4.85634">
        <ele>318</ele>
        <time>2022-07-15T10:01:32.000Z</time>
      </trkpt>
      <trkpt lat="49.82121" lon="4.85637">
        <ele>317</ele>
        <time>2022-07-15T10:01:33.000Z</time>
      </trkpt>
      <trkpt lat="49.82118" lon="4.8564">
        <ele>316</ele>
        <time>2022-07-15T10:01:34.000Z</time>
      </trkpt>
      <trkpt lat="49.82115" lon="4.85643">
        <ele>314</ele>
        <time>2022-07-15T10:01:35.000Z</time>
      </trkpt>
      <trkpt lat="49.82113" lon="4.85645">
        <ele>313</ele>
        <time>2022-07-15T10:01:36.000Z</time>
      </trkpt>
      <trkpt lat="49.8211" lon="4.85647">
        <ele>312</ele>
        <time>2022-07-15T10:01:37.000Z</time>
      </trkpt>
      <trkpt lat="49.82108" lon="4.85648">
        <ele>311</ele>
        <time>2022-07-15T10:01:38.000Z</time>
      </trkpt>
      <trkpt lat="49.82106" lon="4.8565">
        <ele>310</ele>
        <time>2022-07-15T10:01:39.000Z</time>
      </trkpt>
      <trkpt lat="49.82104" lon="4.85652">
        <ele>309</ele>
        <time>2022-07-15T10:01:40.000Z</time>
      </trkpt>
      <trkpt lat="49.82102" lon="4.85654">
        <ele>308</ele>
        <time>2022-07-15T10:01:41.000Z</time>
      </trkpt>
      <trkpt lat="49.821" lon="4.85656">
        <ele>307</ele>
        <time>2022-07-15T10:01:42.000Z</time>
      </trkpt>
      <trkpt lat="49.82098" lon="4.85658">
        <ele>306</ele>
        <time>2022-07-15T10:01:43.000Z</time>
      </trkpt>
      <trkpt lat="49.82096" lon="4.85659">
        <ele>305</ele>
        <time>2022-07-15T10:01:44.000Z</time>
      </trkpt>
      <trkpt lat="49.82094" lon="4.85662">
        <ele>304</ele>
        <time>2022-07-15T10:01:45.000Z</time>
      </trkpt>
      <trkpt lat="49.82091" lon="4.85665">
        <ele>303</ele>
        <time>2022-07-15T10:01:46.000Z</time>
      </trkpt>
      <trkpt lat="49.82089" lon="4.85669">
        <ele>302</ele>
        <time>2022-07-15T10:01:47.000Z</time>
      </trkpt>
      <trkpt lat="49.82086" lon="4.85672">
        <ele>302</ele>
        <time>2022-07-15T10:01:48.000Z</time>
      </trkpt>
      <trkpt lat="49.82083" lon="4.85675">
        <ele>301</ele>
        <time>2022-07-15T10:01:49.000Z</time>
      </trkpt>
      <trkpt lat="49.8208" lon="4.85678">
        <ele>300</ele>
        <time>2022-07-15T10:01:50.000Z</time>
      </trkpt>
      <trkpt lat="49.82077" lon="4.85682">
        <ele>299</ele>
        <time>2022-07-15T10:01:51.000Z</time>
      </trkpt>
      <trkpt lat="49.82075" lon="4.85685">
        <ele>298</ele>
        <time>2022-07-15T10:01:52.000Z</time>
      </trkpt>
      <trkpt lat="49.82073" lon="4.85687">
        <ele>297</ele>
        <time>2022-07-15T10:01:53.000Z</time>
      </trkpt>
      <trkpt lat="49.82071" lon="4.85689">
        <ele>295</ele>
        <time>2022-07-15T10:01:54.000Z</time>
      </trkpt>
      <trkpt lat="49.82069" lon="4.85691">
        <ele>294</ele>
        <time>2022-07-15T10:01:55.000Z</time>
      </trkpt>
      <trkpt lat="49.82067" lon="4.85692">
        <ele>293</ele>
        <time>2022-07-15T10:01:56.000Z</time>
      </trkpt>
      <trkpt lat="49.82066" lon="4.85694">
        <ele>292</ele>
        <time>2022-07-15T10:01:57.000Z</time>
      </trkpt>
      <trkpt lat="49.82065" lon="4.85695">
        <ele>291</ele>
        <time>2022-07-15T10:01:58.000Z</time>
      </trkpt>
      <trkpt lat="49.82064" lon="4.85697">
        <ele>290</ele>
        <time>2022-07-15T10:01:59.000Z</time>
      </trkpt>
      <trkpt lat="49.82062" lon="4.85698">
        <ele>289</ele>
        <time>2022-07-15T10:02:00.000Z</time>
      </trkpt>
      <trkpt lat="49.82061" lon="4.85699">
        <ele>288</ele>
        <time>2022-07-15T10:02:01.000Z</time>
      </trkpt>
      <trkpt lat="49.82059" lon="4.857">
        <ele>287</ele>
        <time>2022-07-15T10:02:02.000Z</time>
      </trkpt>
      <trkpt lat="49.82057" lon="4.85702">
        <ele>287</ele>
        <time>2022-07-15T10:02:03.000Z</time>
      </trkpt>
      <trkpt lat="49.82055" lon="4.85703">
        <ele>286</ele>
        <time>2022-07-15T10:02:04.000Z</time>
      </trkpt>
      <trkpt lat="49.82054" lon="4.85705">
        <ele>285</ele>
        <time>2022-07-15T10:02:05.000Z</time>
      </trkpt>
      <trkpt lat="49.82052" lon="4.85707">
        <ele>284</ele>
        <time>2022-07-15T10:02:06.000Z</time>
      </trkpt>
      <trkpt lat="49.8205" lon="4.85709">
        <ele>283</ele>
        <time>2022-07-15T10:02:07.000Z</time>
      </trkpt>
      <trkpt lat="49.82047" lon="4.85711">
        <ele>282</ele>
        <time>2022-07-15T10:02:08.000Z</time>
      </trkpt>
      <trkpt lat="49.82045" lon="4.85713">
        <ele>281</ele>
        <time>2022-07-15T10:02:09.000Z</time>
      </trkpt>
      <trkpt lat="49.82042" lon="4.85716">
        <ele>281</ele>
        <time>2022-07-15T10:02:10.000Z</time>
      </trkpt>
      <trkpt lat="49.82039" lon="4.85718">
        <ele>280</ele>
        <time>2022-07-15T10:02:11.000Z</time>
      </trkpt>
      <trkpt lat="49.82035" lon="4.85721">
        <ele>279</ele>
        <time>2022-07-15T10:02:12.000Z</time>
      </trkpt>
      <trkpt lat="49.82032" lon="4.85725">
        <ele>278</ele>
        <time>2022-07-15T10:02:13.000Z</time>
      </trkpt>
      <trkpt lat="49.82028" lon="4.85729">
        <ele>277</ele>
        <time>2022-07-15T10:02:14.000Z</time>
      </trkpt>
      <trkpt lat="49.82026" lon="4.85731">
        <ele>276</ele>
        <time>2022-07-15T10:02:15.000Z</time>
      </trkpt>
      <trkpt lat="49.82023" lon="4.85732">
        <ele>275</ele>
        <time>2022-07-15T10:02:16.000Z</time>
      </trkpt>
      <trkpt lat="49.82021" lon="4.85731">
        <ele>274</ele>
        <time>2022-07-15T10:02:17.000Z</time>
      </trkpt>
      <trkpt lat="49.82018" lon="4.85728">
        <ele>273</ele>
        <time>2022-07-15T10:02:18.000Z</time>
      </trkpt>
      <trkpt lat="49.82016" lon="4.85726">
        <ele>272</ele>
        <time>2022-07-15T10:02:19.000Z</time>
      </trkpt>
      <trkpt lat="49.82013" lon="4.85722">
        <ele>271</ele>
        <time>2022-07-15T10:02:20.000Z</time>
      </trkpt>
      <trkpt lat="49.8201" lon="4.85717">
        <ele>270</ele>
        <time>2022-07-15T10:02:21.000Z</time>
      </trkpt>
      <trkpt lat="49.82006" lon="4.85713">
        <ele>269</ele>
        <time>2022-07-15T10:02:22.000Z</time>
      </trkpt>
      <trkpt lat="49.82003" lon="4.85708">
        <ele>268</ele>
        <time>2022-07-15T10:02:23.000Z</time>
      </trkpt>
      <trkpt lat="49.81999" lon="4.85704">
        <ele>268</ele>
        <time>2022-07-15T10:02:24.000Z</time>
      </trkpt>
      <trkpt lat="49.81995" lon="4.85699">
        <ele>267</ele>
        <time>2022-07-15T10:02:25.000Z</time>
      </trkpt>
      <trkpt lat="49.81992" lon="4.85695">
        <ele>266</ele>
        <time>2022-07-15T10:02:26.000Z</time>
      </trkpt>
      <trkpt lat="49.81988" lon="4.8569">
        <ele>265</ele>
        <time>2022-07-15T10:02:27.000Z</time>
      </trkpt>
      <trkpt lat="49.81985" lon="4.85686">
        <ele>265</ele>
        <time>2022-07-15T10:02:28.000Z</time>
      </trkpt>
      <trkpt lat="49.81981" lon="4.85681">
        <ele>264</ele>
        <time>2022-07-15T10:02:29.000Z</time>
      </trkpt>
      <trkpt lat="49.81977" lon="4.85677">
        <ele>263</ele>
        <time>2022-07-15T10:02:30.000Z</time>
      </trkpt>
      <trkpt lat="49.81974" lon="4.85673">
        <ele>263</ele>
        <time>2022-07-15T10:02:31.000Z</time>
      </trkpt>
      <trkpt lat="49.81971" lon="4.85669">
        <ele>262</ele>
        <time>2022-07-15T10:02:32.000Z</time>
      </trkpt>
      <trkpt lat="49.81967" lon="4.85665">
        <ele>261</ele>
        <time>2022-07-15T10:02:33.000Z</time>
      </trkpt>
      <trkpt lat="49.81963" lon="4.85661">
        <ele>261</ele>
        <time>2022-07-15T10:02:34.000Z</time>
      </trkpt>
      <trkpt lat="49.81959" lon="4.85657">
        <ele>260</ele>
        <time>2022-07-15T10:02:35.000Z</time>
      </trkpt>
      <trkpt lat="49.81955" lon="4.85653">
        <ele>259</ele>
        <time>2022-07-15T10:02:36.000Z</time>
      </trkpt>
      <trkpt lat="49.8195" lon="4.85649">
        <ele>259</ele>
        <time>2022-07-15T10:02:37.000Z</time>
      </trkpt>
      <trkpt lat="49.81946" lon="4.85645">
        <ele>258</ele>
        <time>2022-07-15T10:02:38.000Z</time>
      </trkpt>
      <trkpt lat="49.81942" lon="4.85642">
        <ele>257</ele>
        <time>2022-07-15T10:02:39.000Z</time>
      </trkpt>
      <trkpt lat="49.81937" lon="4.85639">
        <ele>257</ele>
        <time>2022-07-15T10:02:40.000Z</time>
      </trkpt>
      <trkpt lat="49.81933" lon="4.85635">
        <ele>256</ele>
        <time>2022-07-15T10:02:41.000Z</time>
      </trkpt>
      <trkpt lat="49.81929" lon="4.85632">
        <ele>256</ele>
        <time>2022-07-15T10:02:42.000Z</time>
      </trkpt>
      <trkpt lat="49.81925" lon="4.85628">
        <ele>256</ele>
        <time>2022-07-15T10:02:43.000Z</time>
      </trkpt>
      <trkpt lat="49.81921" lon="4.85625">
        <ele>255</ele>
        <time>2022-07-15T10:02:44.000Z</time>
      </trkpt>
      <trkpt lat="49.81917" lon="4.85622">
        <ele>255</ele>
        <time>2022-07-15T10:02:45.000Z</time>
      </trkpt>
      <trkpt lat="49.81913" lon="4.85618">
        <ele>255</ele>
        <time>2022-07-15T10:02:46.000Z</time>
      </trkpt>
      <trkpt lat="49.81909" lon="4.85614">
        <ele>254</ele>
        <time>2022-07-15T10:02:47.000Z</time>
      </trkpt>
      <trkpt lat="49.81905" lon="4.8561">
        <ele>254</ele>
        <time>2022-07-15T10:02:48.000Z</time>
      </trkpt>
      <trkpt lat="49.81901" lon="4.85607">
        <ele>253</ele>
        <time>2022-07-15T10:02:49.000Z</time>
      </trkpt>
      <trkpt lat="49.81897" lon="4.85603">
        <ele>253</ele>
        <time>2022-07-15T10:02:50.000Z</time>
      </trkpt>
      <trkpt lat="49.81893" lon="4.856">
        <ele>253</ele>
        <time>2022-07-15T10:02:51.000Z</time>
      </trkpt>
      <trkpt lat="49.81889" lon="4.85596">
        <ele>253</ele>
        <time>2022-07-15T10:02:52.000Z</time>
      </trkpt>
      <trkpt lat="49.81884" lon="4.85591">
        <ele>252</ele>
        <time>2022-07-15T10:02:53.000Z</time>
      </trkpt>
      <trkpt lat="49.8188" lon="4.85585">
        <ele>252</ele>
        <time>2022-07-15T10:02:54.000Z</time>
      </trkpt>
      <trkpt lat="49.81876" lon="4.85579">
        <ele>252</ele>
        <time>2022-07-15T10:02:55.000Z</time>
      </trkpt>
      <trkpt lat="49.81873" lon="4.85573">
        <ele>251</ele>
        <time>2022-07-15T10:02:56.000Z</time>
      </trkpt>
      <trkpt lat="49.81869" lon="4.85566">
        <ele>251</ele>
        <time>2022-07-15T10:02:57.000Z</time>
      </trkpt>
      <trkpt lat="49.81865" lon="4.85558">
        <ele>251</ele>
        <time>2022-07-15T10:02:58.000Z</time>
      </trkpt>
      <trkpt lat="49.81861" lon="4.85549">
        <ele>250</ele>
        <time>2022-07-15T10:02:59.000Z</time>
      </trkpt>
      <trkpt lat="49.81857" lon="4.85541">
        <ele>250</ele>
        <time>2022-07-15T10:03:00.000Z</time>
      </trkpt>
      <trkpt lat="49.81853" lon="4.85532">
        <ele>250</ele>
        <time>2022-07-15T10:03:01.000Z</time>
      </trkpt>
      <trkpt lat="49.81849" lon="4.85524">
        <ele>249</ele>
        <time>2022-07-15T10:03:02.000Z</time>
      </trkpt>
      <trkpt lat="49.81846" lon="4.85515">
        <ele>249</ele>
        <time>2022-07-15T10:03:03.000Z</time>
      </trkpt>
      <trkpt lat="49.81843" lon="4.85506">
        <ele>249</ele>
        <time>2022-07-15T10:03:04.000Z</time>
      </trkpt>
      <trkpt lat="49.81841" lon="4.85496">
        <ele>249</ele>
        <time>2022-07-15T10:03:05.000Z</time>
      </trkpt>
      <trkpt lat="49.81839" lon="4.85485">
        <ele>248</ele>
        <time>2022-07-15T10:03:06.000Z</time>
      </trkpt>
      <trkpt lat="49.81837" lon="4.85476">
        <ele>248</ele>
        <time>2022-07-15T10:03:07.000Z</time>
      </trkpt>
      <trkpt lat="49.81835" lon="4.85466">
        <ele>248</ele>
        <time>2022-07-15T10:03:08.000Z</time>
      </trkpt>
      <trkpt lat="49.81833" lon="4.85456">
        <ele>247</ele>
        <time>2022-07-15T10:03:09.000Z</time>
      </trkpt>
      <trkpt lat="49.81831" lon="4.85446">
        <ele>247</ele>
        <time>2022-07-15T10:03:10.000Z</time>
      </trkpt>
      <trkpt lat="49.8183" lon="4.85435">
        <ele>247</ele>
        <time>2022-07-15T10:03:11.000Z</time>
      </trkpt>
      <trkpt lat="49.81828" lon="4.85424">
        <ele>247</ele>
        <time>2022-07-15T10:03:12.000Z</time>
      </trkpt>
      <trkpt lat="49.81827" lon="4.85413">
        <ele>246</ele>
        <time>2022-07-15T10:03:13.000Z</time>
      </trkpt>
      <trkpt lat="49.81825" lon="4.85403">
        <ele>246</ele>
        <time>2022-07-15T10:03:14.000Z</time>
      </trkpt>
      <trkpt lat="49.81824" lon="4.85392">
        <ele>246</ele>
        <time>2022-07-15T10:03:15.000Z</time>
      </trkpt>
      <trkpt lat="49.81823" lon="4.85382">
        <ele>246</ele>
        <time>2022-07-15T10:03:16.000Z</time>
      </trkpt>
      <trkpt lat="49.81823" lon="4.85371">
        <ele>245</ele>
        <time>2022-07-15T10:03:17.000Z</time>
      </trkpt>
      <trkpt lat="49.81822" lon="4.85359">
        <ele>245</ele>
        <time>2022-07-15T10:03:18.000Z</time>
      </trkpt>
      <trkpt lat="49.81822" lon="4.85346">
        <ele>245</ele>
        <time>2022-07-15T10:03:19.000Z</time>
      </trkpt>
      <trkpt lat="49.81823" lon="4.85335">
        <ele>245</ele>
        <time>2022-07-15T10:03:20.000Z</time>
      </trkpt>
      <trkpt lat="49.81824" lon="4.85324">
        <ele>244</ele>
        <time>2022-07-15T10:03:21.000Z</time>
      </trkpt>
      <trkpt lat="49.81826" lon="4.85313">
        <ele>244</ele>
        <time>2022-07-15T10:03:22.000Z</time>
      </trkpt>
      <trkpt lat="49.81829" lon="4.85303">
        <ele>243</ele>
        <time>2022-07-15T10:03:23.000Z</time>
      </trkpt>
      <trkpt lat="49.81831" lon="4.85293">
        <ele>243</ele>
        <time>2022-07-15T10:03:24.000Z</time>
      </trkpt>
      <trkpt lat="49.81832" lon="4.85284">
        <ele>242</ele>
        <time>2022-07-15T10:03:25.000Z</time>
      </trkpt>
      <trkpt lat="49.81833" lon="4.85274">
        <ele>242</ele>
        <time>2022-07-15T10:03:26.000Z</time>
      </trkpt>
      <trkpt lat="49.81834" lon="4.85264">
        <ele>242</ele>
        <time>2022-07-15T10:03:27.000Z</time>
      </trkpt>
      <trkpt lat="49.81835" lon="4.85255">
        <ele>241</ele>
        <time>2022-07-15T10:03:28.000Z</time>
      </trkpt>
      <trkpt lat="49.81836" lon="4.85245">
        <ele>240</ele>
        <time>2022-07-15T10:03:29.000Z</time>
      </trkpt>
      <trkpt lat="49.81838" lon="4.85236">
        <ele>240</ele>
        <time>2022-07-15T10:03:30.000Z</time>
      </trkpt>
      <trkpt lat="49.81839" lon="4.85227">
        <ele>239</ele>
        <time>2022-07-15T10:03:31.000Z</time>
      </trkpt>
      <trkpt lat="49.81841" lon="4.85217">
        <ele>238</ele>
        <time>2022-07-15T10:03:32.000Z</time>
      </trkpt>
      <trkpt lat="49.81842" lon="4.85207">
        <ele>238</ele>
        <time>2022-07-15T10:03:33.000Z</time>
      </trkpt>
      <trkpt lat="49.81844" lon="4.85196">
        <ele>237</ele>
        <time>2022-07-15T10:03:34.000Z</time>
      </trkpt>
      <trkpt lat="49.81845" lon="4.85186">
        <ele>236</ele>
        <time>2022-07-15T10:03:35.000Z</time>
      </trkpt>
      <trkpt lat="49.81846" lon="4.85176">
        <ele>236</ele>
        <time>2022-07-15T10:03:36.000Z</time>
      </trkpt>
      <trkpt lat="49.81848" lon="4.85166">
        <ele>235</ele>
        <time>2022-07-15T10:03:37.000Z</time>
      </trkpt>
      <trkpt lat="49.81849" lon="4.85156">
        <ele>234</ele>
        <time>2022-07-15T10:03:38.000Z</time>
      </trkpt>
      <trkpt lat="49.8185" lon="4.85145">
        <ele>234</ele>
        <time>2022-07-15T10:03:39.000Z</time>
      </trkpt>
      <trkpt lat="49.81851" lon="4.85135">
        <ele>233</ele>
        <time>2022-07-15T10:03:40.000Z</time>
      </trkpt>
      <trkpt lat="49.81853" lon="4.85125">
        <ele>233</ele>
        <time>2022-07-15T10:03:41.000Z</time>
      </trkpt>
      <trkpt lat="49.81854" lon="4.85116">
        <ele>232</ele>
        <time>2022-07-15T10:03:42.000Z</time>
      </trkpt>
      <trkpt lat="49.81855" lon="4.85107">
        <ele>232</ele>
        <time>2022-07-15T10:03:43.000Z</time>
      </trkpt>
      <trkpt lat="49.81856" lon="4.85098">
        <ele>232</ele>
        <time>2022-07-15T10:03:44.000Z</time>
      </trkpt>
      <trkpt lat="49.81857" lon="4.8509">
        <ele>231</ele>
        <time>2022-07-15T10:03:45.000Z</time>
      </trkpt>
      <trkpt lat="49.81858" lon="4.85081">
        <ele>231</ele>
        <time>2022-07-15T10:03:46.000Z</time>
      </trkpt>
      <trkpt lat="49.81859" lon="4.85073">
        <ele>231</ele>
        <time>2022-07-15T10:03:47.000Z</time>
      </trkpt>
      <trkpt lat="49.8186" lon="4.85065">
        <ele>230</ele>
        <time>2022-07-15T10:03:48.000Z</time>
      </trkpt>
      <trkpt lat="49.81861" lon="4.85057">
        <ele>230</ele>
        <time>2022-07-15T10:03:49.000Z</time>
      </trkpt>
      <trkpt lat="49.81862" lon="4.85048">
        <ele>230</ele>
        <time>2022-07-15T10:03:50.000Z</time>
      </trkpt>
      <trkpt lat="49.81863" lon="4.85041">
        <ele>230</ele>
        <time>2022-07-15T10:03:51.000Z</time>
      </trkpt>
      <trkpt lat="49.81864" lon="4.85033">
        <ele>229</ele>
        <time>2022-07-15T10:03:52.000Z</time>
      </trkpt>
      <trkpt lat="49.81864" lon="4.85024">
        <ele>229</ele>
        <time>2022-07-15T10:03:53.000Z</time>
      </trkpt>
      <trkpt lat="49.81864" lon="4.85017">
        <ele>229</ele>
        <time>2022-07-15T10:03:54.000Z</time>
      </trkpt>
      <trkpt lat="49.81864" lon="4.85009">
        <ele>229</ele>
        <time>2022-07-15T10:03:55.000Z</time>
      </trkpt>
      <trkpt lat="49.81862" lon="4.85001">
        <ele>229</ele>
        <time>2022-07-15T10:03:56.000Z</time>
      </trkpt>
      <trkpt lat="49.81859" lon="4.84993">
        <ele>229</ele>
        <time>2022-07-15T10:03:57.000Z</time>
      </trkpt>
      <trkpt lat="49.81855" lon="4.84985">
        <ele>229</ele>
        <time>2022-07-15T10:03:58.000Z</time>
      </trkpt>
      <trkpt lat="49.8185" lon="4.84976">
        <ele>228</ele>
        <time>2022-07-15T10:03:59.000Z</time>
      </trkpt>
      <trkpt lat="49.81846" lon="4.84965">
        <ele>228</ele>
        <time>2022-07-15T10:04:00.000Z</time>
      </trkpt>
      <trkpt lat="49.81842" lon="4.84954">
        <ele>228</ele>
        <time>2022-07-15T10:04:01.000Z</time>
      </trkpt>
      <trkpt lat="49.81839" lon="4.84946">
        <ele>228</ele>
        <time>2022-07-15T10:04:02.000Z</time>
      </trkpt>
      <trkpt lat="49.81835" lon="4.84939">
        <ele>227</ele>
        <time>2022-07-15T10:04:03.000Z</time>
      </trkpt>
      <trkpt lat="49.81831" lon="4.84935">
        <ele>227</ele>
        <time>2022-07-15T10:04:04.000Z</time>
      </trkpt>
      <trkpt lat="49.81826" lon="4.84935">
        <ele>227</ele>
        <time>2022-07-15T10:04:05.000Z</time>
      </trkpt>
      <trkpt lat="49.81821" lon="4.84936">
        <ele>227</ele>
        <time>2022-07-15T10:04:06.000Z</time>
      </trkpt>
      <trkpt lat="49.81815" lon="4.84938">
        <ele>227</ele>
        <time>2022-07-15T10:04:07.000Z</time>
      </trkpt>
      <trkpt lat="49.81809" lon="4.84939">
        <ele>226</ele>
        <time>2022-07-15T10:04:08.000Z</time>
      </trkpt>
      <trkpt lat="49.81801" lon="4.84941">
        <ele>226</ele>
        <time>2022-07-15T10:04:09.000Z</time>
      </trkpt>
      <trkpt lat="49.81793" lon="4.84942">
        <ele>226</ele>
        <time>2022-07-15T10:04:10.000Z</time>
      </trkpt>
      <trkpt lat="49.81785" lon="4.84943">
        <ele>225</ele>
        <time>2022-07-15T10:04:11.000Z</time>
      </trkpt>
      <trkpt lat="49.81778" lon="4.84944">
        <ele>225</ele>
        <time>2022-07-15T10:04:12.000Z</time>
      </trkpt>
      <trkpt lat="49.81769" lon="4.84945">
        <ele>225</ele>
        <time>2022-07-15T10:04:13.000Z</time>
      </trkpt>
      <trkpt lat="49.81761" lon="4.84945">
        <ele>224</ele>
        <time>2022-07-15T10:04:14.000Z</time>
      </trkpt>
      <trkpt lat="49.81753" lon="4.84946">
        <ele>224</ele>
        <time>2022-07-15T10:04:15.000Z</time>
      </trkpt>
      <trkpt lat="49.81744" lon="4.84946">
        <ele>223</ele>
        <time>2022-07-15T10:04:16.000Z</time>
      </trkpt>
      <trkpt lat="49.81736" lon="4.84946">
        <ele>222</ele>
        <time>2022-07-15T10:04:17.000Z</time>
      </trkpt>
      <trkpt lat="49.81728" lon="4.84946">
        <ele>222</ele>
        <time>2022-07-15T10:04:18.000Z</time>
      </trkpt>
      <trkpt lat="49.81719" lon="4.84946">
        <ele>221</ele>
        <time>2022-07-15T10:04:19.000Z</time>
      </trkpt>
      <trkpt lat="49.81711" lon="4.84945">
        <ele>221</ele>
        <time>2022-07-15T10:04:20.000Z</time>
      </trkpt>
      <trkpt lat="49.81702" lon="4.84945">
        <ele>220</ele>
        <time>2022-07-15T10:04:21.000Z</time>
      </trkpt>
      <trkpt lat="49.81694" lon="4.84945">
        <ele>220</ele>
        <time>2022-07-15T10:04:22.000Z</time>
      </trkpt>
      <trkpt lat="49.81686" lon="4.84945">
        <ele>219</ele>
        <time>2022-07-15T10:04:23.000Z</time>
      </trkpt>
      <trkpt lat="49.81678" lon="4.84946">
        <ele>219</ele>
        <time>2022-07-15T10:04:24.000Z</time>
      </trkpt>
      <trkpt lat="49.8167" lon="4.84945">
        <ele>218</ele>
        <time>2022-07-15T10:04:25.000Z</time>
      </trkpt>
      <trkpt lat="49.81663" lon="4.84945">
        <ele>218</ele>
        <time>2022-07-15T10:04:26.000Z</time>
      </trkpt>
      <trkpt lat="49.81655" lon="4.84944">
        <ele>217</ele>
        <time>2022-07-15T10:04:27.000Z</time>
      </trkpt>
      <trkpt lat="49.81648" lon="4.84944">
        <ele>217</ele>
        <time>2022-07-15T10:04:28.000Z</time>
      </trkpt>
      <trkpt lat="49.81641" lon="4.84943">
        <ele>217</ele>
        <time>2022-07-15T10:04:29.000Z</time>
      </trkpt>
      <trkpt lat="49.81634" lon="4.84942">
        <ele>217</ele>
        <time>2022-07-15T10:04:30.000Z</time>
      </trkpt>
      <trkpt lat="49.81627" lon="4.84941">
        <ele>216</ele>
        <time>2022-07-15T10:04:31.000Z</time>
      </trkpt>
      <trkpt lat="49.81621" lon="4.8494">
        <ele>216</ele>
        <time>2022-07-15T10:04:32.000Z</time>
      </trkpt>
      <trkpt lat="49.81615" lon="4.84939">
        <ele>216</ele>
        <time>2022-07-15T10:04:33.000Z</time>
      </trkpt>
      <trkpt lat="49.81609" lon="4.84939">
        <ele>216</ele>
        <time>2022-07-15T10:04:34.000Z</time>
      </trkpt>
      <trkpt lat="49.81603" lon="4.84938">
        <ele>217</ele>
        <time>2022-07-15T10:04:35.000Z</time>
      </trkpt>
      <trkpt lat="49.81598" lon="4.84938">
        <ele>217</ele>
        <time>2022-07-15T10:04:36.000Z</time>
      </trkpt>
      <trkpt lat="49.81593" lon="4.84937">
        <ele>217</ele>
        <time>2022-07-15T10:04:37.000Z</time>
      </trkpt>
      <trkpt lat="49.81589" lon="4.84936">
        <ele>217</ele>
        <time>2022-07-15T10:04:38.000Z</time>
      </trkpt>
      <trkpt lat="49.81585" lon="4.84936">
        <ele>217</ele>
        <time>2022-07-15T10:04:39.000Z</time>
      </trkpt>
      <trkpt lat="49.81581" lon="4.84935">
        <ele>217</ele>
        <time>2022-07-15T10:04:40.000Z</time>
      </trkpt>
      <trkpt lat="49.81577" lon="4.84935">
        <ele>217</ele>
        <time>2022-07-15T10:04:41.000Z</time>
      </trkpt>
      <trkpt lat="49.81574" lon="4.84936">
        <ele>217</ele>
        <time>2022-07-15T10:04:42.000Z</time>
      </trkpt>
      <trkpt lat="49.81572" lon="4.84938">
        <ele>217</ele>
        <time>2022-07-15T10:04:43.000Z</time>
      </trkpt>
      <trkpt lat="49.81569" lon="4.84941">
        <ele>217</ele>
        <time>2022-07-15T10:04:44.000Z</time>
      </trkpt>
      <trkpt lat="49.81566" lon="4.84945">
        <ele>217</ele>
        <time>2022-07-15T10:04:45.000Z</time>
      </trkpt>
      <trkpt lat="49.81563" lon="4.8495">
        <ele>217</ele>
        <time>2022-07-15T10:04:46.000Z</time>
      </trkpt>
      <trkpt lat="49.8156" lon="4.84956">
        <ele>217</ele>
        <time>2022-07-15T10:04:47.000Z</time>
      </trkpt>
      <trkpt lat="49.81557" lon="4.84962">
        <ele>217</ele>
        <time>2022-07-15T10:04:48.000Z</time>
      </trkpt>
      <trkpt lat="49.81555" lon="4.84969">
        <ele>217</ele>
        <time>2022-07-15T10:04:49.000Z</time>
      </trkpt>
      <trkpt lat="49.81552" lon="4.84976">
        <ele>217</ele>
        <time>2022-07-15T10:04:50.000Z</time>
      </trkpt>
      <trkpt lat="49.81549" lon="4.84981">
        <ele>217</ele>
        <time>2022-07-15T10:04:51.000Z</time>
      </trkpt>
      <trkpt lat="49.81546" lon="4.84985">
        <ele>217</ele>
        <time>2022-07-15T10:04:52.000Z</time>
      </trkpt>
      <trkpt lat="49.81543" lon="4.84989">
        <ele>218</ele>
        <time>2022-07-15T10:04:53.000Z</time>
      </trkpt>
      <trkpt lat="49.8154" lon="4.84991">
        <ele>218</ele>
        <time>2022-07-15T10:04:54.000Z</time>
      </trkpt>
      <trkpt lat="49.81537" lon="4.84992">
        <ele>218</ele>
        <time>2022-07-15T10:04:55.000Z</time>
      </trkpt>
      <trkpt lat="49.81534" lon="4.84992">
        <ele>218</ele>
        <time>2022-07-15T10:04:56.000Z</time>
      </trkpt>
      <trkpt lat="49.81531" lon="4.84991">
        <ele>219</ele>
        <time>2022-07-15T10:04:57.000Z</time>
      </trkpt>
      <trkpt lat="49.81528" lon="4.84989">
        <ele>219</ele>
        <time>2022-07-15T10:04:58.000Z</time>
      </trkpt>
      <trkpt lat="49.81526" lon="4.84985">
        <ele>219</ele>
        <time>2022-07-15T10:04:59.000Z</time>
      </trkpt>
      <trkpt lat="49.81525" lon="4.84981">
        <ele>220</ele>
        <time>2022-07-15T10:05:00.000Z</time>
      </trkpt>
      <trkpt lat="49.81525" lon="4.84976">
        <ele>220</ele>
        <time>2022-07-15T10:05:01.000Z</time>
      </trkpt>
      <trkpt lat="49.81527" lon="4.84971">
        <ele>220</ele>
        <time>2022-07-15T10:05:02.000Z</time>
      </trkpt>
      <trkpt lat="49.81528" lon="4.84966">
        <ele>220</ele>
        <time>2022-07-15T10:05:03.000Z</time>
      </trkpt>
      <trkpt lat="49.8153" lon="4.8496">
        <ele>220</ele>
        <time>2022-07-15T10:05:04.000Z</time>
      </trkpt>
      <trkpt lat="49.81532" lon="4.84953">
        <ele>220</ele>
        <time>2022-07-15T10:05:05.000Z</time>
      </trkpt>
      <trkpt lat="49.81534" lon="4.84947">
        <ele>220</ele>
        <time>2022-07-15T10:05:06.000Z</time>
      </trkpt>
      <trkpt lat="49.81535" lon="4.8494">
        <ele>220</ele>
        <time>2022-07-15T10:05:07.000Z</time>
      </trkpt>
      <trkpt lat="49.81538" lon="4.84933">
        <ele>220</ele>
        <time>2022-07-15T10:05:08.000Z</time>
      </trkpt>
      <trkpt lat="49.81539" lon="4.84927">
        <ele>220</ele>
        <time>2022-07-15T10:05:09.000Z</time>
      </trkpt>
      <trkpt lat="49.81541" lon="4.8492">
        <ele>220</ele>
        <time>2022-07-15T10:05:10.000Z</time>
      </trkpt>
      <trkpt lat="49.81542" lon="4.84914">
        <ele>220</ele>
        <time>2022-07-15T10:05:11.000Z</time>
      </trkpt>
      <trkpt lat="49.81542" lon="4.84908">
        <ele>220</ele>
        <time>2022-07-15T10:05:12.000Z</time>
      </trkpt>
      <trkpt lat="49.81542" lon="4.84902">
        <ele>221</ele>
        <time>2022-07-15T10:05:13.000Z</time>
      </trkpt>
      <trkpt lat="49.81542" lon="4.84896">
        <ele>221</ele>
        <time>2022-07-15T10:05:14.000Z</time>
      </trkpt>
      <trkpt lat="49.81542" lon="4.8489">
        <ele>221</ele>
        <time>2022-07-15T10:05:15.000Z</time>
      </trkpt>
      <trkpt lat="49.81541" lon="4.84884">
        <ele>221</ele>
        <time>2022-07-15T10:05:16.000Z</time>
      </trkpt>
      <trkpt lat="49.8154" lon="4.84878">
        <ele>221</ele>
        <time>2022-07-15T10:05:17.000Z</time>
      </trkpt>
      <trkpt lat="49.81539" lon="4.84872">
        <ele>221</ele>
        <time>2022-07-15T10:05:18.000Z</time>
      </trkpt>
      <trkpt lat="49.81538" lon="4.84865">
        <ele>221</ele>
        <time>2022-07-15T10:05:19.000Z</time>
      </trkpt>
      <trkpt lat="49.81536" lon="4.84859">
        <ele>221</ele>
        <time>2022-07-15T10:05:20.000Z</time>
      </trkpt>
      <trkpt lat="49.81534" lon="4.84853">
        <ele>221</ele>
        <time>2022-07-15T10:05:21.000Z</time>
      </trkpt>
      <trkpt lat="49.81533" lon="4.84846">
        <ele>221</ele>
        <time>2022-07-15T10:05:22.000Z</time>
      </trkpt>
      <trkpt lat="49.81531" lon="4.84839">
        <ele>221</ele>
        <time>2022-07-15T10:05:23.000Z</time>
      </trkpt>
      <trkpt lat="49.8153" lon="4.84832">
        <ele>221</ele>
        <time>2022-07-15T10:05:24.000Z</time>
      </trkpt>
      <trkpt lat="49.8153" lon="4.84824">
        <ele>221</ele>
        <time>2022-07-15T10:05:25.000Z</time>
      </trkpt>
      <trkpt lat="49.81528" lon="4.84816">
        <ele>221</ele>
        <time>2022-07-15T10:05:26.000Z</time>
      </trkpt>
      <trkpt lat="49.81527" lon="4.84809">
        <ele>221</ele>
        <time>2022-07-15T10:05:27.000Z</time>
      </trkpt>
      <trkpt lat="49.81525" lon="4.84801">
        <ele>221</ele>
        <time>2022-07-15T10:05:28.000Z</time>
      </trkpt>
      <trkpt lat="49.81524" lon="4.84794">
        <ele>221</ele>
        <time>2022-07-15T10:05:29.000Z</time>
      </trkpt>
      <trkpt lat="49.81522" lon="4.84787">
        <ele>221</ele>
        <time>2022-07-15T10:05:30.000Z</time>
      </trkpt>
      <trkpt lat="49.81519" lon="4.84779">
        <ele>221</ele>
        <time>2022-07-15T10:05:31.000Z</time>
      </trkpt>
      <trkpt lat="49.81517" lon="4.84772">
        <ele>221</ele>
        <time>2022-07-15T10:05:32.000Z</time>
      </trkpt>
      <trkpt lat="49.81515" lon="4.84764">
        <ele>221</ele>
        <time>2022-07-15T10:05:33.000Z</time>
      </trkpt>
      <trkpt lat="49.81513" lon="4.84756">
        <ele>221</ele>
        <time>2022-07-15T10:05:34.000Z</time>
      </trkpt>
      <trkpt lat="49.81511" lon="4.84748">
        <ele>221</ele>
        <time>2022-07-15T10:05:35.000Z</time>
      </trkpt>
      <trkpt lat="49.81509" lon="4.8474">
        <ele>221</ele>
        <time>2022-07-15T10:05:36.000Z</time>
      </trkpt>
      <trkpt lat="49.81507" lon="4.84732">
        <ele>222</ele>
        <time>2022-07-15T10:05:37.000Z</time>
      </trkpt>
      <trkpt lat="49.81505" lon="4.84724">
        <ele>222</ele>
        <time>2022-07-15T10:05:38.000Z</time>
      </trkpt>
      <trkpt lat="49.81503" lon="4.84716">
        <ele>222</ele>
        <time>2022-07-15T10:05:39.000Z</time>
      </trkpt>
      <trkpt lat="49.81502" lon="4.84708">
        <ele>222</ele>
        <time>2022-07-15T10:05:40.000Z</time>
      </trkpt>
      <trkpt lat="49.815" lon="4.84701">
        <ele>222</ele>
        <time>2022-07-15T10:05:41.000Z</time>
      </trkpt>
      <trkpt lat="49.81498" lon="4.84693">
        <ele>222</ele>
        <time>2022-07-15T10:05:42.000Z</time>
      </trkpt>
      <trkpt lat="49.81496" lon="4.84686">
        <ele>221</ele>
        <time>2022-07-15T10:05:43.000Z</time>
      </trkpt>
      <trkpt lat="49.81494" lon="4.84678">
        <ele>221</ele>
        <time>2022-07-15T10:05:44.000Z</time>
      </trkpt>
      <trkpt lat="49.81492" lon="4.84672">
        <ele>221</ele>
        <time>2022-07-15T10:05:45.000Z</time>
      </trkpt>
      <trkpt lat="49.81489" lon="4.84665">
        <ele>221</ele>
        <time>2022-07-15T10:05:46.000Z</time>
      </trkpt>
      <trkpt lat="49.81486" lon="4.84659">
        <ele>221</ele>
        <time>2022-07-15T10:05:47.000Z</time>
      </trkpt>
      <trkpt lat="49.81483" lon="4.84653">
        <ele>221</ele>
        <time>2022-07-15T10:05:48.000Z</time>
      </trkpt>
      <trkpt lat="49.8148" lon="4.84648">
        <ele>221</ele>
        <time>2022-07-15T10:05:49.000Z</time>
      </trkpt>
      <trkpt lat="49.81476" lon="4.84644">
        <ele>221</ele>
        <time>2022-07-15T10:05:50.000Z</time>
      </trkpt>
      <trkpt lat="49.81472" lon="4.84641">
        <ele>221</ele>
        <time>2022-07-15T10:05:51.000Z</time>
      </trkpt>
      <trkpt lat="49.81467" lon="4.84639">
        <ele>221</ele>
        <time>2022-07-15T10:05:52.000Z</time>
      </trkpt>
      <trkpt lat="49.81463" lon="4.84636">
        <ele>221</ele>
        <time>2022-07-15T10:05:53.000Z</time>
      </trkpt>
      <trkpt lat="49.8146" lon="4.84632">
        <ele>220</ele>
        <time>2022-07-15T10:05:54.000Z</time>
      </trkpt>
      <trkpt lat="49.81457" lon="4.84627">
        <ele>220</ele>
        <time>2022-07-15T10:05:55.000Z</time>
      </trkpt>
      <trkpt lat="49.81456" lon="4.84619">
        <ele>220</ele>
        <time>2022-07-15T10:05:56.000Z</time>
      </trkpt>
      <trkpt lat="49.81456" lon="4.84611">
        <ele>220</ele>
        <time>2022-07-15T10:05:57.000Z</time>
      </trkpt>
      <trkpt lat="49.81455" lon="4.84602">
        <ele>220</ele>
        <time>2022-07-15T10:05:58.000Z</time>
      </trkpt>
      <trkpt lat="49.81456" lon="4.84593">
        <ele>220</ele>
        <time>2022-07-15T10:05:59.000Z</time>
      </trkpt>
      <trkpt lat="49.81456" lon="4.84585">
        <ele>220</ele>
        <time>2022-07-15T10:06:00.000Z</time>
      </trkpt>
      <trkpt lat="49.81457" lon="4.84576">
        <ele>220</ele>
        <time>2022-07-15T10:06:01.000Z</time>
      </trkpt>
      <trkpt lat="49.81457" lon="4.84567">
        <ele>220</ele>
        <time>2022-07-15T10:06:02.000Z</time>
      </trkpt>
      <trkpt lat="49.81458" lon="4.84557">
        <ele>220</ele>
        <time>2022-07-15T10:06:03.000Z</time>
      </trkpt>
      <trkpt lat="49.81457" lon="4.84546">
        <ele>220</ele>
        <time>2022-07-15T10:06:04.000Z</time>
      </trkpt>
      <trkpt lat="49.81457" lon="4.84534">
        <ele>220</ele>
        <time>2022-07-15T10:06:05.000Z</time>
      </trkpt>
      <trkpt lat="49.81457" lon="4.84521">
        <ele>220</ele>
        <time>2022-07-15T10:06:06.000Z</time>
      </trkpt>
      <trkpt lat="49.81456" lon="4.84509">
        <ele>220</ele>
        <time>2022-07-15T10:06:07.000Z</time>
      </trkpt>
      <trkpt lat="49.81456" lon="4.84496">
        <ele>220</ele>
        <time>2022-07-15T10:06:08.000Z</time>
      </trkpt>
      <trkpt lat="49.81456" lon="4.84483">
        <ele>220</ele>
        <time>2022-07-15T10:06:09.000Z</time>
      </trkpt>
      <trkpt lat="49.81455" lon="4.84471">
        <ele>220</ele>
        <time>2022-07-15T10:06:10.000Z</time>
      </trkpt>
      <trkpt lat="49.81456" lon="4.84459">
        <ele>220</ele>
        <time>2022-07-15T10:06:11.000Z</time>
      </trkpt>
      <trkpt lat="49.81456" lon="4.84448">
        <ele>220</ele>
        <time>2022-07-15T10:06:12.000Z</time>
      </trkpt>
      <trkpt lat="49.81456" lon="4.84439">
        <ele>219</ele>
        <time>2022-07-15T10:06:13.000Z</time>
      </trkpt>
      <trkpt lat="49.81456" lon="4.84432">
        <ele>219</ele>
        <time>2022-07-15T10:06:14.000Z</time>
      </trkpt>
      <trkpt lat="49.81458" lon="4.84426">
        <ele>219</ele>
        <time>2022-07-15T10:06:15.000Z</time>
      </trkpt>
      <trkpt lat="49.81461" lon="4.84423">
        <ele>219</ele>
        <time>2022-07-15T10:06:16.000Z</time>
      </trkpt>
      <trkpt lat="49.81464" lon="4.84419">
        <ele>218</ele>
        <time>2022-07-15T10:06:17.000Z</time>
      </trkpt>
      <trkpt lat="49.81466" lon="4.84414">
        <ele>218</ele>
        <time>2022-07-15T10:06:18.000Z</time>
      </trkpt>
      <trkpt lat="49.81468" lon="4.84407">
        <ele>218</ele>
        <time>2022-07-15T10:06:19.000Z</time>
      </trkpt>
      <trkpt lat="49.81468" lon="4.844">
        <ele>218</ele>
        <time>2022-07-15T10:06:20.000Z</time>
      </trkpt>
      <trkpt lat="49.81468" lon="4.84392">
        <ele>218</ele>
        <time>2022-07-15T10:06:21.000Z</time>
      </trkpt>
      <trkpt lat="49.81469" lon="4.84385">
        <ele>217</ele>
        <time>2022-07-15T10:06:22.000Z</time>
      </trkpt>
      <trkpt lat="49.81469" lon="4.84377">
        <ele>217</ele>
        <time>2022-07-15T10:06:23.000Z</time>
      </trkpt>
      <trkpt lat="49.81469" lon="4.84369">
        <ele>217</ele>
        <time>2022-07-15T10:06:24.000Z</time>
      </trkpt>
      <trkpt lat="49.8147" lon="4.84361">
        <ele>217</ele>
        <time>2022-07-15T10:06:25.000Z</time>
      </trkpt>
      <trkpt lat="49.81471" lon="4.84353">
        <ele>217</ele>
        <time>2022-07-15T10:06:26.000Z</time>
      </trkpt>
      <trkpt lat="49.81473" lon="4.84345">
        <ele>217</ele>
        <time>2022-07-15T10:06:27.000Z</time>
      </trkpt>
      <trkpt lat="49.81475" lon="4.84338">
        <ele>216</ele>
        <time>2022-07-15T10:06:28.000Z</time>
      </trkpt>
      <trkpt lat="49.81477" lon="4.8433">
        <ele>216</ele>
        <time>2022-07-15T10:06:29.000Z</time>
      </trkpt>
      <trkpt lat="49.81479" lon="4.84322">
        <ele>216</ele>
        <time>2022-07-15T10:06:30.000Z</time>
      </trkpt>
      <trkpt lat="49.81482" lon="4.84315">
        <ele>216</ele>
        <time>2022-07-15T10:06:31.000Z</time>
      </trkpt>
      <trkpt lat="49.81484" lon="4.84307">
        <ele>216</ele>
        <time>2022-07-15T10:06:32.000Z</time>
      </trkpt>
      <trkpt lat="49.81487" lon="4.84299">
        <ele>216</ele>
        <time>2022-07-15T10:06:33.000Z</time>
      </trkpt>
      <trkpt lat="49.8149" lon="4.84292">
        <ele>216</ele>
        <time>2022-07-15T10:06:34.000Z</time>
      </trkpt>
      <trkpt lat="49.81492" lon="4.84284">
        <ele>216</ele>
        <time>2022-07-15T10:06:35.000Z</time>
      </trkpt>
      <trkpt lat="49.81493" lon="4.84276">
        <ele>216</ele>
        <time>2022-07-15T10:06:36.000Z</time>
      </trkpt>
      <trkpt lat="49.81494" lon="4.84268">
        <ele>216</ele>
        <time>2022-07-15T10:06:37.000Z</time>
      </trkpt>
      <trkpt lat="49.81494" lon="4.84261">
        <ele>217</ele>
        <time>2022-07-15T10:06:38.000Z</time>
      </trkpt>
      <trkpt lat="49.81494" lon="4.84254">
        <ele>217</ele>
        <time>2022-07-15T10:06:39.000Z</time>
      </trkpt>
      <trkpt lat="49.81494" lon="4.84248">
        <ele>217</ele>
        <time>2022-07-15T10:06:40.000Z</time>
      </trkpt>
      <trkpt lat="49.81493" lon="4.84243">
        <ele>217</ele>
        <time>2022-07-15T10:06:41.000Z</time>
      </trkpt>
      <trkpt lat="49.81492" lon="4.84238">
        <ele>217</ele>
        <time>2022-07-15T10:06:42.000Z</time>
      </trkpt>
      <trkpt lat="49.81491" lon="4.84234">
        <ele>217</ele>
        <time>2022-07-15T10:06:43.000Z</time>
      </trkpt>
      <trkpt lat="49.8149" lon="4.8423">
        <ele>217</ele>
        <time>2022-07-15T10:06:44.000Z</time>
      </trkpt>
      <trkpt lat="49.81489" lon="4.84225">
        <ele>217</ele>
        <time>2022-07-15T10:06:45.000Z</time>
      </trkpt>
      <trkpt lat="49.81488" lon="4.8422">
        <ele>217</ele>
        <time>2022-07-15T10:06:46.000Z</time>
      </trkpt>
      <trkpt lat="49.81489" lon="4.84215">
        <ele>217</ele>
        <time>2022-07-15T10:06:47.000Z</time>
      </trkpt>
      <trkpt lat="49.8149" lon="4.84208">
        <ele>217</ele>
        <time>2022-07-15T10:06:48.000Z</time>
      </trkpt>
      <trkpt lat="49.81491" lon="4.84203">
        <ele>217</ele>
        <time>2022-07-15T10:06:49.000Z</time>
      </trkpt>
      <trkpt lat="49.81492" lon="4.84198">
        <ele>216</ele>
        <time>2022-07-15T10:06:50.000Z</time>
      </trkpt>
      <trkpt lat="49.81492" lon="4.84192">
        <ele>216</ele>
        <time>2022-07-15T10:06:51.000Z</time>
      </trkpt>
      <trkpt lat="49.81493" lon="4.84187">
        <ele>216</ele>
        <time>2022-07-15T10:06:52.000Z</time>
      </trkpt>
      <trkpt lat="49.81495" lon="4.84181">
        <ele>217</ele>
        <time>2022-07-15T10:06:53.000Z</time>
      </trkpt>
      <trkpt lat="49.81496" lon="4.84175">
        <ele>217</ele>
        <time>2022-07-15T10:06:54.000Z</time>
      </trkpt>
      <trkpt lat="49.81498" lon="4.84168">
        <ele>217</ele>
        <time>2022-07-15T10:06:55.000Z</time>
      </trkpt>
      <trkpt lat="49.81499" lon="4.84161">
        <ele>217</ele>
        <time>2022-07-15T10:06:56.000Z</time>
      </trkpt>
      <trkpt lat="49.81502" lon="4.84155">
        <ele>217</ele>
        <time>2022-07-15T10:06:57.000Z</time>
      </trkpt>
      <trkpt lat="49.81505" lon="4.84148">
        <ele>217</ele>
        <time>2022-07-15T10:06:58.000Z</time>
      </trkpt>
      <trkpt lat="49.81507" lon="4.8414">
        <ele>217</ele>
        <time>2022-07-15T10:06:59.000Z</time>
      </trkpt>
      <trkpt lat="49.81509" lon="4.84132">
        <ele>217</ele>
        <time>2022-07-15T10:07:00.000Z</time>
      </trkpt>
      <trkpt lat="49.8151" lon="4.84124">
        <ele>217</ele>
        <time>2022-07-15T10:07:01.000Z</time>
      </trkpt>
      <trkpt lat="49.81511" lon="4.84116">
        <ele>217</ele>
        <time>2022-07-15T10:07:02.000Z</time>
      </trkpt>
      <trkpt lat="49.81512" lon="4.84107">
        <ele>217</ele>
        <time>2022-07-15T10:07:03.000Z</time>
      </trkpt>
      <trkpt lat="49.81511" lon="4.84099">
        <ele>217</ele>
        <time>2022-07-15T10:07:04.000Z</time>
      </trkpt>
      <trkpt lat="49.8151" lon="4.84091">
        <ele>217</ele>
        <time>2022-07-15T10:07:05.000Z</time>
      </trkpt>
      <trkpt lat="49.81509" lon="4.84084">
        <ele>217</ele>
        <time>2022-07-15T10:07:06.000Z</time>
      </trkpt>
      <trkpt lat="49.81508" lon="4.84076">
        <ele>217</ele>
        <time>2022-07-15T10:07:07.000Z</time>
      </trkpt>
      <trkpt lat="49.81506" lon="4.84068">
        <ele>217</ele>
        <time>2022-07-15T10:07:08.000Z</time>
      </trkpt>
      <trkpt lat="49.81505" lon="4.84061">
        <ele>217</ele>
        <time>2022-07-15T10:07:09.000Z</time>
      </trkpt>
      <trkpt lat="49.81504" lon="4.84053">
        <ele>217</ele>
        <time>2022-07-15T10:07:10.000Z</time>
      </trkpt>
      <trkpt lat="49.81503" lon="4.84045">
        <ele>217</ele>
        <time>2022-07-15T10:07:11.000Z</time>
      </trkpt>
      <trkpt lat="49.81502" lon="4.84039">
        <ele>217</ele>
        <time>2022-07-15T10:07:12.000Z</time>
      </trkpt>
      <trkpt lat="49.81501" lon="4.84031">
        <ele>217</ele>
        <time>2022-07-15T10:07:13.000Z</time>
      </trkpt>
      <trkpt lat="49.81499" lon="4.84023">
        <ele>216</ele>
        <time>2022-07-15T10:07:14.000Z</time>
      </trkpt>
      <trkpt lat="49.81498" lon="4.84015">
        <ele>216</ele>
        <time>2022-07-15T10:07:15.000Z</time>
      </trkpt>
      <trkpt lat="49.81496" lon="4.84006">
        <ele>216</ele>
        <time>2022-07-15T10:07:16.000Z</time>
      </trkpt>
      <trkpt lat="49.81495" lon="4.83997">
        <ele>216</ele>
        <time>2022-07-15T10:07:17.000Z</time>
      </trkpt>
      <trkpt lat="49.81494" lon="4.83988">
        <ele>216</ele>
        <time>2022-07-15T10:07:18.000Z</time>
      </trkpt>
      <trkpt lat="49.81493" lon="4.8398">
        <ele>216</ele>
        <time>2022-07-15T10:07:19.000Z</time>
      </trkpt>
      <trkpt lat="49.81491" lon="4.83972">
        <ele>216</ele>
        <time>2022-07-15T10:07:20.000Z</time>
      </trkpt>
      <trkpt lat="49.8149" lon="4.83964">
        <ele>216</ele>
        <time>2022-07-15T10:07:21.000Z</time>
      </trkpt>
      <trkpt lat="49.81489" lon="4.83955">
        <ele>217</ele>
        <time>2022-07-15T10:07:22.000Z</time>
      </trkpt>
      <trkpt lat="49.81487" lon="4.83946">
        <ele>217</ele>
        <time>2022-07-15T10:07:23.000Z</time>
      </trkpt>
      <trkpt lat="49.81486" lon="4.83937">
        <ele>217</ele>
        <time>2022-07-15T10:07:24.000Z</time>
      </trkpt>
      <trkpt lat="49.81484" lon="4.83929">
        <ele>217</ele>
        <time>2022-07-15T10:07:25.000Z</time>
      </trkpt>
      <trkpt lat="49.81482" lon="4.83921">
        <ele>217</ele>
        <time>2022-07-15T10:07:26.000Z</time>
      </trkpt>
      <trkpt lat="49.8148" lon="4.83912">
        <ele>216</ele>
        <time>2022-07-15T10:07:27.000Z</time>
      </trkpt>
      <trkpt lat="49.81479" lon="4.83904">
        <ele>216</ele>
        <time>2022-07-15T10:07:28.000Z</time>
      </trkpt>
      <trkpt lat="49.81478" lon="4.83897">
        <ele>216</ele>
        <time>2022-07-15T10:07:29.000Z</time>
      </trkpt>
      <trkpt lat="49.81477" lon="4.8389">
        <ele>216</ele>
        <time>2022-07-15T10:07:30.000Z</time>
      </trkpt>
      <trkpt lat="49.81476" lon="4.83881">
        <ele>216</ele>
        <time>2022-07-15T10:07:31.000Z</time>
      </trkpt>
      <trkpt lat="49.81476" lon="4.83874">
        <ele>216</ele>
        <time>2022-07-15T10:07:32.000Z</time>
      </trkpt>
      <trkpt lat="49.81474" lon="4.8387">
        <ele>216</ele>
        <time>2022-07-15T10:07:33.000Z</time>
      </trkpt>
      <trkpt lat="49.81472" lon="4.83866">
        <ele>216</ele>
        <time>2022-07-15T10:07:34.000Z</time>
      </trkpt>
      <trkpt lat="49.81469" lon="4.83863">
        <ele>215</ele>
        <time>2022-07-15T10:07:35.000Z</time>
      </trkpt>
      <trkpt lat="49.81466" lon="4.83861">
        <ele>215</ele>
        <time>2022-07-15T10:07:36.000Z</time>
      </trkpt>
      <trkpt lat="49.81463" lon="4.8386">
        <ele>215</ele>
        <time>2022-07-15T10:07:37.000Z</time>
      </trkpt>
      <trkpt lat="49.81462" lon="4.83859">
        <ele>215</ele>
        <time>2022-07-15T10:07:38.000Z</time>
      </trkpt>
      <trkpt lat="49.8146" lon="4.83859">
        <ele>215</ele>
        <time>2022-07-15T10:07:39.000Z</time>
      </trkpt>
      <trkpt lat="49.81458" lon="4.83859">
        <ele>215</ele>
        <time>2022-07-15T10:07:40.000Z</time>
      </trkpt>
      <trkpt lat="49.81456" lon="4.83859">
        <ele>215</ele>
        <time>2022-07-15T10:07:41.000Z</time>
      </trkpt>
      <trkpt lat="49.81455" lon="4.83858">
        <ele>215</ele>
        <time>2022-07-15T10:07:42.000Z</time>
      </trkpt>
      <trkpt lat="49.81453" lon="4.83858">
        <ele>215</ele>
        <time>2022-07-15T10:07:43.000Z</time>
      </trkpt>
      <trkpt lat="49.81451" lon="4.83858">
        <ele>215</ele>
        <time>2022-07-15T10:07:44.000Z</time>
      </trkpt>
      <trkpt lat="49.81448" lon="4.83859">
        <ele>215</ele>
        <time>2022-07-15T10:07:45.000Z</time>
      </trkpt>
      <trkpt lat="49.81446" lon="4.8386">
        <ele>215</ele>
        <time>2022-07-15T10:07:46.000Z</time>
      </trkpt>
      <trkpt lat="49.81444" lon="4.8386">
        <ele>215</ele>
        <time>2022-07-15T10:07:47.000Z</time>
      </trkpt>
      <trkpt lat="49.81442" lon="4.8386">
        <ele>215</ele>
        <time>2022-07-15T10:07:48.000Z</time>
      </trkpt>
      <trkpt lat="49.8144" lon="4.8386">
        <ele>215</ele>
        <time>2022-07-15T10:07:49.000Z</time>
      </trkpt>
      <trkpt lat="49.81438" lon="4.8386">
        <ele>215</ele>
        <time>2022-07-15T10:07:50.000Z</time>
      </trkpt>
      <trkpt lat="49.81436" lon="4.83859">
        <ele>215</ele>
        <time>2022-07-15T10:07:51.000Z</time>
      </trkpt>
      <trkpt lat="49.81434" lon="4.83858">
        <ele>215</ele>
        <time>2022-07-15T10:07:52.000Z</time>
      </trkpt>
      <trkpt lat="49.81432" lon="4.83855">
        <ele>215</ele>
        <time>2022-07-15T10:07:53.000Z</time>
      </trkpt>
      <trkpt lat="49.8143" lon="4.83854">
        <ele>215</ele>
        <time>2022-07-15T10:07:54.000Z</time>
      </trkpt>
      <trkpt lat="49.81428" lon="4.83852">
        <ele>215</ele>
        <time>2022-07-15T10:07:55.000Z</time>
      </trkpt>
      <trkpt lat="49.81425" lon="4.83851">
        <ele>215</ele>
        <time>2022-07-15T10:07:56.000Z</time>
      </trkpt>
      <trkpt lat="49.81423" lon="4.8385">
        <ele>215</ele>
        <time>2022-07-15T10:07:57.000Z</time>
      </trkpt>
      <trkpt lat="49.81421" lon="4.8385">
        <ele>215</ele>
        <time>2022-07-15T10:07:58.000Z</time>
      </trkpt>
      <trkpt lat="49.81418" lon="4.8385">
        <ele>215</ele>
        <time>2022-07-15T10:07:59.000Z</time>
      </trkpt>
      <trkpt lat="49.81416" lon="4.8385">
        <ele>215</ele>
        <time>2022-07-15T10:08:00.000Z</time>
      </trkpt>
      <trkpt lat="49.81414" lon="4.83851">
        <ele>215</ele>
        <time>2022-07-15T10:08:01.000Z</time>
      </trkpt>
      <trkpt lat="49.81411" lon="4.83851">
        <ele>215</ele>
        <time>2022-07-15T10:08:02.000Z</time>
      </trkpt>
      <trkpt lat="49.81408" lon="4.83851">
        <ele>215</ele>
        <time>2022-07-15T10:08:03.000Z</time>
      </trkpt>
      <trkpt lat="49.81406" lon="4.83852">
        <ele>215</ele>
        <time>2022-07-15T10:08:04.000Z</time>
      </trkpt>
      <trkpt lat="49.81402" lon="4.83853">
        <ele>215</ele>
        <time>2022-07-15T10:08:05.000Z</time>
      </trkpt>
      <trkpt lat="49.81399" lon="4.83854">
        <ele>215</ele>
        <time>2022-07-15T10:08:06.000Z</time>
      </trkpt>
      <trkpt lat="49.81396" lon="4.83855">
        <ele>216</ele>
        <time>2022-07-15T10:08:07.000Z</time>
      </trkpt>
      <trkpt lat="49.81393" lon="4.83856">
        <ele>216</ele>
        <time>2022-07-15T10:08:08.000Z</time>
      </trkpt>
      <trkpt lat="49.8139" lon="4.83856">
        <ele>216</ele>
        <time>2022-07-15T10:08:09.000Z</time>
      </trkpt>
      <trkpt lat="49.81387" lon="4.83856">
        <ele>216</ele>
        <time>2022-07-15T10:08:10.000Z</time>
      </trkpt>
      <trkpt lat="49.81384" lon="4.83856">
        <ele>216</ele>
        <time>2022-07-15T10:08:11.000Z</time>
      </trkpt>
      <trkpt lat="49.81381" lon="4.83856">
        <ele>216</ele>
        <time>2022-07-15T10:08:12.000Z</time>
      </trkpt>
      <trkpt lat="49.81378" lon="4.83855">
        <ele>216</ele>
        <time>2022-07-15T10:08:13.000Z</time>
      </trkpt>
      <trkpt lat="49.81375" lon="4.83854">
        <ele>216</ele>
        <time>2022-07-15T10:08:14.000Z</time>
      </trkpt>
      <trkpt lat="49.81372" lon="4.83853">
        <ele>217</ele>
        <time>2022-07-15T10:08:15.000Z</time>
      </trkpt>
      <trkpt lat="49.81369" lon="4.83851">
        <ele>217</ele>
        <time>2022-07-15T10:08:16.000Z</time>
      </trkpt>
      <trkpt lat="49.81365" lon="4.83849">
        <ele>217</ele>
        <time>2022-07-15T10:08:17.000Z</time>
      </trkpt>
      <trkpt lat="49.81361" lon="4.83848">
        <ele>217</ele>
        <time>2022-07-15T10:08:18.000Z</time>
      </trkpt>
      <trkpt lat="49.81358" lon="4.83848">
        <ele>217</ele>
        <time>2022-07-15T10:08:19.000Z</time>
      </trkpt>
      <trkpt lat="49.81354" lon="4.83847">
        <ele>217</ele>
        <time>2022-07-15T10:08:20.000Z</time>
      </trkpt>
      <trkpt lat="49.81349" lon="4.83846">
        <ele>217</ele>
        <time>2022-07-15T10:08:21.000Z</time>
      </trkpt>
      <trkpt lat="49.81345" lon="4.83844">
        <ele>217</ele>
        <time>2022-07-15T10:08:22.000Z</time>
      </trkpt>
      <trkpt lat="49.81341" lon="4.83843">
        <ele>217</ele>
        <time>2022-07-15T10:08:23.000Z</time>
      </trkpt>
      <trkpt lat="49.81337" lon="4.83841">
        <ele>217</ele>
        <time>2022-07-15T10:08:24.000Z</time>
      </trkpt>
      <trkpt lat="49.81334" lon="4.8384">
        <ele>218</ele>
        <time>2022-07-15T10:08:25.000Z</time>
      </trkpt>
      <trkpt lat="49.81331" lon="4.83838">
        <ele>218</ele>
        <time>2022-07-15T10:08:26.000Z</time>
      </trkpt>
      <trkpt lat="49.81328" lon="4.83837">
        <ele>218</ele>
        <time>2022-07-15T10:08:27.000Z</time>
      </trkpt>
      <trkpt lat="49.81324" lon="4.83836">
        <ele>218</ele>
        <time>2022-07-15T10:08:28.000Z</time>
      </trkpt>
      <trkpt lat="49.81319" lon="4.83837">
        <ele>218</ele>
        <time>2022-07-15T10:08:29.000Z</time>
      </trkpt>
      <trkpt lat="49.81315" lon="4.83838">
        <ele>218</ele>
        <time>2022-07-15T10:08:30.000Z</time>
      </trkpt>
      <trkpt lat="49.8131" lon="4.8384">
        <ele>218</ele>
        <time>2022-07-15T10:08:31.000Z</time>
      </trkpt>
      <trkpt lat="49.81307" lon="4.83842">
        <ele>218</ele>
        <time>2022-07-15T10:08:32.000Z</time>
      </trkpt>
      <trkpt lat="49.81305" lon="4.83845">
        <ele>218</ele>
        <time>2022-07-15T10:08:33.000Z</time>
      </trkpt>
      <trkpt lat="49.81303" lon="4.83848">
        <ele>219</ele>
        <time>2022-07-15T10:08:34.000Z</time>
      </trkpt>
      <trkpt lat="49.81301" lon="4.83851">
        <ele>219</ele>
        <time>2022-07-15T10:08:35.000Z</time>
      </trkpt>
      <trkpt lat="49.81299" lon="4.83854">
        <ele>219</ele>
        <time>2022-07-15T10:08:36.000Z</time>
      </trkpt>
      <trkpt lat="49.81297" lon="4.83857">
        <ele>219</ele>
        <time>2022-07-15T10:08:37.000Z</time>
      </trkpt>
      <trkpt lat="49.81296" lon="4.8386">
        <ele>219</ele>
        <time>2022-07-15T10:08:38.000Z</time>
      </trkpt>
      <trkpt lat="49.81294" lon="4.83862">
        <ele>219</ele>
        <time>2022-07-15T10:08:39.000Z</time>
      </trkpt>
      <trkpt lat="49.81292" lon="4.83865">
        <ele>220</ele>
        <time>2022-07-15T10:08:40.000Z</time>
      </trkpt>
      <trkpt lat="49.8129" lon="4.83868">
        <ele>220</ele>
        <time>2022-07-15T10:08:41.000Z</time>
      </trkpt>
      <trkpt lat="49.81288" lon="4.8387">
        <ele>220</ele>
        <time>2022-07-15T10:08:42.000Z</time>
      </trkpt>
      <trkpt lat="49.81286" lon="4.83871">
        <ele>220</ele>
        <time>2022-07-15T10:08:43.000Z</time>
      </trkpt>
      <trkpt lat="49.81285" lon="4.83873">
        <ele>221</ele>
        <time>2022-07-15T10:08:44.000Z</time>
      </trkpt>
      <trkpt lat="49.81283" lon="4.83874">
        <ele>221</ele>
        <time>2022-07-15T10:08:45.000Z</time>
      </trkpt>
      <trkpt lat="49.81282" lon="4.83875">
        <ele>221</ele>
        <time>2022-07-15T10:08:46.000Z</time>
      </trkpt>
      <trkpt lat="49.8128" lon="4.83876">
        <ele>222</ele>
        <time>2022-07-15T10:08:47.000Z</time>
      </trkpt>
      <trkpt lat="49.81278" lon="4.83877">
        <ele>222</ele>
        <time>2022-07-15T10:08:48.000Z</time>
      </trkpt>
      <trkpt lat="49.81277" lon="4.83878">
        <ele>222</ele>
        <time>2022-07-15T10:08:49.000Z</time>
      </trkpt>
      <trkpt lat="49.81275" lon="4.83879">
        <ele>223</ele>
        <time>2022-07-15T10:08:50.000Z</time>
      </trkpt>
      <trkpt lat="49.81273" lon="4.8388">
        <ele>223</ele>
        <time>2022-07-15T10:08:51.000Z</time>
      </trkpt>
      <trkpt lat="49.8127" lon="4.83881">
        <ele>223</ele>
        <time>2022-07-15T10:08:52.000Z</time>
      </trkpt>
      <trkpt lat="49.81268" lon="4.83882">
        <ele>224</ele>
        <time>2022-07-15T10:08:53.000Z</time>
      </trkpt>
      <trkpt lat="49.81265" lon="4.83883">
        <ele>224</ele>
        <time>2022-07-15T10:08:54.000Z</time>
      </trkpt>
      <trkpt lat="49.81262" lon="4.83885">
        <ele>224</ele>
        <time>2022-07-15T10:08:55.000Z</time>
      </trkpt>
      <trkpt lat="49.81258" lon="4.83886">
        <ele>224</ele>
        <time>2022-07-15T10:08:56.000Z</time>
      </trkpt>
      <trkpt lat="49.81254" lon="4.83887">
        <ele>224</ele>
        <time>2022-07-15T10:08:57.000Z</time>
      </trkpt>
      <trkpt lat="49.81251" lon="4.83888">
        <ele>225</ele>
        <time>2022-07-15T10:08:58.000Z</time>
      </trkpt>
      <trkpt lat="49.81247" lon="4.83888">
        <ele>225</ele>
        <time>2022-07-15T10:08:59.000Z</time>
      </trkpt>
      <trkpt lat="49.81243" lon="4.83889">
        <ele>225</ele>
        <time>2022-07-15T10:09:00.000Z</time>
      </trkpt>
      <trkpt lat="49.8124" lon="4.8389">
        <ele>225</ele>
        <time>2022-07-15T10:09:01.000Z</time>
      </trkpt>
      <trkpt lat="49.81236" lon="4.8389">
        <ele>226</ele>
        <time>2022-07-15T10:09:02.000Z</time>
      </trkpt>
      <trkpt lat="49.81233" lon="4.8389">
        <ele>226</ele>
        <time>2022-07-15T10:09:03.000Z</time>
      </trkpt>
      <trkpt lat="49.81229" lon="4.8389">
        <ele>226</ele>
        <time>2022-07-15T10:09:04.000Z</time>
      </trkpt>
      <trkpt lat="49.81225" lon="4.8389">
        <ele>226</ele>
        <time>2022-07-15T10:09:05.000Z</time>
      </trkpt>
      <trkpt lat="49.81221" lon="4.83891">
        <ele>226</ele>
        <time>2022-07-15T10:09:06.000Z</time>
      </trkpt>
      <trkpt lat="49.81218" lon="4.83891">
        <ele>226</ele>
        <time>2022-07-15T10:09:07.000Z</time>
      </trkpt>
      <trkpt lat="49.81214" lon="4.83891">
        <ele>227</ele>
        <time>2022-07-15T10:09:08.000Z</time>
      </trkpt>
      <trkpt lat="49.8121" lon="4.83891">
        <ele>227</ele>
        <time>2022-07-15T10:09:09.000Z</time>
      </trkpt>
      <trkpt lat="49.81206" lon="4.83891">
        <ele>227</ele>
        <time>2022-07-15T10:09:10.000Z</time>
      </trkpt>
      <trkpt lat="49.81203" lon="4.83892">
        <ele>227</ele>
        <time>2022-07-15T10:09:11.000Z</time>
      </trkpt>
      <trkpt lat="49.81199" lon="4.83892">
        <ele>227</ele>
        <time>2022-07-15T10:09:12.000Z</time>
      </trkpt>
      <trkpt lat="49.81196" lon="4.83893">
        <ele>227</ele>
        <time>2022-07-15T10:09:13.000Z</time>
      </trkpt>
      <trkpt lat="49.81193" lon="4.83893">
        <ele>227</ele>
        <time>2022-07-15T10:09:14.000Z</time>
      </trkpt>
      <trkpt lat="49.8119" lon="4.83894">
        <ele>227</ele>
        <time>2022-07-15T10:09:15.000Z</time>
      </trkpt>
      <trkpt lat="49.81187" lon="4.83894">
        <ele>227</ele>
        <time>2022-07-15T10:09:16.000Z</time>
      </trkpt>
      <trkpt lat="49.81184" lon="4.83895">
        <ele>227</ele>
        <time>2022-07-15T10:09:17.000Z</time>
      </trkpt>
      <trkpt lat="49.81181" lon="4.83896">
        <ele>227</ele>
        <time>2022-07-15T10:09:18.000Z</time>
      </trkpt>
      <trkpt lat="49.81179" lon="4.83896">
        <ele>228</ele>
        <time>2022-07-15T10:09:19.000Z</time>
      </trkpt>
      <trkpt lat="49.81177" lon="4.83896">
        <ele>228</ele>
        <time>2022-07-15T10:09:20.000Z</time>
      </trkpt>
      <trkpt lat="49.81174" lon="4.83897">
        <ele>228</ele>
        <time>2022-07-15T10:09:21.000Z</time>
      </trkpt>
      <trkpt lat="49.8117" lon="4.83898">
        <ele>228</ele>
        <time>2022-07-15T10:09:22.000Z</time>
      </trkpt>
      <trkpt lat="49.81166" lon="4.83898">
        <ele>228</ele>
        <time>2022-07-15T10:09:23.000Z</time>
      </trkpt>
      <trkpt lat="49.81163" lon="4.83897">
        <ele>228</ele>
        <time>2022-07-15T10:09:24.000Z</time>
      </trkpt>
      <trkpt lat="49.81159" lon="4.83897">
        <ele>228</ele>
        <time>2022-07-15T10:09:25.000Z</time>
      </trkpt>
      <trkpt lat="49.81156" lon="4.83897">
        <ele>228</ele>
        <time>2022-07-15T10:09:26.000Z</time>
      </trkpt>
      <trkpt lat="49.81153" lon="4.83897">
        <ele>228</ele>
        <time>2022-07-15T10:09:27.000Z</time>
      </trkpt>
      <trkpt lat="49.81148" lon="4.83898">
        <ele>228</ele>
        <time>2022-07-15T10:09:28.000Z</time>
      </trkpt>
      <trkpt lat="49.81144" lon="4.83899">
        <ele>228</ele>
        <time>2022-07-15T10:09:29.000Z</time>
      </trkpt>
      <trkpt lat="49.8114" lon="4.83899">
        <ele>228</ele>
        <time>2022-07-15T10:09:30.000Z</time>
      </trkpt>
      <trkpt lat="49.81135" lon="4.83898">
        <ele>228</ele>
        <time>2022-07-15T10:09:31.000Z</time>
      </trkpt>
      <trkpt lat="49.81131" lon="4.83898">
        <ele>228</ele>
        <time>2022-07-15T10:09:32.000Z</time>
      </trkpt>
      <trkpt lat="49.81126" lon="4.83898">
        <ele>228</ele>
        <time>2022-07-15T10:09:33.000Z</time>
      </trkpt>
      <trkpt lat="49.81122" lon="4.83897">
        <ele>228</ele>
        <time>2022-07-15T10:09:34.000Z</time>
      </trkpt>
      <trkpt lat="49.81117" lon="4.83896">
        <ele>228</ele>
        <time>2022-07-15T10:09:35.000Z</time>
      </trkpt>
      <trkpt lat="49.81111" lon="4.83895">
        <ele>228</ele>
        <time>2022-07-15T10:09:36.000Z</time>
      </trkpt>
      <trkpt lat="49.81107" lon="4.83893">
        <ele>228</ele>
        <time>2022-07-15T10:09:37.000Z</time>
      </trkpt>
      <trkpt lat="49.81102" lon="4.83892">
        <ele>228</ele>
        <time>2022-07-15T10:09:38.000Z</time>
      </trkpt>
      <trkpt lat="49.81097" lon="4.83892">
        <ele>228</ele>
        <time>2022-07-15T10:09:39.000Z</time>
      </trkpt>
      <trkpt lat="49.81092" lon="4.83891">
        <ele>228</ele>
        <time>2022-07-15T10:09:40.000Z</time>
      </trkpt>
      <trkpt lat="49.81087" lon="4.83891">
        <ele>228</ele>
        <time>2022-07-15T10:09:41.000Z</time>
      </trkpt>
      <trkpt lat="49.81082" lon="4.8389">
        <ele>227</ele>
        <time>2022-07-15T10:09:42.000Z</time>
      </trkpt>
      <trkpt lat="49.81076" lon="4.83889">
        <ele>227</ele>
        <time>2022-07-15T10:09:43.000Z</time>
      </trkpt>
      <trkpt lat="49.81072" lon="4.83889">
        <ele>227</ele>
        <time>2022-07-15T10:09:44.000Z</time>
      </trkpt>
      <trkpt lat="49.81067" lon="4.83889">
        <ele>227</ele>
        <time>2022-07-15T10:09:45.000Z</time>
      </trkpt>
      <trkpt lat="49.81063" lon="4.83888">
        <ele>227</ele>
        <time>2022-07-15T10:09:46.000Z</time>
      </trkpt>
      <trkpt lat="49.81058" lon="4.83888">
        <ele>227</ele>
        <time>2022-07-15T10:09:47.000Z</time>
      </trkpt>
      <trkpt lat="49.81053" lon="4.83889">
        <ele>227</ele>
        <time>2022-07-15T10:09:48.000Z</time>
      </trkpt>
      <trkpt lat="49.81049" lon="4.8389">
        <ele>227</ele>
        <time>2022-07-15T10:09:49.000Z</time>
      </trkpt>
      <trkpt lat="49.81045" lon="4.8389">
        <ele>227</ele>
        <time>2022-07-15T10:09:50.000Z</time>
      </trkpt>
      <trkpt lat="49.81042" lon="4.8389">
        <ele>227</ele>
        <time>2022-07-15T10:09:51.000Z</time>
      </trkpt>
      <trkpt lat="49.81038" lon="4.8389">
        <ele>227</ele>
        <time>2022-07-15T10:09:52.000Z</time>
      </trkpt>
      <trkpt lat="49.81034" lon="4.83891">
        <ele>227</ele>
        <time>2022-07-15T10:09:53.000Z</time>
      </trkpt>
      <trkpt lat="49.81029" lon="4.83891">
        <ele>227</ele>
        <time>2022-07-15T10:09:54.000Z</time>
      </trkpt>
      <trkpt lat="49.81025" lon="4.83893">
        <ele>227</ele>
        <time>2022-07-15T10:09:55.000Z</time>
      </trkpt>
      <trkpt lat="49.8102" lon="4.83893">
        <ele>227</ele>
        <time>2022-07-15T10:09:56.000Z</time>
      </trkpt>
      <trkpt lat="49.81015" lon="4.83893">
        <ele>227</ele>
        <time>2022-07-15T10:09:57.000Z</time>
      </trkpt>
      <trkpt lat="49.8101" lon="4.83893">
        <ele>227</ele>
        <time>2022-07-15T10:09:58.000Z</time>
      </trkpt>
      <trkpt lat="49.81005" lon="4.83894">
        <ele>226</ele>
        <time>2022-07-15T10:09:59.000Z</time>
      </trkpt>
      <trkpt lat="49.81" lon="4.83894">
        <ele>226</ele>
        <time>2022-07-15T10:10:00.000Z</time>
      </trkpt>
      <trkpt lat="49.80994" lon="4.83893">
        <ele>226</ele>
        <time>2022-07-15T10:10:01.000Z</time>
      </trkpt>
      <trkpt lat="49.80989" lon="4.83893">
        <ele>226</ele>
        <time>2022-07-15T10:10:02.000Z</time>
      </trkpt>
      <trkpt lat="49.80983" lon="4.83893">
        <ele>226</ele>
        <time>2022-07-15T10:10:03.000Z</time>
      </trkpt>
      <trkpt lat="49.80977" lon="4.83892">
        <ele>226</ele>
        <time>2022-07-15T10:10:04.000Z</time>
      </trkpt>
      <trkpt lat="49.80971" lon="4.83892">
        <ele>226</ele>
        <time>2022-07-15T10:10:05.000Z</time>
      </trkpt>
      <trkpt lat="49.80966" lon="4.83892">
        <ele>226</ele>
        <time>2022-07-15T10:10:06.000Z</time>
      </trkpt>
      <trkpt lat="49.8096" lon="4.83891">
        <ele>226</ele>
        <time>2022-07-15T10:10:07.000Z</time>
      </trkpt>
      <trkpt lat="49.80955" lon="4.83891">
        <ele>226</ele>
        <time>2022-07-15T10:10:08.000Z</time>
      </trkpt>
      <trkpt lat="49.8095" lon="4.8389">
        <ele>226</ele>
        <time>2022-07-15T10:10:09.000Z</time>
      </trkpt>
      <trkpt lat="49.80945" lon="4.83889">
        <ele>226</ele>
        <time>2022-07-15T10:10:10.000Z</time>
      </trkpt>
      <trkpt lat="49.8094" lon="4.83889">
        <ele>226</ele>
        <time>2022-07-15T10:10:11.000Z</time>
      </trkpt>
      <trkpt lat="49.80935" lon="4.83889">
        <ele>226</ele>
        <time>2022-07-15T10:10:12.000Z</time>
      </trkpt>
      <trkpt lat="49.80931" lon="4.8389">
        <ele>225</ele>
        <time>2022-07-15T10:10:13.000Z</time>
      </trkpt>
      <trkpt lat="49.80926" lon="4.8389">
        <ele>225</ele>
        <time>2022-07-15T10:10:14.000Z</time>
      </trkpt>
      <trkpt lat="49.80922" lon="4.8389">
        <ele>225</ele>
        <time>2022-07-15T10:10:15.000Z</time>
      </trkpt>
      <trkpt lat="49.80918" lon="4.83891">
        <ele>225</ele>
        <time>2022-07-15T10:10:16.000Z</time>
      </trkpt>
      <trkpt lat="49.80914" lon="4.83891">
        <ele>225</ele>
        <time>2022-07-15T10:10:17.000Z</time>
      </trkpt>
      <trkpt lat="49.8091" lon="4.83891">
        <ele>225</ele>
        <time>2022-07-15T10:10:18.000Z</time>
      </trkpt>
      <trkpt lat="49.80905" lon="4.83891">
        <ele>225</ele>
        <time>2022-07-15T10:10:19.000Z</time>
      </trkpt>
      <trkpt lat="49.80901" lon="4.83891">
        <ele>225</ele>
        <time>2022-07-15T10:10:20.000Z</time>
      </trkpt>
      <trkpt lat="49.80896" lon="4.83891">
        <ele>224</ele>
        <time>2022-07-15T10:10:21.000Z</time>
      </trkpt>
      <trkpt lat="49.80892" lon="4.83891">
        <ele>224</ele>
        <time>2022-07-15T10:10:22.000Z</time>
      </trkpt>
      <trkpt lat="49.80887" lon="4.83892">
        <ele>224</ele>
        <time>2022-07-15T10:10:23.000Z</time>
      </trkpt>
      <trkpt lat="49.80882" lon="4.83892">
        <ele>224</ele>
        <time>2022-07-15T10:10:24.000Z</time>
      </trkpt>
      <trkpt lat="49.80877" lon="4.83893">
        <ele>224</ele>
        <time>2022-07-15T10:10:25.000Z</time>
      </trkpt>
      <trkpt lat="49.80872" lon="4.83893">
        <ele>224</ele>
        <time>2022-07-15T10:10:26.000Z</time>
      </trkpt>
      <trkpt lat="49.80867" lon="4.83894">
        <ele>224</ele>
        <time>2022-07-15T10:10:27.000Z</time>
      </trkpt>
      <trkpt lat="49.80862" lon="4.83894">
        <ele>224</ele>
        <time>2022-07-15T10:10:28.000Z</time>
      </trkpt>
      <trkpt lat="49.80857" lon="4.83895">
        <ele>224</ele>
        <time>2022-07-15T10:10:29.000Z</time>
      </trkpt>
      <trkpt lat="49.80853" lon="4.83896">
        <ele>224</ele>
        <time>2022-07-15T10:10:30.000Z</time>
      </trkpt>
      <trkpt lat="49.80848" lon="4.83896">
        <ele>224</ele>
        <time>2022-07-15T10:10:31.000Z</time>
      </trkpt>
      <trkpt lat="49.80844" lon="4.83897">
        <ele>224</ele>
        <time>2022-07-15T10:10:32.000Z</time>
      </trkpt>
      <trkpt lat="49.8084" lon="4.83896">
        <ele>224</ele>
        <time>2022-07-15T10:10:33.000Z</time>
      </trkpt>
      <trkpt lat="49.80835" lon="4.83896">
        <ele>224</ele>
        <time>2022-07-15T10:10:34.000Z</time>
      </trkpt>
      <trkpt lat="49.80831" lon="4.83896">
        <ele>224</ele>
        <time>2022-07-15T10:10:35.000Z</time>
      </trkpt>
      <trkpt lat="49.80827" lon="4.83896">
        <ele>224</ele>
        <time>2022-07-15T10:10:36.000Z</time>
      </trkpt>
      <trkpt lat="49.80823" lon="4.83895">
        <ele>224</ele>
        <time>2022-07-15T10:10:37.000Z</time>
      </trkpt>
      <trkpt lat="49.80819" lon="4.83894">
        <ele>224</ele>
        <time>2022-07-15T10:10:38.000Z</time>
      </trkpt>
      <trkpt lat="49.80814" lon="4.83894">
        <ele>224</ele>
        <time>2022-07-15T10:10:39.000Z</time>
      </trkpt>
      <trkpt lat="49.8081" lon="4.83896">
        <ele>224</ele>
        <time>2022-07-15T10:10:40.000Z</time>
      </trkpt>
      <trkpt lat="49.80806" lon="4.83898">
        <ele>224</ele>
        <time>2022-07-15T10:10:41.000Z</time>
      </trkpt>
      <trkpt lat="49.80801" lon="4.83899">
        <ele>224</ele>
        <time>2022-07-15T10:10:42.000Z</time>
      </trkpt>
      <trkpt lat="49.80796" lon="4.839">
        <ele>224</ele>
        <time>2022-07-15T10:10:43.000Z</time>
      </trkpt>
      <trkpt lat="49.80791" lon="4.83901">
        <ele>224</ele>
        <time>2022-07-15T10:10:44.000Z</time>
      </trkpt>
      <trkpt lat="49.80787" lon="4.83901">
        <ele>224</ele>
        <time>2022-07-15T10:10:45.000Z</time>
      </trkpt>
      <trkpt lat="49.80783" lon="4.83901">
        <ele>224</ele>
        <time>2022-07-15T10:10:46.000Z</time>
      </trkpt>
      <trkpt lat="49.80779" lon="4.83903">
        <ele>224</ele>
        <time>2022-07-15T10:10:47.000Z</time>
      </trkpt>
      <trkpt lat="49.80774" lon="4.83903">
        <ele>224</ele>
        <time>2022-07-15T10:10:48.000Z</time>
      </trkpt>
      <trkpt lat="49.8077" lon="4.83904">
        <ele>224</ele>
        <time>2022-07-15T10:10:49.000Z</time>
      </trkpt>
      <trkpt lat="49.80766" lon="4.83904">
        <ele>224</ele>
        <time>2022-07-15T10:10:50.000Z</time>
      </trkpt>
      <trkpt lat="49.80761" lon="4.83905">
        <ele>224</ele>
        <time>2022-07-15T10:10:51.000Z</time>
      </trkpt>
      <trkpt lat="49.80756" lon="4.83906">
        <ele>225</ele>
        <time>2022-07-15T10:10:52.000Z</time>
      </trkpt>
      <trkpt lat="49.80752" lon="4.83905">
        <ele>225</ele>
        <time>2022-07-15T10:10:53.000Z</time>
      </trkpt>
      <trkpt lat="49.80748" lon="4.83906">
        <ele>225</ele>
        <time>2022-07-15T10:10:54.000Z</time>
      </trkpt>
      <trkpt lat="49.80744" lon="4.83908">
        <ele>225</ele>
        <time>2022-07-15T10:10:55.000Z</time>
      </trkpt>
      <trkpt lat="49.8074" lon="4.8391">
        <ele>225</ele>
        <time>2022-07-15T10:10:56.000Z</time>
      </trkpt>
      <trkpt lat="49.80736" lon="4.83911">
        <ele>225</ele>
        <time>2022-07-15T10:10:57.000Z</time>
      </trkpt>
      <trkpt lat="49.80732" lon="4.83913">
        <ele>225</ele>
        <time>2022-07-15T10:10:58.000Z</time>
      </trkpt>
      <trkpt lat="49.80728" lon="4.83914">
        <ele>225</ele>
        <time>2022-07-15T10:10:59.000Z</time>
      </trkpt>
      <trkpt lat="49.80724" lon="4.83915">
        <ele>225</ele>
        <time>2022-07-15T10:11:00.000Z</time>
      </trkpt>
      <trkpt lat="49.8072" lon="4.83916">
        <ele>225</ele>
        <time>2022-07-15T10:11:01.000Z</time>
      </trkpt>
      <trkpt lat="49.80717" lon="4.83917">
        <ele>225</ele>
        <time>2022-07-15T10:11:02.000Z</time>
      </trkpt>
      <trkpt lat="49.80713" lon="4.83918">
        <ele>225</ele>
        <time>2022-07-15T10:11:03.000Z</time>
      </trkpt>
      <trkpt lat="49.80709" lon="4.83918">
        <ele>225</ele>
        <time>2022-07-15T10:11:04.000Z</time>
      </trkpt>
      <trkpt lat="49.80705" lon="4.8392">
        <ele>225</ele>
        <time>2022-07-15T10:11:05.000Z</time>
      </trkpt>
      <trkpt lat="49.807" lon="4.83922">
        <ele>225</ele>
        <time>2022-07-15T10:11:06.000Z</time>
      </trkpt>
      <trkpt lat="49.80696" lon="4.83924">
        <ele>225</ele>
        <time>2022-07-15T10:11:07.000Z</time>
      </trkpt>
      <trkpt lat="49.80692" lon="4.83924">
        <ele>225</ele>
        <time>2022-07-15T10:11:08.000Z</time>
      </trkpt>
      <trkpt lat="49.80687" lon="4.83926">
        <ele>225</ele>
        <time>2022-07-15T10:11:09.000Z</time>
      </trkpt>
      <trkpt lat="49.80683" lon="4.83928">
        <ele>225</ele>
        <time>2022-07-15T10:11:10.000Z</time>
      </trkpt>
      <trkpt lat="49.80679" lon="4.83929">
        <ele>225</ele>
        <time>2022-07-15T10:11:11.000Z</time>
      </trkpt>
      <trkpt lat="49.80676" lon="4.83931">
        <ele>225</ele>
        <time>2022-07-15T10:11:12.000Z</time>
      </trkpt>
      <trkpt lat="49.80673" lon="4.83932">
        <ele>225</ele>
        <time>2022-07-15T10:11:13.000Z</time>
      </trkpt>
      <trkpt lat="49.8067" lon="4.83932">
        <ele>225</ele>
        <time>2022-07-15T10:11:14.000Z</time>
      </trkpt>
      <trkpt lat="49.80667" lon="4.8393">
        <ele>225</ele>
        <time>2022-07-15T10:11:15.000Z</time>
      </trkpt>
      <trkpt lat="49.80665" lon="4.83929">
        <ele>225</ele>
        <time>2022-07-15T10:11:16.000Z</time>
      </trkpt>
      <trkpt lat="49.80661" lon="4.83929">
        <ele>225</ele>
        <time>2022-07-15T10:11:17.000Z</time>
      </trkpt>
      <trkpt lat="49.80658" lon="4.8393">
        <ele>225</ele>
        <time>2022-07-15T10:11:18.000Z</time>
      </trkpt>
      <trkpt lat="49.80655" lon="4.83933">
        <ele>224</ele>
        <time>2022-07-15T10:11:19.000Z</time>
      </trkpt>
      <trkpt lat="49.80651" lon="4.83935">
        <ele>224</ele>
        <time>2022-07-15T10:11:20.000Z</time>
      </trkpt>
      <trkpt lat="49.80648" lon="4.83937">
        <ele>224</ele>
        <time>2022-07-15T10:11:21.000Z</time>
      </trkpt>
      <trkpt lat="49.80644" lon="4.83938">
        <ele>224</ele>
        <time>2022-07-15T10:11:22.000Z</time>
      </trkpt>
      <trkpt lat="49.8064" lon="4.8394">
        <ele>224</ele>
        <time>2022-07-15T10:11:23.000Z</time>
      </trkpt>
      <trkpt lat="49.80636" lon="4.83942">
        <ele>224</ele>
        <time>2022-07-15T10:11:24.000Z</time>
      </trkpt>
      <trkpt lat="49.80632" lon="4.83943">
        <ele>224</ele>
        <time>2022-07-15T10:11:25.000Z</time>
      </trkpt>
      <trkpt lat="49.80629" lon="4.83945">
        <ele>224</ele>
        <time>2022-07-15T10:11:26.000Z</time>
      </trkpt>
      <trkpt lat="49.80625" lon="4.83946">
        <ele>224</ele>
        <time>2022-07-15T10:11:27.000Z</time>
      </trkpt>
      <trkpt lat="49.8062" lon="4.83947">
        <ele>224</ele>
        <time>2022-07-15T10:11:28.000Z</time>
      </trkpt>
      <trkpt lat="49.80616" lon="4.83948">
        <ele>224</ele>
        <time>2022-07-15T10:11:29.000Z</time>
      </trkpt>
      <trkpt lat="49.80611" lon="4.83949">
        <ele>224</ele>
        <time>2022-07-15T10:11:30.000Z</time>
      </trkpt>
      <trkpt lat="49.80606" lon="4.8395">
        <ele>224</ele>
        <time>2022-07-15T10:11:31.000Z</time>
      </trkpt>
      <trkpt lat="49.80602" lon="4.8395">
        <ele>224</ele>
        <time>2022-07-15T10:11:32.000Z</time>
      </trkpt>
      <trkpt lat="49.80597" lon="4.83951">
        <ele>223</ele>
        <time>2022-07-15T10:11:33.000Z</time>
      </trkpt>
      <trkpt lat="49.80593" lon="4.83951">
        <ele>223</ele>
        <time>2022-07-15T10:11:34.000Z</time>
      </trkpt>
      <trkpt lat="49.8059" lon="4.83952">
        <ele>223</ele>
        <time>2022-07-15T10:11:35.000Z</time>
      </trkpt>
      <trkpt lat="49.80586" lon="4.83952">
        <ele>223</ele>
        <time>2022-07-15T10:11:36.000Z</time>
      </trkpt>
      <trkpt lat="49.80582" lon="4.83953">
        <ele>222</ele>
        <time>2022-07-15T10:11:37.000Z</time>
      </trkpt>
      <trkpt lat="49.80579" lon="4.83953">
        <ele>222</ele>
        <time>2022-07-15T10:11:38.000Z</time>
      </trkpt>
      <trkpt lat="49.80576" lon="4.83954">
        <ele>222</ele>
        <time>2022-07-15T10:11:39.000Z</time>
      </trkpt>
      <trkpt lat="49.80572" lon="4.83955">
        <ele>221</ele>
        <time>2022-07-15T10:11:40.000Z</time>
      </trkpt>
      <trkpt lat="49.80569" lon="4.83955">
        <ele>221</ele>
        <time>2022-07-15T10:11:41.000Z</time>
      </trkpt>
      <trkpt lat="49.80566" lon="4.83955">
        <ele>221</ele>
        <time>2022-07-15T10:11:42.000Z</time>
      </trkpt>
      <trkpt lat="49.80562" lon="4.83955">
        <ele>220</ele>
        <time>2022-07-15T10:11:43.000Z</time>
      </trkpt>
      <trkpt lat="49.80559" lon="4.83956">
        <ele>220</ele>
        <time>2022-07-15T10:11:44.000Z</time>
      </trkpt>
      <trkpt lat="49.80556" lon="4.83956">
        <ele>220</ele>
        <time>2022-07-15T10:11:45.000Z</time>
      </trkpt>
      <trkpt lat="49.80553" lon="4.83957">
        <ele>220</ele>
        <time>2022-07-15T10:11:46.000Z</time>
      </trkpt>
      <trkpt lat="49.8055" lon="4.83957">
        <ele>220</ele>
        <time>2022-07-15T10:11:47.000Z</time>
      </trkpt>
      <trkpt lat="49.80546" lon="4.83958">
        <ele>219</ele>
        <time>2022-07-15T10:11:48.000Z</time>
      </trkpt>
      <trkpt lat="49.80543" lon="4.83958">
        <ele>219</ele>
        <time>2022-07-15T10:11:49.000Z</time>
      </trkpt>
      <trkpt lat="49.80539" lon="4.83958">
        <ele>219</ele>
        <time>2022-07-15T10:11:50.000Z</time>
      </trkpt>
      <trkpt lat="49.80536" lon="4.83959">
        <ele>219</ele>
        <time>2022-07-15T10:11:51.000Z</time>
      </trkpt>
      <trkpt lat="49.80533" lon="4.83959">
        <ele>218</ele>
        <time>2022-07-15T10:11:52.000Z</time>
      </trkpt>
      <trkpt lat="49.8053" lon="4.83959">
        <ele>218</ele>
        <time>2022-07-15T10:11:53.000Z</time>
      </trkpt>
      <trkpt lat="49.80528" lon="4.8396">
        <ele>218</ele>
        <time>2022-07-15T10:11:54.000Z</time>
      </trkpt>
      <trkpt lat="49.80525" lon="4.8396">
        <ele>218</ele>
        <time>2022-07-15T10:11:55.000Z</time>
      </trkpt>
      <trkpt lat="49.80522" lon="4.83961">
        <ele>218</ele>
        <time>2022-07-15T10:11:56.000Z</time>
      </trkpt>
      <trkpt lat="49.8052" lon="4.83962">
        <ele>218</ele>
        <time>2022-07-15T10:11:57.000Z</time>
      </trkpt>
      <trkpt lat="49.80518" lon="4.83963">
        <ele>217</ele>
        <time>2022-07-15T10:11:58.000Z</time>
      </trkpt>
      <trkpt lat="49.80517" lon="4.83963">
        <ele>217</ele>
        <time>2022-07-15T10:11:59.000Z</time>
      </trkpt>
      <trkpt lat="49.80515" lon="4.83963">
        <ele>217</ele>
        <time>2022-07-15T10:12:00.000Z</time>
      </trkpt>
      <trkpt lat="49.80513" lon="4.83962">
        <ele>217</ele>
        <time>2022-07-15T10:12:01.000Z</time>
      </trkpt>
      <trkpt lat="49.80511" lon="4.83963">
        <ele>217</ele>
        <time>2022-07-15T10:12:02.000Z</time>
      </trkpt>
      <trkpt lat="49.80509" lon="4.83963">
        <ele>217</ele>
        <time>2022-07-15T10:12:03.000Z</time>
      </trkpt>
      <trkpt lat="49.80507" lon="4.83963">
        <ele>217</ele>
        <time>2022-07-15T10:12:04.000Z</time>
      </trkpt>
      <trkpt lat="49.80504" lon="4.83961">
        <ele>217</ele>
        <time>2022-07-15T10:12:05.000Z</time>
      </trkpt>
      <trkpt lat="49.80502" lon="4.83959">
        <ele>217</ele>
        <time>2022-07-15T10:12:06.000Z</time>
      </trkpt>
      <trkpt lat="49.805" lon="4.83957">
        <ele>217</ele>
        <time>2022-07-15T10:12:07.000Z</time>
      </trkpt>
      <trkpt lat="49.80498" lon="4.83953">
        <ele>217</ele>
        <time>2022-07-15T10:12:08.000Z</time>
      </trkpt>
      <trkpt lat="49.80495" lon="4.8395">
        <ele>217</ele>
        <time>2022-07-15T10:12:09.000Z</time>
      </trkpt>
      <trkpt lat="49.80493" lon="4.83947">
        <ele>216</ele>
        <time>2022-07-15T10:12:10.000Z</time>
      </trkpt>
      <trkpt lat="49.8049" lon="4.83944">
        <ele>216</ele>
        <time>2022-07-15T10:12:11.000Z</time>
      </trkpt>
      <trkpt lat="49.80487" lon="4.83941">
        <ele>216</ele>
        <time>2022-07-15T10:12:12.000Z</time>
      </trkpt>
      <trkpt lat="49.80485" lon="4.83938">
        <ele>216</ele>
        <time>2022-07-15T10:12:13.000Z</time>
      </trkpt>
      <trkpt lat="49.80482" lon="4.83935">
        <ele>216</ele>
        <time>2022-07-15T10:12:14.000Z</time>
      </trkpt>
      <trkpt lat="49.80479" lon="4.83932">
        <ele>216</ele>
        <time>2022-07-15T10:12:15.000Z</time>
      </trkpt>
      <trkpt lat="49.80477" lon="4.8393">
        <ele>216</ele>
        <time>2022-07-15T10:12:16.000Z</time>
      </trkpt>
      <trkpt lat="49.80474" lon="4.83927">
        <ele>216</ele>
        <time>2022-07-15T10:12:17.000Z</time>
      </trkpt>
      <trkpt lat="49.80472" lon="4.83925">
        <ele>216</ele>
        <time>2022-07-15T10:12:18.000Z</time>
      </trkpt>
      <trkpt lat="49.80469" lon="4.83923">
        <ele>216</ele>
        <time>2022-07-15T10:12:19.000Z</time>
      </trkpt>
      <trkpt lat="49.80466" lon="4.8392">
        <ele>216</ele>
        <time>2022-07-15T10:12:20.000Z</time>
      </trkpt>
      <trkpt lat="49.80463" lon="4.83919">
        <ele>216</ele>
        <time>2022-07-15T10:12:21.000Z</time>
      </trkpt>
      <trkpt lat="49.80459" lon="4.83917">
        <ele>216</ele>
        <time>2022-07-15T10:12:22.000Z</time>
      </trkpt>
      <trkpt lat="49.80456" lon="4.83916">
        <ele>216</ele>
        <time>2022-07-15T10:12:23.000Z</time>
      </trkpt>
      <trkpt lat="49.80453" lon="4.83913">
        <ele>215</ele>
        <time>2022-07-15T10:12:24.000Z</time>
      </trkpt>
      <trkpt lat="49.80449" lon="4.83912">
        <ele>215</ele>
        <time>2022-07-15T10:12:25.000Z</time>
      </trkpt>
      <trkpt lat="49.80446" lon="4.8391">
        <ele>215</ele>
        <time>2022-07-15T10:12:26.000Z</time>
      </trkpt>
      <trkpt lat="49.80443" lon="4.83908">
        <ele>215</ele>
        <time>2022-07-15T10:12:27.000Z</time>
      </trkpt>
      <trkpt lat="49.8044" lon="4.83905">
        <ele>215</ele>
        <time>2022-07-15T10:12:28.000Z</time>
      </trkpt>
      <trkpt lat="49.80437" lon="4.83903">
        <ele>215</ele>
        <time>2022-07-15T10:12:29.000Z</time>
      </trkpt>
      <trkpt lat="49.80434" lon="4.83901">
        <ele>215</ele>
        <time>2022-07-15T10:12:30.000Z</time>
      </trkpt>
      <trkpt lat="49.8043" lon="4.83899">
        <ele>215</ele>
        <time>2022-07-15T10:12:31.000Z</time>
      </trkpt>
      <trkpt lat="49.80427" lon="4.83896">
        <ele>215</ele>
        <time>2022-07-15T10:12:32.000Z</time>
      </trkpt>
      <trkpt lat="49.80423" lon="4.83894">
        <ele>215</ele>
        <time>2022-07-15T10:12:33.000Z</time>
      </trkpt>
      <trkpt lat="49.8042" lon="4.83892">
        <ele>215</ele>
        <time>2022-07-15T10:12:34.000Z</time>
      </trkpt>
      <trkpt lat="49.80416" lon="4.83889">
        <ele>215</ele>
        <time>2022-07-15T10:12:35.000Z</time>
      </trkpt>
      <trkpt lat="49.80413" lon="4.83886">
        <ele>215</ele>
        <time>2022-07-15T10:12:36.000Z</time>
      </trkpt>
      <trkpt lat="49.80409" lon="4.83883">
        <ele>215</ele>
        <time>2022-07-15T10:12:37.000Z</time>
      </trkpt>
      <trkpt lat="49.80405" lon="4.8388">
        <ele>215</ele>
        <time>2022-07-15T10:12:38.000Z</time>
      </trkpt>
      <trkpt lat="49.80402" lon="4.83875">
        <ele>215</ele>
        <time>2022-07-15T10:12:39.000Z</time>
      </trkpt>
      <trkpt lat="49.80399" lon="4.8387">
        <ele>215</ele>
        <time>2022-07-15T10:12:40.000Z</time>
      </trkpt>
      <trkpt lat="49.80395" lon="4.83867">
        <ele>216</ele>
        <time>2022-07-15T10:12:41.000Z</time>
      </trkpt>
      <trkpt lat="49.80392" lon="4.83865">
        <ele>216</ele>
        <time>2022-07-15T10:12:42.000Z</time>
      </trkpt>
      <trkpt lat="49.80388" lon="4.83864">
        <ele>216</ele>
        <time>2022-07-15T10:12:43.000Z</time>
      </trkpt>
      <trkpt lat="49.80384" lon="4.83864">
        <ele>216</ele>
        <time>2022-07-15T10:12:44.000Z</time>
      </trkpt>
      <trkpt lat="49.80379" lon="4.83863">
        <ele>216</ele>
        <time>2022-07-15T10:12:45.000Z</time>
      </trkpt>
      <trkpt lat="49.80375" lon="4.83863">
        <ele>216</ele>
        <time>2022-07-15T10:12:46.000Z</time>
      </trkpt>
      <trkpt lat="49.80371" lon="4.83862">
        <ele>216</ele>
        <time>2022-07-15T10:12:47.000Z</time>
      </trkpt>
      <trkpt lat="49.80367" lon="4.83862">
        <ele>216</ele>
        <time>2022-07-15T10:12:48.000Z</time>
      </trkpt>
      <trkpt lat="49.80363" lon="4.83861">
        <ele>216</ele>
        <time>2022-07-15T10:12:49.000Z</time>
      </trkpt>
      <trkpt lat="49.80359" lon="4.83861">
        <ele>216</ele>
        <time>2022-07-15T10:12:50.000Z</time>
      </trkpt>
      <trkpt lat="49.80355" lon="4.83861">
        <ele>216</ele>
        <time>2022-07-15T10:12:51.000Z</time>
      </trkpt>
      <trkpt lat="49.80351" lon="4.8386">
        <ele>216</ele>
        <time>2022-07-15T10:12:52.000Z</time>
      </trkpt>
      <trkpt lat="49.80347" lon="4.8386">
        <ele>217</ele>
        <time>2022-07-15T10:12:53.000Z</time>
      </trkpt>
      <trkpt lat="49.80343" lon="4.83859">
        <ele>217</ele>
        <time>2022-07-15T10:12:54.000Z</time>
      </trkpt>
      <trkpt lat="49.80339" lon="4.83859">
        <ele>217</ele>
        <time>2022-07-15T10:12:55.000Z</time>
      </trkpt>
      <trkpt lat="49.80335" lon="4.83858">
        <ele>217</ele>
        <time>2022-07-15T10:12:56.000Z</time>
      </trkpt>
      <trkpt lat="49.8033" lon="4.83858">
        <ele>217</ele>
        <time>2022-07-15T10:12:57.000Z</time>
      </trkpt>
      <trkpt lat="49.80326" lon="4.83857">
        <ele>217</ele>
        <time>2022-07-15T10:12:58.000Z</time>
      </trkpt>
      <trkpt lat="49.80323" lon="4.83857">
        <ele>217</ele>
        <time>2022-07-15T10:12:59.000Z</time>
      </trkpt>
      <trkpt lat="49.80319" lon="4.83856">
        <ele>217</ele>
        <time>2022-07-15T10:13:00.000Z</time>
      </trkpt>
      <trkpt lat="49.80316" lon="4.83856">
        <ele>217</ele>
        <time>2022-07-15T10:13:01.000Z</time>
      </trkpt>
      <trkpt lat="49.80312" lon="4.83855">
        <ele>217</ele>
        <time>2022-07-15T10:13:02.000Z</time>
      </trkpt>
      <trkpt lat="49.80309" lon="4.83855">
        <ele>218</ele>
        <time>2022-07-15T10:13:03.000Z</time>
      </trkpt>
      <trkpt lat="49.80306" lon="4.83854">
        <ele>218</ele>
        <time>2022-07-15T10:13:04.000Z</time>
      </trkpt>
      <trkpt lat="49.80302" lon="4.83854">
        <ele>218</ele>
        <time>2022-07-15T10:13:05.000Z</time>
      </trkpt>
      <trkpt lat="49.80298" lon="4.83853">
        <ele>218</ele>
        <time>2022-07-15T10:13:06.000Z</time>
      </trkpt>
      <trkpt lat="49.80295" lon="4.83852">
        <ele>218</ele>
        <time>2022-07-15T10:13:07.000Z</time>
      </trkpt>
      <trkpt lat="49.80291" lon="4.83851">
        <ele>218</ele>
        <time>2022-07-15T10:13:08.000Z</time>
      </trkpt>
      <trkpt lat="49.80286" lon="4.83851">
        <ele>219</ele>
        <time>2022-07-15T10:13:09.000Z</time>
      </trkpt>
      <trkpt lat="49.80283" lon="4.8385">
        <ele>219</ele>
        <time>2022-07-15T10:13:10.000Z</time>
      </trkpt>
      <trkpt lat="49.80278" lon="4.8385">
        <ele>219</ele>
        <time>2022-07-15T10:13:11.000Z</time>
      </trkpt>
      <trkpt lat="49.80275" lon="4.83849">
        <ele>219</ele>
        <time>2022-07-15T10:13:12.000Z</time>
      </trkpt>
      <trkpt lat="49.80271" lon="4.83849">
        <ele>220</ele>
        <time>2022-07-15T10:13:13.000Z</time>
      </trkpt>
      <trkpt lat="49.80267" lon="4.83848">
        <ele>220</ele>
        <time>2022-07-15T10:13:14.000Z</time>
      </trkpt>
      <trkpt lat="49.80263" lon="4.83848">
        <ele>220</ele>
        <time>2022-07-15T10:13:15.000Z</time>
      </trkpt>
      <trkpt lat="49.8026" lon="4.83848">
        <ele>220</ele>
        <time>2022-07-15T10:13:16.000Z</time>
      </trkpt>
      <trkpt lat="49.80257" lon="4.83848">
        <ele>220</ele>
        <time>2022-07-15T10:13:17.000Z</time>
      </trkpt>
      <trkpt lat="49.80254" lon="4.83848">
        <ele>220</ele>
        <time>2022-07-15T10:13:18.000Z</time>
      </trkpt>
      <trkpt lat="49.8025" lon="4.83848">
        <ele>220</ele>
        <time>2022-07-15T10:13:19.000Z</time>
      </trkpt>
      <trkpt lat="49.80247" lon="4.83848">
        <ele>220</ele>
        <time>2022-07-15T10:13:20.000Z</time>
      </trkpt>
      <trkpt lat="49.80243" lon="4.83848">
        <ele>221</ele>
        <time>2022-07-15T10:13:21.000Z</time>
      </trkpt>
      <trkpt lat="49.8024" lon="4.83847">
        <ele>221</ele>
        <time>2022-07-15T10:13:22.000Z</time>
      </trkpt>
      <trkpt lat="49.80236" lon="4.83847">
        <ele>221</ele>
        <time>2022-07-15T10:13:23.000Z</time>
      </trkpt>
      <trkpt lat="49.80231" lon="4.83847">
        <ele>221</ele>
        <time>2022-07-15T10:13:24.000Z</time>
      </trkpt>
      <trkpt lat="49.80227" lon="4.83847">
        <ele>221</ele>
        <time>2022-07-15T10:13:25.000Z</time>
      </trkpt>
      <trkpt lat="49.80223" lon="4.83847">
        <ele>221</ele>
        <time>2022-07-15T10:13:26.000Z</time>
      </trkpt>
      <trkpt lat="49.80218" lon="4.83847">
        <ele>221</ele>
        <time>2022-07-15T10:13:27.000Z</time>
      </trkpt>
      <trkpt lat="49.80214" lon="4.83846">
        <ele>221</ele>
        <time>2022-07-15T10:13:28.000Z</time>
      </trkpt>
      <trkpt lat="49.8021" lon="4.83846">
        <ele>221</ele>
        <time>2022-07-15T10:13:29.000Z</time>
      </trkpt>
      <trkpt lat="49.80205" lon="4.83845">
        <ele>221</ele>
        <time>2022-07-15T10:13:30.000Z</time>
      </trkpt>
      <trkpt lat="49.80201" lon="4.83844">
        <ele>221</ele>
        <time>2022-07-15T10:13:31.000Z</time>
      </trkpt>
      <trkpt lat="49.80196" lon="4.83843">
        <ele>221</ele>
        <time>2022-07-15T10:13:32.000Z</time>
      </trkpt>
      <trkpt lat="49.80192" lon="4.83842">
        <ele>222</ele>
        <time>2022-07-15T10:13:33.000Z</time>
      </trkpt>
      <trkpt lat="49.80187" lon="4.83842">
        <ele>222</ele>
        <time>2022-07-15T10:13:34.000Z</time>
      </trkpt>
      <trkpt lat="49.80182" lon="4.83841">
        <ele>222</ele>
        <time>2022-07-15T10:13:35.000Z</time>
      </trkpt>
      <trkpt lat="49.80178" lon="4.8384">
        <ele>222</ele>
        <time>2022-07-15T10:13:36.000Z</time>
      </trkpt>
      <trkpt lat="49.80173" lon="4.83839">
        <ele>222</ele>
        <time>2022-07-15T10:13:37.000Z</time>
      </trkpt>
      <trkpt lat="49.80168" lon="4.83839">
        <ele>223</ele>
        <time>2022-07-15T10:13:38.000Z</time>
      </trkpt>
      <trkpt lat="49.80164" lon="4.83838">
        <ele>223</ele>
        <time>2022-07-15T10:13:39.000Z</time>
      </trkpt>
      <trkpt lat="49.80159" lon="4.83837">
        <ele>223</ele>
        <time>2022-07-15T10:13:40.000Z</time>
      </trkpt>
      <trkpt lat="49.80154" lon="4.83836">
        <ele>223</ele>
        <time>2022-07-15T10:13:41.000Z</time>
      </trkpt>
      <trkpt lat="49.8015" lon="4.83835">
        <ele>223</ele>
        <time>2022-07-15T10:13:42.000Z</time>
      </trkpt>
      <trkpt lat="49.80145" lon="4.83834">
        <ele>224</ele>
        <time>2022-07-15T10:13:43.000Z</time>
      </trkpt>
      <trkpt lat="49.80141" lon="4.83832">
        <ele>224</ele>
        <time>2022-07-15T10:13:44.000Z</time>
      </trkpt>
      <trkpt lat="49.80136" lon="4.83831">
        <ele>224</ele>
        <time>2022-07-15T10:13:45.000Z</time>
      </trkpt>
      <trkpt lat="49.80132" lon="4.83829">
        <ele>224</ele>
        <time>2022-07-15T10:13:46.000Z</time>
      </trkpt>
      <trkpt lat="49.80127" lon="4.83828">
        <ele>224</ele>
        <time>2022-07-15T10:13:47.000Z</time>
      </trkpt>
      <trkpt lat="49.80123" lon="4.83826">
        <ele>224</ele>
        <time>2022-07-15T10:13:48.000Z</time>
      </trkpt>
      <trkpt lat="49.80118" lon="4.83825">
        <ele>224</ele>
        <time>2022-07-15T10:13:49.000Z</time>
      </trkpt>
      <trkpt lat="49.80115" lon="4.83824">
        <ele>225</ele>
        <time>2022-07-15T10:13:50.000Z</time>
      </trkpt>
      <trkpt lat="49.80111" lon="4.83822">
        <ele>225</ele>
        <time>2022-07-15T10:13:51.000Z</time>
      </trkpt>
      <trkpt lat="49.80106" lon="4.8382">
        <ele>225</ele>
        <time>2022-07-15T10:13:52.000Z</time>
      </trkpt>
      <trkpt lat="49.80101" lon="4.83819">
        <ele>225</ele>
        <time>2022-07-15T10:13:53.000Z</time>
      </trkpt>
      <trkpt lat="49.80096" lon="4.83818">
        <ele>225</ele>
        <time>2022-07-15T10:13:54.000Z</time>
      </trkpt>
      <trkpt lat="49.80091" lon="4.83817">
        <ele>225</ele>
        <time>2022-07-15T10:13:55.000Z</time>
      </trkpt>
      <trkpt lat="49.80087" lon="4.83816">
        <ele>225</ele>
        <time>2022-07-15T10:13:56.000Z</time>
      </trkpt>
      <trkpt lat="49.80084" lon="4.83814">
        <ele>225</ele>
        <time>2022-07-15T10:13:57.000Z</time>
      </trkpt>
      <trkpt lat="49.8008" lon="4.83813">
        <ele>225</ele>
        <time>2022-07-15T10:13:58.000Z</time>
      </trkpt>
      <trkpt lat="49.80075" lon="4.8381">
        <ele>225</ele>
        <time>2022-07-15T10:13:59.000Z</time>
      </trkpt>
      <trkpt lat="49.80071" lon="4.83808">
        <ele>225</ele>
        <time>2022-07-15T10:14:00.000Z</time>
      </trkpt>
      <trkpt lat="49.80066" lon="4.83807">
        <ele>225</ele>
        <time>2022-07-15T10:14:01.000Z</time>
      </trkpt>
      <trkpt lat="49.80061" lon="4.83807">
        <ele>225</ele>
        <time>2022-07-15T10:14:02.000Z</time>
      </trkpt>
      <trkpt lat="49.80057" lon="4.83805">
        <ele>225</ele>
        <time>2022-07-15T10:14:03.000Z</time>
      </trkpt>
      <trkpt lat="49.80052" lon="4.83803">
        <ele>225</ele>
        <time>2022-07-15T10:14:04.000Z</time>
      </trkpt>
      <trkpt lat="49.80047" lon="4.83801">
        <ele>225</ele>
        <time>2022-07-15T10:14:05.000Z</time>
      </trkpt>
      <trkpt lat="49.80043" lon="4.83798">
        <ele>225</ele>
        <time>2022-07-15T10:14:06.000Z</time>
      </trkpt>
      <trkpt lat="49.80038" lon="4.83797">
        <ele>225</ele>
        <time>2022-07-15T10:14:07.000Z</time>
      </trkpt>
      <trkpt lat="49.80032" lon="4.83794">
        <ele>225</ele>
        <time>2022-07-15T10:14:08.000Z</time>
      </trkpt>
      <trkpt lat="49.80028" lon="4.83792">
        <ele>225</ele>
        <time>2022-07-15T10:14:09.000Z</time>
      </trkpt>
      <trkpt lat="49.80023" lon="4.83791">
        <ele>225</ele>
        <time>2022-07-15T10:14:10.000Z</time>
      </trkpt>
      <trkpt lat="49.80018" lon="4.83789">
        <ele>225</ele>
        <time>2022-07-15T10:14:11.000Z</time>
      </trkpt>
      <trkpt lat="49.80013" lon="4.83787">
        <ele>225</ele>
        <time>2022-07-15T10:14:12.000Z</time>
      </trkpt>
      <trkpt lat="49.80009" lon="4.83786">
        <ele>225</ele>
        <time>2022-07-15T10:14:13.000Z</time>
      </trkpt>
      <trkpt lat="49.80004" lon="4.83784">
        <ele>225</ele>
        <time>2022-07-15T10:14:14.000Z</time>
      </trkpt>
      <trkpt lat="49.79999" lon="4.83783">
        <ele>225</ele>
        <time>2022-07-15T10:14:15.000Z</time>
      </trkpt>
      <trkpt lat="49.79994" lon="4.83782">
        <ele>225</ele>
        <time>2022-07-15T10:14:16.000Z</time>
      </trkpt>
      <trkpt lat="49.7999" lon="4.83781">
        <ele>225</ele>
        <time>2022-07-15T10:14:17.000Z</time>
      </trkpt>
      <trkpt lat="49.79985" lon="4.8378">
        <ele>226</ele>
        <time>2022-07-15T10:14:18.000Z</time>
      </trkpt>
      <trkpt lat="49.7998" lon="4.83779">
        <ele>226</ele>
        <time>2022-07-15T10:14:19.000Z</time>
      </trkpt>
      <trkpt lat="49.79975" lon="4.83778">
        <ele>226</ele>
        <time>2022-07-15T10:14:20.000Z</time>
      </trkpt>
      <trkpt lat="49.79969" lon="4.83776">
        <ele>226</ele>
        <time>2022-07-15T10:14:21.000Z</time>
      </trkpt>
      <trkpt lat="49.79964" lon="4.83774">
        <ele>226</ele>
        <time>2022-07-15T10:14:22.000Z</time>
      </trkpt>
      <trkpt lat="49.79959" lon="4.83772">
        <ele>226</ele>
        <time>2022-07-15T10:14:23.000Z</time>
      </trkpt>
      <trkpt lat="49.79954" lon="4.8377">
        <ele>226</ele>
        <time>2022-07-15T10:14:24.000Z</time>
      </trkpt>
      <trkpt lat="49.79949" lon="4.83769">
        <ele>226</ele>
        <time>2022-07-15T10:14:25.000Z</time>
      </trkpt>
      <trkpt lat="49.79944" lon="4.83769">
        <ele>226</ele>
        <time>2022-07-15T10:14:26.000Z</time>
      </trkpt>
      <trkpt lat="49.79939" lon="4.83768">
        <ele>226</ele>
        <time>2022-07-15T10:14:27.000Z</time>
      </trkpt>
      <trkpt lat="49.79934" lon="4.83767">
        <ele>226</ele>
        <time>2022-07-15T10:14:28.000Z</time>
      </trkpt>
      <trkpt lat="49.7993" lon="4.83766">
        <ele>226</ele>
        <time>2022-07-15T10:14:29.000Z</time>
      </trkpt>
      <trkpt lat="49.79925" lon="4.83765">
        <ele>227</ele>
        <time>2022-07-15T10:14:30.000Z</time>
      </trkpt>
      <trkpt lat="49.79919" lon="4.83764">
        <ele>227</ele>
        <time>2022-07-15T10:14:31.000Z</time>
      </trkpt>
      <trkpt lat="49.79914" lon="4.83762">
        <ele>227</ele>
        <time>2022-07-15T10:14:32.000Z</time>
      </trkpt>
      <trkpt lat="49.79909" lon="4.83759">
        <ele>227</ele>
        <time>2022-07-15T10:14:33.000Z</time>
      </trkpt>
      <trkpt lat="49.79903" lon="4.83758">
        <ele>227</ele>
        <time>2022-07-15T10:14:34.000Z</time>
      </trkpt>
      <trkpt lat="49.79898" lon="4.83758">
        <ele>227</ele>
        <time>2022-07-15T10:14:35.000Z</time>
      </trkpt>
      <trkpt lat="49.79892" lon="4.83757">
        <ele>227</ele>
        <time>2022-07-15T10:14:36.000Z</time>
      </trkpt>
      <trkpt lat="49.79887" lon="4.83755">
        <ele>227</ele>
        <time>2022-07-15T10:14:37.000Z</time>
      </trkpt>
      <trkpt lat="49.79883" lon="4.83754">
        <ele>227</ele>
        <time>2022-07-15T10:14:38.000Z</time>
      </trkpt>
      <trkpt lat="49.79877" lon="4.83753">
        <ele>227</ele>
        <time>2022-07-15T10:14:39.000Z</time>
      </trkpt>
      <trkpt lat="49.79872" lon="4.83752">
        <ele>227</ele>
        <time>2022-07-15T10:14:40.000Z</time>
      </trkpt>
      <trkpt lat="49.79867" lon="4.83751">
        <ele>227</ele>
        <time>2022-07-15T10:14:41.000Z</time>
      </trkpt>
      <trkpt lat="49.79861" lon="4.8375">
        <ele>228</ele>
        <time>2022-07-15T10:14:42.000Z</time>
      </trkpt>
      <trkpt lat="49.79855" lon="4.83749">
        <ele>228</ele>
        <time>2022-07-15T10:14:43.000Z</time>
      </trkpt>
      <trkpt lat="49.79849" lon="4.83748">
        <ele>227</ele>
        <time>2022-07-15T10:14:44.000Z</time>
      </trkpt>
      <trkpt lat="49.79843" lon="4.83748">
        <ele>227</ele>
        <time>2022-07-15T10:14:45.000Z</time>
      </trkpt>
      <trkpt lat="49.79837" lon="4.83747">
        <ele>227</ele>
        <time>2022-07-15T10:14:46.000Z</time>
      </trkpt>
      <trkpt lat="49.79832" lon="4.83746">
        <ele>227</ele>
        <time>2022-07-15T10:14:47.000Z</time>
      </trkpt>
      <trkpt lat="49.79825" lon="4.83745">
        <ele>227</ele>
        <time>2022-07-15T10:14:48.000Z</time>
      </trkpt>
      <trkpt lat="49.79819" lon="4.83743">
        <ele>227</ele>
        <time>2022-07-15T10:14:49.000Z</time>
      </trkpt>
      <trkpt lat="49.79813" lon="4.83743">
        <ele>227</ele>
        <time>2022-07-15T10:14:50.000Z</time>
      </trkpt>
      <trkpt lat="49.79806" lon="4.83742">
        <ele>227</ele>
        <time>2022-07-15T10:14:51.000Z</time>
      </trkpt>
      <trkpt lat="49.798" lon="4.83741">
        <ele>227</ele>
        <time>2022-07-15T10:14:52.000Z</time>
      </trkpt>
      <trkpt lat="49.79794" lon="4.8374">
        <ele>228</ele>
        <time>2022-07-15T10:14:53.000Z</time>
      </trkpt>
      <trkpt lat="49.79788" lon="4.83739">
        <ele>228</ele>
        <time>2022-07-15T10:14:54.000Z</time>
      </trkpt>
      <trkpt lat="49.79783" lon="4.83738">
        <ele>228</ele>
        <time>2022-07-15T10:14:55.000Z</time>
      </trkpt>
      <trkpt lat="49.79777" lon="4.83738">
        <ele>228</ele>
        <time>2022-07-15T10:14:56.000Z</time>
      </trkpt>
      <trkpt lat="49.79771" lon="4.83737">
        <ele>228</ele>
        <time>2022-07-15T10:14:57.000Z</time>
      </trkpt>
      <trkpt lat="49.79766" lon="4.83736">
        <ele>228</ele>
        <time>2022-07-15T10:14:58.000Z</time>
      </trkpt>
      <trkpt lat="49.7976" lon="4.83736">
        <ele>228</ele>
        <time>2022-07-15T10:14:59.000Z</time>
      </trkpt>
      <trkpt lat="49.79753" lon="4.83735">
        <ele>228</ele>
        <time>2022-07-15T10:15:00.000Z</time>
      </trkpt>
      <trkpt lat="49.79747" lon="4.83735">
        <ele>228</ele>
        <time>2022-07-15T10:15:01.000Z</time>
      </trkpt>
      <trkpt lat="49.79741" lon="4.83735">
        <ele>228</ele>
        <time>2022-07-15T10:15:02.000Z</time>
      </trkpt>
      <trkpt lat="49.79734" lon="4.83735">
        <ele>228</ele>
        <time>2022-07-15T10:15:03.000Z</time>
      </trkpt>
      <trkpt lat="49.79728" lon="4.83734">
        <ele>229</ele>
        <time>2022-07-15T10:15:04.000Z</time>
      </trkpt>
      <trkpt lat="49.79722" lon="4.83733">
        <ele>229</ele>
        <time>2022-07-15T10:15:05.000Z</time>
      </trkpt>
      <trkpt lat="49.79715" lon="4.83733">
        <ele>229</ele>
        <time>2022-07-15T10:15:06.000Z</time>
      </trkpt>
      <trkpt lat="49.79709" lon="4.83733">
        <ele>229</ele>
        <time>2022-07-15T10:15:07.000Z</time>
      </trkpt>
      <trkpt lat="49.79702" lon="4.83733">
        <ele>229</ele>
        <time>2022-07-15T10:15:08.000Z</time>
      </trkpt>
      <trkpt lat="49.79696" lon="4.83733">
        <ele>229</ele>
        <time>2022-07-15T10:15:09.000Z</time>
      </trkpt>
      <trkpt lat="49.79689" lon="4.83733">
        <ele>229</ele>
        <time>2022-07-15T10:15:10.000Z</time>
      </trkpt>
      <trkpt lat="49.79683" lon="4.83732">
        <ele>229</ele>
        <time>2022-07-15T10:15:11.000Z</time>
      </trkpt>
      <trkpt lat="49.79676" lon="4.83732">
        <ele>229</ele>
        <time>2022-07-15T10:15:12.000Z</time>
      </trkpt>
      <trkpt lat="49.7967" lon="4.83732">
        <ele>229</ele>
        <time>2022-07-15T10:15:13.000Z</time>
      </trkpt>
      <trkpt lat="49.79664" lon="4.83732">
        <ele>229</ele>
        <time>2022-07-15T10:15:14.000Z</time>
      </trkpt>
      <trkpt lat="49.79658" lon="4.83732">
        <ele>229</ele>
        <time>2022-07-15T10:15:15.000Z</time>
      </trkpt>
      <trkpt lat="49.79652" lon="4.83731">
        <ele>230</ele>
        <time>2022-07-15T10:15:16.000Z</time>
      </trkpt>
      <trkpt lat="49.79645" lon="4.83731">
        <ele>230</ele>
        <time>2022-07-15T10:15:17.000Z</time>
      </trkpt>
      <trkpt lat="49.79639" lon="4.83731">
        <ele>229</ele>
        <time>2022-07-15T10:15:18.000Z</time>
      </trkpt>
      <trkpt lat="49.79632" lon="4.83732">
        <ele>229</ele>
        <time>2022-07-15T10:15:19.000Z</time>
      </trkpt>
      <trkpt lat="49.79626" lon="4.83732">
        <ele>229</ele>
        <time>2022-07-15T10:15:20.000Z</time>
      </trkpt>
      <trkpt lat="49.7962" lon="4.83732">
        <ele>228</ele>
        <time>2022-07-15T10:15:21.000Z</time>
      </trkpt>
      <trkpt lat="49.79614" lon="4.83732">
        <ele>228</ele>
        <time>2022-07-15T10:15:22.000Z</time>
      </trkpt>
      <trkpt lat="49.79607" lon="4.83733">
        <ele>228</ele>
        <time>2022-07-15T10:15:23.000Z</time>
      </trkpt>
      <trkpt lat="49.79601" lon="4.83732">
        <ele>227</ele>
        <time>2022-07-15T10:15:24.000Z</time>
      </trkpt>
      <trkpt lat="49.79595" lon="4.83732">
        <ele>227</ele>
        <time>2022-07-15T10:15:25.000Z</time>
      </trkpt>
      <trkpt lat="49.79588" lon="4.83732">
        <ele>227</ele>
        <time>2022-07-15T10:15:26.000Z</time>
      </trkpt>
      <trkpt lat="49.79582" lon="4.83731">
        <ele>226</ele>
        <time>2022-07-15T10:15:27.000Z</time>
      </trkpt>
      <trkpt lat="49.79576" lon="4.83731">
        <ele>226</ele>
        <time>2022-07-15T10:15:28.000Z</time>
      </trkpt>
      <trkpt lat="49.7957" lon="4.83731">
        <ele>226</ele>
        <time>2022-07-15T10:15:29.000Z</time>
      </trkpt>
      <trkpt lat="49.79564" lon="4.8373">
        <ele>226</ele>
        <time>2022-07-15T10:15:30.000Z</time>
      </trkpt>
      <trkpt lat="49.79558" lon="4.83729">
        <ele>225</ele>
        <time>2022-07-15T10:15:31.000Z</time>
      </trkpt>
      <trkpt lat="49.79551" lon="4.83727">
        <ele>225</ele>
        <time>2022-07-15T10:15:32.000Z</time>
      </trkpt>
      <trkpt lat="49.79545" lon="4.83726">
        <ele>225</ele>
        <time>2022-07-15T10:15:33.000Z</time>
      </trkpt>
      <trkpt lat="49.79539" lon="4.83725">
        <ele>224</ele>
        <time>2022-07-15T10:15:34.000Z</time>
      </trkpt>
      <trkpt lat="49.79533" lon="4.83723">
        <ele>224</ele>
        <time>2022-07-15T10:15:35.000Z</time>
      </trkpt>
      <trkpt lat="49.79526" lon="4.83721">
        <ele>223</ele>
        <time>2022-07-15T10:15:36.000Z</time>
      </trkpt>
      <trkpt lat="49.7952" lon="4.8372">
        <ele>223</ele>
        <time>2022-07-15T10:15:37.000Z</time>
      </trkpt>
      <trkpt lat="49.79514" lon="4.8372">
        <ele>223</ele>
        <time>2022-07-15T10:15:38.000Z</time>
      </trkpt>
      <trkpt lat="49.79508" lon="4.83719">
        <ele>222</ele>
        <time>2022-07-15T10:15:39.000Z</time>
      </trkpt>
      <trkpt lat="49.79503" lon="4.83718">
        <ele>222</ele>
        <time>2022-07-15T10:15:40.000Z</time>
      </trkpt>
      <trkpt lat="49.79498" lon="4.83717">
        <ele>222</ele>
        <time>2022-07-15T10:15:41.000Z</time>
      </trkpt>
      <trkpt lat="49.79493" lon="4.83716">
        <ele>221</ele>
        <time>2022-07-15T10:15:42.000Z</time>
      </trkpt>
      <trkpt lat="49.79488" lon="4.83716">
        <ele>221</ele>
        <time>2022-07-15T10:15:43.000Z</time>
      </trkpt>
      <trkpt lat="49.79483" lon="4.83714">
        <ele>221</ele>
        <time>2022-07-15T10:15:44.000Z</time>
      </trkpt>
      <trkpt lat="49.79477" lon="4.83712">
        <ele>220</ele>
        <time>2022-07-15T10:15:45.000Z</time>
      </trkpt>
      <trkpt lat="49.79471" lon="4.83711">
        <ele>220</ele>
        <time>2022-07-15T10:15:46.000Z</time>
      </trkpt>
      <trkpt lat="49.79465" lon="4.8371">
        <ele>220</ele>
        <time>2022-07-15T10:15:47.000Z</time>
      </trkpt>
      <trkpt lat="49.7946" lon="4.83708">
        <ele>220</ele>
        <time>2022-07-15T10:15:48.000Z</time>
      </trkpt>
      <trkpt lat="49.79454" lon="4.83706">
        <ele>219</ele>
        <time>2022-07-15T10:15:49.000Z</time>
      </trkpt>
      <trkpt lat="49.79448" lon="4.83705">
        <ele>219</ele>
        <time>2022-07-15T10:15:50.000Z</time>
      </trkpt>
      <trkpt lat="49.79442" lon="4.83704">
        <ele>219</ele>
        <time>2022-07-15T10:15:51.000Z</time>
      </trkpt>
      <trkpt lat="49.79436" lon="4.83702">
        <ele>219</ele>
        <time>2022-07-15T10:15:52.000Z</time>
      </trkpt>
      <trkpt lat="49.7943" lon="4.83701">
        <ele>219</ele>
        <time>2022-07-15T10:15:53.000Z</time>
      </trkpt>
      <trkpt lat="49.79424" lon="4.83701">
        <ele>219</ele>
        <time>2022-07-15T10:15:54.000Z</time>
      </trkpt>
      <trkpt lat="49.79418" lon="4.837">
        <ele>219</ele>
        <time>2022-07-15T10:15:55.000Z</time>
      </trkpt>
      <trkpt lat="49.79411" lon="4.837">
        <ele>219</ele>
        <time>2022-07-15T10:15:56.000Z</time>
      </trkpt>
      <trkpt lat="49.79405" lon="4.83698">
        <ele>218</ele>
        <time>2022-07-15T10:15:57.000Z</time>
      </trkpt>
      <trkpt lat="49.79399" lon="4.83696">
        <ele>218</ele>
        <time>2022-07-15T10:15:58.000Z</time>
      </trkpt>
      <trkpt lat="49.79393" lon="4.83696">
        <ele>218</ele>
        <time>2022-07-15T10:15:59.000Z</time>
      </trkpt>
      <trkpt lat="49.79386" lon="4.83695">
        <ele>218</ele>
        <time>2022-07-15T10:16:00.000Z</time>
      </trkpt>
      <trkpt lat="49.79381" lon="4.83696">
        <ele>218</ele>
        <time>2022-07-15T10:16:01.000Z</time>
      </trkpt>
      <trkpt lat="49.79375" lon="4.83697">
        <ele>218</ele>
        <time>2022-07-15T10:16:02.000Z</time>
      </trkpt>
      <trkpt lat="49.79369" lon="4.83699">
        <ele>218</ele>
        <time>2022-07-15T10:16:03.000Z</time>
      </trkpt>
      <trkpt lat="49.79364" lon="4.83701">
        <ele>218</ele>
        <time>2022-07-15T10:16:04.000Z</time>
      </trkpt>
      <trkpt lat="49.7936" lon="4.83705">
        <ele>219</ele>
        <time>2022-07-15T10:16:05.000Z</time>
      </trkpt>
      <trkpt lat="49.79355" lon="4.8371">
        <ele>219</ele>
        <time>2022-07-15T10:16:06.000Z</time>
      </trkpt>
      <trkpt lat="49.79351" lon="4.83716">
        <ele>219</ele>
        <time>2022-07-15T10:16:07.000Z</time>
      </trkpt>
      <trkpt lat="49.79346" lon="4.83721">
        <ele>219</ele>
        <time>2022-07-15T10:16:08.000Z</time>
      </trkpt>
      <trkpt lat="49.79341" lon="4.83727">
        <ele>219</ele>
        <time>2022-07-15T10:16:09.000Z</time>
      </trkpt>
      <trkpt lat="49.79337" lon="4.83733">
        <ele>220</ele>
        <time>2022-07-15T10:16:10.000Z</time>
      </trkpt>
      <trkpt lat="49.79332" lon="4.83738">
        <ele>220</ele>
        <time>2022-07-15T10:16:11.000Z</time>
      </trkpt>
      <trkpt lat="49.79328" lon="4.83744">
        <ele>220</ele>
        <time>2022-07-15T10:16:12.000Z</time>
      </trkpt>
      <trkpt lat="49.79324" lon="4.8375">
        <ele>220</ele>
        <time>2022-07-15T10:16:13.000Z</time>
      </trkpt>
      <trkpt lat="49.79319" lon="4.83756">
        <ele>220</ele>
        <time>2022-07-15T10:16:14.000Z</time>
      </trkpt>
      <trkpt lat="49.79315" lon="4.83763">
        <ele>221</ele>
        <time>2022-07-15T10:16:15.000Z</time>
      </trkpt>
      <trkpt lat="49.79311" lon="4.8377">
        <ele>221</ele>
        <time>2022-07-15T10:16:16.000Z</time>
      </trkpt>
      <trkpt lat="49.79307" lon="4.83777">
        <ele>221</ele>
        <time>2022-07-15T10:16:17.000Z</time>
      </trkpt>
      <trkpt lat="49.79303" lon="4.83785">
        <ele>221</ele>
        <time>2022-07-15T10:16:18.000Z</time>
      </trkpt>
      <trkpt lat="49.79299" lon="4.83792">
        <ele>221</ele>
        <time>2022-07-15T10:16:19.000Z</time>
      </trkpt>
      <trkpt lat="49.79295" lon="4.83801">
        <ele>221</ele>
        <time>2022-07-15T10:16:20.000Z</time>
      </trkpt>
      <trkpt lat="49.79292" lon="4.83809">
        <ele>222</ele>
        <time>2022-07-15T10:16:21.000Z</time>
      </trkpt>
      <trkpt lat="49.79288" lon="4.83816">
        <ele>222</ele>
        <time>2022-07-15T10:16:22.000Z</time>
      </trkpt>
      <trkpt lat="49.79284" lon="4.83824">
        <ele>222</ele>
        <time>2022-07-15T10:16:23.000Z</time>
      </trkpt>
      <trkpt lat="49.7928" lon="4.83831">
        <ele>222</ele>
        <time>2022-07-15T10:16:24.000Z</time>
      </trkpt>
      <trkpt lat="49.79276" lon="4.83838">
        <ele>222</ele>
        <time>2022-07-15T10:16:25.000Z</time>
      </trkpt>
      <trkpt lat="49.79273" lon="4.83845">
        <ele>223</ele>
        <time>2022-07-15T10:16:26.000Z</time>
      </trkpt>
      <trkpt lat="49.79269" lon="4.83852">
        <ele>223</ele>
        <time>2022-07-15T10:16:27.000Z</time>
      </trkpt>
      <trkpt lat="49.79266" lon="4.83859">
        <ele>223</ele>
        <time>2022-07-15T10:16:28.000Z</time>
      </trkpt>
      <trkpt lat="49.79263" lon="4.83866">
        <ele>223</ele>
        <time>2022-07-15T10:16:29.000Z</time>
      </trkpt>
      <trkpt lat="49.7926" lon="4.83874">
        <ele>223</ele>
        <time>2022-07-15T10:16:30.000Z</time>
      </trkpt>
      <trkpt lat="49.79257" lon="4.83881">
        <ele>224</ele>
        <time>2022-07-15T10:16:31.000Z</time>
      </trkpt>
      <trkpt lat="49.79253" lon="4.83889">
        <ele>224</ele>
        <time>2022-07-15T10:16:32.000Z</time>
      </trkpt>
      <trkpt lat="49.7925" lon="4.83897">
        <ele>224</ele>
        <time>2022-07-15T10:16:33.000Z</time>
      </trkpt>
      <trkpt lat="49.79246" lon="4.83905">
        <ele>224</ele>
        <time>2022-07-15T10:16:34.000Z</time>
      </trkpt>
      <trkpt lat="49.79243" lon="4.83913">
        <ele>224</ele>
        <time>2022-07-15T10:16:35.000Z</time>
      </trkpt>
      <trkpt lat="49.7924" lon="4.83921">
        <ele>223</ele>
        <time>2022-07-15T10:16:36.000Z</time>
      </trkpt>
      <trkpt lat="49.79237" lon="4.83929">
        <ele>223</ele>
        <time>2022-07-15T10:16:37.000Z</time>
      </trkpt>
      <trkpt lat="49.79234" lon="4.83937">
        <ele>223</ele>
        <time>2022-07-15T10:16:38.000Z</time>
      </trkpt>
      <trkpt lat="49.79231" lon="4.83944">
        <ele>223</ele>
        <time>2022-07-15T10:16:39.000Z</time>
      </trkpt>
      <trkpt lat="49.79227" lon="4.83952">
        <ele>223</ele>
        <time>2022-07-15T10:16:40.000Z</time>
      </trkpt>
      <trkpt lat="49.79224" lon="4.83959">
        <ele>223</ele>
        <time>2022-07-15T10:16:41.000Z</time>
      </trkpt>
      <trkpt lat="49.7922" lon="4.83966">
        <ele>223</ele>
        <time>2022-07-15T10:16:42.000Z</time>
      </trkpt>
      <trkpt lat="49.79217" lon="4.83974">
        <ele>223</ele>
        <time>2022-07-15T10:16:43.000Z</time>
      </trkpt>
      <trkpt lat="49.79214" lon="4.83981">
        <ele>223</ele>
        <time>2022-07-15T10:16:44.000Z</time>
      </trkpt>
      <trkpt lat="49.79211" lon="4.83988">
        <ele>223</ele>
        <time>2022-07-15T10:16:45.000Z</time>
      </trkpt>
      <trkpt lat="49.79207" lon="4.83996">
        <ele>223</ele>
        <time>2022-07-15T10:16:46.000Z</time>
      </trkpt>
      <trkpt lat="49.79204" lon="4.84004">
        <ele>223</ele>
        <time>2022-07-15T10:16:47.000Z</time>
      </trkpt>
      <trkpt lat="49.792" lon="4.84012">
        <ele>223</ele>
        <time>2022-07-15T10:16:48.000Z</time>
      </trkpt>
      <trkpt lat="49.79196" lon="4.84019">
        <ele>223</ele>
        <time>2022-07-15T10:16:49.000Z</time>
      </trkpt>
      <trkpt lat="49.79193" lon="4.84027">
        <ele>223</ele>
        <time>2022-07-15T10:16:50.000Z</time>
      </trkpt>
      <trkpt lat="49.79189" lon="4.84035">
        <ele>223</ele>
        <time>2022-07-15T10:16:51.000Z</time>
      </trkpt>
      <trkpt lat="49.79185" lon="4.84043">
        <ele>223</ele>
        <time>2022-07-15T10:16:52.000Z</time>
      </trkpt>
      <trkpt lat="49.79181" lon="4.8405">
        <ele>223</ele>
        <time>2022-07-15T10:16:53.000Z</time>
      </trkpt>
      <trkpt lat="49.79178" lon="4.84057">
        <ele>223</ele>
        <time>2022-07-15T10:16:54.000Z</time>
      </trkpt>
      <trkpt lat="49.79174" lon="4.84065">
        <ele>224</ele>
        <time>2022-07-15T10:16:55.000Z</time>
      </trkpt>
      <trkpt lat="49.7917" lon="4.84073">
        <ele>224</ele>
        <time>2022-07-15T10:16:56.000Z</time>
      </trkpt>
      <trkpt lat="49.79167" lon="4.84081">
        <ele>224</ele>
        <time>2022-07-15T10:16:57.000Z</time>
      </trkpt>
      <trkpt lat="49.79164" lon="4.84088">
        <ele>224</ele>
        <time>2022-07-15T10:16:58.000Z</time>
      </trkpt>
      <trkpt lat="49.7916" lon="4.84095">
        <ele>224</ele>
        <time>2022-07-15T10:16:59.000Z</time>
      </trkpt>
      <trkpt lat="49.79156" lon="4.84101">
        <ele>224</ele>
        <time>2022-07-15T10:17:00.000Z</time>
      </trkpt>
      <trkpt lat="49.79152" lon="4.84108">
        <ele>224</ele>
        <time>2022-07-15T10:17:01.000Z</time>
      </trkpt>
      <trkpt lat="49.79147" lon="4.84114">
        <ele>224</ele>
        <time>2022-07-15T10:17:02.000Z</time>
      </trkpt>
      <trkpt lat="49.79144" lon="4.8412">
        <ele>224</ele>
        <time>2022-07-15T10:17:03.000Z</time>
      </trkpt>
      <trkpt lat="49.7914" lon="4.84125">
        <ele>224</ele>
        <time>2022-07-15T10:17:04.000Z</time>
      </trkpt>
      <trkpt lat="49.79135" lon="4.8413">
        <ele>224</ele>
        <time>2022-07-15T10:17:05.000Z</time>
      </trkpt>
      <trkpt lat="49.79131" lon="4.84135">
        <ele>224</ele>
        <time>2022-07-15T10:17:06.000Z</time>
      </trkpt>
      <trkpt lat="49.79127" lon="4.84141">
        <ele>223</ele>
        <time>2022-07-15T10:17:07.000Z</time>
      </trkpt>
      <trkpt lat="49.79122" lon="4.84146">
        <ele>223</ele>
        <time>2022-07-15T10:17:08.000Z</time>
      </trkpt>
      <trkpt lat="49.79118" lon="4.84151">
        <ele>223</ele>
        <time>2022-07-15T10:17:09.000Z</time>
      </trkpt>
      <trkpt lat="49.79113" lon="4.84157">
        <ele>223</ele>
        <time>2022-07-15T10:17:10.000Z</time>
      </trkpt>
      <trkpt lat="49.79109" lon="4.84162">
        <ele>223</ele>
        <time>2022-07-15T10:17:11.000Z</time>
      </trkpt>
      <trkpt lat="49.79104" lon="4.84168">
        <ele>222</ele>
        <time>2022-07-15T10:17:12.000Z</time>
      </trkpt>
      <trkpt lat="49.791" lon="4.84174">
        <ele>222</ele>
        <time>2022-07-15T10:17:13.000Z</time>
      </trkpt>
      <trkpt lat="49.79095" lon="4.8418">
        <ele>222</ele>
        <time>2022-07-15T10:17:14.000Z</time>
      </trkpt>
      <trkpt lat="49.7909" lon="4.84186">
        <ele>222</ele>
        <time>2022-07-15T10:17:15.000Z</time>
      </trkpt>
      <trkpt lat="49.79085" lon="4.84192">
        <ele>222</ele>
        <time>2022-07-15T10:17:16.000Z</time>
      </trkpt>
      <trkpt lat="49.7908" lon="4.84197">
        <ele>222</ele>
        <time>2022-07-15T10:17:17.000Z</time>
      </trkpt>
      <trkpt lat="49.79075" lon="4.84204">
        <ele>222</ele>
        <time>2022-07-15T10:17:18.000Z</time>
      </trkpt>
      <trkpt lat="49.79071" lon="4.84209">
        <ele>222</ele>
        <time>2022-07-15T10:17:19.000Z</time>
      </trkpt>
      <trkpt lat="49.79066" lon="4.84215">
        <ele>221</ele>
        <time>2022-07-15T10:17:20.000Z</time>
      </trkpt>
      <trkpt lat="49.79061" lon="4.8422">
        <ele>221</ele>
        <time>2022-07-15T10:17:21.000Z</time>
      </trkpt>
      <trkpt lat="49.79056" lon="4.84226">
        <ele>221</ele>
        <time>2022-07-15T10:17:22.000Z</time>
      </trkpt>
      <trkpt lat="49.79051" lon="4.84232">
        <ele>221</ele>
        <time>2022-07-15T10:17:23.000Z</time>
      </trkpt>
      <trkpt lat="49.79046" lon="4.84238">
        <ele>221</ele>
        <time>2022-07-15T10:17:24.000Z</time>
      </trkpt>
      <trkpt lat="49.79042" lon="4.84243">
        <ele>221</ele>
        <time>2022-07-15T10:17:25.000Z</time>
      </trkpt>
      <trkpt lat="49.79037" lon="4.84249">
        <ele>221</ele>
        <time>2022-07-15T10:17:26.000Z</time>
      </trkpt>
      <trkpt lat="49.79032" lon="4.84254">
        <ele>221</ele>
        <time>2022-07-15T10:17:27.000Z</time>
      </trkpt>
      <trkpt lat="49.79027" lon="4.84259">
        <ele>221</ele>
        <time>2022-07-15T10:17:28.000Z</time>
      </trkpt>
      <trkpt lat="49.79021" lon="4.84263">
        <ele>221</ele>
        <time>2022-07-15T10:17:29.000Z</time>
      </trkpt>
      <trkpt lat="49.79017" lon="4.84267">
        <ele>221</ele>
        <time>2022-07-15T10:17:30.000Z</time>
      </trkpt>
      <trkpt lat="49.79012" lon="4.8427">
        <ele>220</ele>
        <time>2022-07-15T10:17:31.000Z</time>
      </trkpt>
      <trkpt lat="49.79007" lon="4.84274">
        <ele>220</ele>
        <time>2022-07-15T10:17:32.000Z</time>
      </trkpt>
      <trkpt lat="49.79001" lon="4.84277">
        <ele>220</ele>
        <time>2022-07-15T10:17:33.000Z</time>
      </trkpt>
      <trkpt lat="49.78994" lon="4.8428">
        <ele>220</ele>
        <time>2022-07-15T10:17:34.000Z</time>
      </trkpt>
      <trkpt lat="49.78988" lon="4.84283">
        <ele>220</ele>
        <time>2022-07-15T10:17:35.000Z</time>
      </trkpt>
      <trkpt lat="49.78982" lon="4.84285">
        <ele>219</ele>
        <time>2022-07-15T10:17:36.000Z</time>
      </trkpt>
      <trkpt lat="49.78977" lon="4.84289">
        <ele>219</ele>
        <time>2022-07-15T10:17:37.000Z</time>
      </trkpt>
      <trkpt lat="49.78972" lon="4.84293">
        <ele>219</ele>
        <time>2022-07-15T10:17:38.000Z</time>
      </trkpt>
      <trkpt lat="49.78966" lon="4.84297">
        <ele>219</ele>
        <time>2022-07-15T10:17:39.000Z</time>
      </trkpt>
      <trkpt lat="49.78961" lon="4.84301">
        <ele>218</ele>
        <time>2022-07-15T10:17:40.000Z</time>
      </trkpt>
      <trkpt lat="49.78956" lon="4.84303">
        <ele>218</ele>
        <time>2022-07-15T10:17:41.000Z</time>
      </trkpt>
      <trkpt lat="49.78951" lon="4.84307">
        <ele>218</ele>
        <time>2022-07-15T10:17:42.000Z</time>
      </trkpt>
      <trkpt lat="49.78945" lon="4.84311">
        <ele>218</ele>
        <time>2022-07-15T10:17:43.000Z</time>
      </trkpt>
      <trkpt lat="49.78939" lon="4.84315">
        <ele>218</ele>
        <time>2022-07-15T10:17:44.000Z</time>
      </trkpt>
      <trkpt lat="49.78935" lon="4.84318">
        <ele>218</ele>
        <time>2022-07-15T10:17:45.000Z</time>
      </trkpt>
      <trkpt lat="49.7893" lon="4.84319">
        <ele>218</ele>
        <time>2022-07-15T10:17:46.000Z</time>
      </trkpt>
      <trkpt lat="49.78925" lon="4.84319">
        <ele>218</ele>
        <time>2022-07-15T10:17:47.000Z</time>
      </trkpt>
      <trkpt lat="49.78919" lon="4.84321">
        <ele>218</ele>
        <time>2022-07-15T10:17:48.000Z</time>
      </trkpt>
      <trkpt lat="49.78914" lon="4.84323">
        <ele>217</ele>
        <time>2022-07-15T10:17:49.000Z</time>
      </trkpt>
      <trkpt lat="49.78908" lon="4.84325">
        <ele>217</ele>
        <time>2022-07-15T10:17:50.000Z</time>
      </trkpt>
      <trkpt lat="49.78901" lon="4.84327">
        <ele>217</ele>
        <time>2022-07-15T10:17:51.000Z</time>
      </trkpt>
      <trkpt lat="49.78895" lon="4.84328">
        <ele>216</ele>
        <time>2022-07-15T10:17:52.000Z</time>
      </trkpt>
      <trkpt lat="49.78888" lon="4.84329">
        <ele>216</ele>
        <time>2022-07-15T10:17:53.000Z</time>
      </trkpt>
      <trkpt lat="49.78881" lon="4.8433">
        <ele>215</ele>
        <time>2022-07-15T10:17:54.000Z</time>
      </trkpt>
      <trkpt lat="49.78874" lon="4.8433">
        <ele>215</ele>
        <time>2022-07-15T10:17:55.000Z</time>
      </trkpt>
      <trkpt lat="49.78867" lon="4.8433">
        <ele>215</ele>
        <time>2022-07-15T10:17:56.000Z</time>
      </trkpt>
      <trkpt lat="49.7886" lon="4.8433">
        <ele>214</ele>
        <time>2022-07-15T10:17:57.000Z</time>
      </trkpt>
      <trkpt lat="49.78853" lon="4.8433">
        <ele>214</ele>
        <time>2022-07-15T10:17:58.000Z</time>
      </trkpt>
      <trkpt lat="49.78846" lon="4.8433">
        <ele>214</ele>
        <time>2022-07-15T10:17:59.000Z</time>
      </trkpt>
      <trkpt lat="49.78839" lon="4.84329">
        <ele>213</ele>
        <time>2022-07-15T10:18:00.000Z</time>
      </trkpt>
      <trkpt lat="49.78831" lon="4.84329">
        <ele>213</ele>
        <time>2022-07-15T10:18:01.000Z</time>
      </trkpt>
      <trkpt lat="49.78824" lon="4.84328">
        <ele>213</ele>
        <time>2022-07-15T10:18:02.000Z</time>
      </trkpt>
      <trkpt lat="49.78817" lon="4.84327">
        <ele>212</ele>
        <time>2022-07-15T10:18:03.000Z</time>
      </trkpt>
      <trkpt lat="49.78809" lon="4.84327">
        <ele>212</ele>
        <time>2022-07-15T10:18:04.000Z</time>
      </trkpt>
      <trkpt lat="49.78802" lon="4.84326">
        <ele>212</ele>
        <time>2022-07-15T10:18:05.000Z</time>
      </trkpt>
      <trkpt lat="49.78795" lon="4.84326">
        <ele>211</ele>
        <time>2022-07-15T10:18:06.000Z</time>
      </trkpt>
      <trkpt lat="49.78788" lon="4.84326">
        <ele>211</ele>
        <time>2022-07-15T10:18:07.000Z</time>
      </trkpt>
      <trkpt lat="49.78781" lon="4.84325">
        <ele>210</ele>
        <time>2022-07-15T10:18:08.000Z</time>
      </trkpt>
      <trkpt lat="49.78774" lon="4.84325">
        <ele>210</ele>
        <time>2022-07-15T10:18:09.000Z</time>
      </trkpt>
      <trkpt lat="49.78767" lon="4.84325">
        <ele>209</ele>
        <time>2022-07-15T10:18:10.000Z</time>
      </trkpt>
      <trkpt lat="49.7876" lon="4.84323">
        <ele>209</ele>
        <time>2022-07-15T10:18:11.000Z</time>
      </trkpt>
      <trkpt lat="49.78753" lon="4.84323">
        <ele>208</ele>
        <time>2022-07-15T10:18:12.000Z</time>
      </trkpt>
      <trkpt lat="49.78746" lon="4.84321">
        <ele>208</ele>
        <time>2022-07-15T10:18:13.000Z</time>
      </trkpt>
      <trkpt lat="49.78739" lon="4.8432">
        <ele>208</ele>
        <time>2022-07-15T10:18:14.000Z</time>
      </trkpt>
      <trkpt lat="49.78732" lon="4.8432">
        <ele>207</ele>
        <time>2022-07-15T10:18:15.000Z</time>
      </trkpt>
      <trkpt lat="49.78725" lon="4.8432">
        <ele>207</ele>
        <time>2022-07-15T10:18:16.000Z</time>
      </trkpt>
      <trkpt lat="49.78718" lon="4.84319">
        <ele>206</ele>
        <time>2022-07-15T10:18:17.000Z</time>
      </trkpt>
      <trkpt lat="49.78711" lon="4.84319">
        <ele>206</ele>
        <time>2022-07-15T10:18:18.000Z</time>
      </trkpt>
      <trkpt lat="49.78703" lon="4.84318">
        <ele>206</ele>
        <time>2022-07-15T10:18:19.000Z</time>
      </trkpt>
      <trkpt lat="49.78696" lon="4.84317">
        <ele>206</ele>
        <time>2022-07-15T10:18:20.000Z</time>
      </trkpt>
      <trkpt lat="49.7869" lon="4.84317">
        <ele>205</ele>
        <time>2022-07-15T10:18:21.000Z</time>
      </trkpt>
      <trkpt lat="49.78683" lon="4.84317">
        <ele>205</ele>
        <time>2022-07-15T10:18:22.000Z</time>
      </trkpt>
      <trkpt lat="49.78676" lon="4.84318">
        <ele>205</ele>
        <time>2022-07-15T10:18:23.000Z</time>
      </trkpt>
      <trkpt lat="49.7867" lon="4.84319">
        <ele>204</ele>
        <time>2022-07-15T10:18:24.000Z</time>
      </trkpt>
      <trkpt lat="49.78664" lon="4.84318">
        <ele>204</ele>
        <time>2022-07-15T10:18:25.000Z</time>
      </trkpt>
      <trkpt lat="49.78657" lon="4.84318">
        <ele>204</ele>
        <time>2022-07-15T10:18:26.000Z</time>
      </trkpt>
      <trkpt lat="49.78651" lon="4.84317">
        <ele>203</ele>
        <time>2022-07-15T10:18:27.000Z</time>
      </trkpt>
      <trkpt lat="49.78644" lon="4.84318">
        <ele>203</ele>
        <time>2022-07-15T10:18:28.000Z</time>
      </trkpt>
      <trkpt lat="49.78638" lon="4.84317">
        <ele>203</ele>
        <time>2022-07-15T10:18:29.000Z</time>
      </trkpt>
      <trkpt lat="49.78631" lon="4.84317">
        <ele>202</ele>
        <time>2022-07-15T10:18:30.000Z</time>
      </trkpt>
      <trkpt lat="49.78624" lon="4.84317">
        <ele>202</ele>
        <time>2022-07-15T10:18:31.000Z</time>
      </trkpt>
      <trkpt lat="49.78617" lon="4.84316">
        <ele>201</ele>
        <time>2022-07-15T10:18:32.000Z</time>
      </trkpt>
      <trkpt lat="49.7861" lon="4.84316">
        <ele>201</ele>
        <time>2022-07-15T10:18:33.000Z</time>
      </trkpt>
      <trkpt lat="49.78604" lon="4.84315">
        <ele>200</ele>
        <time>2022-07-15T10:18:34.000Z</time>
      </trkpt>
      <trkpt lat="49.78597" lon="4.84314">
        <ele>200</ele>
        <time>2022-07-15T10:18:35.000Z</time>
      </trkpt>
      <trkpt lat="49.78591" lon="4.84313">
        <ele>199</ele>
        <time>2022-07-15T10:18:36.000Z</time>
      </trkpt>
      <trkpt lat="49.78584" lon="4.84313">
        <ele>199</ele>
        <time>2022-07-15T10:18:37.000Z</time>
      </trkpt>
      <trkpt lat="49.78578" lon="4.84313">
        <ele>199</ele>
        <time>2022-07-15T10:18:38.000Z</time>
      </trkpt>
      <trkpt lat="49.78572" lon="4.84313">
        <ele>198</ele>
        <time>2022-07-15T10:18:39.000Z</time>
      </trkpt>
      <trkpt lat="49.78565" lon="4.84313">
        <ele>198</ele>
        <time>2022-07-15T10:18:40.000Z</time>
      </trkpt>
      <trkpt lat="49.78559" lon="4.84313">
        <ele>198</ele>
        <time>2022-07-15T10:18:41.000Z</time>
      </trkpt>
      <trkpt lat="49.78553" lon="4.84313">
        <ele>197</ele>
        <time>2022-07-15T10:18:42.000Z</time>
      </trkpt>
      <trkpt lat="49.78547" lon="4.84312">
        <ele>197</ele>
        <time>2022-07-15T10:18:43.000Z</time>
      </trkpt>
      <trkpt lat="49.78541" lon="4.84312">
        <ele>197</ele>
        <time>2022-07-15T10:18:44.000Z</time>
      </trkpt>
      <trkpt lat="49.78534" lon="4.84312">
        <ele>196</ele>
        <time>2022-07-15T10:18:45.000Z</time>
      </trkpt>
      <trkpt lat="49.78528" lon="4.84311">
        <ele>196</ele>
        <time>2022-07-15T10:18:46.000Z</time>
      </trkpt>
      <trkpt lat="49.78522" lon="4.84311">
        <ele>196</ele>
        <time>2022-07-15T10:18:47.000Z</time>
      </trkpt>
      <trkpt lat="49.78516" lon="4.84309">
        <ele>195</ele>
        <time>2022-07-15T10:18:48.000Z</time>
      </trkpt>
      <trkpt lat="49.7851" lon="4.84308">
        <ele>195</ele>
        <time>2022-07-15T10:18:49.000Z</time>
      </trkpt>
      <trkpt lat="49.78504" lon="4.84308">
        <ele>195</ele>
        <time>2022-07-15T10:18:50.000Z</time>
      </trkpt>
      <trkpt lat="49.78498" lon="4.84308">
        <ele>195</ele>
        <time>2022-07-15T10:18:51.000Z</time>
      </trkpt>
      <trkpt lat="49.78492" lon="4.84308">
        <ele>194</ele>
        <time>2022-07-15T10:18:52.000Z</time>
      </trkpt>
      <trkpt lat="49.78486" lon="4.84308">
        <ele>194</ele>
        <time>2022-07-15T10:18:53.000Z</time>
      </trkpt>
      <trkpt lat="49.7848" lon="4.84308">
        <ele>194</ele>
        <time>2022-07-15T10:18:54.000Z</time>
      </trkpt>
      <trkpt lat="49.78474" lon="4.84307">
        <ele>194</ele>
        <time>2022-07-15T10:18:55.000Z</time>
      </trkpt>
      <trkpt lat="49.78468" lon="4.84307">
        <ele>194</ele>
        <time>2022-07-15T10:18:56.000Z</time>
      </trkpt>
      <trkpt lat="49.78462" lon="4.84307">
        <ele>194</ele>
        <time>2022-07-15T10:18:57.000Z</time>
      </trkpt>
      <trkpt lat="49.78456" lon="4.84307">
        <ele>194</ele>
        <time>2022-07-15T10:18:58.000Z</time>
      </trkpt>
      <trkpt lat="49.7845" lon="4.84307">
        <ele>194</ele>
        <time>2022-07-15T10:18:59.000Z</time>
      </trkpt>
      <trkpt lat="49.78444" lon="4.84307">
        <ele>194</ele>
        <time>2022-07-15T10:19:00.000Z</time>
      </trkpt>
      <trkpt lat="49.78439" lon="4.84308">
        <ele>194</ele>
        <time>2022-07-15T10:19:01.000Z</time>
      </trkpt>
      <trkpt lat="49.78433" lon="4.8431">
        <ele>194</ele>
        <time>2022-07-15T10:19:02.000Z</time>
      </trkpt>
      <trkpt lat="49.78429" lon="4.84311">
        <ele>194</ele>
        <time>2022-07-15T10:19:03.000Z</time>
      </trkpt>
      <trkpt lat="49.78424" lon="4.84314">
        <ele>194</ele>
        <time>2022-07-15T10:19:04.000Z</time>
      </trkpt>
      <trkpt lat="49.78418" lon="4.84316">
        <ele>194</ele>
        <time>2022-07-15T10:19:05.000Z</time>
      </trkpt>
      <trkpt lat="49.78414" lon="4.84321">
        <ele>194</ele>
        <time>2022-07-15T10:19:06.000Z</time>
      </trkpt>
      <trkpt lat="49.7841" lon="4.84326">
        <ele>194</ele>
        <time>2022-07-15T10:19:07.000Z</time>
      </trkpt>
      <trkpt lat="49.78405" lon="4.84331">
        <ele>195</ele>
        <time>2022-07-15T10:19:08.000Z</time>
      </trkpt>
      <trkpt lat="49.784" lon="4.84336">
        <ele>195</ele>
        <time>2022-07-15T10:19:09.000Z</time>
      </trkpt>
      <trkpt lat="49.78396" lon="4.8434">
        <ele>195</ele>
        <time>2022-07-15T10:19:10.000Z</time>
      </trkpt>
      <trkpt lat="49.78391" lon="4.84345">
        <ele>195</ele>
        <time>2022-07-15T10:19:11.000Z</time>
      </trkpt>
      <trkpt lat="49.78386" lon="4.84348">
        <ele>195</ele>
        <time>2022-07-15T10:19:12.000Z</time>
      </trkpt>
      <trkpt lat="49.78381" lon="4.8435">
        <ele>195</ele>
        <time>2022-07-15T10:19:13.000Z</time>
      </trkpt>
      <trkpt lat="49.78377" lon="4.8435">
        <ele>195</ele>
        <time>2022-07-15T10:19:14.000Z</time>
      </trkpt>
      <trkpt lat="49.78372" lon="4.84349">
        <ele>195</ele>
        <time>2022-07-15T10:19:15.000Z</time>
      </trkpt>
      <trkpt lat="49.78368" lon="4.84346">
        <ele>195</ele>
        <time>2022-07-15T10:19:16.000Z</time>
      </trkpt>
      <trkpt lat="49.78363" lon="4.84343">
        <ele>195</ele>
        <time>2022-07-15T10:19:17.000Z</time>
      </trkpt>
      <trkpt lat="49.78359" lon="4.8434">
        <ele>195</ele>
        <time>2022-07-15T10:19:18.000Z</time>
      </trkpt>
      <trkpt lat="49.78354" lon="4.84338">
        <ele>195</ele>
        <time>2022-07-15T10:19:19.000Z</time>
      </trkpt>
      <trkpt lat="49.7835" lon="4.84335">
        <ele>195</ele>
        <time>2022-07-15T10:19:20.000Z</time>
      </trkpt>
      <trkpt lat="49.78345" lon="4.84331">
        <ele>196</ele>
        <time>2022-07-15T10:19:21.000Z</time>
      </trkpt>
      <trkpt lat="49.7834" lon="4.84328">
        <ele>196</ele>
        <time>2022-07-15T10:19:22.000Z</time>
      </trkpt>
      <trkpt lat="49.78334" lon="4.84324">
        <ele>196</ele>
        <time>2022-07-15T10:19:23.000Z</time>
      </trkpt>
      <trkpt lat="49.78329" lon="4.8432">
        <ele>196</ele>
        <time>2022-07-15T10:19:24.000Z</time>
      </trkpt>
      <trkpt lat="49.78324" lon="4.84316">
        <ele>196</ele>
        <time>2022-07-15T10:19:25.000Z</time>
      </trkpt>
      <trkpt lat="49.78318" lon="4.84313">
        <ele>195</ele>
        <time>2022-07-15T10:19:26.000Z</time>
      </trkpt>
      <trkpt lat="49.78312" lon="4.8431">
        <ele>195</ele>
        <time>2022-07-15T10:19:27.000Z</time>
      </trkpt>
      <trkpt lat="49.78307" lon="4.84306">
        <ele>195</ele>
        <time>2022-07-15T10:19:28.000Z</time>
      </trkpt>
      <trkpt lat="49.78301" lon="4.84302">
        <ele>195</ele>
        <time>2022-07-15T10:19:29.000Z</time>
      </trkpt>
      <trkpt lat="49.78295" lon="4.84298">
        <ele>195</ele>
        <time>2022-07-15T10:19:30.000Z</time>
      </trkpt>
      <trkpt lat="49.78289" lon="4.84295">
        <ele>195</ele>
        <time>2022-07-15T10:19:31.000Z</time>
      </trkpt>
      <trkpt lat="49.78283" lon="4.84292">
        <ele>195</ele>
        <time>2022-07-15T10:19:32.000Z</time>
      </trkpt>
      <trkpt lat="49.78278" lon="4.84289">
        <ele>195</ele>
        <time>2022-07-15T10:19:33.000Z</time>
      </trkpt>
      <trkpt lat="49.78274" lon="4.84285">
        <ele>195</ele>
        <time>2022-07-15T10:19:34.000Z</time>
      </trkpt>
      <trkpt lat="49.78269" lon="4.84281">
        <ele>195</ele>
        <time>2022-07-15T10:19:35.000Z</time>
      </trkpt>
      <trkpt lat="49.78264" lon="4.84275">
        <ele>195</ele>
        <time>2022-07-15T10:19:36.000Z</time>
      </trkpt>
      <trkpt lat="49.7826" lon="4.84269">
        <ele>194</ele>
        <time>2022-07-15T10:19:37.000Z</time>
      </trkpt>
      <trkpt lat="49.78255" lon="4.84263">
        <ele>194</ele>
        <time>2022-07-15T10:19:38.000Z</time>
      </trkpt>
      <trkpt lat="49.78251" lon="4.84256">
        <ele>194</ele>
        <time>2022-07-15T10:19:39.000Z</time>
      </trkpt>
      <trkpt lat="49.78247" lon="4.84248">
        <ele>194</ele>
        <time>2022-07-15T10:19:40.000Z</time>
      </trkpt>
      <trkpt lat="49.78244" lon="4.8424">
        <ele>193</ele>
        <time>2022-07-15T10:19:41.000Z</time>
      </trkpt>
      <trkpt lat="49.78242" lon="4.84233">
        <ele>193</ele>
        <time>2022-07-15T10:19:42.000Z</time>
      </trkpt>
      <trkpt lat="49.7824" lon="4.84226">
        <ele>193</ele>
        <time>2022-07-15T10:19:43.000Z</time>
      </trkpt>
      <trkpt lat="49.78239" lon="4.84218">
        <ele>193</ele>
        <time>2022-07-15T10:19:44.000Z</time>
      </trkpt>
      <trkpt lat="49.78237" lon="4.84211">
        <ele>193</ele>
        <time>2022-07-15T10:19:45.000Z</time>
      </trkpt>
      <trkpt lat="49.78235" lon="4.84204">
        <ele>193</ele>
        <time>2022-07-15T10:19:46.000Z</time>
      </trkpt>
      <trkpt lat="49.78233" lon="4.84197">
        <ele>193</ele>
        <time>2022-07-15T10:19:47.000Z</time>
      </trkpt>
      <trkpt lat="49.78231" lon="4.84191">
        <ele>193</ele>
        <time>2022-07-15T10:19:48.000Z</time>
      </trkpt>
      <trkpt lat="49.7823" lon="4.84186">
        <ele>193</ele>
        <time>2022-07-15T10:19:49.000Z</time>
      </trkpt>
      <trkpt lat="49.78229" lon="4.8418">
        <ele>193</ele>
        <time>2022-07-15T10:19:50.000Z</time>
      </trkpt>
      <trkpt lat="49.78228" lon="4.84175">
        <ele>193</ele>
        <time>2022-07-15T10:19:51.000Z</time>
      </trkpt>
      <trkpt lat="49.78227" lon="4.8417">
        <ele>193</ele>
        <time>2022-07-15T10:19:52.000Z</time>
      </trkpt>
      <trkpt lat="49.78225" lon="4.84165">
        <ele>193</ele>
        <time>2022-07-15T10:19:53.000Z</time>
      </trkpt>
      <trkpt lat="49.78223" lon="4.8416">
        <ele>192</ele>
        <time>2022-07-15T10:19:54.000Z</time>
      </trkpt>
      <trkpt lat="49.7822" lon="4.84154">
        <ele>192</ele>
        <time>2022-07-15T10:19:55.000Z</time>
      </trkpt>
      <trkpt lat="49.78217" lon="4.84149">
        <ele>192</ele>
        <time>2022-07-15T10:19:56.000Z</time>
      </trkpt>
      <trkpt lat="49.78214" lon="4.84144">
        <ele>192</ele>
        <time>2022-07-15T10:19:57.000Z</time>
      </trkpt>
      <trkpt lat="49.7821" lon="4.8414">
        <ele>192</ele>
        <time>2022-07-15T10:19:58.000Z</time>
      </trkpt>
      <trkpt lat="49.78206" lon="4.84135">
        <ele>191</ele>
        <time>2022-07-15T10:19:59.000Z</time>
      </trkpt>
      <trkpt lat="49.78202" lon="4.84131">
        <ele>191</ele>
        <time>2022-07-15T10:20:00.000Z</time>
      </trkpt>
      <trkpt lat="49.78198" lon="4.84128">
        <ele>191</ele>
        <time>2022-07-15T10:20:01.000Z</time>
      </trkpt>
      <trkpt lat="49.78194" lon="4.84125">
        <ele>191</ele>
        <time>2022-07-15T10:20:02.000Z</time>
      </trkpt>
      <trkpt lat="49.7819" lon="4.84122">
        <ele>191</ele>
        <time>2022-07-15T10:20:03.000Z</time>
      </trkpt>
      <trkpt lat="49.78187" lon="4.8412">
        <ele>190</ele>
        <time>2022-07-15T10:20:04.000Z</time>
      </trkpt>
      <trkpt lat="49.78184" lon="4.84118">
        <ele>190</ele>
        <time>2022-07-15T10:20:05.000Z</time>
      </trkpt>
      <trkpt lat="49.78182" lon="4.84116">
        <ele>190</ele>
        <time>2022-07-15T10:20:06.000Z</time>
      </trkpt>
      <trkpt lat="49.7818" lon="4.84115">
        <ele>190</ele>
        <time>2022-07-15T10:20:07.000Z</time>
      </trkpt>
      <trkpt lat="49.7818" lon="4.84115">
        <ele>190</ele>
        <time>2022-07-15T10:20:08.000Z</time>
      </trkpt>
      <trkpt lat="49.7818" lon="4.84115">
        <ele>190</ele>
        <time>2022-07-15T10:20:09.000Z</time>
      </trkpt>
      <trkpt lat="49.78179" lon="4.84115">
        <ele>189</ele>
        <time>2022-07-15T10:20:10.000Z</time>
      </trkpt>
      <trkpt lat="49.7818" lon="4.84114">
        <ele>189</ele>
        <time>2022-07-15T10:20:11.000Z</time>
      </trkpt>
      <trkpt lat="49.78179" lon="4.84114">
        <ele>189</ele>
        <time>2022-07-15T10:20:12.000Z</time>
      </trkpt>
      <trkpt lat="49.7818" lon="4.84114">
        <ele>189</ele>
        <time>2022-07-15T10:20:13.000Z</time>
      </trkpt>
      <trkpt lat="49.78179" lon="4.84113">
        <ele>189</ele>
        <time>2022-07-15T10:20:14.000Z</time>
      </trkpt>
      <trkpt lat="49.78179" lon="4.84113">
        <ele>189</ele>
        <time>2022-07-15T10:20:15.000Z</time>
      </trkpt>
      <trkpt lat="49.78179" lon="4.84113">
        <ele>188</ele>
        <time>2022-07-15T10:20:16.000Z</time>
      </trkpt>
      <trkpt lat="49.78179" lon="4.84113">
        <ele>188</ele>
        <time>2022-07-15T10:20:17.000Z</time>
      </trkpt>
      <trkpt lat="49.78179" lon="4.84113">
        <ele>188</ele>
        <time>2022-07-15T10:20:18.000Z</time>
      </trkpt>
      <trkpt lat="49.78179" lon="4.84113">
        <ele>188</ele>
        <time>2022-07-15T10:20:19.000Z</time>
      </trkpt>
      <trkpt lat="49.78179" lon="4.84113">
        <ele>188</ele>
        <time>2022-07-15T10:20:20.000Z</time>
      </trkpt>
      <trkpt lat="49.78179" lon="4.84112">
        <ele>188</ele>
        <time>2022-07-15T10:20:21.000Z</time>
      </trkpt>
      <trkpt lat="49.78179" lon="4.84112">
        <ele>188</ele>
        <time>2022-07-15T10:20:22.000Z</time>
      </trkpt>
      <trkpt lat="49.78178" lon="4.84113">
        <ele>188</ele>
        <time>2022-07-15T10:20:23.000Z</time>
      </trkpt>
      <trkpt lat="49.78178" lon="4.84113">
        <ele>188</ele>
        <time>2022-07-15T10:20:24.000Z</time>
      </trkpt>
      <trkpt lat="49.78177" lon="4.84112">
        <ele>188</ele>
        <time>2022-07-15T10:20:25.000Z</time>
      </trkpt>
      <trkpt lat="49.78177" lon="4.84112">
        <ele>188</ele>
        <time>2022-07-15T10:20:26.000Z</time>
      </trkpt>
      <trkpt lat="49.78177" lon="4.84112">
        <ele>188</ele>
        <time>2022-07-15T10:20:27.000Z</time>
      </trkpt>
      <trkpt lat="49.78176" lon="4.84112">
        <ele>188</ele>
        <time>2022-07-15T10:20:28.000Z</time>
      </trkpt>
      <trkpt lat="49.78175" lon="4.84111">
        <ele>188</ele>
        <time>2022-07-15T10:20:29.000Z</time>
      </trkpt>
      <trkpt lat="49.78174" lon="4.84111">
        <ele>187</ele>
        <time>2022-07-15T10:20:30.000Z</time>
      </trkpt>
      <trkpt lat="49.78174" lon="4.84111">
        <ele>187</ele>
        <time>2022-07-15T10:20:31.000Z</time>
      </trkpt>
      <trkpt lat="49.78174" lon="4.84111">
        <ele>187</ele>
        <time>2022-07-15T10:20:32.000Z</time>
      </trkpt>
      <trkpt lat="49.78174" lon="4.8411">
        <ele>187</ele>
        <time>2022-07-15T10:20:33.000Z</time>
      </trkpt>
      <trkpt lat="49.78174" lon="4.8411">
        <ele>187</ele>
        <time>2022-07-15T10:20:34.000Z</time>
      </trkpt>
      <trkpt lat="49.78174" lon="4.8411">
        <ele>187</ele>
        <time>2022-07-15T10:20:35.000Z</time>
      </trkpt>
      <trkpt lat="49.78174" lon="4.8411">
        <ele>187</ele>
        <time>2022-07-15T10:20:36.000Z</time>
      </trkpt>
      <trkpt lat="49.78173" lon="4.8411">
        <ele>187</ele>
        <time>2022-07-15T10:20:37.000Z</time>
      </trkpt>
      <trkpt lat="49.78173" lon="4.84109">
        <ele>187</ele>
        <time>2022-07-15T10:20:38.000Z</time>
      </trkpt>
      <trkpt lat="49.78172" lon="4.84109">
        <ele>187</ele>
        <time>2022-07-15T10:20:39.000Z</time>
      </trkpt>
      <trkpt lat="49.78171" lon="4.84108">
        <ele>187</ele>
        <time>2022-07-15T10:20:40.000Z</time>
      </trkpt>
      <trkpt lat="49.78169" lon="4.84107">
        <ele>187</ele>
        <time>2022-07-15T10:20:41.000Z</time>
      </trkpt>
      <trkpt lat="49.78168" lon="4.84106">
        <ele>188</ele>
        <time>2022-07-15T10:20:42.000Z</time>
      </trkpt>
      <trkpt lat="49.78166" lon="4.84105">
        <ele>188</ele>
        <time>2022-07-15T10:20:43.000Z</time>
      </trkpt>
      <trkpt lat="49.78163" lon="4.84104">
        <ele>188</ele>
        <time>2022-07-15T10:20:44.000Z</time>
      </trkpt>
      <trkpt lat="49.78161" lon="4.84103">
        <ele>188</ele>
        <time>2022-07-15T10:20:45.000Z</time>
      </trkpt>
      <trkpt lat="49.78159" lon="4.84101">
        <ele>188</ele>
        <time>2022-07-15T10:20:46.000Z</time>
      </trkpt>
      <trkpt lat="49.78156" lon="4.841">
        <ele>188</ele>
        <time>2022-07-15T10:20:47.000Z</time>
      </trkpt>
      <trkpt lat="49.78153" lon="4.84099">
        <ele>188</ele>
        <time>2022-07-15T10:20:48.000Z</time>
      </trkpt>
      <trkpt lat="49.78151" lon="4.84098">
        <ele>189</ele>
        <time>2022-07-15T10:20:49.000Z</time>
      </trkpt>
      <trkpt lat="49.78148" lon="4.84096">
        <ele>189</ele>
        <time>2022-07-15T10:20:50.000Z</time>
      </trkpt>
      <trkpt lat="49.78145" lon="4.84095">
        <ele>189</ele>
        <time>2022-07-15T10:20:51.000Z</time>
      </trkpt>
      <trkpt lat="49.78142" lon="4.84093">
        <ele>189</ele>
        <time>2022-07-15T10:20:52.000Z</time>
      </trkpt>
      <trkpt lat="49.7814" lon="4.84092">
        <ele>189</ele>
        <time>2022-07-15T10:20:53.000Z</time>
      </trkpt>
      <trkpt lat="49.78137" lon="4.8409">
        <ele>190</ele>
        <time>2022-07-15T10:20:54.000Z</time>
      </trkpt>
      <trkpt lat="49.78134" lon="4.84088">
        <ele>190</ele>
        <time>2022-07-15T10:20:55.000Z</time>
      </trkpt>
      <trkpt lat="49.78131" lon="4.84087">
        <ele>190</ele>
        <time>2022-07-15T10:20:56.000Z</time>
      </trkpt>
      <trkpt lat="49.78129" lon="4.84085">
        <ele>190</ele>
        <time>2022-07-15T10:20:57.000Z</time>
      </trkpt>
      <trkpt lat="49.78127" lon="4.84084">
        <ele>190</ele>
        <time>2022-07-15T10:20:58.000Z</time>
      </trkpt>
      <trkpt lat="49.78125" lon="4.84082">
        <ele>190</ele>
        <time>2022-07-15T10:20:59.000Z</time>
      </trkpt>
      <trkpt lat="49.78123" lon="4.84081">
        <ele>190</ele>
        <time>2022-07-15T10:21:00.000Z</time>
      </trkpt>
      <trkpt lat="49.7812" lon="4.8408">
        <ele>191</ele>
        <time>2022-07-15T10:21:01.000Z</time>
      </trkpt>
      <trkpt lat="49.78118" lon="4.84079">
        <ele>191</ele>
        <time>2022-07-15T10:21:02.000Z</time>
      </trkpt>
      <trkpt lat="49.78116" lon="4.84078">
        <ele>191</ele>
        <time>2022-07-15T10:21:03.000Z</time>
      </trkpt>
      <trkpt lat="49.78113" lon="4.84077">
        <ele>191</ele>
        <time>2022-07-15T10:21:04.000Z</time>
      </trkpt>
      <trkpt lat="49.7811" lon="4.84075">
        <ele>191</ele>
        <time>2022-07-15T10:21:05.000Z</time>
      </trkpt>
      <trkpt lat="49.78108" lon="4.84073">
        <ele>191</ele>
        <time>2022-07-15T10:21:06.000Z</time>
      </trkpt>
      <trkpt lat="49.78105" lon="4.84072">
        <ele>191</ele>
        <time>2022-07-15T10:21:07.000Z</time>
      </trkpt>
      <trkpt lat="49.78102" lon="4.8407">
        <ele>191</ele>
        <time>2022-07-15T10:21:08.000Z</time>
      </trkpt>
      <trkpt lat="49.78099" lon="4.84068">
        <ele>191</ele>
        <time>2022-07-15T10:21:09.000Z</time>
      </trkpt>
      <trkpt lat="49.78096" lon="4.84067">
        <ele>192</ele>
        <time>2022-07-15T10:21:10.000Z</time>
      </trkpt>
      <trkpt lat="49.78092" lon="4.84065">
        <ele>192</ele>
        <time>2022-07-15T10:21:11.000Z</time>
      </trkpt>
      <trkpt lat="49.78089" lon="4.84063">
        <ele>192</ele>
        <time>2022-07-15T10:21:12.000Z</time>
      </trkpt>
      <trkpt lat="49.78086" lon="4.84062">
        <ele>192</ele>
        <time>2022-07-15T10:21:13.000Z</time>
      </trkpt>
      <trkpt lat="49.78082" lon="4.84059">
        <ele>192</ele>
        <time>2022-07-15T10:21:14.000Z</time>
      </trkpt>
      <trkpt lat="49.78079" lon="4.84057">
        <ele>192</ele>
        <time>2022-07-15T10:21:15.000Z</time>
      </trkpt>
      <trkpt lat="49.78075" lon="4.84055">
        <ele>192</ele>
        <time>2022-07-15T10:21:16.000Z</time>
      </trkpt>
      <trkpt lat="49.78071" lon="4.84054">
        <ele>192</ele>
        <time>2022-07-15T10:21:17.000Z</time>
      </trkpt>
      <trkpt lat="49.78068" lon="4.84051">
        <ele>193</ele>
        <time>2022-07-15T10:21:18.000Z</time>
      </trkpt>
      <trkpt lat="49.78064" lon="4.84049">
        <ele>193</ele>
        <time>2022-07-15T10:21:19.000Z</time>
      </trkpt>
      <trkpt lat="49.78061" lon="4.84047">
        <ele>193</ele>
        <time>2022-07-15T10:21:20.000Z</time>
      </trkpt>
      <trkpt lat="49.78057" lon="4.84045">
        <ele>193</ele>
        <time>2022-07-15T10:21:21.000Z</time>
      </trkpt>
      <trkpt lat="49.78054" lon="4.84043">
        <ele>193</ele>
        <time>2022-07-15T10:21:22.000Z</time>
      </trkpt>
      <trkpt lat="49.78051" lon="4.84041">
        <ele>193</ele>
        <time>2022-07-15T10:21:23.000Z</time>
      </trkpt>
      <trkpt lat="49.78048" lon="4.84038">
        <ele>193</ele>
        <time>2022-07-15T10:21:24.000Z</time>
      </trkpt>
      <trkpt lat="49.78045" lon="4.84036">
        <ele>193</ele>
        <time>2022-07-15T10:21:25.000Z</time>
      </trkpt>
      <trkpt lat="49.78041" lon="4.84034">
        <ele>193</ele>
        <time>2022-07-15T10:21:26.000Z</time>
      </trkpt>
      <trkpt lat="49.78038" lon="4.84032">
        <ele>193</ele>
        <time>2022-07-15T10:21:27.000Z</time>
      </trkpt>
      <trkpt lat="49.78036" lon="4.8403">
        <ele>194</ele>
        <time>2022-07-15T10:21:28.000Z</time>
      </trkpt>
      <trkpt lat="49.78033" lon="4.84027">
        <ele>194</ele>
        <time>2022-07-15T10:21:29.000Z</time>
      </trkpt>
      <trkpt lat="49.7803" lon="4.84025">
        <ele>194</ele>
        <time>2022-07-15T10:21:30.000Z</time>
      </trkpt>
      <trkpt lat="49.78026" lon="4.84022">
        <ele>194</ele>
        <time>2022-07-15T10:21:31.000Z</time>
      </trkpt>
      <trkpt lat="49.78023" lon="4.8402">
        <ele>194</ele>
        <time>2022-07-15T10:21:32.000Z</time>
      </trkpt>
      <trkpt lat="49.7802" lon="4.84016">
        <ele>194</ele>
        <time>2022-07-15T10:21:33.000Z</time>
      </trkpt>
      <trkpt lat="49.78016" lon="4.84014">
        <ele>194</ele>
        <time>2022-07-15T10:21:34.000Z</time>
      </trkpt>
      <trkpt lat="49.78013" lon="4.84011">
        <ele>195</ele>
        <time>2022-07-15T10:21:35.000Z</time>
      </trkpt>
      <trkpt lat="49.7801" lon="4.84007">
        <ele>195</ele>
        <time>2022-07-15T10:21:36.000Z</time>
      </trkpt>
      <trkpt lat="49.78006" lon="4.84004">
        <ele>195</ele>
        <time>2022-07-15T10:21:37.000Z</time>
      </trkpt>
      <trkpt lat="49.78003" lon="4.84001">
        <ele>195</ele>
        <time>2022-07-15T10:21:38.000Z</time>
      </trkpt>
      <trkpt lat="49.78" lon="4.83998">
        <ele>195</ele>
        <time>2022-07-15T10:21:39.000Z</time>
      </trkpt>
      <trkpt lat="49.77997" lon="4.83994">
        <ele>195</ele>
        <time>2022-07-15T10:21:40.000Z</time>
      </trkpt>
      <trkpt lat="49.77994" lon="4.83991">
        <ele>195</ele>
        <time>2022-07-15T10:21:41.000Z</time>
      </trkpt>
      <trkpt lat="49.77991" lon="4.83987">
        <ele>195</ele>
        <time>2022-07-15T10:21:42.000Z</time>
      </trkpt>
      <trkpt lat="49.77988" lon="4.83983">
        <ele>195</ele>
        <time>2022-07-15T10:21:43.000Z</time>
      </trkpt>
      <trkpt lat="49.77985" lon="4.83979">
        <ele>195</ele>
        <time>2022-07-15T10:21:44.000Z</time>
      </trkpt>
      <trkpt lat="49.77982" lon="4.83975">
        <ele>196</ele>
        <time>2022-07-15T10:21:45.000Z</time>
      </trkpt>
      <trkpt lat="49.77978" lon="4.83971">
        <ele>196</ele>
        <time>2022-07-15T10:21:46.000Z</time>
      </trkpt>
      <trkpt lat="49.77975" lon="4.83966">
        <ele>196</ele>
        <time>2022-07-15T10:21:47.000Z</time>
      </trkpt>
      <trkpt lat="49.77972" lon="4.83962">
        <ele>196</ele>
        <time>2022-07-15T10:21:48.000Z</time>
      </trkpt>
      <trkpt lat="49.77969" lon="4.83958">
        <ele>196</ele>
        <time>2022-07-15T10:21:49.000Z</time>
      </trkpt>
      <trkpt lat="49.77966" lon="4.83954">
        <ele>196</ele>
        <time>2022-07-15T10:21:50.000Z</time>
      </trkpt>
      <trkpt lat="49.77963" lon="4.8395">
        <ele>196</ele>
        <time>2022-07-15T10:21:51.000Z</time>
      </trkpt>
      <trkpt lat="49.7796" lon="4.83946">
        <ele>196</ele>
        <time>2022-07-15T10:21:52.000Z</time>
      </trkpt>
      <trkpt lat="49.77957" lon="4.83942">
        <ele>196</ele>
        <time>2022-07-15T10:21:53.000Z</time>
      </trkpt>
      <trkpt lat="49.77954" lon="4.83938">
        <ele>196</ele>
        <time>2022-07-15T10:21:54.000Z</time>
      </trkpt>
      <trkpt lat="49.77951" lon="4.83934">
        <ele>196</ele>
        <time>2022-07-15T10:21:55.000Z</time>
      </trkpt>
      <trkpt lat="49.77948" lon="4.8393">
        <ele>196</ele>
        <time>2022-07-15T10:21:56.000Z</time>
      </trkpt>
      <trkpt lat="49.77945" lon="4.83926">
        <ele>196</ele>
        <time>2022-07-15T10:21:57.000Z</time>
      </trkpt>
      <trkpt lat="49.77943" lon="4.83922">
        <ele>196</ele>
        <time>2022-07-15T10:21:58.000Z</time>
      </trkpt>
      <trkpt lat="49.7794" lon="4.83918">
        <ele>196</ele>
        <time>2022-07-15T10:21:59.000Z</time>
      </trkpt>
      <trkpt lat="49.77936" lon="4.83915">
        <ele>196</ele>
        <time>2022-07-15T10:22:00.000Z</time>
      </trkpt>
      <trkpt lat="49.77933" lon="4.83911">
        <ele>196</ele>
        <time>2022-07-15T10:22:01.000Z</time>
      </trkpt>
      <trkpt lat="49.7793" lon="4.83907">
        <ele>196</ele>
        <time>2022-07-15T10:22:02.000Z</time>
      </trkpt>
      <trkpt lat="49.77927" lon="4.83904">
        <ele>196</ele>
        <time>2022-07-15T10:22:03.000Z</time>
      </trkpt>
      <trkpt lat="49.77924" lon="4.839">
        <ele>196</ele>
        <time>2022-07-15T10:22:04.000Z</time>
      </trkpt>
      <trkpt lat="49.77921" lon="4.83896">
        <ele>196</ele>
        <time>2022-07-15T10:22:05.000Z</time>
      </trkpt>
      <trkpt lat="49.77919" lon="4.83892">
        <ele>196</ele>
        <time>2022-07-15T10:22:06.000Z</time>
      </trkpt>
      <trkpt lat="49.77916" lon="4.83889">
        <ele>196</ele>
        <time>2022-07-15T10:22:07.000Z</time>
      </trkpt>
      <trkpt lat="49.77913" lon="4.83885">
        <ele>196</ele>
        <time>2022-07-15T10:22:08.000Z</time>
      </trkpt>
      <trkpt lat="49.7791" lon="4.83881">
        <ele>196</ele>
        <time>2022-07-15T10:22:09.000Z</time>
      </trkpt>
      <trkpt lat="49.77907" lon="4.83877">
        <ele>196</ele>
        <time>2022-07-15T10:22:10.000Z</time>
      </trkpt>
      <trkpt lat="49.77905" lon="4.83873">
        <ele>196</ele>
        <time>2022-07-15T10:22:11.000Z</time>
      </trkpt>
      <trkpt lat="49.77902" lon="4.8387">
        <ele>196</ele>
        <time>2022-07-15T10:22:12.000Z</time>
      </trkpt>
      <trkpt lat="49.779" lon="4.83866">
        <ele>196</ele>
        <time>2022-07-15T10:22:13.000Z</time>
      </trkpt>
      <trkpt lat="49.77897" lon="4.83863">
        <ele>196</ele>
        <time>2022-07-15T10:22:14.000Z</time>
      </trkpt>
      <trkpt lat="49.77894" lon="4.83859">
        <ele>196</ele>
        <time>2022-07-15T10:22:15.000Z</time>
      </trkpt>
      <trkpt lat="49.77892" lon="4.83856">
        <ele>196</ele>
        <time>2022-07-15T10:22:16.000Z</time>
      </trkpt>
      <trkpt lat="49.77889" lon="4.83852">
        <ele>196</ele>
        <time>2022-07-15T10:22:17.000Z</time>
      </trkpt>
      <trkpt lat="49.77887" lon="4.83849">
        <ele>196</ele>
        <time>2022-07-15T10:22:18.000Z</time>
      </trkpt>
      <trkpt lat="49.77884" lon="4.83846">
        <ele>196</ele>
        <time>2022-07-15T10:22:19.000Z</time>
      </trkpt>
      <trkpt lat="49.77882" lon="4.83843">
        <ele>196</ele>
        <time>2022-07-15T10:22:20.000Z</time>
      </trkpt>
      <trkpt lat="49.77879" lon="4.8384">
        <ele>196</ele>
        <time>2022-07-15T10:22:21.000Z</time>
      </trkpt>
      <trkpt lat="49.77876" lon="4.83836">
        <ele>197</ele>
        <time>2022-07-15T10:22:22.000Z</time>
      </trkpt>
      <trkpt lat="49.77874" lon="4.83833">
        <ele>197</ele>
        <time>2022-07-15T10:22:23.000Z</time>
      </trkpt>
      <trkpt lat="49.77872" lon="4.83829">
        <ele>197</ele>
        <time>2022-07-15T10:22:24.000Z</time>
      </trkpt>
      <trkpt lat="49.77869" lon="4.83826">
        <ele>197</ele>
        <time>2022-07-15T10:22:25.000Z</time>
      </trkpt>
      <trkpt lat="49.77867" lon="4.83823">
        <ele>197</ele>
        <time>2022-07-15T10:22:26.000Z</time>
      </trkpt>
      <trkpt lat="49.77865" lon="4.83822">
        <ele>197</ele>
        <time>2022-07-15T10:22:27.000Z</time>
      </trkpt>
      <trkpt lat="49.77862" lon="4.83823">
        <ele>197</ele>
        <time>2022-07-15T10:22:28.000Z</time>
      </trkpt>
      <trkpt lat="49.7786" lon="4.83825">
        <ele>197</ele>
        <time>2022-07-15T10:22:29.000Z</time>
      </trkpt>
      <trkpt lat="49.77858" lon="4.83826">
        <ele>197</ele>
        <time>2022-07-15T10:22:30.000Z</time>
      </trkpt>
      <trkpt lat="49.77856" lon="4.83826">
        <ele>197</ele>
        <time>2022-07-15T10:22:31.000Z</time>
      </trkpt>
      <trkpt lat="49.77854" lon="4.83826">
        <ele>197</ele>
        <time>2022-07-15T10:22:32.000Z</time>
      </trkpt>
      <trkpt lat="49.77852" lon="4.83826">
        <ele>197</ele>
        <time>2022-07-15T10:22:33.000Z</time>
      </trkpt>
      <trkpt lat="49.77851" lon="4.83826">
        <ele>197</ele>
        <time>2022-07-15T10:22:34.000Z</time>
      </trkpt>
      <trkpt lat="49.77849" lon="4.83826">
        <ele>197</ele>
        <time>2022-07-15T10:22:35.000Z</time>
      </trkpt>
      <trkpt lat="49.77847" lon="4.83826">
        <ele>197</ele>
        <time>2022-07-15T10:22:36.000Z</time>
      </trkpt>
      <trkpt lat="49.77845" lon="4.83826">
        <ele>197</ele>
        <time>2022-07-15T10:22:37.000Z</time>
      </trkpt>
      <trkpt lat="49.77843" lon="4.83826">
        <ele>197</ele>
        <time>2022-07-15T10:22:38.000Z</time>
      </trkpt>
      <trkpt lat="49.77841" lon="4.83826">
        <ele>197</ele>
        <time>2022-07-15T10:22:39.000Z</time>
      </trkpt>
      <trkpt lat="49.77839" lon="4.83826">
        <ele>197</ele>
        <time>2022-07-15T10:22:40.000Z</time>
      </trkpt>
      <trkpt lat="49.77837" lon="4.83827">
        <ele>198</ele>
        <time>2022-07-15T10:22:41.000Z</time>
      </trkpt>
      <trkpt lat="49.77834" lon="4.83827">
        <ele>198</ele>
        <time>2022-07-15T10:22:42.000Z</time>
      </trkpt>
      <trkpt lat="49.77833" lon="4.83827">
        <ele>198</ele>
        <time>2022-07-15T10:22:43.000Z</time>
      </trkpt>
      <trkpt lat="49.77831" lon="4.83826">
        <ele>198</ele>
        <time>2022-07-15T10:22:44.000Z</time>
      </trkpt>
      <trkpt lat="49.7783" lon="4.83826">
        <ele>199</ele>
        <time>2022-07-15T10:22:45.000Z</time>
      </trkpt>
      <trkpt lat="49.77828" lon="4.83825">
        <ele>199</ele>
        <time>2022-07-15T10:22:46.000Z</time>
      </trkpt>
      <trkpt lat="49.77826" lon="4.83825">
        <ele>200</ele>
        <time>2022-07-15T10:22:47.000Z</time>
      </trkpt>
      <trkpt lat="49.77825" lon="4.83824">
        <ele>200</ele>
        <time>2022-07-15T10:22:48.000Z</time>
      </trkpt>
      <trkpt lat="49.77824" lon="4.83823">
        <ele>200</ele>
        <time>2022-07-15T10:22:49.000Z</time>
      </trkpt>
      <trkpt lat="49.77823" lon="4.83823">
        <ele>201</ele>
        <time>2022-07-15T10:22:50.000Z</time>
      </trkpt>
      <trkpt lat="49.77821" lon="4.83822">
        <ele>201</ele>
        <time>2022-07-15T10:22:51.000Z</time>
      </trkpt>
      <trkpt lat="49.7782" lon="4.83822">
        <ele>201</ele>
        <time>2022-07-15T10:22:52.000Z</time>
      </trkpt>
      <trkpt lat="49.77817" lon="4.83822">
        <ele>201</ele>
        <time>2022-07-15T10:22:53.000Z</time>
      </trkpt>
      <trkpt lat="49.77815" lon="4.83821">
        <ele>201</ele>
        <time>2022-07-15T10:22:54.000Z</time>
      </trkpt>
      <trkpt lat="49.77813" lon="4.8382">
        <ele>202</ele>
        <time>2022-07-15T10:22:55.000Z</time>
      </trkpt>
      <trkpt lat="49.77811" lon="4.8382">
        <ele>202</ele>
        <time>2022-07-15T10:22:56.000Z</time>
      </trkpt>
      <trkpt lat="49.7781" lon="4.83819">
        <ele>202</ele>
        <time>2022-07-15T10:22:57.000Z</time>
      </trkpt>
      <trkpt lat="49.77808" lon="4.83818">
        <ele>202</ele>
        <time>2022-07-15T10:22:58.000Z</time>
      </trkpt>
      <trkpt lat="49.77805" lon="4.83818">
        <ele>202</ele>
        <time>2022-07-15T10:22:59.000Z</time>
      </trkpt>
      <trkpt lat="49.77802" lon="4.83818">
        <ele>202</ele>
        <time>2022-07-15T10:23:00.000Z</time>
      </trkpt>
      <trkpt lat="49.778" lon="4.83817">
        <ele>203</ele>
        <time>2022-07-15T10:23:01.000Z</time>
      </trkpt>
      <trkpt lat="49.77797" lon="4.83817">
        <ele>203</ele>
        <time>2022-07-15T10:23:02.000Z</time>
      </trkpt>
      <trkpt lat="49.77796" lon="4.83816">
        <ele>203</ele>
        <time>2022-07-15T10:23:03.000Z</time>
      </trkpt>
      <trkpt lat="49.77794" lon="4.83816">
        <ele>203</ele>
        <time>2022-07-15T10:23:04.000Z</time>
      </trkpt>
      <trkpt lat="49.77792" lon="4.83815">
        <ele>203</ele>
        <time>2022-07-15T10:23:05.000Z</time>
      </trkpt>
      <trkpt lat="49.7779" lon="4.83814">
        <ele>204</ele>
        <time>2022-07-15T10:23:06.000Z</time>
      </trkpt>
      <trkpt lat="49.77788" lon="4.83813">
        <ele>204</ele>
        <time>2022-07-15T10:23:07.000Z</time>
      </trkpt>
      <trkpt lat="49.77785" lon="4.83812">
        <ele>204</ele>
        <time>2022-07-15T10:23:08.000Z</time>
      </trkpt>
      <trkpt lat="49.77783" lon="4.83811">
        <ele>204</ele>
        <time>2022-07-15T10:23:09.000Z</time>
      </trkpt>
      <trkpt lat="49.77781" lon="4.83811">
        <ele>204</ele>
        <time>2022-07-15T10:23:10.000Z</time>
      </trkpt>
      <trkpt lat="49.77779" lon="4.8381">
        <ele>205</ele>
        <time>2022-07-15T10:23:11.000Z</time>
      </trkpt>
      <trkpt lat="49.77776" lon="4.8381">
        <ele>205</ele>
        <time>2022-07-15T10:23:12.000Z</time>
      </trkpt>
      <trkpt lat="49.77774" lon="4.8381">
        <ele>205</ele>
        <time>2022-07-15T10:23:13.000Z</time>
      </trkpt>
      <trkpt lat="49.77772" lon="4.83809">
        <ele>205</ele>
        <time>2022-07-15T10:23:14.000Z</time>
      </trkpt>
      <trkpt lat="49.7777" lon="4.83809">
        <ele>205</ele>
        <time>2022-07-15T10:23:15.000Z</time>
      </trkpt>
      <trkpt lat="49.77768" lon="4.83808">
        <ele>206</ele>
        <time>2022-07-15T10:23:16.000Z</time>
      </trkpt>
      <trkpt lat="49.77766" lon="4.83807">
        <ele>206</ele>
        <time>2022-07-15T10:23:17.000Z</time>
      </trkpt>
      <trkpt lat="49.77764" lon="4.83807">
        <ele>206</ele>
        <time>2022-07-15T10:23:18.000Z</time>
      </trkpt>
      <trkpt lat="49.77762" lon="4.83806">
        <ele>207</ele>
        <time>2022-07-15T10:23:19.000Z</time>
      </trkpt>
      <trkpt lat="49.7776" lon="4.83806">
        <ele>207</ele>
        <time>2022-07-15T10:23:20.000Z</time>
      </trkpt>
      <trkpt lat="49.77758" lon="4.83805">
        <ele>207</ele>
        <time>2022-07-15T10:23:21.000Z</time>
      </trkpt>
      <trkpt lat="49.77756" lon="4.83804">
        <ele>208</ele>
        <time>2022-07-15T10:23:22.000Z</time>
      </trkpt>
      <trkpt lat="49.77754" lon="4.83804">
        <ele>208</ele>
        <time>2022-07-15T10:23:23.000Z</time>
      </trkpt>
      <trkpt lat="49.77752" lon="4.83803">
        <ele>208</ele>
        <time>2022-07-15T10:23:24.000Z</time>
      </trkpt>
      <trkpt lat="49.77751" lon="4.83803">
        <ele>208</ele>
        <time>2022-07-15T10:23:25.000Z</time>
      </trkpt>
      <trkpt lat="49.77749" lon="4.83802">
        <ele>209</ele>
        <time>2022-07-15T10:23:26.000Z</time>
      </trkpt>
      <trkpt lat="49.77748" lon="4.83801">
        <ele>209</ele>
        <time>2022-07-15T10:23:27.000Z</time>
      </trkpt>
      <trkpt lat="49.77746" lon="4.83801">
        <ele>209</ele>
        <time>2022-07-15T10:23:28.000Z</time>
      </trkpt>
      <trkpt lat="49.77744" lon="4.838">
        <ele>209</ele>
        <time>2022-07-15T10:23:29.000Z</time>
      </trkpt>
      <trkpt lat="49.77742" lon="4.838">
        <ele>210</ele>
        <time>2022-07-15T10:23:30.000Z</time>
      </trkpt>
      <trkpt lat="49.7774" lon="4.83799">
        <ele>210</ele>
        <time>2022-07-15T10:23:31.000Z</time>
      </trkpt>
      <trkpt lat="49.77738" lon="4.83798">
        <ele>210</ele>
        <time>2022-07-15T10:23:32.000Z</time>
      </trkpt>
      <trkpt lat="49.77737" lon="4.83798">
        <ele>211</ele>
        <time>2022-07-15T10:23:33.000Z</time>
      </trkpt>
      <trkpt lat="49.77735" lon="4.83798">
        <ele>211</ele>
        <time>2022-07-15T10:23:34.000Z</time>
      </trkpt>
      <trkpt lat="49.77733" lon="4.83798">
        <ele>212</ele>
        <time>2022-07-15T10:23:35.000Z</time>
      </trkpt>
      <trkpt lat="49.77732" lon="4.83797">
        <ele>212</ele>
        <time>2022-07-15T10:23:36.000Z</time>
      </trkpt>
      <trkpt lat="49.7773" lon="4.83796">
        <ele>212</ele>
        <time>2022-07-15T10:23:37.000Z</time>
      </trkpt>
      <trkpt lat="49.77729" lon="4.83795">
        <ele>213</ele>
        <time>2022-07-15T10:23:38.000Z</time>
      </trkpt>
      <trkpt lat="49.77728" lon="4.83795">
        <ele>213</ele>
        <time>2022-07-15T10:23:39.000Z</time>
      </trkpt>
      <trkpt lat="49.77726" lon="4.83794">
        <ele>213</ele>
        <time>2022-07-15T10:23:40.000Z</time>
      </trkpt>
      <trkpt lat="49.77725" lon="4.83794">
        <ele>213</ele>
        <time>2022-07-15T10:23:41.000Z</time>
      </trkpt>
      <trkpt lat="49.77724" lon="4.83793">
        <ele>214</ele>
        <time>2022-07-15T10:23:42.000Z</time>
      </trkpt>
      <trkpt lat="49.77722" lon="4.83793">
        <ele>214</ele>
        <time>2022-07-15T10:23:43.000Z</time>
      </trkpt>
      <trkpt lat="49.77721" lon="4.83792">
        <ele>214</ele>
        <time>2022-07-15T10:23:44.000Z</time>
      </trkpt>
      <trkpt lat="49.77719" lon="4.83791">
        <ele>215</ele>
        <time>2022-07-15T10:23:45.000Z</time>
      </trkpt>
      <trkpt lat="49.77717" lon="4.8379">
        <ele>215</ele>
        <time>2022-07-15T10:23:46.000Z</time>
      </trkpt>
      <trkpt lat="49.77715" lon="4.83788">
        <ele>215</ele>
        <time>2022-07-15T10:23:47.000Z</time>
      </trkpt>
      <trkpt lat="49.77714" lon="4.83786">
        <ele>216</ele>
        <time>2022-07-15T10:23:48.000Z</time>
      </trkpt>
      <trkpt lat="49.77713" lon="4.83783">
        <ele>216</ele>
        <time>2022-07-15T10:23:49.000Z</time>
      </trkpt>
      <trkpt lat="49.77712" lon="4.8378">
        <ele>216</ele>
        <time>2022-07-15T10:23:50.000Z</time>
      </trkpt>
      <trkpt lat="49.7771" lon="4.83776">
        <ele>217</ele>
        <time>2022-07-15T10:23:51.000Z</time>
      </trkpt>
      <trkpt lat="49.77709" lon="4.83771">
        <ele>217</ele>
        <time>2022-07-15T10:23:52.000Z</time>
      </trkpt>
      <trkpt lat="49.77707" lon="4.83767">
        <ele>218</ele>
        <time>2022-07-15T10:23:53.000Z</time>
      </trkpt>
      <trkpt lat="49.77705" lon="4.83762">
        <ele>218</ele>
        <time>2022-07-15T10:23:54.000Z</time>
      </trkpt>
      <trkpt lat="49.77703" lon="4.83758">
        <ele>218</ele>
        <time>2022-07-15T10:23:55.000Z</time>
      </trkpt>
      <trkpt lat="49.77701" lon="4.83754">
        <ele>219</ele>
        <time>2022-07-15T10:23:56.000Z</time>
      </trkpt>
      <trkpt lat="49.77699" lon="4.8375">
        <ele>219</ele>
        <time>2022-07-15T10:23:57.000Z</time>
      </trkpt>
      <trkpt lat="49.77698" lon="4.83745">
        <ele>220</ele>
        <time>2022-07-15T10:23:58.000Z</time>
      </trkpt>
      <trkpt lat="49.77697" lon="4.83741">
        <ele>220</ele>
        <time>2022-07-15T10:23:59.000Z</time>
      </trkpt>
      <trkpt lat="49.77696" lon="4.83737">
        <ele>220</ele>
        <time>2022-07-15T10:24:00.000Z</time>
      </trkpt>
      <trkpt lat="49.77695" lon="4.83734">
        <ele>221</ele>
        <time>2022-07-15T10:24:01.000Z</time>
      </trkpt>
      <trkpt lat="49.77693" lon="4.8373">
        <ele>221</ele>
        <time>2022-07-15T10:24:02.000Z</time>
      </trkpt>
      <trkpt lat="49.77692" lon="4.83727">
        <ele>221</ele>
        <time>2022-07-15T10:24:03.000Z</time>
      </trkpt>
      <trkpt lat="49.77691" lon="4.83724">
        <ele>222</ele>
        <time>2022-07-15T10:24:04.000Z</time>
      </trkpt>
      <trkpt lat="49.7769" lon="4.83721">
        <ele>222</ele>
        <time>2022-07-15T10:24:05.000Z</time>
      </trkpt>
      <trkpt lat="49.77688" lon="4.83717">
        <ele>222</ele>
        <time>2022-07-15T10:24:06.000Z</time>
      </trkpt>
      <trkpt lat="49.77688" lon="4.83713">
        <ele>223</ele>
        <time>2022-07-15T10:24:07.000Z</time>
      </trkpt>
      <trkpt lat="49.77687" lon="4.83709">
        <ele>223</ele>
        <time>2022-07-15T10:24:08.000Z</time>
      </trkpt>
      <trkpt lat="49.77686" lon="4.83704">
        <ele>223</ele>
        <time>2022-07-15T10:24:09.000Z</time>
      </trkpt>
      <trkpt lat="49.77686" lon="4.837">
        <ele>224</ele>
        <time>2022-07-15T10:24:10.000Z</time>
      </trkpt>
      <trkpt lat="49.77685" lon="4.83695">
        <ele>224</ele>
        <time>2022-07-15T10:24:11.000Z</time>
      </trkpt>
      <trkpt lat="49.77684" lon="4.83691">
        <ele>224</ele>
        <time>2022-07-15T10:24:12.000Z</time>
      </trkpt>
      <trkpt lat="49.77683" lon="4.83685">
        <ele>224</ele>
        <time>2022-07-15T10:24:13.000Z</time>
      </trkpt>
      <trkpt lat="49.77682" lon="4.83681">
        <ele>224</ele>
        <time>2022-07-15T10:24:14.000Z</time>
      </trkpt>
      <trkpt lat="49.77681" lon="4.83676">
        <ele>224</ele>
        <time>2022-07-15T10:24:15.000Z</time>
      </trkpt>
      <trkpt lat="49.7768" lon="4.83671">
        <ele>225</ele>
        <time>2022-07-15T10:24:16.000Z</time>
      </trkpt>
      <trkpt lat="49.77679" lon="4.83667">
        <ele>225</ele>
        <time>2022-07-15T10:24:17.000Z</time>
      </trkpt>
      <trkpt lat="49.77679" lon="4.83662">
        <ele>225</ele>
        <time>2022-07-15T10:24:18.000Z</time>
      </trkpt>
      <trkpt lat="49.77678" lon="4.83658">
        <ele>225</ele>
        <time>2022-07-15T10:24:19.000Z</time>
      </trkpt>
      <trkpt lat="49.77677" lon="4.83654">
        <ele>225</ele>
        <time>2022-07-15T10:24:20.000Z</time>
      </trkpt>
      <trkpt lat="49.77677" lon="4.8365">
        <ele>225</ele>
        <time>2022-07-15T10:24:21.000Z</time>
      </trkpt>
      <trkpt lat="49.77676" lon="4.83647">
        <ele>225</ele>
        <time>2022-07-15T10:24:22.000Z</time>
      </trkpt>
      <trkpt lat="49.77675" lon="4.83643">
        <ele>225</ele>
        <time>2022-07-15T10:24:23.000Z</time>
      </trkpt>
      <trkpt lat="49.77674" lon="4.83638">
        <ele>226</ele>
        <time>2022-07-15T10:24:24.000Z</time>
      </trkpt>
      <trkpt lat="49.77673" lon="4.83634">
        <ele>226</ele>
        <time>2022-07-15T10:24:25.000Z</time>
      </trkpt>
      <trkpt lat="49.77672" lon="4.83629">
        <ele>226</ele>
        <time>2022-07-15T10:24:26.000Z</time>
      </trkpt>
      <trkpt lat="49.7767" lon="4.83624">
        <ele>226</ele>
        <time>2022-07-15T10:24:27.000Z</time>
      </trkpt>
      <trkpt lat="49.77669" lon="4.8362">
        <ele>226</ele>
        <time>2022-07-15T10:24:28.000Z</time>
      </trkpt>
      <trkpt lat="49.77668" lon="4.83615">
        <ele>226</ele>
        <time>2022-07-15T10:24:29.000Z</time>
      </trkpt>
      <trkpt lat="49.77668" lon="4.83611">
        <ele>226</ele>
        <time>2022-07-15T10:24:30.000Z</time>
      </trkpt>
      <trkpt lat="49.77667" lon="4.83606">
        <ele>225</ele>
        <time>2022-07-15T10:24:31.000Z</time>
      </trkpt>
      <trkpt lat="49.77666" lon="4.83602">
        <ele>225</ele>
        <time>2022-07-15T10:24:32.000Z</time>
      </trkpt>
      <trkpt lat="49.77664" lon="4.83598">
        <ele>225</ele>
        <time>2022-07-15T10:24:33.000Z</time>
      </trkpt>
      <trkpt lat="49.77663" lon="4.83595">
        <ele>225</ele>
        <time>2022-07-15T10:24:34.000Z</time>
      </trkpt>
      <trkpt lat="49.77662" lon="4.83593">
        <ele>225</ele>
        <time>2022-07-15T10:24:35.000Z</time>
      </trkpt>
      <trkpt lat="49.7766" lon="4.83591">
        <ele>225</ele>
        <time>2022-07-15T10:24:36.000Z</time>
      </trkpt>
      <trkpt lat="49.77658" lon="4.83589">
        <ele>225</ele>
        <time>2022-07-15T10:24:37.000Z</time>
      </trkpt>
      <trkpt lat="49.77657" lon="4.83587">
        <ele>225</ele>
        <time>2022-07-15T10:24:38.000Z</time>
      </trkpt>
      <trkpt lat="49.77656" lon="4.83584">
        <ele>225</ele>
        <time>2022-07-15T10:24:39.000Z</time>
      </trkpt>
      <trkpt lat="49.77654" lon="4.8358">
        <ele>225</ele>
        <time>2022-07-15T10:24:40.000Z</time>
      </trkpt>
      <trkpt lat="49.77653" lon="4.83577">
        <ele>225</ele>
        <time>2022-07-15T10:24:41.000Z</time>
      </trkpt>
      <trkpt lat="49.77651" lon="4.83574">
        <ele>225</ele>
        <time>2022-07-15T10:24:42.000Z</time>
      </trkpt>
      <trkpt lat="49.7765" lon="4.83571">
        <ele>225</ele>
        <time>2022-07-15T10:24:43.000Z</time>
      </trkpt>
      <trkpt lat="49.77648" lon="4.83568">
        <ele>225</ele>
        <time>2022-07-15T10:24:44.000Z</time>
      </trkpt>
      <trkpt lat="49.77647" lon="4.83565">
        <ele>225</ele>
        <time>2022-07-15T10:24:45.000Z</time>
      </trkpt>
      <trkpt lat="49.77645" lon="4.83562">
        <ele>225</ele>
        <time>2022-07-15T10:24:46.000Z</time>
      </trkpt>
      <trkpt lat="49.77644" lon="4.83559">
        <ele>225</ele>
        <time>2022-07-15T10:24:47.000Z</time>
      </trkpt>
      <trkpt lat="49.77642" lon="4.83555">
        <ele>225</ele>
        <time>2022-07-15T10:24:48.000Z</time>
      </trkpt>
      <trkpt lat="49.77641" lon="4.83552">
        <ele>225</ele>
        <time>2022-07-15T10:24:49.000Z</time>
      </trkpt>
      <trkpt lat="49.77639" lon="4.83549">
        <ele>225</ele>
        <time>2022-07-15T10:24:50.000Z</time>
      </trkpt>
      <trkpt lat="49.77637" lon="4.83546">
        <ele>225</ele>
        <time>2022-07-15T10:24:51.000Z</time>
      </trkpt>
      <trkpt lat="49.77635" lon="4.83543">
        <ele>226</ele>
        <time>2022-07-15T10:24:52.000Z</time>
      </trkpt>
      <trkpt lat="49.77633" lon="4.8354">
        <ele>226</ele>
        <time>2022-07-15T10:24:53.000Z</time>
      </trkpt>
      <trkpt lat="49.77632" lon="4.83537">
        <ele>226</ele>
        <time>2022-07-15T10:24:54.000Z</time>
      </trkpt>
      <trkpt lat="49.7763" lon="4.83534">
        <ele>226</ele>
        <time>2022-07-15T10:24:55.000Z</time>
      </trkpt>
      <trkpt lat="49.77628" lon="4.83531">
        <ele>226</ele>
        <time>2022-07-15T10:24:56.000Z</time>
      </trkpt>
      <trkpt lat="49.77627" lon="4.83528">
        <ele>226</ele>
        <time>2022-07-15T10:24:57.000Z</time>
      </trkpt>
      <trkpt lat="49.77625" lon="4.83525">
        <ele>226</ele>
        <time>2022-07-15T10:24:58.000Z</time>
      </trkpt>
      <trkpt lat="49.77624" lon="4.83522">
        <ele>227</ele>
        <time>2022-07-15T10:24:59.000Z</time>
      </trkpt>
      <trkpt lat="49.77622" lon="4.83519">
        <ele>227</ele>
        <time>2022-07-15T10:25:00.000Z</time>
      </trkpt>
      <trkpt lat="49.77621" lon="4.83516">
        <ele>227</ele>
        <time>2022-07-15T10:25:01.000Z</time>
      </trkpt>
      <trkpt lat="49.77619" lon="4.83514">
        <ele>227</ele>
        <time>2022-07-15T10:25:02.000Z</time>
      </trkpt>
      <trkpt lat="49.77617" lon="4.83512">
        <ele>227</ele>
        <time>2022-07-15T10:25:03.000Z</time>
      </trkpt>
      <trkpt lat="49.77615" lon="4.8351">
        <ele>228</ele>
        <time>2022-07-15T10:25:04.000Z</time>
      </trkpt>
      <trkpt lat="49.77614" lon="4.83508">
        <ele>228</ele>
        <time>2022-07-15T10:25:05.000Z</time>
      </trkpt>
      <trkpt lat="49.77612" lon="4.83506">
        <ele>228</ele>
        <time>2022-07-15T10:25:06.000Z</time>
      </trkpt>
      <trkpt lat="49.7761" lon="4.83504">
        <ele>228</ele>
        <time>2022-07-15T10:25:07.000Z</time>
      </trkpt>
      <trkpt lat="49.77608" lon="4.83502">
        <ele>228</ele>
        <time>2022-07-15T10:25:08.000Z</time>
      </trkpt>
      <trkpt lat="49.77606" lon="4.83499">
        <ele>229</ele>
        <time>2022-07-15T10:25:09.000Z</time>
      </trkpt>
      <trkpt lat="49.77605" lon="4.83497">
        <ele>229</ele>
        <time>2022-07-15T10:25:10.000Z</time>
      </trkpt>
      <trkpt lat="49.77603" lon="4.83495">
        <ele>229</ele>
        <time>2022-07-15T10:25:11.000Z</time>
      </trkpt>
      <trkpt lat="49.77601" lon="4.83493">
        <ele>229</ele>
        <time>2022-07-15T10:25:12.000Z</time>
      </trkpt>
      <trkpt lat="49.77599" lon="4.83491">
        <ele>229</ele>
        <time>2022-07-15T10:25:13.000Z</time>
      </trkpt>
      <trkpt lat="49.77597" lon="4.83489">
        <ele>229</ele>
        <time>2022-07-15T10:25:14.000Z</time>
      </trkpt>
      <trkpt lat="49.77595" lon="4.83487">
        <ele>229</ele>
        <time>2022-07-15T10:25:15.000Z</time>
      </trkpt>
      <trkpt lat="49.77594" lon="4.83485">
        <ele>229</ele>
        <time>2022-07-15T10:25:16.000Z</time>
      </trkpt>
      <trkpt lat="49.77592" lon="4.83483">
        <ele>229</ele>
        <time>2022-07-15T10:25:17.000Z</time>
      </trkpt>
      <trkpt lat="49.7759" lon="4.83481">
        <ele>229</ele>
        <time>2022-07-15T10:25:18.000Z</time>
      </trkpt>
      <trkpt lat="49.77588" lon="4.8348">
        <ele>229</ele>
        <time>2022-07-15T10:25:19.000Z</time>
      </trkpt>
      <trkpt lat="49.77586" lon="4.83478">
        <ele>230</ele>
        <time>2022-07-15T10:25:20.000Z</time>
      </trkpt>
      <trkpt lat="49.77584" lon="4.83477">
        <ele>230</ele>
        <time>2022-07-15T10:25:21.000Z</time>
      </trkpt>
      <trkpt lat="49.77582" lon="4.83476">
        <ele>230</ele>
        <time>2022-07-15T10:25:22.000Z</time>
      </trkpt>
      <trkpt lat="49.7758" lon="4.83474">
        <ele>230</ele>
        <time>2022-07-15T10:25:23.000Z</time>
      </trkpt>
      <trkpt lat="49.77578" lon="4.83473">
        <ele>230</ele>
        <time>2022-07-15T10:25:24.000Z</time>
      </trkpt>
      <trkpt lat="49.77575" lon="4.83473">
        <ele>230</ele>
        <time>2022-07-15T10:25:25.000Z</time>
      </trkpt>
      <trkpt lat="49.77573" lon="4.83472">
        <ele>230</ele>
        <time>2022-07-15T10:25:26.000Z</time>
      </trkpt>
      <trkpt lat="49.77571" lon="4.83471">
        <ele>230</ele>
        <time>2022-07-15T10:25:27.000Z</time>
      </trkpt>
      <trkpt lat="49.77569" lon="4.83471">
        <ele>230</ele>
        <time>2022-07-15T10:25:28.000Z</time>
      </trkpt>
      <trkpt lat="49.77566" lon="4.8347">
        <ele>230</ele>
        <time>2022-07-15T10:25:29.000Z</time>
      </trkpt>
      <trkpt lat="49.77562" lon="4.8347">
        <ele>229</ele>
        <time>2022-07-15T10:25:30.000Z</time>
      </trkpt>
      <trkpt lat="49.77559" lon="4.8347">
        <ele>229</ele>
        <time>2022-07-15T10:25:31.000Z</time>
      </trkpt>
      <trkpt lat="49.77555" lon="4.83469">
        <ele>229</ele>
        <time>2022-07-15T10:25:32.000Z</time>
      </trkpt>
      <trkpt lat="49.77552" lon="4.83469">
        <ele>229</ele>
        <time>2022-07-15T10:25:33.000Z</time>
      </trkpt>
      <trkpt lat="49.77548" lon="4.83469">
        <ele>228</ele>
        <time>2022-07-15T10:25:34.000Z</time>
      </trkpt>
      <trkpt lat="49.77545" lon="4.83469">
        <ele>228</ele>
        <time>2022-07-15T10:25:35.000Z</time>
      </trkpt>
      <trkpt lat="49.77541" lon="4.83468">
        <ele>228</ele>
        <time>2022-07-15T10:25:36.000Z</time>
      </trkpt>
      <trkpt lat="49.77538" lon="4.83468">
        <ele>227</ele>
        <time>2022-07-15T10:25:37.000Z</time>
      </trkpt>
      <trkpt lat="49.77535" lon="4.83468">
        <ele>227</ele>
        <time>2022-07-15T10:25:38.000Z</time>
      </trkpt>
      <trkpt lat="49.77532" lon="4.83468">
        <ele>227</ele>
        <time>2022-07-15T10:25:39.000Z</time>
      </trkpt>
      <trkpt lat="49.77529" lon="4.83467">
        <ele>226</ele>
        <time>2022-07-15T10:25:40.000Z</time>
      </trkpt>
      <trkpt lat="49.77526" lon="4.83467">
        <ele>226</ele>
        <time>2022-07-15T10:25:41.000Z</time>
      </trkpt>
      <trkpt lat="49.77523" lon="4.83467">
        <ele>226</ele>
        <time>2022-07-15T10:25:42.000Z</time>
      </trkpt>
      <trkpt lat="49.77519" lon="4.83467">
        <ele>226</ele>
        <time>2022-07-15T10:25:43.000Z</time>
      </trkpt>
      <trkpt lat="49.77516" lon="4.83467">
        <ele>226</ele>
        <time>2022-07-15T10:25:44.000Z</time>
      </trkpt>
      <trkpt lat="49.77513" lon="4.83467">
        <ele>226</ele>
        <time>2022-07-15T10:25:45.000Z</time>
      </trkpt>
      <trkpt lat="49.77509" lon="4.83466">
        <ele>227</ele>
        <time>2022-07-15T10:25:46.000Z</time>
      </trkpt>
      <trkpt lat="49.77506" lon="4.83466">
        <ele>227</ele>
        <time>2022-07-15T10:25:47.000Z</time>
      </trkpt>
      <trkpt lat="49.77502" lon="4.83466">
        <ele>227</ele>
        <time>2022-07-15T10:25:48.000Z</time>
      </trkpt>
      <trkpt lat="49.77499" lon="4.83465">
        <ele>227</ele>
        <time>2022-07-15T10:25:49.000Z</time>
      </trkpt>
      <trkpt lat="49.77495" lon="4.83465">
        <ele>228</ele>
        <time>2022-07-15T10:25:50.000Z</time>
      </trkpt>
      <trkpt lat="49.77492" lon="4.83464">
        <ele>228</ele>
        <time>2022-07-15T10:25:51.000Z</time>
      </trkpt>
      <trkpt lat="49.77488" lon="4.83464">
        <ele>228</ele>
        <time>2022-07-15T10:25:52.000Z</time>
      </trkpt>
      <trkpt lat="49.77485" lon="4.83464">
        <ele>229</ele>
        <time>2022-07-15T10:25:53.000Z</time>
      </trkpt>
      <trkpt lat="49.77482" lon="4.83464">
        <ele>229</ele>
        <time>2022-07-15T10:25:54.000Z</time>
      </trkpt>
      <trkpt lat="49.77478" lon="4.83464">
        <ele>229</ele>
        <time>2022-07-15T10:25:55.000Z</time>
      </trkpt>
      <trkpt lat="49.77475" lon="4.83465">
        <ele>230</ele>
        <time>2022-07-15T10:25:56.000Z</time>
      </trkpt>
      <trkpt lat="49.77472" lon="4.83465">
        <ele>230</ele>
        <time>2022-07-15T10:25:57.000Z</time>
      </trkpt>
      <trkpt lat="49.77468" lon="4.83465">
        <ele>231</ele>
        <time>2022-07-15T10:25:58.000Z</time>
      </trkpt>
      <trkpt lat="49.77465" lon="4.83465">
        <ele>231</ele>
        <time>2022-07-15T10:25:59.000Z</time>
      </trkpt>
      <trkpt lat="49.77462" lon="4.83464">
        <ele>231</ele>
        <time>2022-07-15T10:26:00.000Z</time>
      </trkpt>
      <trkpt lat="49.77459" lon="4.83464">
        <ele>232</ele>
        <time>2022-07-15T10:26:01.000Z</time>
      </trkpt>
      <trkpt lat="49.77456" lon="4.83463">
        <ele>232</ele>
        <time>2022-07-15T10:26:02.000Z</time>
      </trkpt>
      <trkpt lat="49.77453" lon="4.83463">
        <ele>232</ele>
        <time>2022-07-15T10:26:03.000Z</time>
      </trkpt>
      <trkpt lat="49.7745" lon="4.83463">
        <ele>233</ele>
        <time>2022-07-15T10:26:04.000Z</time>
      </trkpt>
      <trkpt lat="49.77447" lon="4.83463">
        <ele>233</ele>
        <time>2022-07-15T10:26:05.000Z</time>
      </trkpt>
      <trkpt lat="49.77443" lon="4.83463">
        <ele>233</ele>
        <time>2022-07-15T10:26:06.000Z</time>
      </trkpt>
      <trkpt lat="49.7744" lon="4.83463">
        <ele>234</ele>
        <time>2022-07-15T10:26:07.000Z</time>
      </trkpt>
      <trkpt lat="49.77437" lon="4.83463">
        <ele>234</ele>
        <time>2022-07-15T10:26:08.000Z</time>
      </trkpt>
      <trkpt lat="49.77434" lon="4.83463">
        <ele>234</ele>
        <time>2022-07-15T10:26:09.000Z</time>
      </trkpt>
      <trkpt lat="49.77431" lon="4.83463">
        <ele>235</ele>
        <time>2022-07-15T10:26:10.000Z</time>
      </trkpt>
      <trkpt lat="49.77428" lon="4.83463">
        <ele>235</ele>
        <time>2022-07-15T10:26:11.000Z</time>
      </trkpt>
      <trkpt lat="49.77425" lon="4.83462">
        <ele>235</ele>
        <time>2022-07-15T10:26:12.000Z</time>
      </trkpt>
      <trkpt lat="49.77422" lon="4.83462">
        <ele>235</ele>
        <time>2022-07-15T10:26:13.000Z</time>
      </trkpt>
      <trkpt lat="49.7742" lon="4.83461">
        <ele>236</ele>
        <time>2022-07-15T10:26:14.000Z</time>
      </trkpt>
      <trkpt lat="49.77418" lon="4.83461">
        <ele>236</ele>
        <time>2022-07-15T10:26:15.000Z</time>
      </trkpt>
      <trkpt lat="49.77415" lon="4.83462">
        <ele>236</ele>
        <time>2022-07-15T10:26:16.000Z</time>
      </trkpt>
      <trkpt lat="49.77413" lon="4.83463">
        <ele>236</ele>
        <time>2022-07-15T10:26:17.000Z</time>
      </trkpt>
      <trkpt lat="49.7741" lon="4.83464">
        <ele>237</ele>
        <time>2022-07-15T10:26:18.000Z</time>
      </trkpt>
      <trkpt lat="49.77408" lon="4.83465">
        <ele>237</ele>
        <time>2022-07-15T10:26:19.000Z</time>
      </trkpt>
      <trkpt lat="49.77405" lon="4.83466">
        <ele>237</ele>
        <time>2022-07-15T10:26:20.000Z</time>
      </trkpt>
      <trkpt lat="49.77403" lon="4.83468">
        <ele>238</ele>
        <time>2022-07-15T10:26:21.000Z</time>
      </trkpt>
      <trkpt lat="49.77401" lon="4.83469">
        <ele>238</ele>
        <time>2022-07-15T10:26:22.000Z</time>
      </trkpt>
      <trkpt lat="49.77399" lon="4.8347">
        <ele>239</ele>
        <time>2022-07-15T10:26:23.000Z</time>
      </trkpt>
      <trkpt lat="49.77397" lon="4.83472">
        <ele>239</ele>
        <time>2022-07-15T10:26:24.000Z</time>
      </trkpt>
      <trkpt lat="49.77395" lon="4.83474">
        <ele>239</ele>
        <time>2022-07-15T10:26:25.000Z</time>
      </trkpt>
      <trkpt lat="49.77393" lon="4.83475">
        <ele>239</ele>
        <time>2022-07-15T10:26:26.000Z</time>
      </trkpt>
      <trkpt lat="49.77391" lon="4.83476">
        <ele>239</ele>
        <time>2022-07-15T10:26:27.000Z</time>
      </trkpt>
      <trkpt lat="49.7739" lon="4.83478">
        <ele>240</ele>
        <time>2022-07-15T10:26:28.000Z</time>
      </trkpt>
      <trkpt lat="49.77388" lon="4.83479">
        <ele>240</ele>
        <time>2022-07-15T10:26:29.000Z</time>
      </trkpt>
      <trkpt lat="49.77386" lon="4.8348">
        <ele>240</ele>
        <time>2022-07-15T10:26:30.000Z</time>
      </trkpt>
      <trkpt lat="49.77384" lon="4.83482">
        <ele>240</ele>
        <time>2022-07-15T10:26:31.000Z</time>
      </trkpt>
      <trkpt lat="49.77382" lon="4.83483">
        <ele>240</ele>
        <time>2022-07-15T10:26:32.000Z</time>
      </trkpt>
      <trkpt lat="49.7738" lon="4.83483">
        <ele>241</ele>
        <time>2022-07-15T10:26:33.000Z</time>
      </trkpt>
      <trkpt lat="49.77379" lon="4.83483">
        <ele>241</ele>
        <time>2022-07-15T10:26:34.000Z</time>
      </trkpt>
      <trkpt lat="49.77378" lon="4.83483">
        <ele>241</ele>
        <time>2022-07-15T10:26:35.000Z</time>
      </trkpt>
      <trkpt lat="49.77376" lon="4.83484">
        <ele>241</ele>
        <time>2022-07-15T10:26:36.000Z</time>
      </trkpt>
      <trkpt lat="49.77375" lon="4.83484">
        <ele>241</ele>
        <time>2022-07-15T10:26:37.000Z</time>
      </trkpt>
      <trkpt lat="49.77373" lon="4.83484">
        <ele>241</ele>
        <time>2022-07-15T10:26:38.000Z</time>
      </trkpt>
      <trkpt lat="49.77371" lon="4.83485">
        <ele>242</ele>
        <time>2022-07-15T10:26:39.000Z</time>
      </trkpt>
      <trkpt lat="49.77369" lon="4.83485">
        <ele>242</ele>
        <time>2022-07-15T10:26:40.000Z</time>
      </trkpt>
      <trkpt lat="49.77368" lon="4.83485">
        <ele>242</ele>
        <time>2022-07-15T10:26:41.000Z</time>
      </trkpt>
      <trkpt lat="49.77366" lon="4.83485">
        <ele>242</ele>
        <time>2022-07-15T10:26:42.000Z</time>
      </trkpt>
      <trkpt lat="49.77364" lon="4.83485">
        <ele>243</ele>
        <time>2022-07-15T10:26:43.000Z</time>
      </trkpt>
      <trkpt lat="49.77362" lon="4.83484">
        <ele>243</ele>
        <time>2022-07-15T10:26:44.000Z</time>
      </trkpt>
      <trkpt lat="49.7736" lon="4.83484">
        <ele>243</ele>
        <time>2022-07-15T10:26:45.000Z</time>
      </trkpt>
      <trkpt lat="49.77358" lon="4.83483">
        <ele>243</ele>
        <time>2022-07-15T10:26:46.000Z</time>
      </trkpt>
      <trkpt lat="49.77356" lon="4.83483">
        <ele>244</ele>
        <time>2022-07-15T10:26:47.000Z</time>
      </trkpt>
      <trkpt lat="49.77354" lon="4.83482">
        <ele>244</ele>
        <time>2022-07-15T10:26:48.000Z</time>
      </trkpt>
      <trkpt lat="49.77352" lon="4.83481">
        <ele>244</ele>
        <time>2022-07-15T10:26:49.000Z</time>
      </trkpt>
      <trkpt lat="49.77349" lon="4.8348">
        <ele>244</ele>
        <time>2022-07-15T10:26:50.000Z</time>
      </trkpt>
      <trkpt lat="49.77347" lon="4.83479">
        <ele>245</ele>
        <time>2022-07-15T10:26:51.000Z</time>
      </trkpt>
      <trkpt lat="49.77345" lon="4.83478">
        <ele>245</ele>
        <time>2022-07-15T10:26:52.000Z</time>
      </trkpt>
      <trkpt lat="49.77343" lon="4.83476">
        <ele>245</ele>
        <time>2022-07-15T10:26:53.000Z</time>
      </trkpt>
      <trkpt lat="49.77341" lon="4.83474">
        <ele>246</ele>
        <time>2022-07-15T10:26:54.000Z</time>
      </trkpt>
      <trkpt lat="49.77339" lon="4.83472">
        <ele>246</ele>
        <time>2022-07-15T10:26:55.000Z</time>
      </trkpt>
      <trkpt lat="49.77337" lon="4.83471">
        <ele>246</ele>
        <time>2022-07-15T10:26:56.000Z</time>
      </trkpt>
      <trkpt lat="49.77335" lon="4.83469">
        <ele>246</ele>
        <time>2022-07-15T10:26:57.000Z</time>
      </trkpt>
      <trkpt lat="49.77334" lon="4.83468">
        <ele>247</ele>
        <time>2022-07-15T10:26:58.000Z</time>
      </trkpt>
      <trkpt lat="49.77332" lon="4.83465">
        <ele>247</ele>
        <time>2022-07-15T10:26:59.000Z</time>
      </trkpt>
      <trkpt lat="49.7733" lon="4.83464">
        <ele>247</ele>
        <time>2022-07-15T10:27:00.000Z</time>
      </trkpt>
      <trkpt lat="49.77329" lon="4.83462">
        <ele>247</ele>
        <time>2022-07-15T10:27:01.000Z</time>
      </trkpt>
      <trkpt lat="49.77327" lon="4.8346">
        <ele>248</ele>
        <time>2022-07-15T10:27:02.000Z</time>
      </trkpt>
      <trkpt lat="49.77324" lon="4.83457">
        <ele>248</ele>
        <time>2022-07-15T10:27:03.000Z</time>
      </trkpt>
      <trkpt lat="49.77322" lon="4.83454">
        <ele>248</ele>
        <time>2022-07-15T10:27:04.000Z</time>
      </trkpt>
      <trkpt lat="49.77319" lon="4.83452">
        <ele>248</ele>
        <time>2022-07-15T10:27:05.000Z</time>
      </trkpt>
      <trkpt lat="49.77316" lon="4.83449">
        <ele>248</ele>
        <time>2022-07-15T10:27:06.000Z</time>
      </trkpt>
      <trkpt lat="49.77313" lon="4.83447">
        <ele>249</ele>
        <time>2022-07-15T10:27:07.000Z</time>
      </trkpt>
      <trkpt lat="49.7731" lon="4.83444">
        <ele>249</ele>
        <time>2022-07-15T10:27:08.000Z</time>
      </trkpt>
      <trkpt lat="49.77308" lon="4.83442">
        <ele>249</ele>
        <time>2022-07-15T10:27:09.000Z</time>
      </trkpt>
      <trkpt lat="49.77307" lon="4.83439">
        <ele>249</ele>
        <time>2022-07-15T10:27:10.000Z</time>
      </trkpt>
      <trkpt lat="49.77305" lon="4.83437">
        <ele>250</ele>
        <time>2022-07-15T10:27:11.000Z</time>
      </trkpt>
      <trkpt lat="49.77303" lon="4.83435">
        <ele>250</ele>
        <time>2022-07-15T10:27:12.000Z</time>
      </trkpt>
      <trkpt lat="49.77301" lon="4.83432">
        <ele>250</ele>
        <time>2022-07-15T10:27:13.000Z</time>
      </trkpt>
      <trkpt lat="49.77299" lon="4.8343">
        <ele>250</ele>
        <time>2022-07-15T10:27:14.000Z</time>
      </trkpt>
      <trkpt lat="49.77297" lon="4.83427">
        <ele>251</ele>
        <time>2022-07-15T10:27:15.000Z</time>
      </trkpt>
      <trkpt lat="49.77296" lon="4.83425">
        <ele>251</ele>
        <time>2022-07-15T10:27:16.000Z</time>
      </trkpt>
      <trkpt lat="49.77294" lon="4.83422">
        <ele>251</ele>
        <time>2022-07-15T10:27:17.000Z</time>
      </trkpt>
      <trkpt lat="49.77292" lon="4.8342">
        <ele>252</ele>
        <time>2022-07-15T10:27:18.000Z</time>
      </trkpt>
      <trkpt lat="49.7729" lon="4.83418">
        <ele>252</ele>
        <time>2022-07-15T10:27:19.000Z</time>
      </trkpt>
      <trkpt lat="49.77287" lon="4.83416">
        <ele>252</ele>
        <time>2022-07-15T10:27:20.000Z</time>
      </trkpt>
      <trkpt lat="49.77285" lon="4.83413">
        <ele>252</ele>
        <time>2022-07-15T10:27:21.000Z</time>
      </trkpt>
      <trkpt lat="49.77283" lon="4.83411">
        <ele>252</ele>
        <time>2022-07-15T10:27:22.000Z</time>
      </trkpt>
      <trkpt lat="49.77282" lon="4.83409">
        <ele>253</ele>
        <time>2022-07-15T10:27:23.000Z</time>
      </trkpt>
      <trkpt lat="49.77279" lon="4.83407">
        <ele>253</ele>
        <time>2022-07-15T10:27:24.000Z</time>
      </trkpt>
      <trkpt lat="49.77277" lon="4.83406">
        <ele>253</ele>
        <time>2022-07-15T10:27:25.000Z</time>
      </trkpt>
      <trkpt lat="49.77275" lon="4.83404">
        <ele>253</ele>
        <time>2022-07-15T10:27:26.000Z</time>
      </trkpt>
      <trkpt lat="49.77272" lon="4.83402">
        <ele>253</ele>
        <time>2022-07-15T10:27:27.000Z</time>
      </trkpt>
      <trkpt lat="49.7727" lon="4.834">
        <ele>254</ele>
        <time>2022-07-15T10:27:28.000Z</time>
      </trkpt>
      <trkpt lat="49.77268" lon="4.83398">
        <ele>254</ele>
        <time>2022-07-15T10:27:29.000Z</time>
      </trkpt>
      <trkpt lat="49.77266" lon="4.83396">
        <ele>254</ele>
        <time>2022-07-15T10:27:30.000Z</time>
      </trkpt>
      <trkpt lat="49.77264" lon="4.83394">
        <ele>254</ele>
        <time>2022-07-15T10:27:31.000Z</time>
      </trkpt>
      <trkpt lat="49.77262" lon="4.83392">
        <ele>255</ele>
        <time>2022-07-15T10:27:32.000Z</time>
      </trkpt>
      <trkpt lat="49.77261" lon="4.8339">
        <ele>255</ele>
        <time>2022-07-15T10:27:33.000Z</time>
      </trkpt>
      <trkpt lat="49.77259" lon="4.83388">
        <ele>255</ele>
        <time>2022-07-15T10:27:34.000Z</time>
      </trkpt>
      <trkpt lat="49.77257" lon="4.83388">
        <ele>255</ele>
        <time>2022-07-15T10:27:35.000Z</time>
      </trkpt>
      <trkpt lat="49.77255" lon="4.83387">
        <ele>255</ele>
        <time>2022-07-15T10:27:36.000Z</time>
      </trkpt>
      <trkpt lat="49.77253" lon="4.83385">
        <ele>255</ele>
        <time>2022-07-15T10:27:37.000Z</time>
      </trkpt>
      <trkpt lat="49.77252" lon="4.83385">
        <ele>255</ele>
        <time>2022-07-15T10:27:38.000Z</time>
      </trkpt>
      <trkpt lat="49.7725" lon="4.83384">
        <ele>255</ele>
        <time>2022-07-15T10:27:39.000Z</time>
      </trkpt>
      <trkpt lat="49.77249" lon="4.83383">
        <ele>255</ele>
        <time>2022-07-15T10:27:40.000Z</time>
      </trkpt>
      <trkpt lat="49.77247" lon="4.83381">
        <ele>255</ele>
        <time>2022-07-15T10:27:41.000Z</time>
      </trkpt>
      <trkpt lat="49.77245" lon="4.8338">
        <ele>255</ele>
        <time>2022-07-15T10:27:42.000Z</time>
      </trkpt>
      <trkpt lat="49.77243" lon="4.83379">
        <ele>255</ele>
        <time>2022-07-15T10:27:43.000Z</time>
      </trkpt>
      <trkpt lat="49.77242" lon="4.83378">
        <ele>255</ele>
        <time>2022-07-15T10:27:44.000Z</time>
      </trkpt>
      <trkpt lat="49.7724" lon="4.83377">
        <ele>255</ele>
        <time>2022-07-15T10:27:45.000Z</time>
      </trkpt>
      <trkpt lat="49.77237" lon="4.83377">
        <ele>255</ele>
        <time>2022-07-15T10:27:46.000Z</time>
      </trkpt>
      <trkpt lat="49.77235" lon="4.83376">
        <ele>255</ele>
        <time>2022-07-15T10:27:47.000Z</time>
      </trkpt>
      <trkpt lat="49.77233" lon="4.83376">
        <ele>255</ele>
        <time>2022-07-15T10:27:48.000Z</time>
      </trkpt>
      <trkpt lat="49.77231" lon="4.83376">
        <ele>255</ele>
        <time>2022-07-15T10:27:49.000Z</time>
      </trkpt>
      <trkpt lat="49.77229" lon="4.83375">
        <ele>255</ele>
        <time>2022-07-15T10:27:50.000Z</time>
      </trkpt>
      <trkpt lat="49.77228" lon="4.83375">
        <ele>255</ele>
        <time>2022-07-15T10:27:51.000Z</time>
      </trkpt>
      <trkpt lat="49.77225" lon="4.83374">
        <ele>255</ele>
        <time>2022-07-15T10:27:52.000Z</time>
      </trkpt>
      <trkpt lat="49.77223" lon="4.83373">
        <ele>255</ele>
        <time>2022-07-15T10:27:53.000Z</time>
      </trkpt>
      <trkpt lat="49.77221" lon="4.83373">
        <ele>255</ele>
        <time>2022-07-15T10:27:54.000Z</time>
      </trkpt>
      <trkpt lat="49.77219" lon="4.83372">
        <ele>255</ele>
        <time>2022-07-15T10:27:55.000Z</time>
      </trkpt>
      <trkpt lat="49.77216" lon="4.83372">
        <ele>255</ele>
        <time>2022-07-15T10:27:56.000Z</time>
      </trkpt>
      <trkpt lat="49.77214" lon="4.83371">
        <ele>256</ele>
        <time>2022-07-15T10:27:57.000Z</time>
      </trkpt>
      <trkpt lat="49.77212" lon="4.83371">
        <ele>256</ele>
        <time>2022-07-15T10:27:58.000Z</time>
      </trkpt>
      <trkpt lat="49.77209" lon="4.8337">
        <ele>256</ele>
        <time>2022-07-15T10:27:59.000Z</time>
      </trkpt>
      <trkpt lat="49.77207" lon="4.8337">
        <ele>256</ele>
        <time>2022-07-15T10:28:00.000Z</time>
      </trkpt>
      <trkpt lat="49.77204" lon="4.8337">
        <ele>256</ele>
        <time>2022-07-15T10:28:01.000Z</time>
      </trkpt>
      <trkpt lat="49.77202" lon="4.8337">
        <ele>256</ele>
        <time>2022-07-15T10:28:02.000Z</time>
      </trkpt>
      <trkpt lat="49.77199" lon="4.83369">
        <ele>256</ele>
        <time>2022-07-15T10:28:03.000Z</time>
      </trkpt>
      <trkpt lat="49.77197" lon="4.83369">
        <ele>256</ele>
        <time>2022-07-15T10:28:04.000Z</time>
      </trkpt>
      <trkpt lat="49.77195" lon="4.83369">
        <ele>256</ele>
        <time>2022-07-15T10:28:05.000Z</time>
      </trkpt>
      <trkpt lat="49.77194" lon="4.83368">
        <ele>256</ele>
        <time>2022-07-15T10:28:06.000Z</time>
      </trkpt>
      <trkpt lat="49.77192" lon="4.83368">
        <ele>256</ele>
        <time>2022-07-15T10:28:07.000Z</time>
      </trkpt>
      <trkpt lat="49.77191" lon="4.83368">
        <ele>256</ele>
        <time>2022-07-15T10:28:08.000Z</time>
      </trkpt>
      <trkpt lat="49.77188" lon="4.83368">
        <ele>256</ele>
        <time>2022-07-15T10:28:09.000Z</time>
      </trkpt>
      <trkpt lat="49.77187" lon="4.83368">
        <ele>256</ele>
        <time>2022-07-15T10:28:10.000Z</time>
      </trkpt>
      <trkpt lat="49.77185" lon="4.83369">
        <ele>256</ele>
        <time>2022-07-15T10:28:11.000Z</time>
      </trkpt>
      <trkpt lat="49.77182" lon="4.8337">
        <ele>256</ele>
        <time>2022-07-15T10:28:12.000Z</time>
      </trkpt>
      <trkpt lat="49.77179" lon="4.83371">
        <ele>257</ele>
        <time>2022-07-15T10:28:13.000Z</time>
      </trkpt>
      <trkpt lat="49.77177" lon="4.83371">
        <ele>257</ele>
        <time>2022-07-15T10:28:14.000Z</time>
      </trkpt>
      <trkpt lat="49.77175" lon="4.83372">
        <ele>257</ele>
        <time>2022-07-15T10:28:15.000Z</time>
      </trkpt>
      <trkpt lat="49.77173" lon="4.83372">
        <ele>257</ele>
        <time>2022-07-15T10:28:16.000Z</time>
      </trkpt>
      <trkpt lat="49.77171" lon="4.83373">
        <ele>257</ele>
        <time>2022-07-15T10:28:17.000Z</time>
      </trkpt>
      <trkpt lat="49.77169" lon="4.83374">
        <ele>258</ele>
        <time>2022-07-15T10:28:18.000Z</time>
      </trkpt>
      <trkpt lat="49.77168" lon="4.83375">
        <ele>258</ele>
        <time>2022-07-15T10:28:19.000Z</time>
      </trkpt>
      <trkpt lat="49.77166" lon="4.83376">
        <ele>258</ele>
        <time>2022-07-15T10:28:20.000Z</time>
      </trkpt>
      <trkpt lat="49.77165" lon="4.83378">
        <ele>259</ele>
        <time>2022-07-15T10:28:21.000Z</time>
      </trkpt>
      <trkpt lat="49.77164" lon="4.83379">
        <ele>259</ele>
        <time>2022-07-15T10:28:22.000Z</time>
      </trkpt>
      <trkpt lat="49.77162" lon="4.8338">
        <ele>259</ele>
        <time>2022-07-15T10:28:23.000Z</time>
      </trkpt>
      <trkpt lat="49.77161" lon="4.83381">
        <ele>260</ele>
        <time>2022-07-15T10:28:24.000Z</time>
      </trkpt>
      <trkpt lat="49.77159" lon="4.83382">
        <ele>260</ele>
        <time>2022-07-15T10:28:25.000Z</time>
      </trkpt>
      <trkpt lat="49.77157" lon="4.83384">
        <ele>260</ele>
        <time>2022-07-15T10:28:26.000Z</time>
      </trkpt>
      <trkpt lat="49.77156" lon="4.83385">
        <ele>260</ele>
        <time>2022-07-15T10:28:27.000Z</time>
      </trkpt>
      <trkpt lat="49.77154" lon="4.83386">
        <ele>261</ele>
        <time>2022-07-15T10:28:28.000Z</time>
      </trkpt>
      <trkpt lat="49.77152" lon="4.83388">
        <ele>261</ele>
        <time>2022-07-15T10:28:29.000Z</time>
      </trkpt>
      <trkpt lat="49.7715" lon="4.83389">
        <ele>261</ele>
        <time>2022-07-15T10:28:30.000Z</time>
      </trkpt>
      <trkpt lat="49.77148" lon="4.8339">
        <ele>261</ele>
        <time>2022-07-15T10:28:31.000Z</time>
      </trkpt>
      <trkpt lat="49.77146" lon="4.83392">
        <ele>261</ele>
        <time>2022-07-15T10:28:32.000Z</time>
      </trkpt>
      <trkpt lat="49.77144" lon="4.83392">
        <ele>262</ele>
        <time>2022-07-15T10:28:33.000Z</time>
      </trkpt>
      <trkpt lat="49.77141" lon="4.83393">
        <ele>262</ele>
        <time>2022-07-15T10:28:34.000Z</time>
      </trkpt>
      <trkpt lat="49.77138" lon="4.83394">
        <ele>262</ele>
        <time>2022-07-15T10:28:35.000Z</time>
      </trkpt>
      <trkpt lat="49.77136" lon="4.83395">
        <ele>262</ele>
        <time>2022-07-15T10:28:36.000Z</time>
      </trkpt>
      <trkpt lat="49.77134" lon="4.83396">
        <ele>262</ele>
        <time>2022-07-15T10:28:37.000Z</time>
      </trkpt>
      <trkpt lat="49.77131" lon="4.83396">
        <ele>262</ele>
        <time>2022-07-15T10:28:38.000Z</time>
      </trkpt>
      <trkpt lat="49.7713" lon="4.83397">
        <ele>263</ele>
        <time>2022-07-15T10:28:39.000Z</time>
      </trkpt>
      <trkpt lat="49.77128" lon="4.83398">
        <ele>263</ele>
        <time>2022-07-15T10:28:40.000Z</time>
      </trkpt>
      <trkpt lat="49.77126" lon="4.83398">
        <ele>263</ele>
        <time>2022-07-15T10:28:41.000Z</time>
      </trkpt>
      <trkpt lat="49.77123" lon="4.83399">
        <ele>263</ele>
        <time>2022-07-15T10:28:42.000Z</time>
      </trkpt>
      <trkpt lat="49.77121" lon="4.834">
        <ele>264</ele>
        <time>2022-07-15T10:28:43.000Z</time>
      </trkpt>
      <trkpt lat="49.77119" lon="4.83401">
        <ele>264</ele>
        <time>2022-07-15T10:28:44.000Z</time>
      </trkpt>
      <trkpt lat="49.77117" lon="4.83403">
        <ele>264</ele>
        <time>2022-07-15T10:28:45.000Z</time>
      </trkpt>
      <trkpt lat="49.77114" lon="4.83403">
        <ele>264</ele>
        <time>2022-07-15T10:28:46.000Z</time>
      </trkpt>
      <trkpt lat="49.77111" lon="4.83404">
        <ele>264</ele>
        <time>2022-07-15T10:28:47.000Z</time>
      </trkpt>
      <trkpt lat="49.77109" lon="4.83404">
        <ele>264</ele>
        <time>2022-07-15T10:28:48.000Z</time>
      </trkpt>
      <trkpt lat="49.77106" lon="4.83404">
        <ele>265</ele>
        <time>2022-07-15T10:28:49.000Z</time>
      </trkpt>
      <trkpt lat="49.77103" lon="4.83404">
        <ele>265</ele>
        <time>2022-07-15T10:28:50.000Z</time>
      </trkpt>
      <trkpt lat="49.771" lon="4.83405">
        <ele>265</ele>
        <time>2022-07-15T10:28:51.000Z</time>
      </trkpt>
      <trkpt lat="49.77097" lon="4.83404">
        <ele>265</ele>
        <time>2022-07-15T10:28:52.000Z</time>
      </trkpt>
      <trkpt lat="49.77094" lon="4.83403">
        <ele>265</ele>
        <time>2022-07-15T10:28:53.000Z</time>
      </trkpt>
      <trkpt lat="49.77092" lon="4.83402">
        <ele>266</ele>
        <time>2022-07-15T10:28:54.000Z</time>
      </trkpt>
      <trkpt lat="49.77089" lon="4.83401">
        <ele>266</ele>
        <time>2022-07-15T10:28:55.000Z</time>
      </trkpt>
      <trkpt lat="49.77087" lon="4.834">
        <ele>266</ele>
        <time>2022-07-15T10:28:56.000Z</time>
      </trkpt>
      <trkpt lat="49.77084" lon="4.83399">
        <ele>266</ele>
        <time>2022-07-15T10:28:57.000Z</time>
      </trkpt>
      <trkpt lat="49.77081" lon="4.83399">
        <ele>266</ele>
        <time>2022-07-15T10:28:58.000Z</time>
      </trkpt>
      <trkpt lat="49.77079" lon="4.83399">
        <ele>266</ele>
        <time>2022-07-15T10:28:59.000Z</time>
      </trkpt>
      <trkpt lat="49.77077" lon="4.834">
        <ele>266</ele>
        <time>2022-07-15T10:29:00.000Z</time>
      </trkpt>
      <trkpt lat="49.77075" lon="4.83399">
        <ele>266</ele>
        <time>2022-07-15T10:29:01.000Z</time>
      </trkpt>
      <trkpt lat="49.77073" lon="4.83397">
        <ele>266</ele>
        <time>2022-07-15T10:29:02.000Z</time>
      </trkpt>
      <trkpt lat="49.77071" lon="4.83396">
        <ele>266</ele>
        <time>2022-07-15T10:29:03.000Z</time>
      </trkpt>
      <trkpt lat="49.77068" lon="4.83395">
        <ele>266</ele>
        <time>2022-07-15T10:29:04.000Z</time>
      </trkpt>
      <trkpt lat="49.77066" lon="4.83393">
        <ele>265</ele>
        <time>2022-07-15T10:29:05.000Z</time>
      </trkpt>
      <trkpt lat="49.77063" lon="4.83392">
        <ele>265</ele>
        <time>2022-07-15T10:29:06.000Z</time>
      </trkpt>
      <trkpt lat="49.77061" lon="4.83391">
        <ele>265</ele>
        <time>2022-07-15T10:29:07.000Z</time>
      </trkpt>
      <trkpt lat="49.77058" lon="4.8339">
        <ele>265</ele>
        <time>2022-07-15T10:29:08.000Z</time>
      </trkpt>
      <trkpt lat="49.77056" lon="4.83388">
        <ele>265</ele>
        <time>2022-07-15T10:29:09.000Z</time>
      </trkpt>
      <trkpt lat="49.77054" lon="4.83386">
        <ele>265</ele>
        <time>2022-07-15T10:29:10.000Z</time>
      </trkpt>
      <trkpt lat="49.77052" lon="4.83386">
        <ele>265</ele>
        <time>2022-07-15T10:29:11.000Z</time>
      </trkpt>
      <trkpt lat="49.7705" lon="4.83385">
        <ele>264</ele>
        <time>2022-07-15T10:29:12.000Z</time>
      </trkpt>
      <trkpt lat="49.77047" lon="4.83383">
        <ele>264</ele>
        <time>2022-07-15T10:29:13.000Z</time>
      </trkpt>
      <trkpt lat="49.77044" lon="4.83382">
        <ele>264</ele>
        <time>2022-07-15T10:29:14.000Z</time>
      </trkpt>
      <trkpt lat="49.77041" lon="4.83381">
        <ele>264</ele>
        <time>2022-07-15T10:29:15.000Z</time>
      </trkpt>
      <trkpt lat="49.77039" lon="4.8338">
        <ele>264</ele>
        <time>2022-07-15T10:29:16.000Z</time>
      </trkpt>
      <trkpt lat="49.77036" lon="4.83379">
        <ele>264</ele>
        <time>2022-07-15T10:29:17.000Z</time>
      </trkpt>
      <trkpt lat="49.77032" lon="4.83378">
        <ele>263</ele>
        <time>2022-07-15T10:29:18.000Z</time>
      </trkpt>
      <trkpt lat="49.7703" lon="4.83376">
        <ele>263</ele>
        <time>2022-07-15T10:29:19.000Z</time>
      </trkpt>
      <trkpt lat="49.77027" lon="4.83375">
        <ele>263</ele>
        <time>2022-07-15T10:29:20.000Z</time>
      </trkpt>
      <trkpt lat="49.77024" lon="4.83373">
        <ele>263</ele>
        <time>2022-07-15T10:29:21.000Z</time>
      </trkpt>
      <trkpt lat="49.77021" lon="4.83372">
        <ele>263</ele>
        <time>2022-07-15T10:29:22.000Z</time>
      </trkpt>
      <trkpt lat="49.77018" lon="4.83372">
        <ele>263</ele>
        <time>2022-07-15T10:29:23.000Z</time>
      </trkpt>
      <trkpt lat="49.77016" lon="4.8337">
        <ele>263</ele>
        <time>2022-07-15T10:29:24.000Z</time>
      </trkpt>
      <trkpt lat="49.77013" lon="4.83369">
        <ele>263</ele>
        <time>2022-07-15T10:29:25.000Z</time>
      </trkpt>
      <trkpt lat="49.7701" lon="4.83367">
        <ele>262</ele>
        <time>2022-07-15T10:29:26.000Z</time>
      </trkpt>
      <trkpt lat="49.77007" lon="4.83366">
        <ele>262</ele>
        <time>2022-07-15T10:29:27.000Z</time>
      </trkpt>
      <trkpt lat="49.77004" lon="4.83364">
        <ele>262</ele>
        <time>2022-07-15T10:29:28.000Z</time>
      </trkpt>
      <trkpt lat="49.77001" lon="4.83362">
        <ele>262</ele>
        <time>2022-07-15T10:29:29.000Z</time>
      </trkpt>
      <trkpt lat="49.76999" lon="4.8336">
        <ele>262</ele>
        <time>2022-07-15T10:29:30.000Z</time>
      </trkpt>
      <trkpt lat="49.76996" lon="4.83357">
        <ele>262</ele>
        <time>2022-07-15T10:29:31.000Z</time>
      </trkpt>
      <trkpt lat="49.76994" lon="4.83355">
        <ele>262</ele>
        <time>2022-07-15T10:29:32.000Z</time>
      </trkpt>
      <trkpt lat="49.76992" lon="4.83353">
        <ele>262</ele>
        <time>2022-07-15T10:29:33.000Z</time>
      </trkpt>
      <trkpt lat="49.76989" lon="4.8335">
        <ele>262</ele>
        <time>2022-07-15T10:29:34.000Z</time>
      </trkpt>
      <trkpt lat="49.76987" lon="4.83348">
        <ele>262</ele>
        <time>2022-07-15T10:29:35.000Z</time>
      </trkpt>
      <trkpt lat="49.76985" lon="4.83345">
        <ele>262</ele>
        <time>2022-07-15T10:29:36.000Z</time>
      </trkpt>
      <trkpt lat="49.76983" lon="4.83342">
        <ele>262</ele>
        <time>2022-07-15T10:29:37.000Z</time>
      </trkpt>
      <trkpt lat="49.76982" lon="4.83339">
        <ele>262</ele>
        <time>2022-07-15T10:29:38.000Z</time>
      </trkpt>
      <trkpt lat="49.7698" lon="4.83335">
        <ele>262</ele>
        <time>2022-07-15T10:29:39.000Z</time>
      </trkpt>
      <trkpt lat="49.76978" lon="4.83332">
        <ele>262</ele>
        <time>2022-07-15T10:29:40.000Z</time>
      </trkpt>
      <trkpt lat="49.76976" lon="4.83329">
        <ele>262</ele>
        <time>2022-07-15T10:29:41.000Z</time>
      </trkpt>
      <trkpt lat="49.76974" lon="4.83326">
        <ele>262</ele>
        <time>2022-07-15T10:29:42.000Z</time>
      </trkpt>
      <trkpt lat="49.76972" lon="4.83323">
        <ele>262</ele>
        <time>2022-07-15T10:29:43.000Z</time>
      </trkpt>
      <trkpt lat="49.76971" lon="4.83319">
        <ele>262</ele>
        <time>2022-07-15T10:29:44.000Z</time>
      </trkpt>
      <trkpt lat="49.7697" lon="4.83316">
        <ele>262</ele>
        <time>2022-07-15T10:29:45.000Z</time>
      </trkpt>
      <trkpt lat="49.76968" lon="4.83313">
        <ele>262</ele>
        <time>2022-07-15T10:29:46.000Z</time>
      </trkpt>
      <trkpt lat="49.76967" lon="4.83309">
        <ele>262</ele>
        <time>2022-07-15T10:29:47.000Z</time>
      </trkpt>
      <trkpt lat="49.76965" lon="4.83306">
        <ele>262</ele>
        <time>2022-07-15T10:29:48.000Z</time>
      </trkpt>
      <trkpt lat="49.76964" lon="4.83303">
        <ele>262</ele>
        <time>2022-07-15T10:29:49.000Z</time>
      </trkpt>
      <trkpt lat="49.76962" lon="4.833">
        <ele>262</ele>
        <time>2022-07-15T10:29:50.000Z</time>
      </trkpt>
      <trkpt lat="49.76961" lon="4.83296">
        <ele>262</ele>
        <time>2022-07-15T10:29:51.000Z</time>
      </trkpt>
      <trkpt lat="49.7696" lon="4.83292">
        <ele>262</ele>
        <time>2022-07-15T10:29:52.000Z</time>
      </trkpt>
      <trkpt lat="49.76959" lon="4.83288">
        <ele>262</ele>
        <time>2022-07-15T10:29:53.000Z</time>
      </trkpt>
      <trkpt lat="49.76958" lon="4.83283">
        <ele>262</ele>
        <time>2022-07-15T10:29:54.000Z</time>
      </trkpt>
      <trkpt lat="49.76956" lon="4.83279">
        <ele>262</ele>
        <time>2022-07-15T10:29:55.000Z</time>
      </trkpt>
      <trkpt lat="49.76955" lon="4.83276">
        <ele>262</ele>
        <time>2022-07-15T10:29:56.000Z</time>
      </trkpt>
      <trkpt lat="49.76953" lon="4.83272">
        <ele>262</ele>
        <time>2022-07-15T10:29:57.000Z</time>
      </trkpt>
      <trkpt lat="49.76952" lon="4.83268">
        <ele>262</ele>
        <time>2022-07-15T10:29:58.000Z</time>
      </trkpt>
      <trkpt lat="49.7695" lon="4.83265">
        <ele>262</ele>
        <time>2022-07-15T10:29:59.000Z</time>
      </trkpt>
      <trkpt lat="49.76949" lon="4.83261">
        <ele>262</ele>
        <time>2022-07-15T10:30:00.000Z</time>
      </trkpt>
      <trkpt lat="49.76947" lon="4.83257">
        <ele>262</ele>
        <time>2022-07-15T10:30:01.000Z</time>
      </trkpt>
      <trkpt lat="49.76945" lon="4.83252">
        <ele>263</ele>
        <time>2022-07-15T10:30:02.000Z</time>
      </trkpt>
      <trkpt lat="49.76943" lon="4.83248">
        <ele>263</ele>
        <time>2022-07-15T10:30:03.000Z</time>
      </trkpt>
      <trkpt lat="49.76941" lon="4.83243">
        <ele>262</ele>
        <time>2022-07-15T10:30:04.000Z</time>
      </trkpt>
      <trkpt lat="49.76939" lon="4.83239">
        <ele>262</ele>
        <time>2022-07-15T10:30:05.000Z</time>
      </trkpt>
      <trkpt lat="49.76937" lon="4.83234">
        <ele>262</ele>
        <time>2022-07-15T10:30:06.000Z</time>
      </trkpt>
      <trkpt lat="49.76934" lon="4.8323">
        <ele>262</ele>
        <time>2022-07-15T10:30:07.000Z</time>
      </trkpt>
      <trkpt lat="49.76932" lon="4.83225">
        <ele>262</ele>
        <time>2022-07-15T10:30:08.000Z</time>
      </trkpt>
      <trkpt lat="49.7693" lon="4.8322">
        <ele>263</ele>
        <time>2022-07-15T10:30:09.000Z</time>
      </trkpt>
      <trkpt lat="49.76928" lon="4.83215">
        <ele>263</ele>
        <time>2022-07-15T10:30:10.000Z</time>
      </trkpt>
      <trkpt lat="49.76927" lon="4.83209">
        <ele>263</ele>
        <time>2022-07-15T10:30:11.000Z</time>
      </trkpt>
      <trkpt lat="49.76927" lon="4.83204">
        <ele>263</ele>
        <time>2022-07-15T10:30:12.000Z</time>
      </trkpt>
      <trkpt lat="49.76928" lon="4.83198">
        <ele>263</ele>
        <time>2022-07-15T10:30:13.000Z</time>
      </trkpt>
      <trkpt lat="49.76929" lon="4.83193">
        <ele>263</ele>
        <time>2022-07-15T10:30:14.000Z</time>
      </trkpt>
      <trkpt lat="49.7693" lon="4.83188">
        <ele>263</ele>
        <time>2022-07-15T10:30:15.000Z</time>
      </trkpt>
      <trkpt lat="49.76932" lon="4.83183">
        <ele>263</ele>
        <time>2022-07-15T10:30:16.000Z</time>
      </trkpt>
      <trkpt lat="49.76934" lon="4.83179">
        <ele>263</ele>
        <time>2022-07-15T10:30:17.000Z</time>
      </trkpt>
      <trkpt lat="49.76936" lon="4.83174">
        <ele>264</ele>
        <time>2022-07-15T10:30:18.000Z</time>
      </trkpt>
      <trkpt lat="49.76938" lon="4.8317">
        <ele>264</ele>
        <time>2022-07-15T10:30:19.000Z</time>
      </trkpt>
      <trkpt lat="49.76939" lon="4.83165">
        <ele>264</ele>
        <time>2022-07-15T10:30:20.000Z</time>
      </trkpt>
      <trkpt lat="49.7694" lon="4.8316">
        <ele>264</ele>
        <time>2022-07-15T10:30:21.000Z</time>
      </trkpt>
      <trkpt lat="49.76939" lon="4.83156">
        <ele>264</ele>
        <time>2022-07-15T10:30:22.000Z</time>
      </trkpt>
      <trkpt lat="49.76938" lon="4.83151">
        <ele>264</ele>
        <time>2022-07-15T10:30:23.000Z</time>
      </trkpt>
      <trkpt lat="49.76937" lon="4.83146">
        <ele>265</ele>
        <time>2022-07-15T10:30:24.000Z</time>
      </trkpt>
      <trkpt lat="49.76936" lon="4.83141">
        <ele>265</ele>
        <time>2022-07-15T10:30:25.000Z</time>
      </trkpt>
      <trkpt lat="49.76934" lon="4.83136">
        <ele>265</ele>
        <time>2022-07-15T10:30:26.000Z</time>
      </trkpt>
      <trkpt lat="49.76931" lon="4.83131">
        <ele>265</ele>
        <time>2022-07-15T10:30:27.000Z</time>
      </trkpt>
      <trkpt lat="49.76929" lon="4.83125">
        <ele>265</ele>
        <time>2022-07-15T10:30:28.000Z</time>
      </trkpt>
      <trkpt lat="49.76927" lon="4.8312">
        <ele>265</ele>
        <time>2022-07-15T10:30:29.000Z</time>
      </trkpt>
      <trkpt lat="49.76925" lon="4.83115">
        <ele>265</ele>
        <time>2022-07-15T10:30:30.000Z</time>
      </trkpt>
      <trkpt lat="49.76922" lon="4.8311">
        <ele>265</ele>
        <time>2022-07-15T10:30:31.000Z</time>
      </trkpt>
      <trkpt lat="49.7692" lon="4.83104">
        <ele>264</ele>
        <time>2022-07-15T10:30:32.000Z</time>
      </trkpt>
      <trkpt lat="49.76918" lon="4.83099">
        <ele>264</ele>
        <time>2022-07-15T10:30:33.000Z</time>
      </trkpt>
      <trkpt lat="49.76916" lon="4.83094">
        <ele>264</ele>
        <time>2022-07-15T10:30:34.000Z</time>
      </trkpt>
      <trkpt lat="49.76913" lon="4.83089">
        <ele>264</ele>
        <time>2022-07-15T10:30:35.000Z</time>
      </trkpt>
      <trkpt lat="49.76911" lon="4.83083">
        <ele>264</ele>
        <time>2022-07-15T10:30:36.000Z</time>
      </trkpt>
      <trkpt lat="49.76908" lon="4.83078">
        <ele>264</ele>
        <time>2022-07-15T10:30:37.000Z</time>
      </trkpt>
      <trkpt lat="49.76906" lon="4.83072">
        <ele>264</ele>
        <time>2022-07-15T10:30:38.000Z</time>
      </trkpt>
      <trkpt lat="49.76903" lon="4.83065">
        <ele>264</ele>
        <time>2022-07-15T10:30:39.000Z</time>
      </trkpt>
      <trkpt lat="49.769" lon="4.83059">
        <ele>263</ele>
        <time>2022-07-15T10:30:40.000Z</time>
      </trkpt>
      <trkpt lat="49.76898" lon="4.83053">
        <ele>263</ele>
        <time>2022-07-15T10:30:41.000Z</time>
      </trkpt>
      <trkpt lat="49.76895" lon="4.83047">
        <ele>263</ele>
        <time>2022-07-15T10:30:42.000Z</time>
      </trkpt>
      <trkpt lat="49.76893" lon="4.83041">
        <ele>263</ele>
        <time>2022-07-15T10:30:43.000Z</time>
      </trkpt>
      <trkpt lat="49.7689" lon="4.83036">
        <ele>263</ele>
        <time>2022-07-15T10:30:44.000Z</time>
      </trkpt>
      <trkpt lat="49.76888" lon="4.8303">
        <ele>263</ele>
        <time>2022-07-15T10:30:45.000Z</time>
      </trkpt>
      <trkpt lat="49.76885" lon="4.83025">
        <ele>263</ele>
        <time>2022-07-15T10:30:46.000Z</time>
      </trkpt>
      <trkpt lat="49.76883" lon="4.83019">
        <ele>263</ele>
        <time>2022-07-15T10:30:47.000Z</time>
      </trkpt>
      <trkpt lat="49.7688" lon="4.83013">
        <ele>262</ele>
        <time>2022-07-15T10:30:48.000Z</time>
      </trkpt>
      <trkpt lat="49.76878" lon="4.83007">
        <ele>262</ele>
        <time>2022-07-15T10:30:49.000Z</time>
      </trkpt>
      <trkpt lat="49.76875" lon="4.83001">
        <ele>262</ele>
        <time>2022-07-15T10:30:50.000Z</time>
      </trkpt>
      <trkpt lat="49.76873" lon="4.82995">
        <ele>262</ele>
        <time>2022-07-15T10:30:51.000Z</time>
      </trkpt>
      <trkpt lat="49.7687" lon="4.82989">
        <ele>262</ele>
        <time>2022-07-15T10:30:52.000Z</time>
      </trkpt>
      <trkpt lat="49.76867" lon="4.82983">
        <ele>262</ele>
        <time>2022-07-15T10:30:53.000Z</time>
      </trkpt>
      <trkpt lat="49.76865" lon="4.82977">
        <ele>262</ele>
        <time>2022-07-15T10:30:54.000Z</time>
      </trkpt>
      <trkpt lat="49.76862" lon="4.8297">
        <ele>261</ele>
        <time>2022-07-15T10:30:55.000Z</time>
      </trkpt>
      <trkpt lat="49.76859" lon="4.82964">
        <ele>261</ele>
        <time>2022-07-15T10:30:56.000Z</time>
      </trkpt>
      <trkpt lat="49.76856" lon="4.82957">
        <ele>261</ele>
        <time>2022-07-15T10:30:57.000Z</time>
      </trkpt>
      <trkpt lat="49.76854" lon="4.82951">
        <ele>261</ele>
        <time>2022-07-15T10:30:58.000Z</time>
      </trkpt>
      <trkpt lat="49.76851" lon="4.82944">
        <ele>261</ele>
        <time>2022-07-15T10:30:59.000Z</time>
      </trkpt>
      <trkpt lat="49.76848" lon="4.82938">
        <ele>261</ele>
        <time>2022-07-15T10:31:00.000Z</time>
      </trkpt>
      <trkpt lat="49.76846" lon="4.82932">
        <ele>261</ele>
        <time>2022-07-15T10:31:01.000Z</time>
      </trkpt>
      <trkpt lat="49.76843" lon="4.82925">
        <ele>260</ele>
        <time>2022-07-15T10:31:02.000Z</time>
      </trkpt>
      <trkpt lat="49.7684" lon="4.82918">
        <ele>260</ele>
        <time>2022-07-15T10:31:03.000Z</time>
      </trkpt>
      <trkpt lat="49.76837" lon="4.82912">
        <ele>260</ele>
        <time>2022-07-15T10:31:04.000Z</time>
      </trkpt>
      <trkpt lat="49.76834" lon="4.82905">
        <ele>260</ele>
        <time>2022-07-15T10:31:05.000Z</time>
      </trkpt>
      <trkpt lat="49.76831" lon="4.82898">
        <ele>260</ele>
        <time>2022-07-15T10:31:06.000Z</time>
      </trkpt>
      <trkpt lat="49.76828" lon="4.82892">
        <ele>260</ele>
        <time>2022-07-15T10:31:07.000Z</time>
      </trkpt>
      <trkpt lat="49.76825" lon="4.82885">
        <ele>259</ele>
        <time>2022-07-15T10:31:08.000Z</time>
      </trkpt>
      <trkpt lat="49.76822" lon="4.82878">
        <ele>259</ele>
        <time>2022-07-15T10:31:09.000Z</time>
      </trkpt>
      <trkpt lat="49.76818" lon="4.82871">
        <ele>259</ele>
        <time>2022-07-15T10:31:10.000Z</time>
      </trkpt>
      <trkpt lat="49.76815" lon="4.82865">
        <ele>259</ele>
        <time>2022-07-15T10:31:11.000Z</time>
      </trkpt>
      <trkpt lat="49.76812" lon="4.82858">
        <ele>259</ele>
        <time>2022-07-15T10:31:12.000Z</time>
      </trkpt>
      <trkpt lat="49.76809" lon="4.82852">
        <ele>259</ele>
        <time>2022-07-15T10:31:13.000Z</time>
      </trkpt>
      <trkpt lat="49.76806" lon="4.82846">
        <ele>259</ele>
        <time>2022-07-15T10:31:14.000Z</time>
      </trkpt>
      <trkpt lat="49.76803" lon="4.82839">
        <ele>259</ele>
        <time>2022-07-15T10:31:15.000Z</time>
      </trkpt>
      <trkpt lat="49.76799" lon="4.82833">
        <ele>258</ele>
        <time>2022-07-15T10:31:16.000Z</time>
      </trkpt>
      <trkpt lat="49.76796" lon="4.82826">
        <ele>258</ele>
        <time>2022-07-15T10:31:17.000Z</time>
      </trkpt>
      <trkpt lat="49.76793" lon="4.82819">
        <ele>258</ele>
        <time>2022-07-15T10:31:18.000Z</time>
      </trkpt>
      <trkpt lat="49.7679" lon="4.82813">
        <ele>258</ele>
        <time>2022-07-15T10:31:19.000Z</time>
      </trkpt>
      <trkpt lat="49.76786" lon="4.82806">
        <ele>258</ele>
        <time>2022-07-15T10:31:20.000Z</time>
      </trkpt>
      <trkpt lat="49.76783" lon="4.82799">
        <ele>257</ele>
        <time>2022-07-15T10:31:21.000Z</time>
      </trkpt>
      <trkpt lat="49.76779" lon="4.82792">
        <ele>257</ele>
        <time>2022-07-15T10:31:22.000Z</time>
      </trkpt>
      <trkpt lat="49.76776" lon="4.82785">
        <ele>257</ele>
        <time>2022-07-15T10:31:23.000Z</time>
      </trkpt>
      <trkpt lat="49.76772" lon="4.82777">
        <ele>256</ele>
        <time>2022-07-15T10:31:24.000Z</time>
      </trkpt>
      <trkpt lat="49.76768" lon="4.82768">
        <ele>256</ele>
        <time>2022-07-15T10:31:25.000Z</time>
      </trkpt>
      <trkpt lat="49.76765" lon="4.8276">
        <ele>256</ele>
        <time>2022-07-15T10:31:26.000Z</time>
      </trkpt>
      <trkpt lat="49.76761" lon="4.82751">
        <ele>255</ele>
        <time>2022-07-15T10:31:27.000Z</time>
      </trkpt>
      <trkpt lat="49.76757" lon="4.82743">
        <ele>255</ele>
        <time>2022-07-15T10:31:28.000Z</time>
      </trkpt>
      <trkpt lat="49.76753" lon="4.82735">
        <ele>255</ele>
        <time>2022-07-15T10:31:29.000Z</time>
      </trkpt>
      <trkpt lat="49.76749" lon="4.82726">
        <ele>254</ele>
        <time>2022-07-15T10:31:30.000Z</time>
      </trkpt>
      <trkpt lat="49.76746" lon="4.82717">
        <ele>254</ele>
        <time>2022-07-15T10:31:31.000Z</time>
      </trkpt>
      <trkpt lat="49.76742" lon="4.82708">
        <ele>254</ele>
        <time>2022-07-15T10:31:32.000Z</time>
      </trkpt>
      <trkpt lat="49.76739" lon="4.827">
        <ele>254</ele>
        <time>2022-07-15T10:31:33.000Z</time>
      </trkpt>
      <trkpt lat="49.76736" lon="4.82691">
        <ele>253</ele>
        <time>2022-07-15T10:31:34.000Z</time>
      </trkpt>
      <trkpt lat="49.76733" lon="4.82682">
        <ele>253</ele>
        <time>2022-07-15T10:31:35.000Z</time>
      </trkpt>
      <trkpt lat="49.7673" lon="4.82673">
        <ele>253</ele>
        <time>2022-07-15T10:31:36.000Z</time>
      </trkpt>
      <trkpt lat="49.76727" lon="4.82663">
        <ele>253</ele>
        <time>2022-07-15T10:31:37.000Z</time>
      </trkpt>
      <trkpt lat="49.76724" lon="4.82654">
        <ele>253</ele>
        <time>2022-07-15T10:31:38.000Z</time>
      </trkpt>
      <trkpt lat="49.76721" lon="4.82644">
        <ele>253</ele>
        <time>2022-07-15T10:31:39.000Z</time>
      </trkpt>
      <trkpt lat="49.76719" lon="4.82635">
        <ele>252</ele>
        <time>2022-07-15T10:31:40.000Z</time>
      </trkpt>
      <trkpt lat="49.76716" lon="4.82625">
        <ele>252</ele>
        <time>2022-07-15T10:31:41.000Z</time>
      </trkpt>
      <trkpt lat="49.76714" lon="4.82616">
        <ele>252</ele>
        <time>2022-07-15T10:31:42.000Z</time>
      </trkpt>
      <trkpt lat="49.76712" lon="4.82607">
        <ele>252</ele>
        <time>2022-07-15T10:31:43.000Z</time>
      </trkpt>
      <trkpt lat="49.7671" lon="4.82599">
        <ele>252</ele>
        <time>2022-07-15T10:31:44.000Z</time>
      </trkpt>
      <trkpt lat="49.76708" lon="4.8259">
        <ele>252</ele>
        <time>2022-07-15T10:31:45.000Z</time>
      </trkpt>
      <trkpt lat="49.76706" lon="4.82582">
        <ele>252</ele>
        <time>2022-07-15T10:31:46.000Z</time>
      </trkpt>
      <trkpt lat="49.76704" lon="4.82573">
        <ele>251</ele>
        <time>2022-07-15T10:31:47.000Z</time>
      </trkpt>
      <trkpt lat="49.76702" lon="4.82565">
        <ele>251</ele>
        <time>2022-07-15T10:31:48.000Z</time>
      </trkpt>
      <trkpt lat="49.767" lon="4.82557">
        <ele>251</ele>
        <time>2022-07-15T10:31:49.000Z</time>
      </trkpt>
      <trkpt lat="49.76698" lon="4.82549">
        <ele>251</ele>
        <time>2022-07-15T10:31:50.000Z</time>
      </trkpt>
      <trkpt lat="49.76696" lon="4.82541">
        <ele>251</ele>
        <time>2022-07-15T10:31:51.000Z</time>
      </trkpt>
      <trkpt lat="49.76694" lon="4.82532">
        <ele>250</ele>
        <time>2022-07-15T10:31:52.000Z</time>
      </trkpt>
      <trkpt lat="49.76692" lon="4.82523">
        <ele>250</ele>
        <time>2022-07-15T10:31:53.000Z</time>
      </trkpt>
      <trkpt lat="49.7669" lon="4.82514">
        <ele>250</ele>
        <time>2022-07-15T10:31:54.000Z</time>
      </trkpt>
      <trkpt lat="49.76687" lon="4.82505">
        <ele>250</ele>
        <time>2022-07-15T10:31:55.000Z</time>
      </trkpt>
      <trkpt lat="49.76685" lon="4.82496">
        <ele>250</ele>
        <time>2022-07-15T10:31:56.000Z</time>
      </trkpt>
      <trkpt lat="49.76682" lon="4.82487">
        <ele>250</ele>
        <time>2022-07-15T10:31:57.000Z</time>
      </trkpt>
      <trkpt lat="49.7668" lon="4.82478">
        <ele>250</ele>
        <time>2022-07-15T10:31:58.000Z</time>
      </trkpt>
      <trkpt lat="49.76677" lon="4.8247">
        <ele>250</ele>
        <time>2022-07-15T10:31:59.000Z</time>
      </trkpt>
      <trkpt lat="49.76674" lon="4.82461">
        <ele>249</ele>
        <time>2022-07-15T10:32:00.000Z</time>
      </trkpt>
      <trkpt lat="49.76672" lon="4.82452">
        <ele>249</ele>
        <time>2022-07-15T10:32:01.000Z</time>
      </trkpt>
      <trkpt lat="49.76669" lon="4.82444">
        <ele>249</ele>
        <time>2022-07-15T10:32:02.000Z</time>
      </trkpt>
      <trkpt lat="49.76667" lon="4.82435">
        <ele>249</ele>
        <time>2022-07-15T10:32:03.000Z</time>
      </trkpt>
      <trkpt lat="49.76665" lon="4.82426">
        <ele>249</ele>
        <time>2022-07-15T10:32:04.000Z</time>
      </trkpt>
      <trkpt lat="49.76662" lon="4.82418">
        <ele>249</ele>
        <time>2022-07-15T10:32:05.000Z</time>
      </trkpt>
      <trkpt lat="49.76661" lon="4.82409">
        <ele>249</ele>
        <time>2022-07-15T10:32:06.000Z</time>
      </trkpt>
      <trkpt lat="49.76659" lon="4.82401">
        <ele>249</ele>
        <time>2022-07-15T10:32:07.000Z</time>
      </trkpt>
      <trkpt lat="49.76658" lon="4.82392">
        <ele>248</ele>
        <time>2022-07-15T10:32:08.000Z</time>
      </trkpt>
      <trkpt lat="49.76656" lon="4.82384">
        <ele>248</ele>
        <time>2022-07-15T10:32:09.000Z</time>
      </trkpt>
      <trkpt lat="49.76656" lon="4.82376">
        <ele>248</ele>
        <time>2022-07-15T10:32:10.000Z</time>
      </trkpt>
      <trkpt lat="49.76655" lon="4.82368">
        <ele>248</ele>
        <time>2022-07-15T10:32:11.000Z</time>
      </trkpt>
      <trkpt lat="49.76654" lon="4.82359">
        <ele>248</ele>
        <time>2022-07-15T10:32:12.000Z</time>
      </trkpt>
      <trkpt lat="49.76653" lon="4.8235">
        <ele>248</ele>
        <time>2022-07-15T10:32:13.000Z</time>
      </trkpt>
      <trkpt lat="49.76653" lon="4.82341">
        <ele>248</ele>
        <time>2022-07-15T10:32:14.000Z</time>
      </trkpt>
      <trkpt lat="49.76652" lon="4.82332">
        <ele>248</ele>
        <time>2022-07-15T10:32:15.000Z</time>
      </trkpt>
      <trkpt lat="49.76652" lon="4.82323">
        <ele>248</ele>
        <time>2022-07-15T10:32:16.000Z</time>
      </trkpt>
      <trkpt lat="49.76651" lon="4.82314">
        <ele>248</ele>
        <time>2022-07-15T10:32:17.000Z</time>
      </trkpt>
      <trkpt lat="49.76651" lon="4.82305">
        <ele>248</ele>
        <time>2022-07-15T10:32:18.000Z</time>
      </trkpt>
      <trkpt lat="49.76651" lon="4.82297">
        <ele>248</ele>
        <time>2022-07-15T10:32:19.000Z</time>
      </trkpt>
      <trkpt lat="49.76651" lon="4.82288">
        <ele>248</ele>
        <time>2022-07-15T10:32:20.000Z</time>
      </trkpt>
      <trkpt lat="49.76651" lon="4.8228">
        <ele>248</ele>
        <time>2022-07-15T10:32:21.000Z</time>
      </trkpt>
      <trkpt lat="49.76651" lon="4.82271">
        <ele>248</ele>
        <time>2022-07-15T10:32:22.000Z</time>
      </trkpt>
      <trkpt lat="49.76649" lon="4.82263">
        <ele>248</ele>
        <time>2022-07-15T10:32:23.000Z</time>
      </trkpt>
      <trkpt lat="49.76647" lon="4.82255">
        <ele>248</ele>
        <time>2022-07-15T10:32:24.000Z</time>
      </trkpt>
      <trkpt lat="49.76645" lon="4.82246">
        <ele>248</ele>
        <time>2022-07-15T10:32:25.000Z</time>
      </trkpt>
      <trkpt lat="49.76644" lon="4.82239">
        <ele>248</ele>
        <time>2022-07-15T10:32:26.000Z</time>
      </trkpt>
      <trkpt lat="49.76642" lon="4.82231">
        <ele>248</ele>
        <time>2022-07-15T10:32:27.000Z</time>
      </trkpt>
      <trkpt lat="49.7664" lon="4.82223">
        <ele>247</ele>
        <time>2022-07-15T10:32:28.000Z</time>
      </trkpt>
      <trkpt lat="49.76638" lon="4.82215">
        <ele>247</ele>
        <time>2022-07-15T10:32:29.000Z</time>
      </trkpt>
      <trkpt lat="49.76637" lon="4.82207">
        <ele>248</ele>
        <time>2022-07-15T10:32:30.000Z</time>
      </trkpt>
      <trkpt lat="49.76635" lon="4.82198">
        <ele>247</ele>
        <time>2022-07-15T10:32:31.000Z</time>
      </trkpt>
      <trkpt lat="49.76633" lon="4.8219">
        <ele>248</ele>
        <time>2022-07-15T10:32:32.000Z</time>
      </trkpt>
      <trkpt lat="49.76631" lon="4.82181">
        <ele>248</ele>
        <time>2022-07-15T10:32:33.000Z</time>
      </trkpt>
      <trkpt lat="49.76629" lon="4.82173">
        <ele>248</ele>
        <time>2022-07-15T10:32:34.000Z</time>
      </trkpt>
      <trkpt lat="49.76627" lon="4.82164">
        <ele>248</ele>
        <time>2022-07-15T10:32:35.000Z</time>
      </trkpt>
      <trkpt lat="49.76625" lon="4.82156">
        <ele>248</ele>
        <time>2022-07-15T10:32:36.000Z</time>
      </trkpt>
      <trkpt lat="49.76623" lon="4.82148">
        <ele>248</ele>
        <time>2022-07-15T10:32:37.000Z</time>
      </trkpt>
      <trkpt lat="49.76621" lon="4.8214">
        <ele>248</ele>
        <time>2022-07-15T10:32:38.000Z</time>
      </trkpt>
      <trkpt lat="49.76619" lon="4.82132">
        <ele>248</ele>
        <time>2022-07-15T10:32:39.000Z</time>
      </trkpt>
      <trkpt lat="49.76617" lon="4.82125">
        <ele>248</ele>
        <time>2022-07-15T10:32:40.000Z</time>
      </trkpt>
      <trkpt lat="49.76615" lon="4.82117">
        <ele>248</ele>
        <time>2022-07-15T10:32:41.000Z</time>
      </trkpt>
      <trkpt lat="49.76612" lon="4.8211">
        <ele>248</ele>
        <time>2022-07-15T10:32:42.000Z</time>
      </trkpt>
      <trkpt lat="49.7661" lon="4.82102">
        <ele>248</ele>
        <time>2022-07-15T10:32:43.000Z</time>
      </trkpt>
      <trkpt lat="49.76608" lon="4.82094">
        <ele>248</ele>
        <time>2022-07-15T10:32:44.000Z</time>
      </trkpt>
      <trkpt lat="49.76606" lon="4.82086">
        <ele>248</ele>
        <time>2022-07-15T10:32:45.000Z</time>
      </trkpt>
      <trkpt lat="49.76605" lon="4.82079">
        <ele>248</ele>
        <time>2022-07-15T10:32:46.000Z</time>
      </trkpt>
      <trkpt lat="49.76603" lon="4.82071">
        <ele>248</ele>
        <time>2022-07-15T10:32:47.000Z</time>
      </trkpt>
      <trkpt lat="49.76601" lon="4.82064">
        <ele>248</ele>
        <time>2022-07-15T10:32:48.000Z</time>
      </trkpt>
      <trkpt lat="49.766" lon="4.82056">
        <ele>248</ele>
        <time>2022-07-15T10:32:49.000Z</time>
      </trkpt>
      <trkpt lat="49.76598" lon="4.82049">
        <ele>248</ele>
        <time>2022-07-15T10:32:50.000Z</time>
      </trkpt>
      <trkpt lat="49.76596" lon="4.82041">
        <ele>248</ele>
        <time>2022-07-15T10:32:51.000Z</time>
      </trkpt>
      <trkpt lat="49.76595" lon="4.82033">
        <ele>248</ele>
        <time>2022-07-15T10:32:52.000Z</time>
      </trkpt>
      <trkpt lat="49.76594" lon="4.82026">
        <ele>247</ele>
        <time>2022-07-15T10:32:53.000Z</time>
      </trkpt>
      <trkpt lat="49.76593" lon="4.82018">
        <ele>247</ele>
        <time>2022-07-15T10:32:54.000Z</time>
      </trkpt>
      <trkpt lat="49.76592" lon="4.82012">
        <ele>247</ele>
        <time>2022-07-15T10:32:55.000Z</time>
      </trkpt>
      <trkpt lat="49.76591" lon="4.82008">
        <ele>247</ele>
        <time>2022-07-15T10:32:56.000Z</time>
      </trkpt>
      <trkpt lat="49.7659" lon="4.82004">
        <ele>247</ele>
        <time>2022-07-15T10:32:57.000Z</time>
      </trkpt>
      <trkpt lat="49.76588" lon="4.82002">
        <ele>247</ele>
        <time>2022-07-15T10:32:58.000Z</time>
      </trkpt>
      <trkpt lat="49.76585" lon="4.82001">
        <ele>247</ele>
        <time>2022-07-15T10:32:59.000Z</time>
      </trkpt>
      <trkpt lat="49.76581" lon="4.82002">
        <ele>247</ele>
        <time>2022-07-15T10:33:00.000Z</time>
      </trkpt>
      <trkpt lat="49.76578" lon="4.82004">
        <ele>247</ele>
        <time>2022-07-15T10:33:01.000Z</time>
      </trkpt>
      <trkpt lat="49.76574" lon="4.82007">
        <ele>248</ele>
        <time>2022-07-15T10:33:02.000Z</time>
      </trkpt>
      <trkpt lat="49.76571" lon="4.8201">
        <ele>248</ele>
        <time>2022-07-15T10:33:03.000Z</time>
      </trkpt>
      <trkpt lat="49.76567" lon="4.82014">
        <ele>248</ele>
        <time>2022-07-15T10:33:04.000Z</time>
      </trkpt>
      <trkpt lat="49.76563" lon="4.82017">
        <ele>248</ele>
        <time>2022-07-15T10:33:05.000Z</time>
      </trkpt>
      <trkpt lat="49.7656" lon="4.82021">
        <ele>248</ele>
        <time>2022-07-15T10:33:06.000Z</time>
      </trkpt>
      <trkpt lat="49.76557" lon="4.82025">
        <ele>248</ele>
        <time>2022-07-15T10:33:07.000Z</time>
      </trkpt>
      <trkpt lat="49.76552" lon="4.82028">
        <ele>248</ele>
        <time>2022-07-15T10:33:08.000Z</time>
      </trkpt>
      <trkpt lat="49.76548" lon="4.82028">
        <ele>248</ele>
        <time>2022-07-15T10:33:09.000Z</time>
      </trkpt>
      <trkpt lat="49.76543" lon="4.82026">
        <ele>248</ele>
        <time>2022-07-15T10:33:10.000Z</time>
      </trkpt>
      <trkpt lat="49.7654" lon="4.82022">
        <ele>248</ele>
        <time>2022-07-15T10:33:11.000Z</time>
      </trkpt>
      <trkpt lat="49.76537" lon="4.82016">
        <ele>248</ele>
        <time>2022-07-15T10:33:12.000Z</time>
      </trkpt>
      <trkpt lat="49.76535" lon="4.82009">
        <ele>248</ele>
        <time>2022-07-15T10:33:13.000Z</time>
      </trkpt>
      <trkpt lat="49.76533" lon="4.82003">
        <ele>248</ele>
        <time>2022-07-15T10:33:14.000Z</time>
      </trkpt>
      <trkpt lat="49.76531" lon="4.81996">
        <ele>248</ele>
        <time>2022-07-15T10:33:15.000Z</time>
      </trkpt>
      <trkpt lat="49.76529" lon="4.81989">
        <ele>248</ele>
        <time>2022-07-15T10:33:16.000Z</time>
      </trkpt>
      <trkpt lat="49.76526" lon="4.81983">
        <ele>247</ele>
        <time>2022-07-15T10:33:17.000Z</time>
      </trkpt>
      <trkpt lat="49.76524" lon="4.81976">
        <ele>247</ele>
        <time>2022-07-15T10:33:18.000Z</time>
      </trkpt>
      <trkpt lat="49.76522" lon="4.81969">
        <ele>247</ele>
        <time>2022-07-15T10:33:19.000Z</time>
      </trkpt>
      <trkpt lat="49.7652" lon="4.81963">
        <ele>247</ele>
        <time>2022-07-15T10:33:20.000Z</time>
      </trkpt>
      <trkpt lat="49.76519" lon="4.81956">
        <ele>247</ele>
        <time>2022-07-15T10:33:21.000Z</time>
      </trkpt>
      <trkpt lat="49.76517" lon="4.81949">
        <ele>247</ele>
        <time>2022-07-15T10:33:22.000Z</time>
      </trkpt>
      <trkpt lat="49.76515" lon="4.81943">
        <ele>247</ele>
        <time>2022-07-15T10:33:23.000Z</time>
      </trkpt>
      <trkpt lat="49.76512" lon="4.81937">
        <ele>247</ele>
        <time>2022-07-15T10:33:24.000Z</time>
      </trkpt>
      <trkpt lat="49.7651" lon="4.8193">
        <ele>247</ele>
        <time>2022-07-15T10:33:25.000Z</time>
      </trkpt>
      <trkpt lat="49.76509" lon="4.81923">
        <ele>247</ele>
        <time>2022-07-15T10:33:26.000Z</time>
      </trkpt>
      <trkpt lat="49.76507" lon="4.81916">
        <ele>247</ele>
        <time>2022-07-15T10:33:27.000Z</time>
      </trkpt>
      <trkpt lat="49.76505" lon="4.8191">
        <ele>247</ele>
        <time>2022-07-15T10:33:28.000Z</time>
      </trkpt>
      <trkpt lat="49.76503" lon="4.81903">
        <ele>247</ele>
        <time>2022-07-15T10:33:29.000Z</time>
      </trkpt>
      <trkpt lat="49.76502" lon="4.81897">
        <ele>248</ele>
        <time>2022-07-15T10:33:30.000Z</time>
      </trkpt>
      <trkpt lat="49.76501" lon="4.81891">
        <ele>248</ele>
        <time>2022-07-15T10:33:31.000Z</time>
      </trkpt>
      <trkpt lat="49.76499" lon="4.81885">
        <ele>248</ele>
        <time>2022-07-15T10:33:32.000Z</time>
      </trkpt>
      <trkpt lat="49.76498" lon="4.81879">
        <ele>248</ele>
        <time>2022-07-15T10:33:33.000Z</time>
      </trkpt>
      <trkpt lat="49.76496" lon="4.81873">
        <ele>248</ele>
        <time>2022-07-15T10:33:34.000Z</time>
      </trkpt>
      <trkpt lat="49.76495" lon="4.81867">
        <ele>248</ele>
        <time>2022-07-15T10:33:35.000Z</time>
      </trkpt>
      <trkpt lat="49.76494" lon="4.81862">
        <ele>248</ele>
        <time>2022-07-15T10:33:36.000Z</time>
      </trkpt>
      <trkpt lat="49.76493" lon="4.81857">
        <ele>248</ele>
        <time>2022-07-15T10:33:37.000Z</time>
      </trkpt>
      <trkpt lat="49.76492" lon="4.81852">
        <ele>248</ele>
        <time>2022-07-15T10:33:38.000Z</time>
      </trkpt>
      <trkpt lat="49.7649" lon="4.81848">
        <ele>248</ele>
        <time>2022-07-15T10:33:39.000Z</time>
      </trkpt>
      <trkpt lat="49.76489" lon="4.81843">
        <ele>248</ele>
        <time>2022-07-15T10:33:40.000Z</time>
      </trkpt>
      <trkpt lat="49.76488" lon="4.81837">
        <ele>248</ele>
        <time>2022-07-15T10:33:41.000Z</time>
      </trkpt>
      <trkpt lat="49.76486" lon="4.81832">
        <ele>248</ele>
        <time>2022-07-15T10:33:42.000Z</time>
      </trkpt>
      <trkpt lat="49.76485" lon="4.81826">
        <ele>249</ele>
        <time>2022-07-15T10:33:43.000Z</time>
      </trkpt>
      <trkpt lat="49.76484" lon="4.8182">
        <ele>249</ele>
        <time>2022-07-15T10:33:44.000Z</time>
      </trkpt>
      <trkpt lat="49.76483" lon="4.81815">
        <ele>249</ele>
        <time>2022-07-15T10:33:45.000Z</time>
      </trkpt>
      <trkpt lat="49.76482" lon="4.81809">
        <ele>249</ele>
        <time>2022-07-15T10:33:46.000Z</time>
      </trkpt>
      <trkpt lat="49.76481" lon="4.81804">
        <ele>249</ele>
        <time>2022-07-15T10:33:47.000Z</time>
      </trkpt>
      <trkpt lat="49.76479" lon="4.818">
        <ele>249</ele>
        <time>2022-07-15T10:33:48.000Z</time>
      </trkpt>
      <trkpt lat="49.76478" lon="4.81795">
        <ele>249</ele>
        <time>2022-07-15T10:33:49.000Z</time>
      </trkpt>
      <trkpt lat="49.76477" lon="4.81791">
        <ele>249</ele>
        <time>2022-07-15T10:33:50.000Z</time>
      </trkpt>
      <trkpt lat="49.76476" lon="4.81787">
        <ele>250</ele>
        <time>2022-07-15T10:33:51.000Z</time>
      </trkpt>
      <trkpt lat="49.76475" lon="4.81783">
        <ele>250</ele>
        <time>2022-07-15T10:33:52.000Z</time>
      </trkpt>
      <trkpt lat="49.76475" lon="4.8178">
        <ele>250</ele>
        <time>2022-07-15T10:33:53.000Z</time>
      </trkpt>
      <trkpt lat="49.76474" lon="4.81776">
        <ele>250</ele>
        <time>2022-07-15T10:33:54.000Z</time>
      </trkpt>
      <trkpt lat="49.76473" lon="4.81773">
        <ele>250</ele>
        <time>2022-07-15T10:33:55.000Z</time>
      </trkpt>
      <trkpt lat="49.76472" lon="4.81769">
        <ele>250</ele>
        <time>2022-07-15T10:33:56.000Z</time>
      </trkpt>
      <trkpt lat="49.76471" lon="4.81766">
        <ele>250</ele>
        <time>2022-07-15T10:33:57.000Z</time>
      </trkpt>
      <trkpt lat="49.7647" lon="4.81762">
        <ele>250</ele>
        <time>2022-07-15T10:33:58.000Z</time>
      </trkpt>
      <trkpt lat="49.76469" lon="4.81758">
        <ele>251</ele>
        <time>2022-07-15T10:33:59.000Z</time>
      </trkpt>
      <trkpt lat="49.76468" lon="4.81754">
        <ele>251</ele>
        <time>2022-07-15T10:34:00.000Z</time>
      </trkpt>
      <trkpt lat="49.76467" lon="4.81751">
        <ele>251</ele>
        <time>2022-07-15T10:34:01.000Z</time>
      </trkpt>
      <trkpt lat="49.76466" lon="4.81747">
        <ele>251</ele>
        <time>2022-07-15T10:34:02.000Z</time>
      </trkpt>
      <trkpt lat="49.76465" lon="4.81744">
        <ele>251</ele>
        <time>2022-07-15T10:34:03.000Z</time>
      </trkpt>
      <trkpt lat="49.76464" lon="4.8174">
        <ele>251</ele>
        <time>2022-07-15T10:34:04.000Z</time>
      </trkpt>
      <trkpt lat="49.76462" lon="4.81736">
        <ele>251</ele>
        <time>2022-07-15T10:34:05.000Z</time>
      </trkpt>
      <trkpt lat="49.76461" lon="4.81732">
        <ele>251</ele>
        <time>2022-07-15T10:34:06.000Z</time>
      </trkpt>
      <trkpt lat="49.7646" lon="4.81728">
        <ele>252</ele>
        <time>2022-07-15T10:34:07.000Z</time>
      </trkpt>
      <trkpt lat="49.76459" lon="4.81724">
        <ele>252</ele>
        <time>2022-07-15T10:34:08.000Z</time>
      </trkpt>
      <trkpt lat="49.76459" lon="4.8172">
        <ele>252</ele>
        <time>2022-07-15T10:34:09.000Z</time>
      </trkpt>
      <trkpt lat="49.76458" lon="4.81716">
        <ele>252</ele>
        <time>2022-07-15T10:34:10.000Z</time>
      </trkpt>
      <trkpt lat="49.76456" lon="4.81713">
        <ele>252</ele>
        <time>2022-07-15T10:34:11.000Z</time>
      </trkpt>
      <trkpt lat="49.76455" lon="4.81709">
        <ele>252</ele>
        <time>2022-07-15T10:34:12.000Z</time>
      </trkpt>
      <trkpt lat="49.76455" lon="4.81705">
        <ele>253</ele>
        <time>2022-07-15T10:34:13.000Z</time>
      </trkpt>
      <trkpt lat="49.76453" lon="4.81701">
        <ele>253</ele>
        <time>2022-07-15T10:34:14.000Z</time>
      </trkpt>
      <trkpt lat="49.76452" lon="4.81698">
        <ele>253</ele>
        <time>2022-07-15T10:34:15.000Z</time>
      </trkpt>
      <trkpt lat="49.76451" lon="4.81693">
        <ele>253</ele>
        <time>2022-07-15T10:34:16.000Z</time>
      </trkpt>
      <trkpt lat="49.7645" lon="4.8169">
        <ele>253</ele>
        <time>2022-07-15T10:34:17.000Z</time>
      </trkpt>
      <trkpt lat="49.76449" lon="4.81686">
        <ele>253</ele>
        <time>2022-07-15T10:34:18.000Z</time>
      </trkpt>
      <trkpt lat="49.76448" lon="4.81682">
        <ele>253</ele>
        <time>2022-07-15T10:34:19.000Z</time>
      </trkpt>
      <trkpt lat="49.76447" lon="4.81678">
        <ele>253</ele>
        <time>2022-07-15T10:34:20.000Z</time>
      </trkpt>
      <trkpt lat="49.76446" lon="4.81674">
        <ele>254</ele>
        <time>2022-07-15T10:34:21.000Z</time>
      </trkpt>
      <trkpt lat="49.76446" lon="4.81671">
        <ele>254</ele>
        <time>2022-07-15T10:34:22.000Z</time>
      </trkpt>
      <trkpt lat="49.76445" lon="4.81668">
        <ele>254</ele>
        <time>2022-07-15T10:34:23.000Z</time>
      </trkpt>
      <trkpt lat="49.76444" lon="4.81665">
        <ele>254</ele>
        <time>2022-07-15T10:34:24.000Z</time>
      </trkpt>
      <trkpt lat="49.76443" lon="4.81661">
        <ele>254</ele>
        <time>2022-07-15T10:34:25.000Z</time>
      </trkpt>
      <trkpt lat="49.76442" lon="4.81658">
        <ele>254</ele>
        <time>2022-07-15T10:34:26.000Z</time>
      </trkpt>
      <trkpt lat="49.76441" lon="4.81655">
        <ele>254</ele>
        <time>2022-07-15T10:34:27.000Z</time>
      </trkpt>
      <trkpt lat="49.76441" lon="4.81652">
        <ele>254</ele>
        <time>2022-07-15T10:34:28.000Z</time>
      </trkpt>
      <trkpt lat="49.7644" lon="4.81649">
        <ele>254</ele>
        <time>2022-07-15T10:34:29.000Z</time>
      </trkpt>
      <trkpt lat="49.76439" lon="4.81646">
        <ele>254</ele>
        <time>2022-07-15T10:34:30.000Z</time>
      </trkpt>
      <trkpt lat="49.76438" lon="4.81642">
        <ele>254</ele>
        <time>2022-07-15T10:34:31.000Z</time>
      </trkpt>
      <trkpt lat="49.76437" lon="4.81639">
        <ele>255</ele>
        <time>2022-07-15T10:34:32.000Z</time>
      </trkpt>
      <trkpt lat="49.76437" lon="4.81636">
        <ele>255</ele>
        <time>2022-07-15T10:34:33.000Z</time>
      </trkpt>
      <trkpt lat="49.76436" lon="4.81633">
        <ele>255</ele>
        <time>2022-07-15T10:34:34.000Z</time>
      </trkpt>
      <trkpt lat="49.76436" lon="4.8163">
        <ele>255</ele>
        <time>2022-07-15T10:34:35.000Z</time>
      </trkpt>
      <trkpt lat="49.76435" lon="4.81627">
        <ele>255</ele>
        <time>2022-07-15T10:34:36.000Z</time>
      </trkpt>
      <trkpt lat="49.76435" lon="4.81624">
        <ele>256</ele>
        <time>2022-07-15T10:34:37.000Z</time>
      </trkpt>
      <trkpt lat="49.76435" lon="4.81622">
        <ele>256</ele>
        <time>2022-07-15T10:34:38.000Z</time>
      </trkpt>
      <trkpt lat="49.76435" lon="4.81619">
        <ele>256</ele>
        <time>2022-07-15T10:34:39.000Z</time>
      </trkpt>
      <trkpt lat="49.76435" lon="4.81616">
        <ele>256</ele>
        <time>2022-07-15T10:34:40.000Z</time>
      </trkpt>
      <trkpt lat="49.76434" lon="4.81613">
        <ele>256</ele>
        <time>2022-07-15T10:34:41.000Z</time>
      </trkpt>
      <trkpt lat="49.76434" lon="4.8161">
        <ele>257</ele>
        <time>2022-07-15T10:34:42.000Z</time>
      </trkpt>
      <trkpt lat="49.76434" lon="4.81608">
        <ele>257</ele>
        <time>2022-07-15T10:34:43.000Z</time>
      </trkpt>
      <trkpt lat="49.76434" lon="4.81605">
        <ele>257</ele>
        <time>2022-07-15T10:34:44.000Z</time>
      </trkpt>
      <trkpt lat="49.76433" lon="4.81603">
        <ele>257</ele>
        <time>2022-07-15T10:34:45.000Z</time>
      </trkpt>
      <trkpt lat="49.76433" lon="4.81601">
        <ele>257</ele>
        <time>2022-07-15T10:34:46.000Z</time>
      </trkpt>
      <trkpt lat="49.76432" lon="4.81599">
        <ele>258</ele>
        <time>2022-07-15T10:34:47.000Z</time>
      </trkpt>
      <trkpt lat="49.76431" lon="4.81596">
        <ele>258</ele>
        <time>2022-07-15T10:34:48.000Z</time>
      </trkpt>
      <trkpt lat="49.76431" lon="4.81594">
        <ele>258</ele>
        <time>2022-07-15T10:34:49.000Z</time>
      </trkpt>
      <trkpt lat="49.76431" lon="4.81592">
        <ele>259</ele>
        <time>2022-07-15T10:34:50.000Z</time>
      </trkpt>
      <trkpt lat="49.7643" lon="4.81589">
        <ele>259</ele>
        <time>2022-07-15T10:34:51.000Z</time>
      </trkpt>
      <trkpt lat="49.76429" lon="4.81586">
        <ele>260</ele>
        <time>2022-07-15T10:34:52.000Z</time>
      </trkpt>
      <trkpt lat="49.76429" lon="4.81583">
        <ele>260</ele>
        <time>2022-07-15T10:34:53.000Z</time>
      </trkpt>
      <trkpt lat="49.76428" lon="4.8158">
        <ele>261</ele>
        <time>2022-07-15T10:34:54.000Z</time>
      </trkpt>
      <trkpt lat="49.76427" lon="4.81577">
        <ele>261</ele>
        <time>2022-07-15T10:34:55.000Z</time>
      </trkpt>
      <trkpt lat="49.76426" lon="4.81574">
        <ele>262</ele>
        <time>2022-07-15T10:34:56.000Z</time>
      </trkpt>
      <trkpt lat="49.76426" lon="4.81571">
        <ele>262</ele>
        <time>2022-07-15T10:34:57.000Z</time>
      </trkpt>
      <trkpt lat="49.76425" lon="4.81568">
        <ele>263</ele>
        <time>2022-07-15T10:34:58.000Z</time>
      </trkpt>
      <trkpt lat="49.76424" lon="4.81565">
        <ele>263</ele>
        <time>2022-07-15T10:34:59.000Z</time>
      </trkpt>
      <trkpt lat="49.76423" lon="4.81562">
        <ele>264</ele>
        <time>2022-07-15T10:35:00.000Z</time>
      </trkpt>
      <trkpt lat="49.76422" lon="4.8156">
        <ele>264</ele>
        <time>2022-07-15T10:35:01.000Z</time>
      </trkpt>
      <trkpt lat="49.76421" lon="4.81557">
        <ele>265</ele>
        <time>2022-07-15T10:35:02.000Z</time>
      </trkpt>
      <trkpt lat="49.7642" lon="4.81555">
        <ele>265</ele>
        <time>2022-07-15T10:35:03.000Z</time>
      </trkpt>
      <trkpt lat="49.76419" lon="4.81553">
        <ele>266</ele>
        <time>2022-07-15T10:35:04.000Z</time>
      </trkpt>
      <trkpt lat="49.76418" lon="4.81551">
        <ele>266</ele>
        <time>2022-07-15T10:35:05.000Z</time>
      </trkpt>
      <trkpt lat="49.76416" lon="4.81548">
        <ele>266</ele>
        <time>2022-07-15T10:35:06.000Z</time>
      </trkpt>
      <trkpt lat="49.76415" lon="4.81546">
        <ele>267</ele>
        <time>2022-07-15T10:35:07.000Z</time>
      </trkpt>
      <trkpt lat="49.76414" lon="4.81544">
        <ele>267</ele>
        <time>2022-07-15T10:35:08.000Z</time>
      </trkpt>
      <trkpt lat="49.76412" lon="4.81541">
        <ele>267</ele>
        <time>2022-07-15T10:35:09.000Z</time>
      </trkpt>
      <trkpt lat="49.76411" lon="4.81539">
        <ele>268</ele>
        <time>2022-07-15T10:35:10.000Z</time>
      </trkpt>
      <trkpt lat="49.76409" lon="4.81537">
        <ele>268</ele>
        <time>2022-07-15T10:35:11.000Z</time>
      </trkpt>
      <trkpt lat="49.76408" lon="4.81534">
        <ele>269</ele>
        <time>2022-07-15T10:35:12.000Z</time>
      </trkpt>
      <trkpt lat="49.76407" lon="4.81532">
        <ele>269</ele>
        <time>2022-07-15T10:35:13.000Z</time>
      </trkpt>
      <trkpt lat="49.76406" lon="4.81529">
        <ele>269</ele>
        <time>2022-07-15T10:35:14.000Z</time>
      </trkpt>
      <trkpt lat="49.76404" lon="4.81527">
        <ele>269</ele>
        <time>2022-07-15T10:35:15.000Z</time>
      </trkpt>
      <trkpt lat="49.76403" lon="4.81525">
        <ele>270</ele>
        <time>2022-07-15T10:35:16.000Z</time>
      </trkpt>
      <trkpt lat="49.76401" lon="4.81522">
        <ele>270</ele>
        <time>2022-07-15T10:35:17.000Z</time>
      </trkpt>
      <trkpt lat="49.764" lon="4.81519">
        <ele>270</ele>
        <time>2022-07-15T10:35:18.000Z</time>
      </trkpt>
      <trkpt lat="49.76398" lon="4.81517">
        <ele>270</ele>
        <time>2022-07-15T10:35:19.000Z</time>
      </trkpt>
      <trkpt lat="49.76396" lon="4.81514">
        <ele>270</ele>
        <time>2022-07-15T10:35:20.000Z</time>
      </trkpt>
      <trkpt lat="49.76395" lon="4.81511">
        <ele>270</ele>
        <time>2022-07-15T10:35:21.000Z</time>
      </trkpt>
      <trkpt lat="49.76393" lon="4.81508">
        <ele>271</ele>
        <time>2022-07-15T10:35:22.000Z</time>
      </trkpt>
      <trkpt lat="49.76391" lon="4.81505">
        <ele>271</ele>
        <time>2022-07-15T10:35:23.000Z</time>
      </trkpt>
      <trkpt lat="49.76389" lon="4.81502">
        <ele>271</ele>
        <time>2022-07-15T10:35:24.000Z</time>
      </trkpt>
      <trkpt lat="49.76387" lon="4.81498">
        <ele>271</ele>
        <time>2022-07-15T10:35:25.000Z</time>
      </trkpt>
      <trkpt lat="49.76385" lon="4.81495">
        <ele>271</ele>
        <time>2022-07-15T10:35:26.000Z</time>
      </trkpt>
      <trkpt lat="49.76383" lon="4.81492">
        <ele>271</ele>
        <time>2022-07-15T10:35:27.000Z</time>
      </trkpt>
      <trkpt lat="49.76381" lon="4.81489">
        <ele>271</ele>
        <time>2022-07-15T10:35:28.000Z</time>
      </trkpt>
      <trkpt lat="49.76378" lon="4.81486">
        <ele>272</ele>
        <time>2022-07-15T10:35:29.000Z</time>
      </trkpt>
      <trkpt lat="49.76376" lon="4.81483">
        <ele>272</ele>
        <time>2022-07-15T10:35:30.000Z</time>
      </trkpt>
      <trkpt lat="49.76374" lon="4.8148">
        <ele>272</ele>
        <time>2022-07-15T10:35:31.000Z</time>
      </trkpt>
      <trkpt lat="49.76371" lon="4.81478">
        <ele>272</ele>
        <time>2022-07-15T10:35:32.000Z</time>
      </trkpt>
      <trkpt lat="49.76369" lon="4.81475">
        <ele>272</ele>
        <time>2022-07-15T10:35:33.000Z</time>
      </trkpt>
      <trkpt lat="49.76366" lon="4.81473">
        <ele>272</ele>
        <time>2022-07-15T10:35:34.000Z</time>
      </trkpt>
      <trkpt lat="49.76364" lon="4.81472">
        <ele>272</ele>
        <time>2022-07-15T10:35:35.000Z</time>
      </trkpt>
      <trkpt lat="49.76361" lon="4.81471">
        <ele>272</ele>
        <time>2022-07-15T10:35:36.000Z</time>
      </trkpt>
      <trkpt lat="49.76358" lon="4.8147">
        <ele>272</ele>
        <time>2022-07-15T10:35:37.000Z</time>
      </trkpt>
      <trkpt lat="49.76355" lon="4.81469">
        <ele>272</ele>
        <time>2022-07-15T10:35:38.000Z</time>
      </trkpt>
      <trkpt lat="49.76352" lon="4.81468">
        <ele>272</ele>
        <time>2022-07-15T10:35:39.000Z</time>
      </trkpt>
      <trkpt lat="49.76349" lon="4.81466">
        <ele>272</ele>
        <time>2022-07-15T10:35:40.000Z</time>
      </trkpt>
      <trkpt lat="49.76346" lon="4.81465">
        <ele>272</ele>
        <time>2022-07-15T10:35:41.000Z</time>
      </trkpt>
      <trkpt lat="49.76342" lon="4.81465">
        <ele>273</ele>
        <time>2022-07-15T10:35:42.000Z</time>
      </trkpt>
      <trkpt lat="49.76338" lon="4.81464">
        <ele>273</ele>
        <time>2022-07-15T10:35:43.000Z</time>
      </trkpt>
      <trkpt lat="49.76334" lon="4.81463">
        <ele>273</ele>
        <time>2022-07-15T10:35:44.000Z</time>
      </trkpt>
      <trkpt lat="49.7633" lon="4.81462">
        <ele>273</ele>
        <time>2022-07-15T10:35:45.000Z</time>
      </trkpt>
      <trkpt lat="49.76326" lon="4.81462">
        <ele>272</ele>
        <time>2022-07-15T10:35:46.000Z</time>
      </trkpt>
      <trkpt lat="49.76321" lon="4.81461">
        <ele>272</ele>
        <time>2022-07-15T10:35:47.000Z</time>
      </trkpt>
      <trkpt lat="49.76316" lon="4.8146">
        <ele>272</ele>
        <time>2022-07-15T10:35:48.000Z</time>
      </trkpt>
      <trkpt lat="49.76311" lon="4.81459">
        <ele>272</ele>
        <time>2022-07-15T10:35:49.000Z</time>
      </trkpt>
      <trkpt lat="49.76306" lon="4.81458">
        <ele>272</ele>
        <time>2022-07-15T10:35:50.000Z</time>
      </trkpt>
      <trkpt lat="49.76301" lon="4.81458">
        <ele>272</ele>
        <time>2022-07-15T10:35:51.000Z</time>
      </trkpt>
      <trkpt lat="49.76295" lon="4.81458">
        <ele>272</ele>
        <time>2022-07-15T10:35:52.000Z</time>
      </trkpt>
      <trkpt lat="49.76288" lon="4.81458">
        <ele>272</ele>
        <time>2022-07-15T10:35:53.000Z</time>
      </trkpt>
      <trkpt lat="49.76282" lon="4.81457">
        <ele>271</ele>
        <time>2022-07-15T10:35:54.000Z</time>
      </trkpt>
      <trkpt lat="49.76275" lon="4.81456">
        <ele>271</ele>
        <time>2022-07-15T10:35:55.000Z</time>
      </trkpt>
      <trkpt lat="49.76268" lon="4.81455">
        <ele>271</ele>
        <time>2022-07-15T10:35:56.000Z</time>
      </trkpt>
      <trkpt lat="49.76261" lon="4.81454">
        <ele>271</ele>
        <time>2022-07-15T10:35:57.000Z</time>
      </trkpt>
      <trkpt lat="49.76253" lon="4.81452">
        <ele>271</ele>
        <time>2022-07-15T10:35:58.000Z</time>
      </trkpt>
      <trkpt lat="49.76246" lon="4.8145">
        <ele>271</ele>
        <time>2022-07-15T10:35:59.000Z</time>
      </trkpt>
      <trkpt lat="49.76238" lon="4.81449">
        <ele>270</ele>
        <time>2022-07-15T10:36:00.000Z</time>
      </trkpt>
      <trkpt lat="49.7623" lon="4.81449">
        <ele>270</ele>
        <time>2022-07-15T10:36:01.000Z</time>
      </trkpt>
      <trkpt lat="49.76223" lon="4.81449">
        <ele>270</ele>
        <time>2022-07-15T10:36:02.000Z</time>
      </trkpt>
      <trkpt lat="49.76215" lon="4.81449">
        <ele>269</ele>
        <time>2022-07-15T10:36:03.000Z</time>
      </trkpt>
      <trkpt lat="49.76207" lon="4.81449">
        <ele>269</ele>
        <time>2022-07-15T10:36:04.000Z</time>
      </trkpt>
      <trkpt lat="49.762" lon="4.81448">
        <ele>269</ele>
        <time>2022-07-15T10:36:05.000Z</time>
      </trkpt>
      <trkpt lat="49.76192" lon="4.81447">
        <ele>269</ele>
        <time>2022-07-15T10:36:06.000Z</time>
      </trkpt>
      <trkpt lat="49.76185" lon="4.81447">
        <ele>268</ele>
        <time>2022-07-15T10:36:07.000Z</time>
      </trkpt>
      <trkpt lat="49.76177" lon="4.81446">
        <ele>268</ele>
        <time>2022-07-15T10:36:08.000Z</time>
      </trkpt>
      <trkpt lat="49.7617" lon="4.81445">
        <ele>268</ele>
        <time>2022-07-15T10:36:09.000Z</time>
      </trkpt>
      <trkpt lat="49.76163" lon="4.81443">
        <ele>268</ele>
        <time>2022-07-15T10:36:10.000Z</time>
      </trkpt>
      <trkpt lat="49.76156" lon="4.81441">
        <ele>267</ele>
        <time>2022-07-15T10:36:11.000Z</time>
      </trkpt>
      <trkpt lat="49.76149" lon="4.8144">
        <ele>267</ele>
        <time>2022-07-15T10:36:12.000Z</time>
      </trkpt>
      <trkpt lat="49.76143" lon="4.81438">
        <ele>267</ele>
        <time>2022-07-15T10:36:13.000Z</time>
      </trkpt>
      <trkpt lat="49.76136" lon="4.81437">
        <ele>267</ele>
        <time>2022-07-15T10:36:14.000Z</time>
      </trkpt>
      <trkpt lat="49.76131" lon="4.81437">
        <ele>267</ele>
        <time>2022-07-15T10:36:15.000Z</time>
      </trkpt>
      <trkpt lat="49.76125" lon="4.81436">
        <ele>266</ele>
        <time>2022-07-15T10:36:16.000Z</time>
      </trkpt>
      <trkpt lat="49.76119" lon="4.81436">
        <ele>266</ele>
        <time>2022-07-15T10:36:17.000Z</time>
      </trkpt>
      <trkpt lat="49.76113" lon="4.81434">
        <ele>266</ele>
        <time>2022-07-15T10:36:18.000Z</time>
      </trkpt>
      <trkpt lat="49.76107" lon="4.81432">
        <ele>266</ele>
        <time>2022-07-15T10:36:19.000Z</time>
      </trkpt>
      <trkpt lat="49.76101" lon="4.81429">
        <ele>265</ele>
        <time>2022-07-15T10:36:20.000Z</time>
      </trkpt>
      <trkpt lat="49.76096" lon="4.81426">
        <ele>265</ele>
        <time>2022-07-15T10:36:21.000Z</time>
      </trkpt>
      <trkpt lat="49.7609" lon="4.81423">
        <ele>265</ele>
        <time>2022-07-15T10:36:22.000Z</time>
      </trkpt>
      <trkpt lat="49.76084" lon="4.81419">
        <ele>265</ele>
        <time>2022-07-15T10:36:23.000Z</time>
      </trkpt>
      <trkpt lat="49.76079" lon="4.81415">
        <ele>265</ele>
        <time>2022-07-15T10:36:24.000Z</time>
      </trkpt>
      <trkpt lat="49.76073" lon="4.81411">
        <ele>265</ele>
        <time>2022-07-15T10:36:25.000Z</time>
      </trkpt>
      <trkpt lat="49.76067" lon="4.81407">
        <ele>265</ele>
        <time>2022-07-15T10:36:26.000Z</time>
      </trkpt>
      <trkpt lat="49.76062" lon="4.81403">
        <ele>265</ele>
        <time>2022-07-15T10:36:27.000Z</time>
      </trkpt>
      <trkpt lat="49.76057" lon="4.81399">
        <ele>265</ele>
        <time>2022-07-15T10:36:28.000Z</time>
      </trkpt>
      <trkpt lat="49.76051" lon="4.81395">
        <ele>265</ele>
        <time>2022-07-15T10:36:29.000Z</time>
      </trkpt>
      <trkpt lat="49.76045" lon="4.81391">
        <ele>264</ele>
        <time>2022-07-15T10:36:30.000Z</time>
      </trkpt>
      <trkpt lat="49.76039" lon="4.81387">
        <ele>264</ele>
        <time>2022-07-15T10:36:31.000Z</time>
      </trkpt>
      <trkpt lat="49.76033" lon="4.81384">
        <ele>264</ele>
        <time>2022-07-15T10:36:32.000Z</time>
      </trkpt>
      <trkpt lat="49.76028" lon="4.8138">
        <ele>264</ele>
        <time>2022-07-15T10:36:33.000Z</time>
      </trkpt>
      <trkpt lat="49.76022" lon="4.81376">
        <ele>264</ele>
        <time>2022-07-15T10:36:34.000Z</time>
      </trkpt>
      <trkpt lat="49.76017" lon="4.81372">
        <ele>264</ele>
        <time>2022-07-15T10:36:35.000Z</time>
      </trkpt>
      <trkpt lat="49.76011" lon="4.81369">
        <ele>264</ele>
        <time>2022-07-15T10:36:36.000Z</time>
      </trkpt>
      <trkpt lat="49.76006" lon="4.81365">
        <ele>264</ele>
        <time>2022-07-15T10:36:37.000Z</time>
      </trkpt>
      <trkpt lat="49.76" lon="4.81362">
        <ele>264</ele>
        <time>2022-07-15T10:36:38.000Z</time>
      </trkpt>
      <trkpt lat="49.75994" lon="4.81359">
        <ele>264</ele>
        <time>2022-07-15T10:36:39.000Z</time>
      </trkpt>
      <trkpt lat="49.75988" lon="4.81356">
        <ele>264</ele>
        <time>2022-07-15T10:36:40.000Z</time>
      </trkpt>
      <trkpt lat="49.75981" lon="4.81353">
        <ele>263</ele>
        <time>2022-07-15T10:36:41.000Z</time>
      </trkpt>
      <trkpt lat="49.75975" lon="4.8135">
        <ele>263</ele>
        <time>2022-07-15T10:36:42.000Z</time>
      </trkpt>
      <trkpt lat="49.75969" lon="4.81347">
        <ele>263</ele>
        <time>2022-07-15T10:36:43.000Z</time>
      </trkpt>
      <trkpt lat="49.75962" lon="4.81343">
        <ele>263</ele>
        <time>2022-07-15T10:36:44.000Z</time>
      </trkpt>
      <trkpt lat="49.75955" lon="4.81341">
        <ele>263</ele>
        <time>2022-07-15T10:36:45.000Z</time>
      </trkpt>
      <trkpt lat="49.75948" lon="4.81338">
        <ele>262</ele>
        <time>2022-07-15T10:36:46.000Z</time>
      </trkpt>
      <trkpt lat="49.75941" lon="4.81336">
        <ele>262</ele>
        <time>2022-07-15T10:36:47.000Z</time>
      </trkpt>
      <trkpt lat="49.75935" lon="4.81333">
        <ele>262</ele>
        <time>2022-07-15T10:36:48.000Z</time>
      </trkpt>
      <trkpt lat="49.75929" lon="4.81331">
        <ele>262</ele>
        <time>2022-07-15T10:36:49.000Z</time>
      </trkpt>
      <trkpt lat="49.75922" lon="4.8133">
        <ele>261</ele>
        <time>2022-07-15T10:36:50.000Z</time>
      </trkpt>
      <trkpt lat="49.75916" lon="4.81329">
        <ele>261</ele>
        <time>2022-07-15T10:36:51.000Z</time>
      </trkpt>
      <trkpt lat="49.7591" lon="4.81329">
        <ele>261</ele>
        <time>2022-07-15T10:36:52.000Z</time>
      </trkpt>
      <trkpt lat="49.75904" lon="4.8133">
        <ele>261</ele>
        <time>2022-07-15T10:36:53.000Z</time>
      </trkpt>
      <trkpt lat="49.75897" lon="4.81331">
        <ele>260</ele>
        <time>2022-07-15T10:36:54.000Z</time>
      </trkpt>
      <trkpt lat="49.75892" lon="4.81333">
        <ele>260</ele>
        <time>2022-07-15T10:36:55.000Z</time>
      </trkpt>
      <trkpt lat="49.75887" lon="4.81336">
        <ele>260</ele>
        <time>2022-07-15T10:36:56.000Z</time>
      </trkpt>
      <trkpt lat="49.75881" lon="4.81339">
        <ele>260</ele>
        <time>2022-07-15T10:36:57.000Z</time>
      </trkpt>
      <trkpt lat="49.75876" lon="4.81342">
        <ele>260</ele>
        <time>2022-07-15T10:36:58.000Z</time>
      </trkpt>
      <trkpt lat="49.75871" lon="4.81345">
        <ele>260</ele>
        <time>2022-07-15T10:36:59.000Z</time>
      </trkpt>
      <trkpt lat="49.75865" lon="4.81348">
        <ele>260</ele>
        <time>2022-07-15T10:37:00.000Z</time>
      </trkpt>
      <trkpt lat="49.7586" lon="4.81351">
        <ele>260</ele>
        <time>2022-07-15T10:37:01.000Z</time>
      </trkpt>
      <trkpt lat="49.75854" lon="4.81355">
        <ele>259</ele>
        <time>2022-07-15T10:37:02.000Z</time>
      </trkpt>
      <trkpt lat="49.75849" lon="4.8136">
        <ele>259</ele>
        <time>2022-07-15T10:37:03.000Z</time>
      </trkpt>
      <trkpt lat="49.75844" lon="4.81366">
        <ele>259</ele>
        <time>2022-07-15T10:37:04.000Z</time>
      </trkpt>
      <trkpt lat="49.75839" lon="4.81372">
        <ele>259</ele>
        <time>2022-07-15T10:37:05.000Z</time>
      </trkpt>
      <trkpt lat="49.75833" lon="4.81379">
        <ele>259</ele>
        <time>2022-07-15T10:37:06.000Z</time>
      </trkpt>
      <trkpt lat="49.75828" lon="4.81386">
        <ele>259</ele>
        <time>2022-07-15T10:37:07.000Z</time>
      </trkpt>
      <trkpt lat="49.75824" lon="4.81392">
        <ele>259</ele>
        <time>2022-07-15T10:37:08.000Z</time>
      </trkpt>
      <trkpt lat="49.75818" lon="4.81399">
        <ele>258</ele>
        <time>2022-07-15T10:37:09.000Z</time>
      </trkpt>
      <trkpt lat="49.75813" lon="4.81406">
        <ele>258</ele>
        <time>2022-07-15T10:37:10.000Z</time>
      </trkpt>
      <trkpt lat="49.75809" lon="4.81413">
        <ele>258</ele>
        <time>2022-07-15T10:37:11.000Z</time>
      </trkpt>
      <trkpt lat="49.75803" lon="4.81419">
        <ele>257</ele>
        <time>2022-07-15T10:37:12.000Z</time>
      </trkpt>
      <trkpt lat="49.75798" lon="4.81425">
        <ele>257</ele>
        <time>2022-07-15T10:37:13.000Z</time>
      </trkpt>
      <trkpt lat="49.75792" lon="4.8143">
        <ele>257</ele>
        <time>2022-07-15T10:37:14.000Z</time>
      </trkpt>
      <trkpt lat="49.75786" lon="4.81435">
        <ele>257</ele>
        <time>2022-07-15T10:37:15.000Z</time>
      </trkpt>
      <trkpt lat="49.75779" lon="4.81439">
        <ele>256</ele>
        <time>2022-07-15T10:37:16.000Z</time>
      </trkpt>
      <trkpt lat="49.75773" lon="4.81444">
        <ele>256</ele>
        <time>2022-07-15T10:37:17.000Z</time>
      </trkpt>
      <trkpt lat="49.75767" lon="4.81448">
        <ele>256</ele>
        <time>2022-07-15T10:37:18.000Z</time>
      </trkpt>
      <trkpt lat="49.75761" lon="4.81452">
        <ele>256</ele>
        <time>2022-07-15T10:37:19.000Z</time>
      </trkpt>
      <trkpt lat="49.75754" lon="4.81456">
        <ele>255</ele>
        <time>2022-07-15T10:37:20.000Z</time>
      </trkpt>
      <trkpt lat="49.75748" lon="4.81459">
        <ele>255</ele>
        <time>2022-07-15T10:37:21.000Z</time>
      </trkpt>
      <trkpt lat="49.75741" lon="4.81462">
        <ele>255</ele>
        <time>2022-07-15T10:37:22.000Z</time>
      </trkpt>
      <trkpt lat="49.75735" lon="4.81465">
        <ele>254</ele>
        <time>2022-07-15T10:37:23.000Z</time>
      </trkpt>
      <trkpt lat="49.75729" lon="4.81467">
        <ele>254</ele>
        <time>2022-07-15T10:37:24.000Z</time>
      </trkpt>
      <trkpt lat="49.75723" lon="4.8147">
        <ele>254</ele>
        <time>2022-07-15T10:37:25.000Z</time>
      </trkpt>
      <trkpt lat="49.75717" lon="4.81472">
        <ele>253</ele>
        <time>2022-07-15T10:37:26.000Z</time>
      </trkpt>
      <trkpt lat="49.75711" lon="4.81474">
        <ele>253</ele>
        <time>2022-07-15T10:37:27.000Z</time>
      </trkpt>
      <trkpt lat="49.75705" lon="4.81475">
        <ele>252</ele>
        <time>2022-07-15T10:37:28.000Z</time>
      </trkpt>
      <trkpt lat="49.75699" lon="4.81477">
        <ele>252</ele>
        <time>2022-07-15T10:37:29.000Z</time>
      </trkpt>
      <trkpt lat="49.75693" lon="4.81479">
        <ele>251</ele>
        <time>2022-07-15T10:37:30.000Z</time>
      </trkpt>
      <trkpt lat="49.75686" lon="4.81481">
        <ele>251</ele>
        <time>2022-07-15T10:37:31.000Z</time>
      </trkpt>
      <trkpt lat="49.7568" lon="4.81483">
        <ele>250</ele>
        <time>2022-07-15T10:37:32.000Z</time>
      </trkpt>
      <trkpt lat="49.75674" lon="4.81485">
        <ele>249</ele>
        <time>2022-07-15T10:37:33.000Z</time>
      </trkpt>
      <trkpt lat="49.75668" lon="4.81487">
        <ele>249</ele>
        <time>2022-07-15T10:37:34.000Z</time>
      </trkpt>
      <trkpt lat="49.75662" lon="4.81489">
        <ele>248</ele>
        <time>2022-07-15T10:37:35.000Z</time>
      </trkpt>
      <trkpt lat="49.75656" lon="4.81492">
        <ele>248</ele>
        <time>2022-07-15T10:37:36.000Z</time>
      </trkpt>
      <trkpt lat="49.7565" lon="4.81494">
        <ele>247</ele>
        <time>2022-07-15T10:37:37.000Z</time>
      </trkpt>
      <trkpt lat="49.75645" lon="4.81496">
        <ele>247</ele>
        <time>2022-07-15T10:37:38.000Z</time>
      </trkpt>
      <trkpt lat="49.75639" lon="4.81499">
        <ele>246</ele>
        <time>2022-07-15T10:37:39.000Z</time>
      </trkpt>
      <trkpt lat="49.75633" lon="4.81502">
        <ele>246</ele>
        <time>2022-07-15T10:37:40.000Z</time>
      </trkpt>
      <trkpt lat="49.75627" lon="4.81505">
        <ele>246</ele>
        <time>2022-07-15T10:37:41.000Z</time>
      </trkpt>
      <trkpt lat="49.75622" lon="4.81508">
        <ele>245</ele>
        <time>2022-07-15T10:37:42.000Z</time>
      </trkpt>
      <trkpt lat="49.75617" lon="4.81512">
        <ele>245</ele>
        <time>2022-07-15T10:37:43.000Z</time>
      </trkpt>
      <trkpt lat="49.75611" lon="4.81516">
        <ele>244</ele>
        <time>2022-07-15T10:37:44.000Z</time>
      </trkpt>
      <trkpt lat="49.75606" lon="4.8152">
        <ele>244</ele>
        <time>2022-07-15T10:37:45.000Z</time>
      </trkpt>
      <trkpt lat="49.75601" lon="4.81524">
        <ele>244</ele>
        <time>2022-07-15T10:37:46.000Z</time>
      </trkpt>
      <trkpt lat="49.75595" lon="4.81529">
        <ele>243</ele>
        <time>2022-07-15T10:37:47.000Z</time>
      </trkpt>
      <trkpt lat="49.7559" lon="4.81534">
        <ele>243</ele>
        <time>2022-07-15T10:37:48.000Z</time>
      </trkpt>
      <trkpt lat="49.75585" lon="4.81538">
        <ele>243</ele>
        <time>2022-07-15T10:37:49.000Z</time>
      </trkpt>
      <trkpt lat="49.7558" lon="4.81544">
        <ele>242</ele>
        <time>2022-07-15T10:37:50.000Z</time>
      </trkpt>
      <trkpt lat="49.75575" lon="4.81549">
        <ele>242</ele>
        <time>2022-07-15T10:37:51.000Z</time>
      </trkpt>
      <trkpt lat="49.75571" lon="4.81555">
        <ele>242</ele>
        <time>2022-07-15T10:37:52.000Z</time>
      </trkpt>
      <trkpt lat="49.75566" lon="4.8156">
        <ele>241</ele>
        <time>2022-07-15T10:37:53.000Z</time>
      </trkpt>
      <trkpt lat="49.75562" lon="4.81565">
        <ele>241</ele>
        <time>2022-07-15T10:37:54.000Z</time>
      </trkpt>
      <trkpt lat="49.75558" lon="4.81571">
        <ele>241</ele>
        <time>2022-07-15T10:37:55.000Z</time>
      </trkpt>
      <trkpt lat="49.75554" lon="4.81576">
        <ele>240</ele>
        <time>2022-07-15T10:37:56.000Z</time>
      </trkpt>
      <trkpt lat="49.7555" lon="4.81581">
        <ele>240</ele>
        <time>2022-07-15T10:37:57.000Z</time>
      </trkpt>
      <trkpt lat="49.75546" lon="4.81587">
        <ele>240</ele>
        <time>2022-07-15T10:37:58.000Z</time>
      </trkpt>
      <trkpt lat="49.75542" lon="4.81593">
        <ele>239</ele>
        <time>2022-07-15T10:37:59.000Z</time>
      </trkpt>
      <trkpt lat="49.75538" lon="4.816">
        <ele>239</ele>
        <time>2022-07-15T10:38:00.000Z</time>
      </trkpt>
      <trkpt lat="49.75533" lon="4.81606">
        <ele>239</ele>
        <time>2022-07-15T10:38:01.000Z</time>
      </trkpt>
      <trkpt lat="49.75528" lon="4.81612">
        <ele>238</ele>
        <time>2022-07-15T10:38:02.000Z</time>
      </trkpt>
      <trkpt lat="49.75522" lon="4.81618">
        <ele>238</ele>
        <time>2022-07-15T10:38:03.000Z</time>
      </trkpt>
      <trkpt lat="49.75516" lon="4.81623">
        <ele>238</ele>
        <time>2022-07-15T10:38:04.000Z</time>
      </trkpt>
      <trkpt lat="49.7551" lon="4.81628">
        <ele>237</ele>
        <time>2022-07-15T10:38:05.000Z</time>
      </trkpt>
      <trkpt lat="49.75504" lon="4.81633">
        <ele>237</ele>
        <time>2022-07-15T10:38:06.000Z</time>
      </trkpt>
      <trkpt lat="49.75498" lon="4.81638">
        <ele>236</ele>
        <time>2022-07-15T10:38:07.000Z</time>
      </trkpt>
      <trkpt lat="49.75492" lon="4.81644">
        <ele>236</ele>
        <time>2022-07-15T10:38:08.000Z</time>
      </trkpt>
      <trkpt lat="49.75486" lon="4.81649">
        <ele>236</ele>
        <time>2022-07-15T10:38:09.000Z</time>
      </trkpt>
      <trkpt lat="49.75479" lon="4.81653">
        <ele>235</ele>
        <time>2022-07-15T10:38:10.000Z</time>
      </trkpt>
      <trkpt lat="49.75472" lon="4.81657">
        <ele>235</ele>
        <time>2022-07-15T10:38:11.000Z</time>
      </trkpt>
      <trkpt lat="49.75465" lon="4.8166">
        <ele>234</ele>
        <time>2022-07-15T10:38:12.000Z</time>
      </trkpt>
      <trkpt lat="49.75458" lon="4.81663">
        <ele>234</ele>
        <time>2022-07-15T10:38:13.000Z</time>
      </trkpt>
      <trkpt lat="49.75451" lon="4.81668">
        <ele>233</ele>
        <time>2022-07-15T10:38:14.000Z</time>
      </trkpt>
      <trkpt lat="49.75444" lon="4.81672">
        <ele>233</ele>
        <time>2022-07-15T10:38:15.000Z</time>
      </trkpt>
      <trkpt lat="49.75437" lon="4.81677">
        <ele>232</ele>
        <time>2022-07-15T10:38:16.000Z</time>
      </trkpt>
      <trkpt lat="49.7543" lon="4.81682">
        <ele>232</ele>
        <time>2022-07-15T10:38:17.000Z</time>
      </trkpt>
      <trkpt lat="49.75423" lon="4.81687">
        <ele>231</ele>
        <time>2022-07-15T10:38:18.000Z</time>
      </trkpt>
      <trkpt lat="49.75416" lon="4.81691">
        <ele>231</ele>
        <time>2022-07-15T10:38:19.000Z</time>
      </trkpt>
      <trkpt lat="49.7541" lon="4.81694">
        <ele>230</ele>
        <time>2022-07-15T10:38:20.000Z</time>
      </trkpt>
      <trkpt lat="49.75403" lon="4.81698">
        <ele>229</ele>
        <time>2022-07-15T10:38:21.000Z</time>
      </trkpt>
      <trkpt lat="49.75396" lon="4.81703">
        <ele>229</ele>
        <time>2022-07-15T10:38:22.000Z</time>
      </trkpt>
      <trkpt lat="49.75389" lon="4.81708">
        <ele>228</ele>
        <time>2022-07-15T10:38:23.000Z</time>
      </trkpt>
      <trkpt lat="49.75383" lon="4.81713">
        <ele>227</ele>
        <time>2022-07-15T10:38:24.000Z</time>
      </trkpt>
      <trkpt lat="49.75377" lon="4.81718">
        <ele>227</ele>
        <time>2022-07-15T10:38:25.000Z</time>
      </trkpt>
      <trkpt lat="49.75371" lon="4.81723">
        <ele>226</ele>
        <time>2022-07-15T10:38:26.000Z</time>
      </trkpt>
      <trkpt lat="49.75366" lon="4.81729">
        <ele>225</ele>
        <time>2022-07-15T10:38:27.000Z</time>
      </trkpt>
      <trkpt lat="49.75361" lon="4.81734">
        <ele>225</ele>
        <time>2022-07-15T10:38:28.000Z</time>
      </trkpt>
      <trkpt lat="49.75355" lon="4.81739">
        <ele>224</ele>
        <time>2022-07-15T10:38:29.000Z</time>
      </trkpt>
      <trkpt lat="49.7535" lon="4.81743">
        <ele>224</ele>
        <time>2022-07-15T10:38:30.000Z</time>
      </trkpt>
      <trkpt lat="49.75344" lon="4.81746">
        <ele>223</ele>
        <time>2022-07-15T10:38:31.000Z</time>
      </trkpt>
      <trkpt lat="49.75338" lon="4.81748">
        <ele>222</ele>
        <time>2022-07-15T10:38:32.000Z</time>
      </trkpt>
      <trkpt lat="49.75332" lon="4.81749">
        <ele>221</ele>
        <time>2022-07-15T10:38:33.000Z</time>
      </trkpt>
      <trkpt lat="49.75326" lon="4.81751">
        <ele>221</ele>
        <time>2022-07-15T10:38:34.000Z</time>
      </trkpt>
      <trkpt lat="49.7532" lon="4.81753">
        <ele>220</ele>
        <time>2022-07-15T10:38:35.000Z</time>
      </trkpt>
      <trkpt lat="49.75314" lon="4.81755">
        <ele>220</ele>
        <time>2022-07-15T10:38:36.000Z</time>
      </trkpt>
      <trkpt lat="49.75308" lon="4.81756">
        <ele>219</ele>
        <time>2022-07-15T10:38:37.000Z</time>
      </trkpt>
      <trkpt lat="49.75302" lon="4.81757">
        <ele>219</ele>
        <time>2022-07-15T10:38:38.000Z</time>
      </trkpt>
      <trkpt lat="49.75296" lon="4.81757">
        <ele>219</ele>
        <time>2022-07-15T10:38:39.000Z</time>
      </trkpt>
      <trkpt lat="49.7529" lon="4.81757">
        <ele>218</ele>
        <time>2022-07-15T10:38:40.000Z</time>
      </trkpt>
      <trkpt lat="49.75284" lon="4.81757">
        <ele>218</ele>
        <time>2022-07-15T10:38:41.000Z</time>
      </trkpt>
      <trkpt lat="49.75277" lon="4.81756">
        <ele>218</ele>
        <time>2022-07-15T10:38:42.000Z</time>
      </trkpt>
      <trkpt lat="49.75271" lon="4.81755">
        <ele>217</ele>
        <time>2022-07-15T10:38:43.000Z</time>
      </trkpt>
      <trkpt lat="49.75265" lon="4.81752">
        <ele>217</ele>
        <time>2022-07-15T10:38:44.000Z</time>
      </trkpt>
      <trkpt lat="49.75259" lon="4.81749">
        <ele>216</ele>
        <time>2022-07-15T10:38:45.000Z</time>
      </trkpt>
      <trkpt lat="49.75253" lon="4.81746">
        <ele>216</ele>
        <time>2022-07-15T10:38:46.000Z</time>
      </trkpt>
      <trkpt lat="49.75248" lon="4.81742">
        <ele>215</ele>
        <time>2022-07-15T10:38:47.000Z</time>
      </trkpt>
      <trkpt lat="49.75242" lon="4.81738">
        <ele>215</ele>
        <time>2022-07-15T10:38:48.000Z</time>
      </trkpt>
      <trkpt lat="49.75236" lon="4.81734">
        <ele>214</ele>
        <time>2022-07-15T10:38:49.000Z</time>
      </trkpt>
      <trkpt lat="49.7523" lon="4.8173">
        <ele>214</ele>
        <time>2022-07-15T10:38:50.000Z</time>
      </trkpt>
      <trkpt lat="49.75225" lon="4.81725">
        <ele>213</ele>
        <time>2022-07-15T10:38:51.000Z</time>
      </trkpt>
      <trkpt lat="49.7522" lon="4.81721">
        <ele>213</ele>
        <time>2022-07-15T10:38:52.000Z</time>
      </trkpt>
      <trkpt lat="49.75214" lon="4.81716">
        <ele>212</ele>
        <time>2022-07-15T10:38:53.000Z</time>
      </trkpt>
      <trkpt lat="49.75209" lon="4.81711">
        <ele>212</ele>
        <time>2022-07-15T10:38:54.000Z</time>
      </trkpt>
      <trkpt lat="49.75203" lon="4.81707">
        <ele>211</ele>
        <time>2022-07-15T10:38:55.000Z</time>
      </trkpt>
      <trkpt lat="49.75198" lon="4.81704">
        <ele>211</ele>
        <time>2022-07-15T10:38:56.000Z</time>
      </trkpt>
      <trkpt lat="49.75192" lon="4.81703">
        <ele>210</ele>
        <time>2022-07-15T10:38:57.000Z</time>
      </trkpt>
      <trkpt lat="49.75186" lon="4.81704">
        <ele>210</ele>
        <time>2022-07-15T10:38:58.000Z</time>
      </trkpt>
      <trkpt lat="49.7518" lon="4.81706">
        <ele>209</ele>
        <time>2022-07-15T10:38:59.000Z</time>
      </trkpt>
      <trkpt lat="49.75174" lon="4.8171">
        <ele>209</ele>
        <time>2022-07-15T10:39:00.000Z</time>
      </trkpt>
      <trkpt lat="49.75168" lon="4.81715">
        <ele>208</ele>
        <time>2022-07-15T10:39:01.000Z</time>
      </trkpt>
      <trkpt lat="49.75161" lon="4.81721">
        <ele>208</ele>
        <time>2022-07-15T10:39:02.000Z</time>
      </trkpt>
      <trkpt lat="49.75156" lon="4.81727">
        <ele>207</ele>
        <time>2022-07-15T10:39:03.000Z</time>
      </trkpt>
      <trkpt lat="49.75151" lon="4.81733">
        <ele>207</ele>
        <time>2022-07-15T10:39:04.000Z</time>
      </trkpt>
      <trkpt lat="49.75146" lon="4.81738">
        <ele>206</ele>
        <time>2022-07-15T10:39:05.000Z</time>
      </trkpt>
      <trkpt lat="49.75143" lon="4.81742">
        <ele>206</ele>
        <time>2022-07-15T10:39:06.000Z</time>
      </trkpt>
      <trkpt lat="49.7514" lon="4.81746">
        <ele>205</ele>
        <time>2022-07-15T10:39:07.000Z</time>
      </trkpt>
      <trkpt lat="49.75138" lon="4.8175">
        <ele>205</ele>
        <time>2022-07-15T10:39:08.000Z</time>
      </trkpt>
      <trkpt lat="49.75137" lon="4.81756">
        <ele>204</ele>
        <time>2022-07-15T10:39:09.000Z</time>
      </trkpt>
      <trkpt lat="49.75138" lon="4.81763">
        <ele>204</ele>
        <time>2022-07-15T10:39:10.000Z</time>
      </trkpt>
      <trkpt lat="49.7514" lon="4.81768">
        <ele>204</ele>
        <time>2022-07-15T10:39:11.000Z</time>
      </trkpt>
      <trkpt lat="49.75143" lon="4.81772">
        <ele>203</ele>
        <time>2022-07-15T10:39:12.000Z</time>
      </trkpt>
      <trkpt lat="49.75146" lon="4.81776">
        <ele>203</ele>
        <time>2022-07-15T10:39:13.000Z</time>
      </trkpt>
      <trkpt lat="49.75148" lon="4.81781">
        <ele>203</ele>
        <time>2022-07-15T10:39:14.000Z</time>
      </trkpt>
      <trkpt lat="49.75151" lon="4.81786">
        <ele>202</ele>
        <time>2022-07-15T10:39:15.000Z</time>
      </trkpt>
      <trkpt lat="49.75154" lon="4.81791">
        <ele>202</ele>
        <time>2022-07-15T10:39:16.000Z</time>
      </trkpt>
      <trkpt lat="49.75156" lon="4.81795">
        <ele>202</ele>
        <time>2022-07-15T10:39:17.000Z</time>
      </trkpt>
      <trkpt lat="49.75159" lon="4.81801">
        <ele>202</ele>
        <time>2022-07-15T10:39:18.000Z</time>
      </trkpt>
      <trkpt lat="49.75162" lon="4.81806">
        <ele>201</ele>
        <time>2022-07-15T10:39:19.000Z</time>
      </trkpt>
      <trkpt lat="49.75166" lon="4.81812">
        <ele>201</ele>
        <time>2022-07-15T10:39:20.000Z</time>
      </trkpt>
      <trkpt lat="49.7517" lon="4.81817">
        <ele>201</ele>
        <time>2022-07-15T10:39:21.000Z</time>
      </trkpt>
      <trkpt lat="49.75173" lon="4.81823">
        <ele>201</ele>
        <time>2022-07-15T10:39:22.000Z</time>
      </trkpt>
      <trkpt lat="49.75177" lon="4.81829">
        <ele>200</ele>
        <time>2022-07-15T10:39:23.000Z</time>
      </trkpt>
      <trkpt lat="49.7518" lon="4.81834">
        <ele>200</ele>
        <time>2022-07-15T10:39:24.000Z</time>
      </trkpt>
      <trkpt lat="49.75184" lon="4.8184">
        <ele>200</ele>
        <time>2022-07-15T10:39:25.000Z</time>
      </trkpt>
      <trkpt lat="49.75187" lon="4.81847">
        <ele>199</ele>
        <time>2022-07-15T10:39:26.000Z</time>
      </trkpt>
      <trkpt lat="49.75191" lon="4.81853">
        <ele>199</ele>
        <time>2022-07-15T10:39:27.000Z</time>
      </trkpt>
      <trkpt lat="49.75195" lon="4.81859">
        <ele>199</ele>
        <time>2022-07-15T10:39:28.000Z</time>
      </trkpt>
      <trkpt lat="49.75199" lon="4.81865">
        <ele>199</ele>
        <time>2022-07-15T10:39:29.000Z</time>
      </trkpt>
      <trkpt lat="49.75203" lon="4.8187">
        <ele>198</ele>
        <time>2022-07-15T10:39:30.000Z</time>
      </trkpt>
      <trkpt lat="49.75207" lon="4.81876">
        <ele>198</ele>
        <time>2022-07-15T10:39:31.000Z</time>
      </trkpt>
      <trkpt lat="49.75212" lon="4.8188">
        <ele>198</ele>
        <time>2022-07-15T10:39:32.000Z</time>
      </trkpt>
      <trkpt lat="49.75216" lon="4.81885">
        <ele>198</ele>
        <time>2022-07-15T10:39:33.000Z</time>
      </trkpt>
      <trkpt lat="49.7522" lon="4.8189">
        <ele>197</ele>
        <time>2022-07-15T10:39:34.000Z</time>
      </trkpt>
      <trkpt lat="49.75224" lon="4.81894">
        <ele>197</ele>
        <time>2022-07-15T10:39:35.000Z</time>
      </trkpt>
      <trkpt lat="49.75228" lon="4.81899">
        <ele>197</ele>
        <time>2022-07-15T10:39:36.000Z</time>
      </trkpt>
      <trkpt lat="49.75232" lon="4.81904">
        <ele>197</ele>
        <time>2022-07-15T10:39:37.000Z</time>
      </trkpt>
      <trkpt lat="49.75237" lon="4.81908">
        <ele>196</ele>
        <time>2022-07-15T10:39:38.000Z</time>
      </trkpt>
      <trkpt lat="49.75241" lon="4.81913">
        <ele>196</ele>
        <time>2022-07-15T10:39:39.000Z</time>
      </trkpt>
      <trkpt lat="49.75246" lon="4.81918">
        <ele>196</ele>
        <time>2022-07-15T10:39:40.000Z</time>
      </trkpt>
      <trkpt lat="49.7525" lon="4.81924">
        <ele>196</ele>
        <time>2022-07-15T10:39:41.000Z</time>
      </trkpt>
      <trkpt lat="49.75254" lon="4.81932">
        <ele>195</ele>
        <time>2022-07-15T10:39:42.000Z</time>
      </trkpt>
      <trkpt lat="49.75258" lon="4.81938">
        <ele>195</ele>
        <time>2022-07-15T10:39:43.000Z</time>
      </trkpt>
      <trkpt lat="49.75263" lon="4.81944">
        <ele>195</ele>
        <time>2022-07-15T10:39:44.000Z</time>
      </trkpt>
      <trkpt lat="49.75268" lon="4.8195">
        <ele>195</ele>
        <time>2022-07-15T10:39:45.000Z</time>
      </trkpt>
      <trkpt lat="49.75273" lon="4.81955">
        <ele>194</ele>
        <time>2022-07-15T10:39:46.000Z</time>
      </trkpt>
      <trkpt lat="49.75279" lon="4.81959">
        <ele>194</ele>
        <time>2022-07-15T10:39:47.000Z</time>
      </trkpt>
      <trkpt lat="49.75284" lon="4.81964">
        <ele>194</ele>
        <time>2022-07-15T10:39:48.000Z</time>
      </trkpt>
      <trkpt lat="49.75289" lon="4.81968">
        <ele>194</ele>
        <time>2022-07-15T10:39:49.000Z</time>
      </trkpt>
      <trkpt lat="49.75295" lon="4.81972">
        <ele>193</ele>
        <time>2022-07-15T10:39:50.000Z</time>
      </trkpt>
      <trkpt lat="49.753" lon="4.81977">
        <ele>193</ele>
        <time>2022-07-15T10:39:51.000Z</time>
      </trkpt>
      <trkpt lat="49.75306" lon="4.81981">
        <ele>193</ele>
        <time>2022-07-15T10:39:52.000Z</time>
      </trkpt>
      <trkpt lat="49.75312" lon="4.81985">
        <ele>192</ele>
        <time>2022-07-15T10:39:53.000Z</time>
      </trkpt>
      <trkpt lat="49.75318" lon="4.81989">
        <ele>192</ele>
        <time>2022-07-15T10:39:54.000Z</time>
      </trkpt>
      <trkpt lat="49.75324" lon="4.81993">
        <ele>191</ele>
        <time>2022-07-15T10:39:55.000Z</time>
      </trkpt>
      <trkpt lat="49.75329" lon="4.81998">
        <ele>191</ele>
        <time>2022-07-15T10:39:56.000Z</time>
      </trkpt>
      <trkpt lat="49.75335" lon="4.82002">
        <ele>191</ele>
        <time>2022-07-15T10:39:57.000Z</time>
      </trkpt>
      <trkpt lat="49.75341" lon="4.82005">
        <ele>190</ele>
        <time>2022-07-15T10:39:58.000Z</time>
      </trkpt>
      <trkpt lat="49.75347" lon="4.82009">
        <ele>190</ele>
        <time>2022-07-15T10:39:59.000Z</time>
      </trkpt>
      <trkpt lat="49.75353" lon="4.82012">
        <ele>190</ele>
        <time>2022-07-15T10:40:00.000Z</time>
      </trkpt>
      <trkpt lat="49.75359" lon="4.82016">
        <ele>189</ele>
        <time>2022-07-15T10:40:01.000Z</time>
      </trkpt>
      <trkpt lat="49.75364" lon="4.82019">
        <ele>189</ele>
        <time>2022-07-15T10:40:02.000Z</time>
      </trkpt>
      <trkpt lat="49.7537" lon="4.82022">
        <ele>189</ele>
        <time>2022-07-15T10:40:03.000Z</time>
      </trkpt>
      <trkpt lat="49.75376" lon="4.82025">
        <ele>189</ele>
        <time>2022-07-15T10:40:04.000Z</time>
      </trkpt>
      <trkpt lat="49.75382" lon="4.82028">
        <ele>189</ele>
        <time>2022-07-15T10:40:05.000Z</time>
      </trkpt>
      <trkpt lat="49.75388" lon="4.82032">
        <ele>188</ele>
        <time>2022-07-15T10:40:06.000Z</time>
      </trkpt>
      <trkpt lat="49.75394" lon="4.82036">
        <ele>188</ele>
        <time>2022-07-15T10:40:07.000Z</time>
      </trkpt>
      <trkpt lat="49.754" lon="4.82041">
        <ele>188</ele>
        <time>2022-07-15T10:40:08.000Z</time>
      </trkpt>
      <trkpt lat="49.75405" lon="4.82046">
        <ele>188</ele>
        <time>2022-07-15T10:40:09.000Z</time>
      </trkpt>
      <trkpt lat="49.75411" lon="4.82052">
        <ele>188</ele>
        <time>2022-07-15T10:40:10.000Z</time>
      </trkpt>
      <trkpt lat="49.75417" lon="4.82057">
        <ele>188</ele>
        <time>2022-07-15T10:40:11.000Z</time>
      </trkpt>
      <trkpt lat="49.75422" lon="4.82063">
        <ele>188</ele>
        <time>2022-07-15T10:40:12.000Z</time>
      </trkpt>
      <trkpt lat="49.75428" lon="4.82069">
        <ele>187</ele>
        <time>2022-07-15T10:40:13.000Z</time>
      </trkpt>
      <trkpt lat="49.75433" lon="4.82074">
        <ele>187</ele>
        <time>2022-07-15T10:40:14.000Z</time>
      </trkpt>
      <trkpt lat="49.75439" lon="4.8208">
        <ele>187</ele>
        <time>2022-07-15T10:40:15.000Z</time>
      </trkpt>
      <trkpt lat="49.75444" lon="4.82086">
        <ele>187</ele>
        <time>2022-07-15T10:40:16.000Z</time>
      </trkpt>
      <trkpt lat="49.75449" lon="4.82091">
        <ele>187</ele>
        <time>2022-07-15T10:40:17.000Z</time>
      </trkpt>
      <trkpt lat="49.75455" lon="4.82096">
        <ele>187</ele>
        <time>2022-07-15T10:40:18.000Z</time>
      </trkpt>
      <trkpt lat="49.7546" lon="4.82102">
        <ele>186</ele>
        <time>2022-07-15T10:40:19.000Z</time>
      </trkpt>
      <trkpt lat="49.75465" lon="4.82108">
        <ele>186</ele>
        <time>2022-07-15T10:40:20.000Z</time>
      </trkpt>
      <trkpt lat="49.7547" lon="4.82114">
        <ele>186</ele>
        <time>2022-07-15T10:40:21.000Z</time>
      </trkpt>
      <trkpt lat="49.75475" lon="4.82121">
        <ele>186</ele>
        <time>2022-07-15T10:40:22.000Z</time>
      </trkpt>
      <trkpt lat="49.7548" lon="4.82128">
        <ele>186</ele>
        <time>2022-07-15T10:40:23.000Z</time>
      </trkpt>
      <trkpt lat="49.75485" lon="4.82135">
        <ele>185</ele>
        <time>2022-07-15T10:40:24.000Z</time>
      </trkpt>
      <trkpt lat="49.75489" lon="4.82143">
        <ele>185</ele>
        <time>2022-07-15T10:40:25.000Z</time>
      </trkpt>
      <trkpt lat="49.75494" lon="4.8215">
        <ele>185</ele>
        <time>2022-07-15T10:40:26.000Z</time>
      </trkpt>
      <trkpt lat="49.75499" lon="4.82157">
        <ele>185</ele>
        <time>2022-07-15T10:40:27.000Z</time>
      </trkpt>
      <trkpt lat="49.75503" lon="4.82164">
        <ele>185</ele>
        <time>2022-07-15T10:40:28.000Z</time>
      </trkpt>
      <trkpt lat="49.75507" lon="4.82172">
        <ele>184</ele>
        <time>2022-07-15T10:40:29.000Z</time>
      </trkpt>
      <trkpt lat="49.75511" lon="4.8218">
        <ele>184</ele>
        <time>2022-07-15T10:40:30.000Z</time>
      </trkpt>
      <trkpt lat="49.75514" lon="4.82188">
        <ele>184</ele>
        <time>2022-07-15T10:40:31.000Z</time>
      </trkpt>
      <trkpt lat="49.75518" lon="4.82195">
        <ele>184</ele>
        <time>2022-07-15T10:40:32.000Z</time>
      </trkpt>
      <trkpt lat="49.75521" lon="4.82202">
        <ele>184</ele>
        <time>2022-07-15T10:40:33.000Z</time>
      </trkpt>
      <trkpt lat="49.75525" lon="4.82209">
        <ele>184</ele>
        <time>2022-07-15T10:40:34.000Z</time>
      </trkpt>
      <trkpt lat="49.75528" lon="4.82216">
        <ele>184</ele>
        <time>2022-07-15T10:40:35.000Z</time>
      </trkpt>
      <trkpt lat="49.75532" lon="4.82223">
        <ele>184</ele>
        <time>2022-07-15T10:40:36.000Z</time>
      </trkpt>
      <trkpt lat="49.75536" lon="4.8223">
        <ele>184</ele>
        <time>2022-07-15T10:40:37.000Z</time>
      </trkpt>
      <trkpt lat="49.7554" lon="4.82237">
        <ele>184</ele>
        <time>2022-07-15T10:40:38.000Z</time>
      </trkpt>
      <trkpt lat="49.75544" lon="4.82244">
        <ele>184</ele>
        <time>2022-07-15T10:40:39.000Z</time>
      </trkpt>
      <trkpt lat="49.75547" lon="4.82251">
        <ele>184</ele>
        <time>2022-07-15T10:40:40.000Z</time>
      </trkpt>
      <trkpt lat="49.7555" lon="4.82259">
        <ele>184</ele>
        <time>2022-07-15T10:40:41.000Z</time>
      </trkpt>
      <trkpt lat="49.7555" lon="4.82267">
        <ele>184</ele>
        <time>2022-07-15T10:40:42.000Z</time>
      </trkpt>
      <trkpt lat="49.75548" lon="4.82275">
        <ele>184</ele>
        <time>2022-07-15T10:40:43.000Z</time>
      </trkpt>
      <trkpt lat="49.75543" lon="4.82279">
        <ele>184</ele>
        <time>2022-07-15T10:40:44.000Z</time>
      </trkpt>
      <trkpt lat="49.75537" lon="4.8228">
        <ele>184</ele>
        <time>2022-07-15T10:40:45.000Z</time>
      </trkpt>
      <trkpt lat="49.75532" lon="4.82278">
        <ele>183</ele>
        <time>2022-07-15T10:40:46.000Z</time>
      </trkpt>
      <trkpt lat="49.75526" lon="4.82275">
        <ele>183</ele>
        <time>2022-07-15T10:40:47.000Z</time>
      </trkpt>
      <trkpt lat="49.75519" lon="4.82273">
        <ele>183</ele>
        <time>2022-07-15T10:40:48.000Z</time>
      </trkpt>
      <trkpt lat="49.75513" lon="4.8227">
        <ele>183</ele>
        <time>2022-07-15T10:40:49.000Z</time>
      </trkpt>
      <trkpt lat="49.75507" lon="4.82267">
        <ele>183</ele>
        <time>2022-07-15T10:40:50.000Z</time>
      </trkpt>
      <trkpt lat="49.75501" lon="4.82263">
        <ele>183</ele>
        <time>2022-07-15T10:40:51.000Z</time>
      </trkpt>
      <trkpt lat="49.75495" lon="4.82258">
        <ele>183</ele>
        <time>2022-07-15T10:40:52.000Z</time>
      </trkpt>
      <trkpt lat="49.75489" lon="4.82254">
        <ele>183</ele>
        <time>2022-07-15T10:40:53.000Z</time>
      </trkpt>
      <trkpt lat="49.75483" lon="4.82249">
        <ele>183</ele>
        <time>2022-07-15T10:40:54.000Z</time>
      </trkpt>
      <trkpt lat="49.75478" lon="4.82243">
        <ele>183</ele>
        <time>2022-07-15T10:40:55.000Z</time>
      </trkpt>
      <trkpt lat="49.75473" lon="4.82237">
        <ele>183</ele>
        <time>2022-07-15T10:40:56.000Z</time>
      </trkpt>
      <trkpt lat="49.75468" lon="4.82232">
        <ele>183</ele>
        <time>2022-07-15T10:40:57.000Z</time>
      </trkpt>
      <trkpt lat="49.75463" lon="4.82228">
        <ele>183</ele>
        <time>2022-07-15T10:40:58.000Z</time>
      </trkpt>
      <trkpt lat="49.75458" lon="4.82225">
        <ele>183</ele>
        <time>2022-07-15T10:40:59.000Z</time>
      </trkpt>
      <trkpt lat="49.75453" lon="4.82222">
        <ele>183</ele>
        <time>2022-07-15T10:41:00.000Z</time>
      </trkpt>
      <trkpt lat="49.75448" lon="4.82219">
        <ele>183</ele>
        <time>2022-07-15T10:41:01.000Z</time>
      </trkpt>
      <trkpt lat="49.75443" lon="4.82216">
        <ele>183</ele>
        <time>2022-07-15T10:41:02.000Z</time>
      </trkpt>
      <trkpt lat="49.75438" lon="4.82213">
        <ele>183</ele>
        <time>2022-07-15T10:41:03.000Z</time>
      </trkpt>
      <trkpt lat="49.75433" lon="4.82211">
        <ele>183</ele>
        <time>2022-07-15T10:41:04.000Z</time>
      </trkpt>
      <trkpt lat="49.75428" lon="4.82209">
        <ele>183</ele>
        <time>2022-07-15T10:41:05.000Z</time>
      </trkpt>
      <trkpt lat="49.75423" lon="4.82206">
        <ele>183</ele>
        <time>2022-07-15T10:41:06.000Z</time>
      </trkpt>
      <trkpt lat="49.75419" lon="4.82204">
        <ele>183</ele>
        <time>2022-07-15T10:41:07.000Z</time>
      </trkpt>
      <trkpt lat="49.75414" lon="4.82201">
        <ele>183</ele>
        <time>2022-07-15T10:41:08.000Z</time>
      </trkpt>
      <trkpt lat="49.7541" lon="4.82199">
        <ele>183</ele>
        <time>2022-07-15T10:41:09.000Z</time>
      </trkpt>
      <trkpt lat="49.75405" lon="4.82197">
        <ele>183</ele>
        <time>2022-07-15T10:41:10.000Z</time>
      </trkpt>
      <trkpt lat="49.75401" lon="4.82195">
        <ele>183</ele>
        <time>2022-07-15T10:41:11.000Z</time>
      </trkpt>
      <trkpt lat="49.75396" lon="4.82195">
        <ele>183</ele>
        <time>2022-07-15T10:41:12.000Z</time>
      </trkpt>
      <trkpt lat="49.75392" lon="4.82195">
        <ele>183</ele>
        <time>2022-07-15T10:41:13.000Z</time>
      </trkpt>
      <trkpt lat="49.75389" lon="4.82197">
        <ele>183</ele>
        <time>2022-07-15T10:41:14.000Z</time>
      </trkpt>
      <trkpt lat="49.75385" lon="4.822">
        <ele>183</ele>
        <time>2022-07-15T10:41:15.000Z</time>
      </trkpt>
      <trkpt lat="49.75383" lon="4.82203">
        <ele>183</ele>
        <time>2022-07-15T10:41:16.000Z</time>
      </trkpt>
      <trkpt lat="49.7538" lon="4.82206">
        <ele>183</ele>
        <time>2022-07-15T10:41:17.000Z</time>
      </trkpt>
      <trkpt lat="49.75378" lon="4.82206">
        <ele>183</ele>
        <time>2022-07-15T10:41:18.000Z</time>
      </trkpt>
      <trkpt lat="49.75376" lon="4.82207">
        <ele>183</ele>
        <time>2022-07-15T10:41:19.000Z</time>
      </trkpt>
    </trkseg>
  </trk>
</gpx>